﻿ProjectID	SampleID	SampleType	TaxonomyID	UniqCodeType	UniqCode	SampleName	ScientificName	CommonName	CollectionYear	CollectionMonth	CollectionDay	SamplingTimeStartEnd	SamplingTimeAMPM	SamplingDuration	WeatherStartEnd	CollectionRegion	CollectionCountry	CollectionArea	CollectionLatitudeFrom	CollectionLatitudeTo	CollectionLongitudeFrom	CollectionLongitudeTo	Sex	TissueOrgan	TissueLipid	TissueMoist	Weight	WeightUnit	Length	LengthUnit	LengthType	GrowthStage	Age	Disease	TemperatureStartEnd	WaterTemperatureStartEnd	pH	DO	EC	EC_temp	Salinity	SS	WaterDepthM	TransparencyM	WaterColor	SedimentTemperatureStartEnd	SedimentDepthM	SedimentAppearance	SedimentColor	SedimentSurfaceColor	SedimentOdor	SedimentImpurities	SedimentMoistureOnSiteAnalysis	IgnitionLossOnSiteAnalysis	SoilDepthM	FlowRate	MeanPM10	MeanTotalSuspendedParticles	HumidityStartEnd	WindDirectionStartEnd	WindSpeedMSStartEnd	AmountOfCollectedAirStartEnd	Remarks	RegisterDate	UpdateDate
PRA000012	SAA000453	ST023				St.1	Sediment	"Marine sediment"	2013	10						Asia	Japan	"Tokyo Bay"	35.63160278		139.8368889																																											2016/10/27	2016/11/4
PRA000012	SAA000454	ST023				St.2	Sediment	"Marine sediment"	2013	10						Asia	Japan	"Tokyo Bay"	35.62109444		139.7952722																																											2016/10/27	2016/11/4
PRA000012	SAA000455	ST023				St.3	Sediment	"Marine sediment"	2013	10						Asia	Japan	"Tokyo Bay"	35.61981389		139.7724917																																											2016/10/27	2016/11/4
PRA000012	SAA000456	ST023				St.4	Sediment	"Marine sediment"	2013	10						Asia	Japan	"Tokyo Bay"	35.65046111		139.7683556																																											2016/10/27	2016/11/4
PRA000012	SAA000457	ST023				St.5	Sediment	"Marine sediment"	2013	10						Asia	Japan	"Tokyo Bay"	35.62589722		139.751325																																											2016/10/27	2016/11/4
PRA000012	SAA000458	ST023				St.6	Sediment	"Marine sediment"	2013	10						Asia	Japan	"Tokyo Bay"	35.50512222		139.7769278																																											2016/10/27	2016/11/4
PRA000012	SAA000459	ST023				St.7	Sediment	"Marine sediment"	2013	10						Asia	Japan	"Tokyo Bay"	35.50478056		139.7427556																																											2016/10/27	2016/11/4
PRA000014	SAA000489	ST023				ST17	Sediment	"Marine sediment"	2007	4						Asia	Japan	"Yodo River mouth, Osaka Bay"	34.6		135.3838889																																NA/45.1913											2016/11/4	2019/7/17
PRA000014	SAA000490	ST023				ST18	Sediment	"Marine sediment"	2007	4						Asia	Japan	"Yodo River mouth, Osaka Bay"	34.66611111		135.3330556																																NA/36.6113											2016/11/4	2019/7/17
PRA000014	SAA000491	ST023				ST21	Sediment	"Marine sediment"	2007	4						Asia	Japan	"Yodo River mouth, Osaka Bay"	34.62388889		135.165																																NA/57.7128											2016/11/4	2019/7/17
PRA000022	SAA000961	ST024				A-1	Sediment	"Sediment core"	2009	6						Asia	Japan	"Lake Biwa, Shiga"	35.4513		136.0706833																										"0 - 0.005"																	2017/2/9	2019/7/12
PRA000022	SAA000962	ST024				A-3	Sediment	"Sediment core"	2009	6						Asia	Japan	"Lake Biwa, Shiga"	35.4513		136.0706833																										"0.01 - 0.015"																	2017/2/9	2019/7/12
PRA000022	SAA000963	ST024				A-5	Sediment	"Sediment core"	2009	6						Asia	Japan	"Lake Biwa, Shiga"	35.4513		136.0706833																										"0.02 - 0.025"																	2017/2/9	2019/7/12
PRA000022	SAA000964	ST024				A-7	Sediment	"Sediment core"	2009	6						Asia	Japan	"Lake Biwa, Shiga"	35.4513		136.0706833																										"0.03 - 0.035"																	2017/2/9	2019/7/12
PRA000022	SAA000965	ST024				A-9	Sediment	"Sediment core"	2009	6						Asia	Japan	"Lake Biwa, Shiga"	35.4513		136.0706833																										"0.04 - 0.045"																	2017/2/9	2019/7/12
PRA000022	SAA000966	ST024				A-11	Sediment	"Sediment core"	2009	6						Asia	Japan	"Lake Biwa, Shiga"	35.4513		136.0706833																										"0.05 - 0.055"																	2017/2/9	2019/7/12
PRA000022	SAA000967	ST024				A-13	Sediment	"Sediment core"	2009	6						Asia	Japan	"Lake Biwa, Shiga"	35.4513		136.0706833																										"0.06 - 0.065"																	2017/2/9	2019/7/12
PRA000022	SAA000968	ST024				A-15	Sediment	"Sediment core"	2009	6						Asia	Japan	"Lake Biwa, Shiga"	35.4513		136.0706833																										"0.07 - 0.075"																	2017/2/9	2019/7/12
PRA000022	SAA000969	ST024				B-1	Sediment	"Sediment core"	2009	6						Asia	Japan	"Lake Biwa, Shiga"	35.43248333		136.0842																										"0 - 0.005"																	2017/2/9	2019/7/12
PRA000022	SAA000970	ST024				B-3	Sediment	"Sediment core"	2009	6						Asia	Japan	"Lake Biwa, Shiga"	35.43248333		136.0842																										"0.01 - 0.015"																	2017/2/9	2019/7/12
PRA000022	SAA000971	ST024				B-5	Sediment	"Sediment core"	2009	6						Asia	Japan	"Lake Biwa, Shiga"	35.43248333		136.0842																										"0.02 - 0.025"																	2017/2/9	2019/7/12
PRA000022	SAA000972	ST024				B-7	Sediment	"Sediment core"	2009	6						Asia	Japan	"Lake Biwa, Shiga"	35.43248333		136.0842																										"0.03 - 0.035"																	2017/2/9	2019/7/12
PRA000022	SAA000973	ST024				B-9	Sediment	"Sediment core"	2009	6						Asia	Japan	"Lake Biwa, Shiga"	35.43248333		136.0842																										"0.04 - 0.045"																	2017/2/9	2019/7/12
PRA000022	SAA000974	ST024				B-11	Sediment	"Sediment core"	2009	6						Asia	Japan	"Lake Biwa, Shiga"	35.43248333		136.0842																										"0.05 - 0.055"																	2017/2/9	2019/7/12
PRA000022	SAA000975	ST024				B-13	Sediment	"Sediment core"	2009	6						Asia	Japan	"Lake Biwa, Shiga"	35.43248333		136.0842																										"0.06 - 0.065"																	2017/2/9	2019/7/12
PRA000022	SAA000976	ST024				B-15	Sediment	"Sediment core"	2009	6						Asia	Japan	"Lake Biwa, Shiga"	35.43248333		136.0842																										"0.07 - 0.075"																	2017/2/9	2019/7/12
PRA000022	SAA000977	ST024				C-1	Sediment	"Sediment core"	2009	6						Asia	Japan	"Lake Biwa, Shiga"	35.40296667		136.0967																										"0 - 0.005"																	2017/2/9	2019/7/12
PRA000022	SAA000978	ST024				C-3	Sediment	"Sediment core"	2009	6						Asia	Japan	"Lake Biwa, Shiga"	35.40296667		136.0967																										"0.01 - 0.015"																	2017/2/9	2019/7/12
PRA000022	SAA000979	ST024				C-5	Sediment	"Sediment core"	2009	6						Asia	Japan	"Lake Biwa, Shiga"	35.40296667		136.0967																										"0.02 - 0.025"																	2017/2/9	2019/7/12
PRA000022	SAA000980	ST024				C-7	Sediment	"Sediment core"	2009	6						Asia	Japan	"Lake Biwa, Shiga"	35.40296667		136.0967																										"0.03 - 0.035"																	2017/2/9	2019/7/12
PRA000022	SAA000981	ST024				C-9	Sediment	"Sediment core"	2009	6						Asia	Japan	"Lake Biwa, Shiga"	35.40296667		136.0967																										"0.04 - 0.045"																	2017/2/9	2019/7/12
PRA000022	SAA000982	ST024				C-11	Sediment	"Sediment core"	2009	6						Asia	Japan	"Lake Biwa, Shiga"	35.40296667		136.0967																										"0.05 - 0.055"																	2017/2/9	2019/7/12
PRA000022	SAA000983	ST024				C-13	Sediment	"Sediment core"	2009	6						Asia	Japan	"Lake Biwa, Shiga"	35.40296667		136.0967																										"0.06 - 0.065"																	2017/2/9	2019/7/12
PRA000022	SAA000984	ST024				C-15	Sediment	"Sediment core"	2009	6						Asia	Japan	"Lake Biwa, Shiga"	35.40296667		136.0967																										"0.07 - 0.075"																	2017/2/9	2019/7/12
PRA000022	SAA000985	ST024				D-1	Sediment	"Sediment core"	2009	6						Asia	Japan	"Lake Biwa, Shiga"	35.37823333		136.0982167																										"0 - 0.005"																	2017/2/9	2019/7/12
PRA000022	SAA000986	ST024				D-2	Sediment	"Sediment core"	2009	6						Asia	Japan	"Lake Biwa, Shiga"	35.37823333		136.0982167																										"0.005 - 0.01"																	2017/2/9	2019/7/12
PRA000022	SAA000987	ST024				D-3	Sediment	"Sediment core"	2009	6						Asia	Japan	"Lake Biwa, Shiga"	35.37823333		136.0982167																										"0.01 - 0.015"																	2017/2/9	2019/7/12
PRA000022	SAA000988	ST024				D-4	Sediment	"Sediment core"	2009	6						Asia	Japan	"Lake Biwa, Shiga"	35.37823333		136.0982167																										"0.015 - 0.02"																	2017/2/9	2019/7/12
PRA000022	SAA000989	ST024				D-5	Sediment	"Sediment core"	2009	6						Asia	Japan	"Lake Biwa, Shiga"	35.37823333		136.0982167																										"0.02 - 0.025"																	2017/2/9	2019/7/12
PRA000022	SAA000990	ST024				D-6	Sediment	"Sediment core"	2009	6						Asia	Japan	"Lake Biwa, Shiga"	35.37823333		136.0982167																										"0.025 - 0.03"																	2017/2/9	2019/7/12
PRA000022	SAA000991	ST024				D-7	Sediment	"Sediment core"	2009	6						Asia	Japan	"Lake Biwa, Shiga"	35.37823333		136.0982167																										"0.03 - 0.035"																	2017/2/9	2019/7/12
PRA000022	SAA000992	ST024				D-8	Sediment	"Sediment core"	2009	6						Asia	Japan	"Lake Biwa, Shiga"	35.37823333		136.0982167																										"0.035 - 0.04"																	2017/2/9	2019/7/12
PRA000022	SAA000993	ST024				D-9	Sediment	"Sediment core"	2009	6						Asia	Japan	"Lake Biwa, Shiga"	35.37823333		136.0982167																										"0.04 - 0.045"																	2017/2/9	2019/7/12
PRA000022	SAA000994	ST024				D-10	Sediment	"Sediment core"	2009	6						Asia	Japan	"Lake Biwa, Shiga"	35.37823333		136.0982167																										"0.045 - 0.05"																	2017/2/9	2019/7/12
PRA000022	SAA000995	ST024				D-11	Sediment	"Sediment core"	2009	6						Asia	Japan	"Lake Biwa, Shiga"	35.37823333		136.0982167																										"0.05 - 0.055"																	2017/2/9	2019/7/12
PRA000022	SAA000996	ST024				D-12	Sediment	"Sediment core"	2009	6						Asia	Japan	"Lake Biwa, Shiga"	35.37823333		136.0982167																										"0.055 - 0.06"																	2017/2/9	2019/7/12
PRA000022	SAA000997	ST024				D-13	Sediment	"Sediment core"	2009	6						Asia	Japan	"Lake Biwa, Shiga"	35.37823333		136.0982167																										"0.06 - 0.065"																	2017/2/9	2019/7/12
PRA000022	SAA000998	ST024				D-14	Sediment	"Sediment core"	2009	6						Asia	Japan	"Lake Biwa, Shiga"	35.37823333		136.0982167																										"0.065 - 0.07"																	2017/2/9	2019/7/12
PRA000022	SAA000999	ST024				D-15	Sediment	"Sediment core"	2009	6						Asia	Japan	"Lake Biwa, Shiga"	35.37823333		136.0982167																										"0.07 - 0.075"																	2017/2/9	2019/7/12
PRA000022	SAA001000	ST024				D-16	Sediment	"Sediment core"	2009	6						Asia	Japan	"Lake Biwa, Shiga"	35.37823333		136.0982167																										"0.075 - 0.08"																	2017/2/9	2019/7/12
PRA000022	SAA001001	ST024				E-1	Sediment	"Sediment core"	2009	6						Asia	Japan	"Lake Biwa, Shiga"	35.33648333		136.1031667																										"0 - 0.005"																	2017/2/9	2019/7/12
PRA000022	SAA001002	ST024				E-3	Sediment	"Sediment core"	2009	6						Asia	Japan	"Lake Biwa, Shiga"	35.33648333		136.1031667																										"0.01 - 0.015"																	2017/2/9	2019/7/12
PRA000022	SAA001003	ST024				E-5	Sediment	"Sediment core"	2009	6						Asia	Japan	"Lake Biwa, Shiga"	35.33648333		136.1031667																										"0.02 - 0.025"																	2017/2/9	2019/7/12
PRA000022	SAA001004	ST024				E-7	Sediment	"Sediment core"	2009	6						Asia	Japan	"Lake Biwa, Shiga"	35.33648333		136.1031667																										"0.03 - 0.035"																	2017/2/9	2019/7/12
PRA000022	SAA001005	ST024				E-9	Sediment	"Sediment core"	2009	6						Asia	Japan	"Lake Biwa, Shiga"	35.33648333		136.1031667																										"0.04 - 0.045"																	2017/2/9	2019/7/12
PRA000022	SAA001006	ST024				E-11	Sediment	"Sediment core"	2009	6						Asia	Japan	"Lake Biwa, Shiga"	35.33648333		136.1031667																										"0.05 - 0.055"																	2017/2/9	2019/7/12
PRA000022	SAA001007	ST024				E-13	Sediment	"Sediment core"	2009	6						Asia	Japan	"Lake Biwa, Shiga"	35.33648333		136.1031667																										"0.06 - 0.065"																	2017/2/9	2019/7/12
PRA000022	SAA001008	ST024				E-15	Sediment	"Sediment core"	2009	6						Asia	Japan	"Lake Biwa, Shiga"	35.33648333		136.1031667																										"0.07 - 0.075"																	2017/2/9	2019/7/12
PRA000022	SAA001009	ST024				F-1	Sediment	"Sediment core"	2009	6						Asia	Japan	"Lake Biwa, Shiga"	35.26376667		136.0557																										"0 - 0.005"																	2017/2/9	2019/7/12
PRA000022	SAA001010	ST024				F-3	Sediment	"Sediment core"	2009	6						Asia	Japan	"Lake Biwa, Shiga"	35.26376667		136.0557																										"0.01 - 0.015"																	2017/2/9	2019/7/12
PRA000022	SAA001011	ST024				F-5	Sediment	"Sediment core"	2009	6						Asia	Japan	"Lake Biwa, Shiga"	35.26376667		136.0557																										"0.02 - 0.025"																	2017/2/9	2019/7/12
PRA000022	SAA001012	ST024				F-7	Sediment	"Sediment core"	2009	6						Asia	Japan	"Lake Biwa, Shiga"	35.26376667		136.0557																										"0.03 - 0.035"																	2017/2/9	2019/7/12
PRA000022	SAA001013	ST024				F-9	Sediment	"Sediment core"	2009	6						Asia	Japan	"Lake Biwa, Shiga"	35.26376667		136.0557																										"0.04 - 0.045"																	2017/2/9	2019/7/12
PRA000022	SAA001014	ST024				F-11	Sediment	"Sediment core"	2009	6						Asia	Japan	"Lake Biwa, Shiga"	35.26376667		136.0557																										"0.05 - 0.055"																	2017/2/9	2019/7/12
PRA000022	SAA001015	ST024				F-13	Sediment	"Sediment core"	2009	6						Asia	Japan	"Lake Biwa, Shiga"	35.26376667		136.0557																										"0.06 - 0.065"																	2017/2/9	2019/7/12
PRA000022	SAA001016	ST024				F-15	Sediment	"Sediment core"	2009	6						Asia	Japan	"Lake Biwa, Shiga"	35.26376667		136.0557																										"0.07 - 0.075"																	2017/2/9	2019/7/12
PRA000022	SAA001017	ST024				G-1	Sediment	"Sediment core"	2009	6						Asia	Japan	"Lake Biwa, Shiga"	35.2126		135.9885167																										"0 - 0.005"																	2017/2/9	2019/7/12
PRA000022	SAA001018	ST024				G-3	Sediment	"Sediment core"	2009	6						Asia	Japan	"Lake Biwa, Shiga"	35.2126		135.9885167																										"0.01 - 0.015"																	2017/2/9	2019/7/12
PRA000022	SAA001019	ST024				G-5	Sediment	"Sediment core"	2009	6						Asia	Japan	"Lake Biwa, Shiga"	35.2126		135.9885167																										"0.02 - 0.025"																	2017/2/9	2019/7/12
PRA000022	SAA001020	ST024				G-7	Sediment	"Sediment core"	2009	6						Asia	Japan	"Lake Biwa, Shiga"	35.2126		135.9885167																										"0.03 - 0.035"																	2017/2/9	2019/7/12
PRA000022	SAA001021	ST024				G-9	Sediment	"Sediment core"	2009	6						Asia	Japan	"Lake Biwa, Shiga"	35.2126		135.9885167																										"0.04 - 0.045"																	2017/2/9	2019/7/12
PRA000022	SAA001022	ST024				G-11	Sediment	"Sediment core"	2009	6						Asia	Japan	"Lake Biwa, Shiga"	35.2126		135.9885167																										"0.05 - 0.055"																	2017/2/9	2019/7/12
PRA000022	SAA001023	ST024				G-13	Sediment	"Sediment core"	2009	6						Asia	Japan	"Lake Biwa, Shiga"	35.2126		135.9885167																										"0.06 - 0.065"																	2017/2/9	2019/7/12
PRA000022	SAA001024	ST024				G-15	Sediment	"Sediment core"	2009	6						Asia	Japan	"Lake Biwa, Shiga"	35.2126		135.9885167																										"0.07 - 0.075"																	2017/2/9	2019/7/12
PRA000022	SAA001025	ST024				A-1	Sediment	"Sediment core"	2009	12						Asia	Japan	"Lake Biwa, Shiga"	35.4513		136.0706833																										"0 - 0.005"																	2017/2/9	2019/7/12
PRA000022	SAA001026	ST024				A-2	Sediment	"Sediment core"	2009	12						Asia	Japan	"Lake Biwa, Shiga"	35.4513		136.0706833																										"0.005 - 0.01"																	2017/2/9	2019/7/12
PRA000022	SAA001027	ST024				A-3	Sediment	"Sediment core"	2009	12						Asia	Japan	"Lake Biwa, Shiga"	35.4513		136.0706833																										"0.01 - 0.015"																	2017/2/9	2019/7/12
PRA000022	SAA001028	ST024				A-4	Sediment	"Sediment core"	2009	12						Asia	Japan	"Lake Biwa, Shiga"	35.4513		136.0706833																										"0.015 - 0.02"																	2017/2/9	2019/7/12
PRA000022	SAA001029	ST024				A-5	Sediment	"Sediment core"	2009	12						Asia	Japan	"Lake Biwa, Shiga"	35.4513		136.0706833																										"0.02 - 0.025"																	2017/2/9	2019/7/12
PRA000022	SAA001030	ST024				A-7	Sediment	"Sediment core"	2009	12						Asia	Japan	"Lake Biwa, Shiga"	35.4513		136.0706833																										"0.03 - 0.035"																	2017/2/9	2019/7/12
PRA000022	SAA001031	ST024				A-9	Sediment	"Sediment core"	2009	12						Asia	Japan	"Lake Biwa, Shiga"	35.4513		136.0706833																										"0.04 - 0.045"																	2017/2/9	2019/7/12
PRA000022	SAA001032	ST024				A-11	Sediment	"Sediment core"	2009	12						Asia	Japan	"Lake Biwa, Shiga"	35.4513		136.0706833																										"0.05 - 0.055"																	2017/2/9	2019/7/12
PRA000022	SAA001033	ST024				A-13	Sediment	"Sediment core"	2009	12						Asia	Japan	"Lake Biwa, Shiga"	35.4513		136.0706833																										"0.06 - 0.065"																	2017/2/9	2019/7/12
PRA000022	SAA001034	ST024				A-15	Sediment	"Sediment core"	2009	12						Asia	Japan	"Lake Biwa, Shiga"	35.4513		136.0706833																										"0.07 - 0.075"																	2017/2/9	2019/7/12
PRA000022	SAA001035	ST024				B-1	Sediment	"Sediment core"	2009	12						Asia	Japan	"Lake Biwa, Shiga"	35.43248333		136.0842																										"0 - 0.005"																	2017/2/9	2019/7/12
PRA000022	SAA001036	ST024				B-2	Sediment	"Sediment core"	2009	12						Asia	Japan	"Lake Biwa, Shiga"	35.43248333		136.0842																										"0.005 - 0.01"																	2017/2/9	2019/7/12
PRA000022	SAA001037	ST024				B-3	Sediment	"Sediment core"	2009	12						Asia	Japan	"Lake Biwa, Shiga"	35.43248333		136.0842																										"0.01 - 0.015"																	2017/2/9	2019/7/12
PRA000022	SAA001038	ST024				B-4	Sediment	"Sediment core"	2009	12						Asia	Japan	"Lake Biwa, Shiga"	35.43248333		136.0842																										"0.015 - 0.02"																	2017/2/9	2019/7/12
PRA000022	SAA001039	ST024				B-5	Sediment	"Sediment core"	2009	12						Asia	Japan	"Lake Biwa, Shiga"	35.43248333		136.0842																										"0.02 - 0.025"																	2017/2/9	2019/7/12
PRA000022	SAA001040	ST024				B-7	Sediment	"Sediment core"	2009	12						Asia	Japan	"Lake Biwa, Shiga"	35.43248333		136.0842																										"0.03 - 0.035"																	2017/2/9	2019/7/12
PRA000022	SAA001041	ST024				B-9	Sediment	"Sediment core"	2009	12						Asia	Japan	"Lake Biwa, Shiga"	35.43248333		136.0842																										"0.04 - 0.045"																	2017/2/9	2019/7/12
PRA000022	SAA001042	ST024				B-11	Sediment	"Sediment core"	2009	12						Asia	Japan	"Lake Biwa, Shiga"	35.43248333		136.0842																										"0.05 - 0.055"																	2017/2/9	2019/7/12
PRA000022	SAA001043	ST024				B-13	Sediment	"Sediment core"	2009	12						Asia	Japan	"Lake Biwa, Shiga"	35.43248333		136.0842																										"0.06 - 0.065"																	2017/2/9	2019/7/12
PRA000022	SAA001044	ST024				B-15	Sediment	"Sediment core"	2009	12						Asia	Japan	"Lake Biwa, Shiga"	35.43248333		136.0842																										"0.07 - 0.075"																	2017/2/9	2019/7/12
PRA000022	SAA001045	ST024				C-1	Sediment	"Sediment core"	2009	12						Asia	Japan	"Lake Biwa, Shiga"	35.40296667		136.0967																										"0 - 0.005"																	2017/2/9	2019/7/12
PRA000022	SAA001046	ST024				C-2	Sediment	"Sediment core"	2009	12						Asia	Japan	"Lake Biwa, Shiga"	35.40296667		136.0967																										"0.005 - 0.01"																	2017/2/9	2019/7/12
PRA000022	SAA001047	ST024				C-3	Sediment	"Sediment core"	2009	12						Asia	Japan	"Lake Biwa, Shiga"	35.40296667		136.0967																										"0.01 - 0.015"																	2017/2/9	2019/7/12
PRA000022	SAA001048	ST024				C-4	Sediment	"Sediment core"	2009	12						Asia	Japan	"Lake Biwa, Shiga"	35.40296667		136.0967																										"0.015 - 0.02"																	2017/2/9	2019/7/12
PRA000022	SAA001049	ST024				C-5	Sediment	"Sediment core"	2009	12						Asia	Japan	"Lake Biwa, Shiga"	35.40296667		136.0967																										"0.02 - 0.025"																	2017/2/9	2019/7/12
PRA000022	SAA001050	ST024				C-7	Sediment	"Sediment core"	2009	12						Asia	Japan	"Lake Biwa, Shiga"	35.40296667		136.0967																										"0.03 - 0.035"																	2017/2/9	2019/7/12
PRA000022	SAA001051	ST024				C-9	Sediment	"Sediment core"	2009	12						Asia	Japan	"Lake Biwa, Shiga"	35.40296667		136.0967																										"0.04 - 0.045"																	2017/2/9	2019/7/12
PRA000022	SAA001052	ST024				C-11	Sediment	"Sediment core"	2009	12						Asia	Japan	"Lake Biwa, Shiga"	35.40296667		136.0967																										"0.05 - 0.055"																	2017/2/9	2019/7/12
PRA000022	SAA001053	ST024				C-13	Sediment	"Sediment core"	2009	12						Asia	Japan	"Lake Biwa, Shiga"	35.40296667		136.0967																										"0.06 - 0.065"																	2017/2/9	2019/7/12
PRA000022	SAA001054	ST024				C-15	Sediment	"Sediment core"	2009	12						Asia	Japan	"Lake Biwa, Shiga"	35.40296667		136.0967																										"0.07 - 0.075"																	2017/2/9	2019/7/12
PRA000022	SAA001055	ST024				D-1	Sediment	"Sediment core"	2009	12						Asia	Japan	"Lake Biwa, Shiga"	35.37823333		136.0982167																										"0 - 0.005"																	2017/2/9	2019/7/12
PRA000022	SAA001056	ST024				D-2	Sediment	"Sediment core"	2009	12						Asia	Japan	"Lake Biwa, Shiga"	35.37823333		136.0982167																										"0.005 - 0.01"																	2017/2/9	2019/7/12
PRA000022	SAA001057	ST024				D-3	Sediment	"Sediment core"	2009	12						Asia	Japan	"Lake Biwa, Shiga"	35.37823333		136.0982167																										"0.01 - 0.015"																	2017/2/9	2019/7/12
PRA000022	SAA001058	ST024				D-4	Sediment	"Sediment core"	2009	12						Asia	Japan	"Lake Biwa, Shiga"	35.37823333		136.0982167																										"0.015 - 0.02"																	2017/2/9	2019/7/12
PRA000022	SAA001059	ST024				D-5	Sediment	"Sediment core"	2009	12						Asia	Japan	"Lake Biwa, Shiga"	35.37823333		136.0982167																										"0.02 - 0.025"																	2017/2/9	2019/7/12
PRA000022	SAA001060	ST024				D-6	Sediment	"Sediment core"	2009	12						Asia	Japan	"Lake Biwa, Shiga"	35.37823333		136.0982167																										"0.025 - 0.03"																	2017/2/9	2019/7/12
PRA000022	SAA001061	ST024				D-7	Sediment	"Sediment core"	2009	12						Asia	Japan	"Lake Biwa, Shiga"	35.37823333		136.0982167																										"0.03 - 0.035"																	2017/2/9	2019/7/12
PRA000022	SAA001062	ST024				D-8	Sediment	"Sediment core"	2009	12						Asia	Japan	"Lake Biwa, Shiga"	35.37823333		136.0982167																										"0.035 - 0.04"																	2017/2/9	2019/7/12
PRA000022	SAA001063	ST024				D-9	Sediment	"Sediment core"	2009	12						Asia	Japan	"Lake Biwa, Shiga"	35.37823333		136.0982167																										"0.04 - 0.045"																	2017/2/9	2019/7/12
PRA000022	SAA001064	ST024				D-10	Sediment	"Sediment core"	2009	12						Asia	Japan	"Lake Biwa, Shiga"	35.37823333		136.0982167																										"0.045 - 0.05"																	2017/2/9	2019/7/12
PRA000022	SAA001065	ST024				D-11	Sediment	"Sediment core"	2009	12						Asia	Japan	"Lake Biwa, Shiga"	35.37823333		136.0982167																										"0.05 - 0.055"																	2017/2/9	2019/7/12
PRA000022	SAA001066	ST024				D-12	Sediment	"Sediment core"	2009	12						Asia	Japan	"Lake Biwa, Shiga"	35.37823333		136.0982167																										"0.055 - 0.06"																	2017/2/9	2019/7/12
PRA000022	SAA001067	ST024				D-13	Sediment	"Sediment core"	2009	12						Asia	Japan	"Lake Biwa, Shiga"	35.37823333		136.0982167																										"0.06 - 0.065"																	2017/2/9	2019/7/12
PRA000022	SAA001068	ST024				D-14	Sediment	"Sediment core"	2009	12						Asia	Japan	"Lake Biwa, Shiga"	35.37823333		136.0982167																										"0.065 - 0.07"																	2017/2/9	2019/7/12
PRA000022	SAA001069	ST024				D-15	Sediment	"Sediment core"	2009	12						Asia	Japan	"Lake Biwa, Shiga"	35.37823333		136.0982167																										"0.07 - 0.075"																	2017/2/9	2019/7/12
PRA000022	SAA001070	ST024				D-16	Sediment	"Sediment core"	2009	12						Asia	Japan	"Lake Biwa, Shiga"	35.37823333		136.0982167																										"0.075 - 0.08"																	2017/2/9	2019/7/12
PRA000022	SAA001071	ST024				E-1	Sediment	"Sediment core"	2009	12						Asia	Japan	"Lake Biwa, Shiga"	35.33648333		136.1031667																										"0 - 0.005"																	2017/2/9	2019/7/12
PRA000022	SAA001072	ST024				E-2	Sediment	"Sediment core"	2009	12						Asia	Japan	"Lake Biwa, Shiga"	35.33648333		136.1031667																										"0.005 - 0.01"																	2017/2/9	2019/7/12
PRA000022	SAA001073	ST024				E-3	Sediment	"Sediment core"	2009	12						Asia	Japan	"Lake Biwa, Shiga"	35.33648333		136.1031667																										"0.01 - 0.015"																	2017/2/9	2019/7/12
PRA000022	SAA001074	ST024				E-4	Sediment	"Sediment core"	2009	12						Asia	Japan	"Lake Biwa, Shiga"	35.33648333		136.1031667																										"0.015 - 0.02"																	2017/2/9	2019/7/12
PRA000022	SAA001075	ST024				E-5	Sediment	"Sediment core"	2009	12						Asia	Japan	"Lake Biwa, Shiga"	35.33648333		136.1031667																										"0.02 - 0.025"																	2017/2/9	2019/7/12
PRA000022	SAA001076	ST024				E-7	Sediment	"Sediment core"	2009	12						Asia	Japan	"Lake Biwa, Shiga"	35.33648333		136.1031667																										"0.03 - 0.035"																	2017/2/9	2019/7/12
PRA000022	SAA001077	ST024				E-9	Sediment	"Sediment core"	2009	12						Asia	Japan	"Lake Biwa, Shiga"	35.33648333		136.1031667																										"0.04 - 0.045"																	2017/2/9	2019/7/12
PRA000022	SAA001078	ST024				E-11	Sediment	"Sediment core"	2009	12						Asia	Japan	"Lake Biwa, Shiga"	35.33648333		136.1031667																										"0.05 - 0.055"																	2017/2/9	2019/7/17
PRA000022	SAA001079	ST024				E-13	Sediment	"Sediment core"	2009	12						Asia	Japan	"Lake Biwa, Shiga"	35.33648333		136.1031667																										"0.06 - 0.065"																	2017/2/9	2019/7/17
PRA000022	SAA001080	ST024				E-15	Sediment	"Sediment core"	2009	12						Asia	Japan	"Lake Biwa, Shiga"	35.33648333		136.1031667																										"0.07 - 0.075"																	2017/2/9	2019/7/17
PRA000022	SAA001081	ST024				F-1	Sediment	"Sediment core"	2009	12						Asia	Japan	"Lake Biwa, Shiga"	35.26376667		136.0557																										"0 - 0.005"																	2017/2/9	2019/7/17
PRA000022	SAA001082	ST024				F-2	Sediment	"Sediment core"	2009	12						Asia	Japan	"Lake Biwa, Shiga"	35.26376667		136.0557																										"0.005 - 0.01"																	2017/2/9	2019/7/17
PRA000022	SAA001083	ST024				F-3	Sediment	"Sediment core"	2009	12						Asia	Japan	"Lake Biwa, Shiga"	35.26376667		136.0557																										"0.01 - 0.015"																	2017/2/9	2019/7/17
PRA000022	SAA001084	ST024				F-4	Sediment	"Sediment core"	2009	12						Asia	Japan	"Lake Biwa, Shiga"	35.26376667		136.0557																										"0.015 - 0.02"																	2017/2/9	2019/7/17
PRA000022	SAA001085	ST024				F-5	Sediment	"Sediment core"	2009	12						Asia	Japan	"Lake Biwa, Shiga"	35.26376667		136.0557																										"0.02 - 0.025"																	2017/2/9	2019/7/17
PRA000022	SAA001086	ST024				F-7	Sediment	"Sediment core"	2009	12						Asia	Japan	"Lake Biwa, Shiga"	35.26376667		136.0557																										"0.03 - 0.035"																	2017/2/9	2019/7/17
PRA000022	SAA001087	ST024				F-9	Sediment	"Sediment core"	2009	12						Asia	Japan	"Lake Biwa, Shiga"	35.26376667		136.0557																										"0.04 - 0.045"																	2017/2/9	2019/7/17
PRA000022	SAA001088	ST024				F-11	Sediment	"Sediment core"	2009	12						Asia	Japan	"Lake Biwa, Shiga"	35.26376667		136.0557																										"0.05 - 0.055"																	2017/2/9	2019/7/17
PRA000022	SAA001089	ST024				F-13	Sediment	"Sediment core"	2009	12						Asia	Japan	"Lake Biwa, Shiga"	35.26376667		136.0557																										"0.06 - 0.065"																	2017/2/9	2019/7/17
PRA000022	SAA001090	ST024				F-15	Sediment	"Sediment core"	2009	12						Asia	Japan	"Lake Biwa, Shiga"	35.26376667		136.0557																										"0.07 - 0.075"																	2017/2/9	2019/7/17
PRA000022	SAA001091	ST024				G-1	Sediment	"Sediment core"	2009	12						Asia	Japan	"Lake Biwa, Shiga"	35.2126		135.9885167																										"0 - 0.005"																	2017/2/9	2019/7/17
PRA000022	SAA001092	ST024				G-2	Sediment	"Sediment core"	2009	12						Asia	Japan	"Lake Biwa, Shiga"	35.2126		135.9885167																										"0.005 - 0.01"																	2017/2/9	2019/7/17
PRA000022	SAA001093	ST024				G-3	Sediment	"Sediment core"	2009	12						Asia	Japan	"Lake Biwa, Shiga"	35.2126		135.9885167																										"0.01 - 0.015"																	2017/2/9	2019/7/17
PRA000022	SAA001094	ST024				G-4	Sediment	"Sediment core"	2009	12						Asia	Japan	"Lake Biwa, Shiga"	35.2126		135.9885167																										"0.015 - 0.02"																	2017/2/9	2019/7/17
PRA000022	SAA001095	ST024				G-5	Sediment	"Sediment core"	2009	12						Asia	Japan	"Lake Biwa, Shiga"	35.2126		135.9885167																										"0.02 - 0.025"																	2017/2/9	2019/7/17
PRA000022	SAA001096	ST024				G-7	Sediment	"Sediment core"	2009	12						Asia	Japan	"Lake Biwa, Shiga"	35.2126		135.9885167																										"0.03 - 0.035"																	2017/2/9	2019/7/17
PRA000022	SAA001097	ST024				G-9	Sediment	"Sediment core"	2009	12						Asia	Japan	"Lake Biwa, Shiga"	35.2126		135.9885167																										"0.04 - 0.045"																	2017/2/9	2019/7/17
PRA000022	SAA001098	ST024				G-11	Sediment	"Sediment core"	2009	12						Asia	Japan	"Lake Biwa, Shiga"	35.2126		135.9885167																										"0.05 - 0.055"																	2017/2/9	2019/7/17
PRA000022	SAA001099	ST024				G-13	Sediment	"Sediment core"	2009	12						Asia	Japan	"Lake Biwa, Shiga"	35.2126		135.9885167																										"0.06 - 0.065"																	2017/2/9	2019/7/17
PRA000022	SAA001100	ST024				G-15	Sediment	"Sediment core"	2009	12						Asia	Japan	"Lake Biwa, Shiga"	35.2126		135.9885167																										"0.07 - 0.075"																	2017/2/9	2019/7/17
PRA000031	SAA001948	ST023				st-01	Sediment	"Marine sediment"	2003	5	28					Asia	Japan	"Tokyo Bay"	35.61722222		139.9666667																										11.2																	2017/4/27	2019/7/17
PRA000031	SAA001949	ST023				st-02	Sediment	"Marine sediment"	2003	5	28					Asia	Japan	"Tokyo Bay"	35.5975		140.0344444																										10																	2017/4/27	2019/7/17
PRA000031	SAA001950	ST023				st-03	Sediment	"Marine sediment"	2003	5	28					Asia	Japan	"Tokyo Bay"	35.59		139.8466667																										10.6																	2017/4/27	2019/7/17
PRA000031	SAA001951	ST023				st-04	Sediment	"Marine sediment"	2003	5	28					Asia	Japan	"Tokyo Bay"	35.57944444		139.8897222																										12																	2017/4/27	2019/7/17
PRA000031	SAA001952	ST023				st-05	Sediment	"Marine sediment"	2003	5	28					Asia	Japan	"Tokyo Bay"	35.56444444		139.9430556																										16.7																	2017/4/27	2019/7/17
PRA000031	SAA001953	ST023				st-06	Sediment	"Marine sediment"	2003	5	28					Asia	Japan	"Tokyo Bay"	35.54805556		139.9930556																										15.6																	2017/4/27	2019/7/17
PRA000031	SAA001954	ST023				st-07	Sediment	"Marine sediment"	2003	5	28					Asia	Japan	"Tokyo Bay"	35.54777778		139.8263889																										17.8																	2017/4/27	2019/7/17
PRA000031	SAA001955	ST023				st-08	Sediment	"Marine sediment"	2003	5	28					Asia	Japan	"Tokyo Bay"	35.53583333		139.8580556																										19.4																	2017/4/27	2019/7/17
PRA000031	SAA001956	ST023				st-09	Sediment	"Marine sediment"	2003	5	28					Asia	Japan	"Tokyo Bay"	35.525		139.8952778																										22.2																	2017/4/27	2019/7/17
PRA000031	SAA001957	ST023				st-10	Sediment	"Marine sediment"	2003	5	28					Asia	Japan	"Tokyo Bay"	35.50333333		139.9530556																										18.9																	2017/4/27	2019/7/17
PRA000031	SAA001958	ST023				st-11	Sediment	"Marine sediment"	2003	5	28					Asia	Japan	"Tokyo Bay"	35.46583333		139.7775																										30																	2017/4/27	2019/7/17
PRA000031	SAA001959	ST023				st-12	Sediment	"Marine sediment"	2003	5	28					Asia	Japan	"Tokyo Bay"	35.46027778		139.8266667																										30																	2017/4/27	2019/7/17
PRA000031	SAA001960	ST023				st-13	Sediment	"Marine sediment"	2003	5	28					Asia	Japan	"Tokyo Bay"	35.45		139.8725																										22.2																	2017/4/27	2019/7/17
PRA000031	SAA001961	ST023				st-14	Sediment	"Marine sediment"	2003	5	28					Asia	Japan	"Tokyo Bay"	35.41583333		139.7183333																										36.4																	2017/4/27	2019/7/17
PRA000031	SAA001962	ST023				st-15	Sediment	"Marine sediment"	2003	5	28					Asia	Japan	"Tokyo Bay"	35.40833333		139.7613889																										17																	2017/4/27	2019/7/17
PRA000031	SAA001963	ST023				st-16	Sediment	"Marine sediment"	2003	5	28					Asia	Japan	"Tokyo Bay"	35.38555556		139.815																										14.2																	2017/4/27	2019/7/17
PRA000031	SAA001964	ST023				st-17	Sediment	"Marine sediment"	2003	5	28					Asia	Japan	"Tokyo Bay"	35.35277778		139.6880556																										43																	2017/4/27	2019/7/17
PRA000031	SAA001965	ST023				st-18	Sediment	"Marine sediment"	2003	5	28					Asia	Japan	"Tokyo Bay"	35.34861111		139.7252778																										23																	2017/4/27	2019/7/17
PRA000031	SAA001966	ST023				st-19	Sediment	"Marine sediment"	2003	5	28					Asia	Japan	"Tokyo Bay"	35.33888889		139.7752778																										14																	2017/4/27	2019/7/17
PRA000031	SAA001967	ST023				st-20	Sediment	"Marine sediment"	2003	5	28					Asia	Japan	"Tokyo Bay"	35.31027778		139.7080556																										49.4																	2017/4/27	2019/7/17
PRA000037	SAA002175	ST023				M-S	Sediment	"Marine Sediment"	2004	4						Asia	Japan	Kanagawa	35.25	35.41666667	139.3333333	139.5																																									"Urban bay"	2017/5/26	2017/5/26
PRA000038	SAA002208	ST024				RS-01	Sediment	"River sediment (Upstream of the e-waste processing area)"	2012	1						Asia	Vietnam	"Bui Dau, Hung Yen province"	20.92888889	20.93944444	106.0894444	106.1011111																																										2017/7/13	2017/7/13
PRA000038	SAA002209	ST024				RS-02	Sediment	"River sediment (E-waste-processing area)"	2012	1						Asia	Vietnam	"Bui Dau, Hung Yen province"	20.92888889	20.93944444	106.0894444	106.1011111																																										2017/7/13	2017/7/13
PRA000038	SAA002210	ST024				RS-03	Sediment	"River sediment (E-waste-processing area)"	2012	1						Asia	Vietnam	"Bui Dau, Hung Yen province"	20.92888889	20.93944444	106.0894444	106.1011111																																										2017/7/13	2017/7/13
PRA000038	SAA002211	ST024				RS-04	Sediment	"River sediment (E-waste-processing area)"	2012	1						Asia	Vietnam	"Bui Dau, Hung Yen province"	20.92888889	20.93944444	106.0894444	106.1011111																																										2017/7/13	2017/7/13
PRA000038	SAA002212	ST024				RS-05	Sediment	"River sediment (Downstream of the e-waste processing area)"	2012	1						Asia	Vietnam	"Bui Dau, Hung Yen province"	20.92888889	20.93944444	106.0894444	106.1011111																																										2017/7/13	2017/7/13
PRA000038	SAA002213	ST024				RS-06	Sediment	"River sediment (Downstream of the e-waste processing area)"	2012	1						Asia	Vietnam	"Bui Dau, Hung Yen province"	20.92888889	20.93944444	106.0894444	106.1011111																																										2017/7/13	2017/7/13
PRA000038	SAA002214	ST024				RS-07	Sediment	"River sediment (Downstream of the e-waste processing area)"	2012	1						Asia	Vietnam	"Bui Dau, Hung Yen province"	20.92888889	20.93944444	106.0894444	106.1011111																																										2017/7/13	2017/7/13
PRA000038	SAA002215	ST024				RS-08	Sediment	"River sediment (Downstream of the e-waste processing area)"	2012	1						Asia	Vietnam	"Bui Dau, Hung Yen province"	20.92888889	20.93944444	106.0894444	106.1011111																																										2017/7/13	2017/7/13
PRA000040	SAA002322	ST024				SE-01	Sediment	"River sediment (Upstream of the e-waste-processing area)"	2012	1						Asia	Vietnam	"Bui Dau"	20.92888889	20.93944444	106.0894444	106.1011111																																									"Surface sediment; The small river is running through the middle of the EWR site."	2017/7/5	2017/7/5
PRA000040	SAA002323	ST024				SE-02	Sediment	"River sediment (E-waste-processing area)"	2012	1						Asia	Vietnam	"Bui Dau"	20.92888889	20.93944444	106.0894444	106.1011111																																									"Surface sediment; The small river is running through the middle of the EWR site."	2017/7/5	2017/7/5
PRA000040	SAA002324	ST024				SE-03	Sediment	"River sediment (E-waste-processing area)"	2012	1						Asia	Vietnam	"Bui Dau"	20.92888889	20.93944444	106.0894444	106.1011111																																									"Surface sediment; The small river is running through the middle of the EWR site."	2017/7/5	2017/7/5
PRA000040	SAA002325	ST024				SE-04	Sediment	"River sediment (E-waste-processing area)"	2012	1						Asia	Vietnam	"Bui Dau"	20.92888889	20.93944444	106.0894444	106.1011111																																									"Surface sediment; The small river is running through the middle of the EWR site."	2017/7/5	2017/7/5
PRA000040	SAA002326	ST024				SE-05	Sediment	"River sediment (Downstream of the e-waste processing area)"	2012	1						Asia	Vietnam	"Bui Dau"	20.92888889	20.93944444	106.0894444	106.1011111																																									"Surface sediment; Collected from upstream to downstream areas along a small river running through the middle of the EWR site"	2017/7/5	2017/7/5
PRA000040	SAA002327	ST024				SE-06	Sediment	"River sediment (Downstream of the e-waste processing area)"	2012	1						Asia	Vietnam	"Bui Dau"	20.92888889	20.93944444	106.0894444	106.1011111																																									"Surface sediment; The small river is running through the middle of the EWR site."	2017/7/5	2017/7/5
PRA000040	SAA002328	ST024				SE-07	Sediment	"River sediment (Downstream of the e-waste processing area)"	2012	1						Asia	Vietnam	"Bui Dau"	20.92888889	20.93944444	106.0894444	106.1011111																																									"Surface sediment; The small river is running through the middle of the EWR site."	2017/7/5	2017/7/5
PRA000040	SAA002329	ST024				SE-08	Sediment	"River sediment (Downstream of the e-waste processing area)"	2012	1						Asia	Vietnam	"Bui Dau"	20.92888889	20.93944444	106.0894444	106.1011111																																									"Surface sediment; The small river is running through the middle of the EWR site."	2017/7/5	2017/7/5
PRA000044	SAA002480	ST023				TP-1	Sediment	"Sediment core"	2002							Asia	Japan	"Tokyo bay"	35.58666667		139.8783333																						13				"0 - 0.05"																"Collection month:June-October; Depositional age (year)(by <sup>210</sup>Pb method):1998"	2017/9/4	2019/7/18
PRA000044	SAA002481	ST023				TP-2	Sediment	"Sediment core"	2002							Asia	Japan	"Tokyo bay"	35.59333333		140.0166667																						13				"0 - 0.05"																"Collection month:June-October"	2017/9/4	2019/7/18
PRA000044	SAA002482	ST023				TP-3	Sediment	"Sediment core"	2002							Asia	Japan	"Tokyo bay"	35.55		139.8333333																						19				"0 - 0.05"																"Collection month:June-October"	2017/9/4	2019/7/18
PRA000044	SAA002483	ST023				TP-4	Sediment	"Sediment core"	2002							Asia	Japan	"Tokyo bay"	35.545		139.9133333																						20				"0 - 0.05"																"Collection month:June-October; Depositional age (year)(by <sup>210</sup>Pb method):2000"	2017/9/4	2019/7/18
PRA000044	SAA002484	ST023				TP-5	Sediment	"Sediment core"	2002							Asia	Japan	"Tokyo bay"	35.52833333		139.9783333																						19				"0 - 0.05"																"Collection month:June-October; Depositional age (year)(by <sup>210</sup>Pb method):1999"	2017/9/4	2019/7/18
PRA000044	SAA002485	ST023				TP-6	Sediment	"Sediment core"	2002							Asia	Japan	"Tokyo bay"	35.495		139.93																						22				"0 - 0.05"																"Collection month:June-October"	2017/9/4	2019/7/18
PRA000044	SAA002486	ST023				TP-7	Sediment	"Sediment core"	2002							Asia	Japan	"Tokyo bay"	35.46333333		139.7816667																						33				"0 - 0.05"																"Collection month:June-October"	2017/9/4	2019/7/18
PRA000044	SAA002487	ST023				TP-8	Sediment	"Sediment core"	2002							Asia	Japan	"Tokyo bay"	35.42833333		139.845																						25				"0 - 0.05"																"Collection month:June-October"	2017/9/4	2019/7/18
PRA000044	SAA002488	ST023				T-2	Sediment	"Surface sediment"	2002							Asia	Japan	"Tokyo bay"	35.38833333		139.7266667																						19				"0 - 0.05"																"Collection month:June-October; Top 5 cm was gathered from the sampler"	2017/9/4	2019/7/18
PRA000044	SAA002489	ST023				T-3	Sediment	"Surface sediment"	2002							Asia	Japan	"Tokyo bay"	35.305		139.7183333																						45				"0 - 0.05"																"Collection month:June-October; Top 5 cm was gathered from the sampler"	2017/9/4	2019/7/18
PRA000044	SAA002490	ST023				T-4	Sediment	"Surface sediment"	2002							Asia	Japan	"Tokyo bay"	35.24833333		139.7566667																						31				"0 - 0.05"																"Collection month:June-October; Top 5 cm was gathered from the sampler"	2017/9/4	2019/7/18
PRA000044	SAA002491	ST023				T-5	Sediment	"Surface sediment"	2002							Asia	Japan	"Tokyo bay"	35.15		139.7166667																						185				"0 - 0.05"																"Collection month:June-October; Top 5 cm was gathered from the sampler"	2017/9/4	2019/7/18
PRA000044	SAA002492	ST023				T-6	Sediment	"Surface sediment"	2002							Asia	Japan	"Tokyo bay"	35.105		139.785																						525				"0 - 0.05"																"Collection month:June-October; Top 5 cm was gathered from the sampler"	2017/9/4	2019/7/18
PRA000044	SAA002493	ST023				TP-1a	Sediment	"Sediment core"	2002							Asia	Japan	"Tokyo bay"	35.58666667		139.8783333																						13				"0.5 - 0.55"																"Collection month:June-October; Depositional age (year): Couldn't be calculated by <sup>210</sup>Pb dating method"	2017/9/4	2019/7/18
PRA000044	SAA002494	ST023				TP-1b	Sediment	"Sediment core"	2002							Asia	Japan	"Tokyo bay"	35.58666667		139.8783333																						13				"0.45 - 0.5"																"Collection month:June-October; Depositional age (year): Couldn't be calculated by <sup>210</sup>Pb dating method"	2017/9/4	2019/7/18
PRA000044	SAA002495	ST023				TP-1c	Sediment	"Sediment core"	2002							Asia	Japan	"Tokyo bay"	35.58666667		139.8783333																						13				"0.4 - 0.45"																"Collection month:June-October; Depositional age (year)(by <sup>210</sup>Pb method):1901"	2017/9/4	2019/7/18
PRA000044	SAA002496	ST023				TP-1d	Sediment	"Sediment core"	2002							Asia	Japan	"Tokyo bay"	35.58666667		139.8783333																						13				"0.35 - 0.4"																"Collection month:June-October; Depositional age (year)(by <sup>210</sup>Pb method):1916"	2017/9/4	2019/7/18
PRA000044	SAA002497	ST023				TP-1e	Sediment	"Sediment core"	2002							Asia	Japan	"Tokyo bay"	35.58666667		139.8783333																						13				"0.3 - 0.35"																"Collection month:June-October; Depositional age (year)(by <sup>210</sup>Pb method):1930"	2017/9/4	2019/7/18
PRA000044	SAA002498	ST023				TP-1f	Sediment	"Sediment core"	2002							Asia	Japan	"Tokyo bay"	35.58666667		139.8783333																						13				"0.25 - 0.3"																"Collection month:June-October; Depositional age (year)(by <sup>210</sup>Pb method):1943"	2017/9/4	2019/7/18
PRA000044	SAA002499	ST023				TP-1g	Sediment	"Sediment core"	2002							Asia	Japan	"Tokyo bay"	35.58666667		139.8783333																						13				"0.15 - 0.2"																"Collection month:June-October; Depositional age (year)(by <sup>210</sup>Pb method):1968"	2017/9/4	2019/7/18
PRA000044	SAA002500	ST023				TP-1h	Sediment	"Sediment core"	2002							Asia	Japan	"Tokyo bay"	35.58666667		139.8783333																						13				"0.1 - 0.15"																"Collection month:June-October; Depositional age (year)(by <sup>210</sup>Pb method):1979"	2017/9/4	2019/7/18
PRA000044	SAA002501	ST023				TP-1i	Sediment	"Sediment core"	2002							Asia	Japan	"Tokyo bay"	35.58666667		139.8783333																						13				"0.05 - 0.1"																"Collection month:June-October; Depositional age (year)(by <sup>210</sup>Pb method):1989"	2017/9/4	2019/7/18
PRA000044	SAA002502	ST023				TP-4a	Sediment	"Sediment core"	2002							Asia	Japan	"Tokyo bay"	35.545		139.9133333																						20				"0.5 - 0.55"																"Collection month:June-October; Depositional age (year)(by <sup>210</sup>Pb method):1929"	2017/9/4	2019/7/18
PRA000044	SAA002503	ST023				TP-4b	Sediment	"Sediment core"	2002							Asia	Japan	"Tokyo bay"	35.545		139.9133333																						20				"0.45 - 0.5"																"Collection month:June-October; Depositional age (year)(by <sup>210</sup>Pb method):1938"	2017/9/4	2019/7/18
PRA000044	SAA002504	ST023				TP-4c	Sediment	"Sediment core"	2002							Asia	Japan	"Tokyo bay"	35.545		139.9133333																						20				"0.4 - 0.45"																"Collection month:June-October; Depositional age (year)(by <sup>210</sup>Pb method):1946"	2017/9/4	2019/7/18
PRA000044	SAA002505	ST023				TP-4e	Sediment	"Sediment core"	2002							Asia	Japan	"Tokyo bay"	35.545		139.9133333																						20				"0.3 - 0.35"																"Collection month:June-October; Depositional age (year)(by <sup>210</sup>Pb method):1961"	2017/9/4	2019/7/18
PRA000044	SAA002506	ST023				TP-4f	Sediment	"Sediment core"	2002							Asia	Japan	"Tokyo bay"	35.545		139.9133333																						20				"0.25 - 0.3"																"Collection month:June-October; Depositional age (year)(by <sup>210</sup>Pb method):1968"	2017/9/4	2019/7/18
PRA000044	SAA002507	ST023				TP-4g	Sediment	"Sediment core"	2002							Asia	Japan	"Tokyo bay"	35.545		139.9133333																						20				"0.2 - 0.25"																"Collection month:June-October; Depositional age (year)(by <sup>210</sup>Pb method):1975"	2017/9/4	2019/7/18
PRA000044	SAA002508	ST023				TP-4h	Sediment	"Sediment core"	2002							Asia	Japan	"Tokyo bay"	35.545		139.9133333																						20				"0.15 - 0.2"																"Collection month:June-October; Depositional age (year)(by <sup>210</sup>Pb method):1982"	2017/9/4	2019/7/18
PRA000044	SAA002509	ST023				TP-4i	Sediment	"Sediment core"	2002							Asia	Japan	"Tokyo bay"	35.545		139.9133333																						20				"0.1 - 0.15"																"Collection month:June-October; Depositional age (year)(by <sup>210</sup>Pb method):1988"	2017/9/4	2019/7/18
PRA000044	SAA002510	ST023				TP-4j	Sediment	"Sediment core"	2002							Asia	Japan	"Tokyo bay"	35.545		139.9133333																						20				"0.05 - 0.1"																"Collection month:June-October; Depositional age (year)(by <sup>210</sup>Pb method):1995"	2017/9/4	2019/7/18
PRA000044	SAA002511	ST023				TP-5a	Sediment	"Sediment core"	2002							Asia	Japan	"Tokyo bay"	35.52833333		139.9783333																						19				"0.5 - 0.55"																"Collection month:June-October; Depositional age (year)(by <sup>210</sup>Pb method):1895"	2017/9/4	2019/7/18
PRA000044	SAA002512	ST023				TP-5b	Sediment	"Sediment core"	2002							Asia	Japan	"Tokyo bay"	35.52833333		139.9783333																						19				"0.45 - 0.5"																"Collection month:June-October; Depositional age (year)(by <sup>210</sup>Pb method):1908"	2017/9/4	2019/7/18
PRA000044	SAA002513	ST023				TP-5c	Sediment	"Sediment core"	2002							Asia	Japan	"Tokyo bay"	35.52833333		139.9783333																						19				"0.4 - 0.45"																"Collection month:June-October; Depositional age (year)(by <sup>210</sup>Pb method):1921"	2017/9/4	2019/7/18
PRA000044	SAA002514	ST023				TP-5d	Sediment	"Sediment core"	2002							Asia	Japan	"Tokyo bay"	35.52833333		139.9783333																						19				"0.35 - 0.4"																"Collection month:June-October; Depositional age (year)(by <sup>210</sup>Pb method):1933"	2017/9/4	2019/7/18
PRA000044	SAA002515	ST023				TP-5e	Sediment	"Sediment core"	2002							Asia	Japan	"Tokyo bay"	35.52833333		139.9783333																						19				"0.3 - 0.35"																"Collection month:June-October; Depositional age (year)(by <sup>210</sup>Pb method):1945"	2017/9/4	2019/7/18
PRA000044	SAA002516	ST023				TP-5g	Sediment	"Sediment core"	2002							Asia	Japan	"Tokyo bay"	35.52833333		139.9783333																						19				"0.2 - 0.25"																"Collection month:June-October; Depositional age (year)(by <sup>210</sup>Pb method):1966"	2017/9/4	2019/7/18
PRA000044	SAA002517	ST023				TP-5h	Sediment	"Sediment core"	2002							Asia	Japan	"Tokyo bay"	35.52833333		139.9783333																						19				"0.15 - 0.2"																"Collection month:June-October; Depositional age (year)(by <sup>210</sup>Pb method):1975"	2017/9/4	2019/7/18
PRA000044	SAA002518	ST023				TP-5i	Sediment	"Sediment core"	2002							Asia	Japan	"Tokyo bay"	35.52833333		139.9783333																						19				"0.1 - 0.15"																"Collection month:June-October; Depositional age (year)(by <sup>210</sup>Pb method):1984"	2017/9/4	2019/7/18
PRA000044	SAA002519	ST023				TP-5j	Sediment	"Sediment core"	2002							Asia	Japan	"Tokyo bay"	35.52833333		139.9783333																						19				"0.05 - 0.1"																"Collection month:June-October; Depositional age (year)(by <sup>210</sup>Pb method):1992"	2017/9/4	2019/7/18
PRA000046	SAA002713	ST023				SC-A1	Sediment	"Sediment core"	2013	3	5					Asia	Japan	"Hiroshima Bay"	34.206		132.315																										"0 - 0.05"							7									"Near an aquaculture net; Ignition loss (600 ℃, 2h)"	2017/10/6	2019/7/18
PRA000046	SAA002714	ST023				SC-B1	Sediment	"Sediment core"	2013	3	5					Asia	Japan	"Hiroshima Bay"	34.301		132.365																										"0 - 0.05"							8									"At the center of the Hiroshima Bay and along a sea route; Ignition loss (600 ℃, 2h)"	2017/10/6	2019/7/18
PRA000046	SAA002715	ST023				SC-C1	Sediment	"Sediment core"	2013	3	5					Asia	Japan	"Hiroshima Bay"	34.275		132.418																										"0 - 0.05"							7									"River mouth region; Ignition loss (600 ℃, 2h)"	2017/10/6	2019/7/18
PRA000046	SAA002716	ST023				SC-D1	Sediment	"Sediment core"	2013	3	5					Asia	Japan	"Hiroshima Bay"	34.335		132.434																										"0 - 0.05"							10									"River mouth region; Ignition loss (600 ℃, 2h)"	2017/10/6	2019/7/18
PRA000046	SAA002717	ST023				SC-E1	Sediment	"Sediment core"	2013	3	5					Asia	Japan	"Hiroshima Bay"	34.333		132.367																										"0 - 0.05"							9									"River mouth region; Ignition loss (600 ℃, 2h)"	2017/10/6	2019/7/18
PRA000046	SAA002718	ST023				SC-A2	Sediment	"Sediment core"	2012	12	5					Asia	Japan	"Hiroshima Bay"	34.206		132.315																										"0 - 0.05"							6									"Near an aquaculture net; Ignition loss (600 ℃, 2h)"	2017/10/6	2019/7/18
PRA000046	SAA002719	ST023				SC-B2	Sediment	"Sediment core"	2012	12	5					Asia	Japan	"Hiroshima Bay"	34.301		132.365																										"0 - 0.05"							6									"At the center of the Hiroshima Bay and along a sea route; Ignition loss (600 ℃, 2h)"	2017/10/6	2019/7/18
PRA000046	SAA002720	ST023				SC-C2	Sediment	"Sediment core"	2012	12	5					Asia	Japan	"Hiroshima Bay"	34.275		132.418																										"0 - 0.05"							8									"River mouth region; Ignition loss (600 ℃, 2h)"	2017/10/6	2019/7/18
PRA000046	SAA002721	ST023				SC-D2	Sediment	"Sediment core"	2012	12	5					Asia	Japan	"Hiroshima Bay"	34.335		132.434																										"0 - 0.05"							9									"River mouth region; Ignition loss (600 ℃, 2h)"	2017/10/6	2019/7/18
PRA000046	SAA002722	ST023				SC-E2	Sediment	"Sediment core"	2012	12	5					Asia	Japan	"Hiroshima Bay"	34.333		132.367																										"0 - 0.05"							9									"River mouth region; Ignition loss (600 ℃, 2h)"	2017/10/6	2019/7/18
PRA000046	SAA002723	ST023				SC-A3	Sediment	"Sediment core"	2012	10	4					Asia	Japan	"Hiroshima Bay"	34.206		132.315																										"0 - 0.05"							7									"Near an aquaculture net; Ignition loss (600 ℃, 2h)"	2017/10/6	2019/7/18
PRA000046	SAA002724	ST023				SC-B3	Sediment	"Sediment core"	2012	10	4					Asia	Japan	"Hiroshima Bay"	34.301		132.365																										"0 - 0.05"							7									"At the center of the Hiroshima Bay and along a sea route; Ignition loss (600 ℃, 2h)"	2017/10/6	2019/7/18
PRA000046	SAA002725	ST023				SC-C3	Sediment	"Sediment core"	2012	10	4					Asia	Japan	"Hiroshima Bay"	34.275		132.418																										"0 - 0.05"							9									"River mouth region; Ignition loss (600 ℃, 2h)"	2017/10/6	2019/7/18
PRA000046	SAA002726	ST023				SC-D3	Sediment	"Sediment core"	2012	10	4					Asia	Japan	"Hiroshima Bay"	34.335		132.434																										"0 - 0.05"							8									"River mouth region;Ignition loss (600 ℃, 2h)"	2017/10/6	2019/7/18
PRA000046	SAA002727	ST023				SC-E3	Sediment	"Sediment core"	2012	10	4					Asia	Japan	"Hiroshima Bay"	34.333		132.367																										"0 - 0.05"							8									"River mouth region; Ignition loss (600 ℃, 2h)"	2017/10/6	2019/7/18
PRA000046	SAA002728	ST023				SC-A4	Sediment	"Sediment core"	2012	8	8					Asia	Japan	"Hiroshima Bay"	34.206		132.315																										"0 - 0.05"							7									"Near an aquaculture net; Ignition loss (600 ℃, 2h)"	2017/10/6	2019/7/18
PRA000046	SAA002729	ST023				SC-B4	Sediment	"Sediment core"	2012	8	8					Asia	Japan	"Hiroshima Bay"	34.301		132.365																										"0 - 0.05"							8									"At the center of the Hiroshima Bay and along a sea route; Ignition loss(600 ℃, 2h)"	2017/10/6	2019/7/18
PRA000046	SAA002730	ST023				SC-C4	Sediment	"Sediment core"	2012	8	8					Asia	Japan	"Hiroshima Bay"	34.275		132.418																										"0 - 0.05"							8									"River mouth region; Ignition loss (600 ℃, 2h)"	2017/10/6	2019/7/18
PRA000046	SAA002731	ST023				SC-D4	Sediment	"Sediment core"	2012	8	8					Asia	Japan	"Hiroshima Bay"	34.335		132.434																										"0 - 0.05"							9									"River mouth region; Ignition loss (600 ℃, 2h)"	2017/10/6	2019/7/18
PRA000046	SAA002732	ST023				SC-E4	Sediment	"Sediment core"	2012	8	8					Asia	Japan	"Hiroshima Bay"	34.333		132.367																										"0 - 0.05"							9									"River mouth region; Ignition loss (600 ℃, 2h)"	2017/10/6	2019/7/18
PRA000046	SAA002733	ST023				SC-A5	Sediment	"Sediment core"	2012	6	26					Asia	Japan	"Hiroshima Bay"	34.206		132.315																										"0 - 0.05"							8									"Near an aquaculture net; Ignition loss (600 ℃, 2h)"	2017/10/6	2019/7/18
PRA000046	SAA002734	ST023				SC-B5	Sediment	"Sediment core"	2012	6	26					Asia	Japan	"Hiroshima Bay"	34.301		132.365																										"0 - 0.05"							7									"At the center of the Hiroshima Bay and along a sea route; Ignition loss (600 ℃, 2h)"	2017/10/6	2019/7/18
PRA000046	SAA002735	ST023				SC-C5	Sediment	"Sediment core"	2012	6	26					Asia	Japan	"Hiroshima Bay"	34.275		132.418																										"0 - 0.05"							11									"River mouth region; Ignition loss (600 ℃, 2h)"	2017/10/6	2019/7/18
PRA000046	SAA002736	ST023				SC-D5	Sediment	"Sediment core"	2012	6	26					Asia	Japan	"Hiroshima Bay"	34.335		132.434																										"0 - 0.05"							10									"River mouth region; Ignition loss (600 ℃, 2h)"	2017/10/6	2019/7/18
PRA000046	SAA002737	ST023				SC-E5	Sediment	"Sediment core"	2012	6	26					Asia	Japan	"Hiroshima Bay"	34.333		132.367																										"0 - 0.05"							10									"River mouth region; Ignition loss (600 ℃, 2h)"	2017/10/6	2019/7/18
PRA000046	SAA002738	ST023				SC-A6	Sediment	"Sediment core"	2012	4	24					Asia	Japan	"Hiroshima Bay"	34.206		132.315																										"0 - 0.05"							7									"Near an aquaculture net; Ignition loss (600 ℃, 2h)"	2017/10/6	2019/7/18
PRA000046	SAA002739	ST023				SC-B6	Sediment	"Sediment core"	2012	4	24					Asia	Japan	"Hiroshima Bay"	34.301		132.365																										"0 - 0.05"							7									"At the center of the Hiroshima Bay and along a sea route; Ignition loss (600 ℃, 2h)"	2017/10/6	2019/7/18
PRA000046	SAA002740	ST023				SC-C6	Sediment	"Sediment core"	2012	4	24					Asia	Japan	"Hiroshima Bay"	34.275		132.418																										"0 - 0.05"							11									"River mouth region; Ignition loss (600 ℃, 2h)"	2017/10/6	2019/7/18
PRA000046	SAA002741	ST023				SC-D6	Sediment	"Sediment core"	2012	4	24					Asia	Japan	"Hiroshima Bay"	34.335		132.434																										"0 - 0.05"							10									"River mouth region; Ignition loss (600 ℃, 2h)"	2017/10/6	2019/7/18
PRA000046	SAA002742	ST023				SC-E6	Sediment	"Sediment core"	2012	4	24					Asia	Japan	"Hiroshima Bay"	34.333		132.367																										"0 - 0.05"							8									"River mouth region; Ignition loss (600 ℃, 2h)"	2017/10/6	2019/7/18
PRA000046	SAA002743	ST023				SC-A7	Sediment	"Sediment core"	2012	2	21					Asia	Japan	"Hiroshima Bay"	34.206		132.315																										"0 - 0.05"							8									"Near an aquaculture net; Ignition loss (600 ℃, 2h)"	2017/10/6	2019/7/18
PRA000046	SAA002744	ST023				SC-B7	Sediment	"Sediment core"	2012	2	21					Asia	Japan	"Hiroshima Bay"	34.301		132.365																										"0 - 0.05"							8									"At the center of the Hiroshima Bay and along a sea route; Ignition loss (600 ℃, 2h)"	2017/10/6	2019/7/18
PRA000046	SAA002745	ST023				SC-C7	Sediment	"Sediment core"	2012	2	21					Asia	Japan	"Hiroshima Bay"	34.275		132.418																										"0 - 0.05"							11									"River mouth region; Ignition loss (600 ℃, 2h)"	2017/10/6	2019/7/18
PRA000046	SAA002746	ST023				SC-D7	Sediment	"Sediment core"	2012	2	21					Asia	Japan	"Hiroshima Bay"	34.335		132.434																										"0 - 0.05"							10									"River mouth region; Ignition loss (600 ℃, 2h)"	2017/10/6	2019/7/18
PRA000046	SAA002747	ST023				SC-E7	Sediment	"Sediment core"	2012	2	21					Asia	Japan	"Hiroshima Bay"	34.333		132.367																										"0 - 0.05"							9									"River mouth region; Ignition loss (600 ℃, 2h)"	2017/10/6	2019/7/18
PRA000046	SAA002748	ST023				SC-A8	Sediment	"Sediment core"	2011	12	6					Asia	Japan	"Hiroshima Bay"	34.206		132.315																										"0 - 0.05"							7									"Near an aquaculture net; Ignition loss (600 ℃, 2h)"	2017/10/6	2019/7/18
PRA000046	SAA002749	ST023				SC-B8	Sediment	"Sediment core"	2011	12	6					Asia	Japan	"Hiroshima Bay"	34.301		132.365																										"0 - 0.05"							8									"At the center of the Hiroshima Bay and along a sea route; Ignition loss (600 ℃, 2h)"	2017/10/6	2019/7/18
PRA000046	SAA002750	ST023				SC-C8	Sediment	"Sediment core"	2011	12	6					Asia	Japan	"Hiroshima Bay"	34.275		132.418																										"0 - 0.05"							12									"River mouth region; Ignition loss (600 ℃, 2h)"	2017/10/6	2019/7/18
PRA000046	SAA002751	ST023				SC-D8	Sediment	"Sediment core"	2011	12	6					Asia	Japan	"Hiroshima Bay"	34.335		132.434																										"0 - 0.05"							9									"River mouth region; Ignition loss (600 ℃, 2h)"	2017/10/6	2019/7/18
PRA000046	SAA002752	ST023				SC-E8	Sediment	"Sediment core"	2011	12	6					Asia	Japan	"Hiroshima Bay"	34.333		132.367																										"0 - 0.05"							10									"River mouth region; Ignition loss (600 ℃, 2h)"	2017/10/6	2019/7/18
PRA000046	SAA002753	ST023				SC-A9	Sediment	"Sediment core"	2011	10	5					Asia	Japan	"Hiroshima Bay"	34.206		132.315																										"0 - 0.05"							7									"Near an aquaculture net; Ignition loss (600 ℃, 2h)"	2017/10/6	2019/7/18
PRA000046	SAA002754	ST023				SC-B9	Sediment	"Sediment core"	2011	10	5					Asia	Japan	"Hiroshima Bay"	34.301		132.365																										"0 - 0.05"							8									"At the center of the Hiroshima Bay and along a sea route; Ignition loss (600 ℃, 2h)"	2017/10/6	2019/7/18
PRA000046	SAA002755	ST023				SC-C9	Sediment	"Sediment core"	2011	10	5					Asia	Japan	"Hiroshima Bay"	34.275		132.418																										"0 - 0.05"							9									"River mouth region; Ignition loss (600 ℃, 2h)"	2017/10/6	2019/7/18
PRA000046	SAA002756	ST023				SC-D9	Sediment	"Sediment core"	2011	10	5					Asia	Japan	"Hiroshima Bay"	34.335		132.434																										"0 - 0.05"							9									"River mouth region; Ignition loss (600 ℃, 2h)"	2017/10/6	2019/7/18
PRA000046	SAA002757	ST023				SC-E9	Sediment	"Sediment core"	2011	10	5					Asia	Japan	"Hiroshima Bay"	34.333		132.367																										"0 - 0.05"							9									"River mouth region; Ignition loss (600 ℃, 2h)"	2017/10/6	2019/7/18
PRA000046	SAA002758	ST023				SC-A10	Sediment	"Sediment core"	2011	8	17					Asia	Japan	"Hiroshima Bay"	34.206		132.315																										"0 - 0.05"							8									"Near an aquaculture net; Ignition loss (600 ℃, 2h)"	2017/10/6	2019/7/18
PRA000046	SAA002759	ST023				SC-B10	Sediment	"Sediment core"	2011	8	17					Asia	Japan	"Hiroshima Bay"	34.301		132.365																										"0 - 0.05"							7									"At the center of the Hiroshima Bay and along a sea route; Ignition loss (600 ℃, 2h)"	2017/10/6	2019/7/18
PRA000046	SAA002760	ST023				SC-C10	Sediment	"Sediment core"	2011	8	17					Asia	Japan	"Hiroshima Bay"	34.275		132.418																										"0 - 0.05"							10									"River mouth region; Ignition loss (600 ℃, 2h)"	2017/10/6	2019/7/18
PRA000046	SAA002761	ST023				SC-D10	Sediment	"Sediment core"	2011	8	17					Asia	Japan	"Hiroshima Bay"	34.335		132.434																										"0 - 0.05"							10									"River mouth region; Ignition loss (600 ℃, 2h)"	2017/10/6	2019/7/18
PRA000046	SAA002762	ST023				SC-E10	Sediment	"Sediment core"	2011	8	17					Asia	Japan	"Hiroshima Bay"	34.333		132.367																										"0 - 0.05"							9									"River mouth region; Ignition loss (600 ℃, 2h)"	2017/10/6	2019/7/18
PRA000046	SAA002763	ST023				SC-A11	Sediment	"Sediment core"	2011	6	28					Asia	Japan	"Hiroshima Bay"	34.206		132.315																										"0 - 0.05"							7									"Near an aquaculture net; Ignition loss (600 ℃, 2h)"	2017/10/6	2019/7/18
PRA000046	SAA002764	ST023				SC-B11	Sediment	"Sediment core"	2011	6	28					Asia	Japan	"Hiroshima Bay"	34.301		132.365																										"0 - 0.05"							6									"At the center of the Hiroshima Bay and along a sea route; Ignition loss (600 ℃, 2h)"	2017/10/6	2019/7/18
PRA000046	SAA002765	ST023				SC-C11	Sediment	"Sediment core"	2011	6	28					Asia	Japan	"Hiroshima Bay"	34.275		132.418																										"0 - 0.05"							12									"River mouth region; Ignition loss (600 ℃, 2h)"	2017/10/6	2019/7/18
PRA000046	SAA002766	ST023				SC-D11	Sediment	"Sediment core"	2011	6	28					Asia	Japan	"Hiroshima Bay"	34.335		132.434																										"0 - 0.05"							8									"River mouth region; Ignition loss (600 ℃, 2h)"	2017/10/6	2019/7/18
PRA000046	SAA002767	ST023				SC-E11	Sediment	"Sediment core"	2011	6	28					Asia	Japan	"Hiroshima Bay"	34.333		132.367																										"0 - 0.05"							7									"River mouth region; Ignition loss (600 ℃, 2h)"	2017/10/6	2019/7/18
PRA000046	SAA002768	ST023				SC-A12	Sediment	"Sediment core"	2011	5	10					Asia	Japan	"Hiroshima Bay"	34.206		132.315																										"0 - 0.05"							7									"Near an aquaculture net; Ignition loss (600 ℃, 2h)"	2017/10/6	2019/7/18
PRA000046	SAA002769	ST023				SC-B12	Sediment	"Sediment core"	2011	5	10					Asia	Japan	"Hiroshima Bay"	34.301		132.365																										"0 - 0.05"							7									"At the center of the Hiroshima Bay and along a sea route; Ignition loss (600 ℃, 2h)"	2017/10/6	2019/7/18
PRA000046	SAA002770	ST023				SC-C12	Sediment	"Sediment core"	2011	5	10					Asia	Japan	"Hiroshima Bay"	34.275		132.418																										"0 - 0.05"							9									"River mouth region; Ignition loss (600 ℃, 2h)"	2017/10/6	2019/7/18
PRA000046	SAA002771	ST023				SC-D12	Sediment	"Sediment core"	2011	5	10					Asia	Japan	"Hiroshima Bay"	34.335		132.434																										"0 - 0.05"							9									"River mouth region; Ignition loss (600 ℃, 2h)"	2017/10/6	2019/7/18
PRA000046	SAA002772	ST023				SC-E12	Sediment	"Sediment core"	2011	5	10					Asia	Japan	"Hiroshima Bay"	34.333		132.367																										"0 - 0.05"							8									"River mouth region; Ignition loss (600 ℃, 2h)"	2017/10/6	2019/7/18
PRA000048	SAA002891	ST023				S-St.1	Sediment	"Marine sediment"	2004	2	10					Asia	Japan	"Tokyo Bay"	35.59933333		139.85																						8.5																					2017/10/25	2019/7/18
PRA000048	SAA002892	ST023				S-St.2	Sediment	"Marine sediment"	2004	2	10					Asia	Japan	"Tokyo Bay"	35.58266667		139.9343333																						13.2																					2017/10/25	2019/7/18
PRA000048	SAA002893	ST023				S-St.3	Sediment	"Marine sediment"	2004	2	10					Asia	Japan	"Tokyo Bay"	35.583		140																						13																					2017/10/25	2019/7/18
PRA000048	SAA002894	ST023				S-St.4	Sediment	"Marine sediment"	2004	2	10					Asia	Japan	"Tokyo Bay"	35.51583333		139.8345																						24																					2017/10/25	2019/7/18
PRA000048	SAA002895	ST023				S-St.5	Sediment	"Marine sediment"	2004	2	10					Asia	Japan	"Tokyo Bay"	35.5325		139.9003333																						22																					2017/10/25	2019/7/18
PRA000048	SAA002896	ST023				S-St.6	Sediment	"Marine sediment"	2004	2	10					Asia	Japan	"Tokyo Bay"	35.55		139.9993333																						19.5																					2017/10/25	2019/7/18
PRA000048	SAA002897	ST023				S-St.7	Sediment	"Marine sediment"	2004	2	9					Asia	Japan	"Tokyo Bay"	35.433		139.8336667																						27																					2017/10/25	2019/7/18
PRA000048	SAA002898	ST023				S-St.8	Sediment	"Marine sediment"	2004	2	9					Asia	Japan	"Tokyo Bay"	35.45483333		139.9																						20.7																					2017/10/25	2019/7/18
PRA000048	SAA002899	ST023				S-St.9	Sediment	"Marine sediment"	2004	2	9					Asia	Japan	"Tokyo Bay"	35.43266667		139.8498333																						24.5																					2017/10/25	2019/7/18
PRA000048	SAA002900	ST023				S-St.10	Sediment	"Marine sediment"	2004	2	9					Asia	Japan	"Tokyo Bay"	35.3665		139.7328333																						20																					2017/10/25	2019/7/18
PRA000049	SAA002974	ST023				SC-101	Sediment	"Sediment Core"	2010	8	17					Asia	Japan	"Hiroshima Bay"	34.354		132.3392															21.6					28.7		2.7				"0 - 0.05"																"Small fisheries harbor"	2017/11/1	2019/7/18
PRA000049	SAA002975	ST023				SC-102	Sediment	"Sediment Core"	2010	8	17					Asia	Japan	"Hiroshima Bay"	34.353		132.3417															21.5	8.5				30		6.4				"0 - 0.05"																"Small fisheries harbor"	2017/11/1	2019/7/18
PRA000049	SAA002976	ST023				SC-103	Sediment	"Sediment Core"	2010	8	17					Asia	Japan	"Hiroshima Bay"	34.353		132.3454															21.1	8.5				29.9		5.8				"0 - 0.05"																Marina	2017/11/1	2019/7/18
PRA000049	SAA002977	ST023				SC-105	Sediment	"Sediment Core"	2010	8	17					Asia	Japan	"Hiroshima Bay"	34.3559		132.3531															19.3	8.6				30.1		2.6				"0 - 0.05"																"Small river mouth region"	2017/11/1	2019/7/18
PRA000049	SAA002978	ST023				SC-106-1	Sediment	"Sediment Core"	2010	8	17					Asia	Japan	"Hiroshima Bay"	34.3581		132.3621															23.6	8.3				28.9		4.6				"0 - 0.05"																Marina	2017/11/1	2019/7/18
PRA000049	SAA002979	ST023				SC-106-2	Sediment	"Sediment Core"	2010	11	9					Asia	Japan	"Hiroshima Bay"	34.3581		132.3621															17.9	7.2				32.8		6.5				"0 - 0.05"																Marina	2017/11/1	2019/7/18
PRA000049	SAA002980	ST023				SC-107	Sediment	"Sediment Core"	2010	8	17					Asia	Japan	"Hiroshima Bay"	34.3539		132.3577															18	8.5				30		6.4				"0 - 0.05"																"River mouth region"	2017/11/1	2019/7/18
PRA000049	SAA002981	ST023				SC-108	Sediment	"Sediment Core"	2010	8	17					Asia	Japan	"Hiroshima Bay"	34.3488		132.3601															22.2	8.6				28.8		9.8				"0 - 0.05"																"River mouth region and opening to the center of Hirosima Bay"	2017/11/1	2019/7/18
PRA000049	SAA002982	ST023				SC-301-1	Sediment	"Sediment Core"	2010	10	5					Asia	Japan	"Hiroshima Bay"	34.1954		132.313															23.9	8				28.8		4.6				"0 - 0.05"																"Small ferry terminal"	2017/11/1	2019/7/18
PRA000049	SAA002983	ST023				SC-301-2	Sediment	"Sediment Core"	2010	12	8					Asia	Japan	"Hiroshima Bay"	34.1954		132.313															16.4	8.2				31.7		6.9				"0 - 0.05"																"Small ferry terminal"	2017/11/1	2019/7/18
PRA000049	SAA002984	ST023				SC-302-1	Sediment	"Sediment Core"	2010	10	5					Asia	Japan	"Hiroshima Bay"	34.1968		132.3128															24.1	8				31.1		13.8				"0 - 0.05"																"Small ferry terminal"	2017/11/1	2019/7/18
PRA000049	SAA002985	ST023				SC-302-2	Sediment	"Sediment Core"	2010	12	8					Asia	Japan	"Hiroshima Bay"	34.1968		132.3128															16.6	8.2				31.5		17.7				"0 - 0.05"																"Small ferry terminal"	2017/11/1	2019/7/18
PRA000049	SAA002986	ST023				SC-303-1	Sediment	"Sediment Core"	2010	10	5					Asia	Japan	"Hiroshima Bay"	34.1974		132.3147															23.9	8.1				31		18.4				"0 - 0.05"																"Small ferry terminal"	2017/11/1	2019/7/18
PRA000049	SAA002987	ST023				SC-303-2	Sediment	"Sediment Core"	2010	12	8					Asia	Japan	"Hiroshima Bay"	34.1974		132.3147															16.6	8.2				31.6		20.1				"0 - 0.05"																"Small ferry terminal"	2017/11/1	2019/7/18
PRA000049	SAA002988	ST023				SC-304-1	Sediment	"Sediment Core"	2010	10	5					Asia	Japan	"Hiroshima Bay"	34.2025		132.3139															24	8.2				31		20.1				"0 - 0.05"																"Near an aquaculture net"	2017/11/1	2019/7/18
PRA000049	SAA002989	ST023				SC-304-2	Sediment	"Sediment Core"	2010	12	8					Asia	Japan	"Hiroshima Bay"	34.2025		132.3139															14.5	8.1				31.5		22.4				"0 - 0.05"																"Near an aquaculture net"	2017/11/1	2019/7/18
PRA000049	SAA002990	ST023				SC-305-1	Sediment	"Sediment Core"	2010	10	5					Asia	Japan	"Hiroshima Bay"	34.2076		132.3086															24	8				31		21.3				"0 - 0.05"																"Near an aquaculture net"	2017/11/1	2019/7/18
PRA000049	SAA002991	ST023				SC-305-2	Sediment	"Sediment Core"	2010	12	8					Asia	Japan	"Hiroshima Bay"	34.2076		132.3086															16.3	8.2				31.4		22.6				"0 - 0.05"																"Near an aquaculture net"	2017/11/1	2019/7/18
PRA000049	SAA002992	ST023				SC-306-1	Sediment	"Sediment Core"	2010	10	5					Asia	Japan	"Hiroshima Bay"	34.2061		132.3159															23.8	7.9				31.1		22.8				"0 - 0.05"																"Near an aquaculture net"	2017/11/1	2019/7/18
PRA000049	SAA002993	ST023				SC-306-2	Sediment	"Sediment Core"	2010	12	8					Asia	Japan	"Hiroshima Bay"	34.2061		132.3159															16.6	8.2				31.5		24.4				"0 - 0.05"																"Near an aquaculture net"	2017/11/1	2019/7/18
PRA000049	SAA002994	ST023				SC-307-1	Sediment	"Sediment Core"	2010	10	5					Asia	Japan	"Hiroshima Bay"	34.1852		132.3086															24	7.7				31.1		16.9				"0 - 0.05"																"Near an aquaculture net"	2017/11/1	2019/7/18
PRA000049	SAA002995	ST023				SC-307-2	Sediment	"Sediment Core"	2010	12	8					Asia	Japan	"Hiroshima Bay"	34.1852		132.3086															16.8	8.2				31.5		20				"0 - 0.05"																"Near an aquaculture net"	2017/11/1	2019/7/18
PRA000049	SAA002996	ST023				SC-308-1	Sediment	"Sediment Core"	2010	10	5					Asia	Japan	"Hiroshima Bay"	34.1869		132.2988															24.1	8				31.2		18.9				"0 - 0.05"																"Near an aquaculture net"	2017/11/1	2019/7/18
PRA000049	SAA002997	ST023				SC-308-2	Sediment	"Sediment Core"	2010	12	8					Asia	Japan	"Hiroshima Bay"	34.1869		132.2988															16.3	8.3				31.3		19.9				"0 - 0.05"																"Near an aquaculture net"	2017/11/1	2019/7/18
PRA000049	SAA002998	ST023				SC-1	Sediment	"Sediment Core"	2010	8	17					Asia	Japan	"Hiroshima Bay"	34.3333		132.3333															23.2	8.4				29.3		10				"0 - 0.05"																"West side of Hiroshima Bay near a lumberyard"	2017/11/1	2019/7/18
PRA000049	SAA002999	ST023				SC-2-1	Sediment	"Sediment Core"	2010	8	17					Asia	Japan	"Hiroshima Bay"	34.3333		132.3667															19.9	8.5				30		13				"0 - 0.05"																"West side of Hiroshima Bay near an openinng of harbor and marina"	2017/11/1	2019/7/18
PRA000049	SAA003000	ST023				SC-2-2	Sediment	"Sediment Core"	2010	9	27					Asia	Japan	"Hiroshima Bay"	34.3333		132.3667															24.2	7.9				29.9		14.4				"0 - 0.05"																"West side of Hiroshima Bay near an openinng of harbor and marina"	2017/11/1	2019/7/18
PRA000049	SAA003001	ST023				SC-2-3	Sediment	"Sediment Core"	2010	11	9					Asia	Japan	"Hiroshima Bay"	34.3333		132.3667															19.3	7.5				34.2		15				"0 - 0.05"																"West side of Hiroshima Bay near an openinng of harbor and marina"	2017/11/1	2019/7/18
PRA000049	SAA003002	ST023				SC-2-4	Sediment	"Sediment Core"	2010	11	16					Asia	Japan	"Hiroshima Bay"	34.3333		132.3667															17.8	7.9				30		13.7				"0 - 0.05"																"West side of Hiroshima Bay near an openinng of harbor and marina"	2017/11/1	2019/7/18
PRA000049	SAA003003	ST023				SC-3	Sediment	"Sediment Core"	2010	11	16					Asia	Japan	"Hiroshima Bay"	34.3333		132.4															18.2	8				30.5		15				"0 - 0.05"																"River mouth region"	2017/11/1	2019/7/18
PRA000049	SAA003004	ST023				SC-4	Sediment	"Sediment Core"	2010	11	16					Asia	Japan	"Hiroshima Bay"	34.3353		132.4333															18.8	8				30.9		19.2				"0 - 0.05"																"River mouth region"	2017/11/1	2019/7/18
PRA000049	SAA003005	ST023				SC-5	Sediment	"Sediment Core"	2010	11	16					Asia	Japan	"Hiroshima Bay"	34.3306		132.4667															18.2	8				31		7.7				"0 - 0.05"																"River mouth region"	2017/11/1	2019/7/18
PRA000049	SAA003006	ST023				SC-6	Sediment	"Sediment Core"	2010	9	27					Asia	Japan	"Hiroshima Bay"	34.3		132.3															24.2	7.9				29.9		7.7				"0 - 0.05"																"an aquaculture for oyster"	2017/11/1	2019/7/18
PRA000049	SAA003007	ST023				SC-7	Sediment	"Sediment Core"	2010	9	27					Asia	Japan	"Hiroshima Bay"	34.3		132.3667															24.5	7.9				30.7		31.8				"0 - 0.05"																"At the center of the Hiroshima Bay and along a sea route"	2017/11/1	2019/7/18
PRA000049	SAA003008	ST023				SC-8	Sediment	"Sediment Core"	2010	9	27					Asia	Japan	"Hiroshima Bay"	34.3		132.4															24.7	8.1				30.9		23				"0 - 0.05"																"At the center of the Hiroshima Bay and along a sea route"	2017/11/1	2019/7/18
PRA000049	SAA003009	ST023				SC-9	Sediment	"Sediment Core"	2010	9	27					Asia	Japan	"Hiroshima Bay"	34.2833		132.4333															24.8	7.9				31.1		38				"0 - 0.05"																"At the center of the Hiroshima Bay and along a sea route"	2017/11/1	2019/7/18
PRA000049	SAA003010	ST023				SC-10	Sediment	"Sediment Core"	2010	9	27					Asia	Japan	"Hiroshima Bay"	34.3		132.4667															24.7	7.8				31		16				"0 - 0.05"																"At the center of the Hiroshima Bay and along a sea route"	2017/11/1	2019/7/18
PRA000049	SAA003011	ST023				SC-11	Sediment	"Sediment Core"	2010	9	27					Asia	Japan	"Hiroshima Bay"	34.3		132.5															24.3	7.9				30.8		17				"0 - 0.05"																"Ferry terminal"	2017/11/1	2019/7/18
PRA000049	SAA003012	ST023				SC-12	Sediment	"Sediment Core"	2010	7	8					Asia	Japan	"Hiroshima Bay"	34.2667		132.2667																						11				"0 - 0.05"																"Small fisheries harbor"	2017/11/1	2019/7/18
PRA000049	SAA003013	ST023				SC-13	Sediment	"Sediment Core"	2010	9	27					Asia	Japan	"Hiroshima Bay"	34.2667		132.35															24.6	8				30.8		27.1				"0 - 0.05"																"At the center of the Hiroshima Bay and along a sea route"	2017/11/1	2019/7/18
PRA000049	SAA003014	ST023				SC-14	Sediment	"Sediment Core"	2010	9	27					Asia	Japan	"Hiroshima Bay"	34.2667		132.3833															24.6	7.8				31.3		36.6				"0 - 0.05"																"At the center of the Hiroshima Bay and along a sea route"	2017/11/1	2019/7/18
PRA000049	SAA003015	ST023				SC-15	Sediment	"Sediment Core"	2010	9	27					Asia	Japan	"Hiroshima Bay"	34.2667		132.4167															24.8	7.9				31.1		32.9				"0 - 0.05"																"At the center of the Hiroshima Bay and along a sea route"	2017/11/1	2019/7/18
PRA000049	SAA003016	ST023				SC-16	Sediment	"Sediment Core"	2010	11	16					Asia	Japan	"Hiroshima Bay"	34.2667		132.5083															18.8	8				31		29.7				"0 - 0.05"																"East side of the Hiroshima Bay and along a sea route"	2017/11/1	2019/7/18
PRA000049	SAA003017	ST023				SC-17	Sediment	"Sediment Core"	2010	11	9					Asia	Japan	"Hiroshima Bay"	34.2333		132.2333															19.8	7.9				34.6		14				"0 - 0.05"																"Ferry terminal"	2017/11/1	2019/7/18
PRA000049	SAA003018	ST023				SC-18	Sediment	"Sediment Core"	2010	11	9					Asia	Japan	"Hiroshima Bay"	34.2333		132.2667															19.4	8				34.3		18.1				"0 - 0.05"																"West side of the Hiroshima Bay and along a sea route"	2017/11/1	2019/7/18
PRA000049	SAA003019	ST023				SC-19	Sediment	"Sediment Core"	2010	7	8					Asia	Japan	"Hiroshima Bay"	34.2403		132.2992																						23.1				"0 - 0.05"																"East side of Itsuku-shima island"	2017/11/1	2019/7/18
PRA000049	SAA003020	ST023				SC-20	Sediment	"Sediment Core"	2010	7	8					Asia	Japan	"Hiroshima Bay"	34.2403		132.3321																						22.5				"0 - 0.05"																"At the center of the Hiroshima Bay and along a sea route"	2017/11/1	2019/7/18
PRA000049	SAA003021	ST023				SC-21	Sediment	"Sediment Core"	2010	7	8					Asia	Japan	"Hiroshima Bay"	34.2403		132.3649																						34.4				"0 - 0.05"																"At the center of the Hiroshima Bay and along a sea route"	2017/11/1	2019/7/18
PRA000049	SAA003022	ST023				SC-22	Sediment	"Sediment Core"	2010	11	16					Asia	Japan	"Hiroshima Bay"	34.2333		132.4583															18.3	8				30.9		20.3				"0 - 0.05"																"Natural bay of Nishi-nomi island"	2017/11/1	2019/7/18
PRA000049	SAA003023	ST023				SC-23	Sediment	"Sediment Core"	2010	11	16					Asia	Japan	"Hiroshima Bay"	34.2333		132.5															18.7	8				30.7		21.1				"0 - 0.05"																"East side of the Hiroshima Bay and along a sea route"	2017/11/1	2019/7/18
PRA000049	SAA003024	ST023				SC-24	Sediment	"Sediment Core"	2010	11	16					Asia	Japan	"Hiroshima Bay"	34.2333		132.5333															18.8	7.9				30.8		19.5				"0 - 0.05"																"Ferry terminal"	2017/11/1	2019/7/18
PRA000049	SAA003025	ST023				SC-25	Sediment	"Sediment Core"	2010	11	9					Asia	Japan	"Hiroshima Bay"	34.2		132.2667															19.2	7.7				34.2		25.1				"0 - 0.05"																"River mouth region"	2017/11/1	2019/7/18
PRA000049	SAA003026	ST023				SC-26-1	Sediment	"Sediment Core"	2010	10	5					Asia	Japan	"Hiroshima Bay"	34.2		132.3															23.9	8.1				31		25.6				"0 - 0.05"																"Near an aquaculture net"	2017/11/1	2019/7/18
PRA000049	SAA003027	ST023				SC-26-2	Sediment	"Sediment Core"	2010	12	8					Asia	Japan	"Hiroshima Bay"	34.2		132.3															16	8.1				31.2		25.4				"0 - 0.05"																"Near an aquaculture net"	2017/11/1	2019/7/18
PRA000049	SAA003028	ST023				SC-27	Sediment	"Sediment Core"	2010	7	8					Asia	Japan	"Hiroshima Bay"	34.2023		132.333																						31.5				"0 - 0.05"																"At the center of the Hiroshima Bay and along a sea route"	2017/11/1	2019/7/18
PRA000049	SAA003029	ST023				SC-28	Sediment	"Sediment Core"	2010	7	8					Asia	Japan	"Hiroshima Bay"	34.2023		132.3648																						37.5				"0 - 0.05"																"At the center of the Hiroshima Bay and along a sea route"	2017/11/1	2019/7/18
PRA000049	SAA003030	ST023				SC-29	Sediment	"Sediment Core"	2010	7	8					Asia	Japan	"Hiroshima Bay"	34.2023		132.4076																						23.9				"0 - 0.05"																"At the center of the Hiroshima Bay and along a sea route"	2017/11/1	2019/7/18
PRA000049	SAA003031	ST023				SC-30	Sediment	"Sediment Core"	2010	11	16					Asia	Japan	"Hiroshima Bay"	34.1917		132.4917															18.7	8				31		23.4				"0 - 0.05"																"East side of the Hiroshima Bay and along a sea route"	2017/11/1	2019/7/18
PRA000049	SAA003032	ST023				SC-31	Sediment	"Sediment Core"	2010	11	16					Asia	Japan	"Hiroshima Bay"	34.2083		132.5083															18.7	8.1				31.1		22.1				"0 - 0.05"																"East side of the Hiroshima Bay and along a sea route"	2017/11/1	2019/7/18
PRA000049	SAA003033	ST023				SC-32	Sediment	"Sediment Core"	2010	11	9					Asia	Japan	"Hiroshima Bay"	34.1667		132.2667															19.9	7.5				33.8		26.7				"0 - 0.05"																"River mouth region near ferry terminal"	2017/11/1	2019/7/18
PRA000049	SAA003034	ST023				SC-33	Sediment	"Sediment Core"	2010	11	9					Asia	Japan	"Hiroshima Bay"	34.1667		132.3															19.9	8.2				35		28.1				"0 - 0.05"																"At the center of the Hiroshima Bay and along a sea route"	2017/11/1	2019/7/18
PRA000049	SAA003035	ST023				SC-35	Sediment	"Sediment Core"	2010	7	8					Asia	Japan	"Hiroshima Bay"	34.1667		132.3556																						37.8				"0 - 0.05"																"At the center of the Hiroshima Bay and along a sea route"	2017/11/1	2019/7/18
PRA000049	SAA003036	ST023				SC-36	Sediment	"Sediment Core"	2010	7	8					Asia	Japan	"Hiroshima Bay"	34.1671		132.4194																						38				"0 - 0.05"																"At the center of the Hiroshima Bay and along a sea route"	2017/11/1	2019/7/18
PRA000050	SAA003037	ST023				ST01	Sediment	"Marine sediment"	2000	4						Asia	Japan	"Osaka Bay"	34.34883333		135.1703333																																										"Collected from a research vessel"	2017/11/8	2017/11/8
PRA000050	SAA003038	ST023				ST02	Sediment	"Marine sediment"	2000	4						Asia	Japan	"Osaka Bay"	34.34183333		135.12																																										"Collected from a research vessel"	2017/11/8	2017/11/8
PRA000050	SAA003039	ST023				ST03	Sediment	"Marine sediment"	2000	4						Asia	Japan	"Osaka Bay"	34.341		135.0361667																																										"Collected from a research vessel"	2017/11/8	2017/11/8
PRA000050	SAA003040	ST023				ST04	Sediment	"Marine sediment"	2000	4						Asia	Japan	"Osaka Bay"	34.34216667		134.9673333																																										"Collected from a research vessel"	2017/11/8	2017/11/8
PRA000050	SAA003041	ST023				ST05	Sediment	"Marine sediment"	2000	4						Asia	Japan	"Osaka Bay"	34.46530556		135.0165																																										"Collected from a research vessel"	2017/11/8	2017/11/8
PRA000050	SAA003042	ST023				ST06	Sediment	"Marine sediment"	2002	5						Asia	Japan	"Osaka Bay"	34.61333333		135.0861667																																										"Collected from a research vessel"	2017/11/8	2017/11/8
PRA000050	SAA003043	ST023				ST07	Sediment	"Marine sediment"	2000	4						Asia	Japan	"Osaka Bay"	34.53916667		135.1243333																																										"Collected from a research vessel"	2017/11/8	2017/11/8
PRA000050	SAA003044	ST023				ST08	Sediment	"Marine sediment"	2000	4						Asia	Japan	"Osaka Bay"	34.49466667		135.1795																																										"Collected from a research vessel"	2017/11/8	2017/11/8
PRA000050	SAA003045	ST023				ST09	Sediment	"Marine sediment"	2000	4						Asia	Japan	"Osaka Bay"	34.45316667		135.2325																																										"Collected from a research vessel"	2017/11/8	2017/11/8
PRA000050	SAA003046	ST023				ST10	Sediment	"Marine sediment"	2000	4						Asia	Japan	"Osaka Bay"	34.40583333		135.1683333																																										"Collected from a research vessel"	2017/11/8	2017/11/8
PRA000050	SAA003047	ST023				ST11	Sediment	"Marine sediment"	2000	4						Asia	Japan	"Osaka Bay"	34.42166667		135.2901667																																										"Collected from a research vessel"	2017/11/8	2017/11/8
PRA000050	SAA003048	ST023				ST12	Sediment	"Marine sediment"	2000	4						Asia	Japan	"Osaka Bay"	34.50333333		135.2831667																																										"Collected from a research vessel"	2017/11/8	2017/11/8
PRA000050	SAA003049	ST023				ST13	Sediment	"Marine sediment"	2000	4						Asia	Japan	"Osaka Bay"	34.53116667		135.3645																																										"Collected from a research vessel"	2017/11/8	2017/11/8
PRA000050	SAA003050	ST023				ST14	Sediment	"Marine sediment"	2000	4						Asia	Japan	"Osaka Bay"	34.56366667		135.3405																																										"Collected from a research vessel"	2017/11/8	2017/11/8
PRA000050	SAA003051	ST023				ST15	Sediment	"Marine sediment"	2000	4						Asia	Japan	"Osaka Bay"	34.59633333		135.299																																										"Collected from a research vessel"	2017/11/8	2017/11/8
PRA000050	SAA003052	ST023				ST16	Sediment	"Marine sediment"	2000	4						Asia	Japan	"Osaka Bay"	34.61633333		135.2381667																																										"Collected from a research vessel"	2017/11/8	2017/11/8
PRA000050	SAA003053	ST023				ST17	Sediment	"Marine sediment"	2000	4						Asia	Japan	"Osaka Bay"	34.5995		135.3843333																																										"Collected from a research vessel"	2017/11/8	2017/11/8
PRA000050	SAA003054	ST023				ST18	Sediment	"Marine sediment"	2000	4						Asia	Japan	"Osaka Bay"	34.6655		135.3325																																										"Collected from a research vessel"	2017/11/8	2017/11/8
PRA000050	SAA003055	ST023				ST19	Sediment	"Marine sediment"	2000	4						Asia	Japan	"Osaka Bay"	34.469		135.33																																										"Collected from a research vessel"	2017/11/8	2017/11/8
PRA000050	SAA003056	ST023				ST20	Sediment	"Marine sediment"	2000	4						Asia	Japan	"Osaka Bay"	34.591		135.2013333																																										"Collected from a research vessel"	2017/11/8	2017/11/8
PRA000050	SAA003057	ST023				ST21	Sediment	"Marine sediment"	2000	4						Asia	Japan	"Osaka Bay"	34.62433333		135.1651667																																										"Collected from a research vessel"	2017/11/8	2017/11/8
PRA000050	SAA003058	ST023				ST22	Sediment	"Marine sediment"	2000	4						Asia	Japan	"Osaka Bay"	34.63433333		135.3335																																										"Collected from a research vessel"	2017/11/8	2017/11/8
PRA000050	SAA003059	ST023				ST23	Sediment	"Marine sediment"	2001	5						Asia	Japan	"Osaka Bay"	34.54833333		135.235																																										"Collected from a research vessel"	2017/11/8	2017/11/8
PRA000050	SAA003060	ST023				ST24	Sediment	"Marine sediment"	2001	5						Asia	Japan	"Osaka Bay"	34.52		135.0433333																																										"Collected from a research vessel"	2017/11/8	2017/11/8
PRA000050	SAA003061	ST023				ST25	Sediment	"Marine sediment"	2001	5						Asia	Japan	"Osaka Bay"	34.48166667		135.09																																										"Collected from a research vessel"	2017/11/8	2017/11/8
PRA000050	SAA003062	ST023				ST26	Sediment	"Marine sediment"	2001	5						Asia	Japan	"Osaka Bay"	34.445		135.137																																										"Collected from a research vessel"	2017/11/8	2017/11/8
PRA000050	SAA003063	ST023				ST27	Sediment	"Marine sediment"	2001	5						Asia	Japan	"Osaka Bay"	34.405		135.087																																										"Collected from a research vessel"	2017/11/8	2017/11/8
PRA000050	SAA003064	ST023				ST28	Sediment	"Marine sediment"	2001	5						Asia	Japan	"Osaka Bay"	34.405		134.9933333																																										"Collected from a research vessel"	2017/11/8	2017/11/8
PRA000050	SAA003065	ST023				C1	Sediment	"Marine sediment"	2006	10						Asia	Japan	"Osaka Bay"	34.69216667		135.4016667																																										"Collected from the shoreline"	2017/11/8	2017/11/8
PRA000050	SAA003066	ST023				C2	Sediment	"Marine sediment"	2006	10						Asia	Japan	"Osaka Bay"	34.66		135.4008333																																										"Collected from the shoreline"	2017/11/8	2017/11/8
PRA000050	SAA003067	ST023				C3	Sediment	"Marine sediment"	2006	10						Asia	Japan	"Osaka Bay"	34.6535		135.4366667																																										"Collected from the shoreline"	2017/11/8	2017/11/8
PRA000050	SAA003068	ST023				C4	Sediment	"Marine sediment"	2006	10						Asia	Japan	"Osaka Bay"	34.63383333		135.4133333																																										"Collected from the shoreline"	2017/11/8	2017/11/8
PRA000050	SAA003069	ST023				C5	Sediment	"Marine sediment"	2006	10						Asia	Japan	"Osaka Bay"	34.6405		135.417																																										"Collected from the shoreline"	2017/11/8	2017/11/8
PRA000050	SAA003070	ST023				C6	Sediment	"Marine sediment"	2006	10						Asia	Japan	"Osaka Bay"	34.61533333		135.4178333																																										"Collected from the shoreline"	2017/11/8	2017/11/8
PRA000050	SAA003071	ST023				C7	Sediment	"Marine sediment"	2006	10						Asia	Japan	"Osaka Bay"	34.5255		135.428																																										"Collected from the shoreline"	2017/11/8	2017/11/8
PRA000050	SAA003072	ST023				C9	Sediment	"Marine sediment"	2006	10						Asia	Japan	"Osaka Bay"	34.52883333		135.4255																																										"Collected from the shoreline"	2017/11/8	2017/11/8
PRA000050	SAA003073	ST023				C10	Sediment	"Marine sediment"	2006	10						Asia	Japan	"Osaka Bay"	34.51533333		135.3966667																																										"Collected from the shoreline"	2017/11/8	2017/11/8
PRA000050	SAA003074	ST023				C12	Sediment	"Marine sediment"	2006	10						Asia	Japan	"Osaka Bay"	34.5045		135.3895																																										"Collected from the shoreline"	2017/11/8	2017/11/8
PRA000050	SAA003075	ST023				C13	Sediment	"Marine sediment"	2006	10						Asia	Japan	"Osaka Bay"	34.49783333		135.3853333																																										"Collected from the shoreline"	2017/11/8	2017/11/8
PRA000050	SAA003076	ST023				C14	Sediment	"Marine sediment"	2006	10						Asia	Japan	"Osaka Bay"	34.4655		135.3728333																																										"Collected from the shoreline"	2017/11/8	2017/11/8
PRA000050	SAA003077	ST023				C17	Sediment	"Marine sediment"	2006	10						Asia	Japan	"Osaka Bay"	34.68633333		135.367																																										"Collected from the shoreline"	2017/11/8	2017/11/8
PRA000050	SAA003078	ST023				C18	Sediment	"Marine sediment"	2006	10						Asia	Japan	"Osaka Bay"	34.69216667		135.4016667																																										"Collected from the shoreline"	2017/11/8	2017/11/8
PRA000050	SAA003079	ST023				C19	Sediment	"Marine sediment"	2006	10						Asia	Japan	"Osaka Bay"	34.69616667		135.407																																										"Collected from the shoreline"	2017/11/8	2017/11/8
PRA000050	SAA003080	ST023				C20	Sediment	"Marine sediment"	2006	10						Asia	Japan	"Osaka Bay"	34.6875		135.402																																										"Collected from the shoreline"	2017/11/8	2017/11/8
PRA000067	SAA003848	ST024				Iwate_sed1-1_2015	Sediment	"River sediment"	2015	10	14	2015-10-14T10:12			Cloudy	Asia	Japan	"Riv. Toyosawa (Hanamaki City), Iwate"	39.38166667		141.1191667														11.1	13.3										14.2	0.2	Sandy	Brown_Light		Odorless	"Vegetative pieces"	21.5/20.6	1.4/1.2										2018/05/08	2019/08/02
PRA000067	SAA003849	ST024				Iwate_sed1-2_2015	Sediment	"River sediment"	2015	10	14	2015-10-14T11:30			Cloudy	Asia	Japan	"Riv. Toyosawa (Hanamaki City), Iwate"	39.38166667		141.1191667														12.7	13.2										12.6	0.2	Sandy	Brown_Light		Odorless	"Vegetative pieces"	20.8/22.4	1.3/1.2										2018/05/08	2019/08/02
PRA000067	SAA003850	ST024				Iwate_sed1-3_2015	Sediment	"River sediment"	2015	10	14	2015-10-14T11:30			Cloudy	Asia	Japan	"Riv. Toyosawa (Hanamaki City), Iwate"	39.38166667		141.1191667														12.7	13.2										12.6	0.2	Sandy	Brown_Light		Odorless	"Vegetative pieces"	23.0/20.2	1.5/1.2										2018/05/08	2019/08/02
PRA000067	SAA003851	ST024				Akita_sed1-1_2015	Sediment	"River sediment"	2015	11	16	2015-11-16T13:00			Fair	Asia	Japan	"Akita Canal (Akita City), Akita"	39.75083333		140.0586111														17.6	12.9								1.1		13.7	12	Muddy	Black_Dark		"Hydrogen sulfide odor_Faint"	None	65.7/58.1	10.3/7.5										2018/05/08	2019/08/02
PRA000067	SAA003852	ST024				Akita_sed1-2_2015	Sediment	"River sediment"	2015	11	16	2015-11-16T13:00			Fair	Asia	Japan	"Akita Canal (Akita City), Akita"	39.75083333		140.0586111														17.6	12.9								1.1		13.7	12	Muddy	Black_Dark		"Hydrogen sulfide odor_Faint"	None	65.7/58.1	10.3/7.5										2018/05/08	2019/08/02
PRA000067	SAA003853	ST024				Akita_sed1-3_2015	Sediment	"River sediment"	2015	11	16	2015-11-16T13:00			Fair	Asia	Japan	"Akita Canal (Akita City), Akita"	39.75083333		140.0586111														17.6	12.9								1.1		13.7	12	Muddy	Black_Dark		"Hydrogen sulfide odor_Faint"	None	65.7/58.1	10.3/7.5										2018/05/08	2019/08/02
PRA000067	SAA003854	ST024				Ibaraki_sed1-1_2015	Sediment	"River sediment"	2015	11	17	2015-11-17T10:30			Fair	Asia	Japan	"Kamome-ohasi Bridge, Mouth of Riv. Tone (Kamisu City), Ibaraki"	35.77638889		140.7569444														22.8	18								0.5			1.5	"Sandy Mud"	Black_Light		"Swampy odor"	Reed	3.0/38.2	4.0/3.1										2018/05/08	2019/08/02
PRA000067	SAA003855	ST024				Ibaraki_sed1-2_2015	Sediment	"River sediment"	2015	11	17	2015-11-17T10:48			Fair	Asia	Japan	"Kamome-ohasi Bridge, Mouth of Riv. Tone (Kamisu City), Ibaraki"	35.77638889		140.7569444														21.5	17.5								0.8			5.4	Muddy	Black		"Swampy odor"	None	47.0/53.5	7.8/5.3										2018/05/08	2019/08/02
PRA000067	SAA003856	ST024				Ibaraki_sed1-3_2015	Sediment	"River sediment"	2015	11	17	2015-11-17T11:20			Fair	Asia	Japan	"Kamome-ohasi Bridge, Mouth of Riv. Tone (Kamisu City), Ibaraki"	35.77638889		140.7569444														23	17.5								0.8			2.4	Sandy	"Gray black"		"Ocean odor"	Shellfish	16.0/19.9	1.1/0.7										2018/05/08	2019/08/02
PRA000067	SAA003857	ST023				Chiba_sed1-1_2015	Sediment	"Marine sediment"	2015	10	29	2015-10-29T09:38			"Light rain"	Asia	Japan	"Ichihara-Anesaki Coast, Chiba"	35.52166667		140.0283333														17.4	19.8								4.9		19.1	14.9	Silt	"Gray black_Dark"		"Hydrogen sulfide odor_strong"	None	72.6/82.2	12.5/10.5										2018/5/8	2019/8/2
PRA000067	SAA003858	ST023				Chiba_sed1-2_2015	Sediment	"Marine sediment"	2015	10	29	2015-10-29T09:54			"Light rain"	Asia	Japan	"Ichihara-Anesaki Coast, Chiba"	35.52166667		140.0283333														17.2	19.8								5.1		19.1	15.8	Silt	"Gray black_Dark"		"Hydrogen sulfide odor"	Shell	47.1/62.2	6.8/5.8										2018/5/8	2019/8/2
PRA000067	SAA003859	ST023				Chiba_sed1-3_2015	Sediment	"Marine sediment"	2015	10	29	2015-10-29T10:08			"Light rain"	Asia	Japan	"Ichihara-Anesaki Coast, Chiba"	35.52166667		140.0283333														17.4	20.1								5.2		19.2	16.6	Silt	"Gray black_Dark"		"Hydrogen sulfide odor_strong"	None	75.3/83.7	13.5/10.7										2018/5/8	2019/8/2
PRA000067	SAA003860	ST024				Tokyo_sed1-1_2015	Sediment	"River sediment"	2015	11	12	2015-11-12T10:25			Fair	Asia	Japan	"Mouth of Riv. Arakawa (Koto Ward), Tokyo"	35.64583333		139.8463889														15.1	17.8								0.7		18.5	2.8	Silt	Black		Odorless	"Hard clam"	46.2/51.3	7.9/7.1										2018/05/08	2019/08/02
PRA000067	SAA003861	ST024				Tokyo_sed1-2_2015	Sediment	"River sediment"	2015	11	12	2015-11-12T11:10			Fair	Asia	Japan	"Mouth of Riv. Arakawa (Koto Ward), Tokyo"	35.64583333		139.8463889														14.7	18								0.8		18.2	2.5	Silt	Black		Odorless	"Hard clam; Clam; Nassarius festivus; Polychaete"	40.8/52.9	7.2/7.4										2018/05/08	2019/08/02
PRA000067	SAA003862	ST024				Tokyo_sed1-3_2015	Sediment	"River sediment"	2015	11	12	2015-11-12T11:40			Fair	Asia	Japan	"Mouth of Riv. Arakawa (Koto Ward), Tokyo"	35.64583333		139.8463889														14.8	18								0.9		18.2	2	Silt	Black		Odorless	Shell	51.4/58.5	9.0/8.2										2018/05/08	2019/08/02
PRA000067	SAA003863	ST024				Tokyo_sed2-1_2015	Sediment	"River sediment"	2015	11	12	2015-11-12T12:45			Fair	Asia	Japan	"Mouth of Riv. Sumida (Minato Ward), Tokyo"	35.66		139.7705556														16	19.2								2		20	6.7	Silt	Black		"Hydrogen sulfide odor"	Shell	64.1/65.7	13.6/10.3										2018/05/08	2019/08/02
PRA000067	SAA003864	ST024				Tokyo_sed2-2_2015	Sediment	"River sediment"	2015	11	12	2015-11-12T13:25			Fair	Asia	Japan	"Mouth of Riv. Sumida (Minato Ward), Tokyo"	35.66		139.7705556														15	19.6								2		19.8	5.1	Silt	Black		"Hydrogen sulfide odor"	"Vegetative pieces"	46.4/69.8	8.6/11.9										2018/05/08	2019/08/02
PRA000067	SAA003865	ST024				Tokyo_sed2-3_2015	Sediment	"River sediment"	2015	11	12	2015-11-12T13:45			Fair	Asia	Japan	"Mouth of Riv. Sumida (Minato Ward), Tokyo"	35.66		139.7705556														14.7	19.4								2		19.8	3.7	Silt	Black		"Hydrogen sulfide odor"	None	58.0/65.8	11.3/10.3										2018/05/08	2019/08/02
PRA000067	SAA003866	ST023				Yokohama_sed1-1_2015	Sediment	"Marine sediment"	2015	10	22	2015-10-22T10:50			Fair	Asia	Japan	"Yokohama Port, Kanagawa"	35.45555556		139.6636111														25	24.5								1		19	12	Sludge	Black		"Hydrogen sulfide odor_Faint"	None	75.0/72.2	10.7/8.6										2018/5/8	2019/8/2
PRA000067	SAA003867	ST023				Yokohama_sed1-2_2015	Sediment	"Marine sediment"	2015	10	22	2015-10-22T09:50			Fair	Asia	Japan	"Yokohama Port, Kanagawa"	35.45555556		139.6636111														21.3	23.4								1.3		19	12	Sludge	Black		"Hydrogen sulfide odor_Faint"	None	78.0/75.5	11.6/10.0										2018/5/8	2019/8/2
PRA000067	SAA003868	ST023				Yokohama_sed1-3_2015	Sediment	"Marine sediment"	2015	10	22	2015-10-22T11:10			Fair	Asia	Japan	"Yokohama Port, Kanagawa"	35.45555556		139.6636111														24	21.5								2.8		19	11.5	Sludge	Black		"Hydrogen sulfide odor_Faint"	None	65.2/62.9	7.9/7.1										2018/5/8	2019/8/2
PRA000067	SAA003869	ST024				Niigata_sed1-1_2015	Sediment	"River sediment"	2015	10	14	2015-10-14T10:30			Fair	Asia	Japan	"Downstream of Riv. Shinano (Niigata City), Niigata"	37.88305556		139.0155556														18.5	15.9										16.2	2.4	Muddy	"Grayish brown"		Odorless	Leaves	68.6/61.9	10.1/8.5										2018/05/08	2019/08/02
PRA000067	SAA003870	ST024				Niigata_sed1-2_2015	Sediment	"River sediment"	2015	10	14	2015-10-14T10:30			Fair	Asia	Japan	"Downstream of Riv. Shinano (Niigata City), Niigata"	37.88305556		139.0155556														18.5	15.9										15.7	4.8	"Sandy Mud"	"Grayish brown"		Odorless	Twigs	34.3/22.9	2.6/1.8										2018/05/08	2019/08/02
PRA000067	SAA003871	ST024				Niigata_sed1-3_2015	Sediment	"River sediment"	2015	10	14	2015-10-14T10:15			Fair	Asia	Japan	"Downstream of Riv. Shinano (Niigata City), Niigata"	37.88305556		139.0155556														18.5	15.9										15.5	3.8	"Sandy Mud"	"Grayish brown"		"Earthy odor_Faint"	"Leaves; Twigs"	27.6/17.6	1.8/1.1										2018/05/08	2019/08/02
PRA000067	SAA003872	ST024				Nagano_sed1-1_2015	Sediment	"Lake sediment"	2015	11	5	2015-11-05T10:30			Fair	Asia	Japan	"Center of Lake Suwa, Nagano"	36.05		138.0861111														14.5	13.3								0.85		13	6.3	Muddy	"Blackish brown_Dark"		"Swampy odor_Faint"	None	NA/87.6	NA/12.8										2018/5/8	2019/8/2
PRA000067	SAA003873	ST024				Nagano_sed1-2_2015	Sediment	"Lake sediment"	2015	11	5	2015-11-05T11:10			Fair	Asia	Japan	"Center of Lake Suwa, Nagano"	36.05		138.0861111														15.9	13.5								1.13		13	5.9	Muddy	"Blackish brown_Dark"		"Swampy odor_Faint"	None	NA/87.2	NA/12.9										2018/5/8	2019/8/2
PRA000067	SAA003874	ST024				Nagano_sed1-3_2015	Sediment	"Lake sediment"	2015	11	5	2015-11-05T11:55			Fair	Asia	Japan	"Center of Lake Suwa, Nagano"	36.05		138.0861111														18	13.6								0.94		13.2	6	Muddy	"Blackish brown_Dark"		"Swampy odor_Faint"	None	NA/87.0	NA/12.9										2018/5/8	2019/8/2
PRA000067	SAA003875	ST023				Shizuoka_sed1-1_2015	Sediment	"Marine sediment"	2015	10	1	2015-10-01T09:40			Cloudy	Asia	Japan	"Shimizu Port, Shizuoka"	35.02416667		138.5161111														20	22.7								2.5		23.1	25.6	"Sand, Mud"	"Gray black_Dark"		"Seaweed odor"	Shellfish	40.4/37.5	7.1/4.2										2018/5/8	2019/8/2
PRA000067	SAA003876	ST023				Shizuoka_sed1-2_2015	Sediment	"Marine sediment"	2015	10	1	2015-10-01T10:00			Cloudy	Asia	Japan	"Shimizu Port, Shizuoka"	35.02416667		138.5161111														21											23.4	17.7	"Sand, Mud"	"Gray black_Dark"		"Seaweed odor"	Shellfish	30.8/29.1	5.6/3.3										2018/5/8	2019/8/2
PRA000067	SAA003877	ST023				Shizuoka_sed1-3_2015	Sediment	"Marine sediment"	2015	10	1	2015-10-01T10:15			Cloudy	Asia	Japan	"Shimizu Port, Shizuoka"	35.02416667		138.5161111														21											23.6	16.3	"Sand, Mud"	"Gray black_Dark"		"Seaweed odor"	Shellfish	33.3/29.9	5.8/3.3										2018/5/8	2019/8/2
PRA000067	SAA003878	ST024				Shizuoka_sed2-1_2015	Sediment	"River sediment"	2015	10	27	2015-10-27T10:45			Fair	Asia	Japan	"Kashima-bashi Bridge, Riv. Ushibuchi (Kakegawa City), Shizuoka"	34.66611111		138.0555556														25.7	17.2										17.5	0.5	Sand	"Gray black"		"Sewage odor_Faint"	"Pebble; Humic substances"	32.8/31.1	3.2/2.7										2018/05/08	2019/08/02
PRA000067	SAA003879	ST024				Shizuoka_sed2-2_2015	Sediment	"River sediment"	2015	10	27	2015-10-27T10:10			Fair	Asia	Japan	"Kashima-bashi Bridge, Riv. Ushibuchi (Kakegawa City), Shizuoka"	34.66611111		138.0555556														22.8											17.4	0.7	Sand	"Gray black"		"Sewage odor_Faint"	"Pebble; Humic substances"	26.2/27.3	2.4/1.7										2018/05/08	2019/08/02
PRA000067	SAA003880	ST024				Shizuoka_sed2-3_2015	Sediment	"River sediment"	2015	10	27	2015-10-27T10:35			Fair	Asia	Japan	"Kashima-bashi Bridge, Riv. Ushibuchi (Kakegawa City), Shizuoka"	34.66611111		138.0555556														22.8											17.2	0.5	Sand	"Gray black"		"Sewage odor_Faint"	"Pebble; Humic substances"	26.3/25.6	2.2/1.6										2018/05/08	2019/08/02
PRA000067	SAA003881	ST023				Aichi_sed1-1_2015	Sediment	"Marine sediment"	2015	10	27	2015-10-27T12:26			Cloudy	Asia	Japan	"Nagoya Port, West of Shiomi Wharf, Aichi"	35.07111111		136.8691667														22.6	24.3								2.5		22	10.8	Muddy	"Gray black"		"Hydrogen sulfide odor"	None	39.5/57.3	5.0/6.2										2018/5/8	2019/8/5
PRA000067	SAA003882	ST023				Aichi_sed1-2_2015	Sediment	"Marine sediment"	2015	10	27	2015-10-27T12:31			Cloudy	Asia	Japan	"Nagoya Port, West of Shiomi Wharf, Aichi"	35.07111111		136.8691667														22.6	24.3								2.5		22	10.8	Muddy	"Gray black"		"Hydrogen sulfide odor"	None	39.7/55.8	5.1/5.7										2018/5/8	2019/8/5
PRA000067	SAA003883	ST023				Aichi_sed1-3_2015	Sediment	"Marine sediment"	2015	10	27	2015-10-27T12:36			Cloudy	Asia	Japan	"Nagoya Port, West of Shiomi Wharf, Aichi"	35.07111111		136.8691667														22.6	24.3								2.5		22	10.8	Muddy	"Gray black"		"Hydrogen sulfide odor"	None	42.5/55.7	5.9/5.7										2018/5/8	2019/8/5
PRA000067	SAA003884	ST023				Mie_sed1-1_2015	Sediment	"Marine sediment"	2015	10	21	2015-10-21T10:30			Fair	Asia	Japan	"Yokkaichi Port, Mie"	34.94944444		136.6530556														26	20.8								2		22	12.8	Muddy	"Gray black"		"Hydrogen sulfide odor_Faint"	None	59.0/70.0	10.0/8.0										2018/5/8	2019/8/5
PRA000067	SAA003885	ST023				Mie_sed1-2_2015	Sediment	"Marine sediment"	2015	10	21	2015-10-21T10:50			Fair	Asia	Japan	"Yokkaichi Port, Mie"	34.94944444		136.6530556														23	20.8								2		22	11.2	Muddy	"Gray black"		"Hydrogen sulfide odor_Faint"	None	56.0/66.7	9.8/7.7										2018/5/8	2019/8/5
PRA000067	SAA003886	ST023				Mie_sed1-3_2015	Sediment	"Marine sediment"	2015	10	21	2015-10-21T11:10			Fair	Asia	Japan	"Yokkaichi Port, Mie"	34.94944444		136.6530556														24.1	20.8								2		22	7.4	Muddy	"Gray black"		"Hydrogen sulfide odor_Faint"	None	47.0/54.9	7.7/5.8										2018/5/8	2019/8/5
PRA000067	SAA003887	ST024				Shiga_sed1-1_2015	Sediment	"Lake sediment"	2015	10	20	2015-10-20T09:45			Fair	Asia	Japan	"Lake Biwa (center, offshore of Minamihira), Shiga"	35.18527778		135.9733333														20.7	19.9								5.8		8.5	58.6	Muddy	"Gray black"		"Swampy odor"	None	72.5/81.5	10.7/10.0										2018/05/08	2019/08/05
PRA000067	SAA003888	ST024				Shiga_sed1-2_2015	Sediment	"Lake sediment"	2015	10	20	2015-10-20T10:00			Fair	Asia	Japan	"Lake Biwa (center, offshore of Minamihira), Shiga"	35.18527778		135.9733333														20.7	20.3								5.9		9.1	52.2	Muddy	"Gray black"		"Swampy odor"	None	70.5/81.4	10.5/9.8										2018/05/08	2019/08/05
PRA000067	SAA003889	ST024				Shiga_sed1-3_2015	Sediment	"Lake sediment"	2015	10	20	2015-10-20T10:10			Fair	Asia	Japan	"Lake Biwa (center, offshore of Minamihira), Shiga"	35.18527778		135.9733333														20.8	19.8								4.1		9	49	Muddy	"Gray black"		"Swampy odor"	None	69.6/80.8	10.5/9.8										2018/05/08	2019/08/05
PRA000067	SAA003890	ST023				Kyoto_sed1-1_2015	Sediment	"Marine sediment"	2015	10	23	2015-10-23T09:52			Fair	Asia	Japan	"Miyazu Port, Kyoto"	35.58305556		135.2138889														19.5	20.9								9		20	12	Muddy	"Gray black"		"Seaweed odor"	None	25.6/27.6	2.5/1.8										2018/5/8	2019/8/5
PRA000067	SAA003891	ST023				Kyoto_sed1-2_2015	Sediment	"Marine sediment"	2015	10	23	2015-10-23T10:13			Fair	Asia	Japan	"Miyazu Port, Kyoto"	35.58305556		135.2138889														18.6	20.9								10		20.5	22.6	Muddy	"Gray black"		"Seaweed odor"	None	52.8/55.2	9.0/7.2										2018/5/8	2019/8/5
PRA000067	SAA003892	ST023				Kyoto_sed1-3_2015	Sediment	"Marine sediment"	2015	10	23	2015-10-23T10:43			Fair	Asia	Japan	"Miyazu Port, Kyoto"	35.58305556		135.2138889														20.7	20.7								9		20	22.2	Muddy	"Gray black"		"Seaweed odor"	None	56.3/57.5	9.3/7.3										2018/5/8	2019/8/5
PRA000067	SAA003893	ST024				Osaka_sed1-1_2015	Sediment	"River sediment"	2015	11	19	2015-11-19T08:58			Cloudy	Asia	Japan	"Mouth of Riv. Yamato (Sakai City), Osaka"	34.60833333		135.4325														17.3	17.2								0.7		20.5	3.7	Mud	Black		"Hydrogen sulfide odor_Strong"	"Vegetative pieces"	74.9/75.6	14.6/15.5										2018/05/08	2019/08/05
PRA000067	SAA003894	ST024				Osaka_sed1-2_2015	Sediment	"River sediment"	2015	11	19	2015-11-19T09:35			Cloudy	Asia	Japan	"Mouth of Riv. Yamato (Sakai City), Osaka"	34.60833333		135.4325														17.3	17.1								0.7		20.1	3.3	Mud	Black		"Hydrogen sulfide odor_Strong"	"Vegetative pieces"	76.4/75.7	15.1/15.6										2018/05/08	2019/08/05
PRA000067	SAA003895	ST024				Osaka_sed1-3_2015	Sediment	"River sediment"	2015	11	19	2015-11-19T10:25			Cloudy	Asia	Japan	"Mouth of Riv. Yamato (Sakai City), Osaka"	34.60833333		135.4325														17.4	17.9								0.7		20.7	3.5	Mud	Black		"Hydrogen sulfide odor_Strong"	"Vegetative pieces"	63.7/67.2	9.6/10.6										2018/05/08	2019/08/05
PRA000067	SAA003896	ST023				OsakaCity_sed1-1_2015	Sediment	"Marine sediment"	2015	10	27	2015-10-27T09:23			Fair	Asia	Japan	"Osaka Port, Osaka"	34.65861111		135.4313889														23	20.1								3.8		21.8	3.8	"Sludge (Clay)"	Black		"Hydrogen sulfide odor_Faint"	None	38.7/63.5	6.8/8.4										2018/5/8	2019/8/5
PRA000067	SAA003897	ST023				OsakaCity_sed1-2_2015	Sediment	"Marine sediment"	2015	10	27	2015-10-27T09:00			Fair	Asia	Japan	"Osaka Port, Osaka"	34.65861111		135.4313889														23	20.6								3.3		22.2	3.3	"Sludge (Clay)"	Black		"Hydrogen sulfide odor_Faint"	None	39.4/64.0	7.0/8.3										2018/5/8	2019/8/5
PRA000067	SAA003898	ST023				OsakaCity_sed1-3_2015	Sediment	"Marine sediment"	2015	10	27	2015-10-27T09:30			Fair	Asia	Japan	"Osaka Port, Osaka"	34.65861111		135.4313889														22.1	20.4								3.9		22	3.9	"Sludge (Clay)"	Black		"Hydrogen sulfide odor_Faint"	None	57.5/71.5	10.7/9.8										2018/5/8	2019/8/5
PRA000067	SAA003899	ST024				Wakayama_sed1-1_2015	Sediment	"River sediment"	2015	11	16	2015-11-16T13:00			Fair	Asia	Japan	"Kinokawa-ohashi Bridge, Mouth of Riv. Kinokawa (Wakayama City), Wakayama"	34.23		135.1561111														24.3	24.5								1.2		21.3	3	Sandy	Glay		"Seaweed odor_Faint"	Shellfish	19.7/22.0	1.9/1.8										2018/5/8	2019/8/5
PRA000067	SAA003900	ST024				Wakayama_sed1-2_2015	Sediment	"River sediment"	2015	11	16	2015-11-16T12:40			Fair	Asia	Japan	"Kinokawa-ohashi Bridge, Mouth of Riv. Kinokawa (Wakayama City), Wakayama"	34.23		135.1561111														23.4	20.8								1.2		23.4	3.2	Sandy	Glay		"Seaweed odor_Faint"	None	21.1/20.6	2.3/2.2										2018/5/8	2019/8/5
PRA000067	SAA003901	ST024				Wakayama_sed1-3_2015	Sediment	"River sediment"	2015	11	16	2015-11-16T13:10			Fair	Asia	Japan	"Kinokawa-ohashi Bridge, Mouth of Riv. Kinokawa (Wakayama City), Wakayama"	34.23		135.1561111														24.1	20.8								1.2		21	3.7	Sandy	"Gray black"		Odorless	None	26.6/36.4	3.9/3.9										2018/5/8	2019/8/5
PRA000067	SAA003902	ST023				Okayama_sed1-1_2015	Sediment	"Marine sediment"	2015	11	4	2015-11-04T11:07			Fair	Asia	Japan	"Offshore of Mizushima, Okayama"	34.48055556		133.665														18.5	20								3		19.5	8.8	Ooze	"Glayish green"		"Earthy odor"	"Small pieces of shell"	46.9/46.1	6.2/5.2										2018/5/8	2019/8/5
PRA000067	SAA003903	ST023				Okayama_sed1-2_2015	Sediment	"Marine sediment"	2015	11	4	2015-11-04T10:50			Fair	Asia	Japan	"Offshore of Mizushima, Okayama"	34.48055556		133.665														17	19.5								3		19.8	9.3	Ooze	"Glayish green"		"Earthy odor"	"Small pieces of shell"	48.3/47.6	6.7/5.6										2018/5/8	2019/8/5
PRA000067	SAA003904	ST023				Okayama_sed1-3_2015	Sediment	"Marine sediment"	2015	11	4	2015-11-04T11:32			Fair	Asia	Japan	"Offshore of Mizushima, Okayama"	34.48055556		133.665														18.2	20								3		19.5	8.1	Ooze	"Glayish green"		"Earthy odor"	"Small pieces of shell"	49.9/49.1	7.4/6.3										2018/5/8	2019/8/5
PRA000067	SAA003905	ST023				Yamaguchi_sed1-1_2015	Sediment	"Marine sediment"	2015	10	7	2015-10-07T10:41			Fair	Asia	Japan	"Tokuyama Bay, Yamaguchi"	33.99361111		131.7505556														23	23.2								4.5		18.5	26.2	Muddy	Glay		"Hydrogen sulfide odor_Faint"	None	55.5/68.1	10.3/8.0										2018/5/8	2019/8/5
PRA000067	SAA003906	ST023				Yamaguchi_sed1-2_2015	Sediment	"Marine sediment"	2015	10	7	2015-10-07T10:46			Fair	Asia	Japan	"Tokuyama Bay, Yamaguchi"	33.99361111		131.7505556														23	23.2								4.5		18.5	26.2	Muddy	Glay		"Hydrogen sulfide odor_Faint"	None	56.2/66.7	10.3/8.1										2018/5/8	2019/8/5
PRA000067	SAA003907	ST023				Yamaguchi_sed1-3_2015	Sediment	"Marine sediment"	2015	10	7	2015-10-07T10:51			Fair	Asia	Japan	"Tokuyama Bay, Yamaguchi"	33.99361111		131.7505556														23	23.2								4.5		18.5	29.3	Muddy	Glay		"Hydrogen sulfide odor_Faint"	None	56.4/68.3	10.4/8.2										2018/5/8	2019/8/5
PRA000067	SAA003908	ST023				Kagawa_sed1-1_2015	Sediment	"Marine sediment"	2015	10	13	2015-10-13T09:05			Fair	Asia	Japan	"Takamatsu Port, Kagawa"	34.34972222		134.0788889														21.7	22.7								2		23.1	2.4	Muddy	Black		"Hydrogen sulfide odor; Turpentine-like odor_Faint"	"Benthos; Shell; Vegetative pieces; Vinyl pieces"	48.6/53.7	11.4/12.7										2018/5/8	2019/8/5
PRA000067	SAA003909	ST023				Kagawa_sed1-2_2015	Sediment	"Marine sediment"	2015	10	13	2015-10-13T09:20			Fair	Asia	Japan	"Takamatsu Port, Kagawa"	34.34972222		134.0788889														20.7	22.7								2.8		22.4	5	"Sandy Mud"	Black		"Hydrogen sulfide odor_Faint"	"Benthos; Shell; Vegetative pieces"	25.9/26.6	2.8/2.4										2018/5/8	2019/8/5
PRA000067	SAA003910	ST023				Kagawa_sed1-3_2015	Sediment	"Marine sediment"	2015	10	13	2015-10-13T09:45			Fair	Asia	Japan	"Takamatsu Port, Kagawa"	34.34972222		134.0788889														21.2	22.7								2.9		22.7	5.1	Muddy	Black		"Hydrogen sulfide odor_Faint"	"Benthos; Bristle worms; Shell; Vegetative pieces"	48.9/33.2	9.8/4.7										2018/5/8	2019/8/5
PRA000067	SAA003911	ST023				FukuokaCity_sed1-1_2015	Sediment	"Marine sediment"	2015	11	30	2015-11-30T08:53			Fair	Asia	Japan	"Hakata Bay, Fukuoka"	33.60833333		130.3297222														13.5	14.5								2		16.5	8.2	Silt	Glay_Dark		Odorless	None	45.0/56.5	9.2/7.6										2018/5/8	2019/8/5
PRA000067	SAA003912	ST023				FukuokaCity_sed1-2_2015	Sediment	"Marine sediment"	2015	11	30	2015-11-30T09:29			Fair	Asia	Japan	"Hakata Bay, Fukuoka"	33.60833333		130.3297222														14.5	15								2.5		16.5	7.7	Silt	"Glayish yellowgreen_Dark"		Odorless	None	41.0/54.2	8.6/7.2										2018/5/8	2019/8/5
PRA000067	SAA003913	ST023				FukuokaCity_sed1-3_2015	Sediment	"Marine sediment"	2015	11	30	2015-11-30T09:44			Fair	Asia	Japan	"Hakata Bay, Fukuoka"	33.60833333		130.3297222														14.5	15.5								2.5		16	8	Silt	"Glayish yellowgreen_Dark"		Odorless	None	43.0/55.2	8.9/7.3										2018/5/8	2019/8/5
PRA000067	SAA003914	ST023				Saga_sed1-1_2015	Sediment	"Marine sediment"	2015	10	29	2015-10-29T10:50			Fair	Asia	Japan	"Imari Bay, Saga"	33.34		129.8208333														20	20.5								2.7		21	15.2	Muddy	"Glay black"		Odorless	None	59.8/65.0	21.1/9.6										2018/5/8	2019/8/5
PRA000067	SAA003915	ST023				Saga_sed1-2_2015	Sediment	"Marine sediment"	2015	10	29	2015-10-29T11:16			Fair	Asia	Japan	"Imari Bay, Saga"	33.34		129.8208333														18	20.5								2.5		21	15.3	Muddy	"Glay black"		Odorless	None	60.8/65.1	18.5/9.6										2018/5/8	2019/8/5
PRA000067	SAA003916	ST023				Saga_sed1-3_2015	Sediment	"Marine sediment"	2015	10	29	2015-10-29T11:47			Fair	Asia	Japan	"Imari Bay, Saga"	33.34		129.8208333														19.5	20.5								2.8		20.5	15.5	Muddy	"Glay black"		Odorless	None	59.9/65.3	20.3/9.0										2018/5/8	2019/8/5
PRA000067	SAA003917	ST024				Oita_sed1-1_2015	Sediment	"River sediment"	2015	12	8	2015-12-08T12:27			Fair	Asia	Japan	"Mouth of Riv. Oita, Oita"	33.25722222		131.6175														15.1	15.5											2.9	Sandy	"Blackish brown_Light"		Odorless	"Shell; small pieces of shell"	13.8/23.8	1.4/1.1										2018/5/8	2019/8/5
PRA000067	SAA003918	ST024				Oita_sed1-2_2015	Sediment	"River sediment"	2015	12	8	2015-12-08T11:42			Fair	Asia	Japan	"Mouth of Riv. Oita, Oita"	33.25722222		131.6175														18	15.3											3	Sandy	Brown_Dark		Odorless	"Shell; Small pieces of shell; Stone"	14.8/22.6	1.6/1.21										2018/5/8	2019/8/5
PRA000067	SAA003919	ST024				Oita_sed1-3_2015	Sediment	"River sediment"	2015	12	8	2015-12-08T10:48			Fair	Asia	Japan	"Mouth of Riv. Oita, Oita"	33.25722222		131.6175														14.7	13.4											2.3	Sandy	"Blackish brown_Dark"		"Hydrogen sulfide odor"	"Woodchips; Stone"	33.6/38.2	5.1/4.27										2018/5/8	2019/8/5
PRA000068	SAA003942	ST024				Hokkaido_sed1-123_2015	Sediment	"River sediment"	2015	9	15	"2015-09-15T12:40; T12:40; T12:40"			Fair	Asia	Japan	"Onnnenai-ohashi Bridge, Riv. Teshio (BifukaTown), Hokkaido"	44.59138889		142.3063889														"20.0; 20.0; 20.0"											"22.0; 22.0; 22.0"	"0.2; 0.2; 0.2"		Brown		Odorless	None	"42.6; 55.6; 25.4 (Each) / 37.5 (Mixed)"	"7.3; 9.2; 3.2 (Each) / 4.2 (Mixed)"									"n=3 pooled"	2018/05/11	2019/08/08
PRA000068	SAA003943	ST024				Hokkaido_sed2-123_2015	Sediment	"River sediment"	2015	11	10	"2015-11-10T10:10; T10:23; T10:45"			Cloudy	Asia	Japan	"Ishikarikakokyo Bridge, Mouth of Riv. Ishikari (Ishikari City), Hokkaido"	43.22861111		141.3519444														"1.4; 2.0; 0.7"	"6.9; 6.9; 6.9"										"10.0; 12.0; 12.0"	"4.9; 5.0; 5.0"		Brown		Odorless		"63.8; 31.0; 57.9 (Each) / 49.6 (Mixed)"	"11.2; 4.8; 10.0 (Each) / 6.9 (Mixed)"									"n=3 pooled"	2018/05/11	2019/08/08
PRA000068	SAA003944	ST023				Hokkaido_sed3-123_2015	Sediment	"Marine sediment"	2015	9	17	"2015-09-17T11:10; T10:50; T11:00"			Fair	Asia	Japan	"Tomakomai Port, Hokkaido"	42.63138889		141.6288889														"23.5; 23.5; 22.9"											"20.0; 18.0; 20.0"	"13.7; 14.0; 14.6"		Black		"Hydrogen sulfide odor_Strong"		"51.6; 61.9; 48.9 (Each) / 48.8 (Mixed)"	"6.6; 9.2; 6.4 (Each) / 4.8 (Mixed)"									"n=3 pooled"	2018/5/11	2019/8/8
PRA000068	SAA003945	ST024				Iwate_sed1-123_2015	Sediment	"River sediment"	2015	10	14	"2015-10-14T10:12; T11:30; T11:30"			Cloudy	Asia	Japan	"Riv. Toyosawa (Hanamaki City), Iwate"	39.38166667		141.1191667														"11.1; 12.7; 12.7"	"13.3; 13.2; 13.2"										"14.2; 12.6; 12.6"	"0.2; 0.2; 0.2"	Sandy	Brown_light		Odorless	"Vegetative pieces"	"21.5; 20.8; 23.0 (Each) / 16.7 (Mixed)"	"1.4; 1.3; 1.5 (Each) / 1.5 (Mixed)"									"n=3 pooled: SAA003848, SAA003849 and SAA003850"	2018/05/11	2019/08/08
PRA000068	SAA003946	ST023				Miyagi_sed1_123_2015	Sediment	"Marine sediment"	2015	10	19	"2015-10-19T10:10; T10:40; T11:00"			Fair	Asia	Japan	"Sendai Bay (Matsushima Bay), Miyagi"	38.35333333		141.0975														"19.3; 19.4; 19.7"	"17.2; 16.8; 16.9"								"2.5; 2.5; 2.5"		"17.1; 16.8; 172"	"5.8; 6.4; 4.7"	Muddy	"Grayish green"		Odorless	"None; None; Shell"	"NA / 70.3 (Mixed)"	"NA / 9.9 (Mixed)"									"n=3 pooled"	2018/5/11	2019/8/8
PRA000068	SAA003947	ST024				Sendai_sed1_123_2015	Sediment	"River sediment"	2015	11	11	"2015-11-11T10:40; 10:10; 10:25"			Fair	Asia	Japan	"Hirose-ohashi Bridge, Riv. Hirose (Sendai City), Miyagi"	38.21333333		140.9088889														"14.8; 14.8; 14.8"	"12.9; 12.9; 12.9"										"13.0; 14.0; 13.0"	"0.2; 0.3; 0.4"	Sandy	Brown_light		"Swampy odor_Faint"	None	"12.8; 13.8; 13.0 (Each) / 12.2 (Mixed)"	"1.4; 1.6; 1.2 (Each) / 0.7 (Mixed)"									"n=3 pooled"	2018/05/11	2019/08/08
PRA000068	SAA003948	ST024				Akita_sed2-123_2015	Sediment	"Lake sediment"	2015	10	16	"2015-10-16T10:29; T10:18; T10:50"			Fair	Asia	Japan	"Lake Hachiro, Akita"	39.92277778		139.9988889														"22.8; 17.2; 19.2"	"14.6; 14.3; 14.4"								"0.5; 0.5; 0.6"		"14.7; 14.5; 14.7"	"8.4; 7.9; 3.4"	Muddy	"Grayish black_light"		"Hydrogen sulfide odor_Faint"	None	"81.0; 59.1; 80.3 (Each) / 10.9; 43; 11.2 (Mixed)"	"10.9; 4.3; 11.2 (Each) / 5.5 (Mixed)"									"n=3 pooled"	2018/5/11	2019/8/8
PRA000068	SAA003949	ST024				Yamagata_sed1-123_2015	Sediment	"River sediment"	2015	11	19	"2015-11-19T09:50; T09:50; T09:50"			Cloudy	Asia	Japan	"Mouth of Riv. Mogami (Sakata City), Yamagata"	38.88722222		139.8433333														"11.6; 11.6; 11.6"	"14.0; 14.0; 14.0"										"12.2; 12.2; 12.2"	"0.3; 0.3; 0.3"	Muddy	"Grayish black"		"Swampy odor_Faint"	"Leaf; Tree branch"	"34.6; 34.6; 34.6 (Each) / 36.6 (Mixed)"	"4.2; 4.2; 4.2 (Each) / 3.1 (Mixed)"									"n=3 pooled"	2018/05/11	2019/08/08
PRA000068	SAA003950	ST023				Fukushima_sed1-123_2015	Sediment	"Marine sediment"	2015	11	12	"2015-11-12T10:15; T10:55; T11:10"			Fair	Asia	Japan	"Onahama Port, Fukushima"	36.92472222		140.8752778														"13.7; 14.5; 13.5"	"16.7; 16.0; 17.3"								"2.0; 2.0; 2.9"		"15.7; 16.5; 16.2"	"11.7; 12.8; 12.7"	Muddy	"Grayish green"		"Seaweed odor"	None	"46.5; 52.5; 52.5 (Each) / 55.8 (Mixed)"	"8.0; 10.8; 10.9 (Each) / 7.8 (Mixed)"									"n=3 pooled"	2018/5/11	2019/8/8
PRA000068	SAA003951	ST024				Ibaraki_sed1-123_2015	Sediment	"River sediment"	2015	11	17	"2015-11-17T10:30; T10;48; T11:20"			Fair	Asia	Japan	"Kamome-ohashi Bridge, Mouth of Riv. Tone (Kamisu City), Ibaraki"	35.77638889		140.7569444														"22.8; 21.5; 23.0"	"18.0; 17.5; 17.5"								"0.5; 0.8; 0.8"			"1.5; 5.4; 2.4"	"Sandy mud; Mud; Sand"	Black		"Swampy odor;"	"Reed; None; Shellfish"	"33.0; 47.0; 16.0 (Each) / 34.5 (Mixed)"	"4.0; 7.8; 1.1 (Each) / 2.8 (Mixed)"									"n=3 pooled: SAA003854, SAA003855 and SAA003856"	2018/05/11	2019/08/08
PRA000068	SAA003952	ST024				Tochigi_sed1-123_2015	Sediment	"River sediment"	2015	10	14	"2015-10-14T10:10; T11:20; T11:45"			Fair	Asia	Japan	"Tagawa area-Toshuko Weir (Utsunomiya City), Tochigi"	36.52805556		139.8855556														"18.0; 17.5; 19.0"	"16.0; 16.5; 17.5"										"17.0; 17.0; 17.0"	"0.2; 0.4; 0.2"	Pebbles	Brown		"River weed odor"		"NA / 19.1 (Mixed)"	"NA / 1.0 (Mixed)"									"n=3 pooled"	2018/05/11	2019/08/08
PRA000068	SAA003953	ST023				Chiba_sed1-123_2015	Sediment	"Marine sediment"	2015	10	29	"2015-10-29T09:38; T09:54; T10:08"			Drizzle	Asia	Japan	"Ichihara-Anesaki Coast, Chiba"	35.52166667		140.0283333														"17.4; 17.2; 17.4"	"19.8; 19.8; 20.1"								"4.9; 5.1; 5.2"		"19.1; 19.1; 19.2"	"14.9; 15.8; 16.6"	Silt	"Grayish black; Grayish green"		"Hydrogen sulfide odor_Strong"	"None; Shell; None"	"72.6; 47.1; 75.3 (Each) / 74.7 (Mixed)"	"12.5; 6.8; 13.5 (Each) / 8.2 (Mixed)"									"n=3 pooled: SAA003857, SAA003858 and SAA003859"	2018/5/11	2019/8/8
PRA000068	SAA003954	ST024				ChibaCity_sed1-123_2015	Sediment	"River sediment"	2015	10	22	"2015-10-22T11:10; T11:40; T10:10"			Fair	Asia	Japan	"Mouth of Riv. Hanami (Chiba City), Chiba"	35.63472222		140.04694440														"22.0; 22.0; 20.8"	"21.4; 21.0; 21.5"										"21.0; 21.0; 20.8"	"1.8; 1.8; 1.3"	Muddy	"Grayish black_dark"		"seaweed odor"	"Shellfish; Leaf"	"35.8; 27.5; 28.2 (Each) / 26.9 (Mixed)"	"4.9; 2.3; 2.9 (Each) / 2.2 (Mixed)"									"n=3 pooled"	2018/05/11	2019/08/08
PRA000068	SAA003955	ST024				Tokyo_sed1-123_2015	Sediment	"River sediment"	2015	11	12	"2015-11-12T10:25; T11:10; T11:40"			Fair	Asia	Japan	"Mouth of Riv. Arakawa (Koto Ward), Tokyo"	35.64583333		139.8463889														"15.1; 14.7; 14.8"	"17.8; 18.0; 18.0"								"0.7; 0.8; 0.9"		"18.5; 18.2; 18.2"	"2.8; 2.5; 2.0"	Silt	Black		Odorless	"Hard clam; Shell"	"46.2; 40.8; 51.4 (Each) / 54.3 (Mixed)"	"7.9; 7.2; 9.0 (Each) / 7.3 (Mixed)"									"n=3 pooled: SAA003860, SAA003861 and SAA003862"	2018/05/11	2019/08/08
PRA000068	SAA003956	ST024				Tokyo_sed2-123_2015	Sediment	"River sediment"	2015	11	12	"2015-11-12T12:45; T13:25; T13:45"			Fair	Asia	Japan	"Mouth of Riv. Sumida (Minato Ward), Tokyo"	35.66		139.7705556														"16.0; 15.0; 14.7"	"19.2; 19.6; 19.4"								"2.0; 2.0; 2.0"		"20.0; 19.8; 19.8"	"6.7; 5.1; 3.7"	Silt	Black		"Hydrogen sulfide odor"	"Shell; Vegetative pieces; None"	"64.1; 46.4; 58.0 (Each) / 13.6; 8.6; 11.3 (Mixed)"	"13.6; 8.6; 11.3 (Each) / 10.4 (Mixed)"									"n=3 pooled: SAA003863, SAA003864 and SAA003865"	2018/05/11	2019/08/08
PRA000068	SAA003957	ST023				Yokohama_sed1-123_2015	Sediment	"Marine sediment"	2015	10	22	"2015-10-22T10:50; T09:50; T11:10"			Fair	Asia	Japan	"Yokohama Port, Kanagawa"	35.45555556		139.6636111														"25.0; 21.3; 24.0"	"24.5; 23.4; 21.5"								"1.0; 1.3; 2.8"		"19.0; 19.0; 19.0"	"12.0; 12.0; 11.5"	Sludge	Black		"Hydrogen sulfide odor_Faint"	None	"75.0; 78.0; 65.2 (Each) / 69.3 (Mixed)"	"10.7; 11.6; 7.9 (Each) / 8.5 (Mixed)"									"n=3 pooled: SAA003866, SAA003867 and SAA003868"	2018/5/11	2019/8/8
PRA000068	SAA003958	ST024				KawasakiCity_sed1-123_2015	Sediment	"River sediment"	2015	11	17	"2015-11-17T11:24; T10:48; T11:08"			Fair	Asia	Japan	"Mouth of Riv. Tama (Kawasaki City), Kanagawa"	35.53		139.7836111														"23.2; 24.2; 22.2"	"18.6; 18.4; 18.5"								"3.4; 2.3; 3.1"		"19.1; 19.2; 19.1"	"5.0; 3.1; 2.8"	Mud	"Black; Greenish black; Grayish green"		"Hydrogen sulfide odor_Faint"	"Vegetative pieces; Shellfish; Shell"	"42.9; 32.2; 42.5 (Each) / 49.7 (Mixed)"	"10.4; 6.5; 11.3 (Each) / 7.5 (Mixed)"									"n=3 pooled"	2018/05/11	2019/08/08
PRA000068	SAA003959	ST023				KawasakiCity_sed2-123_2015	Sediment	"Marine sediment"	2015	11	17	"2015-11-17T11:54; T12;19; T12:35"			Fair	Asia	Japan	"Keihin Canal, Kawasaki Port, Kanagawa  (front of Ogimachi)"	35.49527778		139.7277778														"22.4; 22.5; 22.7"	"19.3; 19.2; 19.1"								"7.5; 6.3; 6.0"		"19.2; 19.2; 18.9"	"15.6; 14.7; 14.0"	"Clay; Mud; Sandy mud"	"Grayish green_Dark; Greenish black; Grayish green"		"Odorless; Hydrogen sulfide odor"	"Shellfish; Pebble; vinyl; Vegetative pieces"	"44.1; 65.1; 55.3 (Each) / 64.6 (Mixed)"	"7.2; 13.0; 10.3 (Each) / 7.3 (Mixed)"									"n=3 pooled"	2018/05/11	2019/08/08
PRA000068	SAA003960	ST024				Niigata_sed1-123_2015	Sediment	"River sediment"	2015	10	14	"2015-10-14T10:30; T10:30; T10:15"			Fair	Asia	Japan	"Downstream of Riv. Shinano (Niigata City), Niigata"	37.88305556		139.0155556														"18.5; 18.5; 18.5"	"15.9; 15.9; 15.9"										"16.2; 15.7; 15.5"	"2.4; 4.8; 3.8"	"Muddy; Sandy mud"	"Grayish brown"		"Odorless; Odorless; Earthy odor_Faint"	"Leaf; Tree branch"	"68.6; 34.3; 27.6 (Each) / 32.8 (Mixed)"	"10.1; 2.6; 1.8 (Each) / 3.1 (Mixed)"									"n=3 pooled: SAA003869, SAA003870 and SAA003871"	2018/05/11	2019/08/08
PRA000068	SAA003961	ST024				Toyama_sed1-123_2015	Sediment	"River sediment"	2015	10	21	"2015-10-21T09:26; T10:08; T10:53"			Cloudy	Asia	Japan	"Hagiura-bashi Bridge, Mouth of Riv. Jintsu (Toyama City), Toyama"	36.745		137.2180556														"18.3; 18.3; 18.3"	"16.0; 16.0; 16.0"										"15.6; 16.0; 16.0"	"0.8; 0.4; 1.0"	"Sandy mud; Sandy mud; Sandy"	"Grayish black; Brown; Brown"		"Hydrogen sulfide odor_Faint; Hydrogen sulfide odor_Faint; Odorless"	"Stem; Leaf; Stick; Pebble"	"33.0; 29.0; 18.0 (Each) / 36.7 (Mixed)"	"4.4; 3.0; 1.0 (Each) / 3.7 (Mixed)"									"n=3 pooled"	2018/05/11	2019/08/08
PRA000068	SAA003962	ST024				Ishikawa_sed1-123_2015	Sediment	"River sediment"	2015	11	5	"2015-11-05T10:30; T11:20; T12:15"			Fair	Asia	Japan	"Mouth of Riv. Sai (Kanazawa City), Ishikawa"	36.60027778		136.5888889														"21.0; 21.5; 23.2"	"15.4; 15.5; 16.8"											"3.1; 1.7; 0.5"	"Silt; Sand"	"Grayish green; Grayish green; Backish brown"		"Fish rotten odor_Faint; Fish rotten odor_Faint; Earthy odor_Faint"	"Pebble; Shell"	"32.5; 34.3; 23.5 (Each) / 31.3 (Mixed)"	"4.9; 5.2; 2.3 (Each) / 3.0 (Mixed)"									"n=3 pooled"	2018/05/11	2019/08/08
PRA000068	SAA003963	ST024				Fukui_sed1-123_2015	Sediment	"River sediment"	2015	11	11	"2015-11-11T11:10; T11:10; T11:10"			Fair	Asia	Japan	"Mishima-bashi Bridge, Riv. Shono (Tsuruga City), Fukui"	35.6475		136.0627778														"17.0; 17.0; 17.0"	"19.0; 19.0; 19.0"										"13.0; 13.0; 13.0"	"0.2; 0.2; 0.2"	Sandy	Brown		Odorless	Pebble	"20.1; 20.6; 19.2 (Each) / 20.0 (Mixed)"	"0.9; 0.8; 1.0 (Each) / 0.5 (Mixed)"									"n=3 pooled"	2018/05/11	2019/08/08
PRA000068	SAA003964	ST024				Yamanashi_sed1-123_2015	Sediment	"River sediment"	2015	10	19	"2015-10-19T10:30; T10:00; T09:30"			Fair	Asia	Japan	"Chiaki-bashi Bridge, Riv. Ara (Kofu City), Yamanashi"	35.6475		138.5655556														"20.0; 21.5; 19.5"	"16.2; 17.6; 18.4"										"17.5; 18.0; 18.8"	"0.6; 0.3; 0.3"	"Sand; Pebble; Sand"	Gray		"River weed odor"	"None; Sand; Pebble"	"20.3; 12.6; 18.3 (Each) / 15.5 (Mixed)"	"5.4; 1.0; 1.0 (Each) / 0.7 (Mixed)"									"n=3 pooled"	2018/05/11	2019/08/08
PRA000068	SAA003965	ST024				Nagano_sed1-123_2015	Sediment	"Lake sediment"	2015	11	5	"2015-11-05T10:15; T11:10; T11:55"			Fair	Asia	Japan	"Center of Lake Suwa, Nagano"	36.05		138.0861111														"14.5; 15.9; 18.0"	"13.3; 13.5; 13.6"								"0.9; 1.1; 0.9"		"13.0; 13.0; 13.2"	"6.3; 5.9; 6.0"	Muddy	"Blackish brown_Dark"		"Swampy odor_Faint"	None	"NA / 86.6 (Mixed)"	"NA / 11.6 (Mixed)"									"n=3 pooled: SAA003872, SAA003873 and SAA003874 "	2018/5/11	2019/8/8
PRA000068	SAA003966	ST023				Shizuoka_sed1-123_2015	Sediment	"Marine sediment"	2015	10	1	"2015-10-01T09:40; T10:00; T10:15"			Cloudy	Asia	Japan	"Shimizu Port, Shizuoka"	35.02416667		138.5161111														"20.0; 21.0; 21.0"	"22.7; NA; NA"								"2.5; NA; NA"		"23.1; 23.4; 23.6"	"25.6; 17.7; 16.3"	"Sand; Clay"	"Grayish black_dark"		"Seaweed odor"	Shellfish	"40.4; 30.8; 33.3 (Each) / 31.6 (Mixed)"	"7.1; 5.6; 5.8 (Each) / 3.8 (Mixed)"									"n=3 pooled: SAA003875, SAA003876 and SAA003877"	2018/5/11	2019/8/8
PRA000068	SAA003967	ST024				Shizuoka_sed3-123_2015	Sediment	"River sediment"	2015	10	27	"2015-10-27T13:30; T14:00; T14:30"			Fair	Asia	Japan	"Riv. Tenryu (Iwata City), Shizuoka"	34.67916667		137.7961111														"27.8; 25.9; 25.4"	"19.1; NA; NA"										"18.0; 20.0; 18.8"	"0.3; 0.2; 0.4"	"Clay & Sand; Sand; Sand"	"Grayish black"		Odorless	"Pebble; Humic substance"	"26.3; 18.2; 24.9 (Each) / 19.9 (Mixed)"	"2.5; 1.0; 2.2 (Each) / 1.5 (Mixed)"									"n=3 pooled"	2018/05/11	2019/08/16
PRA000068	SAA003968	ST023				Aichi_sed2-123_2015	Sediment	"Marine sediment"	2015	10	27	"2015-10-27T10:00; T10:05; T10:10"			Cloudy	Asia	Japan	"Kinuura Port, Aichi"	34.84166667		136.9486111														"19.5; 19.5; 19.5"	"21.9; 21.9; 21.9"								"3.0; 3.0; 3.0"		"21.0; 21.0; 21.0"	"13.5; 13.5; 13.5"	Muddy	"Grayish black"		"Hydrogen sulfide odor"	None	"56.4; 56.7; 57.9 (Each) / 65.1 (Mixed)"	"9.9; 10.1; 10.2 (Each) / 8.8 (Mixed)"									"n=3 pooled"	2018/5/11	2019/8/16
PRA000068	SAA003969	ST023				Aichi_sed2-123_2015	Sediment	"Marine sediment"	2015	10	27	"2015-10-27T12:02; T12:07; T12:12"			Cloudy	Asia	Japan	"Nagoya Port, Aichi"	35.07111111		136.8691667														"21.8; 21.8; 21.8"	"22.3; 22.3; 22.3"								"2.5; 2.5; 2.5"		"22.0; 22.0; 22.0"	"15.0; 15.0; 15.0"	Muddy	"Grayish black"		"Hydrogen sulfide odor"	None	"42.6; 42.7; 42.9 (Each) / 57.8 (Mixed0"	"6.9; 7.0; 6.9 (Each) / 6.1 (Mixed)"									"n=3 pooled"	2018/5/11	2019/8/16
PRA000068	SAA003970	ST023				Mie_sed1-123_2015	Sediment	"Marine sediment"	2015	10	21	"2015-10-21T10:30; T10:50; T11:10"			Fair	Asia	Japan	"Yokkaichi Port, Mie"	34.94944444		136.6530556														"26.0; 23.0; 24.1"	"20.8; 20.8; 20.8"								"2.0; 2.0; 2.0"		"22.0; 22.0; 22.0"	"12.8; 11.2; 7.4"	Muddy	"Grayish black"		"Hydrogen sulfide odor_Faint"	None	"59.0; 56.0; 47.0 (Each) / 61.7 (Mixed)"	"10.0; 9.8; 7.7 (Each) / 6.8 (Mixed)"									"n=3 pooled: SAA003884, SAA003885 and SAA003886"	2018/5/11	2019/8/16
PRA000068	SAA003971	ST023				Mie_sed2-123_2015	Sediment	"Marine sediment"	2015	10	27	"2015-10-27T10:30; T10:50; T11:30"			Fair	Asia	Japan	"Toba Port, Mie"	34.48083333		136.8486111														"21.0; 21.5; 22.0"	"19.2; 20.0; 20.0"								"3.5; 2.8; 3.5"		"20.0; 20.0; 20.0"	"7.0; 6.0; 5.3"	"Muddy; Sandy mud; Sandy mud"	"Yellowish brown"		"Smell of the sea"	"None; Shell; Shell"	"53.0; 37.0; 36.0 (Each) / 48.0 (Mixed)"	"16.0; 8.1; 7.7 (Each) / 8.9 (Mixed)"									"n=3 pooled"	2018/5/11	2019/8/16
PRA000068	SAA003972	ST024				Shiga_sed1-123_2015	Sediment	"Lake sediment"	2015	10	20	"2015-10-20T09:45; T10:00; T10:10"			Fair	Asia	Japan	"Lake Biwa (center, offshore of Minamihira), Shiga"	35.18527778		135.9733333														"20.7; 20.7; 20.8"	"19.9; 20.3; 19.8"								"5.8; 5.9; 4.1"		"8.5; 9.1; 9.0"	"58.6; 52.2; 49.0"	Muddy	"Grayish black"		"Swampy odor"	None	"72.5; 70.5; 69.6 (Each) / 80.5 (Mixed)"	"10.7; 10.5; 10.5 (Each) / 9.8 (Mixed)"									"n=3 pooled: SAA003887, SAA003888 and SAA003889"	2018/05/11	2019/08/16
PRA000068	SAA003973	ST024				Shiga_sed2-123_2015	Sediment	"Lake sediment"	2015	10	20	"2015-10-20T11:00; T11:10; T11:40"			Fair	Asia	Japan	"Lake Biwa (center, offshore of Karasaki), Shiga"	35.04611111		135.8955556														"19.7; 23.6; 24.0"	"20.0; 20.5; 19.6"								"2.7; 3.0; 2.7"		"20.4; 20.9; 20.6"	"2.7; 3.0; 2.7"	Muddy	"Grayish black"		"Swampy odor"	waterweed	"67.3; 70.3; 64.6 (Each) / 76.7 (Mixed)"	"10.3; 11.1; 9.8 (Each) / 9.7 (Mixed)"									"n=3 pooled"	2018/5/11	2019/8/16
PRA000068	SAA003974	ST023				Kyoto_sed1-123_2015	Sediment	"Marine sediment"	2015	10	23	"2015-10-23T09:52; T10:13; T10:43"			Fair	Asia	Japan	"Miyazu Port, Kyoto"	35.58305556		135.2138889														"19.5; 18.6; 20.7"	"20.9; 20.9; 20.7"								"9.0; 10.0; 9.0"		"20.0; 20.5; 20.0"	"12.0; 22.6; 22.2"	Muddy	"Grayish black"		"Seaweed odor"	None	"25.6; 52.8; 56.3 (Each) / 2.5; 9.0; 9.3 (Mixed)"	"2.5; 9.0; 9.3 (Each) / 4.8 (Mixed)"									"n=3 pooled: SAA003890, SAA003891 and SAA003892"	2018/5/11	2019/8/16
PRA000068	SAA003975	ST024				KyotoCity_sed1-123_2015	Sediment	"River sediment"	2015	11	30	"2015-11-30T10:20; T10:40; T11:00"			Fair	Asia	Japan	"Miyamae-bashi Bridge, Riv. Katsura (Kyoto City), Kyoto"	34.905		135.7125														"11.0; 11.0; 11.0"	"9.0; 9.0; 9.0"										"9.5; 9.0; 10.0"	"0.7; 0.7; 0.6"	Sandy	"Grayish brown"		Odorless	None	"18.2; 14.4; 17.6 (Each) / 16.4 (Mixed)"	"0.9; 1.0; 1.0 (Each) / 0.8 (Mixed)"									"n=3 pooled"	2018/05/11	2019/08/16
PRA000068	SAA003976	ST024				Osaka_sed1-123_2015	Sediment	"River sediment"	2015	11	19	"2015-11-19T08:58; T09:35; T10:25"			Cloudy	Asia	Japan	"Mouth of Riv. Yamato (Sakai City), Osaka"	34.60833333		135.4325														"17.3; 17.3; 17.4"	"17.2; 17.1; 17.9"								"0.7; 0.7; 0.7"		"20.5; 20.1; 20.7"	"3.7; 3.3; 3.5"	Mud	Black		"Hydrogen sulfide odor_Strong"	"Vegetative pieces"	"74.9; 76.4; 63.7 (Each) / 69.8 (Mixed)"	"14.6; 15.1; 9.6 (Each) / 11.9 (Mixed)"									"n=3 pooled: SAA003893, SAA003894 and SAA003895"	2018/05/11	2019/08/16
PRA000068	SAA003977	ST024				OsakaCity_sed2-123_2015	Sediment	"River sediment"	2015	10	28	"2015-10-28T09:30; T10:26; T09:55"			Fair	Asia	Japan	"Kema-bashi Bridge, Riv. Oh (Osaka City), Osaka"	34.717760		135.519610														"21.4; 22.0; 22.0"	"18.7; 18.7; 19.0"										"18.9; 19.0; 18.9"	"2.7; 2.3; 3.8"	"Sludge (Clay)"	"Grayish brown"		"Sewage odor_Faint; Sewage odor; Sewage odor_Faint"	"Pond snail; Pond snail & Bivalves; Bivalves"	"43.8; 47.5; 44.6 (Each) / 57.2 (Mixed)"	"7.7; 9.0; 8.5 (Each) / 8.4 (Mixed)"									"n=3 pooled"	2018/05/11	2019/08/16
PRA000068	SAA003978	ST024				OsakaCity_sed3-123_2015	Sediment	"River sediment"	2015	10	27	"2015-10-27T10:15; T10:05; T09:56"			Fair	Asia	Japan	"Mouth of Riv. Yodo, Osaka"	34.67638889		135.3975														"25.0; 26.0; 25.0"	"21.3; 21.0; 21.2"								"2.7; 3.1; 3.0"		"22.0; 22.0; 22.0"	"6.9; 5.6; 4.9"	"Sludge (Clay)"	Black		"Sewage odor; Sewage odor_Faint; Sewage odor_Faint"	"None; Sticks; None"	"37.0; 40.2; 31.2 (Each) / 49.5 (Mixed)"	"7.6; 8.1; 5.6 (Each) / 7.3 (Mixed)"									"n=3 pooled"	2018/5/11	2019/8/16
PRA000068	SAA003979	ST023				OsakaCity_sed1-123_2015	Sediment	"Marine sediment"	2015	10	27	"2015-10-27T09:23; T09:00; T09:30"			Fair	Asia	Japan	"Osaka Port, Osaka"	34.65861111		135.4313889														"23.0; 23.0; 22.1"	"20.1; 20.6; 20.4"								"3.8; 3.3; 3.9"		"21.8; 22.2; 22.0"	"12.2; 13.0; 13.1"	"Sludge (Clay); Sludge (Clay); Sludge"	Black		"Hydrogen sulfide odor_Faint; Hydrogen sulfide odor_Faint; Hydrogen sulfide odor"	None	"38.7; 39.4; 57.5 (Each) / 64.8 (Mixed)"	"6.8; 7.0; 10.7 (Each) / 8.9 (Mixed)"									"n=3 pooled: SAA003896, SAA003897 and SAA003898"	2018/5/11	2019/8/16
PRA000068	SAA003980	ST023				OsakaCity_sed4-123_2015	Sediment	"Marine sediment"	2015	10	27	"2015-10-27T10:52; T10:43; T10:35"			Fair	Asia	Japan	"Outside of Osaka Port, Osaka"	34.64027778		135.3858333														"24.0; 24.7; 25.0"	"21.1; 21.6; 21.6"								"3.5; 3.2; 3.1"		"20.0; 22.0; 22.4"	"17.1; 12.4; 14.0"	"Sludge (Clay)"	"Grayish black"		"Hydrogen sulfide odor_Faint"	"None; Shell; None"	"52.9; 55.1; 33.8 (Each) / 59.6 (Mixed)"	"8.4; 9.9; 4.6 (Each) / 7.1 (Mixed)"									"n=3 pooled"	2018/5/11	2019/8/16
PRA000068	SAA003981	ST023				Hyogo_sed1-123_2015	Sediment	"Marine sediment"	2015	10	22	"2015-10-22T11:35; T11:04; T10:50"			Cloudy	Asia	Japan	"Offshore of Himeji, Hyogo"	34.76194444		134.6697222														"21.3; 21.5; 22.0"	"23.3; 22.9; 23.1"								"3.8; 3.9; 3.2"		"23.0; 23.5; 23.0"	"9.2; 9.6; 10.7"	Silt	"Grayish green"		"Muddy odor"	None	"NA / 69.2 (Mixed)"	"NA / 9.1 (Mixed)"									"n=3 pooled"	2018/5/11	2019/8/16
PRA000068	SAA003982	ST023				Hyogo_sed2-123_2015	Sediment	"Marine sediment"	2015	11	20	"2015-11-20T09:46; T10:24; T10:43"			Fair	Asia	Japan	"Center of Kobe Port, Hyogo"	34.66444444		135.1944444														"17.0; 16.0; 17.5"	"18.5; 18.5; 18.1"								"7.5; 7.5; 7.5"		"20.0; 19.8; 20.0"	"10.7; 10.4; 13.3"	Silt	"Grayish black"		"Hydrogen sulfide odor_Faint"	None	"48.0; 37.0; 51.0 (Each) / 62.9 (Mixed)"	"9.1; 7.4; 9.0 (Each) / 7.9 (Mixed)"									"n=3 pooled"	2018/5/11	2019/8/16
PRA000068	SAA003983	ST024				Nara_sed1_123_2015	Sediment	"River sediment"	2015	10	19	"2015-10-19T10:30; T10:35; T10:40"			Fair	Asia	Japan	"Taisho-bashi Bridge, Riv. Yamato (Oji town), Nara"	34.58583333		135.6833333														"23.5; 23.5; 23.5"	"20.5; 21.0; 20.5"										"20.0; 21.2; 20.8"	"0.2; 0.1; 0.1"	"Muddy; Sandy; Sandy"	"Blackish brown; Brown; Brown"		"Sewage odor"	None	"24.0; 20.0; 22.0 (Each) / 21.9 (Mixed)"	"1.2; 0.5; 0.6 (Each) / 0.7 (Mixed)"									"n=3 pooled"	2018/05/11	2019/08/16
PRA000068	SAA003984	ST024				Wakayama_sed1-123_2015	Sediment	"River sediment"	2015	11	16	"2015-11-16T13:00; T12:40; T13:10"			Fair	Asia	Japan	"Kinokawa-ohashi Bridge, Mouth of Riv. Kinokawa (Wakayama City), Wakayama"	34.23		135.1561111														"24.3; 23.4; 24.1"	"24.5; 20.8; 20.8"								"1.2; 1.2; 1.2"		"21.3; 23.4; 21.0"	"3.0; 3.2; 3.7"	"Sandy; Sandy; Muddy"	"Gray; Gray; Grayish black"		"Seaweed odor_Faint; Seaweed odor_Faint; Odorless"	"Shellfish; None; None"	"19.7; 21.1; 26.6 (Each) / 25.0 (Mixed)"	"1.9; 2.3; 3.9 (Each) / 2.3 (Mixed)"									"n=3 pooled: SAA003899, SAA003900 and SAA003901"	2018/5/11	2019/8/16
PRA000068	SAA003985	ST023				Okayama_sed1-123_2015	Sediment	"Marine sediment"	2015	11	4	"2015-11-04T11:07; T10:50; T11:32"			Fair	Asia	Japan	"Offshore of Mizushima, Okayama"	34.48055556		133.665														"18.5; 17.0; 18.2"	"20.0; 19.5; 20.0"								"3.0; 3.0; 3.0"		"19.5; 19.8; 19.5"	"8.8; 9.3; 8.1"	"Soft mud"	"Grayish green"		"Earthy odor"	"Small pieces of shell"	"46.9; 48.3; 49.9 (Each) / 47.4 (Mixed)"	"6.2; 6.7; 7.4 (Each) / 5.3 (Mixed)"									"n=3 pooled: SAA003902, SAA003903 and SAA003904"	2018/5/11	2019/8/16
PRA000068	SAA003986	ST023				Hiroshima_sed1-123_2015	Sediment	"Marine sediment"	2015	11	4	"2015-11-04T09:51; T10:20; T10:35"			Fair	Asia	Japan	"Kure Port, Hiroshima"	34.23361111		132.5391667														"17.5; 18.0; 18.5"	"20.2; 20.5; 20.5"								"7.0; 7.5; 7.5"		"20.3; 20.8; 20.2"	"18.0; 18.0; 16.0"	Silt	"Grayish green"		"Hydrogen sulfide odor_Faint; Hydrogen sulfide odor; Hydrogen sulfide odor"	None	"61.3; 55.9; 57.9 (Each) / 70.4 (Mixed)"	"11.4; 11.0; 11.7 (Each) / 9.3 (Mixed)"									"n=3 pooled"	2018/5/11	2019/8/16
PRA000068	SAA003987	ST023				Hiroshima_sed2-123_2015	Sediment	"Marine sediment"	2015	11	4	"2015-11-04T11:26; T11:46; T11:55"			Fair	Asia	Japan	"Hiroshima Bay (Hiroshima City), Hiroshima"	34.34833333		132.4225														"18.7; 22.0; 20.6"	"20.2; 20.3; 20.6"								"6.0; 3.5; 4.0"		"20.9; 21.0; 21.0"	"11.0; 11.0; 13.0"	Silt	"Grayish green"		"Odorless; Odorless; Hydrogen sulfide odor"	None	"56.8; 55.7; 54.7 (Each) / 69.5 (Mixed)"	"11.7; 10.8; 11.2 (Each) / 9.4 (Mixed)"									"n=3 pooled"	2018/05/11	2019/08/16
PRA000068	SAA003988	ST023				Yamaguchi_sed1-123_2015	Sediment	"Marine sediment"	2015	10	7	"2015-10-07T10:41; T10:46; T10:51"			Fair	Asia	Japan	"Tokuyama Bay, Yamaguchi"	33.99361111		131.7505556														"23.0; 23.0; 23.0"	"23.2; 23.2; 23.2"								"4.5; 4.5; 4.5"			"26.2; 29.2; 29.3"		Gray		"Hydrogen sulfide odor_Faint"	None	"55.5; 56.2; 56.4 (Each) / 66.3 (Mixed)"	"10.3; 10.3; 10.4 (Each) / 8.3 (Mixed)"									"n=3 pooled: SAA003905, SAA003906 and SAA003907"	2018/5/11	2019/8/16
PRA000068	SAA003989	ST023				Yamaguchi_sed2-123_2015	Sediment	"Marine sediment"	2015	11	16	"2015-11-16T12:50; T12:55; T13:00"			Fair	Asia	Japan	"Offshore of Ube, Yamaguchi"	33.915		131.1975														"19.4; 19.4; 19.4"	"18.9; 18.9; 18.9"								"3.0; 3.0; 3.0"			"8.5; 8.5; 8.5"		Gray		Odorless	None	"32.8; 32.5; 32.0 (Each) / 37.5 (Mixed)"	"6.0; 6.0; 5.7 (Each) / 3.7 (Mixed)"									"n=3 pooled"	2018/5/11	2019/8/16
PRA000068	SAA003990	ST023				Yamaguchi_sed3-123_2015	Sediment	"Marine sediment"	2015	10	22	"2015-10-22T10:30; T10:35; T10:40"			Cloudy	Asia	Japan	"Offshore of Hagi, Yamaguchi"	34.43805556		131.3794444														"21.0; 21.0; 21.0"	"21.5; 21.5; 21.5"								"13.0; 13.0; 13.0"			"33.0; 33.0; 33.0"		Gray_light		Odorless	None	"28.9; 30.0; 30.8 (Each) / 28.8 (Mixed)"	"5.9; 6.3; 6.3 (Each) / 3.7 (Mixed)"									"n=3 pooled"	2018/5/11	2019/8/16
PRA000068	SAA003991	ST024				Tokushima_sed1-123_2015	Sediment	"River sediment"	2015	10	27	"2015-10-27T09:29; T09:48; T10:20"			Fair	Asia	Japan	"Mouth of Riv. Yoshino (Tokushima City), Tokushima"	34.085		134.5913889														"20.7; 21.4; 22.7"	"19.8; 20.0; 19.7"								"2.5; 2.5; 2.0"		"20.1; 20.8; 20.5"	"6.0; 6.3; 3.0"	"Sandy; Sandy & Clay; Sandy"	"Grayish black"		Odorless	None	"23.0; 26.0; 21.0 (Each) / 21.9 (Mixed)"	"1.5; 2.7; 1.3 (Each) / 1.6 (Mixed)"									"n=3 pooled"	2018/05/11	2019/08/16
PRA000068	SAA003992	ST023				Kagawa_sed1-123_2015	Sediment	"Marine sediment"	2015	10	13	"2015-10-13T09:05; T09:20; T09:45"			Fair	Asia	Japan	"Takamatsu Port, Kagawa"	34.34972222		134.0788889														"21.7; 20.7; 21.2"	"22.7; 22.7; 22.7"								"2.0; 2.8; 2.9"		"23.1; 22.4; 22.7"	"2.4; 5.0; 5.1"	"Muddy; Sandy mud; Muddy"	Black		"Hydrogen sulfide odor & Turpentine-like odor_Faint"	"Bentos; Shell"	"48.6; 25.9; 48.9 (Each) / 39.8 (Mixed)"	"11.4; 2.8; 9.8 (Each) / 6.6 (Mixed)"									"n=3 pooled: SAA003908, SAA003909 and SAA003910"	2018/5/11	2019/8/16
PRA000068	SAA003993	ST023				Ehime_sed1-123_2015	Sediment	"Marine sediment"	2015	10	30	"2015-10-30T09:50; T10:05; T10:20"			Cloudy	Asia	Japan	"Niihama Port, Ehime"	33.98777778		133.3144444														"19.3; 19.8; 19.5"	"20.8; 20.8; 20.9"								"3.5; 3.5; 3.5"		"20.8; 20.7; 20.6"	"11.1; 11.1; 11.0"	Silt	"Grayish green"		Odorless	"Vegetative pieces"	"68.7; 70.1; 70.8 (Each) / 57.7 (Mixed)"	"10.4; 10.7; 11.0 (Each) / 5.3 (Mixed)"									"n=3 pooled"	2018/5/11	2019/8/16
PRA000068	SAA003994	ST024				Kochi_sed1-123_2015	Sediment	"River sediment"	2015	10	14	"2015-10-14T09:00; T09:55; T11:25"			Fair	Asia	Japan	"Mouth of Riv. Shimanto (Shimanto City), Kochi"	32.93777778		132.8441667														"17.0; 21.2; 23.1"	"17.3; NA; NA"								"4.0; NA; NA"		"24.5; 26.0; 26.0"	"6.9; 5.5; 0.5"	Muddy	"Grayish black"		"Swampy odor"	None	"9.4; 33.2; 21.0 (Each) / 39.6 (Mixed)"	"15.1; 6.6; 3.3 (Each) / 4.9 (Mixed)"									"n=3 pooled"	2018/05/11	2019/08/16
PRA000068	SAA003995	ST023				KitakyushuCity_sed1-123_2015	Sediment	"Marine sediment"	2015	10	20	"2015-10-20T10:05; T09:50; T09:40"			Fair	Asia	Japan	"Dokai Bay (Kitakyushu City), Fukuoka"	33.90388889		130.8158333														"22.2; 22.2; 22.2"	"21.4; 21.4; 21.4"								"3.5; 3.5; 3.5"			"9.6; 11.1; 7.8"	Muddy	"Blackish brown"		Odorless	None	"NA / 50.1 (Mixed)"	"NA / 9.3 (Mixed)"									"n=3 pooled"	2018/05/11	2019/08/16
PRA000068	SAA003996	ST023				FukuokaCity_sed1-123_2015	Sediment	"Marine sediment"	2015	11	30	"2015-11-30T08:53; T09:29; T09:44"			Fair	Asia	Japan	"Hakata Bay, Fukuoka"	33.60833333		130.3297222														"13.5; 14.5; 14.5"	"14.5; 15.0; 15.5"								"2.0; 2.5; 2.5"		"16.5; 16.5; 16.0"	"8.2; 7.7; 8.0"	Silt	"Gray_dark; Grayish yellow green_dark; Grayish yellow green_dark"		Odorless	None	"45.0; 41.0; 43.0 (Each) / 53.4 (Mixed)"	"9.2; 8.6; 8.9 (Each) / 8.4 (Mixed)"									"n=3 pooled: SAA003911, SAA003912 and SAA003913"	2018/5/11	2019/8/16
PRA000068	SAA003997	ST023				Saga_sed1-123_2015	Sediment	"Marine sediment"	2015	10	29	"2015-10-29T10:50; T11:16; T11:47"			Fair	Asia	Japan	"Imari Bay, Saga"	33.34		129.8208333														"20.0; 18.0; 19.5"	"20.5; 20.5; 20.5"								"2.7; 2.5; 2.8"		"21.0; 21.0; 20.5"	"15.2; 15.3; 15.5"	Muddy	"Grayish black"		Odorless	None	"59.8; 60.8; 59.9 (Each) / 64.3 (Mixed)"	"21.1; 18.5; 20.3 (Each) / 8.8 (Mixed)"									"n=3 pooled: SAA003914, SAA003915 and SAA003916"	2018/5/11	2019/8/16
PRA000068	SAA003998	ST023				Nagasaki_sed1-123_2015	Sediment	"Marine sediment"	2015	12	2	"2015-12-02T09:31; T09:45; T10:03"			Cloudy	Asia	Japan	"Omura Bay, Nagasaki"	32.98833333		129.8522222														"14.5; 14.5; 14.8"	"18.1; NA; NA"								"5.2; NA; NA"		"17.8; 18.0; 18.2"	"19.2; 19.1; 19.3"	Silt	"Grayish brown"		Odorless	Shell	"57.0; 58.8; 59.1 (Each) / 67.1 (Mixed)"	"12.9; 12.6; 12.7 (Each) / 12.4 (Mixed)"									"n=3 pooled"	2018/5/11	2019/8/16
PRA000068	SAA003999	ST024				Oita_sed1-123_2015	Sediment	"River sediment"	2015	12	8	"2015-12-08T12:27; T11:42; T10:48"			Fair	Asia	Japan	"Mouth of Riv. Oita, Oita"	33.25722222		131.6175														"15.1; 18.0; 14.7"	"15.5; 15.3; 13.4"											"2.9; 3.0; 2.3"	"Sandy; Sandy; Muddy"	"Blackish brown_light; Brown_dark; Blackish brown_dark"		"Odorless; Odorless; Hydrogen sulfide odor"	"Shell; Shell & Stones; Sticks & Shell"	"13.8; 14.8; 33.6 (Each) / 26.1 (Mixed)"	"1.4; 1.6; 5.1 (Each) / 2.0 (Mixed)"									"n=3 pooled: SAA003917, SAA003918 and SAA003919"	2018/5/11	2019/8/16
PRA000068	SAA004000	ST024				Miyazaki_sed1-123_2015	Sediment	"River sediment"	2015	10	14	"2015-10-14T12:25; T12:07; T12:18"			Fair	Asia	Japan	"Mouth of Riv. Oyodo (Miyazaki City), Miyazaki"	31.89611111		131.4402778														"24.5; 24.5; 24.5"	"21.6; 21.6; 21.6"										"21.6; 21.6; 21.6"	"0.5; 0.5; 0.5"	"Pebbles & Sand"	"Grayish black_light"		Odorless	None	"20.1; 21.1; 20.7 (Each) / 20.0 (Mixed)"	"1.4; 1.7; 1.5 (Each) / 1.1 (Mixed)"									"n=3 pooled"	2018/05/11	2019/08/16
PRA000068	SAA004001	ST024				Kagoshima_sed1-123_2015	Sediment	"River sediment"	2015	11	10	"2015-11-10T11:50; T11:08; T10:30"			Fair	Asia	Japan	"Riv. Amori (Kirishima City), Kagoshima"	31.7225		130.7416667														"20.4; 19.4; 19.4"	"18.5; 18.3; 18.4"										"18.7; 19.1; 18.8"	"0.1; 0.1; 0.1"	Gravelly	"Blackish brown"		Odorless	Pebble	"18.1; 18.3; 22.4 (Each) / 17.4 (Mixed)"	"1.2; 0.7; 1.1 (Each) / 0.8 (Mixed)"									"n=3 pooled"	2018/05/11	2019/08/16
PRA000068	SAA004002	ST024				Kagoshima_sed2-123_2015	Sediment	"River sediment"	2015	11	12	"2015-11-12T11:40; T11:00; T10:15"			Cloudy	Asia	Japan	"Gotanda-bashi Bridge, Riv. Gotanda (Ichikikushikino City), Kagoshima"	31.72583333		130.2769444														"22.1; 20.8; 21.3"	"18.1; 17.7; 17.4"										"18.0; 17.8; 17.7"	"0.1; 0.1; 0.1"	Gravelly	"Blackish brown"		Odorless	Pebble	"22.6; 24.7; 19.0 (Each) / 20.8 (Mixed)"	"1.5; 1.7; 1.9 (Each) / 1.3 (Mixed)"									"n=3 pooled"	2018/05/11	2019/08/16
PRA000068	SAA004003	ST023				Okinawa_sed1-123_2015	Sediment	"Marine sediment"	2015	10	29	"2015-10-29T09:50; T11:00; T10:30"			Fair	Asia	Japan	"Naha Port, Okinawa"	26.21222222		127.665														"24.8; 25.2; 24.8"	"25.8; 26.6; 26.0"								"1.7; 2.6; 3.3"			"8.8; 9.9; 7.1"	Sludge	"Grayish black"		"Hydrogen sulfide odor & Sewage odor"	"Pebble; Vegetative pieces; Pieces of plastic"	"41.8; 48.1; 37.3 (Each) / 46.6 (Mixed)"	"13.5; 18.5; 13.6 (Each) / 10.6 (Mixed)"									"n=3 pooled"	2018/5/11	2019/8/16
PRA000072	SAA004022	ST023				Y-1	Sediment	"Marine sediment"	1982	12	13					"Pacific Ocean"		"Yellow Sea"	35.59		123.085																						"50 - 100"				"About 0.02 - 0.07"																"Reductive layers of shelf sediment; Princpally originated from the land soil of the nearby continent"	2018/6/28	2019/8/16
PRA000072	SAA004023	ST023				Y-2	Sediment	"Marine sediment"	1982	12	14					"Pacific Ocean"		"Yellow Sea"	36.165		123.655																						"50 - 100"				"About 0.02 - 0.07"																"Reductive layers of shelf sediment; Princpally originated from the land soil of the nearby continent"	2018/6/28	2019/8/16
PRA000072	SAA004024	ST023				E-1	Sediment	"Marine sediment"	1982	12	20					"Pacific Ocean"		"East China Sea"	32.35833333		126.395																						"100 - 200"				"About 0.02 - 0.07"																"Reductive layers of shelf sediment; Princpally originated from the land soil of the nearby continent"	2018/6/28	2019/8/16
PRA000072	SAA004025	ST023				E-2	Sediment	"Marine sediment"	1982	12	21					"Pacific Ocean"		"East China Sea"	32.23333333		126.8766667																						"100 - 200"				"About 0.02 - 0.07"																"Reductive layers of shelf sediment; Princpally originated from the land soil of the nearby continent"	2018/6/28	2019/8/16
PRA000072	SAA004026	ST023				P-1a	Sediment	"Sediment core"	1978	2	7					"Pacific Ocean"		"Philippine Sea"	18.18333333		132.4166667																						6060				"0.3 - 0.6"																"Near Parece Vela (Okinotorishima); pelagic sediment; a group of 'red cray' which is polygenic and mainly consists of clay mineral carried from continents by the wind"	2018/6/28	2019/8/16
PRA000072	SAA004027	ST023				P-1b	Sediment	"Sediment core"	1978	2	7					"Pacific Ocean "		"Philippine Sea"	18.18333333		132.4166667																						6060				"1.5 - 1.8"																"Near Parece Vela (Okinotorishima); pelagic sediment; a group of 'red cray' which is polygenic and mainly consists of clay mineral carried from continents by the wind"	2018/6/28	2019/8/16
PRA000072	SAA004028	ST023				P-1c	Sediment	"Sediment core"	1978	2	7					"Pacific Ocean "		"Philippine Sea"	18.18333333		132.4166667																						6060				"2.5 - 2.8"																"Near Parece Vela (Okinotorishima); pelagic sediment; a group of 'red cray' which is polygenic and mainly consists of clay mineral carried from continents by the wind"	2018/6/28	2019/8/16
PRA000072	SAA004029	ST023				P-1d	Sediment	"Sediment core"	1978	2	7					"Pacific Ocean "		"Philippine Sea"	18.18333333		132.4166667																						6060				"4.5 - 4.8"																"Near Parece Vela (Okinotorishima); pelagic sediment; a group of 'red cray' which is polygenic and mainly consists of clay mineral carried from continents by the wind"	2018/6/28	2019/8/16
PRA000072	SAA004030	ST023				P-1e	Sediment	"Sediment core"	1978	2	7					"Pacific Ocean "		"Philippine Sea"	18.18333333		132.4166667																						6060				"7.5 - 7.8"																"Near Parece Vela (Okinotorishima); pelagic sediment; a group of 'red cray' which is polygenic and mainly consists of clay mineral carried from continents by the wind"	2018/6/28	2019/8/16
PRA000072	SAA004031	ST023				P-1f	Sediment	"Sediment core"	1978	2	7					"Pacific Ocean "		"Philippine Sea"	18.18333333		132.4166667																						6060				"10.5 - 10.8"																"Near Parece Vela (Okinotorishima); pelagic sediment; a group of 'red cray' which is polygenic and mainly consists of clay mineral carried from continents by the wind"	2018/6/28	2019/8/16
PRA000074	SAA004077	ST024				Iwate_sed1-1_2016	Sediment	"River sediment"	2016	10	12	2016-10-12T10:50			"Cloudy with occasional rain"	Asia	Japan	"Riv. Toyosawa (Hanamaki City), Iwate"	39.38166667		141.1191667														18	14										13	0.2	Sandy	Brown_Light		Odorless	None	21.4/20.0	1.6/NA									"Monitoring: Sediment Moisture(%): 21.4/21.0; Ignition Loss(%):1.6/1.4"	2018/09/07	2018/09/07
PRA000074	SAA004078	ST024				Iwate_sed1-2_2016	Sediment	"River sediment"	2016	10	12	2016-10-12T10:55			Cloudy/Fair	Asia	Japan	"Riv. Toyosawa (Hanamaki City), Iwate"	39.38166667		141.1191667														16	14										13	0.2	Sandy	Brown_Light		Odorless	None	20.1/18.2	1.5/NA									"Monitoring: Sediment Moisture(%): 20.1/21.0; Ignition Loss(%):1.5/1.4"	2018/09/07	2018/09/07
PRA000074	SAA004079	ST024				Iwate_sed1-3_2016	Sediment	"River sediment"	2016	10	12	2016-10-12T10:45			Cloudy/Fair	Asia	Japan	"Riv. Toyosawa (Hanamaki City), Iwate"	39.38166667		141.1191667														16	14.2										13	0.2	Sandy	Brown_Light		Odorless	None	21.1/21.4	1.6/NA									"Monitoring: Sediment Moisture(%): 21.1/21.0; Ignition Loss(%):1.6/1.4"	2018/09/07	2018/09/07
PRA000074	SAA004080	ST024				Akita_sed1-1_2016	Sediment	"River sediment"	2016	10	11	2016-10-11T11:46			Fair	Asia	Japan	"Akita Canal (Akita City), Akita"	39.75083333		140.0586111														17	19.6								1.3		21.7	11.7	Pelitic	Black		"Hydrogen sulfide odor_Faint"	None	62.9/63.0	9.7/NA										2018/09/07	2018/09/07
PRA000074	SAA004081	ST024				Akita_sed1-2_2016	Sediment	"River sediment"	2016	10	11	2016-10-11T11:46			Fair	Asia	Japan	"Akita Canal (Akita City), Akita"	39.75083333		140.0586111														17	19.6								1.3		21.7	11.7	Pelitic	Black		"Hydrogen sulfide odor_Faint"	None	62.9/63.0	9.7/NA										2018/09/07	2018/09/07
PRA000074	SAA004082	ST024				Akita_sed1-3_2016	Sediment	"River sediment"	2016	10	11	2016-10-11T11:46			Fair	Asia	Japan	"Akita Canal (Akita City), Akita"	39.75083333		140.0586111														17	19.6								1.3		21.7	11.7	Pelitic	Black		"Hydrogen sulfide odor_Faint"	None	62.9/63.0	9.7/NA										2018/09/07	2018/09/07
PRA000074	SAA004083	ST024				Tokyo_sed1-1_2016	Sediment	"River sediment"	2016	11	1	2016-11-01T09:55			Rain	Asia	Japan	"Mouth of Riv. Arakawa (Koto Ward), Tokyo"	35.64583333		139.8463889														12.2	18.2								0.8		19.4	3.6	Silt	"Blackish brown"		Odorless	Shelfish	47.2/53.5	9.0/NA									"Monitoring: Sediment Moisture(%): 47.2/56.4; Ignition Loss(%):9.0/8.3"	2018/09/07	2018/09/07
PRA000074	SAA004084	ST024				Tokyo_sed1-2_2016	Sediment	"River sediment"	2016	11	1	2016-11-01T10:50			Cloudy	Asia	Japan	"Mouth of Riv. Arakawa (Koto Ward), Tokyo"	35.64583333		139.8463889														13.2	18.2								0.9		19.2	2.7	Silt	"Blackish brown"		Odorless	Shelfish	46.9/55.0	8.8/NA									"Monitoring: Sediment Moisture(%): 46.9/56.4; Ignition Loss(%):8.8/8.3"	2018/09/07	2018/09/07
PRA000074	SAA004085	ST024				Tokyo_sed1-3_2016	Sediment	"River sediment"	2016	11	1	2016-11-01T11:10			Cloudy	Asia	Japan	"Mouth of Riv. Arakawa (Koto Ward), Tokyo"	35.64583333		139.8463889														13.2	18.2								0.8		19.2	2.2	Silt	"Blackish brown"		Odorless	Shell	51.0/59.4	10.0/NA									"Monitoring: Sediment Moisture(%): 51.0/56.4; Ignition Loss(%):10.0/8.3"	2018/09/07	2018/09/07
PRA000074	SAA004086	ST024				Tokyo_sed2-1_2016	Sediment	"River sediment"	2016	11	1	2016-11-01T12:10			Cloudy	Asia	Japan	"Mouth of Riv. Sumida (Minato Ward), Tokyo"	35.66		139.7705556														14.4	19.2								2.2		20.2	4.4	Silt	Black		"Hydrogen sulfide odor_strong"	Shell	43.7/66.9	11.8/NA									"Monitoring: Sediment Moisture(%): 43.7/68.0; Ignition Loss(%):11.8/11.2"	2018/09/07	2018/09/07
PRA000074	SAA004087	ST024				Tokyo_sed2-2_2016	Sediment	"River sediment"	2016	11	1	2016-11-01T12:55			Fair	Asia	Japan	"Mouth of Riv. Sumida (Minato Ward), Tokyo"	35.66		139.7705556														14.4	19.4								2.2		20.6	4.7	Silt	Black		"Hydrogen sulfide odor"	Shell	39.8/67.9	15.2/NA									"Monitoring: Sediment Moisture(%): 39.8/68.0; Ignition Loss(%):15.2/11.2"	2018/09/07	2018/09/07
PRA000074	SAA004088	ST024				Tokyo_sed2-3_2016	Sediment	"River sediment"	2016	11	1	2016-11-01T13:10			Fair	Asia	Japan	"Mouth of Riv. Sumida (Minato Ward), Tokyo"	35.66		139.7705556														15.6	19.4								1.5		20.6	3.5	Silt	Black		"Hydrogen sulfide odor_strong"	Shell	42.9/66.8	11.7/NA									"Monitoring: Sediment Moisture(%): 42.9/68.0; Ignition Loss(%):11.7/11.2"	2018/09/07	2018/09/07
PRA000074	SAA004089	ST023				Yokohama_sed1-1_2016	Sediment	"Marine sediment"	2016	10	13	2016-10-13T13:15			Cloudy	Asia	Japan	"Yokohama Port, Kanagawa"	35.45555556		139.6636111														19	21.5								2.4		22	12.4	Muddy	"Deep brown"		"Hydrogen sulfide odor"	None	60.9/62.4	8.4/NA									"Monitoring: Sediment Moisture(%): 60.9/68.0; Ignition Loss(%):8.4/8.6"	2018/9/7	2018/9/7
PRA000074	SAA004090	ST023				Yokohama_sed1-2_2016	Sediment	"Marine sediment"	2016	10	13	2016-10-13T09:50			Cloudy	Asia	Japan	"Yokohama Port, Kanagawa"	35.45555556		139.6636111														19.5	21								2.3		22	12.7	Muddy	"Deep brown"		"Hydrogen sulfide odor"	None	73.1/66.8	10.8/NA									"Monitoring: Sediment Moisture(%): 73.1/68.0; Ignition Loss(%):10.8/8.6"	2018/9/7	2018/9/7
PRA000074	SAA004091	ST023				Yokohama_sed1-3_2016	Sediment	"Marine sediment"	2016	10	13	2016-10-13T13:45			Cloudy	Asia	Japan	"Yokohama Port, Kanagawa"	35.45555556		139.6636111														19	21								2.2		22.5	12	Muddy	"Deep brown"		"Hydrogen sulfide odor"	None	62.0/60.6	7.8/NA									"Monitoring: Sediment Moisture(%): 62.0/68.0; Ignition Loss(%):7.8/8.6"	2018/9/7	2018/9/7
PRA000074	SAA004092	ST024				KawasakiCity_sed1-1_2016	Sediment	"River sediment"	2016	10	13	2016-10-13T14:40			Cloudy	Asia	Japan	"Mouth of Riv. Tama (Kawasaki City), Kanagawa"	35.53		139.7836111														17.1	20.6								2		23	6.8	Muddy	"Greenish gray"		"Seaweed odor"	"Vegetative pieces, Wood chips, Shell, Worms"	48.9/58.3	12.5/NA									"Monitoring: Sediment Moisture(%): 48.9/62.7; Ignition Loss(%):12.5/10.8"	2018/09/07	2018/09/07
PRA000074	SAA004093	ST024				KawasakiCity_sed1-2_2016	Sediment	"River sediment"	2016	10	13	2016-10-13T13:50			Cloudy	Asia	Japan	"Mouth of Riv. Tama (Kawasaki City), Kanagawa"	35.53		139.7836111														17.5	21.3								1.85		23.4	3.5	Muddy	"Gray black"		"Seaweed odor"	"Vegetative pieces, Wood chips"	51.1/65.1	13.0/NA									"Monitoring: Sediment Moisture(%): 51.1/62.7; Ignition Loss(%):13.0/10.8"	2018/09/07	2018/09/07
PRA000074	SAA004094	ST024				KawasakiCity_sed1-3_2016	Sediment	"River sediment"	2016	10	13	2016-10-13T14:20			Cloudy	Asia	Japan	"Mouth of Riv. Tama (Kawasaki City), Kanagawa"	35.53		139.7836111														17.7	21								1.9		23.4	3.9	Muddy	"Gray black"		"Seaweed odor"	"Vegetative pieces, Wood chips, Shell, Worms"	49.5/66.0	12.3/NA									"Monitoring: Sediment Moisture(%): 49.5/62.7; Ignition Loss(%):12.3/10.8"	2018/09/07	2018/09/07
PRA000074	SAA004095	ST024				Nagano_sed1-1_2016	Sediment	"Lake sediment"	2016	11	2	2016-11-02T10:30			Cloudy	Asia	Japan	"Center of Lake Suwa, Nagano"	36.05		138.0861111														8.6	12								0.8		12	6	Muddy	"Blackish brown_Dark"		"Swampy odor_Faint"	None	NA/86.5	NA/13.1									"Monitoring: Sediment Moisture(%): NA/85.1; Ignition Loss(%):NA/13.9"	2018/9/7	2018/9/7
PRA000074	SAA004096	ST024				Nagano_sed1-2_2016	Sediment	"Lake sediment"	2016	11	2	2016-11-02T11:30			Cloudy	Asia	Japan	"Center of Lake Suwa, Nagano"	36.05		138.0861111														9.4	12.1								0.8		12	6	Muddy	"Blackish brown_Dark"		"Swampy odor_Faint"	None	NA/86.5	NA/13.0									"Monitoring: Sediment Moisture(%): NA/85.1; Ignition Loss(%):NA/13.9"	2018/9/7	2018/9/7
PRA000074	SAA004097	ST024				Nagano_sed1-3_2016	Sediment	"Lake sediment"	2016	11	2	2016-11-02T11:50			Cloudy	Asia	Japan	"Center of Lake Suwa, Nagano"	36.05		138.0861111														9.4	12.4								0.8		12.5	5.9	Muddy	"Blackish brown_Dark"		"Swampy odor_Faint"	None	NA/86.9	NA/12.9									"Monitoring: Sediment Moisture(%): NA/85.1; Ignition Loss(%):NA/13.9"	2018/9/7	2018/9/7
PRA000074	SAA004098	ST023				Aichi_sed1-1_2016	Sediment	"Marine sediment"	2016	10	25	2016-10-25T12:50			Rain	Asia	Japan	"Nagoya Port, West of Shiomi Wharf, Aichi"	35.07111111		136.8691667														13.8	23.7								3		22.5	12.8	Muddy	"Gray black"		"Hydrogen sulfide odor"	None	52.6/69.6	8.3/NA										2018/9/7	2018/9/7
PRA000074	SAA004099	ST023				Aichi_sed1-2_2016	Sediment	"Marine sediment"	2016	10	25	2016-10-25T12:55			Rain	Asia	Japan	"Nagoya Port, West of Shiomi Wharf, Aichi"	35.07111111		136.8691667														13.8	23.7								3		22.5	12.8	Muddy	"Gray black"		"Hydrogen sulfide odor"	None	51.6/66.5	8.3/NA										2018/9/7	2018/9/7
PRA000074	SAA004100	ST023				Aichi_sed1-3_2016	Sediment	"Marine sediment"	2016	10	25	2016-10-25T13:00			Rain	Asia	Japan	"Nagoya Port, West of Shiomi Wharf, Aichi"	35.07111111		136.8691667														13.8	23.7								3		22.5	12.8	Muddy	"Gray black"		"Hydrogen sulfide odor"	None	51.0/69.1	8.1/NA										2018/9/7	2018/9/7
PRA000074	SAA004101	ST024				NagoyaCity_sed1-1_2016	Sediment	"River sediment"	2016	10	24	2016-10-24T13:45			Fair	Asia	Japan	"Minatoshinbashi Bridge, Riv. Hori (Nagoya City), Aichi"	35.09805556		136.8925														21.6	22.1												Sludge	Black		"Earthy odor"	"Shell, Pebble"	NA/35.0											2018/9/7	2018/9/7
PRA000074	SAA004102	ST024				NagoyaCity_sed1-2_2016	Sediment	"River sediment"	2016	10	24	2016-10-24T13:45			Fair	Asia	Japan	"Minatoshinbashi Bridge, Riv. Hori (Nagoya City), Aichi"	35.09805556		136.8925														21.6	22.1												Sludge	Black		"Earthy odor"	"Shell, Pebble"	NA/35.0											2018/9/7	2018/9/7
PRA000074	SAA004103	ST024				NagoyaCity_sed1-3_2016	Sediment	"River sediment"	2016	10	24	2016-10-24T13:45			Fair	Asia	Japan	"Minatoshinbashi Bridge, Riv. Hori (Nagoya City), Aichi"	35.09805556		136.8925														21.6	22.1												Sludge	Black		"Earthy odor"	"Shell, Pebble"	NA/35.0											2018/9/7	2018/9/7
PRA000074	SAA004104	ST023				Mie_sed1-1_2016	Sediment	"Marine sediment"	2016	10	25	2016-10-25T10:00			Cloudy	Asia	Japan	"Yokkaichi Port, Mie"	34.94944444		136.6530556														15	20								2.5		22	11.6	Muddy	"Gray black"		"Hydrogen sulfide odor"	None	61.0/73.3	11.0/NA									"Monitoring: Sediment Moisture(%): 61.0/72.5; Ignition Loss(%):11.0/8.8"	2018/9/7	2018/9/7
PRA000074	SAA004105	ST023				Mie_sed1-2_2016	Sediment	"Marine sediment"	2016	10	25	2016-10-25T10:37			Cloudy	Asia	Japan	"Yokkaichi Port, Mie"	34.94944444		136.6530556														15	20.3								2.5		22	11.2	Muddy	"Gray black"		"Hydrogen sulfide odor_Faint"	None	61.0/73.3	11.0/NA									"Monitoring: Sediment Moisture(%): 61.0/72.5; Ignition Loss(%):11.0/8.8"	2018/9/7	2018/9/7
PRA000074	SAA004106	ST023				Mie_sed1-3_2016	Sediment	"Marine sediment"	2016	10	25	2016-10-25T11:00			Cloudy	Asia	Japan	"Yokkaichi Port, Mie"	34.94944444		136.6530556														14.5	20.2								2.5		21.5	12.8	Muddy	"Gray black"		"Hydrogen sulfide odor_Faint"	None	60.0/71.6	11.0/NA									"Monitoring: Sediment Moisture(%): 60.0/72.5; Ignition Loss(%):11.0/8.8"	2018/9/7	2018/9/7
PRA000074	SAA004107	ST024				Osaka_sed1-1_2016	Sediment	"River sediment"	2016	11	9	2016-11-09T11:08			"Cloudy with occasional rain"	Asia	Japan	"Mouth of Riv. Yamato (Sakai City), Osaka"	34.60833333		135.4325														12.7	18.1								0.8		20.2	7.8	Silt	"Dark olive"		"Earthy odor"	None	51.2/66.9	14.0/NA									"Monitoring: Sediment Moisture(%): 51.2/66.6;  Ignition Loss(%):14.0/13.0"	2018/09/07	2018/09/07
PRA000074	SAA004108	ST024				Osaka_sed1-2_2016	Sediment	"River sediment"	2016	11	9	2016-11-09T10:33			"Cloudy with occasional rain"	Asia	Japan	"Mouth of Riv. Yamato (Sakai City), Osaka"	34.60833333		135.4325														13.1	18.1								0.8		20.2	4.5	Silt	"Green black"		"Tar odor"	None	52.0/66.9	13.8/NA									"Monitoring: Sediment Moisture(%): 52.0/66.6;  Ignition Loss(%):13.8/13.0"	2018/09/07	2018/09/07
PRA000074	SAA004109	ST024				Osaka_sed1-3_2016	Sediment	"River sediment"	2016	11	9	2016-11-09T11:31			"Cloudy with occasional rain"	Asia	Japan	"Mouth of Riv. Yamato (Sakai City), Osaka"	34.60833333		135.4325														14.5	18.2								0.8		19.8	3.2	Silt	"Green gray"		"Earthy odor"	None	48.8/61.3	13.5/NA									"Monitoring: Sediment Moisture(%):48.8/66.6;  Ignition Loss(%):13.5/13.0"	2018/09/07	2018/09/07
PRA000074	SAA004110	ST023				OsakaCity_sed1-1_2016	Sediment	"Marine sediment"	2016	10	25	2016-10-25T09:32			Cloudy	Asia	Japan	"Osaka Port, Osaka"	34.65861111		135.4313889														19	21.6								3.3		23.9	12.1	Sludge	"Gray black"		Odorless	None	44.1/60.6	7.9/NA									"Monitoring: Sediment Moisture(%):44.1/68.6;  Ignition Loss(%):7.9/10.0"	2018/9/7	2018/9/7
PRA000074	SAA004111	ST023				OsakaCity_sed1-2_2016	Sediment	"Marine sediment"	2016	10	25	2016-10-25T08:55			Cloudy	Asia	Japan	"Osaka Port, Osaka"	34.65861111		135.4313889														18.5	22								2.9		23.8	12	Sludge	"Gray black"		"Hydrogen sulfide odor_Faint"	None	58.6/69.6	11.2/NA									"Monitoring: Sediment Moisture(%):58.6/68.6;  Ignition Loss(%):11.2/10.0"	2018/9/7	2018/9/7
PRA000074	SAA004112	ST023				OsakaCity_sed1-3_2016	Sediment	"Marine sediment"	2016	10	25	2016-10-25T09:45			Cloudy	Asia	Japan	"Osaka Port, Osaka"	34.65861111		135.4313889														19.7	21.6								3.1		23.6	12.8	Sludge	"Gray black"		"Hydrogen sulfide odor"	None	61.0/71.1	11.5/NA									"Monitoring: Sediment Moisture(%):61.0/68.6;  Ignition Loss(%):11.5/10.0"	2018/9/7	2018/9/7
PRA000074	SAA004113	ST023				Okayama_sed1-1_2016	Sediment	"Marine sediment"	2016	10	26	2016-10-26T10:45			Cloudy	Asia	Japan	"Offshore of Mizushima, Okayama"	34.48055556		133.665														21.2	23								2.5		22.4	10.5	Ooze	"Greenish gray"		"Earthy odor"	"Small pieces of shell"	51.6/52.9	7.5/NA									"Monitoring: Sediment Moisture(%):51.6/48.9;  Ignition Loss(%)7.5/5.3"	2018/9/7	2018/9/7
PRA000074	SAA004114	ST023				Okayama_sed1-2_2016	Sediment	"Marine sediment"	2016	10	26	2016-10-26T11:05			Cloudy	Asia	Japan	"Offshore of Mizushima, Okayama"	34.48055556		133.665														22	22.6								2.5		22.2	8.8	Ooze	"Greenish gray"		"Earthy odor"	"Small pieces of shell"	48.2/49.2	6.6/NA									"Monitoring: Sediment Moisture(%):48.2/48.9;  Ignition Loss(%)6.6/5.3"	2018/9/7	2018/9/7
PRA000074	SAA004115	ST023				Okayama_sed1-3_2016	Sediment	"Marine sediment"	2016	10	26	2016-10-26T11:27			Cloudy	Asia	Japan	"Offshore of Mizushima, Okayama"	34.48055556		133.665														21.8	22.3								2.5		22.4	10.1	Ooze	"Greenish gray"		"Earthy odor"	"Small pieces of shell"	48.2/49.9	6.0/NA									"Monitoring: Sediment Moisture(%):48.2/48.9;  Ignition Loss(%)6.0/5.3"	2018/9/7	2018/9/7
PRA000074	SAA004116	ST023				Fukuoka_sed1-1_2016	Sediment	"Marine sediment"	2016	11	1	2016-11-01T10:30			Fair	Asia	Japan	"Offshore of Omuta, Fukuoka"	33.03472222		130.4113889														19	21.3								2		21.5	5.5	"Silty loam"	"Gray black_Dark"		"Hydrogen sulfide odor_Faint"	Shellfish	NA/48.9											2018/9/7	2018/9/7
PRA000074	SAA004117	ST023				Fukuoka_sed1-2_2016	Sediment	"Marine sediment"	2016	11	1	2016-11-01T10:30			Fair	Asia	Japan	"Offshore of Omuta, Fukuoka"	33.03472222		130.4113889														19	21.3								2		21.5	5.5	"Silty loam"	"Gray black_Dark"		"Hydrogen sulfide odor_Faint"	Shellfish	NA/48.9											2018/9/7	2018/9/7
PRA000074	SAA004118	ST023				Fukuoka_sed1-3_2016	Sediment	"Marine sediment"	2016	11	1	2016-11-01T10:30			Fair	Asia	Japan	"Offshore of Omuta, Fukuoka"	33.03472222		130.4113889														19	21.3								2		21.5	5.5	"Silty loam"	"Gray black_Dark"		"Hydrogen sulfide odor_Faint"	Shellfish	NA/48.9											2018/9/7	2018/9/7
PRA000074	SAA004119	ST023				FukuokaCity_sed1-1_2016	Sediment	"Marine sediment"	2016	10	18	2016-10-18T10:10			Fair	Asia	Japan	"Hakata Bay, Fukuoka"	33.60833333		130.3297222														23	23.1								1.5		22	8.9	Silt	Gray		Odorless	None	42.0/54.8	9.2/NA									"Monitoring: Sediment Moisture(%):42.0/54.2;  Ignition Loss(%)9.2/8.7"	2018/9/7	2018/9/7
PRA000074	SAA004120	ST023				FukuokaCity_sed1-2_2016	Sediment	"Marine sediment"	2016	10	18	2016-10-18T09:51			Fair	Asia	Japan	"Hakata Bay, Fukuoka"	33.60833333		130.3297222														22.9	23.1								1.3		22.2	8.7	Silt	Gray		Odorless	None	44.0/57.4	9.7/NA									"Monitoring: Sediment Moisture(%):44.0/54.2;  Ignition Loss(%)9.7/8.7"	2018/9/7	2018/9/7
PRA000074	SAA004121	ST023				FukuokaCity_sed1-3_2016	Sediment	"Marine sediment"	2016	10	18	2016-10-18T09:20			Fair	Asia	Japan	"Hakata Bay, Fukuoka"	33.60833333		130.3297222														22.9	23.2								1.2		22	8	Silt	Gray		Odorless	None	44.0/54.0	9.7/NA									"Monitoring: Sediment Moisture(%):44.0/54.2;  Ignition Loss(%)9.7/8.7"	2018/9/7	2018/9/7
PRA000075	SAA004077	ST024				Iwate_sed1-1_2016	Sediment	"River sediment"	2016	10	12	2016-10-12T10:50			"Cloudy with occasional rain"	Asia	Japan	"Riv. Toyosawa (Hanamaki City), Iwate"	39.38166667		141.1191667														18	14										13	0.2	Sandy	Brown_Light	"Dark brown_Light"	Odorless	None	21.4/20.0	1.6/NA									"Monitoring: Sediment Moisture(%): 21.4/21.0; Ignition Loss(%):1.6/1.4"	2018/09/07	2018/09/07
PRA000075	SAA004078	ST024				Iwate_sed1-2_2016	Sediment	"River sediment"	2016	10	12	2016-10-12T10:55			Cloudy/Fair	Asia	Japan	"Riv. Toyosawa (Hanamaki City), Iwate"	39.38166667		141.1191667														16	14										13	0.2	Sandy	Brown_Light	"Dark brown_Light"	Odorless	None	20.1/18.2	1.5/NA									"Monitoring: Sediment Moisture(%): 20.1/21.0; Ignition Loss(%):1.5/1.4"	2018/09/07	2018/09/07
PRA000075	SAA004079	ST024				Iwate_sed1-3_2016	Sediment	"River sediment"	2016	10	12	2016-10-12T10:45			Cloudy/Fair	Asia	Japan	"Riv. Toyosawa (Hanamaki City), Iwate"	39.38166667		141.1191667														16	14.2										13	0.2	Sandy	Brown_Light	"Dark brown_Light"	Odorless	None	21.1/21.4	1.6/NA									"Monitoring: Sediment Moisture(%): 21.1/21.0; Ignition Loss(%):1.6/1.4"	2018/09/07	2018/09/07
PRA000075	SAA004165	ST024				Sendai_sed1_1_2016	Sediment	"River sediment"	2016	11	16	2016-11-16T10:35			Fair	Asia	Japan	"Hirose-ohashi Bridge, Riv. Hirose (Sendai City), Miyagi"	38.21333333		140.9088889														9.9	10.6										11	0.2	Sandy	"Dark brown"	Clear	"Swampy odor_Faint"	None	10.1/13.1	1.0/NA									"Monitoring: Sediment Moisture(%): 10.1/14.3; Ignition Loss(%):1.0/0.9"	2018/09/20	2018/09/20
PRA000075	SAA004166	ST024				Sendai_sed1_2_2016	Sediment	"River sediment"	2016	11	16	2016-11-16T10:00			Fair	Asia	Japan	"Hirose-ohashi Bridge, Riv. Hirose (Sendai City), Miyagi"	38.21333333		140.9088889														9.9	10.4										11.3	0.2	Sandy	"Dark brown"	Clear	"Swampy odor_Faint"	None	9.7/9.5	1.1/NA									"Monitoring: Sediment Moisture(%): 9.7/14.3; Ignition Loss(%):1.1/0.9"	2018/09/20	2018/09/20
PRA000075	SAA004167	ST024				Sendai_sed1_3_2016	Sediment	"River sediment"	2016	11	16	2016-11-16T10:23			Fair	Asia	Japan	"Hirose-ohashi Bridge, Riv. Hirose (Sendai City), Miyagi"	38.21333333		140.9088889														9.9	10.6										11	0.5	Sandy	"Dark brown"	Clear	"Swampy odor_Faint"	None	11.4/14.7	1.1/NA									"Monitoring: Sediment Moisture(%): 11.4/14.3; Ignition Loss(%):1.1/0.9"	2018/09/20	2018/09/20
PRA000075	SAA004080	ST024				Akita_sed1-1_2016	Sediment	"River sediment"	2016	10	11	2016-10-11T11:46			Fair	Asia	Japan	"Akita Canal (Akita City), Akita"	39.75083333		140.0586111														17	19.6								1.3		21.7	11.7	Pelitic	Black	"Yellowish green_Dark"	"Hydrogen sulfide odor_Faint"	None	62.9/63.0	9.7/NA										2018/09/07	2018/09/07
PRA000075	SAA004168	ST024				Yamagata_sed2-1_2016	Sediment	"River sediment"	2016	11	25	2016-11-25T11:00			Cloudy	Asia	Japan	"Confluence of Riv. Murayamano and Riv. Mogami (Higashine City), Yamagata"	38.43861111		140.3366667														1.5	8.8										8.8	0.3	Muddy	"Gray black"	Clear	"Swampy odor_Faint"	"Leaf; Tree branch"	27.7/NA	4.8/NA										2018/09/20	2018/09/20
PRA000075	SAA004169	ST024				Yamagata_sed2-2_2016	Sediment	"River sediment"	2016	11	25	2016-11-25T11:15			Cloudy	Asia	Japan	"Confluence of Riv. Murayamano and Riv. Mogami (Higashine City), Yamagata"	38.43861111		140.3366667														1.5	8.8										8.8	0.3	Muddy	"Gray black"	Clear	"Swampy odor_Faint"	"Leaf; Tree branch"	28.4/NA	5.1/NA										2018/09/20	2018/09/20
PRA000075	SAA004170	ST024				Yamagata_sed2-3_2016	Sediment	"River sediment"	2016	11	25	2016-11-25T11:30			Cloudy	Asia	Japan	"Confluence of Riv. Murayamano and Riv. Mogami (Higashine City), Yamagata"	38.43861111		140.3366667														1.5	8.8										8.8	0.3	Muddy	"Gray black"	Clear	"Swampy odor_Faint"	"Leaf; Tree branch"	39.3/NA	8.4/NA										2018/09/20	2018/09/20
PRA000075	SAA004171	ST023				Chiba_sed1-1_2016	Sediment	"Marine sediment"	2016	10	19	2016-10-19T09:42			Cloudy	Asia	Japan	"Ichihara-Anesaki Coast, Chiba"	35.52166667		140.0283333														22.3	21.9								5.6		21.3	15.3	Silt	"Grayish yellow green_Dark"	Green_Dark	"Hydrogen sulfide odor"	"Pieces of shell"	54.4/64.4	8.4/NA									"Monitoring: Sediment Moisture(%): 54.4/68.4; Ignition Loss(%):8.7/7.1"	2018/9/20	2018/9/20
PRA000075	SAA004172	ST023				Chiba_sed1-2_2016	Sediment	"Marine sediment"	2016	10	19	2016-10-19T10:00			Cloudy	Asia	Japan	"Ichihara-Anesaki Coast, Chiba"	35.52166667		140.0283333														21.9	22.1								4.8		21	16.2	Silt	"Grayish yellow green_Dark"	Green_Dark	"Hydrogen sulfide odor_Strong"	None	74.2/82.8	13.2/NA									"Monitoring: Sediment Moisture(%): 74.2/68.4; Ignition Loss(%):13.2/7.1"	2018/9/20	2018/9/20
PRA000075	SAA004173	ST023				Chiba_sed1-3_2016	Sediment	"Marine sediment"	2016	10	19	2016-10-19T10:14			Cloudy	Asia	Japan	"Ichihara-Anesaki Coast, Chiba"	35.52166667		140.0283333														22.1	22.3								5.3		21.4	15.5	Silt	"Grayish yellow green"	Green_Dark	"Hydrogen sulfide odor"	"Pieces of shell"	48.4/58.6	7.9/NA									"Monitoring: Sediment Moisture(%): 48.4/68.4; Ignition Loss(%):7.9/7.1"	2018/9/20	2018/9/20
PRA000075	SAA004083	ST024				Tokyo_sed1-1_2016	Sediment	"River sediment"	2016	11	1	2016-11-01T09:55			Rain	Asia	Japan	"Mouth of Riv. Arakawa (Koto Ward), Tokyo"	35.64583333		139.8463889														12.2	18.2								0.8		19.4	3.6	Silt	"Blackish brown"	"Grayish yellow green"	Odorless	Shelfish	47.2/53.5	9.0/NA									"Monitoring: Sediment Moisture(%): 47.2/56.4; Ignition Loss(%):9.0/8.3"	2018/09/07	2018/09/07
PRA000075	SAA004084	ST024				Tokyo_sed1-2_2016	Sediment	"River sediment"	2016	11	1	2016-11-01T10:50			Cloudy	Asia	Japan	"Mouth of Riv. Arakawa (Koto Ward), Tokyo"	35.64583333		139.8463889														13.2	18.2								0.9		19.2	2.7	Silt	"Blackish brown"	"Greenish brown"	Odorless	Shelfish	46.9/55.0	8.8/NA									"Monitoring: Sediment Moisture(%): 46.9/56.4; Ignition Loss(%):8.8/8.3"	2018/09/07	2018/09/07
PRA000075	SAA004085	ST024				Tokyo_sed1-3_2016	Sediment	"River sediment"	2016	11	1	2016-11-01T11:10			Cloudy	Asia	Japan	"Mouth of Riv. Arakawa (Koto Ward), Tokyo"	35.64583333		139.8463889														13.2	18.2								0.8		19.2	2.2	Silt	"Blackish brown"	"Greenish brown"	Odorless	Shell	51.0/59.4	10.0/NA									"Monitoring: Sediment Moisture(%): 51.0/56.4; Ignition Loss(%):10.0/8.3"	2018/09/07	2018/09/07
PRA000075	SAA004086	ST024				Tokyo_sed2-1_2016	Sediment	"River sediment"	2016	11	1	2016-11-01T12:10			Cloudy	Asia	Japan	"Mouth of Riv. Sumida (Minato Ward), Tokyo"	35.66		139.7705556														14.4	19.2								2.2		20.2	4.4	Silt	Black	Green_Dark	"Hydrogen sulfide odor_Strong"	Shell	43.7/66.9	11.8/NA									"Monitoring: Sediment Moisture(%): 43.7/68.0; Ignition Loss(%):11.8/11.2"	2018/09/07	2018/09/07
PRA000075	SAA004087	ST024				Tokyo_sed2-2_2016	Sediment	"River sediment"	2016	11	1	2016-11-01T12:55			Fair	Asia	Japan	"Mouth of Riv. Sumida (Minato Ward), Tokyo"	35.66		139.7705556														14.4	19.4								2.2		20.6	4.7	Silt	Black	Green_Dark	"Hydrogen sulfide odor"	Shell	39.8/67.9	15.2/NA									"Monitoring: Sediment Moisture(%): 39.8/68.0; Ignition Loss(%):15.2/11.2"	2018/09/07	2018/09/07
PRA000075	SAA004088	ST024				Tokyo_sed2-3_2016	Sediment	"River sediment"	2016	11	1	2016-11-01T13:10			Fair	Asia	Japan	"Mouth of Riv. Sumida (Minato Ward), Tokyo"	35.66		139.7705556														15.6	19.4								1.5		20.6	3.5	Silt	Black	"Grayish yellow green_Dark"	"Hydrogen sulfide odor_Strong"	Shell	42.9/66.8	11.7/NA									"Monitoring: Sediment Moisture(%): 42.9/68.0; Ignition Loss(%):11.7/11.2"	2018/09/07	2018/09/07
PRA000075	SAA004089	ST023				Yokohama_sed1-1_2016	Sediment	"Marine sediment"	2016	10	13	2016-10-13T13:15			Cloudy	Asia	Japan	"Yokohama Port, Kanagawa"	35.45555556		139.6636111														19	21.5								2.4		22	12.4	Muddy	"Deep brown"	Clear	"Hydrogen sulfide odor"	None	60.9/62.4	8.4/NA									"Monitoring: Sediment Moisture(%): 60.9/68.0; Ignition Loss(%):8.4/8.6"	2018/9/20	2018/9/20
PRA000075	SAA004090	ST023				Yokohama_sed1-2_2016	Sediment	"Marine sediment"	2016	10	13	2016-10-13T09:50			Cloudy	Asia	Japan	"Yokohama Port, Kanagawa"	35.45555556		139.6636111														19.5	21								2.3		22	12.7	Muddy	"Deep brown"	Clear	"Hydrogen sulfide odor"	None	73.1/66.8	10.8/NA									"Monitoring: Sediment Moisture(%): 73.1/68.0; Ignition Loss(%):10.8/8.6"	2018/9/20	2018/9/20
PRA000075	SAA004091	ST023				Yokohama_sed1-3_2016	Sediment	"Marine sediment"	2016	10	13	2016-10-13T13:45			Cloudy	Asia	Japan	"Yokohama Port, Kanagawa"	35.45555556		139.6636111														19	21								2.2		22.5	12	Muddy	"Deep brown"	Clear	"Hydrogen sulfide odor"	None	62.0/60.6	7.8/NA									"Monitoring: Sediment Moisture(%): 62.0/68.0; Ignition Loss(%):7.8/8.6"	2018/9/20	2018/9/20
PRA000075	SAA004092	ST024				KawasakiCity_sed1-1_2016	Sediment	"River sediment"	2016	10	13	2016-10-13T14:40			Cloudy	Asia	Japan	"Mouth of Riv. Tama (Kawasaki City), Kanagawa"	35.53		139.7836111														17.1	20.6								2		23	6.8	Muddy	"Greenish gray"	"Grayish blue_Dark"	"Seaweed odor"	"Vegetative piece; Wood chip; Shell; Worm"	48.9/58.3	12.5/NA									"Monitoring: Sediment Moisture(%): 48.9/62.7; Ignition Loss(%):12.5/10.8"	2018/09/07	2018/09/07
PRA000075	SAA004093	ST024				KawasakiCity_sed1-2_2016	Sediment	"River sediment"	2016	10	13	2016-10-13T13:50			Cloudy	Asia	Japan	"Mouth of Riv. Tama (Kawasaki City), Kanagawa"	35.53		139.7836111														17.5	21.3								1.85		23.4	3.5	Muddy	"Gray black"	"Grayish green"	"Seaweed odor"	"Vegetative piece; Wood chip"	51.1/65.1	13.0/NA									"Monitoring: Sediment Moisture(%): 51.1/62.7; Ignition Loss(%):13.0/10.8"	2018/09/07	2018/09/07
PRA000075	SAA004094	ST024				KawasakiCity_sed1-3_2016	Sediment	"River sediment"	2016	10	13	2016-10-13T14:20			Cloudy	Asia	Japan	"Mouth of Riv. Tama (Kawasaki City), Kanagawa"	35.53		139.7836111														17.7	21								1.9		23.4	3.9	Muddy	"Gray black"	"Greenish brown"	"Seaweed odor"	"Vegetative piece; Wood chip; Shell; Worm"	49.5/66.0	12.3/NA									"Monitoring: Sediment Moisture(%): 49.5/62.7; Ignition Loss(%):12.3/10.8"	2018/09/07	2018/09/07
PRA000075	SAA004174	ST023				KawasakiCity_sed2-1_2016	Sediment	"Marine sediment"	2016	10	13	2016-10-13T09:40			Cloudy	Asia	Japan	"Keihin Canal, Kawasaki Port, Kanagawa (front of Ogimachi)"	35.49527778		139.7277778														18.6	22.3								2.25		22	15	Muddy	"Greenish gray"	"Greenish brown_Dark"	"Hydrogen sulfide odor"	"Shell; Pebble; Worm"	53.5/65.3	9.9/NA									"Monitoring: Sediment Moisture(%): 53.5/69.6; Ignition Loss(%):9.9/9.8"	2018/09/20	2018/09/20
PRA000075	SAA004175	ST023				KawasakiCity_sed2-2_2016	Sediment	"Marine sediment"	2016	10	13	2016-10-13T10:35			Cloudy	Asia	Japan	"Keihin Canal, Kawasaki Port, Kanagawa (front of Ogimachi)"	35.49527778		139.7277778														19.3	22.7								2.45		22	13.8	Muddy	"Greenish gray"	"Grayish green"	"Hydrogen sulfide odor"	"Shell; Vegetative piece; Worm"	62.6/74.4	13.6/NA									"Monitoring: Sediment Moisture(%): 62.6/69.6; Ignition Loss(%):13.6/9.8"	2018/09/20	2018/09/20
PRA000075	SAA004176	ST023				KawasakiCity_sed2-3_2016	Sediment	"Marine sediment"	2016	10	13	2016-10-13T10:55			Cloudy	Asia	Japan	"Keihin Canal, Kawasaki Port, Kanagawa (front of Ogimachi)"	35.49527778		139.7277778														18.6	22.1								2.6		22.2	14.5	Muddy	"Greenish brown"	Brown_Dark	"Hydrogen sulfide odor"	"Shell; Vegetative piece; Worm"	58.6/67.7	12.7/NA									"Monitoring: Sediment Moisture(%): 58.6/69.6; Ignition Loss(%):12.7/9.8"	2018/09/20	2018/09/20
PRA000075	SAA004177	ST024				Niigata_sed1-1_2016	Sediment	"River sediment"	2016	10	19	2016-10-19T10:10			Fair	Asia	Japan	"Downstream of Riv. Shinano (Niigata City), Niigata"	37.88305556		139.0155556														19.7	16.5										17.5	2	Muddy	"Grayish brown"	Clear	"Garbage odor"	Leaf	29.4/26.5	2.7/NA									"Monitoring: Sediment Moisture(%): 29.4/22.4; Ignition Loss(%):2.7/1.4"	2018/09/20	2018/09/20
PRA000075	SAA004178	ST024				Niigata_sed1-2_2016	Sediment	"River sediment"	2016	10	19	2016-10-19T10:15			Fair	Asia	Japan	"Downstream of Riv. Shinano (Niigata City), Niigata"	37.88305556		139.0155556														19.7	16.5										17	4.5	Sandy	"Gray black_Light"	Clear	"Riverweed odor"	None	18.0/22.2	1.2/NA									"Monitoring: Sediment Moisture(%): 18.0/22.4; Ignition Loss(%):1.2/1.4"	2018/09/20	2018/09/20
PRA000075	SAA004179	ST024				Niigata_sed1-3_2016	Sediment	"River sediment"	2016	10	19	2016-10-19T10:19			Fair	Asia	Japan	"Downstream of Riv. Shinano (Niigata City), Niigata"	37.88305556		139.0155556														19.7	16.5										17.2	5.1	Sandy	Brown	Clear	"Riverweed odor_Faint"	"Leaf; Tree branch"	18.5/14.7	1.0/NA									"Monitoring: Sediment Moisture(%): 18.5/22.4; Ignition Loss(%):1.0/1.4"	2018/09/20	2018/09/20
PRA000075	SAA004180	ST024				Toyama_sed1-1_2016	Sediment	"River sediment"	2016	10	19	2016-10-19T09:35			Fair	Asia	Japan	"Hagiura-bashi Bridge, Mouth of Riv. Jintsu (Toyama City), Toyama"	36.745		137.2180556														19.4	17.6										19.2	0.9	"Sandy mud"	"Gray black"	Clear	Odorless	"Leaf; Stem; Root; Stone"	42.0/39.6	6.0/NA									"Monitoring: Sediment Moisture(%): 42.0/28.9; Ignition Loss(%):6.0/2.4"	2018/09/20	2018/09/20
PRA000075	SAA004181	ST024				Toyama_sed1-2_2016	Sediment	"River sediment"	2016	10	19	2016-10-19T10:15			Fair	Asia	Japan	"Hagiura-bashi Bridge, Mouth of Riv. Jintsu (Toyama City), Toyama"	36.745		137.2180556														20.8	17.1										19.1	0.5	Sandy	"Gray black"	Clear	Odorless	"Leaf; Stone"	28.0/27.8	2.6/NA									"Monitoring: Sediment Moisture(%): 28.0/28.9; Ignition Loss(%):2.6/2.4"	2018/09/20	2018/09/20
PRA000075	SAA004182	ST024				Toyama_sed1-3_2016	Sediment	"River sediment"	2016	10	19	2016-10-19T11:00			Fair	Asia	Japan	"Hagiura-bashi Bridge, Mouth of Riv. Jintsu (Toyama City), Toyama"	36.745		137.2180556														22	17.1										19.1	0.9	Sandy	"Gray black"	Clear	Odorless	"Leaf; Stone"	19.0/21.4	1.3/NA									"Monitoring: Sediment Moisture(%): 19.0/28.9; Ignition Loss(%):1.3/2.4"	2018/09/20	2018/09/20
PRA000075	SAA004183	ST024				Ishikawa_sed1-1_2016	Sediment	"River sediment"	2016	11	2	2016-11-02T10:00			Fair	Asia	Japan	"Mouth of Riv. Sai (Kanazawa City), Ishikawa"	36.60027778		136.5888889														16.9	13											2.6	"Sany silt"	"Grayish green"	Clear	"Fish putrid odor_Faint"	"Pebble; Shell"	20.0/24.4	2.3/NA									"Monitoring: Sediment Moisture(%): 20.0/25.1; Ignition Loss(%):2.3/1.7"	2018/09/20	2018/09/20
PRA000075	SAA004184	ST024				Ishikawa_sed1-2_2016	Sediment	"River sediment"	2016	11	2	2016-11-02T11:30			Fair	Asia	Japan	"Mouth of Riv. Sai (Kanazawa City), Ishikawa"	36.60027778		136.5888889														16	13.2											1.2	Sand	"Blackish brown"	Clear	Odorless	Pebble	22.0/25.6	1.5/NA									"Monitoring: Sediment Moisture(%): 22.0/25.1; Ignition Loss(%):1.5/1.7"	2018/09/20	2018/09/20
PRA000075	SAA004185	ST024				Ishikawa_sed1-3_2016	Sediment	"River sediment"	2016	11	2	2016-11-02T12:20			Fair	Asia	Japan	"Mouth of Riv. Sai (Kanazawa City), Ishikawa"	36.60027778		136.5888889														17.8	14.7											0.5	Sand	"Blackish brown"	Clear	"Fish putrid odor_Faint"	Pebble	25.0/24.2	2.0/NA									"Monitoring: Sediment Moisture(%): 25.0/25.1; Ignition Loss(%):2.0/1.7"	2018/09/20	2018/09/20
PRA000075	SAA004095	ST024				Nagano_sed1-1_2016	Sediment	"Lake sediment"	2016	11	2	2016-11-02T10:30			Cloudy	Asia	Japan	"Center of Lake Suwa, Nagano"	36.05		138.0861111														8.6	12								0.8		12	6	Muddy	"Blackish brown_Dark"	"Dark brown"	"Swampy odor_Faint"	None	NA/86.5	NA/13.1									"Monitoring: Sediment Moisture(%): NA/85.1; Ignition Loss(%):NA/13.9"	2018/9/20	2018/9/20
PRA000075	SAA004096	ST024				Nagano_sed1-2_2016	Sediment	"Lake sediment"	2016	11	2	2016-11-02T11:30			Cloudy	Asia	Japan	"Center of Lake Suwa, Nagano"	36.05		138.0861111														9.4	12.1								0.8		12	6	Muddy	"Blackish brown_Dark"	"Dark brown"	"Swampy odor_Faint"	None	NA/86.5	NA/13.0									"Monitoring: Sediment Moisture(%): NA/85.1; Ignition Loss(%):NA/13.9"	2018/9/20	2018/9/20
PRA000075	SAA004097	ST024				Nagano_sed1-3_2016	Sediment	"Lake sediment"	2016	11	2	2016-11-02T11:50			Cloudy	Asia	Japan	"Center of Lake Suwa, Nagano"	36.05		138.0861111														9.4	12.4								0.8		12.5	5.9	Muddy	"Blackish brown_Dark"	"Dark brown"	"Swampy odor_Faint"	None	NA/86.9	NA/12.9									"Monitoring: Sediment Moisture(%): NA/85.1; Ignition Loss(%):NA/13.9"	2018/9/20	2018/9/20
PRA000075	SAA004186	ST024				Shizuoka_sed4-1_2016	Sediment	"River sediment"	2016	10	25	2016-10-25T09:50			Cloudy	Asia	Japan	"Shiraha-bashi Bridge, Riv. Magome (Hamamatsu City), Shizuoka"	34.67361111		137.7327778														17.8	17.1										18.1	1.1	Mud	"Gray black_Dark"	Gray_Dark	"Sewage odor_Faint"	"Pebble; Humic substances"	30.7/32.5	7.5/NA										2018/9/20	2018/9/20
PRA000075	SAA004187	ST024				Shizuoka_sed4-2_2016	Sediment	"River sediment"	2016	10	25	2016-10-25T09:56			Cloudy	Asia	Japan	"Shiraha-bashi Bridge, Riv. Magome (Hamamatsu City), Shizuoka"	34.67361111		137.7327778														17.8											18.7	0.3	"Sand, Mud"	"Gray black_Dark"	Gray_Dark	"Sewage odor_Faint"	Pebble	62.2/60.6	10.2/NA										2018/9/20	2018/9/20
PRA000075	SAA004188	ST024				Shizuoka_sed4-3_2016	Sediment	"River sediment"	2016	10	25	2016-10-25T10:18			Cloudy	Asia	Japan	"Shiraha-bashi Bridge, Riv. Magome (Hamamatsu City), Shizuoka"	34.67361111		137.7327778														18.7											18.3	1	Sand	"Gray black_Dark"	Gray_Dark	"Sewage odor_Faint"	Pebble	20.4/24.8	1.7/NA										2018/9/20	2018/9/20
PRA000075	SAA004098	ST023				Aichi_sed1-1_2016	Sediment	"Marine sediment"	2016	10	25	2016-10-25T12:50			Rain	Asia	Japan	"Nagoya Port, West of Shiomi Wharf, Aichi"	35.07111111		136.8691667														13.8	23.7								3		22.5	12.8	Muddy	"Gray black"	"Yellowish brown_Light"	"Hydrogen sulfide odor"	None	52.6/69.6	8.3/NA										2018/9/20	2018/9/20
PRA000075	SAA004099	ST023				Aichi_sed1-2_2016	Sediment	"Marine sediment"	2016	10	25	2016-10-25T12:55			Rain	Asia	Japan	"Nagoya Port, West of Shiomi Wharf, Aichi"	35.07111111		136.8691667														13.8	23.7								3		22.5	12.8	Muddy	"Gray black"	"Yellowish brown_Light"	"Hydrogen sulfide odor"	None	51.6/66.5	8.3/NA										2018/9/20	2018/9/20
PRA000075	SAA004100	ST023				Aichi_sed1-3_2016	Sediment	"Marine sediment"	2016	10	25	2016-10-25T13:00			Rain	Asia	Japan	"Nagoya Port, West of Shiomi Wharf, Aichi"	35.07111111		136.8691667														13.8	23.7								3		22.5	12.8	Muddy	"Gray black"	"Yellowish brown_Light"	"Hydrogen sulfide odor"	None	51.0/69.1	8.1/NA										2018/9/20	2018/9/20
PRA000075	SAA004101	ST024				NagoyaCity_sed1_2016	Sediment	"River sediment"	2016	10	24	2016-10-24T13:45			Fair	Asia	Japan	"Minatoshinbashi Bridge, Riv. Hori (Nagoya City), Aichi"	35.09805556		136.8925														21.6	22.1												Sludge	Black	"Greenish brown"	"Earthy odor"	"Shell, Pebble"	NA/35.0											2018/9/20	2018/9/20
PRA000075	SAA004104	ST023				Mie_sed1-1_2016	Sediment	"Marine sediment"	2016	10	25	2016-10-25T10:00			Cloudy	Asia	Japan	"Yokkaichi Port, Mie"	34.94944444		136.6530556														15	20								2.5		22	11.6	Muddy	"Gray black"	"Greenish brown_Dark"	"Hydrogen sulfide odor"	None	61.0/73.3	11.0/NA									"Monitoring: Sediment Moisture(%): 61.0/72.5; Ignition Loss(%):11.0/8.8"	2018/9/20	2018/9/20
PRA000075	SAA004105	ST023				Mie_sed1-2_2016	Sediment	"Marine sediment"	2016	10	25	2016-10-25T10:37			Cloudy	Asia	Japan	"Yokkaichi Port, Mie"	34.94944444		136.6530556														15	20.3								2.5		22	11.2	Muddy	"Gray black"	"Greenish brown_Dark"	"Hydrogen sulfide odor_Faint"	None	61.0/73.3	11.0/NA									"Monitoring: Sediment Moisture(%): 61.0/72.5; Ignition Loss(%):11.0/8.8"	2018/9/20	2018/9/20
PRA000075	SAA004106	ST023				Mie_sed1-3_2016	Sediment	"Marine sediment"	2016	10	25	2016-10-25T11:00			Cloudy	Asia	Japan	"Yokkaichi Port, Mie"	34.94944444		136.6530556														14.5	20.2								2.5		21.5	12.8	Muddy	"Gray black"	"Greenish brown_Dark"	"Hydrogen sulfide odor_Faint"	None	60.0/71.6	11.0/NA									"Monitoring: Sediment Moisture(%): 60.0/72.5; Ignition Loss(%):11.0/8.8"	2018/9/20	2018/9/20
PRA000075	SAA004189	ST024				Shiga_sed1-1_2016	Sediment	"Lake sediment"	2016	10	21	2016-10-21T10:30			Fair	Asia	Japan	"Lake Biwa (center, offshore of Minamihira), Shiga"	35.18527778		135.9733333														23	22								5.8		9.3	58.1	Muddy	"Gray black"	Green_Dark	"Swampy odor"	None	67.7/79.6	12.0/NA									"Monitoring: Sediment Moisture(%): 67.7/78.7; Ignition Loss(%):12.0/10.0"	2018/09/20	2018/09/20
PRA000075	SAA004190	ST024				Shiga_sed1-2_2016	Sediment	"Lake sediment"	2016	10	21	2016-10-21T09:40			Cloudy	Asia	Japan	"Lake Biwa (center, offshore of Minamihira), Shiga"	35.18527778		135.9733333														22.4	22								5.8		9.5	52.8	Muddy	"Gray black"	Green_Dark	"Swampy odor"	None	66.8/79.3	11.7/NA									"Monitoring: Sediment Moisture(%): 66.8/78.7; Ignition Loss(%):11.7/10.0"	2018/09/20	2018/09/20
PRA000075	SAA004191	ST024				Shiga_sed1-3_2016	Sediment	"Lake sediment"	2016	10	21	2016-10-21T10:55			Fair	Asia	Japan	"Lake Biwa (center, offshore of Minamihira), Shiga"	35.18527778		135.9733333														22.5	22								5.9		9.6	49.5	Muddy	"Gray black"	Green_Dark	"Swampy odor"	None	66.0/79.0	11.9/NA									"Monitoring: Sediment Moisture(%): 66.0/78.7; Ignition Loss(%):11.9/10.0"	2018/09/20	2018/09/20
PRA000075	SAA004192	ST024				Shiga_sed2-1_2016	Sediment	"Lake sediment"	2016	11	28	2016-11-28T09:30			Cloudy	Asia	Japan	"Lake Biwa (center, offshore of Karasaki), Shiga"	35.04611111		135.8955556														13.6	13								2.7		14.3	3.3	Muddy	"Gray black"	Green_Dark	"Swampy odor"	"Water plant"	66.1/77.8	11.2/NA									"Monitoring: Sediment Moisture(%): 66.1/73.3; Ignition Loss(%):11.2/9.4"	2018/9/20	2018/9/20
PRA000075	SAA004193	ST024				Shiga_sed2-2_2016	Sediment	"Lake sediment"	2016	11	28	2016-11-28T09:00			Cloudy	Asia	Japan	"Lake Biwa (center, offshore of Karasaki), Shiga"	35.04611111		135.8955556														13	12.9								2.8		14.8	3.2	Muddy	"Gray black"	Green_Dark	"Swampy odor"	"Water plant"	66.9/78.7	11.5/NA									"Monitoring: Sediment Moisture(%): 66.9/73.3; Ignition Loss(%):11.5/9.4"	2018/9/20	2018/9/20
PRA000075	SAA004194	ST024				Shiga_sed2-3_2016	Sediment	"Lake sediment"	2016	11	28	2016-11-28T09:45			Cloudy	Asia	Japan	"Lake Biwa (center, offshore of Karasaki), Shiga"	35.04611111		135.8955556														12.8	12.4								2		13.5	2.7	Muddy	"Gray black"	Green_Dark	"Swampy odor"	"Water plant"	57.0/70.8	9.3/NA									"Monitoring: Sediment Moisture(%): 57.0/73.3; Ignition Loss(%):9.3/9.4"	2018/9/20	2018/9/20
PRA000075	SAA004195	ST024				KyotoCity_sed1-1_2016	Sediment	"River sediment"	2016	10	28	2016-10-28T10:30			Cloudy	Asia	Japan	"Miyamae-bashi Bridge, Riv. Katsura (Kyoto City), Kyoto"	34.905		135.7125														20	19										18	0.7	Sandy	"Grayish brown"	Clear	Odorless	None	19.6/16.7	0.9/NA									"Monitoring: Sediment Moisture(%): 19.6/19.3; Ignition Loss(%):0.9/0.7"	2018/09/20	2018/09/20
PRA000075	SAA004196	ST024				KyotoCity_sed1-2_2016	Sediment	"River sediment"	2016	10	28	2016-10-28T10:50			Cloudy	Asia	Japan	"Miyamae-bashi Bridge, Riv. Katsura (Kyoto City), Kyoto"	34.905		135.7125														20	19										18	0.7	Sandy	"Grayish brown"	Clear	Odorless	None	17.6/17.1	0.9/NA									"Monitoring: Sediment Moisture(%): 17.6/19.3; Ignition Loss(%):0.9/0.7"	2018/09/20	2018/09/20
PRA000075	SAA004197	ST024				KyotoCity_sed1-3_2016	Sediment	"River sediment"	2016	10	28	2016-10-28T11:10			Cloudy	Asia	Japan	"Miyamae-bashi Bridge, Riv. Katsura (Kyoto City), Kyoto"	34.905		135.7125														20	19										18	0.6	Sandy	"Grayish brown"	Clear	Odorless	None	19.0/16.4	0.9/NA									"Monitoring: Sediment Moisture(%): 19.0/19.3; Ignition Loss(%):0.9/0.7"	2018/09/20	2018/09/20
PRA000075	SAA004107	ST024				Osaka_sed1-1_2016	Sediment	"River sediment"	2016	11	9	2016-11-09T11:08			"Cloudy with occasional rain"	Asia	Japan	"Mouth of Riv. Yamato (Sakai City), Osaka"	34.60833333		135.4325														12.7	18.1								0.8		20.2	7.8	Silt	"Dark olive"	"Yellowish green_Light"	"Earthy odor"	None	51.2/66.9	14.0/NA									"Monitoring: Sediment Moisture(%): 51.2/66.6;  Ignition Loss(%):14.0/13.0"	2018/09/07	2018/09/07
PRA000075	SAA004108	ST024				Osaka_sed1-2_2016	Sediment	"River sediment"	2016	11	9	2016-11-09T10:33			"Cloudy with occasional rain"	Asia	Japan	"Mouth of Riv. Yamato (Sakai City), Osaka"	34.60833333		135.4325														13.1	18.1								0.8		20.2	4.5	Silt	"Green black"	"Yellowish green_Light"	"Tar odor"	None	52.0/66.9	13.8/NA									"Monitoring: Sediment Moisture(%): 52.0/66.6;  Ignition Loss(%):13.8/13.0"	2018/09/07	2018/09/07
PRA000075	SAA004109	ST024				Osaka_sed1-3_2016	Sediment	"River sediment"	2016	11	9	2016-11-09T11:31			"Cloudy with occasional rain"	Asia	Japan	"Mouth of Riv. Yamato (Sakai City), Osaka"	34.60833333		135.4325														14.5	18.2								0.8		19.8	3.2	Silt	"Green gray"	"Yellowish green_Light"	"Earthy odor"	None	48.8/61.3	13.5/NA									"Monitoring: Sediment Moisture(%):48.8/66.6;  Ignition Loss(%):13.5/13.0"	2018/09/07	2018/09/07
PRA000075	SAA004110	ST023				OsakaCity_sed1-1_2016	Sediment	"Marine sediment"	2016	10	25	2016-10-25T09:32			Cloudy	Asia	Japan	"Osaka Port, Osaka"	34.65861111		135.4313889														19	21.6								3.3		23.9	12.1	Sludge	"Gray black"	"Grayish yellow_Light"	Odorless	None	44.1/60.6	7.9/NA									"Monitoring: Sediment Moisture(%):44.1/68.6;  Ignition Loss(%):7.9/10.0"	2018/9/20	2018/9/20
PRA000075	SAA004111	ST023				OsakaCity_sed1-2_2016	Sediment	"Marine sediment"	2016	10	25	2016-10-25T08:55			Cloudy	Asia	Japan	"Osaka Port, Osaka"	34.65861111		135.4313889														18.5	22								2.9		23.8	12	Sludge	"Gray black"	"Grayish yellow_Light"	"Hydrogen sulfide odor_Faint"	None	58.6/69.6	11.2/NA									"Monitoring: Sediment Moisture(%):58.6/68.6;  Ignition Loss(%):11.2/10.0"	2018/9/20	2018/9/20
PRA000075	SAA004112	ST023				OsakaCity_sed1-3_2016	Sediment	"Marine sediment"	2016	10	25	2016-10-25T09:45			Cloudy	Asia	Japan	"Osaka Port, Osaka"	34.65861111		135.4313889														19.7	21.6								3.1		23.6	12.8	Sludge	"Gray black"	"Grayish yellow_Light"	"Hydrogen sulfide odor"	None	61.0/71.1	11.5/NA									"Monitoring: Sediment Moisture(%):61.0/68.6;  Ignition Loss(%):11.5/10.0"	2018/9/20	2018/9/20
PRA000075	SAA004198	ST023				Hyogo_sed1-1_2016	Sediment	"Marine sediment"	2016	10	18	2016-10-18T11:17			Fair	Asia	Japan	"Offshore of Himeji, Hyogo"	34.76194444		134.6697222														25.8	24.9								2.9		24.5	10	"Silty clay"	"Grayish green"	"Greenish brown"	"Hydrogen sulfide odor"	None	NA/67.8										"Monitoring: Sediment Moisture(%):NA/70.6;  Ignition Loss(%):NA/9.4"	2018/9/20	2018/9/20
PRA000075	SAA004199	ST023				Hyogo_sed1-2_2016	Sediment	"Marine sediment"	2016	10	18	2016-10-18T11:00			Fair	Asia	Japan	"Offshore of Himeji, Hyogo"	34.76194444		134.6697222														24.4	24.4								2.9		24.5	11	"Silty clay"	"Grayish green"	"Greenish brown"	"Hydrogen sulfide odor_Faint"	None	NA/70.5										"Monitoring: Sediment Moisture(%):NA/70.6;  Ignition Loss(%):NA/9.4"	2018/9/20	2018/9/20
PRA000075	SAA004200	ST023				Hyogo_sed1-3_2016	Sediment	"Marine sediment"	2016	10	18	2016-10-18T10:45			Fair	Asia	Japan	"Offshore of Himeji, Hyogo"	34.76194444		134.6697222														25.9	24.6								2.9		24.4	11	"Silty clay"	"Grayish green"	"Greenish brown"	"Hydrogen sulfide odor_Faint"	None	NA/73.0										"Monitoring: Sediment Moisture(%):NA/70.6;  Ignition Loss(%):NA/9.4"	2018/9/20	2018/9/20
PRA000075	SAA004201	ST023				Hyogo_sed2-1_2016	Sediment	"Marine sediment"	2016	11	1	2016-11-01T10:05			Fair	Asia	Japan	"Center of Kobe Port, Hyogo"	34.66444444		135.1944444														19.5	21.8								2.75		22.5	11.8	Silty	"Gray black"	"Greenish brown_Dark"	"Hydrogen sulfide odor_Faint"	None	53.7/64.5	7.9/NA									"Monitoring: Sediment Moisture(%):53.7/62.5;  Ignition Loss(%)7.9/7.8"	2018/9/20	2018/9/20
PRA000075	SAA004202	ST023				Hyogo_sed2-2_2016	Sediment	"Marine sediment"	2016	11	1	2016-11-01T10:40			Fair	Asia	Japan	"Center of Kobe Port, Hyogo"	34.66444444		135.1944444														19.2	22								2.6		22	11.4	Silty	"Gray black"	"Greenish brown"	"Hydrogen sulfide odor_Faint"	None	46.0/54.6	8.4/NA									"Monitoring: Sediment Moisture(%):46.0/62.5;  Ignition Loss(%)8.4/7.8"	2018/9/20	2018/9/20
PRA000075	SAA004203	ST023				Hyogo_sed2-3_2016	Sediment	"Marine sediment"	2016	11	1	2016-11-01T10:55			Fair	Asia	Japan	"Center of Kobe Port, Hyogo"	34.66444444		135.1944444														20	22								2.75		22	13.8	Silty	"Gray black"	"Greenish brown"	"Hydrogen sulfide odor_Faint"	None	61.6/69.5	8.0/NA									"Monitoring: Sediment Moisture(%):61.6/62.5;  Ignition Loss(%)8.0/7.8"	2018/9/20	2018/9/20
PRA000075	SAA004113	ST023				Okayama_sed1-1_2016	Sediment	"Marine sediment"	2016	10	26	2016-10-26T10:45			Cloudy	Asia	Japan	"Offshore of Mizushima, Okayama"	34.48055556		133.665														21.2	23								2.5		22.4	10.5	Ooze	"Greenish gray"	Green_Dark	"Earthy odor"	"Small pieces of shell"	51.6/52.9	7.5/NA									"Monitoring: Sediment Moisture(%):51.6/48.9;  Ignition Loss(%)7.5/5.3"	2018/9/20	2018/9/20
PRA000075	SAA004114	ST023				Okayama_sed1-2_2016	Sediment	"Marine sediment"	2016	10	26	2016-10-26T11:05			Cloudy	Asia	Japan	"Offshore of Mizushima, Okayama"	34.48055556		133.665														22	22.6								2.5		22.2	8.8	Ooze	"Greenish gray"	Green_Dark	"Earthy odor"	"Small pieces of shell"	48.2/49.2	6.6/NA									"Monitoring: Sediment Moisture(%):48.2/48.9;  Ignition Loss(%)6.6/5.3"	2018/9/20	2018/9/20
PRA000075	SAA004115	ST023				Okayama_sed1-3_2016	Sediment	"Marine sediment"	2016	10	26	2016-10-26T11:27			Cloudy	Asia	Japan	"Offshore of Mizushima, Okayama"	34.48055556		133.665														21.8	22.3								2.5		22.4	10.1	Ooze	"Greenish gray"	Green_Dark	"Earthy odor"	"Small pieces of shell"	48.2/49.9	6.0/NA									"Monitoring: Sediment Moisture(%):48.2/48.9;  Ignition Loss(%)6.0/5.3"	2018/9/20	2018/9/20
PRA000075	SAA004204	ST023				Yamaguchi_sed1-1_2016	Sediment	"Marine sediment"	2016	10	14	2016-10-14T09:23			Cloudy	Asia	Japan	"Tokuyama Bay, Yamaguchi"	33.99361111		131.7505556														20.6	23.6								3.5		24	25.6	Silt	"Grayish yellow green"	Blue-green	"Hydrogen sulfide odor_Faint"	None	61.3/68.5	10.2/NA									"Monitoring: Sediment Moisture(%):61.3/68.3;  Ignition Loss(%)10.2/7.9"	2018/9/20	2018/9/20
PRA000075	SAA004205	ST023				Yamaguchi_sed1-2_2016	Sediment	"Marine sediment"	2016	10	14	2016-10-14T09:26			Cloudy	Asia	Japan	"Tokuyama Bay, Yamaguchi"	33.99361111		131.7505556														20.6	23.6								3.5		24	26.2	Silt	"Grayish yellow green"	Blue-green	"Hydrogen sulfide odor_Faint"	None	60.5/69.3	10.6/NA									"Monitoring: Sediment Moisture(%):60.5/68.3;  Ignition Loss(%)10.6/7.9"	2018/9/20	2018/9/20
PRA000075	SAA004206	ST023				Yamaguchi_sed1-3_2016	Sediment	"Marine sediment"	2016	10	14	2016-10-14T09:30			Cloudy	Asia	Japan	"Tokuyama Bay, Yamaguchi"	33.99361111		131.7505556														20.6	23.6								3.5		24	26.5	Silt	"Grayish yellow green"	Blue-green	"Hydrogen sulfide odor_Faint"	None	62.2/68.9	10.5/NA									"Monitoring: Sediment Moisture(%):62.2/68.3;  Ignition Loss(%)10.5/7.9"	2018/9/20	2018/9/20
PRA000075	SAA004207	ST023				Yamaguchi_sed3-1_2016	Sediment	"Marine sediment"	2016	11	4	2016-11-04T11:20			Fair	Asia	Japan	"Offshore of Hagi, Yamaguchi"	34.43805556		131.3794444														18	21								9.5		18	9.5	"Fine sand"	Gray_Light	Blue-green	Odorless	None	29.9/33.4	7.1/NA									"Monitoring: Sediment Moisture(%):29.9/30.0;  Ignition Loss(%)7.1/4.6"	2018/9/20	2018/9/20
PRA000075	SAA004208	ST023				Yamaguchi_sed3-2_2016	Sediment	"Marine sediment"	2016	11	4	2016-11-04T11:25			Fair	Asia	Japan	"Offshore of Hagi, Yamaguchi"	34.43805556		131.3794444														18	21								9.5		18	9.5	"Fine sand"	Gray_Light	Blue-green	Odorless	None	29.8/34.7	7.1/NA									"Monitoring: Sediment Moisture(%):29.4/30.0;  Ignition Loss(%)7.2/4.6"	2018/9/20	2018/9/20
PRA000075	SAA004209	ST023				Yamaguchi_sed3-3_2016	Sediment	"Marine sediment"	2016	11	4	2016-11-04T11:30			Fair	Asia	Japan	"Offshore of Hagi, Yamaguchi"	34.43805556		131.3794444														18	21								9.5		18	9.5	"Fine sand"	Gray_Light	Blue-green	Odorless	None	29.4/34.0	7.2/NA									"Monitoring: Sediment Moisture(%):29.4/30.0;  Ignition Loss(%)7.2/4.6"	2018/9/20	2018/9/20
PRA000075	SAA004210	ST023				Kagawa_sed1-1_2016	Sediment	"Marine sediment"	2016	10	4	2016-10-04T09:20			Cloudy	Asia	Japan	"Takamatsu Port, Kagawa"	34.34972222		134.0788889														28.7	27.3								1.8		27.9	1.9	Muddy	Black	Green	"Hydrogen sulfide odor; "	"Asian mussels; Goblinfish; Shell; Vegetative piece"	62.5/71.3	19.0/NA									"Monitoring: Sediment Moisture(%):62.5/60.7;  Ignition Loss(%)19.0/8.8"	2018/9/20	2018/9/20
PRA000075	SAA004211	ST023				Kagawa_sed1-2_2016	Sediment	"Marine sediment"	2016	10	4	2016-10-04T09:25			Cloudy	Asia	Japan	"Takamatsu Port, Kagawa"	34.34972222		134.0788889														28.7	27.8								3		28.1	5.3	"Sandy mud"	Black	Green	"Hydrogen sulfide odor; "	"Asian mussels; P. nipponica ; Shell; Vegetative piece"	34.2/54.8	6.3/NA									"Monitoring: Sediment Moisture(%):34.2/60.7;  Ignition Loss(%)6.3/8.8"	2018/9/20	2018/9/20
PRA000075	SAA004212	ST023				Kagawa_sed1-3_2016	Sediment	"Marine sediment"	2016	10	4	2016-10-04T09:40			Cloudy	Asia	Japan	"Takamatsu Port, Kagawa"	34.34972222		134.0788889														28.2	27.9								4		27.8	5	Muddy	Black	Green	"Hydrogen sulfide odor"	Benthos	40.2/64.6	7.5/NA									"Monitoring: Sediment Moisture(%):40.2/60.7;  Ignition Loss(%)7.5/8.8"	2018/9/20	2018/9/20
PRA000075	SAA004119	ST023				FukuokaCity_sed1-1_2016	Sediment	"Marine sediment"	2016	10	18	2016-10-18T10:10			Fair	Asia	Japan	"Hakata Bay, Fukuoka"	33.60833333		130.3297222														23	23.1								1.5		22	8.9	Silt	Gray	"Yellowish green_Dark"	Odorless	None	42.0/54.8	9.2/NA									"Monitoring: Sediment Moisture(%):42.0/54.2;  Ignition Loss(%)9.2/8.7"	2018/9/20	2018/9/20
PRA000075	SAA004120	ST023				FukuokaCity_sed1-2_2016	Sediment	"Marine sediment"	2016	10	18	2016-10-18T09:51			Fair	Asia	Japan	"Hakata Bay, Fukuoka"	33.60833333		130.3297222														22.9	23.1								1.3		22.2	8.7	Silt	Gray	"Yellowish green_Dark"	Odorless	None	44.0/57.4	9.7/NA									"Monitoring: Sediment Moisture(%):44.0/54.2;  Ignition Loss(%)9.7/8.7"	2018/9/20	2018/9/20
PRA000075	SAA004121	ST023				FukuokaCity_sed1-3_2016	Sediment	"Marine sediment"	2016	10	18	2016-10-18T09:20			Fair	Asia	Japan	"Hakata Bay, Fukuoka"	33.60833333		130.3297222														22.9	23.2								1.2		22	8	Silt	Gray	"Yellowish green_Dark"	Odorless	None	44.0/54.0	9.7/NA									"Monitoring: Sediment Moisture(%):44.0/54.2;  Ignition Loss(%)9.7/8.7"	2018/9/20	2018/9/20
PRA000075	SAA004213	ST024				Oita_sed1-1_2016	Sediment	"River sediment"	2016	10	31	2016-10-31T11:40			Cloudy	Asia	Japan	"Mouth of Riv. Oita, Oita"	33.25722222		131.6175														19.6	18.2										22.8	2.2	Sandy	Black	"Greenish brown"	Odorless	"Shell; Small pieces of shell; Stone"	19.6/20.8	1.1/NA									"Monitoring: Sediment Moisture(%):19.6/21.5;  Ignition Loss(%)1.1/1.0"	2018/9/20	2018/9/20
PRA000075	SAA004214	ST024				Oita_sed1-2_2016	Sediment	"River sediment"	2016	10	31	2016-10-31T11:10			Cloudy	Asia	Japan	"Mouth of Riv. Oita, Oita"	33.25722222		131.6175														18.5	17.8										22.3	2.4	Sandy	Black	"Greenish brown"	Odorless	"Shell; Small pieces of shell; Stone"	14.5/21.1	1.0/NA									"Monitoring: Sediment Moisture(%):14.5/21.5;  Ignition Loss(%)1.0/1.0"	2018/9/20	2018/9/20
PRA000075	SAA004215	ST024				Oita_sed1-3_2016	Sediment	"River sediment"	2016	10	31	2016-10-31T10:00			Cloudy	Asia	Japan	"Mouth of Riv. Oita, Oita"	33.25722222		131.6175														18.1	17.5										22.4	2.9	Sandy	Black	"Greenish brown"	Odorless	"Shell; Small pieces of shell; Stone"	15.1/21.6	1.3/NA									"Monitoring: Sediment Moisture(%):15.1/21.5;  Ignition Loss(%)1.3/1.0"	2018/9/20	2018/9/20
PRA000076	SAA004236	ST024				Hokkaido_sed1-1_2016	Sediment	"River sediment"	2016	9	13	2016-09-13T09:30			Fair	Asia	Japan	"Onnnenai-ohashi Bridge, Riv. Teshio (BifukaTown), Hokkaido"	44.59138889		142.3063889														15.1											18	0		Clear	"Dark brown"	"Riverweed odor"		43.2/31.4	5.0/3.1									"This sample was used as the pooled sample:SAA004239 for chemical analysis"	2018/10/05	2018/10/05
PRA000076	SAA004237	ST024				Hokkaido_sed1-2_2016	Sediment	"River sediment"	2016	9	13	2016-09-13T09:30			Fair	Asia	Japan	"Onnnenai-ohashi Bridge, Riv. Teshio (BifukaTown), Hokkaido"	44.59138889		142.3063889														15.1											18	0		Clear	"Dark brown"	"Riverweed odor"		39.7/31.4	4.7/3.1									"This sample was used as the pooled sample:SAA004239 for chemical analysis"	2018/10/05	2018/10/05
PRA000076	SAA004238	ST024				Hokkaido_sed1-3_2016	Sediment	"River sediment"	2016	9	13	2016-09-13T09:30			Fair	Asia	Japan	"Onnnenai-ohashi Bridge, Riv. Teshio (BifukaTown), Hokkaido"	44.59138889		142.3063889														15.1											18	0		Clear	"Dark brown"	"Riverweed odor"		28.5/31.4	2.5/3.1									"This sample was used as the pooled sample:SAA004239 for chemical analysis"	2018/10/05	2018/10/05
PRA000076	SAA004239	ST024				Hokkaido_sed1-123_2016	Sediment	"River sediment"	2016	9	13	2016-09-13T09:30			Fair	Asia	Japan	"Onnnenai-ohashi Bridge, Riv. Teshio (BifukaTown), Hokkaido"	44.59138889		142.3063889														15.1																												"n=3 pooled:SAA004236, SAA004237 and SAA004238"	2018/10/05	2018/10/05
PRA000076	SAA004240	ST024				Hokkaido_sed2-1_2016	Sediment	"River sediment"	2016	11	2	2016-11-02T11:15			Fair	Asia	Japan	"Ishikarikakokyo Bridge, Mouth of Riv. Ishikari (Ishikari City), Hokkaido"	43.22861111		141.3519444														4.2	4.6										6			Brown	"Dark brown"	Odorless		48.6/34.8	6.4/3.8									"This sample was used as the pooled sample:SAA004243 for chemical analysis"	2018/10/05	2018/10/05
PRA000076	SAA004241	ST024				Hokkaido_sed2-2_2016	Sediment	"River sediment"	2016	11	2	2016-11-02T11:35			Fair	Asia	Japan	"Ishikarikakokyo Bridge, Mouth of Riv. Ishikari (Ishikari City), Hokkaido"	43.22861111		141.3519444														4.8	4.6										4			Brown	"Dark brown"	Odorless		22.7/34.8	2.6/3.8									"This sample was used as the pooled sample:SAA004243 for chemical analysis"	2018/10/05	2018/10/05
PRA000076	SAA004242	ST024				Hokkaido_sed2-3_2016	Sediment	"River sediment"	2016	11	2	2016-11-02T12:05			Fair	Asia	Japan	"Ishikarikakokyo Bridge, Mouth of Riv. Ishikari (Ishikari City), Hokkaido"	43.22861111		141.3519444														4.7	4.6										6			Brown	"Dark brown"	Odorless		41.9/34.8	5.6/3.8									"This sample was used as the pooled sample:SAA004243 for chemical analysis"	2018/10/05	2018/10/05
PRA000076	SAA004243	ST024				Hokkaido_sed2-123_2016	Sediment	"River sediment"	2016	11	2				Fair	Asia	Japan	"Ishikarikakokyo Bridge, Mouth of Riv. Ishikari (Ishikari City), Hokkaido"	43.22861111		141.3519444																																										"n=3 pooled: SAA004240, SAA004241and SAA004242"	2018/10/05	2018/10/05
PRA000076	SAA004244	ST023				Hokkaido_sed3-1_2016	Sediment	"Marine sediment"	2016	9	14	2016-09-14T10:50			Fair	Asia	Japan	"Tomakomai Port, Hokkaido"	42.63138889		141.6288889														19.3												16		Black	"Greenish blue"	"Hydrogen sulfide odor"		45.6/48.9	5.7/4.8									"This sample was used as the pooled sample:SAA004247 for chemical analysis"	2018/10/5	2018/10/5
PRA000076	SAA004245	ST023				Hokkaido_sed3-2_2016	Sediment	"Marine sediment"	2016	9	14	2016-09-14T11:05			Fair	Asia	Japan	"Tomakomai Port, Hokkaido"	42.63138889		141.6288889														19.4												16		Black	"Greenish blue"	"Hydrogen sulfide odor"		47.0/48.9	7.6/4.8									"This sample was used as the pooled sample:SAA004247 for chemical analysis"	2018/10/5	2018/10/5
PRA000076	SAA004246	ST023				Hokkaido_sed3-3_2016	Sediment	"Marine sediment"	2016	9	14	2016-09-14T11:15			Fair	Asia	Japan	"Tomakomai Port, Hokkaido"	42.63138889		141.6288889														19.4												16		Black	"Greenish blue"	"Hydrogen sulfide odor"		43.0/48.9	5.3/4.8									"This sample was used as the pooled sample:SAA004247 for chemical analysis"	2018/10/5	2018/10/5
PRA000076	SAA004247	ST023				Hokkaido_sed3-123_2016	Sediment	"Marine sediment"	2016	9	14				Fair	Asia	Japan	"Tomakomai Port, Hokkaido"	42.63138889		141.6288889																																										"n=3 pooled: SAA004244, SAA004245 and SAA004246"	2018/10/5	2018/10/5
PRA000076	SAA004079	ST024				Iwate_sed1-3_2016	Sediment	"River sediment"	2016	10	12	2016-10-12T10:45			Cloudy/Fair	Asia	Japan	"Riv. Toyosawa (Hanamaki City), Iwate"	39.38166667		141.1191667														16	14.2										13	0.2	Sandy	Brown_Light	"Dark brown_Light"	Odorless	None	21.1/21.4	1.6/NA									"Monitoring: This sample was used as the pooled sample:SAA004248 for chemical analysis; Sediment Moisture(%): 21.1/21.0; Ignition Loss(%):1.6/1.4"	2018/09/07	2018/09/07
PRA000076	SAA004077	ST024				Iwate_sed1-1_2016	Sediment	"River sediment"	2016	10	12	2016-10-12T10:50			"Cloudy with occasional rain"	Asia	Japan	"Riv. Toyosawa (Hanamaki City), Iwate"	39.38166667		141.1191667														18	14										13	0.2	Sandy	Brown_Light	"Dark brown_Light"	Odorless	None	21.4/20.0	1.6/NA									"Monitoring: This sample was used as the pooled sample:SAA004248 for chemical analysis; Sediment Moisture(%): 21.4/21.0; Ignition Loss(%):1.6/1.4"	2018/09/07	2018/09/07
PRA000076	SAA004078	ST024				Iwate_sed1-2_2016	Sediment	"River sediment"	2016	10	12	2016-10-12T10:55			Cloudy/Fair	Asia	Japan	"Riv. Toyosawa (Hanamaki City), Iwate"	39.38166667		141.1191667														16	14										13	0.2	Sandy	Brown_Light	"Dark brown_Light"	Odorless	None	20.1/18.2	1.5/NA									"Monitoring: This sample was used as the pooled sample:SAA004248 for chemical analysis; Sediment Moisture(%): 20.1/21.0; Ignition Loss(%):1.5/1.4"	2018/09/07	2018/09/07
PRA000076	SAA004248	ST024				Iwate_sed1-123_2016	Sediment	"River sediment"	2016	10	12					Asia	Japan	"Riv. Toyosawa (Hanamaki City), Iwate"	39.38166667		141.1191667																																										"n=3 pooled: SAA004077, SAA004078 and SAA004079"	2018/10/05	2018/10/05
PRA000076	SAA004249	ST023				Miyagi_sed1_1_2016	Sediment	"Marine sediment"	2016	10	18	2016-10-18T10:15			Fair	Asia	Japan	"Sendai Bay (Matsushima Bay), Miyagi"	38.35333333		141.0975														24.6	18.7								1.9		20.9	4.1	Muddy	"Grayish green"	Clear	Odorless	None	53.5/65.6	10.2/9.5										2018/10/5	2018/10/5
PRA000076	SAA004166	ST024				Sendai_sed1_1_2016	Sediment	"River sediment"	2016	11	16	2016-11-16T10:00			Fair	Asia	Japan	"Hirose-ohashi Bridge, Riv. Hirose (Sendai City), Miyagi"	38.21333333		140.9088889														9.9	10.4										11.3	0.2	Sandy	"Dark brown"	Clear	"Swampy odor_Faint"	None	9.7/9.5	1.1/NA									"Monitoring: This sample was used as the pooled sample:SAA004250 for chemical analysis; Sediment Moisture(%): 9.7/14.3; Ignition Loss(%):1.1/0.9"	2018/09/20	2018/09/20
PRA000076	SAA004167	ST024				Sendai_sed1_2_2016	Sediment	"River sediment"	2016	11	16	2016-11-16T10:23			Fair	Asia	Japan	"Hirose-ohashi Bridge, Riv. Hirose (Sendai City), Miyagi"	38.21333333		140.9088889														9.9	10.6										11	0.5	Sandy	"Dark brown"	Clear	"Swampy odor_Faint"	None	11.4/14.7	1.1/NA									"Monitoring: This sample was used as the pooled sample:SAA004250 for chemical analysis; Sediment Moisture(%): 11.4/14.3; Ignition Loss(%):1.1/0.9"	2018/09/20	2018/09/20
PRA000076	SAA004165	ST024				Sendai_sed1_3_2016	Sediment	"River sediment"	2016	11	16	2016-11-16T10:35			Fair	Asia	Japan	"Hirose-ohashi Bridge, Riv. Hirose (Sendai City), Miyagi"	38.21333333		140.9088889														9.9	10.6										11	0.2	Sandy	"Dark brown"	Clear	"Swampy odor_Faint"	None	10.1/13.1	1.0/NA									"Monitoring: This sample was used as the pooled sample:SAA004250 for chemical analysis; Sediment Moisture(%): 10.1/14.3; Ignition Loss(%):1.0/0.9"	2018/09/20	2018/09/20
PRA000076	SAA004250	ST024				Sendai_sed1_123_2016	Sediment	"River sediment"	2016	11	16				Fair	Asia	Japan	"Hirose-ohashi Bridge, Riv. Hirose (Sendai City), Miyagi"	38.21333333		140.9088889																																										"n=3 pooled: SAA004166, SAA004167 and SAA004165"	2018/10/05	2018/10/05
PRA000076	SAA004251	ST024				Akita_sed2-1_2016	Sediment	"Lake sediment"	2016	9	7	2016-09-07T10:02			Cloudy	Asia	Japan	"Lake Hachiro, Akita"	39.92277778		139.9988889														25.7	26.7								0.6		25.4	8	Pelitic	"Gray black"	Green_Light	"Hydrogen sulfide odor_Faint"	None	81.6/74.7	11.3/7.0									"This sample was used as the pooled sample:SAA004254 for chemical analysis"	2018/10/5	2018/10/5
PRA000076	SAA004252	ST024				Akita_sed2-2_2016	Sediment	"Lake sediment"	2016	9	7	2016-09-07T10:30			Cloudy	Asia	Japan	"Lake Hachiro, Akita"	39.92277778		139.9988889														28.8	26.7								0.6		25.3	6.4	Pelitic	"Gray black"	"Yellowish green_Dark"	"Hydrogen sulfide odor_Faint"	None	71.4/NA	7.8/.70									"This sample was used as the pooled sample:SAA004254 for chemical analysis"	2018/10/5	2018/10/5
PRA000076	SAA004253	ST024				Akita_sed2-3_2016	Sediment	"Lake sediment"	2016	9	7	2016-09-07T10:46			Cloudy	Asia	Japan	"Lake Hachiro, Akita"	39.92277778		139.9988889														27.7	26.8								0.6		25.5	6.6	Pelitic	"Gray black"	"Yellowish green_Dark"	"Hydrogen sulfide odor_Faint"	None	70.5/NA	7.4/7.0									"This sample was used as the pooled sample:SAA004254 for chemical analysis"	2018/10/5	2018/10/5
PRA000076	SAA004254	ST024				Akita_sed2-123_2016	Sediment	"Lake sediment"	2016	9	7				Cloudy	Asia	Japan	"Lake Hachiro, Akita"	39.92277778		139.9988889																																										"n=3 pooled: SAA004251, SAA004252 and SAA004253"	2018/10/5	2018/10/5
PRA000076	SAA004255	ST024				Yamagata_sed1-1_2016	Sediment	"River sediment"	2016	10	28	2016-10-28T09:50			Cloudy	Asia	Japan	"Mouth of Riv. Mogami (Sakata City), Yamagata"	38.88722222		139.8433333														13.1	13.2										13.2	0.3	Muddy	"Gray black"	"Yellowish brown_Light"	"Swampy odor"	"Leaf; Tree branch"	31.9/36.9	3.6/3.5									"This sample was used as the pooled sample:SAA004258 for chemical analysis"	2018/10/05	2018/10/05
PRA000076	SAA004256	ST024				Yamagata_sed1-2_2016	Sediment	"River sediment"	2016	10	28	2016-10-28T09:50			Cloudy	Asia	Japan	"Mouth of Riv. Mogami (Sakata City), Yamagata"	38.88722222		139.8433333														13.1	13.2										13.2	0.3	Muddy	"Gray black"	"Yellowish brown_Light"	"Swampy odor"	"Leaf; Tree branch"	33.2/NA	3.6/3.5									"This sample was used as the pooled sample:SAA004258 for chemical analysis"	2018/10/05	2018/10/05
PRA000076	SAA004257	ST024				Yamagata_sed1-3_2016	Sediment	"River sediment"	2016	10	28	2016-10-28T09:50			Cloudy	Asia	Japan	"Mouth of Riv. Mogami (Sakata City), Yamagata"	38.88722222		139.8433333														13.1	13.2										13.2	0.3	Muddy	"Gray black"	"Yellowish brown_Light"	"Swampy odor"	"Leaf; Tree branch"	34.8/NA	3.7/3.5									"This sample was used as the pooled sample:SAA004258 for chemical analysis"	2018/10/05	2018/10/05
PRA000076	SAA004258	ST024				Yamagata_sed1-123_2016	Sediment	"River sediment"	2016	10	28	2016-10-28T09:50			Cloudy	Asia	Japan	"Mouth of Riv. Mogami (Sakata City), Yamagata"	38.88722222		139.8433333																																										"n=3 pooled: SAA004255, SAA004256 and SAA004257"	2018/10/05	2018/10/05
PRA000076	SAA004259	ST023				Fukushima_sed1-1_2016	Sediment	"Marine sediment"	2016	10	18	2016-10-18T10:05			Fair	Asia	Japan	"Onahama Port, Fukushima"	36.92472222		140.8752778														24.5	21.5								4.7		21.4	12.7	Muddy	"Greenish brown"	"Blue green"	"Seaweed odor_Faint"	"Pebble;Tree branch"	52.0/59.1	10.0/9.1									"This sample was used as the pooled sample:SAA004262 for chemical analysis"	2018/10/5	2018/10/5
PRA000076	SAA004260	ST023				Fukushima_sed1-2_2016	Sediment	"Marine sediment"	2016	10	18	2016-10-18T11:00			Fair	Asia	Japan	"Onahama Port, Fukushima"	36.92472222		140.8752778														24.5	21.5								4.2		21.8	12.4	Muddy	"Greenish brown"	"Blue green"	"Seaweed odor_Faint"	None	52.3/NA	15.5/9.1									"This sample was used as the pooled sample:SAA004262 for chemical analysis"	2018/10/5	2018/10/5
PRA000076	SAA004261	ST023				Fukushima_sed1-3_2016	Sediment	"Marine sediment"	2016	10	18	2016-10-18T11:32			Fair	Asia	Japan	"Onahama Port, Fukushima"	36.92472222		140.8752778														24	21.5								4.8		21	12.4	Muddy	"Gray black"	"Blue green"	"Seaweed odor_Faint"	None	53.1/NA	13.5/9.1									"This sample was used as the pooled sample:SAA004262 for chemical analysis"	2018/10/5	2018/10/5
PRA000076	SAA004262	ST023				Fukushima_sed1-123_2016	Sediment	"Marine sediment"	2016	10	18				Fair	Asia	Japan	"Onahama Port, Fukushima"	36.92472222		140.8752778																																										"n=3 pooled: SAA004259, SAA004260 and SAA004261"	2018/10/5	2018/10/5
PRA000076	SAA004263	ST024				Ibaraki_sed1-1_2016	Sediment	"River sediment"	2016	11	2	2016-11-02T09:50			Cloudy	Asia	Japan	"Kamome-ohasi Bridge, Mouth of Riv. Tone (Kamisu City), Ibaraki"	35.77638889		140.7569444														14.3	16											1.1	Mud	Black	"Yellowish green_Light"	"Swampy odor"	None	32.0/31.1	3.9/2.7									"This sample was used as the pooled sample:SAA004266 for chemical analysis"	2018/10/05	2018/10/05
PRA000076	SAA004264	ST024				Ibaraki_sed1-2_2016	Sediment	"River sediment"	2016	11	2	2016-11-02T10:10			Cloudy	Asia	Japan	"Kamome-ohasi Bridge, Mouth of Riv. Tone (Kamisu City), Ibaraki"	35.77638889		140.7569444														13.1	16											6.8	Mud	Black	"Yellowish green_Light"	"Swampy odor"	Shelfish	33.0/NA	4.7/2.7									"This sample was used as the pooled sample:SAA004266 for chemical analysis"	2018/10/05	2018/10/05
PRA000076	SAA004265	ST024				Ibaraki_sed1-3_2016	Sediment	"River sediment"	2016	11	2	2016-11-02T10:42			Cloudy	Asia	Japan	"Kamome-ohasi Bridge, Mouth of Riv. Tone (Kamisu City), Ibaraki"	35.77638889		140.7569444														13.6	15.8											2.2	"Sandy mud"	"Blackish brown"	"Yellowish green_Light"	"Seawater odor"	Shelfish	23.0/NA	1.4/2.7									"This sample was used as the pooled sample:SAA004266 for chemical analysis"	2018/10/05	2018/10/05
PRA000076	SAA004266	ST024				Ibaraki_sed1-123_2016	Sediment	"River sediment"	2016	11	2				Cloudy	Asia	Japan	"Kamome-ohasi Bridge, Mouth of Riv. Tone (Kamisu City), Ibaraki"	35.77638889		140.7569444																																										"n=3 pooled: SAA004263, SAA004264 and SAA004265"	2018/10/05	2018/10/05
PRA000076	SAA004267	ST024				Tochigi_sed1-1_2016	Sediment	"River sediment"	2016	10	12	2016-10-12T10:27			Fair	Asia	Japan	"Tagawa area-Toshuko Weir (Utsunomiya City), Tochigi"	36.52805556		139.8855556														16.5	17.6										16.5	0.5	Sandy	"Blackish brown"	Clear	"Riverweed odor"		NA/22.4	NA/0.9									"This sample was used as the pooled sample:SAA004270 for chemical analysis"	2018/10/05	2018/10/05
PRA000076	SAA004268	ST024				Tochigi_sed1-2_2016	Sediment	"River sediment"	2016	10	12	2016-10-12T11:39			Fair	Asia	Japan	"Tagawa area-Toshuko Weir (Utsunomiya City), Tochigi"	36.52805556		139.8855556														23.2	18.6										17	0.4	Sandy	"Blackish brown"	Clear	"Riverweed odor_Faint"			NA/0.9									"This sample was used as the pooled sample:SAA004270 for chemical analysis"	2018/10/05	2018/10/05
PRA000076	SAA004269	ST024				Tochigi_sed1-3_2016	Sediment	"River sediment"	2016	10	12	2016-10-12T12:45			Fair	Asia	Japan	"Tagawa area-Toshuko Weir (Utsunomiya City), Tochigi"	36.52805556		139.8855556														27	19										18.5	0.2	Sandy	"Blackish brown"	Clear	"Riverweed odor"			NA/0.9									"This sample was used as the pooled sample:SAA004270 for chemical analysis"	2018/10/05	2018/10/05
PRA000076	SAA004270	ST024				Tochigi_sed1-123_2016	Sediment	"River sediment"	2016	10	12				Fair	Asia	Japan	"Tagawa area-Toshuko Weir (Utsunomiya City), Tochigi"	36.52805556		139.8855556																																										"n=3 pooled: SAA004166, SAA004167 and SAA004165"	2018/10/05	2018/10/05
PRA000076	SAA004171	ST023				Chiba_sed1-1_2016	Sediment	"Marine sediment"	2016	10	19	2016-10-19T09:42			Cloudy	Asia	Japan	"Ichihara-Anesaki Coast, Chiba"	35.52166667		140.0283333														22.3	21.9								5.6		21.3	15.3	Silt	"Grayish yellow green_Dark"	Green_Dark	"Hydrogen sulfide odor"	"Pieces of shell"	54.4/64.4	8.4/NA									"Monitoring: This sample was used as the pooled sample:SAA004271 for chemical analysis; Sediment Moisture(%): 54.4/68.4; Ignition Loss(%):8.7/7.1"	2018/10/5	2018/10/5
PRA000076	SAA004172	ST023				Chiba_sed1-2_2016	Sediment	"Marine sediment"	2016	10	19	2016-10-19T10:00			Cloudy	Asia	Japan	"Ichihara-Anesaki Coast, Chiba"	35.52166667		140.0283333														21.9	22.1								4.8		21	16.2	Silt	"Grayish yellow green_Dark"	Green_Dark	"Hydrogen sulfide odor_Strong"	None	74.2/82.8	13.2/NA									"Monitoring: This sample was used as the pooled sample:SAA004271 for chemical analysis;Sediment Moisture(%): 74.2/68.4; Ignition Loss(%):13.2/7.1"	2018/10/5	2018/10/5
PRA000076	SAA004173	ST023				Chiba_sed1-3_2016	Sediment	"Marine sediment"	2016	10	19	2016-10-19T10:14			Cloudy	Asia	Japan	"Ichihara-Anesaki Coast, Chiba"	35.52166667		140.0283333														22.1	22.3								5.3		21.4	15.5	Silt	"Grayish yellow green"	Green_Dark	"Hydrogen sulfide odor"	"Pieces of shell"	48.4/58.6	7.9/NA									"Monitoring: This sample was used as the pooled sample:SAA004271 for chemical analysis; Sediment Moisture(%): 48.4/68.4; Ignition Loss(%):7.9/7.1"	2018/10/5	2018/10/5
PRA000076	SAA004271	ST023				Chiba_sed1-123_2016	Sediment	"Marine sediment"	2016	10	19				Cloudy	Asia	Japan	"Ichihara-Anesaki Coast, Chiba"	35.52166667		140.0283333																																										"n=3 pooled: SAA004171, SAA004172 and SAA004173"	2018/10/5	2018/10/5
PRA000076	SAA004272	ST024				ChibaCity_sed1-1_2016	Sediment	"River sediment"	2016	11	10	2016-11-10T10:40			Cloudy	Asia	Japan	"Mouth of Riv. Hanami (Chiba City), Chiba"	35.63472222		140.04694440														11.2	17										17.1	1.5	Muddy	"Gray black_Dark"	Clear	"Seaweed odor"	Shelfish	25.8/25.4	3.0/1.8									"This sample was used as the pooled sample:SAA004275 for chemical analysis"	2018/10/05	2018/10/05
PRA000076	SAA004273	ST024				ChibaCity_sed1-2_2016	Sediment	"River sediment"	2016	11	10	2016-11-10T11:10			Cloudy	Asia	Japan	"Mouth of Riv. Hanami (Chiba City), Chiba"	35.63472222		140.04694440														13.2	18										17.2	1.8	Muddy	"Gray black_Dark"	Clear	"Seaweed odor"	Shelfish	25.5/NA	2.8/1.8									"This sample was used as the pooled sample:SAA004275 for chemical analysis"	2018/10/05	2018/10/05
PRA000076	SAA004274	ST024				ChibaCity_sed1-3_2016	Sediment	"River sediment"	2016	11	10	2016-11-10T11:35			Cloudy	Asia	Japan	"Mouth of Riv. Hanami (Chiba City), Chiba"	35.63472222		140.04694440														13.2	19.4										17	2	Muddy	"Gray black_Dark"	Clear	"Seaweed odor"	Shelfish	27.0/NA	2.8/1.8									"This sample was used as the pooled sample:SAA004275 for chemical analysis"	2018/10/05	2018/10/05
PRA000076	SAA004275	ST024				ChibaCity_sed1-123_2016	Sediment	"River sediment"	2016	11	10				Cloudy	Asia	Japan	"Mouth of Riv. Hanami (Chiba City), Chiba"	35.63472222		140.04694440																																										"n=3 pooled: SAA004272, SAA004273 and SAA004274"	2018/10/05	2018/10/05
PRA000076	SAA004083	ST024				Tokyo_sed1-1_2016	Sediment	"River sediment"	2016	11	1	2016-11-01T09:55			Rain	Asia	Japan	"Mouth of Riv. Arakawa (Koto Ward), Tokyo"	35.64583333		139.8463889														12.2	18.2								0.8		19.4	3.6	Silt	"Blackish brown"	"Grayish yellow green"	Odorless	Shelfish	47.2/53.5	9.0/NA									"Monitoring: This sample was used as the pooled sample:SAA004276 for chemical analysis; Sediment Moisture(%): 47.2/56.4; Ignition Loss(%):9.0/8.3"	2018/09/07	2018/09/07
PRA000076	SAA004084	ST024				Tokyo_sed1-2_2016	Sediment	"River sediment"	2016	11	1	2016-11-01T10:50			Cloudy	Asia	Japan	"Mouth of Riv. Arakawa (Koto Ward), Tokyo"	35.64583333		139.8463889														13.2	18.2								0.9		19.2	2.7	Silt	"Blackish brown"	"Greenish brown"	Odorless	Shelfish	46.9/55.0	8.8/NA									"Monitoring: This sample was used as the pooled sample:SAA004276 for chemical analysis; Sediment Moisture(%): 46.9/56.4; Ignition Loss(%):8.8/8.3"	2018/09/07	2018/09/07
PRA000076	SAA004085	ST024				Tokyo_sed1-3_2016	Sediment	"River sediment"	2016	11	1	2016-11-01T11:10			Cloudy	Asia	Japan	"Mouth of Riv. Arakawa (Koto Ward), Tokyo"	35.64583333		139.8463889														13.2	18.2								0.8		19.2	2.2	Silt	"Blackish brown"	"Greenish brown"	Odorless	Shell	51.0/59.4	10.0/NA									"Monitoring: This sample was used as the pooled sample:SAA004276 for chemical analysis; Sediment Moisture(%): 51.0/56.4; Ignition Loss(%):10.0/8.3"	2018/09/07	2018/09/07
PRA000076	SAA004276	ST024				Tokyo_sed1-123_2016	Sediment	"River sediment"	2016	11	1					Asia	Japan	"Mouth of Riv. Arakawa (Koto Ward), Tokyo"	35.64583333		139.8463889																																										"n=3 pooled: SAA004083, SAA004084 and SAA004085"	2018/10/05	2018/10/05
PRA000076	SAA004086	ST024				Tokyo_sed2-1_2016	Sediment	"River sediment"	2016	11	1	2016-11-01T12:10			Cloudy	Asia	Japan	"Mouth of Riv. Sumida (Minato Ward), Tokyo"	35.66		139.7705556														14.4	19.2								2.2		20.2	4.4	Silt	Black	Green_Dark	"Hydrogen sulfide odor_Strong"	Shell	43.7/66.9	11.8/NA									"Monitoring: This sample was used as the pooled sample:SAA004277 for chemical analysis; Sediment Moisture(%): 43.7/68.0; Ignition Loss(%):11.8/11.2"	2018/09/07	2018/09/07
PRA000076	SAA004087	ST024				Tokyo_sed2-2_2016	Sediment	"River sediment"	2016	11	1	2016-11-01T12:55			Fair	Asia	Japan	"Mouth of Riv. Sumida (Minato Ward), Tokyo"	35.66		139.7705556														14.4	19.4								2.2		20.6	4.7	Silt	Black	Green_Dark	"Hydrogen sulfide odor"	Shell	39.8/67.9	15.2/NA									"Monitoring: This sample was used as the pooled sample:SAA004277 for chemical analysis; Sediment Moisture(%): 39.8/68.0; Ignition Loss(%):15.2/11.2"	2018/09/07	2018/09/07
PRA000076	SAA004088	ST024				Tokyo_sed2-3_2016	Sediment	"River sediment"	2016	11	1	2016-11-01T13:10			Fair	Asia	Japan	"Mouth of Riv. Sumida (Minato Ward), Tokyo"	35.66		139.7705556														15.6	19.4								1.5		20.6	3.5	Silt	Black	"Grayish yellow green_Dark"	"Hydrogen sulfide odor_Strong"	Shell	42.9/66.8	11.7/NA									"Monitoring: This sample was used as the pooled sample:SAA004277 for chemical analysis; Sediment Moisture(%): 42.9/68.0; Ignition Loss(%):11.7/11.2"	2018/09/07	2018/09/07
PRA000076	SAA004277	ST024				Tokyo_sed2-123_2016	Sediment	"River sediment"	2016	11	1					Asia	Japan	"Mouth of Riv. Sumida (Minato Ward), Tokyo"	35.66		139.7705556																																										"n=3 pooled: SAA004086, SAA004087 and SAA004088"	2018/10/05	2018/10/05
PRA000076	SAA004089	ST023				Yokohama_sed1-1_2016	Sediment	"Marine sediment"	2016	10	13	2016-10-13T13:15			Cloudy	Asia	Japan	"Yokohama Port, Kanagawa"	35.45555556		139.6636111														19	21.5								2.4		22	12.4	Muddy	"Deep brown"	Clear	"Hydrogen sulfide odor"	None	60.9/62.4	8.4/NA									"Monitoring: This sample was used as the pooled sample:SAA004278 for chemical analysis; Sediment Moisture(%): 60.9/68.0; Ignition Loss(%):8.4/8.6"	2018/10/5	2018/10/5
PRA000076	SAA004090	ST023				Yokohama_sed1-2_2016	Sediment	"Marine sediment"	2016	10	13	2016-10-13T09:50			Cloudy	Asia	Japan	"Yokohama Port, Kanagawa"	35.45555556		139.6636111														19.5	21								2.3		22	12.7	Muddy	"Deep brown"	Clear	"Hydrogen sulfide odor"	None	73.1/66.8	10.8/NA									"Monitoring: This sample was used as the pooled sample:SAA004278 for chemical analysis; Sediment Moisture(%): 73.1/68.0; Ignition Loss(%):10.8/8.6"	2018/10/5	2018/10/5
PRA000076	SAA004091	ST023				Yokohama_sed1-3_2016	Sediment	"Marine sediment"	2016	10	13	2016-10-13T13:45			Cloudy	Asia	Japan	"Yokohama Port, Kanagawa"	35.45555556		139.6636111														19	21								2.2		22.5	12	Muddy	"Deep brown"	Clear	"Hydrogen sulfide odor"	None	62.0/60.6	7.8/NA									"Monitoring: This sample was used as the pooled sample:SAA004278 for chemical analysis; Sediment Moisture(%): 62.0/68.0; Ignition Loss(%):7.8/8.6"	2018/10/5	2018/10/5
PRA000076	SAA004278	ST023				Yokohama_sed1-123_2016	Sediment	"Marine sediment"	2016	10	13				Cloudy	Asia	Japan	"Yokohama Port, Kanagawa"	35.45555556		139.6636111																																										"n=3 pooled: SAA004089, SAA004090 and SAA004091"	2018/10/5	2018/10/5
PRA000076	SAA004092	ST024				KawasakiCity_sed1-1_2016	Sediment	"River sediment"	2016	10	13	2016-10-13T14:40			Cloudy	Asia	Japan	"Mouth of Riv. Tama (Kawasaki City), Kanagawa"	35.53		139.7836111														17.1	20.6								2		23	6.8	Muddy	"Greenish gray"	"Grayish blue_Dark"	"Seaweed odor"	"Vegetative piece; Wood chip; Shell; Worm"	48.9/58.3	12.5/NA									"Monitoring: This sample was used as the pooled sample:SAA004279 for chemical analysis; Sediment Moisture(%): 48.9/62.7; Ignition Loss(%):12.5/10.8"	2018/09/07	2018/09/07
PRA000076	SAA004093	ST024				KawasakiCity_sed1-2_2016	Sediment	"River sediment"	2016	10	13	2016-10-13T13:50			Cloudy	Asia	Japan	"Mouth of Riv. Tama (Kawasaki City), Kanagawa"	35.53		139.7836111														17.5	21.3								1.85		23.4	3.5	Muddy	"Gray black"	"Grayish green"	"Seaweed odor"	"Vegetative piece; Wood chip"	51.1/65.1	13.0/NA									"Monitoring: This sample was used as the pooled sample:SAA004279 for chemical analysis; Sediment Moisture(%): 51.1/62.7; Ignition Loss(%):13.0/10.8"	2018/09/07	2018/09/07
PRA000076	SAA004094	ST024				KawasakiCity_sed1-3_2016	Sediment	"River sediment"	2016	10	13	2016-10-13T14:20			Cloudy	Asia	Japan	"Mouth of Riv. Tama (Kawasaki City), Kanagawa"	35.53		139.7836111														17.7	21								1.9		23.4	3.9	Muddy	"Gray black"	"Greenish brown"	"Seaweed odor"	"Vegetative piece; Wood chip; Shell; Worm"	49.5/66.0	12.3/NA									"Monitoring: This sample was used as the pooled sample:SAA004279 for chemical analysis; Sediment Moisture(%): 49.5/62.7; Ignition Loss(%):12.3/10.8"	2018/09/07	2018/09/07
PRA000076	SAA004279	ST024				KawasakiCity_sed1-123_2016	Sediment	"River sediment"	2016	10	13				Cloudy	Asia	Japan	"Mouth of Riv. Tama (Kawasaki City), Kanagawa"	35.53		139.7836111																																										"n=3 pooled: SAA004092, SAA004093 and SAA004094"	2018/10/05	2018/10/05
PRA000076	SAA004174	ST023				KawasakiCity_sed2-1_2016	Sediment	"Marine sediment"	2016	10	13	2016-10-13T09:40			Cloudy	Asia	Japan	"Keihin Canal, Kawasaki Port, Kanagawa (front of Ogimachi)"	35.49527778		139.7277778														18.6	22.3								2.25		22	15	Muddy	"Greenish gray"	"Greenish brown_Dark"	"Hydrogen sulfide odor"	"Shell; Pebble; Worm"	53.5/65.3	9.9/NA									"Monitoring: This sample was used as the pooled sample:SAA004280 for chemical analysis; Sediment Moisture(%): 53.5/69.6; Ignition Loss(%):9.9/9.8"	2018/09/20	2018/09/20
PRA000076	SAA004175	ST023				KawasakiCity_sed2-2_2016	Sediment	"Marine sediment"	2016	10	13	2016-10-13T10:35			Cloudy	Asia	Japan	"Keihin Canal, Kawasaki Port, Kanagawa (front of Ogimachi)"	35.49527778		139.7277778														19.3	22.7								2.45		22	13.8	Muddy	"Greenish gray"	"Grayish green"	"Hydrogen sulfide odor"	"Shell; Vegetative piece; Worm"	62.6/74.4	13.6/NA									"Monitoring: This sample was used as the pooled sample:SAA004280 for chemical analysis; Sediment Moisture(%): 62.6/69.6; Ignition Loss(%):13.6/9.8"	2018/09/20	2018/09/20
PRA000076	SAA004176	ST023				KawasakiCity_sed2-3_2016	Sediment	"Marine sediment"	2016	10	13	2016-10-13T10:55			Cloudy	Asia	Japan	"Keihin Canal, Kawasaki Port, Kanagawa (front of Ogimachi)"	35.49527778		139.7277778														18.6	22.1								2.6		22.2	14.5	Muddy	"Greenish brown"	Brown_Dark	"Hydrogen sulfide odor"	"Shell; Vegetative piece; Worm"	58.6/67.7	12.7/NA									"Monitoring: This sample was used as the pooled sample:SAA004280 for chemical analysis; Sediment Moisture(%): 58.6/69.6; Ignition Loss(%):12.7/9.8"	2018/09/20	2018/09/20
PRA000076	SAA004280	ST023				KawasakiCity_sed2-123_2016	Sediment	"Marine sediment"	2016	10	13				Cloudy	Asia	Japan	"Keihin Canal, Kawasaki Port, Kanagawa (front of Ogimachi)"	35.49527778		139.7277778																																										"n=3 pooled: SAA004174, SAA004175 and SAA004176"	2018/10/05	2018/10/05
PRA000076	SAA004177	ST024				Niigata_sed1-1_2016	Sediment	"River sediment"	2016	10	19	2016-10-19T10:10			Fair	Asia	Japan	"Downstream of Riv. Shinano (Niigata City), Niigata"	37.88305556		139.0155556														19.7	16.5										17.5	2	Muddy	"Grayish brown"	Clear	"Garbage odor"	Leaf	29.4/26.5	2.7/NA									"Monitoring: This sample was used as the pooled sample:SAA004281 for chemical analysis; Sediment Moisture(%): 29.4/22.4; Ignition Loss(%):2.7/1.4"	2018/09/20	2018/09/20
PRA000076	SAA004178	ST024				Niigata_sed1-2_2016	Sediment	"River sediment"	2016	10	19	2016-10-19T10:15			Fair	Asia	Japan	"Downstream of Riv. Shinano (Niigata City), Niigata"	37.88305556		139.0155556														19.7	16.5										17	4.5	Sandy	"Gray black_Light"	Clear	"Riverweed odor"	None	18.0/22.2	1.2/NA									"Monitoring: This sample was used as the pooled sample:SAA004281 for chemical analysis; Sediment Moisture(%): 18.0/22.4; Ignition Loss(%):1.2/1.4"	2018/09/20	2018/09/20
PRA000076	SAA004179	ST024				Niigata_sed1-3_2016	Sediment	"River sediment"	2016	10	19	2016-10-19T10:19			Fair	Asia	Japan	"Downstream of Riv. Shinano (Niigata City), Niigata"	37.88305556		139.0155556														19.7	16.5										17.2	5.1	Sandy	Brown	Clear	"Riverweed odor_Faint"	"Leaf; Tree branch"	18.5/14.7	1.0/NA									"Monitoring: This sample was used as the pooled sample:SAA004281 for chemical analysis; Sediment Moisture(%): 18.5/22.4; Ignition Loss(%):1.0/1.4"	2018/09/20	2018/09/20
PRA000076	SAA004281	ST024				Niigata_sed1-123_2016	Sediment	"River sediment"	2016	10	19				Fair	Asia	Japan	"Downstream of Riv. Shinano (Niigata City), Niigata"	37.88305556		139.0155556																																										"n=3 pooled: SAA004177, SAA004178 and SAA004179"	2018/10/05	2018/10/05
PRA000076	SAA004180	ST024				Toyama_sed1-1_2016	Sediment	"River sediment"	2016	10	19	2016-10-19T09:35			Fair	Asia	Japan	"Hagiura-bashi Bridge, Mouth of Riv. Jintsu (Toyama City), Toyama"	36.745		137.2180556														19.4	17.6										19.2	0.9	"Sandy mud"	"Gray black"	Clear	Odorless	"Leaf; Stem; Root; Stone"	42.0/39.6	6.0/NA									"Monitoring: This sample was used as the pooled sample:SAA004282 for chemical analysis; Sediment Moisture(%): 42.0/28.9; Ignition Loss(%):6.0/2.4"	2018/09/20	2018/09/20
PRA000076	SAA004181	ST024				Toyama_sed1-2_2016	Sediment	"River sediment"	2016	10	19	2016-10-19T10:15			Fair	Asia	Japan	"Hagiura-bashi Bridge, Mouth of Riv. Jintsu (Toyama City), Toyama"	36.745		137.2180556														20.8	17.1										19.1	0.5	Sandy	"Gray black"	Clear	Odorless	"Leaf; Stone"	28.0/27.8	2.6/NA									"Monitoring: This sample was used as the pooled sample:SAA004282 for chemical analysis; Sediment Moisture(%): 28.0/28.9; Ignition Loss(%):2.6/2.4"	2018/09/20	2018/09/20
PRA000076	SAA004182	ST024				Toyama_sed1-3_2016	Sediment	"River sediment"	2016	10	19	2016-10-19T11:00			Fair	Asia	Japan	"Hagiura-bashi Bridge, Mouth of Riv. Jintsu (Toyama City), Toyama"	36.745		137.2180556														22	17.1										19.1	0.9	Sandy	"Gray black"	Clear	Odorless	"Leaf; Stone"	19.0/21.4	1.3/NA									"Monitoring: This sample was used as the pooled sample:SAA004282 for chemical analysis; Sediment Moisture(%): 19.0/28.9; Ignition Loss(%):1.3/2.4"	2018/09/20	2018/09/20
PRA000076	SAA004282	ST024				Toyama_sed1-123_2016	Sediment	"River sediment"	2016	10	19				Fair	Asia	Japan	"Hagiura-bashi Bridge, Mouth of Riv. Jintsu (Toyama City), Toyama"	36.745		137.2180556																																										"n=3 pooled: SAA004180, SAA004181 and SAA004182"	2018/10/05	2018/10/05
PRA000076	SAA004183	ST024				Ishikawa_sed1-1_2016	Sediment	"River sediment"	2016	11	2	2016-11-02T10:00			Fair	Asia	Japan	"Mouth of Riv. Sai (Kanazawa City), Ishikawa"	36.60027778		136.5888889														16.9	13											2.6	"Sany silt"	"Grayish green"	Clear	"Fish putrid odor_Faint"	"Pebble; Shell"	20.0/24.4	2.3/NA									"Monitoring: This sample was used as the pooled sample:SAA004283 for chemical analysis; Sediment Moisture(%): 20.0/25.1; Ignition Loss(%):2.3/1.7"	2018/09/20	2018/09/20
PRA000076	SAA004184	ST024				Ishikawa_sed1-2_2016	Sediment	"River sediment"	2016	11	2	2016-11-02T11:30			Fair	Asia	Japan	"Mouth of Riv. Sai (Kanazawa City), Ishikawa"	36.60027778		136.5888889														16	13.2											1.2	Sand	"Blackish brown"	Clear	Odorless	Pebble	22.0/25.6	1.5/NA									"Monitoring: This sample was used as the pooled sample:SAA004283 for chemical analysis; Sediment Moisture(%): 22.0/25.1; Ignition Loss(%):1.5/1.7"	2018/09/20	2018/09/20
PRA000076	SAA004185	ST024				Ishikawa_sed1-3_2016	Sediment	"River sediment"	2016	11	2	2016-11-02T12:20			Fair	Asia	Japan	"Mouth of Riv. Sai (Kanazawa City), Ishikawa"	36.60027778		136.5888889														17.8	14.7											0.5	Sand	"Blackish brown"	Clear	"Fish putrid odor_Faint"	Pebble	25.0/24.2	2.0/NA									"Monitoring: This sample was used as the pooled sample:SAA004283 for chemical analysis; Sediment Moisture(%): 25.0/25.1; Ignition Loss(%):2.0/1.7"	2018/09/20	2018/09/20
PRA000076	SAA004283	ST024				Ishikawa_sed1-123_2016	Sediment	"River sediment"	2016	11	2				Fair	Asia	Japan	"Mouth of Riv. Sai (Kanazawa City), Ishikawa"	36.60027778		136.5888889																																										"n=3 pooled: SAA004183, SAA004184 and SAA004185"	2018/10/05	2018/10/05
PRA000076	SAA004284	ST024				Fukui_sed1-1_2016	Sediment	"River sediment"	2016	11	2	2016-11-02T10:50			Fair	Asia	Japan	"Mishima-bashi Bridge, Riv. Shono (Tsuruga City), Fukui"	35.6475		136.0627778														16	16										12	0.3	Arenaceous	Brown	Clear	Odorless	Pebble	20.7/20.2	0.7/0.6									"This sample was used as the pooled sample:SAA004287 for chemical analysis"	2018/10/05	2018/10/05
PRA000076	SAA004285	ST024				Fukui_sed1-2_2016	Sediment	"River sediment"	2016	11	2	2016-11-02T10:50			Fair	Asia	Japan	"Mishima-bashi Bridge, Riv. Shono (Tsuruga City), Fukui"	35.6475		136.0627778														16	16										12	0.3	Arenaceous	Brown	Clear	Odorless	Pebble	21.0/20.2	0.7/0.6									"This sample was used as the pooled sample:SAA004287 for chemical analysis"	2018/10/05	2018/10/05
PRA000076	SAA004286	ST024				Fukui_sed1-3_2016	Sediment	"River sediment"	2016	11	2	2016-11-02T10:50			Fair	Asia	Japan	"Mishima-bashi Bridge, Riv. Shono (Tsuruga City), Fukui"	35.6475		136.0627778														16	16										12	0.3	Arenaceous	Brown	Clear	Odorless	Pebble	21.2/20.2	0.8/0.6									"This sample was used as the pooled sample:SAA004287 for chemical analysis"	2018/10/05	2018/10/05
PRA000076	SAA004287	ST024				Fukui_sed1-123_2016	Sediment	"River sediment"	2016	11	2	2016-11-02T10:50			Fair	Asia	Japan	"Mishima-bashi Bridge, Riv. Shono (Tsuruga City), Fukui"	35.6475		136.0627778																																										"n=3 pooled: SAA004284, SAA004285 and SAA004286"	2018/10/05	2018/10/05
PRA000076	SAA004288	ST024				Yamanashi_sed1-1_2016	Sediment	"River sediment"	2016	10	21	2016-10-21T09:40			Cloudy	Asia	Japan	"Chiaki-bashi Bridge, Riv. Ara (Kofu City), Yamanashi"	35.6475		138.5655556														19.5	19.3								0.8		19.3	0.38	Sand	Gray	Clear	"Riverweed odor_Faint"	None	24.5/20.0	0.8/0.6									"This sample was used as the pooled sample:SAA004291 for chemical analysis"	2018/10/05	2018/10/05
PRA000076	SAA004289	ST024				Yamanashi_sed1-2_2016	Sediment	"River sediment"	2016	10	21	2016-10-21T10:11			Cloudy	Asia	Japan	"Chiaki-bashi Bridge, Riv. Ara (Kofu City), Yamanashi"	35.6475		138.5655556														20.5	17								0.8		16.9	0.22	Pebble	Gray	Clear	"Riverweed odor_Faint"	Sand	20.2/20.0	1.1/0.6									"This sample was used as the pooled sample:SAA004291 for chemical analysis"	2018/10/05	2018/10/05
PRA000076	SAA004290	ST024				Yamanashi_sed1-3_2016	Sediment	"River sediment"	2016	10	21	2016-10-21T10:44			Cloudy	Asia	Japan	"Chiaki-bashi Bridge, Riv. Ara (Kofu City), Yamanashi"	35.6475		138.5655556														19.2	16.5								0.8		17	0.49	Sand	Gray	Brown	"Riverweed odor"	None	22.3/20.0	0.9/0.6									"This sample was used as the pooled sample:SAA004291 for chemical analysis"	2018/10/05	2018/10/05
PRA000076	SAA004291	ST024				Yamanashi_sed1-123_2016	Sediment	"River sediment"	2016	10	21				Cloudy	Asia	Japan	"Chiaki-bashi Bridge, Riv. Ara (Kofu City), Yamanashi"	35.6475		138.5655556																																										"n=3 pooled: SAA004288, SAA004289 and SAA004290"	2018/10/05	2018/10/05
PRA000076	SAA004095	ST024				Nagano_sed1-1_2016	Sediment	"Lake sediment"	2016	11	2	2016-11-02T10:30			Cloudy	Asia	Japan	"Center of Lake Suwa, Nagano"	36.05		138.0861111														8.6	12								0.8		12	6	Muddy	"Blackish brown_Dark"	"Dark brown"	"Swampy odor_Faint"	None	NA/86.5	NA/13.1									"Monitoring: This sample was used as the pooled sample:SAA004292 for chemical analysis; Sediment Moisture(%): NA/85.1; Ignition Loss(%):NA/13.9"	2018/10/5	2018/10/5
PRA000076	SAA004096	ST024				Nagano_sed1-2_2016	Sediment	"Lake sediment"	2016	11	2	2016-11-02T11:30			Cloudy	Asia	Japan	"Center of Lake Suwa, Nagano"	36.05		138.0861111														9.4	12.1								0.8		12	6	Muddy	"Blackish brown_Dark"	"Dark brown"	"Swampy odor_Faint"	None	NA/86.5	NA/13.0									"Monitoring: This sample was used as the pooled sample:SAA004292 for chemical analysis; Sediment Moisture(%): NA/85.1; Ignition Loss(%):NA/13.9"	2018/10/5	2018/10/5
PRA000076	SAA004097	ST024				Nagano_sed1-3_2016	Sediment	"Lake sediment"	2016	11	2	2016-11-02T11:50			Cloudy	Asia	Japan	"Center of Lake Suwa, Nagano"	36.05		138.0861111														9.4	12.4								0.8		12.5	5.9	Muddy	"Blackish brown_Dark"	"Dark brown"	"Swampy odor_Faint"	None	NA/86.9	NA/12.9									"Monitoring: This sample was used as the pooled sample:SAA004292 for chemical analysis; Sediment Moisture(%): NA/85.1; Ignition Loss(%):NA/13.9"	2018/10/5	2018/10/5
PRA000076	SAA004292	ST024				Nagano_sed1-123_2016	Sediment	"Lake sediment"	2016	11	2				Cloudy	Asia	Japan	"Center of Lake Suwa, Nagano"	36.05		138.0861111																																										"n=3 pooled: SAA004095, SAA004096 and SAA004097"	2018/10/5	2018/10/5
PRA000076	SAA004293	ST023				Shizuoka_sed1-1_2016	Sediment	"Marine sediment"	2016	10	13	2016-10-13T10:00			Cloudy	Asia	Japan	"Shimizu Port, Shizuoka"	35.02416667		138.5161111														19	21.9								5.5		22.1	25	Sand/Clay	"Grayish green_Dark"	Clear	"Seaweed odor"	Shelfish	34.3/29.3	5.1/3.4									"This sample was used as the pooled sample:SAA004296 for chemical analysis"	2018/10/5	2018/10/5
PRA000076	SAA004294	ST023				Shizuoka_sed1-2_2016	Sediment	"Marine sediment"	2016	10	13	2016-10-13T10:55			Cloudy	Asia	Japan	"Shimizu Port, Shizuoka"	35.02416667		138.5161111														19											22.4	19	Sand/Clay	"Grayish green_Dark"	Clear	"Seaweed odor"	Shelfish	33.9/29.3	4.6/3.4									"This sample was used as the pooled sample:SAA004296 for chemical analysis"	2018/10/5	2018/10/5
PRA000076	SAA004295	ST023				Shizuoka_sed1-3_2016	Sediment	"Marine sediment"	2016	10	13	2016-10-13T11:15			Cloudy	Asia	Japan	"Shimizu Port, Shizuoka"	35.02416667		138.5161111														19											22.7	16	Sand/Clay	"Grayish green_Dark"	Clear	"Seaweed odor"	Shelfish	33.0/29.3	4.4/3.4									"This sample was used as the pooled sample:SAA004296 for chemical analysis"	2018/10/5	2018/10/5
PRA000076	SAA004296	ST023				Shizuoka_sed1-123_2016	Sediment	"Marine sediment"	2016	10	13				Cloudy	Asia	Japan	"Shimizu Port, Shizuoka"	35.02416667		138.5161111																																										"n=3 pooled: SAA004293, SAA004294 and SAA004295"	2018/10/5	2018/10/5
PRA000076	SAA004297	ST024				Shizuoka_sed3-1_2016	Sediment	"River sediment"	2016	10	25	2016-10-25T11:38			Cloudy	Asia	Japan	"Riv. Tenryu (Iwata City), Shizuoka"	34.67916667		137.7961111														18.7	16.9										15.1	0.6	Sand	"Grayish brown_Dark"	Clear	Odorless	Pebble	22.7/19.7	2.0/1.0									"This sample was used as the pooled sample:SAA004300 for chemical analysis"	2018/10/05	2018/10/05
PRA000076	SAA004298	ST024				Shizuoka_sed3-2_2016	Sediment	"River sediment"	2016	10	25	2016-10-25T12:12			Cloudy	Asia	Japan	"Riv. Tenryu (Iwata City), Shizuoka"	34.67916667		137.7961111														17.4											16.2	0.3	Gravel	"Grayish brown_Dark"	Clear	Odorless	Pebble	12.4/19.7	1.1/1.0									"This sample was used as the pooled sample:SAA004300 for chemical analysis"	2018/10/05	2018/10/05
PRA000076	SAA004299	ST024				Shizuoka_sed3-3_2016	Sediment	"River sediment"	2016	10	25	2016-10-25T12:32			Cloudy	Asia	Japan	"Riv. Tenryu (Iwata City), Shizuoka"	34.67916667		137.7961111														15.4											16.6	0.4	Gravel	"Grayish brown_Dark"	Clear	Odorless	Pebble	16.4/19.7	1.3/1.0									"This sample was used as the pooled sample:SAA004300 for chemical analysis"	2018/10/05	2018/10/05
PRA000076	SAA004300	ST024				Shizuoka_sed3-123_2016	Sediment	"River sediment"	2016	10	25				Cloudy	Asia	Japan	"Riv. Tenryu (Iwata City), Shizuoka"	34.67916667		137.7961111																																										"n=3 pooled: SAA004297, SAA004298 and SAA004299"	2018/10/05	2018/10/05
PRA000076	SAA004301	ST023				Aichi_sed2-1_2016	Sediment	"Marine sediment"	2016	10	25	2016-10-25T10:00			Rain	Asia	Japan	"Kinuura Port, Aichi"	34.84166667		136.9486111														16	24.2								2		22	11.6	Muddy	"Gray black"	Green_Light	"Hydrogen sulfide odor"	None	44.7/58.3	9.0/7.9									"This sample was used as the pooled sample:SAA004304 for chemical analysis"	2018/10/5	2018/10/5
PRA000076	SAA004302	ST023				Aichi_sed2-2_2016	Sediment	"Marine sediment"	2016	10	25	2016-10-25T10:05			Rain	Asia	Japan	"Kinuura Port, Aichi"	34.84166667		136.9486111														16	24.2								2		22	11.6	Muddy	"Gray black"	Green_Light	"Hydrogen sulfide odor"	None	47.5/58.3	9.6/7.9									"This sample was used as the pooled sample:SAA004304 for chemical analysis"	2018/10/5	2018/10/5
PRA000076	SAA004303	ST023				Aichi_sed2-3_2016	Sediment	"Marine sediment"	2016	10	25	2016-10-25T10:10			Rain	Asia	Japan	"Kinuura Port, Aichi"	34.84166667		136.9486111														16	24.2								2		22	11.6	Muddy	"Gray black"	Green_Light	"Hydrogen sulfide odor"	None	46.2/58.3	9.1/7.9									"This sample was used as the pooled sample:SAA004304 for chemical analysis"	2018/10/5	2018/10/5
PRA000076	SAA004304	ST023				Aichi_sed2-123_2016	Sediment	"Marine sediment"	2016	10	25				Rain	Asia	Japan	"Kinuura Port, Aichi"	34.84166667		136.9486111																																										"n=3 pooled: SAA004301, SAA004302 and SAA004303"	2018/10/5	2018/10/5
PRA000076	SAA004305	ST023				Aichi_sed1-4_2016	Sediment	"Marine sediment"	2016	10	25	2016-10-25T12:15			Rain	Asia	Japan	"Nagoya Port, West of Shiomi Wharf, Aichi"	35.07111111		136.8691667														14	21								3.5		22.2	16.9	Muddy	"Gray black"	Green_Light	"Hydrogen sulfide odor"	None	45.9/60.3	7.3/6.6									"This sample was used as the pooled sample:SAA004308 for chemical analysis"	2018/10/5	2018/10/5
PRA000076	SAA004306	ST023				Aichi_sed1-5_2016	Sediment	"Marine sediment"	2016	10	25	2016-10-25T12:20			Rain	Asia	Japan	"Nagoya Port, West of Shiomi Wharf, Aichi"	35.07111111		136.8691667														14	21								3.5		22.2	16.9	Muddy	"Gray black"	Green_Light	"Hydrogen sulfide odor"	None	47.5/60.3	7.7/6.6									"This sample was used as the pooled sample:SAA004308 for chemical analysis"	2018/10/5	2018/10/5
PRA000076	SAA004307	ST023				Aichi_sed1-6_2016	Sediment	"Marine sediment"	2016	10	25	2016-10-25T12:25			Rain	Asia	Japan	"Nagoya Port, West of Shiomi Wharf, Aichi"	35.07111111		136.8691667														14	21								3.5		22.2	16.9	Muddy	"Gray black"	Green_Light	"Hydrogen sulfide odor"	None	46.9/60.3	7.5/6.6									"This sample was used as the pooled sample:SAA004308 for chemical analysis"	2018/10/5	2018/10/5
PRA000076	SAA004308	ST023				Aichi_sed1-456_2016	Sediment	"Marine sediment"	2016	10	25				Rain	Asia	Japan	"Nagoya Port, West of Shiomi Wharf, Aichi"	35.07111111		136.8691667																																										"n=3 pooled: SAA004305, SAA004306 and SAA004307"	2018/10/5	2018/10/5
PRA000076	SAA004104	ST023				Mie_sed1-1_2016	Sediment	"Marine sediment"	2016	10	25	2016-10-25T10:00			Cloudy	Asia	Japan	"Yokkaichi Port, Mie"	34.94944444		136.6530556														15	20								2.5		22	11.6	Muddy	"Gray black"	"Greenish brown_Dark"	"Hydrogen sulfide odor"	None	61.0/73.3	11.0/NA									"Monitoring: This sample was used as the pooled sample:SAA004309 for chemical analysis; Sediment Moisture(%): 61.0/72.5; Ignition Loss(%):11.0/8.8"	2018/10/5	2018/10/5
PRA000076	SAA004105	ST023				Mie_sed1-2_2016	Sediment	"Marine sediment"	2016	10	25	2016-10-25T10:37			Cloudy	Asia	Japan	"Yokkaichi Port, Mie"	34.94944444		136.6530556														15	20.3								2.5		22	11.2	Muddy	"Gray black"	"Greenish brown_Dark"	"Hydrogen sulfide odor_Faint"	None	61.0/73.3	11.0/NA									"Monitoring: This sample was used as the pooled sample:SAA004309 for chemical analysis; Sediment Moisture(%): 61.0/72.5; Ignition Loss(%):11.0/8.8"	2018/10/5	2018/10/5
PRA000076	SAA004106	ST023				Mie_sed1-3_2016	Sediment	"Marine sediment"	2016	10	25	2016-10-25T11:00			Cloudy	Asia	Japan	"Yokkaichi Port, Mie"	34.94944444		136.6530556														14.5	20.2								2.5		21.5	12.8	Muddy	"Gray black"	"Greenish brown_Dark"	"Hydrogen sulfide odor_Faint"	None	60.0/71.6	11.0/NA									"Monitoring: This sample was used as the pooled sample:SAA004309 for chemical analysis; Sediment Moisture(%): 60.0/72.5; Ignition Loss(%):11.0/8.8"	2018/10/5	2018/10/5
PRA000076	SAA004309	ST023				Mie_sed1-123_2016	Sediment	"Marine sediment"	2016	10	25				Cloudy	Asia	Japan	"Yokkaichi Port, Mie"	34.94944444		136.6530556																																										"n=3 pooled: SAA004104, SAA004105 and SAA004106"	2018/10/5	2018/10/5
PRA000076	SAA004310	ST023				Mie_sed2-1_2016	Sediment	"Marine sediment"	2016	10	18	2016-10-18T10:50			Fair	Asia	Japan	"Toba Port, Mie"	34.48083333		136.8486111														27.5	20.5								2		22	7	Muddy	"Yellowish brown"	"Blue green_Dark"	"smell of the seashore"	None	44.0/43.7	13.0/6.5									"This sample was used as the pooled sample:SAA004313 for chemical analysis"	2018/10/5	2018/10/5
PRA000076	SAA004311	ST023				Mie_sed2-2_2016	Sediment	"Marine sediment"	2016	10	18	2016-10-18T11:10			Fair	Asia	Japan	"Toba Port, Mie"	34.48083333		136.8486111														27.9	22								2.6		22	6	Muddy	"Yellowish brown"	"Blue green_Dark"	"smell of the seashore"	None	34.0/43.7	8.3/6.5									"This sample was used as the pooled sample:SAA004313 for chemical analysis"	2018/10/5	2018/10/5
PRA000076	SAA004312	ST023				Mie_sed2-3_2016	Sediment	"Marine sediment"	2016	10	18	2016-10-18T11:30			Fair	Asia	Japan	"Toba Port, Mie"	34.48083333		136.8486111														28	22								3.1		22	5.3	Muddy	"Yellowish brown"	"Blue green_Dark"	"smell of the seashore"	None	29.0/43.7	6.4/6.5									"This sample was used as the pooled sample:SAA004313 for chemical analysis"	2018/10/5	2018/10/5
PRA000076	SAA004313	ST023				Mie_sed2-123_2016	Sediment	"Marine sediment"	2016	10	18				Fair	Asia	Japan	"Toba Port, Mie"	34.48083333		136.8486111																																										"n=3 pooled: SAA004310, SAA004311 and SAA004312"	2018/10/5	2018/10/5
PRA000076	SAA004189	ST024				Shiga_sed1-1_2016	Sediment	"Lake sediment"	2016	10	21	2016-10-21T10:30			Fair	Asia	Japan	"Lake Biwa (center, offshore of Minamihira), Shiga"	35.18527778		135.9733333														23	22								5.8		9.3	58.1	Muddy	"Gray black"	Green_Dark	"Swampy odor"	None	67.7/79.6	12.0/NA									"Monitoring: This sample was used as the pooled sample:SAA004314 for chemical analysis; Sediment Moisture(%): 67.7/78.7; Ignition Loss(%):12.0/10.0"	2018/09/20	2018/09/20
PRA000076	SAA004190	ST024				Shiga_sed1-2_2016	Sediment	"Lake sediment"	2016	10	21	2016-10-21T09:40			Cloudy	Asia	Japan	"Lake Biwa (center, offshore of Minamihira), Shiga"	35.18527778		135.9733333														22.4	22								5.8		9.5	52.8	Muddy	"Gray black"	Green_Dark	"Swampy odor"	None	66.8/79.3	11.7/NA									"Monitoring: This sample was used as the pooled sample:SAA004314 for chemical analysis; Sediment Moisture(%): 66.8/78.7; Ignition Loss(%):11.7/10.0"	2018/09/20	2018/09/20
PRA000076	SAA004191	ST024				Shiga_sed1-3_2016	Sediment	"Lake sediment"	2016	10	21	2016-10-21T10:55			Fair	Asia	Japan	"Lake Biwa (center, offshore of Minamihira), Shiga"	35.18527778		135.9733333														22.5	22								5.9		9.6	49.5	Muddy	"Gray black"	Green_Dark	"Swampy odor"	None	66.0/79.0	11.9/NA									"Monitoring: This sample was used as the pooled sample:SAA004314 for chemical analysis; Sediment Moisture(%): 66.0/78.7; Ignition Loss(%):11.9/10.0"	2018/09/20	2018/09/20
PRA000076	SAA004314	ST024				Shiga_sed1-123_2016	Sediment	"Lake sediment"	2016	10	21					Asia	Japan	"Lake Biwa (center, offshore of Minamihira), Shiga"	35.18527778		135.9733333																																										"n=3 pooled: SAA004189, SAA004190 and SAA004191"	2018/10/05	2018/10/05
PRA000076	SAA004192	ST024				Shiga_sed2-1_2016	Sediment	"Lake sediment"	2016	11	28	2016-11-28T09:30			Cloudy	Asia	Japan	"Lake Biwa (center, offshore of Karasaki), Shiga"	35.04611111		135.8955556														13.6	13								2.7		14.3	3.3	Muddy	"Gray black"	Green_Dark	"Swampy odor"	"Water plant"	66.1/77.8	11.2/NA									"Monitoring: This sample was used as the pooled sample:SAA004315 for chemical analysis; Sediment Moisture(%): 66.1/73.3; Ignition Loss(%):11.2/9.4"	2018/10/5	2018/10/5
PRA000076	SAA004193	ST024				Shiga_sed2-2_2016	Sediment	"Lake sediment"	2016	11	28	2016-11-28T09:00			Cloudy	Asia	Japan	"Lake Biwa (center, offshore of Karasaki), Shiga"	35.04611111		135.8955556														13	12.9								2.8		14.8	3.2	Muddy	"Gray black"	Green_Dark	"Swampy odor"	"Water plant"	66.9/78.7	11.5/NA									"Monitoring: This sample was used as the pooled sample:SAA004315 for chemical analysis; Sediment Moisture(%): 66.9/73.3; Ignition Loss(%):11.5/9.4"	2018/10/5	2018/10/5
PRA000076	SAA004194	ST024				Shiga_sed2-3_2016	Sediment	"Lake sediment"	2016	11	28	2016-11-28T09:45			Cloudy	Asia	Japan	"Lake Biwa (center, offshore of Karasaki), Shiga"	35.04611111		135.8955556														12.8	12.4								2		13.5	2.7	Muddy	"Gray black"	Green_Dark	"Swampy odor"	"Water plant"	57.0/70.8	9.3/NA									"Monitoring: This sample was used as the pooled sample:SAA004315 for chemical analysis; Sediment Moisture(%): 57.0/73.3; Ignition Loss(%):9.3/9.4"	2018/10/5	2018/10/5
PRA000076	SAA004315	ST024				Shiga_sed2-123_2016	Sediment	"Lake sediment"	2016	11	28				Cloudy	Asia	Japan	"Lake Biwa (center, offshore of Karasaki), Shiga"	35.04611111		135.8955556																																										"n=3 pooled: SAA004192, SAA004193 and SAA004194"	2018/10/5	2018/10/5
PRA000076	SAA004316	ST023				Kyoto_sed1-1_2016	Sediment	"Marine sediment"	2016	10	25	2016-10-25T09:49			Cloudy	Asia	Japan	"Miyazu Port, Kyoto"	35.58305556		135.2138889														17.5	19.6								6		18.5	10.4	Muddy	"Gray black"	Clear	"Seaweed odor"	None	27.0/44.8	2.3/4.9									"This sample was used as the pooled sample:SAA004319 for chemical analysis"	2018/10/5	2018/10/5
PRA000076	SAA004317	ST023				Kyoto_sed1-2_2016	Sediment	"Marine sediment"	2016	10	25	2016-10-25T10:06			Cloudy	Asia	Japan	"Miyazu Port, Kyoto"	35.58305556		135.2138889														17.5	19.7								5.5		19	22.4	Muddy	"Gray black"	Clear	"Seaweed odor"	None	50.8/44.8	8.1/4.9									"This sample was used as the pooled sample:SAA004319 for chemical analysis"	2018/10/5	2018/10/5
PRA000076	SAA004318	ST023				Kyoto_sed1-3_2016	Sediment	"Marine sediment"	2016	10	25	2016-10-25T10:30			Cloudy	Asia	Japan	"Miyazu Port, Kyoto"	35.58305556		135.2138889														17.1	20.5								7		20	22.1	Muddy	"Gray black"	Clear	"Seaweed odor"	None	53.7/44.8	8.8/4.9									"This sample was used as the pooled sample:SAA004319 for chemical analysis"	2018/10/5	2018/10/5
PRA000076	SAA004319	ST023				Kyoto_sed1-123_2016	Sediment	"Marine sediment"	2016	10	25				Cloudy	Asia	Japan	"Miyazu Port, Kyoto"	35.58305556		135.2138889																																										"n=3 pooled: SAA004316, SAA004317 and SAA004318"	2018/10/5	2018/10/5
PRA000076	SAA004195	ST024				KyotoCity_sed1-1_2016	Sediment	"River sediment"	2016	10	28	2016-10-28T10:30			Cloudy	Asia	Japan	"Miyamae-bashi Bridge, Riv. Katsura (Kyoto City), Kyoto"	34.905		135.7125														20	19										18	0.7	Sandy	"Grayish brown"	Clear	Odorless	None	19.6/16.7	0.9/NA									"Monitoring: This sample was used as the pooled sample:SAA004320 for chemical analysis; Sediment Moisture(%): 19.6/19.3; Ignition Loss(%):0.9/0.7"	2018/09/20	2018/09/20
PRA000076	SAA004196	ST024				KyotoCity_sed1-2_2016	Sediment	"River sediment"	2016	10	28	2016-10-28T10:50			Cloudy	Asia	Japan	"Miyamae-bashi Bridge, Riv. Katsura (Kyoto City), Kyoto"	34.905		135.7125														20	19										18	0.7	Sandy	"Grayish brown"	Clear	Odorless	None	17.6/17.1	0.9/NA									"Monitoring: This sample was used as the pooled sample:SAA004320 for chemical analysis; Sediment Moisture(%): 17.6/19.3; Ignition Loss(%):0.9/0.7"	2018/09/20	2018/09/20
PRA000076	SAA004197	ST024				KyotoCity_sed1-3_2016	Sediment	"River sediment"	2016	10	28	2016-10-28T11:10			Cloudy	Asia	Japan	"Miyamae-bashi Bridge, Riv. Katsura (Kyoto City), Kyoto"	34.905		135.7125														20	19										18	0.6	Sandy	"Grayish brown"	Clear	Odorless	None	19.0/16.4	0.9/NA									"Monitoring: This sample was used as the pooled sample:SAA004320 for chemical analysis; Sediment Moisture(%): 19.0/19.3; Ignition Loss(%):0.9/0.7"	2018/09/20	2018/09/20
PRA000076	SAA004320	ST024				KyotoCity_sed1-123_2016	Sediment	"River sediment"	2016	10	28				Cloudy	Asia	Japan	"Miyamae-bashi Bridge, Riv. Katsura (Kyoto City), Kyoto"	34.905		135.7125																																										"n=3 pooled: SAA004195, SAA004196 and SAA004197"	2018/10/05	2018/10/05
PRA000076	SAA004107	ST024				Osaka_sed1-1_2016	Sediment	"River sediment"	2016	11	9	2016-11-09T11:08			"Cloudy with occasional rain"	Asia	Japan	"Mouth of Riv. Yamato (Sakai City), Osaka"	34.60833333		135.4325														12.7	18.1								0.8		20.2	7.8	Silt	"Dark olive"	"Yellowish green_Light"	"Earthy odor"	None	51.2/66.9	14.0/NA									"Monitoring: This sample was used as the pooled sample:SAA004321 for chemical analysis; Sediment Moisture(%): 51.2/66.6;  Ignition Loss(%):14.0/13.0"	2018/09/07	2018/09/07
PRA000076	SAA004108	ST024				Osaka_sed1-2_2016	Sediment	"River sediment"	2016	11	9	2016-11-09T10:33			"Cloudy with occasional rain"	Asia	Japan	"Mouth of Riv. Yamato (Sakai City), Osaka"	34.60833333		135.4325														13.1	18.1								0.8		20.2	4.5	Silt	"Green black"	"Yellowish green_Light"	"Tar odor"	None	52.0/66.9	13.8/NA									"Monitoring: This sample was used as the pooled sample:SAA004321 for chemical analysis; Sediment Moisture(%): 52.0/66.6;  Ignition Loss(%):13.8/13.0"	2018/09/07	2018/09/07
PRA000076	SAA004109	ST024				Osaka_sed1-3_2016	Sediment	"River sediment"	2016	11	9	2016-11-09T11:31			"Cloudy with occasional rain"	Asia	Japan	"Mouth of Riv. Yamato (Sakai City), Osaka"	34.60833333		135.4325														14.5	18.2								0.8		19.8	3.2	Silt	"Green gray"	"Yellowish green_Light"	"Earthy odor"	None	48.8/61.3	13.5/NA									"Monitoring: This sample was used as the pooled sample:SAA004321 for chemical analysis; Sediment Moisture(%):48.8/66.6;  Ignition Loss(%):13.5/13.0"	2018/09/07	2018/09/07
PRA000076	SAA004321	ST024				Osaka_sed1-123_2016	Sediment	"River sediment"	2016	11	9				"Cloudy with occasional rain"	Asia	Japan	"Mouth of Riv. Yamato (Sakai City), Osaka"	34.60833333		135.4325																																										"n=3 pooled: SAA004107, SAA004108 and SAA004109"	2018/10/05	2018/10/05
PRA000076	SAA004322	ST024				OsakaCity_sed2-1_2016	Sediment	"River sediment"	2016	10	26	2016-10-26T09:42			Fair	Asia	Japan	"Kema-bashi Bridge, Riv. Oh (Osaka City), Osaka"	34.717760		135.519610														21.7	19										19	2.3	Sludge	"Grayish brown"	"Grayish yellow_Light"	Odorless	Bivalves	45.6/56.4	8.2/8.7									"This sample was used as the pooled sample:SAA004325 for chemical analysis"	2018/10/05	2018/10/05
PRA000076	SAA004323	ST024				OsakaCity_sed2-2_2016	Sediment	"River sediment"	2016	10	26	2016-10-26T10:47			Fair	Asia	Japan	"Kema-bashi Bridge, Riv. Oh (Osaka City), Osaka"	34.717760		135.519610														28	19.6										19.3	3.8	Sludge	"Grayish brown"	"Grayish yellow_Light"	"Sewage odor_Faint"	"Pond snail"	48.6/56.4	9.3/8.7									"This sample was used as the pooled sample:SAA004325 for chemical analysis"	2018/10/05	2018/10/05
PRA000076	SAA004324	ST024				OsakaCity_sed2-3_2016	Sediment	"River sediment"	2016	10	26	2016-10-26T10:10			Cloudy	Asia	Japan	"Kema-bashi Bridge, Riv. Oh (Osaka City), Osaka"	34.717760		135.519610														24	19.2										19.1	3	Sludge	"Grayish brown"	"Grayish yellow_Light"	"Sewage odor_Faint"	"Bivalves; Pond snail"	47.8/56.4	9.6/8.7									"This sample was used as the pooled sample:SAA004325 for chemical analysis"	2018/10/05	2018/10/05
PRA000076	SAA004325	ST024				OsakaCity_sed2-123_2016	Sediment	"River sediment"	2016	10	26					Asia	Japan	"Kema-bashi Bridge, Riv. Oh (Osaka City), Osaka"	34.717760		135.519610																																										"n=3 pooled: SAA004322, SAA004323 and SAA004324"	2018/10/05	2018/10/05
PRA000076	SAA004326	ST024				OsakaCity_sed3-1_2016	Sediment	"River sediment"	2016	10	25	2016-10-25T10:10			Cloudy	Asia	Japan	"Mouth of Riv. Yodo, Osaka"	34.67638889		135.3975														19	22								2.4		23.6	6.8	Sludge	"Gray black"	"Grayish yellow_Light"	Odorless	None	42.3/60.8	8.9/10.0									"This sample was used as the pooled sample:SAA004329 for chemical analysis"	2018/10/5	2018/10/5
PRA000076	SAA004327	ST024				OsakaCity_sed3-2_2016	Sediment	"River sediment"	2016	10	25	2016-10-25T10:20			Cloudy	Asia	Japan	"Mouth of Riv. Yodo, Osaka"	34.67638889		135.3975														19.6	21.6								2.2		23.9	5.2	Sludge	"Gray black"	"Grayish yellow_Light"	Odorless	"Vegetative piece"	45.0/60.8	9.7/10.0									"This sample was used as the pooled sample:SAA004329 for chemical analysis"	2018/10/5	2018/10/5
PRA000076	SAA004328	ST024				OsakaCity_sed3-3_2016	Sediment	"River sediment"	2016	10	25	2016-10-25T10:26			Cloudy	Asia	Japan	"Mouth of Riv. Yodo, Osaka"	34.67638889		135.3975														18.7	22								2		24	4.2	Sludge	"Gray black"	"Grayish yellow_Light"	Odorless	"Vegetative piece"	43.9/60.8	8.8/10.0									"This sample was used as the pooled sample:SAA004329 for chemical analysis"	2018/10/5	2018/10/5
PRA000076	SAA004329	ST024				OsakaCity_sed3-123_2016	Sediment	"River sediment"	2016	10	25				Cloudy	Asia	Japan	"Mouth of Riv. Yodo, Osaka"	34.67638889		135.3975																																										"n=3 pooled: SAA004326, SAA004327 and SAA004328"	2018/10/5	2018/10/5
PRA000076	SAA004110	ST023				OsakaCity_sed1-1_2016	Sediment	"Marine sediment"	2016	10	25	2016-10-25T09:32			Cloudy	Asia	Japan	"Osaka Port, Osaka"	34.65861111		135.4313889														19	21.6								3.3		23.9	12.1	Sludge	"Gray black"	"Grayish yellow_Light"	Odorless	None	44.1/60.6	7.9/NA									"Monitoring: This sample was used as the pooled sample:SAA004330 for chemical analysis; Sediment Moisture(%):44.1/68.6;  Ignition Loss(%):7.9/10.0"	2018/10/5	2018/10/5
PRA000076	SAA004111	ST023				OsakaCity_sed1-2_2016	Sediment	"Marine sediment"	2016	10	25	2016-10-25T08:55			Cloudy	Asia	Japan	"Osaka Port, Osaka"	34.65861111		135.4313889														18.5	22								2.9		23.8	12	Sludge	"Gray black"	"Grayish yellow_Light"	"Hydrogen sulfide odor_Faint"	None	58.6/69.6	11.2/NA									"Monitoring: This sample was used as the pooled sample:SAA004330 for chemical analysis; Sediment Moisture(%):58.6/68.6;  Ignition Loss(%):11.2/10.0"	2018/10/5	2018/10/5
PRA000076	SAA004112	ST023				OsakaCity_sed1-3_2016	Sediment	"Marine sediment"	2016	10	25	2016-10-25T09:45			Cloudy	Asia	Japan	"Osaka Port, Osaka"	34.65861111		135.4313889														19.7	21.6								3.1		23.6	12.8	Sludge	"Gray black"	"Grayish yellow_Light"	"Hydrogen sulfide odor"	None	61.0/71.1	11.5/NA									"Monitoring: This sample was used as the pooled sample:SAA004330 for chemical analysis; Sediment Moisture(%):61.0/68.6;  Ignition Loss(%):11.5/10.0"	2018/10/5	2018/10/5
PRA000076	SAA004330	ST023				OsakaCity_sed1-123_2016	Sediment	"Marine sediment"	2016	10	25				Cloudy	Asia	Japan	"Osaka Port, Osaka"	34.65861111		135.4313889																																										"n=3 pooled: SAA004110, SAA004111 and SAA004112"	2018/10/5	2018/10/5
PRA000076	SAA004331	ST023				OsakaCity_sed4-1_2016	Sediment	"Marine sediment"	2016	10	25	2016-10-25T10:45			Cloudy	Asia	Japan	"Outside of Osaka Port, Osaka"	34.64027778		135.3858333														19.6	22.4								3.2		23.7	17.2	Sludge	Gray	"Grayish yellow_Light"	Odorless	None	51.4/63.0	8.9/7.7									"This sample was used as the pooled sample:SAA004334 for chemical analysis"	2018/10/5	2018/10/5
PRA000076	SAA004332	ST023				OsakaCity_sed4-2_2016	Sediment	"Marine sediment"	2016	10	25	2016-10-25T10:55			Cloudy	Asia	Japan	"Outside of Osaka Port, Osaka"	34.64027778		135.3858333														20.8	22.4								2.8		23.6	14	Sludge	Gray	"Grayish yellow_Light"	"Hydrogen sulfide odor_Faint"	None	57.0/63.0	10.1/7.7									"This sample was used as the pooled sample:SAA004334 for chemical analysis"	2018/10/5	2018/10/5
PRA000076	SAA004333	ST023				OsakaCity_sed4-3_2016	Sediment	"Marine sediment"	2016	10	25	2016-10-25T11:03			Cloudy	Asia	Japan	"Outside of Osaka Port, Osaka"	34.64027778		135.3858333														21.2	23.1								2.5		23.6	12.5	Sludge	Gray	"Grayish yellow_Light"	"Hydrogen sulfide odor_Faint"	Bivalves	40.4/63.0	6.2/7.7									"This sample was used as the pooled sample:SAA004334 for chemical analysis"	2018/10/5	2018/10/5
PRA000076	SAA004334	ST023				OsakaCity_sed4-123_2016	Sediment	"Marine sediment"	2016	10	25				Cloudy	Asia	Japan	"Outside of Osaka Port, Osaka"	34.64027778		135.3858333																																										"n=3 pooled: SAA004331, SAA004332 and SAA004333"	2018/10/5	2018/10/5
PRA000076	SAA004198	ST023				Hyogo_sed1-1_2016	Sediment	"Marine sediment"	2016	10	18	2016-10-18T11:17			Fair	Asia	Japan	"Offshore of Himeji, Hyogo"	34.76194444		134.6697222														25.8	24.9								2.9		24.5	10	"Silty clay"	"Grayish green"	"Greenish brown"	"Hydrogen sulfide odor"	None	NA/67.8										"Monitoring: This sample was used as the pooled sample:SAA004335 for chemical analysis; Sediment Moisture(%):NA/70.6;  Ignition Loss(%):NA/9.4"	2018/10/5	2018/10/5
PRA000076	SAA004199	ST023				Hyogo_sed1-2_2016	Sediment	"Marine sediment"	2016	10	18	2016-10-18T11:00			Fair	Asia	Japan	"Offshore of Himeji, Hyogo"	34.76194444		134.6697222														24.4	24.4								2.9		24.5	11	"Silty clay"	"Grayish green"	"Greenish brown"	"Hydrogen sulfide odor_Faint"	None	NA/70.5										"Monitoring: This sample was used as the pooled sample:SAA004335 for chemical analysis; Sediment Moisture(%):NA/70.6;  Ignition Loss(%):NA/9.4"	2018/10/5	2018/10/5
PRA000076	SAA004200	ST023				Hyogo_sed1-3_2016	Sediment	"Marine sediment"	2016	10	18	2016-10-18T10:45			Fair	Asia	Japan	"Offshore of Himeji, Hyogo"	34.76194444		134.6697222														25.9	24.6								2.9		24.4	11	"Silty clay"	"Grayish green"	"Greenish brown"	"Hydrogen sulfide odor_Faint"	None	NA/73.0										"Monitoring: This sample was used as the pooled sample:SAA004335 for chemical analysis; Sediment Moisture(%):NA/70.6;  Ignition Loss(%):NA/9.4"	2018/10/5	2018/10/5
PRA000076	SAA004335	ST023				Hyogo_sed1-123_2016	Sediment	"Marine sediment"	2016	10	18				Fair	Asia	Japan	"Offshore of Himeji, Hyogo"	34.76194444		134.6697222																																										"n=3 pooled: SAA004198, SAA004199 and SAA004200"	2018/10/5	2018/10/5
PRA000076	SAA004201	ST023				Hyogo_sed2-1_2016	Sediment	"Marine sediment"	2016	11	1	2016-11-01T10:05			Fair	Asia	Japan	"Center of Kobe Port, Hyogo"	34.66444444		135.1944444														19.5	21.8								2.75		22.5	11.8	Silty	"Gray black"	"Greenish brown_Dark"	"Hydrogen sulfide odor_Faint"	None	53.7/64.5	7.9/NA									"Monitoring: This sample was used as the pooled sample:SAA004203 for chemical analysis; Sediment Moisture(%):53.7/62.5;  Ignition Loss(%)7.9/7.8"	2018/10/5	2018/10/5
PRA000076	SAA004202	ST023				Hyogo_sed2-2_2016	Sediment	"Marine sediment"	2016	11	1	2016-11-01T10:40			Fair	Asia	Japan	"Center of Kobe Port, Hyogo"	34.66444444		135.1944444														19.2	22								2.6		22	11.4	Silty	"Gray black"	"Greenish brown"	"Hydrogen sulfide odor_Faint"	None	46.0/54.6	8.4/NA									"Monitoring: This sample was used as the pooled sample:SAA004203 for chemical analysis; Sediment Moisture(%):46.0/62.5;  Ignition Loss(%)8.4/7.8"	2018/10/5	2018/10/5
PRA000076	SAA004203	ST023				Hyogo_sed2-3_2016	Sediment	"Marine sediment"	2016	11	1	2016-11-01T10:55			Fair	Asia	Japan	"Center of Kobe Port, Hyogo"	34.66444444		135.1944444														20	22								2.75		22	13.8	Silty	"Gray black"	"Greenish brown"	"Hydrogen sulfide odor_Faint"	None	61.6/69.5	8.0/NA									"Monitoring: This sample was used as the pooled sample:SAA004203 for chemical analysis; Sediment Moisture(%):61.6/62.5;  Ignition Loss(%)8.0/7.8"	2018/10/5	2018/10/5
PRA000076	SAA004336	ST023				Hyogo_sed2-123_2016	Sediment	"Marine sediment"	2016	11	1				Fair	Asia	Japan	"Center of Kobe Port, Hyogo"	34.66444444		135.1944444																																										"n=3 pooled: SAA004201, SAA004202 and SAA004203"	2018/10/5	2018/10/5
PRA000076	SAA004337	ST024				Nara_sed1_1_2016	Sediment	"River sediment"	2016	10	19	2016-10-19T10:22			Fair	Asia	Japan	"Taisho-bashi Bridge, Riv. Yamato (Oji town), Nara"	34.58583333		135.6833333														24.2	23.5										20	0.2	Muddy	"Blackish brown"	"Yellowish green_Light"	"Sewage odor"	None	27.0/21.2	1.3/0.7									"This sample was used as the pooled sample:SAA004340 for chemical analysis"	2018/10/05	2018/10/05
PRA000076	SAA004338	ST024				Nara_sed1_2_2016	Sediment	"River sediment"	2016	10	19	2016-10-19T10:27			Fair	Asia	Japan	"Taisho-bashi Bridge, Riv. Yamato (Oji town), Nara"	34.58583333		135.6833333														24.2	23.5										21.2	0.2	Sandy	"Dark brown"	"Yellowish green_Light"	"Sewage odor"	None	20.0/21.2	0.7/0.7									"This sample was used as the pooled sample:SAA004340 for chemical analysis"	2018/10/05	2018/10/05
PRA000076	SAA004339	ST024				Nara_sed1_3_2016	Sediment	"River sediment"	2016	10	19	2016-10-19T10:31			Fair	Asia	Japan	"Taisho-bashi Bridge, Riv. Yamato (Oji town), Nara"	34.58583333		135.6833333														24.2	23.8										21	0.2	Sandy	"Dark brown"	"Yellowish green_Light"	"Sewage odor"	None	20.0/21.2	0.6/0.7									"This sample was used as the pooled sample:SAA004340 for chemical analysis"	2018/10/05	2018/10/05
PRA000076	SAA004340	ST024				Nara_sed1_123_2016	Sediment	"River sediment"	2016	10	19				Fair	Asia	Japan	"Taisho-bashi Bridge, Riv. Yamato (Oji town), Nara"	34.58583333		135.6833333																																										"n=3 pooled: SAA004337, SAA004338 and SAA004339"	2018/10/05	2018/10/05
PRA000076	SAA004341	ST024				Wakayama_sed1-1_2016	Sediment	"River sediment"	2016	10	19	2016-10-19T11:10			Cloudy	Asia	Japan	"Kinokawa-ohashi Bridge, Mouth of Riv. Kinokawa (Wakayama City), Wakayama"	34.23		135.1561111														26.1	23.6								1.5		25.6	3.5	Muddy	Gray	Green_Dark	"Seaweed odor"	Pebble	23.4/28.7	3.8/3.0									"This sample was used as the pooled sample:SAA004344 for chemical analysis"	2018/10/5	2018/10/5
PRA000076	SAA004342	ST024				Wakayama_sed1-2_2016	Sediment	"River sediment"	2016	10	19	2016-10-19T11:34			Cloudy	Asia	Japan	"Kinokawa-ohashi Bridge, Mouth of Riv. Kinokawa (Wakayama City), Wakayama"	34.23		135.1561111														26.1	23.3								1.5		24.9	5	Muddy	Gray	Green_Dark	"Seaweed odor"	Pebble	27.7/28.7	4.3/3.0									"This sample was used as the pooled sample:SAA004344 for chemical analysis"	2018/10/5	2018/10/5
PRA000076	SAA004343	ST024				Wakayama_sed1-3_2016	Sediment	"River sediment"	2016	10	19	2016-10-19T12:25			Cloudy	Asia	Japan	"Kinokawa-ohashi Bridge, Mouth of Riv. Kinokawa (Wakayama City), Wakayama"	34.23		135.1561111														26.1	23.5								2		24.4	3.5	Sandy	Gray	Green_Dark	"Seaweed odor"	None	19.2/28.7	1.8/3.0									"This sample was used as the pooled sample:SAA004344 for chemical analysis"	2018/10/5	2018/10/5
PRA000076	SAA004344	ST024				Wakayama_sed1-123_2016	Sediment	"River sediment"	2016	10	19				Cloudy	Asia	Japan	"Kinokawa-ohashi Bridge, Mouth of Riv. Kinokawa (Wakayama City), Wakayama"	34.23		135.1561111																																										"n=3 pooled: SAA004341, SAA004342 and SAA004343"	2018/10/5	2018/10/5
PRA000076	SAA004113	ST023				Okayama_sed1-1_2016	Sediment	"Marine sediment"	2016	10	26	2016-10-26T10:45			Cloudy	Asia	Japan	"Offshore of Mizushima, Okayama"	34.48055556		133.665														21.2	23								2.5		22.4	10.5	Ooze	"Greenish gray"	Green_Dark	"Earthy odor"	"Small pieces of shell"	51.6/52.9	7.5/NA									"Monitoring: This sample was used as the pooled sample:SAA004345 for chemical analysis; Sediment Moisture(%):51.6/48.9;  Ignition Loss(%)7.5/5.3"	2018/10/5	2018/10/5
PRA000076	SAA004114	ST023				Okayama_sed1-2_2016	Sediment	"Marine sediment"	2016	10	26	2016-10-26T11:05			Cloudy	Asia	Japan	"Offshore of Mizushima, Okayama"	34.48055556		133.665														22	22.6								2.5		22.2	8.8	Ooze	"Greenish gray"	Green_Dark	"Earthy odor"	"Small pieces of shell"	48.2/49.2	6.6/NA									"Monitoring: This sample was used as the pooled sample:SAA004345 for chemical analysis; Sediment Moisture(%):48.2/48.9;  Ignition Loss(%)6.6/5.3"	2018/10/5	2018/10/5
PRA000076	SAA004115	ST023				Okayama_sed1-3_2016	Sediment	"Marine sediment"	2016	10	26	2016-10-26T11:27			Cloudy	Asia	Japan	"Offshore of Mizushima, Okayama"	34.48055556		133.665														21.8	22.3								2.5		22.4	10.1	Ooze	"Greenish gray"	Green_Dark	"Earthy odor"	"Small pieces of shell"	48.2/49.9	6.0/NA									"Monitoring: This sample was used as the pooled sample:SAA004345 for chemical analysis; Sediment Moisture(%):48.2/48.9;  Ignition Loss(%)6.0/5.3"	2018/10/5	2018/10/5
PRA000076	SAA004345	ST023				Okayama_sed1-123_2016	Sediment	"Marine sediment"	2016	10	26				Cloudy	Asia	Japan	"Offshore of Mizushima, Okayama"	34.48055556		133.665																																										"n=3 pooled: SAA004113, SAA004114 and SAA004115"	2018/10/5	2018/10/5
PRA000076	SAA004346	ST023				Hiroshima_sed1-1_2016	Sediment	"Marine sediment"	2016	11	7	2016-11-07T09:56			Fair	Asia	Japan	"Kure Port, Hiroshima"	34.23361111		132.5391667														15.5	20.8								9		20.2	18	Silt	"Greenish gray"	Green_Dark	Odorless	None	61.5/73.7	11.6/10.8									"This sample was used as the pooled sample:SAA004349 for chemical analysis"	2018/10/5	2018/10/5
PRA000076	SAA004347	ST023				Hiroshima_sed1-2_2016	Sediment	"Marine sediment"	2016	11	7	2016-11-07T10:28			Fair	Asia	Japan	"Kure Port, Hiroshima"	34.23361111		132.5391667														16.1	21.3								6		20.1	18	Silt	"Greenish gray"	Green_Dark	Odorless	None	59.2/73.7	11.7/10.8									"This sample was used as the pooled sample:SAA004349 for chemical analysis"	2018/10/5	2018/10/5
PRA000076	SAA004348	ST023				Hiroshima_sed1-3_2016	Sediment	"Marine sediment"	2016	11	7	2016-11-07T10:40			Fair	Asia	Japan	"Kure Port, Hiroshima"	34.23361111		132.5391667														16.3	21								6		20.5	15	Silt	"Greenish gray"	Green_Dark	"Hydrogen sulfide odor"	None	63.9/73.7	12.1/10.8									"This sample was used as the pooled sample:SAA004349 for chemical analysis"	2018/10/5	2018/10/5
PRA000076	SAA004349	ST023				Hiroshima_sed1-123_2016	Sediment	"Marine sediment"	2016	11	7				Fair	Asia	Japan	"Kure Port, Hiroshima"	34.23361111		132.5391667																																										"n=3 pooled: SAA004346, SAA004347 and SAA004348"	2018/10/5	2018/10/5
PRA000076	SAA004350	ST023				Hiroshima_sed2-1_2016	Sediment	"Marine sediment"	2016	11	7	2016-11-07T11:26			Fair	Asia	Japan	"Hiroshima Bay (Hiroshima City), Hiroshima"	34.34833333		132.4225														16.1	20.4								5.5		20.8	13	Silt	"Greenish gray"	Green_Dark	Odorless	None	54.3/68.3	11.0/10.8									"This sample was used as the pooled sample:SAA004353 for chemical analysis"	2018/10/05	2018/10/05
PRA000076	SAA004351	ST023				Hiroshima_sed2-2_2016	Sediment	"Marine sediment"	2016	11	7	2016-11-07T11:47			Fair	Asia	Japan	"Hiroshima Bay (Hiroshima City), Hiroshima"	34.34833333		132.4225														16.1	21								6		20.8	12	Silt	"Greenish gray"	Green_Dark	Odorless	None	55.9/68.3	11.7/10.8									"This sample was used as the pooled sample:SAA004353 for chemical analysis"	2018/10/05	2018/10/05
PRA000076	SAA004352	ST023				Hiroshima_sed2-3_2016	Sediment	"Marine sediment"	2016	11	7	2016-11-07T11:59			Fair	Asia	Japan	"Hiroshima Bay (Hiroshima City), Hiroshima"	34.34833333		132.4225														16	21.2								6.5		20	14	Silt	"Greenish gray"	Green_Dark	"Hydrogen sulfide odor"	None	57.1/68.3	11.7/10.8									"This sample was used as the pooled sample:SAA004353 for chemical analysis"	2018/10/05	2018/10/05
PRA000076	SAA004353	ST023				Hiroshima_sed2-123_2016	Sediment	"Marine sediment"	2016	11	7				Fair	Asia	Japan	"Hiroshima Bay (Hiroshima City), Hiroshima"	34.34833333		132.4225																																										"n=3 pooled: SAA004350, SAA004351 and SAA004352"	2018/10/05	2018/10/05
PRA000076	SAA004204	ST023				Yamaguchi_sed1-1_2016	Sediment	"Marine sediment"	2016	10	14	2016-10-14T09:23			Cloudy	Asia	Japan	"Tokuyama Bay, Yamaguchi"	33.99361111		131.7505556														20.6	23.6								3.5		24	25.6	Silt	"Grayish yellow green"	Blue-green	"Hydrogen sulfide odor_Faint"	None	61.3/68.5	10.2/NA									"Monitoring: This sample was used as the pooled sample:SAA004354 for chemical analysis; Sediment Moisture(%):61.3/68.3;  Ignition Loss(%)10.2/7.9"	2018/10/5	2018/10/5
PRA000076	SAA004205	ST023				Yamaguchi_sed1-2_2016	Sediment	"Marine sediment"	2016	10	14	2016-10-14T09:26			Cloudy	Asia	Japan	"Tokuyama Bay, Yamaguchi"	33.99361111		131.7505556														20.6	23.6								3.5		24	26.2	Silt	"Grayish yellow green"	Blue-green	"Hydrogen sulfide odor_Faint"	None	60.5/69.3	10.6/NA									"Monitoring: This sample was used as the pooled sample:SAA004354 for chemical analysis; Sediment Moisture(%):60.5/68.3;  Ignition Loss(%)10.6/7.9"	2018/10/5	2018/10/5
PRA000076	SAA004206	ST023				Yamaguchi_sed1-3_2016	Sediment	"Marine sediment"	2016	10	14	2016-10-14T09:30			Cloudy	Asia	Japan	"Tokuyama Bay, Yamaguchi"	33.99361111		131.7505556														20.6	23.6								3.5		24	26.5	Silt	"Grayish yellow green"	Blue-green	"Hydrogen sulfide odor_Faint"	None	62.2/68.9	10.5/NA									"Monitoring: This sample was used as the pooled sample:SAA004354 for chemical analysis; Sediment Moisture(%):62.2/68.3;  Ignition Loss(%)10.5/7.9"	2018/10/5	2018/10/5
PRA000076	SAA004354	ST023				Yamaguchi_sed1-123_2016	Sediment	"Marine sediment"	2016	10	14				Cloudy	Asia	Japan	"Tokuyama Bay, Yamaguchi"	33.99361111		131.7505556																																										"n=3 pooled: SAA004204, SAA004205 and SAA004206"	2018/10/5	2018/10/5
PRA000076	SAA004355	ST023				Yamaguchi_sed2-1_2016	Sediment	"Marine sediment"	2016	11	16	2016-11-16T11:55			Fair	Asia	Japan	"Offshore of Ube, Yamaguchi"	33.915		131.1975														17.4	18.5								4		18.2	9.5	Silt	"Greenish gray"	"Blue green"	Odorless	None	33.9/36.5	5.8/5.0									"This sample was used as the pooled sample:SAA004358 for chemical analysis"	2018/10/5	2018/10/5
PRA000076	SAA004356	ST023				Yamaguchi_sed2-2_2016	Sediment	"Marine sediment"	2016	11	16	2016-11-19T12:00			Fair	Asia	Japan	"Offshore of Ube, Yamaguchi"	33.915		131.1975														17.4	18.5								4		18.2	9.5	Silt	"Greenish gray"	"Blue green"	Odorless	None	32.7/36.5	5.8/5.0									"This sample was used as the pooled sample:SAA004358 for chemical analysis"	2018/10/5	2018/10/5
PRA000076	SAA004357	ST023				Yamaguchi_sed2-3_2016	Sediment	"Marine sediment"	2016	11	16	2016-11-16T12:05			Fair	Asia	Japan	"Offshore of Ube, Yamaguchi"	33.915		131.1975														17.4	18.5								4		18.2	9.5	Silt	"Greenish gray"	"Blue green"	Odorless	None	33.7/36.5	5.9/5.0									"This sample was used as the pooled sample:SAA004358 for chemical analysis"	2018/10/5	2018/10/5
PRA000076	SAA004358	ST023				Yamaguchi_sed2-123_2016	Sediment	"Marine sediment"	2016	11	16				Fair	Asia	Japan	"Offshore of Ube, Yamaguchi"	33.915		131.1975																																										"n=3 pooled: SAA004355, SAA004356 and SAA004357"	2018/10/5	2018/10/5
PRA000076	SAA004207	ST023				Yamaguchi_sed3-1_2016	Sediment	"Marine sediment"	2016	11	4	2016-11-04T11:20			Fair	Asia	Japan	"Offshore of Hagi, Yamaguchi"	34.43805556		131.3794444														18	21								9.5		18	9.5	"Fine sand"	Gray_Light	Blue-green	Odorless	None	29.9/33.4	7.1/NA									"Monitoring: This sample was used as the pooled sample:SAA004359 for chemical analysis; Sediment Moisture(%):29.9/30.0;  Ignition Loss(%)7.1/4.6"	2018/10/5	2018/10/5
PRA000076	SAA004208	ST023				Yamaguchi_sed3-2_2016	Sediment	"Marine sediment"	2016	11	4	2016-11-04T11:25			Fair	Asia	Japan	"Offshore of Hagi, Yamaguchi"	34.43805556		131.3794444														18	21								9.5		18	9.5	"Fine sand"	Gray_Light	Blue-green	Odorless	None	29.8/34.7	7.1/NA									"Monitoring: This sample was used as the pooled sample:SAA004359 for chemical analysis; Sediment Moisture(%):29.4/30.0;  Ignition Loss(%)7.2/4.6"	2018/10/5	2018/10/5
PRA000076	SAA004209	ST023				Yamaguchi_sed3-3_2016	Sediment	"Marine sediment"	2016	11	4	2016-11-04T11:30			Fair	Asia	Japan	"Offshore of Hagi, Yamaguchi"	34.43805556		131.3794444														18	21								9.5		18	9.5	"Fine sand"	Gray_Light	Blue-green	Odorless	None	29.4/34.0	7.2/NA									"Monitoring: This sample was used as the pooled sample:SAA004359 for chemical analysis; Sediment Moisture(%):29.4/30.0;  Ignition Loss(%)7.2/4.6"	2018/10/5	2018/10/5
PRA000076	SAA004359	ST023				Yamaguchi_sed3-123_2016	Sediment	"Marine sediment"	2016	11	4				Fair	Asia	Japan	"Offshore of Hagi, Yamaguchi"	34.43805556		131.3794444																																										"n=3 pooled:SAA004207, SAA004208 and SAA004209"	2018/10/5	2018/10/5
PRA000076	SAA004360	ST024				Tokushima_sed1-1_2016	Sediment	"River sediment"	2016	10	19	2016-10-19T10:18			"Slightly cloudy"	Asia	Japan	"Mouth of Riv. Yoshino (Tokushima City), Tokushima"	34.085		134.5913889														23	22.7								2.5		23.9	7.5	Argilliferous	"Gray black"	Green	Odorless	None	47.0/31.1	15.0/2.8									"This sample was used as the pooled sample:SAA004363 for chemical analysis"	2018/10/05	2018/10/05
PRA000076	SAA004361	ST024				Tokushima_sed1-2_2016	Sediment	"River sediment"	2016	10	19	2016-10-19T10:44			"Slightly cloudy"	Asia	Japan	"Mouth of Riv. Yoshino (Tokushima City), Tokushima"	34.085		134.5913889														23.1	22.7								2.5		23.9	7	Argilliferous/Arenaceous	"Gray black"	Green	Odorless	None	31.0/31.1	2.9/2.8									"This sample was used as the pooled sample:SAA004363 for chemical analysis"	2018/10/05	2018/10/05
PRA000076	SAA004362	ST024				Tokushima_sed1-3_2016	Sediment	"River sediment"	2016	10	19	2016-10-19T11:19			"Slightly cloudy"	Asia	Japan	"Mouth of Riv. Yoshino (Tokushima City), Tokushima"	34.085		134.5913889														23.6	22.7								2.5		23.7	6.4	Arenaceous	"Gray black"	Green	Odorless	None	22.0/31.1	2.2/2.8									"This sample was used as the pooled sample:SAA004363 for chemical analysis"	2018/10/05	2018/10/05
PRA000076	SAA004363	ST024				Tokushima_sed1-123_2016	Sediment	"River sediment"	2016	10	19				"Slightly cloudy"	Asia	Japan	"Mouth of Riv. Yoshino (Tokushima City), Tokushima"	34.085		134.5913889																																										"n=3 pooled: SAA004360, SAA004361 and SAA004362"	2018/10/05	2018/10/05
PRA000076	SAA004210	ST023				Kagawa_sed1-1_2016	Sediment	"Marine sediment"	2016	10	4	2016-10-04T09:20			Cloudy	Asia	Japan	"Takamatsu Port, Kagawa"	34.34972222		134.0788889														28.7	27.3								1.8		27.9	1.9	Muddy	Black	Green	"Hydrogen sulfide odor; "	"Asian mussels; Goblinfish; Shell; Vegetative piece"	62.5/71.3	19.0/NA									"Monitoring: This sample was used as the pooled sample:SAA004364 for chemical analysis; Sediment Moisture(%):62.5/60.7;  Ignition Loss(%)19.0/8.8"	2018/10/5	2018/10/5
PRA000076	SAA004211	ST023				Kagawa_sed1-2_2016	Sediment	"Marine sediment"	2016	10	4	2016-10-04T09:25			Cloudy	Asia	Japan	"Takamatsu Port, Kagawa"	34.34972222		134.0788889														28.7	27.8								3		28.1	5.3	"Sandy mud"	Black	Green	"Hydrogen sulfide odor; "	"Asian mussels; P. nipponica ; Shell; Vegetative piece"	34.2/54.8	6.3/NA									"Monitoring: This sample was used as the pooled sample:SAA004364 for chemical analysis; Sediment Moisture(%):34.2/60.7;  Ignition Loss(%)6.3/8.8"	2018/10/5	2018/10/5
PRA000076	SAA004212	ST023				Kagawa_sed1-3_2016	Sediment	"Marine sediment"	2016	10	4	2016-10-04T09:40			Cloudy	Asia	Japan	"Takamatsu Port, Kagawa"	34.34972222		134.0788889														28.2	27.9								4		27.8	5	Muddy	Black	Green	"Hydrogen sulfide odor"	Benthos	40.2/64.6	7.5/NA									"Monitoring: This sample was used as the pooled sample:SAA004364 for chemical analysis; Sediment Moisture(%):40.2/60.7;  Ignition Loss(%)7.5/8.8"	2018/10/5	2018/10/5
PRA000076	SAA004364	ST023				Kagawa_sed1-123_2016	Sediment	"Marine sediment"	2016	10	4				Cloudy	Asia	Japan	"Takamatsu Port, Kagawa"	34.34972222		134.0788889																																										"n=3 pooled: SAA004210, SAA004211 and SAA004212"	2018/10/5	2018/10/5
PRA000076	SAA004365	ST023				Ehime_sed1-1_2016	Sediment	"Marine sediment"	2016	10	25	2016-10-25T10:30			Fair	Asia	Japan	"Niihama Port, Ehime"	33.98777778		133.3144444														22	23.3										23	1.5	Sand	"Grayish blue_Dark"	"Yellowish green_Dark"	Odorless	None	33.4/25.4	1.2/1.4									"This sample was used as the pooled sample:SAA004368 for chemical analysis"	2018/10/5	2018/10/5
PRA000076	SAA004366	ST023				Ehime_sed1-2_2016	Sediment	"Marine sediment"	2016	10	25	2016-10-25T10:42			Fair	Asia	Japan	"Niihama Port, Ehime"	33.98777778		133.3144444														21.2	23										23	1.5	Sand	"Grayish blue_Dark"	"Yellowish green_Dark"	Odorless	None	33.4/25.4	1.3/1.4									"This sample was used as the pooled sample:SAA004368 for chemical analysis"	2018/10/5	2018/10/5
PRA000076	SAA004367	ST023				Ehime_sed1-3_2016	Sediment	"Marine sediment"	2016	10	25	2016-10-25T10:50			Fair	Asia	Japan	"Niihama Port, Ehime"	33.98777778		133.3144444														21	23										22.5	1.5	Sand	"Grayish blue_Dark"	"Yellowish green_Dark"	Odorless	None	33.3/25.4	1.1/1.4									"This sample was used as the pooled sample:SAA004368 for chemical analysis"	2018/10/5	2018/10/5
PRA000076	SAA004368	ST023				Ehime_sed1-123_2016	Sediment	"Marine sediment"	2016	10	25				Fair	Asia	Japan	"Niihama Port, Ehime"	33.98777778		133.3144444																																										"n=3 pooled: SAA004365, SAA004366 and SAA004367"	2018/10/5	2018/10/5
PRA000076	SAA004369	ST024				Kochi_sed1-1_2016	Sediment	"River sediment"	2016	10	14	2016-10-14T08:03			Cloudy	Asia	Japan	"Mouth of Riv. Shimanto (Shimanto City), Kochi"	32.93777778		132.8441667														18.2	19.8								2.5		20	6.2	Mud	"Gray black"	Clear	"Swampy odor"	None	43.2/36.2	13.6/3.9									"This sample was used as the pooled sample:SAA004372 for chemical analysis"	2018/10/05	2018/10/05
PRA000076	SAA004370	ST024				Kochi_sed1-2_2016	Sediment	"River sediment"	2016	10	14	2016-10-14T09:54			Cloudy	Asia	Japan	"Mouth of Riv. Shimanto (Shimanto City), Kochi"	32.93777778		132.8441667														19											22	0.3	Sand	"Gray black"	Clear	Odorless	None	24.2/36.2	3.0/3.9									"This sample was used as the pooled sample:SAA004372 for chemical analysis"	2018/10/05	2018/10/05
PRA000076	SAA004371	ST024				Kochi_sed1-3_2016	Sediment	"River sediment"	2016	10	14	2016-10-14T11:03			Cloudy	Asia	Japan	"Mouth of Riv. Shimanto (Shimanto City), Kochi"	32.93777778		132.8441667														23.3											22.8	0.3	Sand	"Gray black"	Clear	Odorless	None	24.4/36.2	2.0/3.9									"This sample was used as the pooled sample:SAA004372 for chemical analysis"	2018/10/05	2018/10/05
PRA000076	SAA004372	ST024				Kochi_sed1-123_2016	Sediment	"River sediment"	2016	10	14				Cloudy	Asia	Japan	"Mouth of Riv. Shimanto (Shimanto City), Kochi"	32.93777778		132.8441667																																										"n=3 pooled: SAA004369, SAA004370 and SAA004371"	2018/10/05	2018/10/05
PRA000076	SAA004373	ST023				KitakyushuCity_sed1-1_2016	Sediment	"Marine sediment"	2016	10	18	2016-10-18T09:35			Fair	Asia	Japan	"Dokai Bay (Kitakyushu City), Fukuoka"	33.90388889		130.8158333														25.7	23.2								2.5		22.7	7.4	Muddy	"Blackish brown"	Clear	Odorless	None	54.0/49.5	28.0/8.3									"This sample was used as the pooled sample:SAA004376 for chemical analysis"	2018/10/05	2018/10/05
PRA000076	SAA004374	ST023				KitakyushuCity_sed1-2_2016	Sediment	"Marine sediment"	2016	10	18	2016-10-18T09:45			Fair	Asia	Japan	"Dokai Bay (Kitakyushu City), Fukuoka"	33.90388889		130.8158333														25.7	23.2								2.5		22.7	11.4	Muddy	"Blackish brown"	Clear	Odorless	None	42.0/49.5	7.8/8.3									"This sample was used as the pooled sample:SAA004376 for chemical analysis"	2018/10/05	2018/10/05
PRA000076	SAA004375	ST023				KitakyushuCity_sed1-3_2016	Sediment	"Marine sediment"	2016	10	18	2016-10-18T09:55			Fair	Asia	Japan	"Dokai Bay (Kitakyushu City), Fukuoka"	33.90388889		130.8158333														25.7	23.2								2.5		22.8	10.2	Muddy	"Blackish brown"	Clear	Odorless	None	48.0/49.5	17.0/8.3									"This sample was used as the pooled sample:SAA004376 for chemical analysis"	2018/10/05	2018/10/05
PRA000076	SAA004376	ST023				KitakyushuCity_sed1-123_2016	Sediment	"Marine sediment"	2016	10	18				Fair	Asia	Japan	"Dokai Bay (Kitakyushu City), Fukuoka"	33.90388889		130.8158333																																										"n=3 pooled: SAA004373, SAA004374 and SAA004375"	2018/10/05	2018/10/05
PRA000076	SAA004119	ST023				FukuokaCity_sed1-1_2016	Sediment	"Marine sediment"	2016	10	18	2016-10-18T10:10			Fair	Asia	Japan	"Hakata Bay, Fukuoka"	33.60833333		130.3297222														23	23.1								1.5		22	8.9	Silt	Gray	"Yellowish green_Dark"	Odorless	None	42.0/54.8	9.2/NA									"Monitoring: This sample was used as the pooled sample:SAA004377 for chemical analysis; Sediment Moisture(%):42.0/54.2;  Ignition Loss(%)9.2/8.7"	2018/10/5	2018/10/5
PRA000076	SAA004120	ST023				FukuokaCity_sed1-2_2016	Sediment	"Marine sediment"	2016	10	18	2016-10-18T09:51			Fair	Asia	Japan	"Hakata Bay, Fukuoka"	33.60833333		130.3297222														22.9	23.1								1.3		22.2	8.7	Silt	Gray	"Yellowish green_Dark"	Odorless	None	44.0/57.4	9.7/NA									"Monitoring: This sample was used as the pooled sample:SAA004377 for chemical analysis; Sediment Moisture(%):44.0/54.2;  Ignition Loss(%)9.7/8.7"	2018/10/5	2018/10/5
PRA000076	SAA004121	ST023				FukuokaCity_sed1-3_2016	Sediment	"Marine sediment"	2016	10	18	2016-10-18T09:20			Fair	Asia	Japan	"Hakata Bay, Fukuoka"	33.60833333		130.3297222														22.9	23.2								1.2		22	8	Silt	Gray	"Yellowish green_Dark"	Odorless	None	44.0/54.0	9.7/NA									"Monitoring: This sample was used as the pooled sample:SAA004377 for chemical analysis; Sediment Moisture(%):44.0/54.2;  Ignition Loss(%)9.7/8.7"	2018/10/5	2018/10/5
PRA000076	SAA004377	ST023				FukuokaCity_sed1-123_2016	Sediment	"Marine sediment"	2016	10	18				Fair	Asia	Japan	"Hakata Bay, Fukuoka"	33.60833333		130.3297222																																										"n=3 pooled: SAA004119, SAA004120 and SAA004121"	2018/10/5	2018/10/5
PRA000076	SAA004378	ST023				Saga_sed1-1_2016	Sediment	"Marine sediment"	2016	10	26	2016-10-26T11:15			Cloudy	Asia	Japan	"Imari Bay, Saga"	33.34		129.8208333														21.6	22.5								2.5		22	15.6	Muddy	"Gray black"	"Grayish green"	Odorless	None	63.0/63.8	17.9/9.9									"This sample was used as the pooled sample:SAA004381 for chemical analysis"	2018/10/5	2018/10/5
PRA000076	SAA004379	ST023				Saga_sed1-2_2016	Sediment	"Marine sediment"	2016	10	26	2016-10-26T11:40			Cloudy	Asia	Japan	"Imari Bay, Saga"	33.34		129.8208333														21.8	22								2.7		23	15.4	Muddy	"Gray black"	"Grayish green"	Odorless	None	58.8/63.8	20.8/9.9									"This sample was used as the pooled sample:SAA004381 for chemical analysis"	2018/10/5	2018/10/5
PRA000076	SAA004380	ST023				Saga_sed1-3_2016	Sediment	"Marine sediment"	2016	10	26	2016-10-26T12:00			Cloudy	Asia	Japan	"Imari Bay, Saga"	33.34		129.8208333														21	22								2.6		24	15.6	Muddy	"Gray black"	"Grayish green"	Odorless	None	60.2/63.8	18.3/9.9									"This sample was used as the pooled sample:SAA004381 for chemical analysis"	2018/10/5	2018/10/5
PRA000076	SAA004381	ST023				Saga_sed1-123_2016	Sediment	"Marine sediment"	2016	10	26				Cloudy	Asia	Japan	"Imari Bay, Saga"	33.34		129.8208333																																										"n=3 pooled: SAA004378, SAA004379 and SAA004380"	2018/10/5	2018/10/5
PRA000076	SAA004382	ST023				Nagasaki_sed1-1_2016	Sediment	"Marine sediment"	2016	12	15	2016-12-15T12:05			Cloudy	Asia	Japan	"Omura Bay, Nagasaki"	32.98833333		129.8522222														7.7	15.3								4.5		16.5	19.4	Muddy	"Blackish brown"	"Greenish blue"	"Hydrogen sulfide odor_Faint"	Shell	68.1/65.8	12.4/12.9									"This sample was used as the pooled sample:SAA004385 for chemical analysis"	2018/10/5	2018/10/5
PRA000076	SAA004383	ST023				Nagasaki_sed1-2_2016	Sediment	"Marine sediment"	2016	12	15	2016-12-15T12:32			Cloudy	Asia	Japan	"Omura Bay, Nagasaki"	32.98833333		129.8522222														7.7											16.5		Muddy	"Blackish brown"		"Hydrogen sulfide odor_Faint"	Shell	68.4/65.8	12.3/12.9									"This sample was used as the pooled sample:SAA004385 for chemical analysis"	2018/10/5	2018/10/5
PRA000076	SAA004384	ST023				Nagasaki_sed1-3_2016	Sediment	"Marine sediment"	2016	12	15	2016-12-15T12:59			Cloudy	Asia	Japan	"Omura Bay, Nagasaki"	32.98833333		129.8522222														7.7											16		Muddy	"Blackish brown"		"Hydrogen sulfide odor_Faint"	Shell	67.8/65.8	12.7/12.9									"This sample was used as the pooled sample:SAA004385 for chemical analysis"	2018/10/5	2018/10/5
PRA000076	SAA004385	ST023				Nagasaki_sed1-123_2016	Sediment	"Marine sediment"	2016	12	15				Cloudy	Asia	Japan	"Omura Bay, Nagasaki"	32.98833333		129.8522222																																										"n=3 pooled: SAA004382, SAA004383 and SAA004384"	2018/10/5	2018/10/5
PRA000076	SAA004213	ST024				Oita_sed1-1_2016	Sediment	"River sediment"	2016	10	31	2016-10-31T11:40			Cloudy	Asia	Japan	"Mouth of Riv. Oita, Oita"	33.25722222		131.6175														19.6	18.2										22.8	2.2	Sandy	Black	"Greenish brown"	Odorless	"Shell; Small pieces of shell; Stone"	19.6/20.8	1.1/NA									"Monitoring: This sample was used as the pooled sample:SAA004386 for chemical analysis; Sediment Moisture(%):19.6/21.5;  Ignition Loss(%)1.1/1.0"	2018/10/5	2018/10/5
PRA000076	SAA004214	ST024				Oita_sed1-2_2016	Sediment	"River sediment"	2016	10	31	2016-10-31T11:10			Cloudy	Asia	Japan	"Mouth of Riv. Oita, Oita"	33.25722222		131.6175														18.5	17.8										22.3	2.4	Sandy	Black	"Greenish brown"	Odorless	"Shell; Small pieces of shell; Stone"	14.5/21.1	1.0/NA									"Monitoring: This sample was used as the pooled sample:SAA004386 for chemical analysis; Sediment Moisture(%):14.5/21.5;  Ignition Loss(%)1.0/1.0"	2018/10/5	2018/10/5
PRA000076	SAA004215	ST024				Oita_sed1-3_2016	Sediment	"River sediment"	2016	10	31	2016-10-31T10:00			Cloudy	Asia	Japan	"Mouth of Riv. Oita, Oita"	33.25722222		131.6175														18.1	17.5										22.4	2.9	Sandy	Black	"Greenish brown"	Odorless	"Shell; Small pieces of shell; Stone"	15.1/21.6	1.3/NA									"Monitoring: This sample was used as the pooled sample:SAA004386 for chemical analysis; Sediment Moisture(%):15.1/21.5;  Ignition Loss(%)1.3/1.0"	2018/10/5	2018/10/5
PRA000076	SAA004386	ST024				Oita_sed1-123_2016	Sediment	"River sediment"	2016	10	31				Cloudy	Asia	Japan	"Mouth of Riv. Oita, Oita"	33.25722222		131.6175																																										"n=3 pooled: SAA004213, SAA004214 and SAA004215"	2018/10/5	2018/10/5
PRA000076	SAA004387	ST024				Miyazaki_sed1-1_2016	Sediment	"River sediment"	2016	10	31	2016-10-31T11:50			Cloudy	Asia	Japan	"Mouth of Riv. Oyodo (Miyazaki City), Miyazaki"	31.89611111		131.4402778														20.5	19.8										19.5	0.6	Pebble/Sand	"Gray black_Light"	Clear	Odorless	None	17.0/19.6	1.3/1.1									"This sample was used as the pooled sample:SAA004390 for chemical analysis"	2018/10/05	2018/10/05
PRA000076	SAA004388	ST024				Miyazaki_sed1-2_2016	Sediment	"River sediment"	2016	10	31	2016-10-31T12:05			Cloudy	Asia	Japan	"Mouth of Riv. Oyodo (Miyazaki City), Miyazaki"	31.89611111		131.4402778														21	19.5										19.5	0.5	Pebble/Sand	"Gray black_Light"	Clear	Odorless	None	19.0/19.6	1.3/1.1									"This sample was used as the pooled sample:SAA004390 for chemical analysis"	2018/10/05	2018/10/05
PRA000076	SAA004389	ST024				Miyazaki_sed1-3_2016	Sediment	"River sediment"	2016	10	31	2016-10-31T12:20			Cloudy	Asia	Japan	"Mouth of Riv. Oyodo (Miyazaki City), Miyazaki"	31.89611111		131.4402778														21.8	19.7										20	0.7	Pebble/Sand	"Gray black_Light"	Clear	Odorless	None	18.0/19.6	1.4/1.1									"This sample was used as the pooled sample:SAA004390 for chemical analysis"	2018/10/05	2018/10/05
PRA000076	SAA004390	ST024				Miyazaki_sed1-123_2016	Sediment	"River sediment"	2016	10	31				Cloudy	Asia	Japan	"Mouth of Riv. Oyodo (Miyazaki City), Miyazaki"	31.89611111		131.4402778																																										"n=3 pooled: SAA004387, SAA004388 and SAA004389"	2018/10/05	2018/10/05
PRA000076	SAA004391	ST024				Kagoshima_sed1-1_2016	Sediment	"River sediment"	2016	11	17	2016-11-17T11:20			Fair	Asia	Japan	"Riv. Amori (Kirishima City), Kagoshima"	31.7225		130.7416667														19.4	17.1										17.4	0.7	Gravel	"Blackish brown"	Clear	"Swampy odor_Faint"	Pebble	22.9/18.3	1.3/0.8									"This sample was used as the pooled sample:SAA004394 for chemical analysis"	2018/10/05	2018/10/05
PRA000076	SAA004392	ST024				Kagoshima_sed1-2_2016	Sediment	"River sediment"	2016	11	17	2016-11-17T10:40			Fair	Asia	Japan	"Riv. Amori (Kirishima City), Kagoshima"	31.7225		130.7416667														20.1	17.6										18.3	0.7	Gravel	"Blackish brown"	Clear	Odorless	Pebble	17.3/18.3	0.9/0.8									"This sample was used as the pooled sample:SAA004394 for chemical analysis"	2018/10/05	2018/10/05
PRA000076	SAA004393	ST024				Kagoshima_sed1-3_2016	Sediment	"River sediment"	2016	11	17	2016-11-17T10:00			Fair	Asia	Japan	"Riv. Amori (Kirishima City), Kagoshima"	31.7225		130.7416667														19.4	17.5										19.9	0.7	Gravel	"Blackish brown"	Clear	Odorless	Pebble	24.4/18.3	1.1/0.8									"This sample was used as the pooled sample:SAA004394 for chemical analysis"	2018/10/05	2018/10/05
PRA000076	SAA004394	ST024				Kagoshima_sed1-123_2016	Sediment	"River sediment"	2016	11	17				Fair	Asia	Japan	"Riv. Amori (Kirishima City), Kagoshima"	31.7225		130.7416667																																										"n=3 pooled: SAA004391, SAA004392 and SAA004393"	2018/10/05	2018/10/05
PRA000076	SAA004395	ST024				Kagoshima_sed2-1_2016	Sediment	"River sediment"	2016	10	31	2016-10-31T11:30			Cloudy	Asia	Japan	"Gotanda-bashi Bridge, Riv. Gotanda (Ichikikushikino City), Kagoshima"	31.72583333		130.2769444														19.3	18.3										18.3	0.3	Gravel	"Blackish brown"	Clear	Odorless	Pebble	19.9/25.1	1.8/2.0									"This sample was used as the pooled sample:SAA004398 for chemical analysis"	2018/10/05	2018/10/05
PRA000076	SAA004396	ST024				Kagoshima_sed2-2_2016	Sediment	"River sediment"	2016	10	31	2016-10-31T10:45			Cloudy	Asia	Japan	"Gotanda-bashi Bridge, Riv. Gotanda (Ichikikushikino City), Kagoshima"	31.72583333		130.2769444														17.8	18										18	0.5	Gravel	"Blackish brown"	Clear	Odorless	Pebble	22.6/25.1	2.4/2.0									"This sample was used as the pooled sample:SAA004398 for chemical analysis"	2018/10/05	2018/10/05
PRA000076	SAA004397	ST024				Kagoshima_sed2-3_2016	Sediment	"River sediment"	2016	10	31	2016-10-31T09:45			Cloudy	Asia	Japan	"Gotanda-bashi Bridge, Riv. Gotanda (Ichikikushikino City), Kagoshima"	31.72583333		130.2769444														17.8	18										18	0.5	Gravel	"Blackish brown"	Clear	Odorless	Pebble	23.8/25.1	2.9/2.0									"This sample was used as the pooled sample:SAA004398 for chemical analysis"	2018/10/05	2018/10/05
PRA000076	SAA004398	ST024				Kagoshima_sed2-123_2016	Sediment	"River sediment"	2016	10	31				Cloudy	Asia	Japan	"Gotanda-bashi Bridge, Riv. Gotanda (Ichikikushikino City), Kagoshima"	31.72583333		130.2769444																																										"n=3 pooled: SAA004395, SAA004396 and SAA004397"	2018/10/05	2018/10/05
PRA000076	SAA004399	ST023				Okinawa_sed1-1_2016	Sediment	"Marine sediment"	2016	10	27	2016-10-27T09:30			Fair	Asia	Japan	"Naha Port, Okinawa"	26.21222222		127.665														27.5	27.8								2.6		27.8	7.8	Sludge	"Gray black"	Clear	"Hydrogen sulfide odor; Sewage odor"	"Pieces of coral;Vinyl; Woodchips"	38.4/47.7	10.5/10.3									"This sample was used as the pooled sample:SAA004402 for chemical analysis"	2018/10/5	2018/10/5
PRA000076	SAA004400	ST023				Okinawa_sed1-2_2016	Sediment	"Marine sediment"	2016	10	27	2016-10-27T10:20			Fair	Asia	Japan	"Naha Port, Okinawa"	26.21222222		127.665														28.5	28.1								1.7		27.6	6.9	Sludge	"Gray black"	Clear	"Hydrogen sulfide odor; Sewage odor"	"Vinyl; Woodchips; Iron nail"	37.9/47.7	9.3/10.3									"This sample was used as the pooled sample:SAA004402 for chemical analysis"	2018/10/5	2018/10/5
PRA000076	SAA004401	ST023				Okinawa_sed1-3_2016	Sediment	"Marine sediment"	2016	10	27	2016-10-27T10:55			Fair	Asia	Japan	"Naha Port, Okinawa"	26.21222222		127.665														29	27.6								5.5		27.6	6.3	Sludge	"Gray black"	Clear	"Hydrogen sulfide odor; Sewage odor"	"Pieces of coral;Vinyl; Metal piece; Shell "	34.5/47.7	10.2/10.3									"This sample was used as the pooled sample:SAA004402 for chemical analysis"	2018/10/5	2018/10/5
PRA000076	SAA004402	ST023				Okinawa_sed1-123_2016	Sediment	"Marine sediment"	2016	10	27				Fair	Asia	Japan	"Naha Port, Okinawa"	26.21222222		127.665																																										"n=3 pooled: SAA004399, SAA004400 and SAA004401"	2018/10/5	2018/10/5
PRA000077	SAA004427	ST023				Tak-Sediment	Sediment	"Marine sediment (Mangrove forests)"	2006	9						Asia	Philippines	Taklong	10.408		122.512																											Clay	Black														"About 1 month after the spill of heavy fuel oil; "	2018/10/31	2018/10/31
PRA000079	SAA004498	ST023				TP-1_53	Sediment	"Sediment Core"	2002	6	6					Asia	Japan	"Tokyo Bay"	35.58666667		139.8783333						17.65	"g wet"															13				"0 - 0.05"						81	12.3									"Ignition loss(%):at 600 ℃, 2h; Depositional age (year)(by <sup>210</sup>Pb method): 1998; Bulk dens(g/cm3): 1.11"	2018/11/8	2018/11/8
PRA000079	SAA004499	ST023				TP-1_56	Sediment	"Sediment Core"	2002	6	6					Asia	Japan	"Tokyo Bay"	35.58666667		139.8783333						15.86	"g wet"															13				"0.05 - 0.1"						73.8	11.3									"Ignition loss(%):at 600 ℃, 2h; Depositional age (year)(by <sup>210</sup>Pb method): 1989; Bulk dens(g/cm3): 11.16"	2018/11/8	2018/11/8
PRA000079	SAA004500	ST023				TP-1_59	Sediment	"Sediment Core"	2002	6	6					Asia	Japan	"Tokyo Bay"	35.58666667		139.8783333						15.7	"g wet"															13				"0.1 - 0.15"						73.9	10.8									"Ignition loss(%):at 600 ℃, 2h; Depositional age (year)(by <sup>210</sup>Pb method): 1979; Bulk dens(g/cm3): 11.17"	2018/11/8	2018/11/8
PRA000079	SAA004501	ST023				TP-1_62	Sediment	"Sediment Core"	2002	6	6					Asia	Japan	"Tokyo Bay"	35.58666667		139.8783333						16.7	"g wet"															13				"0.15 - 0.2"						70.9	9.7									"Ignition loss(%):at 600 ℃, 2h; Depositional age (year)(by <sup>210</sup>Pb method): 1968; Bulk dens(g/cm3): 11.19"	2018/11/8	2018/11/8
PRA000079	SAA004502	ST023				TP-1_67	Sediment	"Sediment Core"	2002	6	6					Asia	Japan	"Tokyo Bay"	35.58666667		139.8783333						16.36	"g wet"															13				"0.25 - 0.3"						67.9	8.2									"Ignition loss(%):at 600 ℃, 2h; Depositional age (year)(by <sup>210</sup>Pb method): 1943; Bulk dens(g/cm3): 11.22"	2018/11/8	2018/11/8
PRA000079	SAA004503	ST023				TP-1_69	Sediment	"Sediment Core"	2002	6	6					Asia	Japan	"Tokyo Bay"	35.58666667		139.8783333						16	"g wet"															13				"0.3 - 0.35"						66.5	7.8									"Ignition loss(%):at 600 ℃, 2h; Depositional age (year)(by <sup>210</sup>Pb method): 1930; Bulk dens(g/cm3): 11.23"	2018/11/8	2018/11/8
PRA000079	SAA004504	ST023				TP-1_71	Sediment	"Sediment Core"	2002	6	6					Asia	Japan	"Tokyo Bay"	35.58666667		139.8783333						17.25	"g wet"															13				"0.35 - 0.4"						65.4	7.8									"Ignition loss(%):at 600 ℃, 2h; Depositional age (year)(by <sup>210</sup>Pb method): 1915; Bulk dens(g/cm3): 11.23"	2018/11/8	2018/11/8
PRA000079	SAA004505	ST023				TP-4_106	Sediment	"Sediment Core"	2002	6	6					Asia	Japan	"Tokyo Bay"	35.545		139.9133333																						20				"0 - 0.05"						84.5	13.8									"Ignition loss(%):at 600 ℃, 2h; Depositional age (year)(by <sup>210</sup>Pb method): 2000; Bulk dens(g/cm3): 11.09"	2018/11/8	2018/11/8
PRA000079	SAA004506	ST023				TP-4_109	Sediment	"Sediment Core"	2002	6	6					Asia	Japan	"Tokyo Bay"	35.545		139.9133333																						20				"0.05 - 0.1"						77.9	12.5									"Ignition loss(%):at 600 ℃, 2h; Depositional age (year)(by <sup>210</sup>Pb method): 1995; Bulk dens(g/cm3): 11.14"	2018/11/8	2018/11/8
PRA000079	SAA004507	ST023				TP-4_111	Sediment	"Sediment Core"	2002	6	6					Asia	Japan	"Tokyo Bay"	35.545		139.9133333																						20				"0.1 - 0.15"						77.4	12.2									"Ignition loss(%):at 600 ℃, 2h; Depositional age (year)(by <sup>210</sup>Pb method): 1988; Bulk dens(g/cm3): 11.14"	2018/11/8	2018/11/8
PRA000079	SAA004508	ST023				TP-4_116	Sediment	"Sediment Core"	2002	6	6					Asia	Japan	"Tokyo Bay"	35.545		139.9133333																						20				"0.15 - 0.2"						77.3	11.9									"Ignition loss(%):at 600 ℃, 2h; Depositional age (year)(by <sup>210</sup>Pb method): 1982; Bulk dens(g/cm3): 11.14"	2018/11/8	2018/11/8
PRA000079	SAA004509	ST023				TP-4_118	Sediment	"Sediment Core"	2002	6	6					Asia	Japan	"Tokyo Bay"	35.545		139.9133333																						20				"0.2 - 0.25"						76.4	10.7									"Ignition loss(%):at 600 ℃, 2h; Depositional age (year)(by <sup>210</sup>Pb method): 1975; Bulk dens(g/cm3): 11.15"	2018/11/8	2018/11/8
PRA000079	SAA004510	ST023				TP-4_119	Sediment	"Sediment Core"	2002	6	6					Asia	Japan	"Tokyo Bay"	35.545		139.9133333																						20				"0.25 - 0.3"						76.6	11									"Ignition loss(%):at 600 ℃, 2h; Depositional age (year)(by <sup>210</sup>Pb method): 1968; Bulk dens(g/cm3): 11.15"	2018/11/8	2018/11/8
PRA000079	SAA004511	ST023				TP-4_121	Sediment	"Sediment Core"	2002	6	6					Asia	Japan	"Tokyo Bay"	35.545		139.9133333																						20				"0.3 - 0.35"						73.8	10.1									"Ignition loss(%):at 600 ℃, 2h; Depositional age (year)(by <sup>210</sup>Pb method): 1961; Bulk dens(g/cm3): 11.18"	2018/11/8	2018/11/8
PRA000079	SAA004512	ST023				TP-4_126	Sediment	"Sediment Core"	2002	6	6					Asia	Japan	"Tokyo Bay"	35.545		139.9133333																						20				"0.4 - 0.45"						75.3	9.9									"Ignition loss(%):at 600 ℃, 2h; Depositional age (year)(by <sup>210</sup>Pb method): 1945; Bulk dens(g/cm3): 11.16"	2018/11/8	2018/11/8
PRA000079	SAA004513	ST023				TP-5_29	Sediment	"Sediment Core"	2002	6	5					Asia	Japan	"Tokyo Bay"	35.52833333		139.9783333						15.25	"g wet"															19				"0 - 0.05"						81.9	12.4									"Ignition loss(%):at 600 ℃, 2h; Depositional age (year)(by <sup>210</sup>Pb method): 1999; Bulk dens(g/cm3): 11.12"	2018/11/8	2018/11/8
PRA000079	SAA004514	ST023				TP-5_30	Sediment	"Sediment Core"	2002	6	5					Asia	Japan	"Tokyo Bay"	35.52833333		139.9783333						15.03	"g wet"															19				"0.05 - 0.1"						76.2	12.2									"Ignition loss(%):at 600 ℃, 2h; Depositional age (year)(by <sup>210</sup>Pb method): 1992; Bulk dens(g/cm3): 11.16"	2018/11/8	2018/11/8
PRA000079	SAA004515	ST023				TP-5_35	Sediment	"Sediment Core"	2002	6	5					Asia	Japan	"Tokyo Bay"	35.52833333		139.9783333						15.16	"g wet"															19				"0.1 - 0.15"						75.1	11.3									"Ignition loss(%):at 600 ℃, 2h; Depositional age (year)(by <sup>210</sup>Pb method): 1984; Bulk dens(g/cm3): 11.17"	2018/11/8	2018/11/8
PRA000079	SAA004516	ST023				TP-5_36	Sediment	"Sediment Core"	2002	6	5					Asia	Japan	"Tokyo Bay"	35.52833333		139.9783333						15.12	"g wet"															19				"0.15 - 0.2"						74.6	11.2									"Ignition loss(%):at 600 ℃, 2h; Depositional age (year)(by <sup>210</sup>Pb method): 1975; Bulk dens(g/cm3): 11.17"	2018/11/8	2018/11/8
PRA000079	SAA004517	ST023				TP-5_39	Sediment	"Sediment Core"	2002	6	5					Asia	Japan	"Tokyo Bay"	35.52833333		139.9783333						15.92	"g wet"															19				"0.2 - 0.25"						71.1	9.9									"Ignition loss(%):at 600 ℃, 2h; Depositional age (year)(by <sup>210</sup>Pb method): 1966; Bulk dens(g/cm3): 11.2"	2018/11/8	2018/11/8
PRA000079	SAA004518	ST023				TP-5_43	Sediment	"Sediment Core"	2002	6	5					Asia	Japan	"Tokyo Bay"	35.52833333		139.9783333						15.41	"g wet"															19				"0.3 - 0.35"						67.9	9									"Ignition loss(%):at 600 ℃, 2h; Depositional age (year)(by <sup>210</sup>Pb method): 1945; Bulk dens(g/cm3): 11.24"	2018/11/8	2018/11/8
PRA000079	SAA004519	ST023				TP-5_45	Sediment	"Sediment Core"	2002	6	5					Asia	Japan	"Tokyo Bay"	35.52833333		139.9783333						15.22	"g wet"															19				"0.35 - 0.4"						66.7	8.5									"Ignition loss(%):at 600 ℃, 2h; Depositional age (year)(by <sup>210</sup>Pb method): 1933; Bulk dens(g/cm3): 11.25"	2018/11/8	2018/11/8
PRA000079	SAA004520	ST023				TP-7	Sediment	"Sediment Core"	2002	6	6					Asia	Japan	"Tokyo Bay"	35.46333333		139.7816667						20.94	"g wet"															33				"0 - 0.05"						79.3	12									"Ignition loss(%):at 600 ℃, 2h; Only surface layer was analyzed in this study."	2018/11/8	2018/11/8
PRA000079	SAA004521	ST023				TP-8	Sediment	"Sediment Core"	2002	6	6					Asia	Japan	"Tokyo Bay"	35.42833333		139.845						20.29	"g wet"															25				"0 - 0.05"						71.6	10									"Ignition loss(%):at 600 ℃, 2h; Only surface layer was analyzed in this study."	2018/11/8	2018/11/8
PRA000079	SAA004522	ST023				T-2	Sediment	"Marine sediment"	2002	10	22					Asia	Japan	"Tokyo Bay"	35.38833333		139.7266667						14.4	"g wet"															19				"0 - 0.05"						21.1	3.9									"Ignition loss(%):at 600 ℃, 2h; "	2018/11/8	2018/11/8
PRA000079	SAA004523	ST023				T-3	Sediment	"Marine sediment"	2002	10	22					Asia	Japan	"Tokyo Bay"	35.305		139.7183333						15.61	"g wet"															45				"0 - 0.05"						39.2	5.3									"Ignition loss(%):at 600 ℃, 2h; "	2018/11/8	2018/11/8
PRA000079	SAA004524	ST023				T-4	Sediment	"Marine sediment"	2002	10	22					Asia	Japan	"Tokyo Bay"	35.24833333		139.7566667						16.24	"g wet"															31				"0 - 0.05"						31.9	5.1									"Ignition loss(%):at 600 ℃, 2h; "	2018/11/8	2018/11/8
PRA000079	SAA004525	ST023				T-5	Sediment	"Marine sediment"	2002	8	26					Asia	Japan	"Tokyo Bay"	35.15		139.7166667						15.79	"g wet"															185				"0 - 0.05"						50.7	6.8									"Ignition loss(%):at 600 ℃, 2h; "	2018/11/8	2018/11/8
PRA000082	SAA004566	ST024				CC-1_2003	Sediment	"River sediment (close to urban areas)"	2003	9						Asia	Vietnam	"the HauRiver near Can Tho city"	10.03883333		105.7696667																										0.05																"Dry season"	2018/12/17	2018/12/17
PRA000082	SAA004567	ST024				CC-4_2003	Sediment	"River sediment (close to urban areas)"	2003	9						Asia	Vietnam	"the HauRiver near Can Tho city"	10.04286111		105.7851667																										0.05																"Dry season"	2018/12/17	2018/12/17
PRA000082	SAA004568	ST024				CC-7_2003	Sediment	"River sediment (close to urban areas)"	2003	9						Asia	Vietnam	"the HauRiver near Can Tho city"	10.02111111		105.7736389																										0.05																"Dry season"	2018/12/17	2018/12/17
PRA000082	SAA004569	ST024				NK-SE_2003	Sediment	"River sediment (close to urban areas)"	2003	9						Asia	Vietnam	"the HauRiver near Can Tho city"	10.03575		105.7903333																										0.05																"Dry season"	2018/12/17	2018/12/17
PRA000082	SAA004570	ST024				Hau-1_2003	Sediment	"River sediment"	2003	9						Asia	Vietnam	"along the Hau River"	9.743694444		106.0699167																										0.05																"Dry season"	2018/12/17	2018/12/17
PRA000082	SAA004571	ST024				Hau-2_2003	Sediment	"River sediment"	2003	9						Asia	Vietnam	"along the Hau River"	9.8435		105.9869722																										0.05																"Dry season"	2018/12/17	2018/12/17
PRA000082	SAA004572	ST024				Hau-3_2003	Sediment	"River sediment"	2003	9						Asia	Vietnam	"along the Hau River"	9.931638889		105.8980278																										0.05																"Dry season"	2018/12/17	2018/12/17
PRA000082	SAA004573	ST024				Hau-4_2003	Sediment	"River sediment"	2003	9						Asia	Vietnam	"along the Hau River"	10.04808333		105.7963333																										0.05																"Dry season"	2018/12/17	2018/12/17
PRA000082	SAA004574	ST024				Hau-5_2003	Sediment	"River sediment"	2003	9						Asia	Vietnam	"along the Hau River"	10.3875		105.4473611																										0.05																"Dry season"	2018/12/17	2018/12/17
PRA000082	SAA004575	ST024				Hau-6_2003	Sediment	"River sediment"	2003	9						Asia	Vietnam	"along the Hau River"	10.33811111		105.479																										0.05																"Dry season"	2018/12/17	2018/12/17
PRA000082	SAA004576	ST024				Hau-7_2003	Sediment	"River sediment"	2003	9						Asia	Vietnam	"along the Hau River"	10.18977778		105.6121667																										0.05																"Dry season"	2018/12/17	2018/12/17
PRA000082	SAA004577	ST024				Hau-8_2003	Sediment	"River sediment"	2003	9						Asia	Vietnam	"along the Hau River"	10.13958333		105.6682222																										0.05																"Dry season"	2018/12/17	2018/12/17
PRA000082	SAA004578	ST024				CC-7_2004	Sediment	"River sediment (close to urban areas)"	2004	5						Asia	Vietnam	"the HauRiver near Can Tho city"	10.02025		105.7733333																										0.05																"Rainy season"	2018/12/17	2018/12/17
PRA000082	SAA004579	ST024				Hau-1_2004	Sediment	"River sediment"	2004	5						Asia	Vietnam	"along the Hau River"	9.930916667		105.8966111																										0.05																"Rainy season"	2018/12/17	2018/12/17
PRA000082	SAA004580	ST024				Hau-2_2004	Sediment	"River sediment"	2004	5						Asia	Vietnam	"along the Hau River"	9.844277778		105.9863056																										0.05																"Rainy season"	2018/12/17	2018/12/17
PRA000082	SAA004581	ST024				Hau-3_2004	Sediment	"River sediment"	2004	5						Asia	Vietnam	"along the Hau River"	9.743055556		106.0695																										0.05																"Rainy season"	2018/12/17	2018/12/17
PRA000082	SAA004582	ST024				Hau-4_2004	Sediment	"River sediment"	2004	5						Asia	Vietnam	"along the Hau River"	10.03941667		105.8033889																										0.05																"Rainy season"	2018/12/17	2018/12/17
PRA000082	SAA004583	ST024				Hau-5_2004	Sediment	"River sediment"	2004	5						Asia	Vietnam	"along the Hau River"	10.38661111		105.4488333																										0.05																"Rainy season"	2018/12/17	2018/12/17
PRA000082	SAA004584	ST024				Hau-6_2004	Sediment	"River sediment"	2004	5						Asia	Vietnam	"along the Hau River"	10.33930556		105.4792222																										0.05																"Rainy season"	2018/12/17	2018/12/17
PRA000082	SAA004585	ST024				Hau-7_2004	Sediment	"River sediment"	2004	5						Asia	Vietnam	"along the Hau River"	10.18980556		105.6121944																										0.05																"Rainy season"	2018/12/17	2018/12/17
PRA000082	SAA004586	ST024				Hau-11_2004	Sediment	"River sediment"	2004	5						Asia	Vietnam	"along the Hau River"	10.70825		105.1286389																										0.05																"Rainy season"	2018/12/17	2018/12/17
PRA000082	SAA004587	ST024				Hau-12_2004	Sediment	"River sediment"	2004	5						Asia	Vietnam	"along the Hau River"	10.54786111		105.2977222																										0.05																"Rainy season"	2018/12/17	2018/12/17
PRA000084	SAA004787	ST023				St1-Sed	Sediment	"Marine sediment"	2004	8						Asia	Japan	"Tokyo Bay"	35.6172		139.9667																						11				0.05																"Collected once a year during 2004-2006 (Aug. 22, 2004, Aug. 17, 2005 and Aug. 16, 2006);"	2019/3/11	2019/3/11
PRA000084	SAA004790	ST023				St2-Sed	Sediment	"Marine sediment"	2004	8						Asia	Japan	"Tokyo Bay"	35.5975		140.0344																						12				0.05																"Collected once a year during 2004-2006 (Aug. 22, 2004, Aug. 17, 2005 and Aug. 16, 2006);"	2019/3/11	2019/3/11
PRA000084	SAA004793	ST023				St3-Sed	Sediment	"Marine sediment"	2004	8						Asia	Japan	"Tokyo Bay"	35.59		139.8467																						12				0.05																"Collected once a year during 2004-2006 (Aug. 22, 2004, Aug. 17, 2005 and Aug. 16, 2006);"	2019/3/11	2019/3/11
PRA000084	SAA004796	ST023				St4-Sed	Sediment	"Marine sediment"	2004	8						Asia	Japan	"Tokyo Bay"	35.5794		139.8897																						14				0.05																"Collected once a year during 2004-2006 (Aug. 22, 2004, Aug. 17, 2005 and Aug. 16, 2006);"	2019/3/11	2019/3/11
PRA000084	SAA004799	ST023				St5-Sed	Sediment	"Marine sediment"	2004	8						Asia	Japan	"Tokyo Bay"	35.5644		139.9431																						16				0.05																"Collected once a year during 2004-2006 (Aug. 22, 2004, Aug. 17, 2005 and Aug. 16, 2006);"	2019/3/11	2019/3/11
PRA000084	SAA004802	ST023				St6-Sed	Sediment	"Marine sediment"	2004	8						Asia	Japan	"Tokyo Bay"	35.5481		139.9931																						17				0.05																"Collected once a year during 2004-2006 (Aug. 22, 2004, Aug. 17, 2005 and Aug. 16, 2006); "	2019/3/11	2019/3/11
PRA000084	SAA004805	ST023				St7-Sed	Sediment	"Marine sediment"	2004	8						Asia	Japan	"Tokyo Bay"	35.5478		139.8264																						19				0.05																"Collected once a year during 2004-2006 (Aug. 22, 2004, Aug. 17, 2005 and Aug. 16, 2006); "	2019/3/11	2019/3/11
PRA000084	SAA004808	ST023				St8-Sed	Sediment	"Marine sediment"	2004	8						Asia	Japan	"Tokyo Bay"	35.5358		139.8581																						21				0.05																"Collected once a year during 2004-2006 (Aug. 22, 2004, Aug. 17, 2005 and Aug. 16, 2006); "	2019/3/11	2019/3/11
PRA000084	SAA004811	ST023				St9-Sed	Sediment	"Marine sediment"	2004	8						Asia	Japan	"Tokyo Bay"	35.525		139.8953																						22				0.05																"Collected once a year during 2004-2006 (Aug. 22, 2004, Aug. 17, 2005 and Aug. 16, 2006); "	2019/3/11	2019/3/11
PRA000084	SAA004814	ST023				St10-Sed	Sediment	"Marine sediment"	2004	8						Asia	Japan	"Tokyo Bay"	35.5033		139.9531																						20				0.05																"Collected once a year during 2004-2006 (Aug. 22, 2004, Aug. 17, 2005 and Aug. 16, 2006); "	2019/3/11	2019/3/11
PRA000084	SAA004817	ST023				St11-Sed	Sediment	"Marine sediment"	2004	8						Asia	Japan	"Tokyo Bay"	35.4658		139.7775																						32				0.05																"Collected once a year during 2004-2006 (Aug. 22, 2004, Aug. 17, 2005 and Aug. 16, 2006); "	2019/3/11	2019/3/11
PRA000084	SAA004820	ST023				St12-Sed	Sediment	"Marine sediment"	2004	8						Asia	Japan	"Tokyo Bay"	35.4639		139.8367																						31				0.05																"Collected once a year during 2004-2006 (Aug. 22, 2004, Aug. 17, 2005 and Aug. 16, 2006); Collected at 35.4603°N, 139.8267°E in 2004 and February 2005."	2019/3/11	2019/3/11
PRA000084	SAA004823	ST023				St13-Sed	Sediment	"Marine sediment"	2004	8						Asia	Japan	"Tokyo Bay"	35.45		139.8725																						23				0.05																"Collected once a year during 2004-2006 (Aug. 22, 2004, Aug. 17, 2005 and Aug. 16, 2006); "	2019/3/11	2019/3/11
PRA000084	SAA004826	ST023				St14-Sed	Sediment	"Marine sediment"	2004	8						Asia	Japan	"Tokyo Bay"	35.4158		139.7183																						37				0.05																"Collected once a year during 2004-2006 (Aug. 22, 2004, Aug. 17, 2005 and Aug. 16, 2006); "	2019/3/11	2019/3/11
PRA000084	SAA004829	ST023				St15-Sed	Sediment	"Marine sediment"	2004	8						Asia	Japan	"Tokyo Bay"	35.4083		139.7614																						19				0.05																"Collected once a year during 2004-2006 (Aug. 22, 2004, Aug. 17, 2005 and Aug. 16, 2006); "	2019/3/11	2019/3/11
PRA000084	SAA004832	ST023				St16-Sed	Sediment	"Marine sediment"	2004	8						Asia	Japan	"Tokyo Bay"	35.3856		139.815																						14				0.05																"Collected once a year during 2004-2006 (Aug. 22, 2004, Aug. 17, 2005 and Aug. 16, 2006); "	2019/3/11	2019/3/11
PRA000084	SAA004835	ST023				St17-Sed	Sediment	"Marine sediment"	2004	8						Asia	Japan	"Tokyo Bay"	35.3528		139.6881																						44				0.05																"Collected once a year during 2004-2006 (Aug. 22, 2004, Aug. 17, 2005 and Aug. 16, 2006); "	2019/3/11	2019/3/11
PRA000084	SAA004838	ST023				St18-Sed	Sediment	"Marine sediment"	2004	8						Asia	Japan	"Tokyo Bay"	35.3486		139.7253																						26				0.05																"Collected once a year during 2004-2006 (Aug. 22, 2004, Aug. 17, 2005 and Aug. 16, 2006);"	2019/3/11	2019/3/11
PRA000084	SAA004841	ST023				St19-Sed	Sediment	"Marine sediment"	2004	8						Asia	Japan	"Tokyo Bay"	35.3433		139.7753																						14				0.05																"Collected once a year during 2004-2006 (Aug. 22, 2004, Aug. 17, 2005 and Aug. 16, 2006); Collected at 35.3389°N in 2004 and February 2005."	2019/3/11	2019/3/11
PRA000084	SAA004844	ST023				St20-Sed	Sediment	"Marine sediment"	2004	8						Asia	Japan	"Tokyo Bay"	35.3103		139.7167																						52				0.05																"Collected once a year during 2004-2006 (Aug. 22, 2004, Aug. 17, 2005 and Aug. 16, 2006); Collected at 139.7081°E in 2004 and February 2005."	2019/3/11	2019/3/11
PRA000088	SAA004972	ST024				S1_Onagigawa-brg	Sediment	"River sediment"	2015	6	15					Asia	Japan	"Onagigawa bridge, Onagi-gawa Riv. Tokyo"	35.68444444		139.8161111																																	"NA / 17.3"									"Antecedent dry weather period: 75 h; Density (g/cm3): 2.55; Ignition loss(%):at 600 ℃ for 2h;"	2019/4/17	2019/4/17
PRA000088	SAA004973	ST024				S2_Shiosai-brg	Sediment	"River sediment"	2015	6	15					Asia	Japan	"Shiosai bridge, Shibaura Canal, Tokyo"	35.64055556		139.7533333																																	"NA / 19.4"									"Antecedent dry weather period: 77 h; Density (g/cm3): 2.32; Ignition loss(%):at 600 ℃ for 2h;"	2019/4/17	2019/4/17
PRA000088	SAA004974	ST024				S3_Heisei-brg	Sediment	"River sediment"	2015	7	15					Asia	Japan	"Heisei bridge, Kyu-Naka-gawa Riv., Tokyo"	35.68472222		139.8463889																																	"NA / 12.6"									"Antecedent dry weather period: 135 h; Density (g/cm3): 2.49; Ignition loss(%):at 600 ℃ for 2h;"	2019/4/17	2019/4/17
PRA000088	SAA004975	ST024				S4_Suehiro-brg	Sediment	"River sediment"	2015	7	12					Asia	Japan	"Suehiro bridge, Asahi Canal, Tokyo"	35.49888889		139.6961111																																	"NA / 5.5"									"Antecedent dry weather period: 65 h; Density (g/cm3): 2.63; Ignition loss(%):at 600 ℃ for 2h;"	2019/4/17	2019/4/17
PRA000088	SAA004976	ST023				S5_Daiba	Sediment	"Marine sediment"	2015	8	23					Asia	Japan	"Daiba, Tokyo"	35.62055556		139.7688889																																	"NA / 12.2"									"Antecedent dry weather period: 73 h; Density (g/cm3): 2.55; Ignition loss(%):at 600 ℃ for 2h;"	2019/4/17	2019/4/17
PRA000088	SAA004977	ST024				S6_Anamori-brg	Sediment	"River sediment"	2015	8	22					Asia	Japan	"Anamori bridge, Ebitori-gawa Riv., Tokyo"	35.55055556		139.7527778																																	"NA / 5.2"									"Antecedent dry weather period: 50 h; Density (g/cm3): 2.53; Ignition loss(%):at 600 ℃ for 2h;"	2019/4/17	2019/4/17
PRA000097	SAA006355	ST024				Hokkaido_sed2-1_2017	Sediment	"River sediment"	2017	11	10	2017-11-10T13:50			Cloudy	Asia	Japan	"Ishikarikakokyo Bridge, Mouth of Riv. Ishikari (Ishikari City), Hokkaido"	43.22861111		141.3519444														8.8	6.8													Black		"Hydrogen sulfide odor"		35.1/NA	5.9/NA									"Monitoring: This sample was used as the pooled sample:SAA006621 for chemical analysis; Sediment Moisture(%):35.1/41.7; Ignition Loss(%)5.9/6.5"	2019/09/13	2019/12/09
PRA000097	SAA006356	ST024				Hokkaido_sed2-2_2017	Sediment	"River sediment"	2017	11	10	2017-11-10T14:40			Cloudy	Asia	Japan	"Ishikarikakokyo Bridge, Mouth of Riv. Ishikari (Ishikari City), Hokkaido"	43.22861111		141.3519444														8.5	6.8													Black		"Hydrogen sulfide odor"		56.0/NA	16.0/NA									"Monitoring: This sample was used as the pooled sample:SAA006621 for chemical analysis; Sediment Moisture(%):56.0/24.8; Ignition Loss(%)16.0/3.0"	2019/09/13	2019/12/09
PRA000097	SAA006357	ST024				Hokkaido_sed2-3_2017	Sediment	"River sediment"	2017	11	10	2017-11-10T14:20			Cloudy	Asia	Japan	"Ishikarikakokyo Bridge, Mouth of Riv. Ishikari (Ishikari City), Hokkaido"	43.22861111		141.3519444														8.7	6.8													Black		"Hydrogen sulfide odor"		50.6/NA	11.0/NA									"Monitoring: This sample was used as the pooled sample:SAA006621 for chemical analysis; Sediment Moisture(%):50.5/54.7; Ignition Loss(%)11.0/7.9"	2019/09/13	2019/12/09
PRA000097	SAA006358	ST023				Hokkaido_sed3-1_2017	Sediment	"Marine sediment"	2017	9	11	2017-09-11T10:45			Fair	Asia	Japan	"Tomakomai Port, Hokkaido"	42.63138889		141.6288889														19.5	19.5								3.5		18	16		Black		"Hydrogen sulfide odor"	"Something found"	59.6/NA	6.2/NA									"Monitoring: This sample was used as the pooled sample:SAA006622 for chemical analysis; Sediment Moisture(%):59.6/62.8; Ignition Loss(%)6.2/7.8"	2019/09/13	2019/12/09
PRA000097	SAA006359	ST023				Hokkaido_sed3-2_2017	Sediment	"Marine sediment"	2017	9	11	2017-09-11T11:20			Fair	Asia	Japan	"Tomakomai Port, Hokkaido"	42.63138889		141.6288889														19.7	19.5								3.5		16	16		Black		"Hydrogen sulfide odor"	"Something found"	36.2/NA	2.5/NA									"Monitoring: This sample was used as the pooled sample:SAA006622 for chemical analysis; Sediment Moisture(%):36.2/40.1; Ignition Loss(%)2.5/4.3"	2019/09/13	2019/12/09
PRA000097	SAA006360	ST023				Hokkaido_sed3-3_2017	Sediment	"Marine sediment"	2017	9	11	2017-09-11T11:04			Fair	Asia	Japan	"Tomakomai Port, Hokkaido"	42.63138889		141.6288889														19.9	19.5								3.5		16	16		Black		"Hydrogen sulfide odor"	"Something found"	42.9/NA	3.2/NA									"Monitoring: This sample was used as the pooled sample:SAA006622 for chemical analysis; Sediment Moisture(%):42.9/48.3; Ignition Loss(%)3.2/4.8"	2019/09/13	2019/12/09
PRA000097	SAA006361	ST023				Hokkaido_sed4-1_2017	Sediment	"Marine sediment"	2017	12	6	2017-12-06T13:10			Cloudy	Asia	Japan	"Muroran port, Hokkaido"	42.34305556		140.9708333														-1.4	5.3																	48.8/NA	5.9/NA										2019/9/13	2019/9/13
PRA000097	SAA006362	ST023				Hokkaido_sed4-2_2017	Sediment	"Marine sediment"	2017	12	6	2017-12-06T13:30			Cloudy	Asia	Japan	"Muroran port, Hokkaido"	42.34305556		140.9708333														-2.9	5.3																	50.5/NA	16.0/NA										2019/9/13	2019/9/13
PRA000097	SAA006363	ST024				Iwate_sed1-1_2017	Sediment	"River sediment"	2017	10	4	2017-10-04T10:29			Cloudy	Asia	Japan	"Riv. Toyosawa (Hanamaki City), Iwate"	39.38166667		141.1191667														15	14.2										13.8	0.2	Sandy	Brown_Light		Odorless	None	23.2/NA	1.9/NA									"Monitoring: This sample was used as the pooled sample:SAA006623 for chemical analysis; Sediment Moisture(%):23.2/28.9; Ignition Loss(%)1.9/2.0"	2019/09/13	2019/12/09
PRA000097	SAA006364	ST024				Iwate_sed1-2_2017	Sediment	"River sediment"	2017	10	4	2017-10-04T11:00			Fair	Asia	Japan	"Riv. Toyosawa (Hanamaki City), Iwate"	39.38166667		141.1191667														15.9	14.3										14	0.2	Sandy	Brown_Light		Odorless	None	22.1/NA	1.9/NA									"Monitoring: This sample was used as the pooled sample:SAA006623 for chemical analysis; Sediment Moisture(%):22.1/25.0; Ignition Loss(%)1.9/2.1"	2019/09/13	2019/12/09
PRA000097	SAA006365	ST024				Iwate_sed1-3_2017	Sediment	"River sediment"	2017	10	4	2017-10-04T11:05			Fair	Asia	Japan	"Riv. Toyosawa (Hanamaki City), Iwate"	39.38166667		141.1191667														16	14.3										14	0.2	Sandy	Brown_Light		Odorless	None	25.6/NA	2.2/NA									"Monitoring: This sample was used as the pooled sample:SAA006623 for chemical analysis; Sediment Moisture(%):25.6/24.8; Ignition Loss(%)2.2/2.2"	2019/09/13	2019/12/09
PRA000097	SAA006366	ST024				Akita_sed1-1_2017	Sediment	"River sediment"	2017	10	11	2017-10-11T13:39			Cloudy	Asia	Japan	"Akita Canal (Akita City), Akita"	39.75083333		140.0586111														17.2	17.8										21.4	12.2	Pelitic	Black		"Hydrogen sulfide odor"	None	51.6/NA	7.0/NA										2019/09/13	2019/09/13
PRA000097	SAA006367	ST024				Akita_sed1-2_2017	Sediment	"River sediment"	2017	10	11	2017-10-11T12:58			Cloudy	Asia	Japan	"Akita Canal (Akita City), Akita"	39.75083333		140.0586111														17.6	18.1								1.95		22	11.2	Pelitic	Black		"Hydrogen sulfide odor"	None	57.2/NA	9.0/NA										2019/09/13	2019/09/13
PRA000097	SAA006368	ST024				Akita_sed1-3_2017	Sediment	"River sediment"	2017	10	11	2017-10-11T13:25			Cloudy	Asia	Japan	"Akita Canal (Akita City), Akita"	39.75083333		140.0586111														17.6	17.4										22	10.2	Pelitic	Black		"Hydrogen sulfide odor"	None	64.8/NA	12.0/NA										2019/09/13	2019/09/13
PRA000097	SAA006369	ST023				Chiba_sed1-1_2017	Sediment	"Marine sediment"	2017	10	19	2017-10-19T09:40			Rain	Asia	Japan	"Ichihara-Anesaki Coast, Chiba"	35.52166667		140.0283333														12.7	20.6								5.8		20.5	14.2	Silt	"Grayish green"		"Hydrogen sulfide odor"	"Small pieces of shell"	54.0/NA	8.5/NA									"Monitoring: This sample was used as the pooled sample:SAA006643 for chemical analysis; Sediment Moisture(%):54.0/64.4; Ignition Loss(%)8.5/7.3"	2019/09/13	2019/12/09
PRA000097	SAA006370	ST023				Chiba_sed1-2_2017	Sediment	"Marine sediment"	2017	10	19	2017-10-19T10:03			Rain	Asia	Japan	"Ichihara-Anesaki Coast, Chiba"	35.52166667		140.0283333														13.1	20.4								5.5		20.5	15.5	Silt	"Grayish green"		"Hydrogen sulfide odor"	"Small pieces of shell"	50.5/NA	7.5/NA									"Monitoring: This sample was used as the pooled sample:SAA006643 for chemical analysis; Sediment Moisture(%):50.5/60.3; Ignition Loss(%)7.5/6.4"	2019/09/13	2019/12/09
PRA000097	SAA006371	ST023				Chiba_sed1-3_2017	Sediment	"Marine sediment"	2017	10	19	2017-10-19T10:20			Rain	Asia	Japan	"Ichihara-Anesaki Coast, Chiba"	35.52166667		140.0283333														12.6	20.6								5.3		20.7	15.5	Silt	Black		"Hydrogen sulfide odor"	None	73.9/NA	13.2/NA									"Monitoring: This sample was used as the pooled sample:SAA006643 for chemical analysis; Sediment Moisture(%):73.9/82.0; Ignition Loss(%)13.2/11.0"	2019/09/13	2019/12/09
PRA000097	SAA006372	ST024				Tokyo_sed1-1_2017	Sediment	"River sediment"	2017	11	15	2017-11-15T10:35			Cloudy	Asia	Japan	"Mouth of Riv. Arakawa (Koto Ward), Tokyo"	35.64583333		139.8463889														15.2	14.4								1.3		18.2	3.7	Silt	"Grayish yellow green"		"Hydrogen sulfide odor_Faint"	"Clam; Shell"	50.3/NA										"Monitoring: This sample was used as the pooled sample:SAA006648 for chemical analysis; Sediment Moisture(%):50.3/53.5; Ignition Loss(%)9.9/7.6"	2019/09/13	2019/12/09
PRA000097	SAA006373	ST024				Tokyo_sed1-2_2017	Sediment	"River sediment"	2017	11	15	2017-11-15T11:20			Fair	Asia	Japan	"Mouth of Riv. Arakawa (Koto Ward), Tokyo"	35.64583333		139.8463889														17	14.8								1		17.7	2.8	Silt	"Dark yellow green"		Odorless	"Clam; Shell"	49.9/NA										"Monitoring: This sample was used as the pooled sample:SAA006648 for chemical analysis; Sediment Moisture(%):49.9/52.5; Ignition Loss(%)9.2/7.4"	2019/09/13	2019/12/09
PRA000097	SAA006374	ST024				Tokyo_sed1-3_2017	Sediment	"River sediment"	2017	11	15	2017-11-15T11:45			Cloudy	Asia	Japan	"Mouth of Riv. Arakawa (Koto Ward), Tokyo"	35.64583333		139.8463889														16.9	15.6								1.1		17.4	2.8	Silt	"Grayish yellow green"		Odorless	"Clam; Shell"	47.7/NA										"Monitoring: This sample was used as the pooled sample:SAA006648 for chemical analysis; Sediment Moisture(%):47.7/54.5; Ignition Loss(%)7.4/7.8"	2019/09/13	2019/12/09
PRA000097	SAA006375	ST024				Tokyo_sed2-1_2017	Sediment	"River sediment"	2017	11	15	2017-11-15T12:55			Fair	Asia	Japan	"Mouth of Riv. Sumida (Minato Ward), Tokyo"	35.66		139.7705556														18.3	18.6								2.9		19.3	5.1	Silt	"Dark yellow green"		"Hydrogen sulfide odor"	Shell	50.6/NA										"Monitoring: This sample was used as the pooled sample:SAA006649 for chemical analysis; Sediment Moisture(%):50.6/62.2; Ignition Loss(%)13.0/17.2"	2019/09/13	2019/12/09
PRA000097	SAA006376	ST024				Tokyo_sed2-2_2017	Sediment	"River sediment"	2017	11	15	2017-11-15T13:35			Fair	Asia	Japan	"Mouth of Riv. Sumida (Minato Ward), Tokyo"	35.66		139.7705556														18.4	18.7								2.6		19.3	5.4	Silt	Black		"Sewage odor"	"Vegetative pieces; Shell"	60.8/NA										"Monitoring: This sample was used as the pooled sample:SAA006649 for chemical analysis; Sediment Moisture(%):60.8/68.4; Ignition Loss(%)13.0/11.3"	2019/09/13	2019/12/09
PRA000097	SAA006377	ST024				Tokyo_sed2-3_2017	Sediment	"River sediment"	2017	11	15	2017-11-15T13:50			Fair	Asia	Japan	"Mouth of Riv. Sumida (Minato Ward), Tokyo"	35.66		139.7705556														18.2	18.6								2.6		19.3	3.2	Silt	Black		"Sewage odor"	Shell	56.0/NA										"Monitoring: This sample was used as the pooled sample:SAA006649 for chemical analysis; Sediment Moisture(%):56.0/65.1; Ignition Loss(%)13.0/10.9"	2019/09/13	2019/12/09
PRA000097	SAA006378	ST023				Yokohama_sed1-1_2017	Sediment	"Marine sediment"	2017	11	6	2017-11-06T13:15			Fair	Asia	Japan	"Yokohama Port, Kanagawa"	35.45555556		139.6636111														18	18								12		19.5	12	Muddy	"Blackish brown"		"Hydrogen sulfide odor"	None	65.2/NA	8.5/NA									"Monitoring: This sample was used as the pooled sample:SAA006650 for chemical analysis; Sediment Moisture(%):65.2/57.2; Ignition Loss(%)8.5/7.7"	2019/09/13	2019/12/09
PRA000097	SAA006379	ST023				Yokohama_sed1-2_2017	Sediment	"Marine sediment"	2017	11	6	2017-11-06T11:00			Fair	Asia	Japan	"Yokohama Port, Kanagawa"	35.45555556		139.6636111														17	16.7								12		19.5	12	Muddy	"Blackish brown"		"Hydrogen sulfide odor"	None	75.1/NA	10.6/NA									"Monitoring: This sample was used as the pooled sample:SAA006650 for chemical analysis; Sediment Moisture(%):75.1/73.1; Ignition Loss(%)10.6/10.1"	2019/09/13	2019/12/09
PRA000097	SAA006380	ST023				Yokohama_sed1-3_2017	Sediment	"Marine sediment"	2017	11	6	2017-11-06T13:45			Fair	Asia	Japan	"Yokohama Port, Kanagawa"	35.45555556		139.6636111														19	17.5								12		19	12	Muddy	"Blackish brown"		"Hydrogen sulfide odor"	None	66.9/NA	8.2/NA									"Monitoring: This sample was used as the pooled sample:SAA006650 for chemical analysis; Sediment Moisture(%):66.9/54.1; Ignition Loss(%)8.2/6.3"	2019/09/13	2019/12/09
PRA000097	SAA006381	ST024				Niigata_sed1-1_2017	Sediment	"River sediment"	2017	10	11	2017-10-11T09:55			Cloudy	Asia	Japan	"Downstream of Riv. Shinano (Niigata City), Niigata"	37.88305556		139.0155556														23	19											2.1	Muddy	"Grayish green"		"Sewage odor"	Leaf	44.8/NA	4.1/NA									"Monitoring: This sample was used as the pooled sample:SAA006656 for chemical analysis; Sediment Moisture(%):44.8/34.4; Ignition Loss(%)4.1/3.7"	2019/09/13	2019/12/09
PRA000097	SAA006382	ST024				Niigata_sed1-2_2017	Sediment	"River sediment"	2017	10	11	2017-10-11T09:45			Cloudy	Asia	Japan	"Downstream of Riv. Shinano (Niigata City), Niigata"	37.88305556		139.0155556														23	19											4.5	Sandy	"Grayish brown"		Odorless	Pebble	18.9/NA	1.4/NA									"Monitoring: This sample was used as the pooled sample:SAA006656 for chemical analysis; Sediment Moisture(%):18.9/20.6; Ignition Loss(%)1.4/1.2"	2019/09/13	2019/12/09
PRA000097	SAA006383	ST024				Niigata_sed1-3_2017	Sediment	"River sediment"	2017	10	11	2017-10-11T09:50			Cloudy	Asia	Japan	"Downstream of Riv. Shinano (Niigata City), Niigata"	37.88305556		139.0155556														23	19											5	Sandy	Brown		"River algae odor"	"Pieces of Plastic; Sticks"	21.8/NA	1.1/NA									"Monitoring: This sample was used as the pooled sample:SAA006656 for chemical analysis; Sediment Moisture(%):21.8/21.1; Ignition Loss(%)1.1/1.1"	2019/09/13	2019/12/09
PRA000097	SAA006384	ST024				Ishikawa_sed1-1_2017	Sediment	"River sediment"	2017	10	11	2017-10-11T10:20			Cloudy	Asia	Japan	"Mouth of Riv. Sai (Kanazawa City), Ishikawa"	36.60027778		136.5888889														25.8	21.8											3.2	"Sandy silt"	"Grayish green"		"Fish rotten odor"	"Pebble; Shell"	20.0/NA	2.3/NA									"Monitoring: This sample was used as the pooled sample:SAA006658 for chemical analysis; Sediment Moisture(%):20.0/22.6; Ignition Loss(%)2.3/2.3"	2019/09/13	2019/12/09
PRA000097	SAA006385	ST024				Ishikawa_sed1-2_2017	Sediment	"River sediment"	2017	10	11	2017-10-11T12:10			Cloudy	Asia	Japan	"Mouth of Riv. Sai (Kanazawa City), Ishikawa"	36.60027778		136.5888889														25.9	22.2											1	"Sandy silt"	"Blackish brown"		"Fish rotten odor"	Pebble	22.0/NA	1.5/NA									"Monitoring: This sample was used as the pooled sample:SAA006658 for chemical analysis; Sediment Moisture(%):22.0/44.1; Ignition Loss(%)1.5/5.2"	2019/09/13	2019/12/09
PRA000097	SAA006386	ST024				Ishikawa_sed1-3_2017	Sediment	"River sediment"	2017	10	11	2017-10-11T12:40			Cloudy	Asia	Japan	"Mouth of Riv. Sai (Kanazawa City), Ishikawa"	36.60027778		136.5888889														27.9	22.2											0.4	Sand	"Blackish brown"		Odorless	Pebble	25.0/NA	2.0/NA									"Monitoring: This sample was used as the pooled sample:SAA006658 for chemical analysis; Sediment Moisture(%):25.0/26.6; Ignition Loss(%)2.0/1.3"	2019/09/13	2019/12/09
PRA000097	SAA006387	ST024				Nagano_sed1-1_2017	Sediment	"Lake sediment"	2017	11	13	2017-11-13T10:27			Fair	Asia	Japan	"Center of Lake Suwa, Nagano"	36.05		138.0861111														12.3	10.4								1.02		10.7	6.2	Muddy	"Blackish brown_Dark"		"Swampy odor_Faint"	None	78.8/NA	14.5/NA									"Monitoring: This sample was used as the pooled sample:SAA006667 for chemical analysis; Sediment Moisture(%):78.8/86.9; Ignition Loss(%)14.5/13.3"	2019/09/13	2019/12/09
PRA000097	SAA006388	ST024				Nagano_sed1-2_2017	Sediment	"Lake sediment"	2017	11	13	2017-11-13T11:19			Fair	Asia	Japan	"Center of Lake Suwa, Nagano"	36.05		138.0861111														14.5	11.1								1.07		10.8	6.1	Muddy	"Blackish brown_Dark"		"Swampy odor_Faint"	None	78.3/NA	14.7/NA									"Monitoring: This sample was used as the pooled sample:SAA006667 for chemical analysis; Sediment Moisture(%):78.3/86.2; Ignition Loss(%)14.7/13.2"	2019/09/13	2019/12/09
PRA000097	SAA006389	ST024				Nagano_sed1-3_2017	Sediment	"Lake sediment"	2017	11	13	2017-11-13T11:50			Fair	Asia	Japan	"Center of Lake Suwa, Nagano"	36.05		138.0861111														12.6	11.2								1		10.5	6.2	Muddy	"Blackish brown_Dark"		"Swampy odor_Faint"	None	78.3/NA	15.2/NA									"Monitoring: This sample was used as the pooled sample:SAA006667 for chemical analysis; Sediment Moisture(%):78.3/86.0; Ignition Loss(%)15.2/13.6"	2019/09/13	2019/12/09
PRA000097	SAA006390	ST023				Aichi_sed1-1_2017	Sediment	"Marine sediment"	2017	11	13	2017-11-13T12:35			Cloudy	Asia	Japan	"Nagoya Port, West of Shiomi Wharf, Aichi"	35.07111111		136.8691667														15.7	18.3								2.8		20.1	12.9	Muddy	"Grayish black"		"Hydrogen sulfide odor"	None	54.2/NA	15.7/NA										2019/9/13	2019/9/13
PRA000097	SAA006391	ST023				Aichi_sed1-2_2017	Sediment	"Marine sediment"	2017	11	13	2017-11-13T12:44			Cloudy	Asia	Japan	"Nagoya Port, West of Shiomi Wharf, Aichi"	35.07111111		136.8691667														15.7	18.3								2.8		20.1	12.9	Muddy	"Grayish black"		"Hydrogen sulfide odor"	None	50.1/NA	10.1/NA										2019/9/13	2019/9/13
PRA000097	SAA006392	ST023				Aichi_sed1-3_2017	Sediment	"Marine sediment"	2017	11	13	2017-11-13T12:53			Cloudy	Asia	Japan	"Nagoya Port, West of Shiomi Wharf, Aichi"	35.07111111		136.8691667														15.7	18.3								2.8		20.1	12.9	Muddy	"Grayish black"		"Hydrogen sulfide odor"	None	48.8/NA	13.5/NA										2019/9/13	2019/9/13
PRA000097	SAA006393	ST023				Mie_sed1-1_2017	Sediment	"Marine sediment"	2017	10	24	2017-10-24T10:20			Cloudy	Asia	Japan	"Yokkaichi Port, Mie"	34.94944444		136.6530556														17	16								1.2		21	12	Muddy	"Grayish black"		"Hydrogen sulfide odor_Faint"	"Almost none"	70.0/NA	8.9/NA									"Monitoring: This sample was used as the pooled sample:SAA006678 for chemical analysis; Sediment Moisture(%):70.0/69.4; Ignition Loss(%)8.9/7.9"	2019/09/13	2019/12/09
PRA000097	SAA006394	ST023				Mie_sed1-2_2017	Sediment	"Marine sediment"	2017	10	24	2017-10-24T10:40			Cloudy	Asia	Japan	"Yokkaichi Port, Mie"	34.94944444		136.6530556														17.5	17.5								1.4		21	12.5	Muddy	"Grayish black"		"Hydrogen sulfide odor_Faint"	"Almost none"	74.0/NA	9.8/NA									"Monitoring: This sample was used as the pooled sample:SAA006678 for chemical analysis; Sediment Moisture(%):74.0/71.4; Ignition Loss(%)9.8/8.4"	2019/09/13	2019/12/09
PRA000097	SAA006395	ST023				Mie_sed1-3_2017	Sediment	"Marine sediment"	2017	10	24	2017-10-24T10:50			Cloudy	Asia	Japan	"Yokkaichi Port, Mie"	34.94944444		136.6530556														17	17								1.1		21	8	Muddy	"Grayish black"		"Hydrogen sulfide odor"	Shell	57.0/NA	5.7/NA									"Monitoring: This sample was used as the pooled sample:SAA006678 for chemical analysis; Sediment Moisture(%):57.0/50.8; Ignition Loss(%)5.7/4.5"	2019/09/13	2019/12/09
PRA000097	SAA006396	ST023				Kyoto_sed1-1_2017	Sediment	"Marine sediment"	2017	10	19	2017-10-19T09:55			"Cloudy with occasional rain"	Asia	Japan	"Miyazu Port, Kyoto"	35.58305556		135.2138889														17.2	21.4								5		20	10.7	Muddy	"Grayish black"		"Seaweed odor"	None	26.1/NA	2.4/NA									"Monitoring: This sample was used as the pooled sample:SAA006685 for chemical analysis; Sediment Moisture(%):26.1/29.7; Ignition Loss(%)2.4/1.9"	2019/09/13	2019/12/09
PRA000097	SAA006397	ST023				Kyoto_sed1-2_2017	Sediment	"Marine sediment"	2017	10	19	2017-10-19T10:15			"Cloudy with occasional rain"	Asia	Japan	"Miyazu Port, Kyoto"	35.58305556		135.2138889														17.7	21.5								6		20	22.2	Muddy	"Grayish black_Dark"		"Seaweed odor"	None	49.9/NA	8.2/NA									"Monitoring: This sample was used as the pooled sample:SAA006685 for chemical analysis; Sediment Moisture(%):49.9/50.7; Ignition Loss(%)8.2/7.4"	2019/09/13	2019/12/09
PRA000097	SAA006398	ST023				Kyoto_sed1-3_2017	Sediment	"Marine sediment"	2017	10	19	2017-10-19T10:43			"Cloudy with occasional rain"	Asia	Japan	"Miyazu Port, Kyoto"	35.58305556		135.2138889														16.9	21.6								6		19.2	22.1	Muddy	"Grayish black_Dark"		"Seaweed odor"	None	52.3/NA	8.8/NA									"Monitoring: This sample was used as the pooled sample:SAA006685 for chemical analysis; Sediment Moisture(%):52.3/53.8; Ignition Loss(%)8.8/8.0"	2019/09/13	2019/12/09
PRA000097	SAA006399	ST024				Osaka_sed1-1_2017	Sediment	"River sediment"	2017	11	7	2017-11-07T11:30			Fair	Asia	Japan	"Mouth of Riv. Yamato (Sakai City), Osaka"	34.60833333		135.4325														21.6	18.3								1.5		22.1	2.9	Silt	"Blackish brown"		Odorless	"Vegetative pieces"	45.5/NA	10.5/NA									"Monitoring: This sample was used as the pooled sample:SAA006687 for chemical analysis; Sediment Moisture(%):45.5/55.2; Ignition Loss(%)10.5/9.5"	2019/09/13	2019/12/09
PRA000097	SAA006400	ST024				Osaka_sed1-2_2017	Sediment	"River sediment"	2017	11	7	2017-11-07T10:50			Fair	Asia	Japan	"Mouth of Riv. Yamato (Sakai City), Osaka"	34.60833333		135.4325														20	18.5								1.5		22.3	2.5	Silt	"Blackish brown"		"Sewage odor_Faint"	"Vegetative pieces"	44.6/NA	9.0/NA									"Monitoring: This sample was used as the pooled sample:SAA006687 for chemical analysis; Sediment Moisture(%):44.6/52.6; Ignition Loss(%)9.0/7.8"	2019/09/13	2019/12/09
PRA000097	SAA006401	ST024				Osaka_sed1-3_2017	Sediment	"River sediment"	2017	11	7	2017-11-07T11:59			Fair	Asia	Japan	"Mouth of Riv. Yamato (Sakai City), Osaka"	34.60833333		135.4325														21	18.3								1.5		22.3	2	Silt	"Blackish brown"		Odorless	"Vegetative pieces"	45.3/NA	11.1/NA									"Monitoring: This sample was used as the pooled sample:SAA006687 for chemical analysis; Sediment Moisture(%):45.3/57.1; Ignition Loss(%)11.1/9.4"	2019/09/13	2019/12/09
PRA000097	SAA006402	ST023				Hyogo_sed2-1_2017	Sediment	"Marine sediment"	2017	11	1	2017-11-01T10:16			Fair	Asia	Japan	"Center of Kobe Port, Hyogo"	34.66444444		135.1944444														17	18.5								2.5		21.3	10.5	Silt	"Grayish black"		"Hydrogen sulfide odor"	None	53.3/NA	8.8/NA									"Monitoring: This sample was used as the pooled sample:SAA006702 for chemical analysis; Sediment Moisture(%):53.3/63.8; Ignition Loss(%)8.8/8.0"	2019/09/13	2019/12/09
PRA000097	SAA006403	ST023				Hyogo_sed2-2_2017	Sediment	"Marine sediment"	2017	11	1	2017-11-01T11:05			Fair	Asia	Japan	"Center of Kobe Port, Hyogo"	34.66444444		135.1944444														18.3	18.8								2.5		21.3	10.3	Silt	"Grayish black"		"Hydrogen sulfide odor"	None	50.0/NA	8.9/NA									"Monitoring: This sample was used as the pooled sample:SAA006702 for chemical analysis; Sediment Moisture(%):50.0/56.8; Ignition Loss(%)8.9/7.4"	2019/09/13	2019/12/09
PRA000097	SAA006404	ST023				Hyogo_sed2-3_2017	Sediment	"Marine sediment"	2017	11	1	2017-11-01T11:25			Fair	Asia	Japan	"Center of Kobe Port, Hyogo"	34.66444444		135.1944444														19.2	18.8								2.5		21	13.1	Silt	"Grayish black"		"Hydrogen sulfide odor"	None	58.3/NA	10.0/NA									"Monitoring: This sample was used as the pooled sample:SAA006702 for chemical analysis; Sediment Moisture(%):58.3/69.3; Ignition Loss(%)10.0/9.0"	2019/09/13	2019/12/09
PRA000097	SAA006405	ST024				Wakayama_sed1-1_2017	Sediment	"River sediment"	2017	11	7	2017-11-07T11:58			Fair	Asia	Japan	"Kinokawa-ohashi Bridge, Mouth of Riv. Kinokawa (Wakayama City), Wakayama"	34.23		135.1561111														23.3	17.5								1.5		23.7	3	Sandy	Gray		"Seaweed odor"	Pebble	20.0/NA	1.43/NA									"Monitoring: This sample was used as the pooled sample:SAA006704 for chemical analysis; Sediment Moisture(%):20.0/16.7; Ignition Loss(%)1.4/1.2"	2019/09/13	2019/12/09
PRA000097	SAA006406	ST024				Wakayama_sed1-2_2017	Sediment	"River sediment"	2017	11	7	2017-11-07T12:56			Cloudy	Asia	Japan	"Kinokawa-ohashi Bridge, Mouth of Riv. Kinokawa (Wakayama City), Wakayama"	34.23		135.1561111														21.7	18								1.2		21.2	3.2	Muddy	Gray		"Seaweed odor"	Pebble	18.4/NA	2.37/NA									"Monitoring: This sample was used as the pooled sample:SAA006704 for chemical analysis; Sediment Moisture(%):18.4/19.1; Ignition Loss(%)2.4/2.0"	2019/09/13	2019/12/09
PRA000097	SAA006407	ST024				Wakayama_sed1-3_2017	Sediment	"River sediment"	2017	11	7	2017-11-07T12:39			Cloudy	Asia	Japan	"Kinokawa-ohashi Bridge, Mouth of Riv. Kinokawa (Wakayama City), Wakayama"	34.23		135.1561111														22.2	18								1.2		21.1	4.2	Sandy	Gray		"Seaweed odor"	Pebble	20.3/NA	1.46/NA									"Monitoring: This sample was used as the pooled sample:SAA006704 for chemical analysis; Sediment Moisture(%):20.3/19.8; Ignition Loss(%)1.5/1.1"	2019/09/13	2019/12/09
PRA000097	SAA006408	ST023				Yamaguchi_sed1-1_2017	Sediment	"Marine sediment"	2017	10	5	2017-10-05T11:01			Fair	Asia	Japan	"Tokuyama Bay, Yamaguchi"	33.99361111		131.7505556														22	23								5.5		23.5	23.8	Silt	"Grayish yellow green"		"Hydrogen sulfide odor_Faint"	None	64.1/NA	10.1/NA										2019/9/13	2019/9/13
PRA000097	SAA006409	ST023				Yamaguchi_sed1-2_2017	Sediment	"Marine sediment"	2017	10	5	2017-10-05T11:10			Fair	Asia	Japan	"Tokuyama Bay, Yamaguchi"	33.99361111		131.7505556														22	23								5.5		23.5	23.8	Silt	"Grayish yellow green"		"Hydrogen sulfide odor_Faint"	None	62.6/NA	10.0/NA										2019/9/13	2019/9/13
PRA000097	SAA006410	ST023				Yamaguchi_sed1-3_2017	Sediment	"Marine sediment"	2017	10	5	2017-10-05T11:25			Fair	Asia	Japan	"Tokuyama Bay, Yamaguchi"	33.99361111		131.7505556														22	23								5.5		23.5	23.8	Silt	"Grayish yellow green"		"Hydrogen sulfide odor_Faint"	None	62.2/NA	10.1/NA										2019/9/13	2019/9/13
PRA000097	SAA006411	ST023				Kagawa_sed1-1_2017	Sediment	"Marine sediment"	2017	10	4	2017-10-04T09:10			Fair	Asia	Japan	"Takamatsu Port, Kagawa"	34.34972222		134.0788889														19.4	21.2								0.5		24.6	2.5	Muddy	Black		"Hydrogen sulfide odor"	"Shell (Oyster, etc); Vegetative pieces (Eel grass, Leaf, pieces of straw, etc); Plastic bags; Pieces of vinyl"	28.4/NA	4.9/NA									"Monitoring: This sample was used as the pooled sample:SAA006727 for chemical analysis; Sediment Moisture(%):28.4/51.9; Ignition Loss(%)4.9/7.6"	2019/09/13	2019/12/09
PRA000097	SAA006412	ST023				Kagawa_sed1-2_2017	Sediment	"Marine sediment"	2017	10	4	2017-10-04T09:30			Fair	Asia	Japan	"Takamatsu Port, Kagawa"	34.34972222		134.0788889														21	22.2								0.6		24.4	6	Muddy	Black		"Hydrogen sulfide odor"	"Shell; Vegetative pieces (Eel grass, Leaf, pieces of straw, etc); Pieces of vinyl"	43.9/NA	9.6/NA									"Monitoring: This sample was used as the pooled sample:SAA006727 for chemical analysis; Sediment Moisture(%):43.9/63.8; Ignition Loss(%)9.6/10.3"	2019/09/13	2019/12/09
PRA000097	SAA006413	ST023				Kagawa_sed1-3_2017	Sediment	"Marine sediment"	2017	10	4	2017-10-04T09:50			Fair	Asia	Japan	"Takamatsu Port, Kagawa"	34.34972222		134.0788889														19.7	22								1		24	5.5	Muddy	Black		"Hydrogen sulfide odor"	"Shell; Vegetative pieces (Leaf, pieces of straw, etc); Clam"	47.2/NA	10.2/NA									"Monitoring: This sample was used as the pooled sample:SAA006727 for chemical analysis; Sediment Moisture(%):47.2/64.8; Ignition Loss(%)10.2/11.0"	2019/09/13	2019/12/09
PRA000097	SAA006414	ST023				KitakyushuCity_sed1-1_2017	Sediment	"Marine sediment"	2017	10	17	2017-10-17T10:15			Cloudy	Asia	Japan	"Dokai Bay (Kitakyushu City), Fukuoka"	33.90388889		130.8158333														18.4	21.3								3		20.9	10	Muddy	"Blackish brown"		Odorless	None	78.6/NA	7.2/NA									"Monitoring: This sample was used as the pooled sample:SAA006736 for chemical analysis; Sediment Moisture(%):78.6/33.9; Ignition Loss(%)7.2/6.0"	2019/09/13	2019/12/09
PRA000097	SAA006415	ST023				KitakyushuCity_sed1-2_2017	Sediment	"Marine sediment"	2017	10	17	2017-10-17T10:00			Cloudy	Asia	Japan	"Dokai Bay (Kitakyushu City), Fukuoka"	33.90388889		130.8158333														18.4	21.3								3		20.7	12.6	Muddy	"Blackish brown"		Odorless	None	80.4/NA	7.4/NA									"Monitoring: This sample was used as the pooled sample:SAA006736 for chemical analysis; Sediment Moisture(%):80.4/36.1; Ignition Loss(%)7.4/5.4"	2019/09/13	2019/12/09
PRA000097	SAA006416	ST023				KitakyushuCity_sed1-3_2017	Sediment	"Marine sediment"	2017	10	17	2017-10-17T09:45			Cloudy	Asia	Japan	"Dokai Bay (Kitakyushu City), Fukuoka"	33.90388889		130.8158333														18.4	21.3								3		20.8	8.2	Muddy	"Blackish brown"		Odorless	None	53.6/NA	28.9/NA									"Monitoring: This sample was used as the pooled sample:SAA006736 for chemical analysis; Sediment Moisture(%):53.6/63.1; Ignition Loss(%)28.9/12.9"	2019/09/13	2019/12/09
PRA000098	SAA006355	ST024				Hokkaido_sed2-1_2017	Sediment	"River sediment"	2017	11	10	2017-11-10T13:50			Cloudy	Asia	Japan	"Ishikarikakokyo Bridge, Mouth of Riv. Ishikari (Ishikari City), Hokkaido"	43.22861111		141.3519444														8.8	6.8													Black		"Hydrogen sulfide odor"		35.1/NA	5.9/NA									"Monitoring: This sample was used as the pooled sample:SAA006621 for chemical analysis; Sediment Moisture(%):35.1/41.7; Ignition Loss(%)5.9/6.5"	2019/09/13	2019/12/09
PRA000098	SAA006356	ST024				Hokkaido_sed2-2_2017	Sediment	"River sediment"	2017	11	10	2017-11-10T14:40			Cloudy	Asia	Japan	"Ishikarikakokyo Bridge, Mouth of Riv. Ishikari (Ishikari City), Hokkaido"	43.22861111		141.3519444														8.5	6.8													Black		"Hydrogen sulfide odor"		56.0/NA	16.0/NA									"Monitoring: This sample was used as the pooled sample:SAA006621 for chemical analysis; Sediment Moisture(%):56.0/24.8; Ignition Loss(%)16.0/3.0"	2019/09/13	2019/12/09
PRA000098	SAA006357	ST024				Hokkaido_sed2-3_2017	Sediment	"River sediment"	2017	11	10	2017-11-10T14:20			Cloudy	Asia	Japan	"Ishikarikakokyo Bridge, Mouth of Riv. Ishikari (Ishikari City), Hokkaido"	43.22861111		141.3519444														8.7	6.8													Black		"Hydrogen sulfide odor"		50.6/NA	11.0/NA									"Monitoring: This sample was used as the pooled sample:SAA006621 for chemical analysis; Sediment Moisture(%):50.5/54.7; Ignition Loss(%)11.0/7.9"	2019/09/13	2019/12/09
PRA000098	SAA006358	ST023				Hokkaido_sed3-1_2017	Sediment	"Marine sediment"	2017	9	11	2017-09-11T10:45			Fair	Asia	Japan	"Tomakomai Port, Hokkaido"	42.63138889		141.6288889														19.5	19.5								3.5		18	16		Black		"Hydrogen sulfide odor"	"Something found"	59.6/NA	6.2/NA									"Monitoring: This sample was used as the pooled sample:SAA006622 for chemical analysis; Sediment Moisture(%):59.6/62.8; Ignition Loss(%)6.2/7.8"	2019/09/13	2019/12/09
PRA000098	SAA006359	ST023				Hokkaido_sed3-2_2017	Sediment	"Marine sediment"	2017	9	11	2017-09-11T11:20			Fair	Asia	Japan	"Tomakomai Port, Hokkaido"	42.63138889		141.6288889														19.7	19.5								3.5		16	16		Black		"Hydrogen sulfide odor"	"Something found"	36.2/NA	2.5/NA									"Monitoring: This sample was used as the pooled sample:SAA006622 for chemical analysis; Sediment Moisture(%):36.2/40.1; Ignition Loss(%)2.5/4.3"	2019/09/13	2019/12/09
PRA000098	SAA006360	ST023				Hokkaido_sed3-3_2017	Sediment	"Marine sediment"	2017	9	11	2017-09-11T11:04			Fair	Asia	Japan	"Tomakomai Port, Hokkaido"	42.63138889		141.6288889														19.9	19.5								3.5		16	16		Black		"Hydrogen sulfide odor"	"Something found"	42.9/NA	3.2/NA									"Monitoring: This sample was used as the pooled sample:SAA006622 for chemical analysis; Sediment Moisture(%):42.9/48.3; Ignition Loss(%)3.2/4.8"	2019/09/13	2019/12/09
PRA000098	SAA006361	ST023				Hokkaido_sed4-1_2017	Sediment	"Marine sediment"	2017	12	6	2017-12-06T13:10			Cloudy	Asia	Japan	"Muroran port, Hokkaido"	42.34305556		140.9708333														-1.4	5.3																	48.8/NA	5.9/NA										2019/9/13	2019/9/13
PRA000098	SAA006362	ST023				Hokkaido_sed4-2_2017	Sediment	"Marine sediment"	2017	12	6	2017-12-06T13:30			Cloudy	Asia	Japan	"Muroran port, Hokkaido"	42.34305556		140.9708333														-2.9	5.3																	50.5/NA	16.0/NA										2019/9/13	2019/9/13
PRA000098	SAA006474	ST024				Sendai_sed1_1_2017	Sediment	"River sediment"	2017	11	14	2017-11-14T10:58			Cloudy	Asia	Japan	"Hirose-ohashi Bridge, Riv. Hirose (Sendai City), Miyagi"	38.21333333		140.9088889														13.9	9.9										11	0.5	Sandy	Brown		"Swampy odor_Faint"	None	11.0/NA	1.1/NA									"Monitoring: This sample was used as the pooled sample:SAA006628 for chemical analysis; Sediment Moisture(%):11.2/12.7; Ignition Loss(%)1.1/0.9"	2019/10/28	2019/12/09
PRA000098	SAA006475	ST024				Sendai_sed1_2_2017	Sediment	"River sediment"	2017	11	14	2017-11-14T10:25			Cloudy	Asia	Japan	"Hirose-ohashi Bridge, Riv. Hirose (Sendai City), Miyagi"	38.21333333		140.9088889														13.9	9.7										11	0.4	Sandy	Brown		"Swampy odor_Faint"	None	9.5/NA	1.0/NA									"Monitoring: This sample was used as the pooled sample:SAA006628 for chemical analysis; Sediment Moisture(%):9.5/11.1; Ignition Loss(%)1.0/0.8"	2019/10/28	2019/12/09
PRA000098	SAA006476	ST024				Sendai_sed1_3_2017	Sediment	"River sediment"	2017	11	14	2017-11-14T10:44			Cloudy	Asia	Japan	"Hirose-ohashi Bridge, Riv. Hirose (Sendai City), Miyagi"	38.21333333		140.9088889														13.9	9.8										11	0.9	Sandy	Brown		"Swampy odor_Faint"	None	16.0/NA	1.4/NA									"Monitoring: This sample was used as the pooled sample:SAA006628 for chemical analysis; Sediment Moisture(%):16.2/18.9; Ignition Loss(%)1.4/1.1"	2019/10/28	2019/12/09
PRA000098	SAA006366	ST024				Akita_sed1-1_2017	Sediment	"River sediment"	2017	10	11	2017-10-11T13:39			Cloudy	Asia	Japan	"Akita Canal (Akita City), Akita"	39.75083333		140.0586111														17.2	17.8										21.4	12.2	Pelitic	Black		"Hydrogen sulfide odor"	None	51.6/NA	7.0/NA										2019/09/13	2019/09/13
PRA000098	SAA006367	ST024				Akita_sed1-2_2017	Sediment	"River sediment"	2017	10	11	2017-10-11T12:58			Cloudy	Asia	Japan	"Akita Canal (Akita City), Akita"	39.75083333		140.0586111														17.6	18.1								1.95		22	11.2	Pelitic	Black		"Hydrogen sulfide odor"	None	57.2/NA	9.0/NA										2019/09/13	2019/09/13
PRA000098	SAA006368	ST024				Akita_sed1-3_2017	Sediment	"River sediment"	2017	10	11	2017-10-11T13:25			Cloudy	Asia	Japan	"Akita Canal (Akita City), Akita"	39.75083333		140.0586111														17.6	17.4										22	10.2	Pelitic	Black		"Hydrogen sulfide odor"	None	64.8/NA	12.0/NA										2019/09/13	2019/09/13
PRA000098	SAA006477	ST024				Akita_sed3-1_2017	Sediment	"River sediment"	2017	10	11	2017-10-11T11:12			Cloudy	Asia	Japan	"Taiheigawa-bashi Bridge, Riv. Taihei (Akita City), Akita"	39.702695		140.117855														18.9	15.3										16		Sandy	"Grayish black"		Odorless	None	29.0/NA	2.5/NA										2019/10/28	2019/10/28
PRA000098	SAA006480	ST024				Yamagata_sed1-2_2017	Sediment	"River sediment"	2017	10	18	2017-10-18T10:40			Cloudy	Asia	Japan	"Mouth of Riv. Mogami (Sakata City), Yamagata"	38.88722222		139.8433333														15	14.8										14	0.3	Muddy	"Grayish black"		"Swampy odor"	"Leaves; Sticks"	30.0/NA	2.9/NA									"Monitoring: This sample was used as the pooled sample:SAA006633 for chemical analysis; Sediment Moisture(%):30.4/33.2; Ignition Loss(%)2.9/2.6"	2019/10/28	2019/12/09
PRA000098	SAA006481	ST024				Yamagata_sed1-3_2017	Sediment	"River sediment"	2017	10	18	2017-10-18T10:40			Cloudy	Asia	Japan	"Mouth of Riv. Mogami (Sakata City), Yamagata"	38.88722222		139.8433333														15	14.5										14	0.3	Muddy	"Grayish black"		"Swampy odor"	"Leaves; Sticks"	33.0/NA	3.8/NA									"Monitoring: This sample was used as the pooled sample:SAA006633 for chemical analysis; Sediment Moisture(%):32.9/36.6; Ignition Loss(%)3.8/3.3"	2019/10/28	2019/12/09
PRA000098	SAA006482	ST024				Ibaraki_sed1-1_2017	Sediment	"River sediment"	2017	11	17	2017-11-17T09:58			Fair	Asia	Japan	"Kamome-ohasi Bridge, Mouth of Riv. Tone (Kamisu City), Ibaraki"	35.77638889		140.7569444														13.9	13											1.8	Mud	Black		"Swampy odor_Faint"	None	29.0/NA	3.7/NA									"Monitoring: This sample was used as the pooled sample:SAA006638 for chemical analysis; Sediment Moisture(%):29.0/31.9; Ignition Loss(%)3.7/3.0"	2019/10/28	2019/12/09
PRA000098	SAA006483	ST024				Ibaraki_sed1-2_2017	Sediment	"River sediment"	2017	11	17	2017-11-17T10:17			Fair	Asia	Japan	"Kamome-ohasi Bridge, Mouth of Riv. Tone (Kamisu City), Ibaraki"	35.77638889		140.7569444														14.9	13											6.3	Mud	Black		"Swampy odor_Faint"	Shellfish	31.0/NA	5.3/NA									"Monitoring: This sample was used as the pooled sample:SAA006638 for chemical analysis; Sediment Moisture(%):31.0/45.5; Ignition Loss(%)5.3/4.8"	2019/10/28	2019/12/09
PRA000098	SAA006484	ST024				Ibaraki_sed1-3_2017	Sediment	"River sediment"	2017	11	17	2017-11-17T10:51			Fair	Asia	Japan	"Kamome-ohasi Bridge, Mouth of Riv. Tone (Kamisu City), Ibaraki"	35.77638889		140.7569444														13.5	12.9											2.4	Mud	"Grayish black"		"Sea odor_Faint"	"Shellfish (many)"	25.0/NA	2.0/NA									"Monitoring: This sample was used as the pooled sample:SAA006638 for chemical analysis; Sediment Moisture(%):25.0/24.9; Ignition Loss(%)2.0/1.3"	2019/10/28	2019/12/09
PRA000098	SAA006369	ST023				Chiba_sed1-1_2017	Sediment	"Marine sediment"	2017	10	19	2017-10-19T09:40			Rain	Asia	Japan	"Ichihara-Anesaki Coast, Chiba"	35.52166667		140.0283333														12.7	20.6								5.8		20.5	14.2	Silt	"Grayish green"		"Hydrogen sulfide odor"	"Small pieces of shell"	54.0/NA	8.5/NA									"Monitoring: This sample was used as the pooled sample:SAA006643 for chemical analysis; Sediment Moisture(%):54.0/64.4; Ignition Loss(%)8.5/7.3"	2019/09/13	2019/12/09
PRA000098	SAA006370	ST023				Chiba_sed1-2_2017	Sediment	"Marine sediment"	2017	10	19	2017-10-19T10:03			Rain	Asia	Japan	"Ichihara-Anesaki Coast, Chiba"	35.52166667		140.0283333														13.1	20.4								5.5		20.5	15.5	Silt	"Grayish green"		"Hydrogen sulfide odor"	"Small pieces of shell"	50.5/NA	7.5/NA									"Monitoring: This sample was used as the pooled sample:SAA006643 for chemical analysis; Sediment Moisture(%):50.5/60.3; Ignition Loss(%)7.5/6.4"	2019/09/13	2019/12/09
PRA000098	SAA006371	ST023				Chiba_sed1-3_2017	Sediment	"Marine sediment"	2017	10	19	2017-10-19T10:20			Rain	Asia	Japan	"Ichihara-Anesaki Coast, Chiba"	35.52166667		140.0283333														12.6	20.6								5.3		20.7	15.5	Silt	Black		"Hydrogen sulfide odor"	None	73.9/NA	13.2/NA									"Monitoring: This sample was used as the pooled sample:SAA006643 for chemical analysis; Sediment Moisture(%):73.9/82.0; Ignition Loss(%)13.2/11.0"	2019/09/13	2019/12/09
PRA000098	SAA006372	ST024				Tokyo_sed1-1_2017	Sediment	"River sediment"	2017	11	15	2017-11-15T10:35			Cloudy	Asia	Japan	"Mouth of Riv. Arakawa (Koto Ward), Tokyo"	35.64583333		139.8463889														15.2	14.4								1.3		18.2	3.7	Silt	"Grayish yellow green"		"Hydrogen sulfide odor_Faint"	"Clam; Shell"	50.3/NA										"Monitoring: This sample was used as the pooled sample:SAA006648 for chemical analysis; Sediment Moisture(%):50.3/53.5; Ignition Loss(%)9.9/7.6"	2019/09/13	2019/12/09
PRA000098	SAA006373	ST024				Tokyo_sed1-2_2017	Sediment	"River sediment"	2017	11	15	2017-11-15T11:20			Fair	Asia	Japan	"Mouth of Riv. Arakawa (Koto Ward), Tokyo"	35.64583333		139.8463889														17	14.8								1		17.7	2.8	Silt	"Dark yellow green"		Odorless	"Clam; Shell"	49.9/NA										"Monitoring: This sample was used as the pooled sample:SAA006648 for chemical analysis; Sediment Moisture(%):49.9/52.5; Ignition Loss(%)9.2/7.4"	2019/09/13	2019/12/09
PRA000098	SAA006374	ST024				Tokyo_sed1-3_2017	Sediment	"River sediment"	2017	11	15	2017-11-15T11:45			Cloudy	Asia	Japan	"Mouth of Riv. Arakawa (Koto Ward), Tokyo"	35.64583333		139.8463889														16.9	15.6								1.1		17.4	2.8	Silt	"Grayish yellow green"		Odorless	"Clam; Shell"	47.7/NA										"Monitoring: This sample was used as the pooled sample:SAA006648 for chemical analysis; Sediment Moisture(%):47.7/54.5; Ignition Loss(%)7.4/7.8"	2019/09/13	2019/12/09
PRA000098	SAA006375	ST024				Tokyo_sed2-1_2017	Sediment	"River sediment"	2017	11	15	2017-11-15T12:55			Fair	Asia	Japan	"Mouth of Riv. Sumida (Minato Ward), Tokyo"	35.66		139.7705556														18.3	18.6								2.9		19.3	5.1	Silt	"Dark yellow green"		"Hydrogen sulfide odor"	Shell	50.6/NA										"Monitoring: This sample was used as the pooled sample:SAA006649 for chemical analysis; Sediment Moisture(%):50.6/62.2; Ignition Loss(%)13.0/17.2"	2019/09/13	2019/12/09
PRA000098	SAA006376	ST024				Tokyo_sed2-2_2017	Sediment	"River sediment"	2017	11	15	2017-11-15T13:35			Fair	Asia	Japan	"Mouth of Riv. Sumida (Minato Ward), Tokyo"	35.66		139.7705556														18.4	18.7								2.6		19.3	5.4	Silt	Black		"Sewage odor"	"Vegetative pieces; Shell"	60.8/NA										"Monitoring: This sample was used as the pooled sample:SAA006649 for chemical analysis; Sediment Moisture(%):60.8/68.4; Ignition Loss(%)13.0/11.3"	2019/09/13	2019/12/09
PRA000098	SAA006377	ST024				Tokyo_sed2-3_2017	Sediment	"River sediment"	2017	11	15	2017-11-15T13:50			Fair	Asia	Japan	"Mouth of Riv. Sumida (Minato Ward), Tokyo"	35.66		139.7705556														18.2	18.6								2.6		19.3	3.2	Silt	Black		"Sewage odor"	Shell	56.0/NA										"Monitoring: This sample was used as the pooled sample:SAA006649 for chemical analysis; Sediment Moisture(%):56.0/65.1; Ignition Loss(%)13.0/10.9"	2019/09/13	2019/12/09
PRA000098	SAA006378	ST023				Yokohama_sed1-1_2017	Sediment	"Marine sediment"	2017	11	6	2017-11-06T13:15			Fair	Asia	Japan	"Yokohama Port, Kanagawa"	35.45555556		139.6636111														18	18								12		19.5	12	Muddy	"Blackish brown"		"Hydrogen sulfide odor"	None	65.2/NA	8.5/NA									"Monitoring: This sample was used as the pooled sample:SAA006650 for chemical analysis; Sediment Moisture(%):65.2/57.2; Ignition Loss(%)8.5/7.7"	2019/09/13	2019/12/09
PRA000098	SAA006379	ST023				Yokohama_sed1-2_2017	Sediment	"Marine sediment"	2017	11	6	2017-11-06T11:00			Fair	Asia	Japan	"Yokohama Port, Kanagawa"	35.45555556		139.6636111														17	16.7								12		19.5	12	Muddy	"Blackish brown"		"Hydrogen sulfide odor"	None	75.1/NA	10.6/NA									"Monitoring: This sample was used as the pooled sample:SAA006650 for chemical analysis; Sediment Moisture(%):75.1/73.1; Ignition Loss(%)10.6/10.1"	2019/09/13	2019/12/09
PRA000098	SAA006380	ST023				Yokohama_sed1-3_2017	Sediment	"Marine sediment"	2017	11	6	2017-11-06T13:45			Fair	Asia	Japan	"Yokohama Port, Kanagawa"	35.45555556		139.6636111														19	17.5								12		19	12	Muddy	"Blackish brown"		"Hydrogen sulfide odor"	None	66.9/NA	8.2/NA									"Monitoring: This sample was used as the pooled sample:SAA006650 for chemical analysis; Sediment Moisture(%):66.9/54.1; Ignition Loss(%)8.2/6.3"	2019/09/13	2019/12/09
PRA000098	SAA006485	ST023				KawasakiCity_sed2-1_2017	Sediment	"Marine sediment"	2017	11	13	2017-11-13T10:30			Fair	Asia	Japan	"Keihin Canal, Kawasaki Port, Kanagawa (front of Ogimachi)"	35.49527778		139.7277778														18	18.6								5		20	13.5	Mud	"Greenish brown"		"Hydrogen sulfide odor_Faint"	"Shell; Vegetative pieces; Fishing lines; Fishing net"	53.0/NA	10.0/NA									"Monitoring: This sample was used as the pooled sample:SAA006655 for chemical analysis; Sediment Moisture(%):52.7/62.6; Ignition Loss(%)10.4/8.3"	2019/10/28	2019/12/09
PRA000098	SAA006486	ST023				KawasakiCity_sed2-2_2017	Sediment	"Marine sediment"	2017	11	13	2017-11-13T11:10			Fair	Asia	Japan	"Keihin Canal, Kawasaki Port, Kanagawa (front of Ogimachi)"	35.49527778		139.7277778														17.7	18.7								5.1		20	14	Mud	"Blackish green"		"Hydrogen sulfide odor"	"Shell; Vegetative pieces"	62.0/NA	13.0/NA									"Monitoring: This sample was used as the pooled sample:SAA006655 for chemical analysis; Sediment Moisture(%):62.0/71.4; Ignition Loss(%)13.4/10.5"	2019/10/28	2019/12/09
PRA000098	SAA006487	ST023				KawasakiCity_sed2-3_2017	Sediment	"Marine sediment"	2017	11	13	2017-11-13T10:53			Fair	Asia	Japan	"Keihin Canal, Kawasaki Port, Kanagawa (front of Ogimachi)"	35.49527778		139.7277778														18	18.3								5.1		20	13.5	Mud	"Blackish green brown"		"Oily odor"	"Shell; Vegetative pieces"	51.0/NA	10.0/NA									"Monitoring: This sample was used as the pooled sample:SAA006655 for chemical analysis; Sediment Moisture(%):51.1/60.8; Ignition Loss(%)10.1/7.8"	2019/10/28	2019/12/09
PRA000098	SAA006488	ST024				Toyama_sed1-1_2017	Sediment	"River sediment"	2017	11	9	2017-11-09T12:55			Fair	Asia	Japan	"Hagiura-bashi Bridge, Mouth of Riv. Jintsu (Toyama City), Toyama"	36.745		137.2180556														17.5	13.5										14	0.9	Muddy	"Grayish black"		"Hydrogen sulfide odor"	"Leaves; Roots"	40.0/NA	5.5/NA									"Monitoring: This sample was used as the pooled sample:SAA006657 for chemical analysis; Sediment Moisture(%):40.0/40.9; Ignition Loss(%)5.5/5.0"	2019/10/28	2019/12/09
PRA000098	SAA006489	ST024				Toyama_sed1-2_2017	Sediment	"River sediment"	2017	11	9	2017-11-09T13:44			Fair	Asia	Japan	"Hagiura-bashi Bridge, Mouth of Riv. Jintsu (Toyama City), Toyama"	36.745		137.2180556														15.5	13.5										13	0.6	"Sandy mud"	"Grayish black"		"Hydrogen sulfide odor_Faint"	"Leaves; Roots"	28.0/NA	2.5/NA									"Monitoring: This sample was used as the pooled sample:SAA006657 for chemical analysis; Sediment Moisture(%):28.0/26.4; Ignition Loss(%)2.5/2.1"	2019/10/28	2019/12/09
PRA000098	SAA006490	ST024				Toyama_sed1-3_2017	Sediment	"River sediment"	2017	11	9	2017-11-09T14:18			Cloudy	Asia	Japan	"Hagiura-bashi Bridge, Mouth of Riv. Jintsu (Toyama City), Toyama"	36.745		137.2180556														13.5	12.5										13	0.9	Sandy	"Grayish black"		"Hydrogen sulfide odor_Faint"	"Leaves; Roots"	23.0/NA	1.7/NA									"Monitoring: This sample was used as the pooled sample:SAA006657 for chemical analysis; Sediment Moisture(%):23.0/20.5; Ignition Loss(%)1.7/1.4"	2019/10/28	2019/12/09
PRA000098	SAA006491	ST024				Toyama_sed2-1_2017	Sediment	"River sediment"	2017	11	9	2017-11-09T10:07			Cloudy	Asia	Japan	"Ishida-bashi Bridge, Riv. Kurose (Kurobe City), Toyama"	36.8625		137.4213889														16.6	12										14	2.1	Sandy	"Grayish black"		"Fish rotten odor_Faint"	Gravels	26.0/NA	2.4/NA										2019/10/28	2019/10/28
PRA000098	SAA006492	ST024				Toyama_sed2-2_2017	Sediment	"River sediment"	2017	11	9	2017-11-09T10:32			Cloudy	Asia	Japan	"Ishida-bashi Bridge, Riv. Kurose (Kurobe City), Toyama"	36.8625		137.4213889														16.6	12										14	0.7	"Sandy mud"	"Grayish black"		"Fish rotten odor_Faint"	"Leaves; Roots; Stems"	30.0/NA	2.8/NA										2019/10/28	2019/10/28
PRA000098	SAA006493	ST024				Toyama_sed2-3_2017	Sediment	"River sediment"	2017	11	9	2017-11-09T10:51			Cloudy	Asia	Japan	"Ishida-bashi Bridge, Riv. Kurose (Kurobe City), Toyama"	36.8625		137.4213889														16.6	12										14	1.6	"Sandy mud"	"Grayish black"		"Fish rotten odor_Faint"	Leaves	28.0/NA	1.9/NA										2019/10/28	2019/10/28
PRA000098	SAA006384	ST024				Ishikawa_sed1-1_2017	Sediment	"River sediment"	2017	10	11	2017-10-11T10:20			Cloudy	Asia	Japan	"Mouth of Riv. Sai (Kanazawa City), Ishikawa"	36.60027778		136.5888889														25.8	21.8											3.2	"Sandy silt"	"Grayish green"		"Fish rotten odor"	"Pebble; Shell"	20.0/NA	2.3/NA									"Monitoring: This sample was used as the pooled sample:SAA006658 for chemical analysis; Sediment Moisture(%):20.0/22.6; Ignition Loss(%)2.3/2.3"	2019/09/13	2019/12/09
PRA000098	SAA006385	ST024				Ishikawa_sed1-2_2017	Sediment	"River sediment"	2017	10	11	2017-10-11T12:10			Cloudy	Asia	Japan	"Mouth of Riv. Sai (Kanazawa City), Ishikawa"	36.60027778		136.5888889														25.9	22.2											1	"Sandy silt"	"Blackish brown"		"Fish rotten odor"	Pebble	22.0/NA	1.5/NA									"Monitoring: This sample was used as the pooled sample:SAA006658 for chemical analysis; Sediment Moisture(%):22.0/44.1; Ignition Loss(%)1.5/5.2"	2019/09/13	2019/12/09
PRA000098	SAA006386	ST024				Ishikawa_sed1-3_2017	Sediment	"River sediment"	2017	10	11	2017-10-11T12:40			Cloudy	Asia	Japan	"Mouth of Riv. Sai (Kanazawa City), Ishikawa"	36.60027778		136.5888889														27.9	22.2											0.4	Sand	"Blackish brown"		Odorless	Pebble	25.0/NA	2.0/NA									"Monitoring: This sample was used as the pooled sample:SAA006658 for chemical analysis; Sediment Moisture(%):25.0/26.6; Ignition Loss(%)2.0/1.3"	2019/09/13	2019/12/09
PRA000098	SAA006494	ST023				Shizuoka_sed1-1_2017	Sediment	"Marine sediment"	2017	11	8	2017-11-08T10:10			Rain	Asia	Japan	"Shimizu Port, Shizuoka"	35.02416667		138.5161111														18.6	21.5								4		22	25.1	"Sand; Clay"	"Grayish black_dark"		"Seaweed odor"	Shellfish	27.0/NA	4.4/NA									"Monitoring: This sample was used as the pooled sample:SAA006668 for chemical analysis; Sediment Moisture(%):27.2/31.4; Ignition Loss(%)4.4/3.6"	2019/10/28	2019/12/09
PRA000098	SAA006495	ST023				Shizuoka_sed1-2_2017	Sediment	"Marine sediment"	2017	11	8	2017-11-08T09:40			Rain	Asia	Japan	"Shimizu Port, Shizuoka"	35.02416667		138.5161111														18.5	20.8								4.5		23	22	"Sand; Clay"	"Grayish black_dark"		"Seaweed odor"	Shellfish	26.0/NA	4.5/NA									"Monitoring: This sample was used as the pooled sample:SAA006668 for chemical analysis; Sediment Moisture(%):25.5/31.9; Ignition Loss(%)4.5/4.0"	2019/10/28	2019/12/09
PRA000098	SAA006496	ST023				Shizuoka_sed1-3_2017	Sediment	"Marine sediment"	2017	11	8	2017-11-08T10:55			Rain	Asia	Japan	"Shimizu Port, Shizuoka"	35.02416667		138.5161111														18.6	21.8								3.5		23	17.6	"Sand; Clay"	"Grayish black_dark"		"Seaweed odor"	Shellfish	30.0/NA	5.4/NA									"Monitoring: This sample was used as the pooled sample:SAA006668 for chemical analysis; Sediment Moisture(%):29.8/40.5; Ignition Loss(%)5.4/5.2"	2019/10/28	2019/12/09
PRA000098	SAA006497	ST024				Shizuoka_sed3-1_2017	Sediment	"River sediment"	2017	10	5	2017-10-05T11:05			Cloudy	Asia	Japan	"Riv. Tenryu (Iwata City), Shizuoka"	34.67916667		137.7961111														20.9	19.8										20	0.7	Sand	"Grayish brown_dark"		Odorless	"Pebbles; Dead leaves"	15.0/NA	1.4/NA									"Monitoring: This sample was used as the pooled sample:SAA006669 for chemical analysis; Sediment Moisture(%):15.0/20.2; Ignition Loss(%)1.4/1.3"	2019/10/28	2019/12/09
PRA000098	SAA006498	ST024				Shizuoka_sed3-2_2017	Sediment	"River sediment"	2017	10	5	2017-10-05T11:45			Cloudy	Asia	Japan	"Riv. Tenryu (Iwata City), Shizuoka"	34.67916667		137.7961111														22.6	19.9										20	0.3	"Sand; Gravel"	"Grayish brown_dark"		Odorless	"Pebbles; Dead leaves"	16.0/NA	1.1/NA									"Monitoring: This sample was used as the pooled sample:SAA006669 for chemical analysis; Sediment Moisture(%):16.0/21.3; Ignition Loss(%)1.1/0.9"	2019/10/28	2019/12/09
PRA000098	SAA006499	ST024				Shizuoka_sed3-3_2017	Sediment	"River sediment"	2017	10	5	2017-10-05T12:15			Cloudy	Asia	Japan	"Riv. Tenryu (Iwata City), Shizuoka"	34.67916667		137.7961111														22.6	20.1										20	0.7	"Sand; Gravel"	"Grayish brown_dark"		Odorless	"Pebbles; Dead leaves"	21.0/NA	1.7/NA									"Monitoring: This sample was used as the pooled sample:SAA006669 for chemical analysis; Sediment Moisture(%):20.5/24.1; Ignition Loss(%)1.7/1.5"	2019/10/28	2019/12/09
PRA000098	SAA006390	ST023				Aichi_sed1-1_2017	Sediment	"Marine sediment"	2017	11	13	2017-11-13T12:35			Cloudy	Asia	Japan	"Nagoya Port, West of Shiomi Wharf, Aichi"	35.07111111		136.8691667														15.7	18.3								2.8		20.1	12.9	Muddy	"Grayish black"		"Hydrogen sulfide odor"	None	54.2/NA	15.7/NA										2019/9/13	2019/9/13
PRA000098	SAA006391	ST023				Aichi_sed1-2_2017	Sediment	"Marine sediment"	2017	11	13	2017-11-13T12:44			Cloudy	Asia	Japan	"Nagoya Port, West of Shiomi Wharf, Aichi"	35.07111111		136.8691667														15.7	18.3								2.8		20.1	12.9	Muddy	"Grayish black"		"Hydrogen sulfide odor"	None	50.1/NA	10.1/NA										2019/9/13	2019/9/13
PRA000098	SAA006392	ST023				Aichi_sed1-3_2017	Sediment	"Marine sediment"	2017	11	13	2017-11-13T12:53			Cloudy	Asia	Japan	"Nagoya Port, West of Shiomi Wharf, Aichi"	35.07111111		136.8691667														15.7	18.3								2.8		20.1	12.9	Muddy	"Grayish black"		"Hydrogen sulfide odor"	None	48.8/NA	13.5/NA										2019/9/13	2019/9/13
PRA000098	SAA006500	ST024				Shiga_sed1-1_2017	Sediment	"Lake Sediment"	2017	10	11	2017-10-11T09:50			Fair	Asia	Japan	"Lake Biwa (center, offshore of Minamihira), Shiga"	35.18527778		135.9733333														26.5	22.5								6.2		9	56.9	Muddy	"Grayish black"		"Swampy odor"	None	70.0/NA	11.0/NA									"Monitoring: This sample was used as the pooled sample:SAA006683 for chemical analysis; Sediment Moisture(%):70.2/80.6; Ignition Loss(%)11.2/10.3"	2019/10/28	2019/12/09
PRA000098	SAA006501	ST024				Shiga_sed1-2_2017	Sediment	"Lake Sediment"	2017	10	11	2017-10-11T09:15			Fair	Asia	Japan	"Lake Biwa (center, offshore of Minamihira), Shiga"	35.18527778		135.9733333														25	23								5.4		9	54.4	Muddy	"Grayish black"		"Swampy odor"	None	69.0/NA	11.0/NA									"Monitoring: This sample was used as the pooled sample:SAA006683 for chemical analysis; Sediment Moisture(%):69.4/80.0; Ignition Loss(%)11.3/10.4"	2019/10/28	2019/12/09
PRA000098	SAA006502	ST024				Shiga_sed1-3_2017	Sediment	"Lake Sediment"	2017	10	11	2017-10-11T10:10			Fair	Asia	Japan	"Lake Biwa (center, offshore of Minamihira), Shiga"	35.18527778		135.9733333														26.9	23.8								6.1		9	49.9	Muddy	"Grayish black"		"Swampy odor"	None	69.0/NA	11.0/NA									"Monitoring: This sample was used as the pooled sample:SAA006683 for chemical analysis; Sediment Moisture(%):69.2/80.2; Ignition Loss(%)11.1/10.5"	2019/10/28	2019/12/09
PRA000098	SAA006503	ST024				Shiga_sed2-1_2017	Sediment	"Lake Sediment"	2017	10	11	2017-10-11T11:05			Fair	Asia	Japan	"Lake Biwa (center, offshore of Karasaki), Shiga"	35.04611111		135.8955556														29.8	23.3								3.7		22	3.9	Muddy	"Grayish black"		"Swampy odor"	"Aquartic plants"	66.0/NA	11.0/NA									"Monitoring: This sample was used as the pooled sample:SAA006684 for chemical analysis; Sediment Moisture(%):66.3/76.3; Ignition Loss(%)10.7/9.5"	2019/10/28	2019/12/09
PRA000098	SAA006504	ST024				Shiga_sed2-2_2017	Sediment	"Lake Sediment"	2017	10	11	2017-10-11T10:50			Fair	Asia	Japan	"Lake Biwa (center, offshore of Karasaki), Shiga"	35.04611111		135.8955556														26	24.2								3.5		23	4.1	Muddy	"Grayish black"		"Swampy odor"	"Aquartic plants"	67.0/NA	11.0/NA									"Monitoring: This sample was used as the pooled sample:SAA006684 for chemical analysis; Sediment Moisture(%):67.1/77.8; Ignition Loss(%)10.9/10.3"	2019/10/28	2019/12/09
PRA000098	SAA006505	ST024				Shiga_sed2-3_2017	Sediment	"Lake Sediment"	2017	10	11	2017-10-11T11:25			Fair	Asia	Japan	"Lake Biwa (center, offshore of Karasaki), Shiga"	35.04611111		135.8955556														28.9	24.4								2.4		21	3.3	Sandy	"Grayish black"		"Swampy odor"	"Aquartic plants"	44.0/NA	5.3/NA									"Monitoring: This sample was used as the pooled sample:SAA006684 for chemical analysis; Sediment Moisture(%):44.1/53.6; Ignition Loss(%)5.3/4.3"	2019/10/28	2019/12/09
PRA000098	SAA006506	ST024				KyotoCity_sed1-1_2017	Sediment	"River sediment"	2017	11	29	2017-11-29T10:10			Cloudy	Asia	Japan	"Miyamae-bashi Bridge, Riv. Katsura (Kyoto City), Kyoto"	34.905		135.7125														13.3	12.7										14	0.5	Sandy	"Grayish brown"		Odorless	None	20.0/NA	0.94/NA									"Monitoring: This sample was used as the pooled sample:SAA006686 for chemical analysis; Sediment Moisture(%):20.0/21.3; Ignition Loss(%)0.9/0.8"	2019/10/28	2019/12/09
PRA000098	SAA006507	ST024				KyotoCity_sed1-2_2017	Sediment	"River sediment"	2017	11	29	2017-11-29T10:25			Cloudy	Asia	Japan	"Miyamae-bashi Bridge, Riv. Katsura (Kyoto City), Kyoto"	34.905		135.7125														13.3	12.7										15	0.4	Sandy	"Grayish brown"		Odorless	None	19.0/NA	0.92/NA									"Monitoring: This sample was used as the pooled sample:SAA006686 for chemical analysis; Sediment Moisture(%):19.1/19.7; Ignition Loss(%)0.9/0.8"	2019/10/28	2019/12/09
PRA000098	SAA006508	ST024				KyotoCity_sed1-3_2017	Sediment	"River sediment"	2017	11	29	2017-11-29T10:40			Cloudy	Asia	Japan	"Miyamae-bashi Bridge, Riv. Katsura (Kyoto City), Kyoto"	34.905		135.7125														13.3	12.7										14	0.7	Sandy	"Grayish brown"		Odorless	None	20.0/NA	0.88/NA									"Monitoring: This sample was used as the pooled sample:SAA006686 for chemical analysis; Sediment Moisture(%):19.5/19.9; Ignition Loss(%)0.9/0.8"	2019/10/28	2019/12/09
PRA000098	SAA006399	ST024				Osaka_sed1-1_2017	Sediment	"River sediment"	2017	11	7	2017-11-07T11:30			Fair	Asia	Japan	"Mouth of Riv. Yamato (Sakai City), Osaka"	34.60833333		135.4325														21.6	18.3								1.5		22.1	2.9	Silt	"Blackish brown"		Odorless	"Vegetative pieces"	45.5/NA	10.5/NA									"Monitoring: This sample was used as the pooled sample:SAA006687 for chemical analysis; Sediment Moisture(%):45.5/55.2; Ignition Loss(%)10.5/9.5"	2019/09/13	2019/12/09
PRA000098	SAA006400	ST024				Osaka_sed1-2_2017	Sediment	"River sediment"	2017	11	7	2017-11-07T10:50			Fair	Asia	Japan	"Mouth of Riv. Yamato (Sakai City), Osaka"	34.60833333		135.4325														20	18.5								1.5		22.3	2.5	Silt	"Blackish brown"		"Sewage odor_Faint"	"Vegetative pieces"	44.6/NA	9.0/NA									"Monitoring: This sample was used as the pooled sample:SAA006687 for chemical analysis; Sediment Moisture(%):44.6/52.6; Ignition Loss(%)9.0/7.8"	2019/09/13	2019/12/09
PRA000098	SAA006401	ST024				Osaka_sed1-3_2017	Sediment	"River sediment"	2017	11	7	2017-11-07T11:59			Fair	Asia	Japan	"Mouth of Riv. Yamato (Sakai City), Osaka"	34.60833333		135.4325														21	18.3								1.5		22.3	2	Silt	"Blackish brown"		Odorless	"Vegetative pieces"	45.3/NA	11.1/NA									"Monitoring: This sample was used as the pooled sample:SAA006687 for chemical analysis; Sediment Moisture(%):45.3/57.1; Ignition Loss(%)11.1/9.4"	2019/09/13	2019/12/09
PRA000098	SAA006509	ST023				OsakaCity_sed1-1_2017	Sediment	"Marine sediment"	2017	12	20	2017-12-20T09:03			Fair	Asia	Japan	"Osaka Port, Osaka"	34.65861111		135.4313889														8.6	9.6								3.6		12	12.6	Sludge	"Grayish black_light"		"Hydrogen sulfide odor"	None	58.0/NA	11.0/NA									"Monitoring: This sample was used as the pooled sample:SAA006696 for chemical analysis; Sediment Moisture(%):57.9/68.2; Ignition Loss(%)11.1/10.5"	2019/10/28	2019/12/09
PRA000098	SAA006510	ST023				OsakaCity_sed1-2_2017	Sediment	"Marine sediment"	2017	12	20	2017-12-20T08:10			Fair	Asia	Japan	"Osaka Port, Osaka"	34.65861111		135.4313889														8	9.2								3.5		14	12.6	Sludge	"Grayish black"		"Hydrogen sulfide odor"	None	57.0/NA	11.0/NA									"Monitoring: This sample was used as the pooled sample:SAA006696 for chemical analysis; Sediment Moisture(%):57.4/70.3; Ignition Loss(%)10.5/10.7"	2019/10/28	2019/12/09
PRA000098	SAA006511	ST023				OsakaCity_sed1-3_2017	Sediment	"Marine sediment"	2017	12	20	2017-12-20T08:46			Fair	Asia	Japan	"Osaka Port, Osaka"	34.65861111		135.4313889														11	11								3.8		12	12.7	Sludge	"Grayish black_light"		"Hydrogen sulfide odor"	None	61.0/NA	11.0/NA									"Monitoring: This sample was used as the pooled sample:SAA006696 for chemical analysis; Sediment Moisture(%):60.5/69.2; Ignition Loss(%)10.9/10.4"	2019/10/28	2019/12/09
PRA000098	SAA006512	ST024				Hyogo_sed3-1_2017	Sediment	"River sediment"	2017	10	31	2017-10-31T10:50			Fair	Asia	Japan	"Manago-bashi Bridge, Riv. Hayashida (Taishi Town), Hyogo"	34.81472222		134.5572222														14.8	14.2										16	0.5	Sandy	Brown		Odorless	None	21.0/NA	2.1/NA										2019/10/28	2019/10/28
PRA000098	SAA006513	ST024				Hyogo_sed3-2_2017	Sediment	"River sediment"	2017	10	31	2017-10-31T10:50			Fair	Asia	Japan	"Manago-bashi Bridge, Riv. Hayashida (Taishi Town), Hyogo"	34.81472222		134.5572222														14.8	14.2										16	0.5	Sandy	Brown		Odorless	None	21.0/NA	1.9/NA										2019/10/28	2019/10/28
PRA000098	SAA006514	ST024				Hyogo_sed3-3_2017	Sediment	"River sediment"	2017	10	31	2017-10-31T10:50			Fair	Asia	Japan	"Manago-bashi Bridge, Riv. Hayashida (Taishi Town), Hyogo"	34.81472222		134.5572222														14.8	14.2										16	0.5	Sandy	Brown		Odorless	None	21.0/NA	2.6/NA										2019/10/28	2019/10/28
PRA000098	SAA006515	ST023				Hyogo_sed1-1_2017	Sediment	"Marine sediment"	2017	10	11	2017-10-11T10:27			Cloudy	Asia	Japan	"Offshore of Himeji, Hyogo"	34.76194444		134.6697222														25.4	25.5								5.1		17	9	"Silt clay"	"Grayish green"		"Hydrogen sulfide odor_Faint"	None											"Monitoring: This sample was used as the pooled sample:SAA006701 for chemical analysis; Sediment Moisture(%):NA/71.1; Ignition Loss(%)NA/10.1"	2019/10/28	2019/12/09
PRA000098	SAA006516	ST023				Hyogo_sed1-2_2017	Sediment	"Marine sediment"	2017	10	11	2017-10-11T11:02			Cloudy	Asia	Japan	"Offshore of Himeji, Hyogo"	34.76194444		134.6697222														25.7	25.6								3.5		16	10	"Silt clay"	"Grayish green"		"Hydrogen sulfide odor_Faint"	None											"Monitoring: This sample was used as the pooled sample:SAA006701 for chemical analysis; Sediment Moisture(%):NA/71.4; Ignition Loss(%)NA/10.0"	2019/10/28	2019/12/09
PRA000098	SAA006517	ST023				Hyogo_sed1-3_2017	Sediment	"Marine sediment"	2017	10	11	2017-10-11T11:19			Fair	Asia	Japan	"Offshore of Himeji, Hyogo"	34.76194444		134.6697222														25.9	25.4								3.9		16	11	"Silt clay"	"Grayish green"		"Hydrogen sulfide odor_Faint"	None											"Monitoring: This sample was used as the pooled sample:SAA006701 for chemical analysis; Sediment Moisture(%):NA/70.2; Ignition Loss(%)NA/9.5"	2019/10/28	2019/12/09
PRA000098	SAA006518	ST024				Nara_sed1_1_2017	Sediment	"River sediment"	2017	10	12	2017-10-12T10:15			Rain	Asia	Japan	"Taisho-bashi Bridge, Riv. Yamato (Oji town), Nara"	34.58583333		135.6833333														21	22.5										22	0.3	Muddy	"Grayish brown_dark"		"Earthy odor_Faint"	None	27.0/NA	1.6/NA									"Monitoring: This sample was used as the pooled sample:SAA006703 for chemical analysis; Sediment Moisture(%):27.0/28.4; Ignition Loss(%)1.6/1.5"	2019/10/28	2019/12/09
PRA000098	SAA006519	ST024				Nara_sed1_2_2017	Sediment	"River sediment"	2017	10	12	2017-10-12T10:15			Rain	Asia	Japan	"Taisho-bashi Bridge, Riv. Yamato (Oji town), Nara"	34.58583333		135.6833333														21	22.5										22	0.3	Sandy	"Grayish yellow brown"		"Earthy odor_Faint"	None	9.8/NA	0.5/NA									"Monitoring: This sample was used as the pooled sample:SAA006703 for chemical analysis; Sediment Moisture(%):9.8/19.8; Ignition Loss(%)0.5/0.4"	2019/10/28	2019/12/09
PRA000098	SAA006520	ST024				Nara_sed1_3_2017	Sediment	"River sediment"	2017	10	12	2017-10-12T10:25			Rain	Asia	Japan	"Taisho-bashi Bridge, Riv. Yamato (Oji town), Nara"	34.58583333		135.6833333														21	22										22	0.3	Sandy	"Grayish yellow brown"		"Earthy odor_Faint"	None	10.0/NA	0.6/NA									"Monitoring: This sample was used as the pooled sample:SAA006703 for chemical analysis; Sediment Moisture(%):10.0/9.9; Ignition Loss(%)0.6/0.5"	2019/10/28	2019/12/09
PRA000098	SAA006405	ST024				Wakayama_sed1-1_2017	Sediment	"River sediment"	2017	11	7	2017-11-07T11:58			Fair	Asia	Japan	"Kinokawa-ohashi Bridge, Mouth of Riv. Kinokawa (Wakayama City), Wakayama"	34.23		135.1561111														23.3	17.5								1.5		23.7	3	Sandy	Gray		"Seaweed odor"	Pebble	20.0/NA	1.43/NA									"Monitoring: This sample was used as the pooled sample:SAA006704 for chemical analysis; Sediment Moisture(%):20.0/16.7; Ignition Loss(%)1.4/1.2"	2019/09/13	2019/12/09
PRA000098	SAA006406	ST024				Wakayama_sed1-2_2017	Sediment	"River sediment"	2017	11	7	2017-11-07T12:56			Cloudy	Asia	Japan	"Kinokawa-ohashi Bridge, Mouth of Riv. Kinokawa (Wakayama City), Wakayama"	34.23		135.1561111														21.7	18								1.2		21.2	3.2	Muddy	Gray		"Seaweed odor"	Pebble	18.4/NA	2.37/NA									"Monitoring: This sample was used as the pooled sample:SAA006704 for chemical analysis; Sediment Moisture(%):18.4/19.1; Ignition Loss(%)2.4/2.0"	2019/09/13	2019/12/09
PRA000098	SAA006407	ST024				Wakayama_sed1-3_2017	Sediment	"River sediment"	2017	11	7	2017-11-07T12:39			Cloudy	Asia	Japan	"Kinokawa-ohashi Bridge, Mouth of Riv. Kinokawa (Wakayama City), Wakayama"	34.23		135.1561111														22.2	18								1.2		21.1	4.2	Sandy	Gray		"Seaweed odor"	Pebble	20.3/NA	1.46/NA									"Monitoring: This sample was used as the pooled sample:SAA006704 for chemical analysis; Sediment Moisture(%):20.3/19.8; Ignition Loss(%)1.5/1.1"	2019/09/13	2019/12/09
PRA000098	SAA006521	ST023				Wakayama_sed2-1_2017	Sediment	"Marine sediment"	2017	11	7	2017-11-07T10:50			Cloudy	Asia	Japan	"Wakayama-Shimotsu Port (Honko-ku) , Wakayama"	34.21777778		135.1416667														20.6	21.1								3.5		22	11	Muddy	Black		"Seaweed odor"	None	36.0/NA	6.2/NA										2019/10/28	2019/10/28
PRA000098	SAA006522	ST023				Wakayama_sed2-2_2017	Sediment	"Marine sediment"	2017	11	7	2017-11-07T11:04			Cloudy	Asia	Japan	"Wakayama-Shimotsu Port (Honko-ku) , Wakayama"	34.21777778		135.1416667														21.2	21								4		23	11	Muddy	Black		"Seaweed odor"	None	33.0/NA	5.6/NA										2019/10/28	2019/10/28
PRA000098	SAA006523	ST023				Wakayama_sed2-3_2017	Sediment	"Marine sediment"	2017	11	7	2017-11-07T11:25			Fair	Asia	Japan	"Wakayama-Shimotsu Port (Honko-ku) , Wakayama"	34.21777778		135.1416667														24	21.2								3.5		23	12.5	Muddy	Black		"Seaweed odor"	None	41.0/NA	7.1/NA										2019/10/28	2019/10/28
PRA000098	SAA006524	ST023				Okayama_sed1-1_2017	Sediment	"Marine sediment"	2017	10	31	2017-10-31T10:45			Fair	Asia	Japan	"Offshore of Mizushima, Okayama"	34.48055556		133.665														18.8	19.5								2.3		15	10.5	"Soft mud"	"Grayish green"		"Earthy odor"	"Small pieces of shell"	45.0/NA	6.1/NA									"Monitoring: This sample was used as the pooled sample:SAA006705 for chemical analysis; Sediment Moisture(%):45.3/43.1; Ignition Loss(%)6.1/4.8"	2019/10/28	2019/12/09
PRA000098	SAA006525	ST023				Okayama_sed1-2_2017	Sediment	"Marine sediment"	2017	10	31	2017-10-31T11:19			Fair	Asia	Japan	"Offshore of Mizushima, Okayama"	34.48055556		133.665														19.1	19.4								2.3		20	8.5	"Soft mud"	"Grayish green"		"Earthy odor"	"Small pieces of shell"	51.0/NA	7.0/NA									"Monitoring: This sample was used as the pooled sample:SAA006705 for chemical analysis; Sediment Moisture(%):51.0/49.5; Ignition Loss(%)7.0/5.8"	2019/10/28	2019/12/09
PRA000098	SAA006526	ST023				Okayama_sed1-3_2017	Sediment	"Marine sediment"	2017	10	31	2017-10-31T11:30			Fair	Asia	Japan	"Offshore of Mizushima, Okayama"	34.48055556		133.665														19.1	19.8								2.3		20	10.5	"Soft mud"	"Grayish green"		"Earthy odor"	"Small pieces of shell"	44.0/NA	5.8/NA									"Monitoring: This sample was used as the pooled sample:SAA006705 for chemical analysis; Sediment Moisture(%):44.0/42.6; Ignition Loss(%)5.8/4.8"	2019/10/28	2019/12/09
PRA000098	SAA006408	ST023				Yamaguchi_sed1-1_2017	Sediment	"Marine sediment"	2017	10	5	2017-10-05T11:01			Fair	Asia	Japan	"Tokuyama Bay, Yamaguchi"	33.99361111		131.7505556														22	23								5.5		23.5	23.8	Silt	"Grayish yellow green"		"Hydrogen sulfide odor_Faint"	None	64.1/NA	10.1/NA										2019/9/13	2019/9/13
PRA000098	SAA006409	ST023				Yamaguchi_sed1-2_2017	Sediment	"Marine sediment"	2017	10	5	2017-10-05T11:10			Fair	Asia	Japan	"Tokuyama Bay, Yamaguchi"	33.99361111		131.7505556														22	23								5.5		23.5	23.8	Silt	"Grayish yellow green"		"Hydrogen sulfide odor_Faint"	None	62.6/NA	10.0/NA										2019/9/13	2019/9/13
PRA000098	SAA006410	ST023				Yamaguchi_sed1-3_2017	Sediment	"Marine sediment"	2017	10	5	2017-10-05T11:25			Fair	Asia	Japan	"Tokuyama Bay, Yamaguchi"	33.99361111		131.7505556														22	23								5.5		23.5	23.8	Silt	"Grayish yellow green"		"Hydrogen sulfide odor_Faint"	None	62.2/NA	10.1/NA										2019/9/13	2019/9/13
PRA000098	SAA006527	ST023				Yamaguchi_sed3-1_2017	Sediment	"Marine sediment"	2017	11	10	2017-11-10T10:17			Fair	Asia	Japan	"Offshore of Hagi, Yamaguchi"	34.43805556		131.3794444														15	20								9.5		18	26.4	"Fine sand"	"Light gray"		Odorless	None	36.0/NA	5.8/NA									"Monitoring: This sample was used as the pooled sample:SAA006722 for chemical analysis; Sediment Moisture(%):35.7/33.4; Ignition Loss(%)5.8/5.1"	2019/10/28	2019/12/09
PRA000098	SAA006528	ST023				Yamaguchi_sed3-2_2017	Sediment	"Marine sediment"	2017	11	10	2017-11-10T10:28			Fair	Asia	Japan	"Offshore of Hagi, Yamaguchi"	34.43805556		131.3794444														15	20								9.5		18	26.4	"Fine sand"	"Light gray"		Odorless	None	34.0/NA	5.8/NA									"Monitoring: This sample was used as the pooled sample:SAA006722 for chemical analysis; Sediment Moisture(%):34.2/33.5; Ignition Loss(%)5.8/5.0"	2019/10/28	2019/12/09
PRA000098	SAA006529	ST023				Yamaguchi_sed3-3_2017	Sediment	"Marine sediment"	2017	11	10	2017-11-10T10:38			Fair	Asia	Japan	"Offshore of Hagi, Yamaguchi"	34.43805556		131.3794444														15	20								9.5		18	26.4	"Fine sand"	"Light gray"		Odorless	None	34.0/NA	5.7/NA									"Monitoring: This sample was used as the pooled sample:SAA006722 for chemical analysis; Sediment Moisture(%):33.7/32.7; Ignition Loss(%)5.7/5.3"	2019/10/28	2019/12/09
PRA000098	SAA006411	ST023				Kagawa_sed1-1_2017	Sediment	"Marine sediment"	2017	10	4	2017-10-04T09:10			Fair	Asia	Japan	"Takamatsu Port, Kagawa"	34.34972222		134.0788889														19.4	21.2								0.5		24.6	2.5	Muddy	Black		"Hydrogen sulfide odor"	"Shell (Oyster, etc); Vegetative pieces (Eel grass, Leaf, pieces of straw, etc); Plastic bags; Pieces of vinyl"	28.4/NA	4.9/NA									"Monitoring: This sample was used as the pooled sample:SAA006727 for chemical analysis; Sediment Moisture(%):28.4/51.9; Ignition Loss(%)4.9/7.6"	2019/09/13	2019/12/09
PRA000098	SAA006412	ST023				Kagawa_sed1-2_2017	Sediment	"Marine sediment"	2017	10	4	2017-10-04T09:30			Fair	Asia	Japan	"Takamatsu Port, Kagawa"	34.34972222		134.0788889														21	22.2								0.6		24.4	6	Muddy	Black		"Hydrogen sulfide odor"	"Shell; Vegetative pieces (Eel grass, Leaf, pieces of straw, etc); Pieces of vinyl"	43.9/NA	9.6/NA									"Monitoring: This sample was used as the pooled sample:SAA006727 for chemical analysis; Sediment Moisture(%):43.9/63.8; Ignition Loss(%)9.6/10.3"	2019/09/13	2019/12/09
PRA000098	SAA006413	ST023				Kagawa_sed1-3_2017	Sediment	"Marine sediment"	2017	10	4	2017-10-04T09:50			Fair	Asia	Japan	"Takamatsu Port, Kagawa"	34.34972222		134.0788889														19.7	22								1		24	5.5	Muddy	Black		"Hydrogen sulfide odor"	"Shell; Vegetative pieces (Leaf, pieces of straw, etc); Clam"	47.2/NA	10.2/NA									"Monitoring: This sample was used as the pooled sample:SAA006727 for chemical analysis; Sediment Moisture(%):47.2/64.8; Ignition Loss(%)10.2/11.0"	2019/09/13	2019/12/09
PRA000098	SAA006414	ST023				KitakyushuCity_sed1-1_2017	Sediment	"Marine sediment"	2017	10	17	2017-10-17T10:15			Cloudy	Asia	Japan	"Dokai Bay (Kitakyushu City), Fukuoka"	33.90388889		130.8158333														18.4	21.3								3		20.9	10	Muddy	"Blackish brown"		Odorless	None	78.6/NA	7.2/NA									"Monitoring: This sample was used as the pooled sample:SAA006736 for chemical analysis; Sediment Moisture(%):78.6/33.9; Ignition Loss(%)7.2/6.0"	2019/09/13	2019/12/09
PRA000098	SAA006415	ST023				KitakyushuCity_sed1-2_2017	Sediment	"Marine sediment"	2017	10	17	2017-10-17T10:00			Cloudy	Asia	Japan	"Dokai Bay (Kitakyushu City), Fukuoka"	33.90388889		130.8158333														18.4	21.3								3		20.7	12.6	Muddy	"Blackish brown"		Odorless	None	80.4/NA	7.4/NA									"Monitoring: This sample was used as the pooled sample:SAA006736 for chemical analysis; Sediment Moisture(%):80.4/36.1; Ignition Loss(%)7.4/5.4"	2019/09/13	2019/12/09
PRA000098	SAA006416	ST023				KitakyushuCity_sed1-3_2017	Sediment	"Marine sediment"	2017	10	17	2017-10-17T09:45			Cloudy	Asia	Japan	"Dokai Bay (Kitakyushu City), Fukuoka"	33.90388889		130.8158333														18.4	21.3								3		20.8	8.2	Muddy	"Blackish brown"		Odorless	None	53.6/NA	28.9/NA									"Monitoring: This sample was used as the pooled sample:SAA006736 for chemical analysis; Sediment Moisture(%):53.6/63.1; Ignition Loss(%)28.9/12.9"	2019/09/13	2019/12/09
PRA000098	SAA006530	ST023				FukuokaCity_sed1-1_2017	Sediment	"Marine sediment"	2017	10	31	2017-10-31T08:57			Fair	Asia	Japan	"Hakata Bay, Fukuoka"	33.60833333		130.3297222														17.6	19.1								2		21	7.7	Silt	Gray		Odorless	None	41.0/NA	9.3/NA									"Monitoring: This sample was used as the pooled sample:SAA006737 for chemical analysis; Sediment Moisture(%):40.5/51.3; Ignition Loss(%)9.3/8.8"	2019/10/28	2019/12/09
PRA000098	SAA006531	ST023				FukuokaCity_sed1-2_2017	Sediment	"Marine sediment"	2017	10	31	2017-10-31T09:25			Fair	Asia	Japan	"Hakata Bay, Fukuoka"	33.60833333		130.3297222														20.2	19.1								2.2		21	7.8	Silt	"Grayish olive color"		Odorless	None	41.0/NA	9.2/NA									"Monitoring: This sample was used as the pooled sample:SAA006737 for chemical analysis; Sediment Moisture(%):40.6/51.5; Ignition Loss(%)9.2/8.7"	2019/10/28	2019/12/09
PRA000098	SAA006532	ST023				FukuokaCity_sed1-3_2017	Sediment	"Marine sediment"	2017	10	31	2017-10-31T09:39			Fair	Asia	Japan	"Hakata Bay, Fukuoka"	33.60833333		130.3297222														21.2	18.6								2.2		21	8	Silt	"Grayish olive color"		Odorless	None	39.0/NA	8.9/NA									"Monitoring: This sample was used as the pooled sample:SAA006737 for chemical analysis; Sediment Moisture(%):39.3/50.4; Ignition Loss(%)8.9/8.5"	2019/10/28	2019/12/09
PRA000098	SAA006533	ST023				Saga_sed1-1_2017	Sediment	"Marine sediment"	2017	11	1	2017-11-01T11:10			Fair	Asia	Japan	"Imari Bay, Saga"	33.34		129.8208333														16.5	17.8								2.8		21	14.2	Muddy	"Grayish black"		Odorless	None	64.0/NA	12.0/NA									"Monitoring: This sample was used as the pooled sample:SAA006738 for chemical analysis; Sediment Moisture(%):63.9/63.2; Ignition Loss(%)11.7/9.8"	2019/10/28	2019/12/09
PRA000098	SAA006534	ST023				Saga_sed1-2_2017	Sediment	"Marine sediment"	2017	11	1	2017-11-01T11:26			Fair	Asia	Japan	"Imari Bay, Saga"	33.34		129.8208333														23	19								3		21	14.3	Muddy	"Grayish black"		Odorless	None	61.0/NA	16.0/NA									"Monitoring: This sample was used as the pooled sample:SAA006738 for chemical analysis; Sediment Moisture(%):61.4/63.7; Ignition Loss(%)15.8/9.8"	2019/10/28	2019/12/09
PRA000098	SAA006535	ST023				Saga_sed1-3_2017	Sediment	"Marine sediment"	2017	11	1	2017-11-01T11:48			Fair	Asia	Japan	"Imari Bay, Saga"	33.34		129.8208333														23.5	18.4								3.3		21	14.6	Muddy	"Grayish black"		Odorless	"Aquartic plants (stringlike)"	64.0/NA	13.0/NA									"Monitoring: This sample was used as the pooled sample:SAA006738 for chemical analysis; Sediment Moisture(%):63.8/63.6; Ignition Loss(%)12.7/9.1"	2019/10/28	2019/12/09
PRA000098	SAA006536	ST024				Oita_sed1-1_2017	Sediment	"River sediment"	2017	11	14	2017-11-14T10:05			"Light rain"	Asia	Japan	"Mouth of Riv. Oita, Oita"	33.25722222		131.6175														15.7	15.8										19	2.8	Muddy	Black		Odorless	"Small pieces of shell; Shell; Gravels"	22.0/NA	0.8/NA									"Monitoring: This sample was used as the pooled sample:SAA006743 for chemical analysis; Sediment Moisture(%):22.4/21.0; Ignition Loss(%)0.8/0.8"	2019/10/28	2019/12/09
PRA000098	SAA006537	ST024				Oita_sed1-2_2017	Sediment	"River sediment"	2017	11	14	2017-11-14T10:30			"Light rain"	Asia	Japan	"Mouth of Riv. Oita, Oita"	33.25722222		131.6175														15.3	16.1										19	2.6	Muddy	Black		Odorless	"Small pieces of shell; Shell; Gravels"	22.0/NA	0.9/NA									"Monitoring: This sample was used as the pooled sample:SAA006743 for chemical analysis; Sediment Moisture(%):22.3/21.8; Ignition Loss(%)0.9/0.8"	2019/10/28	2019/12/09
PRA000098	SAA006538	ST024				Oita_sed1-3_2017	Sediment	"River sediment"	2017	11	14	2017-11-14T10:50			"Light rain"	Asia	Japan	"Mouth of Riv. Oita, Oita"	33.25722222		131.6175														15	16.5										19	3.1	Muddy	Black		Odorless	"Small pieces of shell; Shell; Gravels"	22.0/NA	1.5/NA									"Monitoring: This sample was used as the pooled sample:SAA006743 for chemical analysis; Sediment Moisture(%):21.6/19.5; Ignition Loss(%)1.5/1.5"	2019/10/28	2019/12/09
PRA000098	SAA006539	ST024				Miyazaki_sed1-1_2017	Sediment	"River sediment"	2017	10	4	2017-10-04T11:25			Fair	Asia	Japan	"Mouth of Riv. Oyodo (Miyazaki City), Miyazaki"	31.89611111		131.4402778														24.3	23										22	0.4	"Pebbles and Sand"	"Grayish black_light"		Odorless	None	20.0/NA	1.3/NA									"Monitoring: This sample was used as the pooled sample:SAA006744 for chemical analysis; Sediment Moisture(%):20.0/22.8; Ignition Loss(%)1.3/1.1"	2019/10/28	2019/12/09
PRA000098	SAA006540	ST024				Miyazaki_sed1-2_2017	Sediment	"River sediment"	2017	10	4	2017-10-04T10:45			Fair	Asia	Japan	"Mouth of Riv. Oyodo (Miyazaki City), Miyazaki"	31.89611111		131.4402778														24	22.2										22	0.2	"Pebbles and Sand"	"Grayish black_light"		Odorless	None	18.0/NA	1.4/NA									"Monitoring: This sample was used as the pooled sample:SAA006744 for chemical analysis; Sediment Moisture(%):18.0/22.0; Ignition Loss(%)1.4/1.0"	2019/10/28	2019/12/09
PRA000098	SAA006541	ST024				Miyazaki_sed1-3_2017	Sediment	"River sediment"	2017	10	4	2017-10-04T11:05			Fair	Asia	Japan	"Mouth of Riv. Oyodo (Miyazaki City), Miyazaki"	31.89611111		131.4402778														24	22										21	0.3	"Pebbles and Sand"	"Grayish black_light"		Odorless	None	17.0/NA	1.4/NA									"Monitoring: This sample was used as the pooled sample:SAA006744 for chemical analysis; Sediment Moisture(%):17.0/19.9; Ignition Loss(%)1.4/1.2"	2019/10/28	2019/12/09
PRA000098	SAA006478	ST024				Akita_sed3-3_2017	Sediment	"River sediment"	2017	10	11	2017-10-11T09:50			Cloudy	Asia	Japan	"Taiheigawa-bashi Bridge, Riv. Taihei (Akita City), Akita"	39.702695		140.117855														15.2	17										15		Sandy	"Grayish black"		Odorless	None	26.0/NA	2.3/NA										2019/10/28	2019/10/28
PRA000098	SAA006479	ST024				Yamagata_sed1-1_2017	Sediment	"River sediment"	2017	10	18	2017-10-18T10:40			Cloudy	Asia	Japan	"Mouth of Riv. Mogami (Sakata City), Yamagata"	38.88722222		139.8433333														15	15										14	0.3	Muddy	"Grayish black"		"Swampy odor"	"Leaves; Sticks"	34.0/NA	4.2/NA									"Monitoring: This sample was used as the pooled sample:SAA006633 for chemical analysis; Sediment Moisture(%):33.9/36.7; Ignition Loss(%)4.2/3.5"	2019/10/28	2019/12/09
PRA000099	SAA006620	ST024				Hokkaido_sed1-123_2017	Sediment	"River sediment"	2017	9	26	2017-09-26T09:50			Fair	Asia	Japan	"Onnnenai-ohashi Bridge, Riv. Teshio (BifukaTown), Hokkaido"	44.59138889		142.3063889														17.3												0.2		"Blackish brown"		Odorless	None	22.1/22.7	1.4/2.3									"n=3 pooled:"	2019/12/16	2019/12/16
PRA000099	SAA006355	ST024				Hokkaido_sed2-1_2017	Sediment	"River sediment"	2017	11	10	2017-11-10T13:50			Cloudy	Asia	Japan	"Ishikarikakokyo Bridge, Mouth of Riv. Ishikari (Ishikari City), Hokkaido"	43.22861111		141.3519444														8.8	6.8													Black		"Hydrogen sulfide odor"		35.1/NA	5.9/NA									"Monitoring: This sample was used as the pooled sample:SAA006621 for chemical analysis; Sediment Moisture(%):35.1/41.7; Ignition Loss(%)5.9/6.5"	2019/09/13	2019/12/09
PRA000099	SAA006356	ST024				Hokkaido_sed2-2_2017	Sediment	"River sediment"	2017	11	10	2017-11-10T14:40			Cloudy	Asia	Japan	"Ishikarikakokyo Bridge, Mouth of Riv. Ishikari (Ishikari City), Hokkaido"	43.22861111		141.3519444														8.5	6.8													Black		"Hydrogen sulfide odor"		56.0/NA	16.0/NA									"Monitoring: This sample was used as the pooled sample:SAA006621 for chemical analysis; Sediment Moisture(%):56.0/24.8; Ignition Loss(%)16.0/3.0"	2019/09/13	2019/12/09
PRA000099	SAA006357	ST024				Hokkaido_sed2-3_2017	Sediment	"River sediment"	2017	11	10	2017-11-10T14:20			Cloudy	Asia	Japan	"Ishikarikakokyo Bridge, Mouth of Riv. Ishikari (Ishikari City), Hokkaido"	43.22861111		141.3519444														8.7	6.8													Black		"Hydrogen sulfide odor"		50.6/NA	11.0/NA									"Monitoring: This sample was used as the pooled sample:SAA006621 for chemical analysis; Sediment Moisture(%):50.5/54.7; Ignition Loss(%)11.0/7.9"	2019/09/13	2019/12/09
PRA000099	SAA006621	ST024				Hokkaido_sed2-123_2017	Sediment	"River sediment"	2017	11	10				Cloudy	Asia	Japan	"Ishikarikakokyo Bridge, Mouth of Riv. Ishikari (Ishikari City), Hokkaido"	43.22861111		141.3519444																																"35.1; 56.0; 50.5 (Each) / 39.7 (Mixed)"	"5.9; 16.0; 11.0 (Each) / 4.7 (Mixed)"									"n=3 pooled:SAA006355, SAA006356, SAA006357"	2019/12/16	2019/12/16
PRA000099	SAA006358	ST023				Hokkaido_sed3-1_2017	Sediment	"Marine sediment"	2017	9	11	2017-09-11T10:45			Fair	Asia	Japan	"Tomakomai Port, Hokkaido"	42.63138889		141.6288889														19.5	19.5								3.5		18	16		Black		"Hydrogen sulfide odor"	"Something found"	59.6/NA	6.2/NA									"Monitoring: This sample was used as the pooled sample:SAA006622 for chemical analysis; Sediment Moisture(%):59.6/62.8; Ignition Loss(%)6.2/7.8"	2019/09/13	2019/12/09
PRA000099	SAA006359	ST023				Hokkaido_sed3-2_2017	Sediment	"Marine sediment"	2017	9	11	2017-09-11T11:20			Fair	Asia	Japan	"Tomakomai Port, Hokkaido"	42.63138889		141.6288889														19.7	19.5								3.5		16	16		Black		"Hydrogen sulfide odor"	"Something found"	36.2/NA	2.5/NA									"Monitoring: This sample was used as the pooled sample:SAA006622 for chemical analysis; Sediment Moisture(%):36.2/40.1; Ignition Loss(%)2.5/4.3"	2019/09/13	2019/12/09
PRA000099	SAA006360	ST023				Hokkaido_sed3-3_2017	Sediment	"Marine sediment"	2017	9	11	2017-09-11T11:04			Fair	Asia	Japan	"Tomakomai Port, Hokkaido"	42.63138889		141.6288889														19.9	19.5								3.5		16	16		Black		"Hydrogen sulfide odor"	"Something found"	42.9/NA	3.2/NA									"Monitoring: This sample was used as the pooled sample:SAA006622 for chemical analysis; Sediment Moisture(%):42.9/48.3; Ignition Loss(%)3.2/4.8"	2019/09/13	2019/12/09
PRA000099	SAA006622	ST023				Hokkaido_sed3-123_2017	Sediment	"Marine sediment"	2017	9	11				Fair	Asia	Japan	"Tomakomai Port, Hokkaido"	42.63138889		141.6288889																																"59.6; 36.2; 42.9 (Each) / 49.7 (Mixed)"	"6.2; 2.5; 3.2 (Each) / 5.2 (Mixed)"									"n=3 pooled: SAA006358, SAA006359, SAA006360"	2019/12/16	2019/12/16
PRA000099	SAA006363	ST024				Iwate_sed1-1_2017	Sediment	"River sediment"	2017	10	4	2017-10-04T10:29			Cloudy	Asia	Japan	"Riv. Toyosawa (Hanamaki City), Iwate"	39.38166667		141.1191667														15	14.2										13.8	0.2	Sandy	Brown_Light		Odorless	None	23.2/NA	1.9/NA									"Monitoring: This sample was used as the pooled sample:SAA006623 for chemical analysis; Sediment Moisture(%):23.2/28.9; Ignition Loss(%)1.9/2.0"	2019/09/13	2019/12/09
PRA000099	SAA006364	ST024				Iwate_sed1-2_2017	Sediment	"River sediment"	2017	10	4	2017-10-04T11:00			Fair	Asia	Japan	"Riv. Toyosawa (Hanamaki City), Iwate"	39.38166667		141.1191667														15.9	14.3										14	0.2	Sandy	Brown_Light		Odorless	None	22.1/NA	1.9/NA									"Monitoring: This sample was used as the pooled sample:SAA006623 for chemical analysis; Sediment Moisture(%):22.1/25.0; Ignition Loss(%)1.9/2.1"	2019/09/13	2019/12/09
PRA000099	SAA006365	ST024				Iwate_sed1-3_2017	Sediment	"River sediment"	2017	10	4	2017-10-04T11:05			Fair	Asia	Japan	"Riv. Toyosawa (Hanamaki City), Iwate"	39.38166667		141.1191667														16	14.3										14	0.2	Sandy	Brown_Light		Odorless	None	25.6/NA	2.2/NA									"Monitoring: This sample was used as the pooled sample:SAA006623 for chemical analysis; Sediment Moisture(%):25.6/24.8; Ignition Loss(%)2.2/2.2"	2019/09/13	2019/12/09
PRA000099	SAA006623	ST024				Iwate_sed1-123_2017	Sediment	"River sediment"	2017	10	4				"Cloudy & Fair"	Asia	Japan	"Riv. Toyosawa (Hanamaki City), Iwate"	39.38166667		141.1191667																																"23.2; 22.1; 25.6 (Each) / 25.5 (Mixed)"	"1.9; 1.9; 2.2 (Each) / 2.1 (Mixed)"									"n=3 pooled: SAA006363, SAA006364, SAA006365"	2019/12/16	2019/12/16
PRA000099	SAA006624	ST023				Miyagi_sed1_1_2017	Sediment	"Marine sediment"	2017	10	17	2017-10-17T10:20			Fair	Asia	Japan	"Sendai Bay (Matsushima Bay), Miyagi"	38.35333333		141.0975														21.4	16.4								1		17.6	4.6	Muddy	Gray		"Seaweed odor_Faint"		61.8/64.5	11.3/8.2									"This sample was used as the pooled sample:SAA006627 for chemical analysis"	2019/12/16	2019/12/16
PRA000099	SAA006625	ST023				Miyagi_sed1_2_2017	Sediment	"Marine sediment"	2017	10	17	2017-10-17T11:00			Fair	Asia	Japan	"Sendai Bay (Matsushima Bay), Miyagi"	38.35333333		141.0975														18.2	17								2		17.6	5.3	Muddy	Gray		"Seaweed odor_Faint"	None	71.5/73.7	13.7/10.4									"This sample was used as the pooled sample:SAA006627 for chemical analysis"	2019/12/16	2019/12/16
PRA000099	SAA006626	ST023				Miyagi_sed1_3_2017	Sediment	"Marine sediment"	2017	10	17	2017-10-17T11:10			Fair	Asia	Japan	"Sendai Bay (Matsushima Bay), Miyagi"	38.35333333		141.0975														23.7	16.7								2.5		18.3	5	Muddy	Gray		"Seaweed odor_Faint"		67.8/69.3	12.9/9.1									"This sample was used as the pooled sample:SAA006627 for chemical analysis"	2019/12/16	2019/12/16
PRA000099	SAA006627	ST023				Miyagi_sed1_123_2017	Sediment	"Marine sediment"	2017	10	17				Fair	Asia	Japan	"Sendai Bay (Matsushima Bay), Miyagi"	38.35333333		141.0975																																"61.8; 71.5; 67.8 (Each) / 68.9 (Mixed)"	"11.3; 13.7; 12.9(Each) / 9.1 (Mixed)"									"n=3 pooled: SAA006624, SAA006625, SAA006626"	2019/12/16	2019/12/16
PRA000099	SAA006474	ST024				Sendai_sed1_1_2017	Sediment	"River sediment"	2017	11	14	2017-11-14T10:58			Cloudy	Asia	Japan	"Hirose-ohashi Bridge, Riv. Hirose (Sendai City), Miyagi"	38.21333333		140.9088889														13.9	9.9										11	0.5	Sandy	Brown		"Swampy odor_Faint"	None	11.0/NA	1.1/NA									"Monitoring: This sample was used as the pooled sample:SAA006628 for chemical analysis; Sediment Moisture(%):11.2/12.7; Ignition Loss(%)1.1/0.9"	2019/10/28	2019/12/09
PRA000099	SAA006475	ST024				Sendai_sed1_2_2017	Sediment	"River sediment"	2017	11	14	2017-11-14T10:25			Cloudy	Asia	Japan	"Hirose-ohashi Bridge, Riv. Hirose (Sendai City), Miyagi"	38.21333333		140.9088889														13.9	9.7										11	0.4	Sandy	Brown		"Swampy odor_Faint"	None	9.5/NA	1.0/NA									"Monitoring: This sample was used as the pooled sample:SAA006628 for chemical analysis; Sediment Moisture(%):9.5/11.1; Ignition Loss(%)1.0/0.8"	2019/10/28	2019/12/09
PRA000099	SAA006476	ST024				Sendai_sed1_3_2017	Sediment	"River sediment"	2017	11	14	2017-11-14T10:44			Cloudy	Asia	Japan	"Hirose-ohashi Bridge, Riv. Hirose (Sendai City), Miyagi"	38.21333333		140.9088889														13.9	9.8										11	0.9	Sandy	Brown		"Swampy odor_Faint"	None	16.0/NA	1.4/NA									"Monitoring: This sample was used as the pooled sample:SAA006628 for chemical analysis; Sediment Moisture(%):16.2/18.9; Ignition Loss(%)1.4/1.1"	2019/10/28	2019/12/09
PRA000099	SAA006628	ST024				Sendai_sed1_123_2017	Sediment	"River sediment"	2017	11	14				Cloudy	Asia	Japan	"Hirose-ohashi Bridge, Riv. Hirose (Sendai City), Miyagi"	38.21333333		140.9088889																																"11.2; 9.5; 16.2 (Each) / 14.1 (Mixed)"	"1.1; 1.0; 1.4 (Each) / 1.0 (Mixed)"									"n=3 pooled: SAA006363, SAA006364, SAA006365"	2019/12/16	2019/12/16
PRA000099	SAA006629	ST024				Akita_sed2-1_2017	Sediment	"Lake Sediment"	2017	9	22	2017-09-22T09:53			Fair	Asia	Japan	"Lake Hachiro, Akita"	39.92277778		139.9988889														21.3	21.3								0.4		21.9	7.5	Mud	"Grayish black"		"Hydrogen sulfide odor_Faint"	None	80.0/80.1	11.9/10.0									"This sample was used as the pooled sample:SAA006632 for chemical analysis"	2019/12/16	2019/12/16
PRA000099	SAA006630	ST024				Akita_sed2-2_2017	Sediment	"Lake Sediment"	2017	9	22	2017-09-22T09:17			Fair	Asia	Japan	"Lake Hachiro, Akita"	39.92277778		139.9988889														21.2	21.3								0.4		21.3	8	Mud	"Grayish black"		"Hydrogen sulfide odor_Faint"	None	78.6/77.2	12.0/9.4									"This sample was used as the pooled sample:SAA006632 for chemical analysis"	2019/12/16	2019/12/16
PRA000099	SAA006631	ST024				Akita_sed2-3_2017	Sediment	"Lake Sediment"	2017	9	22	2017-09-22T10:12			Fair	Asia	Japan	"Lake Hachiro, Akita"	39.92277778		139.9988889														22.9	22.6								0.4		21.2	9.3	Mud	"Grayish black"		"Hydrogen sulfide odor_Faint"	None	81.5/78.5	12.2/9.8									"This sample was used as the pooled sample:SAA006632 for chemical analysis"	2019/12/16	2019/12/16
PRA000099	SAA006632	ST024				Akita_sed2-123_2017	Sediment	"Lake Sediment"	2017	9	22				Fair	Asia	Japan	"Lake Hachiro, Akita"	39.92277778		139.9988889																																"80.0; 78.6; 81.5 (Each) / 78.7 (Mixed)"	"11.9; 12.0; 12.2 (Each) / 9.7 (Mixed)"									"n=3 pooled: SAA006358, SAA006359, SAA006360"	2019/12/16	2019/12/16
PRA000099	SAA006479	ST024				Yamagata_sed1-1_2017	Sediment	"River sediment"	2017	10	18	2017-10-18T10:40			Cloudy	Asia	Japan	"Mouth of Riv. Mogami (Sakata City), Yamagata"	38.88722222		139.8433333														15	15										14	0.3	Muddy	"Grayish black"		"Swampy odor"	"Leaves; Sticks"	34.0/NA	4.2/NA									"Monitoring: This sample was used as the pooled sample:SAA006633 for chemical analysis; Sediment Moisture(%):33.9/36.7; Ignition Loss(%)4.2/3.5"	2019/10/28	2019/12/09
PRA000099	SAA006480	ST024				Yamagata_sed1-2_2017	Sediment	"River sediment"	2017	10	18	2017-10-18T10:40			Cloudy	Asia	Japan	"Mouth of Riv. Mogami (Sakata City), Yamagata"	38.88722222		139.8433333														15	14.8										14	0.3	Muddy	"Grayish black"		"Swampy odor"	"Leaves; Sticks"	30.0/NA	2.9/NA									"Monitoring: This sample was used as the pooled sample:SAA006633 for chemical analysis; Sediment Moisture(%):30.4/33.2; Ignition Loss(%)2.9/2.6"	2019/10/28	2019/12/09
PRA000099	SAA006481	ST024				Yamagata_sed1-3_2017	Sediment	"River sediment"	2017	10	18	2017-10-18T10:40			Cloudy	Asia	Japan	"Mouth of Riv. Mogami (Sakata City), Yamagata"	38.88722222		139.8433333														15	14.5										14	0.3	Muddy	"Grayish black"		"Swampy odor"	"Leaves; Sticks"	33.0/NA	3.8/NA									"Monitoring: This sample was used as the pooled sample:SAA006633 for chemical analysis; Sediment Moisture(%):32.9/36.6; Ignition Loss(%)3.8/3.3"	2019/10/28	2019/12/09
PRA000099	SAA006633	ST024				Yamagata_sed1-123_2017	Sediment	"River sediment"	2017	10	18				Cloudy	Asia	Japan	"Mouth of Riv. Mogami (Sakata City), Yamagata"	38.88722222		139.8433333																																"33.9; 30.4; 32.9 (Each) / 35.0 (Mixed)"	"4.2; 2.9; 3.8 (Each) / 3.0 (Mixed)"									"n=3 pooled: SAA006479, SAA006480, SAA006481"	2019/12/16	2019/12/16
PRA000099	SAA006634	ST023				Fukushima_sed1-1_2017	Sediment	"Marine sediment"	2017	10	11	2017-10-11T10:10			Cloudy	Asia	Japan	"Onahama Port, Fukushima"	36.92472222		140.8752778														19.8	20.5								6		19.1	11.5	Muddy	"Grayish green_Dark"		"Seaweed odor_Faint"	"Pebbles; Shell"	45.7/53.3	7.6/7.8									"This sample was used as the pooled sample:SAA006637 for chemical analysis"	2019/12/16	2019/12/16
PRA000099	SAA006635	ST023				Fukushima_sed1-2_2017	Sediment	"Marine sediment"	2017	10	11	2017-10-11T10:40			Cloudy	Asia	Japan	"Onahama Port, Fukushima"	36.92472222		140.8752778														19.1	20.3								5.8		19	12.8	Muddy	"Grayish green_Dark"		"Seaweed odor_Faint"	None	44.0/55.7	8.2/8.7									"This sample was used as the pooled sample:SAA006637 for chemical analysis"	2019/12/16	2019/12/16
PRA000099	SAA006636	ST023				Fukushima_sed1-3_2017	Sediment	"Marine sediment"	2017	10	11	2017-10-11T11:05			Cloudy	Asia	Japan	"Onahama Port, Fukushima"	36.92472222		140.8752778														19.2	20.4								5.5		19	12.8	Muddy	"Grayish green_Dark"		"Seaweed odor_Faint"	None	48.8/58.1	9.3/9.3									"This sample was used as the pooled sample:SAA006637 for chemical analysis"	2019/12/16	2019/12/16
PRA000099	SAA006637	ST023				Fukushima_sed1-123_2017	Sediment	"Marine sediment"	2017	10	11				Cloudy	Asia	Japan	"Onahama Port, Fukushima"	36.92472222		140.8752778																																"45.7; 44.0; 48.8 (Each) / 55.6 (Mixed)"	"7.6; 8.2; 9.3 (Each) / 8.8 (Mixed)"									"n=3 pooled: SAA006634, SAA006635, SAA006636"	2019/12/16	2019/12/16
PRA000099	SAA006482	ST024				Ibaraki_sed1-1_2017	Sediment	"River sediment"	2017	11	17	2017-11-17T09:58			Fair	Asia	Japan	"Kamome-ohasi Bridge, Mouth of Riv. Tone (Kamisu City), Ibaraki"	35.77638889		140.7569444														13.9	13											1.8	Mud	Black		"Swampy odor_Faint"	None	29.0/NA	3.7/NA									"Monitoring: This sample was used as the pooled sample:SAA006638 for chemical analysis; Sediment Moisture(%):29.0/31.9; Ignition Loss(%)3.7/3.0"	2019/10/28	2019/12/09
PRA000099	SAA006483	ST024				Ibaraki_sed1-2_2017	Sediment	"River sediment"	2017	11	17	2017-11-17T10:17			Fair	Asia	Japan	"Kamome-ohasi Bridge, Mouth of Riv. Tone (Kamisu City), Ibaraki"	35.77638889		140.7569444														14.9	13											6.3	Mud	Black		"Swampy odor_Faint"	Shellfish	31.0/NA	5.3/NA									"Monitoring: This sample was used as the pooled sample:SAA006638 for chemical analysis; Sediment Moisture(%):31.0/45.5; Ignition Loss(%)5.3/4.8"	2019/10/28	2019/12/09
PRA000099	SAA006484	ST024				Ibaraki_sed1-3_2017	Sediment	"River sediment"	2017	11	17	2017-11-17T10:51			Fair	Asia	Japan	"Kamome-ohasi Bridge, Mouth of Riv. Tone (Kamisu City), Ibaraki"	35.77638889		140.7569444														13.5	12.9											2.4	Mud	"Grayish black"		"Sea odor_Faint"	"Shellfish (many)"	25.0/NA	2.0/NA									"Monitoring: This sample was used as the pooled sample:SAA006638 for chemical analysis; Sediment Moisture(%):25.0/24.9; Ignition Loss(%)2.0/1.3"	2019/10/28	2019/12/09
PRA000099	SAA006638	ST024				Ibaraki_sed1-123_2017	Sediment	"River sediment"	2017	11	17				Fair	Asia	Japan	"Kamome-ohasi Bridge, Mouth of Riv. Tone (Kamisu City), Ibaraki"	35.77638889		140.7569444																																"29.0; 31.0; 25.0 (Each) / 33.9 (Mixed)"	"3.7; 5.3; 2.0 (Each) / 2.9 (Mixed)"									"n=3 pooled: SAA006482, SAA006483, SAA006484"	2019/12/16	2019/12/16
PRA000099	SAA006639	ST024				Tochigi_sed1-1_2017	Sediment	"River sediment"	2017	10	18	2017-10-18T10:15			Fair	Asia	Japan	"Tagawa area-Toshuko Weir (Utsunomiya City), Tochigi"	36.52805556		139.8855556														17	15.5										15	0.5	Gravel	Brown		"River algae odor"		NA/23.1	NA/0.7									"This sample was used as the pooled sample:SAA006642 for chemical analysis"	2019/12/16	2019/12/16
PRA000099	SAA006640	ST024				Tochigi_sed1-2_2017	Sediment	"River sediment"	2017	10	18	2017-10-18T12:10			Fair	Asia	Japan	"Tagawa area-Toshuko Weir (Utsunomiya City), Tochigi"	36.52805556		139.8855556														20	16.4										17	0.5	Gravel	Brown		Odorless		NA/23.2	NA/0.8									"This sample was used as the pooled sample:SAA006642 for chemical analysis"	2019/12/16	2019/12/16
PRA000099	SAA006641	ST024				Tochigi_sed1-3_2017	Sediment	"River sediment"	2017	10	18	2017-10-18T12:50			Fair	Asia	Japan	"Tagawa area-Toshuko Weir (Utsunomiya City), Tochigi"	36.52805556		139.8855556														17.5	16										17	0.3	Sand	Brown		Odorless		NA/21.3	NA/0.7									"This sample was used as the pooled sample:SAA006642 for chemical analysis"	2019/12/16	2019/12/16
PRA000099	SAA006642	ST024				Tochigi_sed1-123_2017	Sediment	"River sediment"	2017	10	18				Fair	Asia	Japan	"Tagawa area-Toshuko Weir (Utsunomiya City), Tochigi"	36.52805556		139.8855556																																"NA(Each) /21.1 (Mixed)"	"NA (Each) / 0.7 (Mixed)"									"n=3 pooled: SAA006639, SAA006640, SAA006641"	2019/12/16	2019/12/16
PRA000099	SAA006369	ST023				Chiba_sed1-1_2017	Sediment	"Marine sediment"	2017	10	19	2017-10-19T09:40			Rain	Asia	Japan	"Ichihara-Anesaki Coast, Chiba"	35.52166667		140.0283333														12.7	20.6								5.8		20.5	14.2	Silt	"Grayish green"		"Hydrogen sulfide odor"	"Small pieces of shell"	54.0/NA	8.5/NA									"Monitoring: This sample was used as the pooled sample:SAA006643 for chemical analysis; Sediment Moisture(%):54.0/64.4; Ignition Loss(%)8.5/7.3"	2019/09/13	2019/12/09
PRA000099	SAA006370	ST023				Chiba_sed1-2_2017	Sediment	"Marine sediment"	2017	10	19	2017-10-19T10:03			Rain	Asia	Japan	"Ichihara-Anesaki Coast, Chiba"	35.52166667		140.0283333														13.1	20.4								5.5		20.5	15.5	Silt	"Grayish green"		"Hydrogen sulfide odor"	"Small pieces of shell"	50.5/NA	7.5/NA									"Monitoring: This sample was used as the pooled sample:SAA006643 for chemical analysis; Sediment Moisture(%):50.5/60.3; Ignition Loss(%)7.5/6.4"	2019/09/13	2019/12/09
PRA000099	SAA006371	ST023				Chiba_sed1-3_2017	Sediment	"Marine sediment"	2017	10	19	2017-10-19T10:20			Rain	Asia	Japan	"Ichihara-Anesaki Coast, Chiba"	35.52166667		140.0283333														12.6	20.6								5.3		20.7	15.5	Silt	Black		"Hydrogen sulfide odor"	None	73.9/NA	13.2/NA									"Monitoring: This sample was used as the pooled sample:SAA006643 for chemical analysis; Sediment Moisture(%):73.9/82.0; Ignition Loss(%)13.2/11.0"	2019/09/13	2019/12/09
PRA000099	SAA006643	ST023				Chiba_sed1-123_2017	Sediment	"Marine sediment"	2017	10	19				Rain	Asia	Japan	"Ichihara-Anesaki Coast, Chiba"	35.52166667		140.0283333																																"54.0; 50.5; 73.9 (Each) / 69.2 (Mixed)"	"8.5; 7.5; 13.2 (Each) / 7.6 (Mixed)"									"n=3 pooled: SAA006369, SAA006370, SAA006371"	2019/12/16	2019/12/16
PRA000099	SAA006644	ST024				ChibaCity_sed1-1_2017	Sediment	"River sediment"	2017	11	13	2017-11-13T10:57			Fair	Asia	Japan	"Mouth of Riv. Hanami (Chiba City), Chiba"	35.63472222		140.04694440														15.8	17.5										16	2	Muddy	"Grayish black_Dark"		"Seaweed odor"	"Shellfish; Fallen branches"	26.0/24.7	3.6/2.2									"This sample was used as the pooled sample:SAA006647 for chemical analysis"	2019/12/16	2019/12/16
PRA000099	SAA006645	ST024				ChibaCity_sed1-2_2017	Sediment	"River sediment"	2017	11	13	2017-11-13T11:32			Fair	Asia	Japan	"Mouth of Riv. Hanami (Chiba City), Chiba"	35.63472222		140.04694440														17	19.1										17	2.3	Muddy	"Grayish black_Dark"		"Seaweed odor"	"Shellfish; Fallen leaves"	29.8/28.6	4.3/2.7									"This sample was used as the pooled sample:SAA006647 for chemical analysis"	2019/12/16	2019/12/16
PRA000099	SAA006646	ST024				ChibaCity_sed1-3_2017	Sediment	"River sediment"	2017	11	13	2017-11-13T12:08			Fair	Asia	Japan	"Mouth of Riv. Hanami (Chiba City), Chiba"	35.63472222		140.04694440														19	19.2										17.5	2.7	Muddy	"Grayish black_Dark"		"Seaweed odor"	Shellfish	22.4/22.2	2.9/1.7									"This sample was used as the pooled sample:SAA006647 for chemical analysis"	2019/12/16	2019/12/16
PRA000099	SAA006647	ST024				ChibaCity_sed1-123_2017	Sediment	"River sediment"	2017	11	13				Fair	Asia	Japan	"Mouth of Riv. Hanami (Chiba City), Chiba"	35.63472222		140.04694440																																"26.0; 29.8; 22.4 (Each) / 24.7 (Mixed)"	"3.6; 4.3; 2.9 (Each) / 2.2 (Mixed)"									"n=3 pooled: SAA006644, SAA006645, SAA006646"	2019/12/16	2019/12/16
PRA000099	SAA006372	ST024				Tokyo_sed1-1_2017	Sediment	"River sediment"	2017	11	15	2017-11-15T10:35			Cloudy	Asia	Japan	"Mouth of Riv. Arakawa (Koto Ward), Tokyo"	35.64583333		139.8463889														15.2	14.4								1.3		18.2	3.7	Silt	"Grayish yellow green"		"Hydrogen sulfide odor_Faint"	"Clam; Shell"	50.3/NA										"Monitoring: This sample was used as the pooled sample:SAA006648 for chemical analysis; Sediment Moisture(%):50.3/53.5; Ignition Loss(%)9.9/7.6"	2019/09/13	2019/12/09
PRA000099	SAA006373	ST024				Tokyo_sed1-2_2017	Sediment	"River sediment"	2017	11	15	2017-11-15T11:20			Fair	Asia	Japan	"Mouth of Riv. Arakawa (Koto Ward), Tokyo"	35.64583333		139.8463889														17	14.8								1		17.7	2.8	Silt	"Dark yellow green"		Odorless	"Clam; Shell"	49.9/NA										"Monitoring: This sample was used as the pooled sample:SAA006648 for chemical analysis; Sediment Moisture(%):49.9/52.5; Ignition Loss(%)9.2/7.4"	2019/09/13	2019/12/09
PRA000099	SAA006374	ST024				Tokyo_sed1-3_2017	Sediment	"River sediment"	2017	11	15	2017-11-15T11:45			Cloudy	Asia	Japan	"Mouth of Riv. Arakawa (Koto Ward), Tokyo"	35.64583333		139.8463889														16.9	15.6								1.1		17.4	2.8	Silt	"Grayish yellow green"		Odorless	"Clam; Shell"	47.7/NA										"Monitoring: This sample was used as the pooled sample:SAA006648 for chemical analysis; Sediment Moisture(%):47.7/54.5; Ignition Loss(%)7.4/7.8"	2019/09/13	2019/12/09
PRA000099	SAA006648	ST024				Tokyo_sed1-123_2017	Sediment	"River sediment"	2017	11	15				"Cloudy & Fair"	Asia	Japan	"Mouth of Riv. Arakawa (Koto Ward), Tokyo"	35.64583333		139.8463889																																"50.3; 49.9; 47.7 (Each) / 53.6 (Mixed)"	"9.9; 9.2; 7.4 (Each) / 7.7 (Mixed)"									"n=3 pooled: SAA006372, SAA006373, SAA006374"	2019/12/16	2019/12/16
PRA000099	SAA006375	ST024				Tokyo_sed2-1_2017	Sediment	"River sediment"	2017	11	15	2017-11-15T12:55			Fair	Asia	Japan	"Mouth of Riv. Sumida (Minato Ward), Tokyo"	35.66		139.7705556														18.3	18.6								2.9		19.3	5.1	Silt	"Dark yellow green"		"Hydrogen sulfide odor"	Shell	50.6/NA										"Monitoring: This sample was used as the pooled sample:SAA006649 for chemical analysis; Sediment Moisture(%):50.6/62.2; Ignition Loss(%)13.0/17.2"	2019/09/13	2019/12/09
PRA000099	SAA006376	ST024				Tokyo_sed2-2_2017	Sediment	"River sediment"	2017	11	15	2017-11-15T13:35			Fair	Asia	Japan	"Mouth of Riv. Sumida (Minato Ward), Tokyo"	35.66		139.7705556														18.4	18.7								2.6		19.3	5.4	Silt	Black		"Sewage odor"	"Vegetative pieces; Shell"	60.8/NA										"Monitoring: This sample was used as the pooled sample:SAA006649 for chemical analysis; Sediment Moisture(%):60.8/68.4; Ignition Loss(%)13.0/11.3"	2019/09/13	2019/12/09
PRA000099	SAA006377	ST024				Tokyo_sed2-3_2017	Sediment	"River sediment"	2017	11	15	2017-11-15T13:50			Fair	Asia	Japan	"Mouth of Riv. Sumida (Minato Ward), Tokyo"	35.66		139.7705556														18.2	18.6								2.6		19.3	3.2	Silt	Black		"Sewage odor"	Shell	56.0/NA										"Monitoring: This sample was used as the pooled sample:SAA006649 for chemical analysis; Sediment Moisture(%):56.0/65.1; Ignition Loss(%)13.0/10.9"	2019/09/13	2019/12/09
PRA000099	SAA006649	ST024				Tokyo_sed2-123_2017	Sediment	"River sediment"	2017	11	15				Fair	Asia	Japan	"Mouth of Riv. Sumida (Minato Ward), Tokyo"	35.66		139.7705556																																"50.6; 60.8; 56.0 (Each) / 66.2 (Mixed)"	"13.0; 13.0; 13.0 (Each) / 10.7 (Mixed)"									"n=3 pooled: SAA006375, SAA006376, SAA006377"	2019/12/16	2019/12/16
PRA000099	SAA006378	ST023				Yokohama_sed1-1_2017	Sediment	"Marine sediment"	2017	11	6	2017-11-06T13:15			Fair	Asia	Japan	"Yokohama Port, Kanagawa"	35.45555556		139.6636111														18	18								12		19.5	12	Muddy	"Blackish brown"		"Hydrogen sulfide odor"	None	65.2/NA	8.5/NA									"Monitoring: This sample was used as the pooled sample:SAA006650 for chemical analysis; Sediment Moisture(%):65.2/57.2; Ignition Loss(%)8.5/7.7"	2019/09/13	2019/12/09
PRA000099	SAA006379	ST023				Yokohama_sed1-2_2017	Sediment	"Marine sediment"	2017	11	6	2017-11-06T11:00			Fair	Asia	Japan	"Yokohama Port, Kanagawa"	35.45555556		139.6636111														17	16.7								12		19.5	12	Muddy	"Blackish brown"		"Hydrogen sulfide odor"	None	75.1/NA	10.6/NA									"Monitoring: This sample was used as the pooled sample:SAA006650 for chemical analysis; Sediment Moisture(%):75.1/73.1; Ignition Loss(%)10.6/10.1"	2019/09/13	2019/12/09
PRA000099	SAA006380	ST023				Yokohama_sed1-3_2017	Sediment	"Marine sediment"	2017	11	6	2017-11-06T13:45			Fair	Asia	Japan	"Yokohama Port, Kanagawa"	35.45555556		139.6636111														19	17.5								12		19	12	Muddy	"Blackish brown"		"Hydrogen sulfide odor"	None	66.9/NA	8.2/NA									"Monitoring: This sample was used as the pooled sample:SAA006650 for chemical analysis; Sediment Moisture(%):66.9/54.1; Ignition Loss(%)8.2/6.3"	2019/09/13	2019/12/09
PRA000099	SAA006650	ST023				Yokohama_sed1-123_2017	Sediment	"Marine sediment"	2017	11	6				Fair	Asia	Japan	"Yokohama Port, Kanagawa"	35.45555556		139.6636111																																"65.2; 75.1; 66.9 (Each) / 62.5 (Mixed)"	"8.5; 10.6; 8.2 (Each) / 7.8 (Mixed)"									"n=3 pooled: SAA006378, SAA006379, SAA006380"	2019/12/16	2019/12/16
PRA000099	SAA006651	ST024				KawasakiCity_sed1-1_2017	Sediment	"River sediment"	2017	11	13	2017-11-13T12:30			Fair	Asia	Japan	"Mouth of Riv. Tama (Kawasaki City), Kanagawa"	35.53		139.7836111														17.5	15.8								2.4		18.1	4.5	Mud	"Greenish brown"		"Seaweed odor"	"Shell; Vegetative pieces; Sticks; Pieces of plastic"	34.8/48.6	7.6/7.0									"This sample was used as the pooled sample:SAA006654 for chemical analysis"	2019/12/16	2019/12/16
PRA000099	SAA006652	ST024				KawasakiCity_sed1-2_2017	Sediment	"River sediment"	2017	11	13	2017-11-13T12:00			Fair	Asia	Japan	"Mouth of Riv. Tama (Kawasaki City), Kanagawa"	35.53		139.7836111														17.7	16.2								1.1		17.9	2.8	"Mud; Sand"	"Greenish brown"		"Seaweed odor"	"Shell; Vegetative pieces; Sticks; Pieces of plastic"	18.9/26.9	2.8/3.0									"This sample was used as the pooled sample:SAA006654 for chemical analysis"	2019/12/16	2019/12/16
PRA000099	SAA006653	ST024				KawasakiCity_sed1-3_2017	Sediment	"River sediment"	2017	11	13	2017-11-13T12:15			Fair	Asia	Japan	"Mouth of Riv. Tama (Kawasaki City), Kanagawa"	35.53		139.7836111														17.7	15.8								2.1		18	2.7	Mud	"Greenish brown"		"Seaweed odor"	"Shell; Vegetative pieces; Sticks; Pieces of plastic"	34.6/46.6	7.6/6.4									"This sample was used as the pooled sample:SAA006654 for chemical analysis"	2019/12/16	2019/12/16
PRA000099	SAA006654	ST024				KawasakiCity_sed1-123_2017	Sediment	"River sediment"	2017	11	13				Fair	Asia	Japan	"Mouth of Riv. Tama (Kawasaki City), Kanagawa"	35.53		139.7836111																																"34.8; 18.9; 34.6 (Each) / 39.9 (Mixed)"	"7.6; 2.8; 7.6 (Each) / 5.1 (Mixed)"									"n=3 pooled: SAA006651, SAA006652, SAA006653"	2019/12/16	2019/12/16
PRA000099	SAA006485	ST023				KawasakiCity_sed2-1_2017	Sediment	"Marine sediment"	2017	11	13	2017-11-13T10:30			Fair	Asia	Japan	"Keihin Canal, Kawasaki Port, Kanagawa (front of Ogimachi)"	35.49527778		139.7277778														18	18.6								5		20	13.5	Mud	"Greenish brown"		"Hydrogen sulfide odor_Faint"	"Shell; Vegetative pieces; Fishing lines; Fishing net"	53.0/NA	10.0/NA									"Monitoring: This sample was used as the pooled sample:SAA006655 for chemical analysis; Sediment Moisture(%):52.7/62.6; Ignition Loss(%)10.4/8.3"	2019/10/28	2019/12/09
PRA000099	SAA006486	ST023				KawasakiCity_sed2-2_2017	Sediment	"Marine sediment"	2017	11	13	2017-11-13T11:10			Fair	Asia	Japan	"Keihin Canal, Kawasaki Port, Kanagawa (front of Ogimachi)"	35.49527778		139.7277778														17.7	18.7								5.1		20	14	Mud	"Blackish green"		"Hydrogen sulfide odor"	"Shell; Vegetative pieces"	62.0/NA	13.0/NA									"Monitoring: This sample was used as the pooled sample:SAA006655 for chemical analysis; Sediment Moisture(%):62.0/71.4; Ignition Loss(%)13.4/10.5"	2019/10/28	2019/12/09
PRA000099	SAA006487	ST023				KawasakiCity_sed2-3_2017	Sediment	"Marine sediment"	2017	11	13	2017-11-13T10:53			Fair	Asia	Japan	"Keihin Canal, Kawasaki Port, Kanagawa (front of Ogimachi)"	35.49527778		139.7277778														18	18.3								5.1		20	13.5	Mud	"Blackish green brown"		"Oily odor"	"Shell; Vegetative pieces"	51.0/NA	10.0/NA									"Monitoring: This sample was used as the pooled sample:SAA006655 for chemical analysis; Sediment Moisture(%):51.1/60.8; Ignition Loss(%)10.1/7.8"	2019/10/28	2019/12/09
PRA000099	SAA006655	ST023				KawasakiCity_sed2-123_2017	Sediment	"Marine sediment"	2017	11	13				Fair	Asia	Japan	"Keihin Canal, Kawasaki Port, Kanagawa (front of Ogimachi)"	35.49527778		139.7277778																																"52.7; 62.0; 51.1 (Each) / 65.9 (Mixed)"	"10.4; 13.4; 10.1 (Each) / 9.0 (Mixed)"									"n=3 pooled: SAA006485, SAA006486, SAA006487"	2019/12/16	2019/12/16
PRA000099	SAA006382	ST024				Niigata_sed1-2_2017	Sediment	"River sediment"	2017	10	11	2017-10-11T09:45			Cloudy	Asia	Japan	"Downstream of Riv. Shinano (Niigata City), Niigata"	37.88305556		139.0155556														23	19											4.5	Sandy	"Grayish brown"		Odorless	Pebble	18.9/NA	1.4/NA									"Monitoring: This sample was used as the pooled sample:SAA006656 for chemical analysis; Sediment Moisture(%):18.9/20.6; Ignition Loss(%)1.4/1.2"	2019/09/13	2019/12/09
PRA000099	SAA006381	ST024				Niigata_sed1-1_2017	Sediment	"River sediment"	2017	10	11	2017-10-11T09:55			Cloudy	Asia	Japan	"Downstream of Riv. Shinano (Niigata City), Niigata"	37.88305556		139.0155556														23	19											2.1	Muddy	"Grayish green"		"Sewage odor"	Leaf	44.8/NA	4.1/NA									"Monitoring: This sample was used as the pooled sample:SAA006656 for chemical analysis; Sediment Moisture(%):44.8/34.4; Ignition Loss(%)4.1/3.7"	2019/09/13	2019/12/09
PRA000099	SAA006383	ST024				Niigata_sed1-3_2017	Sediment	"River sediment"	2017	10	11	2017-10-11T09:50			Cloudy	Asia	Japan	"Downstream of Riv. Shinano (Niigata City), Niigata"	37.88305556		139.0155556														23	19											5	Sandy	Brown		"River algae odor"	"Pieces of Plastic; Sticks"	21.8/NA	1.1/NA									"Monitoring: This sample was used as the pooled sample:SAA006656 for chemical analysis; Sediment Moisture(%):21.8/21.1; Ignition Loss(%)1.1/1.1"	2019/09/13	2019/12/09
PRA000099	SAA006656	ST024				Niigata_sed1-123_2017	Sediment	"River sediment"	2017	10	11				Cloudy	Asia	Japan	"Downstream of Riv. Shinano (Niigata City), Niigata"	37.88305556		139.0155556																																"44.8; 18.9; 21.8 (Each) / 23.9 (Mixed)"	"4.1; 1.4; 1.1 (Each) / 1.9 (Mixed)"									"n=3 pooled: SAA006382, SAA006381, SAA006383"	2019/12/16	2019/12/16
PRA000099	SAA006488	ST024				Toyama_sed1-1_2017	Sediment	"River sediment"	2017	11	9	2017-11-09T12:55			Fair	Asia	Japan	"Hagiura-bashi Bridge, Mouth of Riv. Jintsu (Toyama City), Toyama"	36.745		137.2180556														17.5	13.5										14	0.9	Muddy	"Grayish black"		"Hydrogen sulfide odor"	"Leaves; Roots"	40.0/NA	5.5/NA									"Monitoring: This sample was used as the pooled sample:SAA006657 for chemical analysis; Sediment Moisture(%):40.0/40.9; Ignition Loss(%)5.5/5.0"	2019/10/28	2019/12/09
PRA000099	SAA006489	ST024				Toyama_sed1-2_2017	Sediment	"River sediment"	2017	11	9	2017-11-09T13:44			Fair	Asia	Japan	"Hagiura-bashi Bridge, Mouth of Riv. Jintsu (Toyama City), Toyama"	36.745		137.2180556														15.5	13.5										13	0.6	"Sandy mud"	"Grayish black"		"Hydrogen sulfide odor_Faint"	"Leaves; Roots"	28.0/NA	2.5/NA									"Monitoring: This sample was used as the pooled sample:SAA006657 for chemical analysis; Sediment Moisture(%):28.0/26.4; Ignition Loss(%)2.5/2.1"	2019/10/28	2019/12/09
PRA000099	SAA006490	ST024				Toyama_sed1-3_2017	Sediment	"River sediment"	2017	11	9	2017-11-09T14:18			Cloudy	Asia	Japan	"Hagiura-bashi Bridge, Mouth of Riv. Jintsu (Toyama City), Toyama"	36.745		137.2180556														13.5	12.5										13	0.9	Sandy	"Grayish black"		"Hydrogen sulfide odor_Faint"	"Leaves; Roots"	23.0/NA	1.7/NA									"Monitoring: This sample was used as the pooled sample:SAA006657 for chemical analysis; Sediment Moisture(%):23.0/20.5; Ignition Loss(%)1.7/1.4"	2019/10/28	2019/12/09
PRA000099	SAA006657	ST024				Toyama_sed1-123_2017	Sediment	"River sediment"	2017	11	9				"Fair & Cloudy"	Asia	Japan	"Hagiura-bashi Bridge, Mouth of Riv. Jintsu (Toyama City), Toyama"	36.745		137.2180556																																"40.0; 28.0; 23.0 (Each) / 30.4 (Mixed)"	"5.5; 2.5; 1.7 (Each) / 2.8 (Mixed)"									"n=3 pooled: SAA006488, SAA006489, SAA006490"	2019/12/16	2019/12/16
PRA000099	SAA006384	ST024				Ishikawa_sed1-1_2017	Sediment	"River sediment"	2017	10	11	2017-10-11T10:20			Cloudy	Asia	Japan	"Mouth of Riv. Sai (Kanazawa City), Ishikawa"	36.60027778		136.5888889														25.8	21.8											3.2	"Sandy silt"	"Grayish green"		"Fish rotten odor"	"Pebble; Shell"	20.0/NA	2.3/NA									"Monitoring: This sample was used as the pooled sample:SAA006658 for chemical analysis; Sediment Moisture(%):20.0/22.6; Ignition Loss(%)2.3/2.3"	2019/09/13	2019/12/09
PRA000099	SAA006385	ST024				Ishikawa_sed1-2_2017	Sediment	"River sediment"	2017	10	11	2017-10-11T12:10			Cloudy	Asia	Japan	"Mouth of Riv. Sai (Kanazawa City), Ishikawa"	36.60027778		136.5888889														25.9	22.2											1	"Sandy silt"	"Blackish brown"		"Fish rotten odor"	Pebble	22.0/NA	1.5/NA									"Monitoring: This sample was used as the pooled sample:SAA006658 for chemical analysis; Sediment Moisture(%):22.0/44.1; Ignition Loss(%)1.5/5.2"	2019/09/13	2019/12/09
PRA000099	SAA006386	ST024				Ishikawa_sed1-3_2017	Sediment	"River sediment"	2017	10	11	2017-10-11T12:40			Cloudy	Asia	Japan	"Mouth of Riv. Sai (Kanazawa City), Ishikawa"	36.60027778		136.5888889														27.9	22.2											0.4	Sand	"Blackish brown"		Odorless	Pebble	25.0/NA	2.0/NA									"Monitoring: This sample was used as the pooled sample:SAA006658 for chemical analysis; Sediment Moisture(%):25.0/26.6; Ignition Loss(%)2.0/1.3"	2019/09/13	2019/12/09
PRA000099	SAA006658	ST024				Ishikawa_sed1-123_2017	Sediment	"River sediment"	2017	10	11				Cloudy	Asia	Japan	"Mouth of Riv. Sai (Kanazawa City), Ishikawa"	36.60027778		136.5888889																																"20.0; 22.0; 25.0 (Each) / 30.3 (Mixed)"	"2.3; 1.5; 2.0 (Each) / 2.7 (Mixed)"									"n=3 pooled: SAA006384, SAA006385, SAA006386"	2019/12/16	2019/12/16
PRA000099	SAA006659	ST024				Fukui_sed1-1_2017	Sediment	"River sediment"	2017	11	2	2017-11-02T10:30			Fair	Asia	Japan	"Mishima-bashi Bridge, Riv. Shono (Tsuruga City), Fukui"	35.64694444		136.0630556														17	14										14.5	0.3	Sandy	Brown		Odorless	Stones	25.2/17.9	0.8/0.5									"This sample was used as the pooled sample:SAA006662 for chemical analysis"	2019/12/16	2019/12/16
PRA000099	SAA006660	ST024				Fukui_sed1-2_2017	Sediment	"River sediment"	2017	11	2	2017-11-02T10:30			Fair	Asia	Japan	"Mishima-bashi Bridge, Riv. Shono (Tsuruga City), Fukui"	35.64694444		136.0630556														17	14										14.5	0.3	Sandy	Brown		Odorless	Stones	19.7/15.7	0.9/0.5									"This sample was used as the pooled sample:SAA006662 for chemical analysis"	2019/12/16	2019/12/16
PRA000099	SAA006661	ST024				Fukui_sed1-3_2017	Sediment	"River sediment"	2017	11	2	2017-11-02T10:30			Fair	Asia	Japan	"Mishima-bashi Bridge, Riv. Shono (Tsuruga City), Fukui"	35.64694444		136.0630556														17	14										14.5	0.3	Sandy	Brown		Odorless	Stones	19.4/20.1	0.9/0.5									"This sample was used as the pooled sample:SAA006662 for chemical analysis"	2019/12/16	2019/12/16
PRA000099	SAA006662	ST024				Fukui_sed1-123_2017	Sediment	"River sediment"	2017	11	2				Fair	Asia	Japan	"Mishima-bashi Bridge, Riv. Shono (Tsuruga City), Fukui"	35.64694444		136.0630556																																"25.2; 19.7; 19.4 (Each) / 14.1 (Mixed)"	"0.8; 0.9; 0.9 (Each) / 0.5 (Mixed)"									"n=3 pooled: SAA006659, SAA006660, SAA006661"	2019/12/16	2019/12/16
PRA000099	SAA006663	ST024				Yamanashi_sed1-1_2017	Sediment	"River sediment"	2017	11	6	2017-11-06T10:30			Fair	Asia	Japan	"Chiaki-bashi Bridge, Riv. Ara (Kofu City), Yamanashi"	35.6475		138.5655556																										0.5	Sand	Gray		Odorless	None	20.0/21.9	1.1/0.7									"This sample was used as the pooled sample:SAA006666 for chemical analysis"	2019/12/16	2019/12/16
PRA000099	SAA006664	ST024				Yamanashi_sed1-2_2017	Sediment	"River sediment"	2017	11	6	2017-11-06T10:00			Fair	Asia	Japan	"Chiaki-bashi Bridge, Riv. Ara (Kofu City), Yamanashi"	35.6475		138.5655556																										0.5	Pebble	Gray		Odorless	Sand	2.3/8.4	1.3/0.7									"This sample was used as the pooled sample:SAA006666 for chemical analysis"	2019/12/16	2019/12/16
PRA000099	SAA006665	ST024				Yamanashi_sed1-3_2017	Sediment	"River sediment"	2017	11	6	2017-11-06T09:30			Fair	Asia	Japan	"Chiaki-bashi Bridge, Riv. Ara (Kofu City), Yamanashi"	35.6475		138.5655556																										0.84	Sand	Gray		Odorless	None	27.0/25.1	1.1/0.7									"This sample was used as the pooled sample:SAA006666 for chemical analysis"	2019/12/16	2019/12/16
PRA000099	SAA006666	ST024				Yamanashi_sed1-123_2017	Sediment	"River sediment"	2017	11	6				Fair	Asia	Japan	"Chiaki-bashi Bridge, Riv. Ara (Kofu City), Yamanashi"	35.6475		138.5655556																																"20.0; 2.3; 27.0 (Each) / 19.6 (Mixed)"	"1.1; 1.3; 1.1 (Each) / 0.7 (Mixed)"									"n=3 pooled: SAA006663, SAA006664, SAA006665"	2019/12/16	2019/12/16
PRA000099	SAA006387	ST024				Nagano_sed1-1_2017	Sediment	"Lake sediment"	2017	11	13	2017-11-13T10:27			Fair	Asia	Japan	"Center of Lake Suwa, Nagano"	36.05		138.0861111														12.3	10.4								1.02		10.7	6.2	Muddy	"Blackish brown_Dark"		"Swampy odor_Faint"	None	78.8/NA	14.5/NA									"Monitoring: This sample was used as the pooled sample:SAA006667 for chemical analysis; Sediment Moisture(%):78.8/86.9; Ignition Loss(%)14.5/13.3"	2019/09/13	2019/12/09
PRA000099	SAA006388	ST024				Nagano_sed1-2_2017	Sediment	"Lake sediment"	2017	11	13	2017-11-13T11:19			Fair	Asia	Japan	"Center of Lake Suwa, Nagano"	36.05		138.0861111														14.5	11.1								1.07		10.8	6.1	Muddy	"Blackish brown_Dark"		"Swampy odor_Faint"	None	78.3/NA	14.7/NA									"Monitoring: This sample was used as the pooled sample:SAA006667 for chemical analysis; Sediment Moisture(%):78.3/86.2; Ignition Loss(%)14.7/13.2"	2019/09/13	2019/12/09
PRA000099	SAA006389	ST024				Nagano_sed1-3_2017	Sediment	"Lake sediment"	2017	11	13	2017-11-13T11:50			Fair	Asia	Japan	"Center of Lake Suwa, Nagano"	36.05		138.0861111														12.6	11.2								1		10.5	6.2	Muddy	"Blackish brown_Dark"		"Swampy odor_Faint"	None	78.3/NA	15.2/NA									"Monitoring: This sample was used as the pooled sample:SAA006667 for chemical analysis; Sediment Moisture(%):78.3/86.0; Ignition Loss(%)15.2/13.6"	2019/09/13	2019/12/09
PRA000099	SAA006667	ST024				Nagano_sed1-123_2017	Sediment	"Lake sediment"	2017	11	13				Fair	Asia	Japan	"Center of Lake Suwa, Nagano"	36.05		138.0861111																																"78.8; 78.3; 78.3 (Each) / 86.3 (Mixed)"	"14.5; 14.7; 15.2 (Each) / 13.4 (Mixed)"									"n=3 pooled: SAA006387, SAA006388, SAA006389"	2019/12/16	2019/12/16
PRA000099	SAA006494	ST023				Shizuoka_sed1-1_2017	Sediment	"Marine sediment"	2017	11	8	2017-11-08T10:10			Rain	Asia	Japan	"Shimizu Port, Shizuoka"	35.02416667		138.5161111														18.6	21.5								4		22	25.1	"Sand; Clay"	"Grayish black_dark"		"Seaweed odor"	Shellfish	27.0/NA	4.4/NA									"Monitoring: This sample was used as the pooled sample:SAA006668 for chemical analysis; Sediment Moisture(%):27.2/31.4; Ignition Loss(%)4.4/3.6"	2019/10/28	2019/12/09
PRA000099	SAA006495	ST023				Shizuoka_sed1-2_2017	Sediment	"Marine sediment"	2017	11	8	2017-11-08T09:40			Rain	Asia	Japan	"Shimizu Port, Shizuoka"	35.02416667		138.5161111														18.5	20.8								4.5		23	22	"Sand; Clay"	"Grayish black_dark"		"Seaweed odor"	Shellfish	26.0/NA	4.5/NA									"Monitoring: This sample was used as the pooled sample:SAA006668 for chemical analysis; Sediment Moisture(%):25.5/31.9; Ignition Loss(%)4.5/4.0"	2019/10/28	2019/12/09
PRA000099	SAA006496	ST023				Shizuoka_sed1-3_2017	Sediment	"Marine sediment"	2017	11	8	2017-11-08T10:55			Rain	Asia	Japan	"Shimizu Port, Shizuoka"	35.02416667		138.5161111														18.6	21.8								3.5		23	17.6	"Sand; Clay"	"Grayish black_dark"		"Seaweed odor"	Shellfish	30.0/NA	5.4/NA									"Monitoring: This sample was used as the pooled sample:SAA006668 for chemical analysis; Sediment Moisture(%):29.8/40.5; Ignition Loss(%)5.4/5.2"	2019/10/28	2019/12/09
PRA000099	SAA006668	ST023				Shizuoka_sed1-123_2017	Sediment	"Marine sediment"	2017	11	8				Rain	Asia	Japan	"Shimizu Port, Shizuoka"	35.02416667		138.5161111																																"27.2; 25.5; 29.8 (Each) / 35.3 (Mixed)"	"4.4; 4.5; 5.4 (Each) / 4.3 (Mixed)"									"n=3 pooled: SAA006494, SAA006495, SAA006496"	2019/12/16	2019/12/16
PRA000099	SAA006497	ST024				Shizuoka_sed3-1_2017	Sediment	"River sediment"	2017	10	5	2017-10-05T11:05			Cloudy	Asia	Japan	"Riv. Tenryu (Iwata City), Shizuoka"	34.67916667		137.7961111														20.9	19.8										20	0.7	Sand	"Grayish brown_dark"		Odorless	"Pebbles; Dead leaves"	15.0/NA	1.4/NA									"Monitoring: This sample was used as the pooled sample:SAA006669 for chemical analysis; Sediment Moisture(%):15.0/20.2; Ignition Loss(%)1.4/1.3"	2019/10/28	2019/12/09
PRA000099	SAA006498	ST024				Shizuoka_sed3-2_2017	Sediment	"River sediment"	2017	10	5	2017-10-05T11:45			Cloudy	Asia	Japan	"Riv. Tenryu (Iwata City), Shizuoka"	34.67916667		137.7961111														22.6	19.9										20	0.3	"Sand; Gravel"	"Grayish brown_dark"		Odorless	"Pebbles; Dead leaves"	16.0/NA	1.1/NA									"Monitoring: This sample was used as the pooled sample:SAA006669 for chemical analysis; Sediment Moisture(%):16.0/21.3; Ignition Loss(%)1.1/0.9"	2019/10/28	2019/12/09
PRA000099	SAA006499	ST024				Shizuoka_sed3-3_2017	Sediment	"River sediment"	2017	10	5	2017-10-05T12:15			Cloudy	Asia	Japan	"Riv. Tenryu (Iwata City), Shizuoka"	34.67916667		137.7961111														22.6	20.1										20	0.7	"Sand; Gravel"	"Grayish brown_dark"		Odorless	"Pebbles; Dead leaves"	21.0/NA	1.7/NA									"Monitoring: This sample was used as the pooled sample:SAA006669 for chemical analysis; Sediment Moisture(%):20.5/24.1; Ignition Loss(%)1.7/1.5"	2019/10/28	2019/12/09
PRA000099	SAA006669	ST024				Shizuoka_sed3-123_2017	Sediment	"River sediment"	2017	10	5				Cloudy	Asia	Japan	"Riv. Tenryu (Iwata City), Shizuoka"	34.67916667		137.7961111																																"15.0; 16.0; 20.5 (Each) / 20.2 (Mixed)"	"1.4; 1.1; 1.7 (Each) / 1.2 (Mixed)"									"n=3 pooled: SAA006497, SAA006498, SAA006499"	2019/12/16	2019/12/16
PRA000099	SAA006670	ST023				Aichi_sed2-1_2017	Sediment	"Marine sediment"	2017	11	13	2017-11-13T09:55			Cloudy	Asia	Japan	"Kinuura Port, Aichi"	34.84166667		136.9486111														12.4	19								3		20	14.7	Muddy	"Grayish black"		"Hydrogen sulfide odor"	Shell	51.0/64.0	9.9/9.4									"This sample was used as the pooled sample:SAA006673 for chemical analysis"	2019/12/16	2019/12/16
PRA000099	SAA006671	ST023				Aichi_sed2-2_2017	Sediment	"Marine sediment"	2017	11	13	2017-11-13T10:05			Cloudy	Asia	Japan	"Kinuura Port, Aichi"	34.84166667		136.9486111														12.4	19								3		19.8	14.7	Muddy	"Grayish black"		"Hydrogen sulfide odor"	Shell	52.2/66.5	10.8/9.5									"This sample was used as the pooled sample:SAA006673 for chemical analysis"	2019/12/16	2019/12/16
PRA000099	SAA006672	ST023				Aichi_sed2-3_2017	Sediment	"Marine sediment"	2017	11	13	2017-11-13T10:15			Cloudy	Asia	Japan	"Kinuura Port, Aichi"	34.84166667		136.9486111														12.4	19								3		19.5	14.7	Muddy	"Grayish black"		"Hydrogen sulfide odor"	Shell	51.9/65.0	13.0/9.7									"This sample was used as the pooled sample:SAA006673 for chemical analysis"	2019/12/16	2019/12/16
PRA000099	SAA006673	ST023				Aichi_sed2-123_2017	Sediment	"Marine sediment"	2017	11	13				Cloudy	Asia	Japan	"Kinuura Port, Aichi"	34.84166667		136.9486111																																"51.0; 52.2; 51.9 (Each) / 65.4 (Mixed)"	"9.9; 10.8; 13.0 (Each) / 9.5 (Mixed)"									"n=3 pooled: SAA006670, SAA006671, SAA006672"	2019/12/16	2019/12/16
PRA000099	SAA006674	ST023				Aichi_sed1-1_2017	Sediment	"Marine sediment"	2017	11	13	2017-11-13T11:50			Cloudy	Asia	Japan	"Nagoya Port, West of Shiomi Wharf, Aichi"	35.07111111		136.8691667														14.6	18.5								2.1		20	16.8	Muddy	"Grayish black"		"Hydrogen sulfide odor"	Shell	43.0/58.9	7.5/6.9									"This sample was used as the pooled sample:SAA006677 for chemical analysis"	2019/12/16	2019/12/16
PRA000099	SAA006675	ST023				Aichi_sed1-2_2017	Sediment	"Marine sediment"	2017	11	13	2017-11-13T12:01			Cloudy	Asia	Japan	"Nagoya Port, West of Shiomi Wharf, Aichi"	35.07111111		136.8691667														14.6	18.5								2.1		20	16.8	Muddy	"Grayish black"		"Hydrogen sulfide odor"	Shell	41.5/60.2	7.3/7.1									"This sample was used as the pooled sample:SAA006677 for chemical analysis"	2019/12/16	2019/12/16
PRA000099	SAA006676	ST023				Aichi_sed1-3_2017	Sediment	"Marine sediment"	2017	11	13	2017-11-13T12:12			Cloudy	Asia	Japan	"Nagoya Port, West of Shiomi Wharf, Aichi"	35.07111111		136.8691667														14.6	18.5								2.1		20	16.8	Muddy	"Grayish black"		"Hydrogen sulfide odor"	Shell	47.1/61.9	8.9/7.5									"This sample was used as the pooled sample:SAA006677 for chemical analysis"	2019/12/16	2019/12/16
PRA000099	SAA006677	ST023				Aichi_sed1-123_2017	Sediment	"Marine sediment"	2017	11	13				Cloudy	Asia	Japan	"Nagoya Port, West of Shiomi Wharf, Aichi"	35.07111111		136.8691667																																"43.0; 41.5; 47.1 (Each) / 60.1 (Mixed)"	"7.5; 7.3; 8.9 (Each) / 7.2 (Mixed)"									"n=3 pooled: SAA006674, SAA006675, SAA006676"	2019/12/16	2019/12/16
PRA000099	SAA006393	ST023				Mie_sed1-1_2017	Sediment	"Marine sediment"	2017	10	24	2017-10-24T10:20			Cloudy	Asia	Japan	"Yokkaichi Port, Mie"	34.94944444		136.6530556														17	16								1.2		21	12	Muddy	"Grayish black"		"Hydrogen sulfide odor_Faint"	"Almost none"	70.0/NA	8.9/NA									"Monitoring: This sample was used as the pooled sample:SAA006678 for chemical analysis; Sediment Moisture(%):70.0/69.4; Ignition Loss(%)8.9/7.9"	2019/09/13	2019/12/09
PRA000099	SAA006394	ST023				Mie_sed1-2_2017	Sediment	"Marine sediment"	2017	10	24	2017-10-24T10:40			Cloudy	Asia	Japan	"Yokkaichi Port, Mie"	34.94944444		136.6530556														17.5	17.5								1.4		21	12.5	Muddy	"Grayish black"		"Hydrogen sulfide odor_Faint"	"Almost none"	74.0/NA	9.8/NA									"Monitoring: This sample was used as the pooled sample:SAA006678 for chemical analysis; Sediment Moisture(%):74.0/71.4; Ignition Loss(%)9.8/8.4"	2019/09/13	2019/12/09
PRA000099	SAA006395	ST023				Mie_sed1-3_2017	Sediment	"Marine sediment"	2017	10	24	2017-10-24T10:50			Cloudy	Asia	Japan	"Yokkaichi Port, Mie"	34.94944444		136.6530556														17	17								1.1		21	8	Muddy	"Grayish black"		"Hydrogen sulfide odor"	Shell	57.0/NA	5.7/NA									"Monitoring: This sample was used as the pooled sample:SAA006678 for chemical analysis; Sediment Moisture(%):57.0/50.8; Ignition Loss(%)5.7/4.5"	2019/09/13	2019/12/09
PRA000099	SAA006678	ST023				Mie_sed1-123_2017	Sediment	"Marine sediment"	2017	10	24				Cloudy	Asia	Japan	"Yokkaichi Port, Mie"	34.94944444		136.6530556																																"70.0; 74.0; 57.0 (Each) / 64.4 (Mixed)"	"8.9; 9.8; 5.7 (Each) / 6.8 (Mixed)"									"n=3 pooled: SAA006393, SAA006394, SAA006395"	2019/12/16	2019/12/16
PRA000099	SAA006679	ST023				Mie_sed2-1_2017	Sediment	"Marine sediment"	2017	10	17	2017-10-17T10:50			Rain	Asia	Japan	"Toba Port, Mie"	34.48083333		136.8486111														16.5	18								2.1		21.5	6.6	Muddy	"Grayish brown"		"Swampy odor_Faint"	"Shell; Leaves and Sticks"	53.0/46.9	8.9/8.0									"This sample was used as the pooled sample:SAA006682 for chemical analysis"	2019/12/16	2019/12/16
PRA000099	SAA006680	ST023				Mie_sed2-2_2017	Sediment	"Marine sediment"	2017	10	17	2017-10-17T11:20			Rain	Asia	Japan	"Toba Port, Mie"	34.48083333		136.8486111														17.5	19.5								2.7		21	6.1	Muddy	"Grayish brown"		"Swampy odor_Faint"	"Shell; Leaves and Sticks"	48.0/41.9	8.1/7.0									"This sample was used as the pooled sample:SAA006682 for chemical analysis"	2019/12/16	2019/12/16
PRA000099	SAA006681	ST023				Mie_sed2-3_2017	Sediment	"Marine sediment"	2017	10	17	2017-10-17T11:40			Rain	Asia	Japan	"Toba Port, Mie"	34.48083333		136.8486111														16.5	21								3.2		21	6.1	Muddy	"Grayish brown"		"Swampy odor_Faint"	"Shell; Leaves and Sticks"	55.0/46.4	9.1/7.4									"This sample was used as the pooled sample:SAA006682 for chemical analysis"	2019/12/16	2019/12/16
PRA000099	SAA006682	ST023				Mie_sed2-123_2017	Sediment	"Marine sediment"	2017	10	17				Rain	Asia	Japan	"Toba Port, Mie"	34.48083333		136.8486111																																"53.0; 48.0; 55.0 (Each) / 45.3 (Mixed)"	"8.9; 8.1; 9.1 (Each) / 7.3 (Mixed)"									"n=3 pooled: SAA006679, SAA006680, SAA006681"	2019/12/16	2019/12/16
PRA000099	SAA006500	ST024				Shiga_sed1-1_2017	Sediment	"Lake Sediment"	2017	10	11	2017-10-11T09:50			Fair	Asia	Japan	"Lake Biwa (center, offshore of Minamihira), Shiga"	35.18527778		135.9733333														26.5	22.5								6.2		9	56.9	Muddy	"Grayish black"		"Swampy odor"	None	70.0/NA	11.0/NA									"Monitoring: This sample was used as the pooled sample:SAA006683 for chemical analysis; Sediment Moisture(%):70.2/80.6; Ignition Loss(%)11.2/10.3"	2019/10/28	2019/12/09
PRA000099	SAA006501	ST024				Shiga_sed1-2_2017	Sediment	"Lake Sediment"	2017	10	11	2017-10-11T09:15			Fair	Asia	Japan	"Lake Biwa (center, offshore of Minamihira), Shiga"	35.18527778		135.9733333														25	23								5.4		9	54.4	Muddy	"Grayish black"		"Swampy odor"	None	69.0/NA	11.0/NA									"Monitoring: This sample was used as the pooled sample:SAA006683 for chemical analysis; Sediment Moisture(%):69.4/80.0; Ignition Loss(%)11.3/10.4"	2019/10/28	2019/12/09
PRA000099	SAA006502	ST024				Shiga_sed1-3_2017	Sediment	"Lake Sediment"	2017	10	11	2017-10-11T10:10			Fair	Asia	Japan	"Lake Biwa (center, offshore of Minamihira), Shiga"	35.18527778		135.9733333														26.9	23.8								6.1		9	49.9	Muddy	"Grayish black"		"Swampy odor"	None	69.0/NA	11.0/NA									"Monitoring: This sample was used as the pooled sample:SAA006683 for chemical analysis; Sediment Moisture(%):69.2/80.2; Ignition Loss(%)11.1/10.5"	2019/10/28	2019/12/09
PRA000099	SAA006683	ST024				Shiga_sed1-123_2017	Sediment	"Lake Sediment"	2017	10	11				Fair	Asia	Japan	"Lake Biwa (center, offshore of Minamihira), Shiga"	35.18527778		135.9733333																																"70.2; 69.4; 69.2 (Each) / 80.3 (Mixed)"	"11.2; 11.3; 11.1 (Each) / 10.5 (Mixed)"									"n=3 pooled: SAA006500, SAA006501, SAA006502"	2019/12/16	2019/12/16
PRA000099	SAA006503	ST024				Shiga_sed2-1_2017	Sediment	"Lake Sediment"	2017	10	11	2017-10-11T11:05			Fair	Asia	Japan	"Lake Biwa (center, offshore of Karasaki), Shiga"	35.04611111		135.8955556														29.8	23.3								3.7		22	3.9	Muddy	"Grayish black"		"Swampy odor"	"Aquartic plants"	66.0/NA	11.0/NA									"Monitoring: This sample was used as the pooled sample:SAA006684 for chemical analysis; Sediment Moisture(%):66.3/76.3; Ignition Loss(%)10.7/9.5"	2019/10/28	2019/12/09
PRA000099	SAA006504	ST024				Shiga_sed2-2_2017	Sediment	"Lake Sediment"	2017	10	11	2017-10-11T10:50			Fair	Asia	Japan	"Lake Biwa (center, offshore of Karasaki), Shiga"	35.04611111		135.8955556														26	24.2								3.5		23	4.1	Muddy	"Grayish black"		"Swampy odor"	"Aquartic plants"	67.0/NA	11.0/NA									"Monitoring: This sample was used as the pooled sample:SAA006684 for chemical analysis; Sediment Moisture(%):67.1/77.8; Ignition Loss(%)10.9/10.3"	2019/10/28	2019/12/09
PRA000099	SAA006505	ST024				Shiga_sed2-3_2017	Sediment	"Lake Sediment"	2017	10	11	2017-10-11T11:25			Fair	Asia	Japan	"Lake Biwa (center, offshore of Karasaki), Shiga"	35.04611111		135.8955556														28.9	24.4								2.4		21	3.3	Sandy	"Grayish black"		"Swampy odor"	"Aquartic plants"	44.0/NA	5.3/NA									"Monitoring: This sample was used as the pooled sample:SAA006684 for chemical analysis; Sediment Moisture(%):44.1/53.6; Ignition Loss(%)5.3/4.3"	2019/10/28	2019/12/09
PRA000099	SAA006684	ST024				Shiga_sed2-123_2017	Sediment	"Lake Sediment"	2017	10	11				Fair	Asia	Japan	"Lake Biwa (center, offshore of Karasaki), Shiga"	35.04611111		135.8955556																																"66.3; 67.1; 44.1 (Each) / 70.3 (Mixed)"	"10.7; 10.9; 5.3 (Each) / 8.0 (Mixed)"									"n=3 pooled: SAA006503, SAA006504, SAA006505"	2019/12/16	2019/12/16
PRA000099	SAA006396	ST023				Kyoto_sed1-1_2017	Sediment	"Marine sediment"	2017	10	19	2017-10-19T09:55			"Cloudy with occasional rain"	Asia	Japan	"Miyazu Port, Kyoto"	35.58305556		135.2138889														17.2	21.4								5		20	10.7	Muddy	"Grayish black"		"Seaweed odor"	None	26.1/NA	2.4/NA									"Monitoring: This sample was used as the pooled sample:SAA006685 for chemical analysis; Sediment Moisture(%):26.1/29.7; Ignition Loss(%)2.4/1.9"	2019/09/13	2019/12/09
PRA000099	SAA006397	ST023				Kyoto_sed1-2_2017	Sediment	"Marine sediment"	2017	10	19	2017-10-19T10:15			"Cloudy with occasional rain"	Asia	Japan	"Miyazu Port, Kyoto"	35.58305556		135.2138889														17.7	21.5								6		20	22.2	Muddy	"Grayish black_Dark"		"Seaweed odor"	None	49.9/NA	8.2/NA									"Monitoring: This sample was used as the pooled sample:SAA006685 for chemical analysis; Sediment Moisture(%):49.9/50.7; Ignition Loss(%)8.2/7.4"	2019/09/13	2019/12/09
PRA000099	SAA006398	ST023				Kyoto_sed1-3_2017	Sediment	"Marine sediment"	2017	10	19	2017-10-19T10:43			"Cloudy with occasional rain"	Asia	Japan	"Miyazu Port, Kyoto"	35.58305556		135.2138889														16.9	21.6								6		19.2	22.1	Muddy	"Grayish black_Dark"		"Seaweed odor"	None	52.3/NA	8.8/NA									"Monitoring: This sample was used as the pooled sample:SAA006685 for chemical analysis; Sediment Moisture(%):52.3/53.8; Ignition Loss(%)8.8/8.0"	2019/09/13	2019/12/09
PRA000099	SAA006685	ST023				Kyoto_sed1-123_2017	Sediment	"Marine sediment"	2017	10	19				"Cloudy with occasional rain"	Asia	Japan	"Miyazu Port, Kyoto"	35.58305556		135.2138889																																"26.1; 49.9; 52.3 (Each) / 47.1 (Mixed)"	"2.4; 8.2; 8.8 (Each) / 6.0 (Mixed)"									"n=3 pooled: SAA006396, SAA006397, SAA006398"	2019/12/16	2019/12/16
PRA000099	SAA006506	ST024				KyotoCity_sed1-1_2017	Sediment	"River sediment"	2017	11	29	2017-11-29T10:10			Cloudy	Asia	Japan	"Miyamae-bashi Bridge, Riv. Katsura (Kyoto City), Kyoto"	34.905		135.7125														13.3	12.7										14	0.5	Sandy	"Grayish brown"		Odorless	None	20.0/NA	0.94/NA									"Monitoring: This sample was used as the pooled sample:SAA006686 for chemical analysis; Sediment Moisture(%):20.0/21.3; Ignition Loss(%)0.9/0.8"	2019/10/28	2019/12/09
PRA000099	SAA006507	ST024				KyotoCity_sed1-2_2017	Sediment	"River sediment"	2017	11	29	2017-11-29T10:25			Cloudy	Asia	Japan	"Miyamae-bashi Bridge, Riv. Katsura (Kyoto City), Kyoto"	34.905		135.7125														13.3	12.7										15	0.4	Sandy	"Grayish brown"		Odorless	None	19.0/NA	0.92/NA									"Monitoring: This sample was used as the pooled sample:SAA006686 for chemical analysis; Sediment Moisture(%):19.1/19.7; Ignition Loss(%)0.9/0.8"	2019/10/28	2019/12/09
PRA000099	SAA006508	ST024				KyotoCity_sed1-3_2017	Sediment	"River sediment"	2017	11	29	2017-11-29T10:40			Cloudy	Asia	Japan	"Miyamae-bashi Bridge, Riv. Katsura (Kyoto City), Kyoto"	34.905		135.7125														13.3	12.7										14	0.7	Sandy	"Grayish brown"		Odorless	None	20.0/NA	0.88/NA									"Monitoring: This sample was used as the pooled sample:SAA006686 for chemical analysis; Sediment Moisture(%):19.5/19.9; Ignition Loss(%)0.9/0.8"	2019/10/28	2019/12/09
PRA000099	SAA006686	ST024				KyotoCity_sed1-123_2017	Sediment	"River sediment"	2017	11	29				Cloudy	Asia	Japan	"Miyamae-bashi Bridge, Riv. Katsura (Kyoto City), Kyoto"	34.905		135.7125																																"20.0; 19.1; 19.5 (Each) / 18.4 (Mixed)"	"0.9; 0.9; 0.9 (Each) / 0.8 (Mixed)"									"n=3 pooled: SAA006506, SAA006507, SAA006508"	2019/12/16	2019/12/16
PRA000099	SAA006399	ST024				Osaka_sed1-1_2017	Sediment	"River sediment"	2017	11	7	2017-11-07T11:30			Fair	Asia	Japan	"Mouth of Riv. Yamato (Sakai City), Osaka"	34.60833333		135.4325														21.6	18.3								1.5		22.1	2.9	Silt	"Blackish brown"		Odorless	"Vegetative pieces"	45.5/NA	10.5/NA									"Monitoring: This sample was used as the pooled sample:SAA006687 for chemical analysis; Sediment Moisture(%):45.5/55.2; Ignition Loss(%)10.5/9.5"	2019/09/13	2019/12/09
PRA000099	SAA006400	ST024				Osaka_sed1-2_2017	Sediment	"River sediment"	2017	11	7	2017-11-07T10:50			Fair	Asia	Japan	"Mouth of Riv. Yamato (Sakai City), Osaka"	34.60833333		135.4325														20	18.5								1.5		22.3	2.5	Silt	"Blackish brown"		"Sewage odor_Faint"	"Vegetative pieces"	44.6/NA	9.0/NA									"Monitoring: This sample was used as the pooled sample:SAA006687 for chemical analysis; Sediment Moisture(%):44.6/52.6; Ignition Loss(%)9.0/7.8"	2019/09/13	2019/12/09
PRA000099	SAA006401	ST024				Osaka_sed1-3_2017	Sediment	"River sediment"	2017	11	7	2017-11-07T11:59			Fair	Asia	Japan	"Mouth of Riv. Yamato (Sakai City), Osaka"	34.60833333		135.4325														21	18.3								1.5		22.3	2	Silt	"Blackish brown"		Odorless	"Vegetative pieces"	45.3/NA	11.1/NA									"Monitoring: This sample was used as the pooled sample:SAA006687 for chemical analysis; Sediment Moisture(%):45.3/57.1; Ignition Loss(%)11.1/9.4"	2019/09/13	2019/12/09
PRA000099	SAA006687	ST024				Osaka_sed1-123_2017	Sediment	"River sediment"	2017	11	7				Fair	Asia	Japan	"Mouth of Riv. Yamato (Sakai City), Osaka"	34.60833333		135.4325																																"45.5; 44.6; 45.3 (Each) / 55.1 (Mixed)"	"10.5; 9.0; 11.1 (Each) / 8.9 (Mixed)"									"n=3 pooled: SAA006399, SAA006400, SAA006401"	2019/12/16	2019/12/16
PRA000099	SAA006688	ST024				OsakaCity_sed2-1_2017	Sediment	"River sediment"	2017	12	5	2017-12-05T09:36			Cloudy	Asia	Japan	"Kema-bashi Bridge, Riv. Oh (Osaka City), Osaka"	34.717760		135.519610														9	11										11.2	2.8	Sludge	"Grayish brown"		Odorless	"Clams; Mud snails"	42.8/56.7	7.6/8.8									"This sample was used as the pooled sample:SAA006691 for chemical analysis"	2019/12/16	2019/12/16
PRA000099	SAA006689	ST024				OsakaCity_sed2-2_2017	Sediment	"River sediment"	2017	12	5	2017-12-05T10:52			Fair	Asia	Japan	"Kema-bashi Bridge, Riv. Oh (Osaka City), Osaka"	34.717760		135.519610														10	11.4										11.4	2.2	Sludge	"Grayish brown"		"Sewage odor_Faint"	"Mud snails"	49.2/60.0	9.4/10.3									"This sample was used as the pooled sample:SAA006691 for chemical analysis"	2019/12/16	2019/12/16
PRA000099	SAA006690	ST024				OsakaCity_sed2-3_2017	Sediment	"River sediment"	2017	12	5	2017-12-05T10:15			Cloudy	Asia	Japan	"Kema-bashi Bridge, Riv. Oh (Osaka City), Osaka"	34.717760		135.519610														8.6	11										11.4	3.7	Sludge	"Grayish brown"		"Sewage odor_Faint"	"Clams; Mud snails"	51.5/59.8	9.7/9.9									"This sample was used as the pooled sample:SAA006691 for chemical analysis"	2019/12/16	2019/12/16
PRA000099	SAA006691	ST024				OsakaCity_sed2-123_2017	Sediment	"River sediment"	2017	12	5				"Cloudy & Fair"	Asia	Japan	"Kema-bashi Bridge, Riv. Oh (Osaka City), Osaka"	34.717760		135.519610																																"42.8; 49.2; 51.5 (Each) / 58.7 (Mixed)"	"7.6; 9.4; 9.7 (Each) / 9.8 (Mixed)"									"n=3 pooled: SAA006688, SAA006689, SAA006690"	2019/12/16	2019/12/16
PRA000099	SAA006692	ST024				OsakaCity_sed3-1_2017	Sediment	"River sediment"	2017	12	20	2017-12-20T10:46			Fair	Asia	Japan	"Mouth of Riv. Yodo, Osaka"	34.67638889		135.3975														12.5	11								3.6		13.2	6.6	Sludge	Black		Odorless	"Vegetative pieces"	44.2/54.9	9.0/8.8									"This sample was used as the pooled sample:SAA006695 for chemical analysis"	2019/12/16	2019/12/16
PRA000099	SAA006693	ST024				OsakaCity_sed3-2_2017	Sediment	"River sediment"	2017	12	20	2017-12-20T10:36			Fair	Asia	Japan	"Mouth of Riv. Yodo, Osaka"	34.67638889		135.3975														12	12.2								4.6		12.7	5.3	Sludge	"Grayish black"		Odorless	"Vegetative pieces"	39.8/52.6	7.6/8.2									"This sample was used as the pooled sample:SAA006695 for chemical analysis"	2019/12/16	2019/12/16
PRA000099	SAA006694	ST024				OsakaCity_sed3-3_2017	Sediment	"River sediment"	2017	12	20	2017-12-20T10:22			Fair	Asia	Japan	"Mouth of Riv. Yodo, Osaka"	34.67638889		135.3975														13.3	11.4								4.4		13	4.4	Sludge	"Grayish black"		Odorless	"Vegetative pieces"	36.2/48.2	6.7/6.8									"This sample was used as the pooled sample:SAA006695 for chemical analysis"	2019/12/16	2019/12/16
PRA000099	SAA006695	ST024				OsakaCity_sed3-123_2017	Sediment	"River sediment"	2017	12	20				Fair	Asia	Japan	"Mouth of Riv. Yodo, Osaka"	34.67638889		135.3975																																"44.2; 39.8; 36.2 (Each) / 51.5 (Mixed)"	"9.0; 7.6; 6.7 (Each) / 7.9 (Mixed)"									"n=3 pooled: SAA006692, SAA006693, SAA006694"	2019/12/16	2019/12/16
PRA000099	SAA006509	ST023				OsakaCity_sed1-1_2017	Sediment	"Marine sediment"	2017	12	20	2017-12-20T09:03			Fair	Asia	Japan	"Osaka Port, Osaka"	34.65861111		135.4313889														8.6	9.6								3.6		12	12.6	Sludge	"Grayish black_light"		"Hydrogen sulfide odor"	None	58.0/NA	11.0/NA									"Monitoring: This sample was used as the pooled sample:SAA006696 for chemical analysis; Sediment Moisture(%):57.9/68.2; Ignition Loss(%)11.1/10.5"	2019/10/28	2019/12/09
PRA000099	SAA006510	ST023				OsakaCity_sed1-2_2017	Sediment	"Marine sediment"	2017	12	20	2017-12-20T08:10			Fair	Asia	Japan	"Osaka Port, Osaka"	34.65861111		135.4313889														8	9.2								3.5		14	12.6	Sludge	"Grayish black"		"Hydrogen sulfide odor"	None	57.0/NA	11.0/NA									"Monitoring: This sample was used as the pooled sample:SAA006696 for chemical analysis; Sediment Moisture(%):57.4/70.3; Ignition Loss(%)10.5/10.7"	2019/10/28	2019/12/09
PRA000099	SAA006511	ST023				OsakaCity_sed1-3_2017	Sediment	"Marine sediment"	2017	12	20	2017-12-20T08:46			Fair	Asia	Japan	"Osaka Port, Osaka"	34.65861111		135.4313889														11	11								3.8		12	12.7	Sludge	"Grayish black_light"		"Hydrogen sulfide odor"	None	61.0/NA	11.0/NA									"Monitoring: This sample was used as the pooled sample:SAA006696 for chemical analysis; Sediment Moisture(%):60.5/69.2; Ignition Loss(%)10.9/10.4"	2019/10/28	2019/12/09
PRA000099	SAA006696	ST023				OsakaCity_sed1-123_2017	Sediment	"Marine sediment"	2017	12	20				Fair	Asia	Japan	"Osaka Port, Osaka"	34.65861111		135.4313889																																"57.9; 57.4; 60.5 (Each) / 69.2 (Mixed)"	"11.1; 10.5; 10.9 (Each) / 10.5 (Mixed)"									"n=3 pooled: SAA006509, SAA006510, SAA006511"	2019/12/16	2019/12/16
PRA000099	SAA006697	ST023				OsakaCity_sed4-1_2017	Sediment	"Marine sediment"	2017	12	20	2017-12-20T09:29			Fair	Asia	Japan	"Outside of Osaka Port, Osaka"	34.64027778		135.3858333														10.7	10								4.6		14.2	16.9	Sludge	Gray		"Hydrogen sulfide odor"	None	54.8/67.6	9.4/8.6									"This sample was used as the pooled sample:SAA006700 for chemical analysis"	2019/12/16	2019/12/16
PRA000099	SAA006698	ST023				OsakaCity_sed4-2_2017	Sediment	"Marine sediment"	2017	12	20	2017-12-20T09:45			Fair	Asia	Japan	"Outside of Osaka Port, Osaka"	34.64027778		135.3858333														9.4	11.4								6		13	12	Sludge	Gray		Odorless	None	45.5/58.9	6.7/6.5									"This sample was used as the pooled sample:SAA006700 for chemical analysis"	2019/12/16	2019/12/16
PRA000099	SAA006699	ST023				OsakaCity_sed4-3_2017	Sediment	"Marine sediment"	2017	12	20	2017-12-20T09:58			Fair	Asia	Japan	"Outside of Osaka Port, Osaka"	34.64027778		135.3858333														13.3	11.8								5.5		13.6	12.6	Sludge	Gray		"Hydrogen sulfide odor"	None	54.8/62.2	9.1/7.3									"This sample was used as the pooled sample:SAA006700 for chemical analysis"	2019/12/16	2019/12/16
PRA000099	SAA006700	ST023				OsakaCity_sed4-123_2017	Sediment	"Marine sediment"	2017	12	20				Fair	Asia	Japan	"Outside of Osaka Port, Osaka"	34.64027778		135.3858333																																"54.8; 45.5; 54.8 (Each)/ 61.6 (Mixed)"	"9.4; 6.7; 9.1 (Each) / 7.1 (Mixed)"									"n=3 pooled: SAA006697, SAA006698, SAA006699"	2019/12/16	2019/12/16
PRA000099	SAA006515	ST023				Hyogo_sed1-1_2017	Sediment	"Marine sediment"	2017	10	11	2017-10-11T10:27			Cloudy	Asia	Japan	"Offshore of Himeji, Hyogo"	34.76194444		134.6697222														25.4	25.5								5.1		17	9	"Silt clay"	"Grayish green"		"Hydrogen sulfide odor_Faint"	None											"Monitoring: This sample was used as the pooled sample:SAA006701 for chemical analysis; Sediment Moisture(%):NA/71.1; Ignition Loss(%)NA/10.1"	2019/10/28	2019/12/09
PRA000099	SAA006516	ST023				Hyogo_sed1-2_2017	Sediment	"Marine sediment"	2017	10	11	2017-10-11T11:02			Cloudy	Asia	Japan	"Offshore of Himeji, Hyogo"	34.76194444		134.6697222														25.7	25.6								3.5		16	10	"Silt clay"	"Grayish green"		"Hydrogen sulfide odor_Faint"	None											"Monitoring: This sample was used as the pooled sample:SAA006701 for chemical analysis; Sediment Moisture(%):NA/71.4; Ignition Loss(%)NA/10.0"	2019/10/28	2019/12/09
PRA000099	SAA006517	ST023				Hyogo_sed1-3_2017	Sediment	"Marine sediment"	2017	10	11	2017-10-11T11:19			Fair	Asia	Japan	"Offshore of Himeji, Hyogo"	34.76194444		134.6697222														25.9	25.4								3.9		16	11	"Silt clay"	"Grayish green"		"Hydrogen sulfide odor_Faint"	None											"Monitoring: This sample was used as the pooled sample:SAA006701 for chemical analysis; Sediment Moisture(%):NA/70.2; Ignition Loss(%)NA/9.5"	2019/10/28	2019/12/09
PRA000099	SAA006701	ST023				Hyogo_sed1-123_2017	Sediment	"Marine sediment"	2017	10	11				"Cloudy & Fair"	Asia	Japan	"Offshore of Himeji, Hyogo"	34.76194444		134.6697222																																"NA (Each) / 70.9 (Mixed)"	"NA (Each) / 9.8 (Mixed)"									"n=3 pooled: SAA006515, SAA006516, SAA006517"	2019/12/16	2019/12/16
PRA000099	SAA006402	ST023				Hyogo_sed2-1_2017	Sediment	"Marine sediment"	2017	11	1	2017-11-01T10:16			Fair	Asia	Japan	"Center of Kobe Port, Hyogo"	34.66444444		135.1944444														17	18.5								2.5		21.3	10.5	Silt	"Grayish black"		"Hydrogen sulfide odor"	None	53.3/NA	8.8/NA									"Monitoring: This sample was used as the pooled sample:SAA006702 for chemical analysis; Sediment Moisture(%):53.3/63.8; Ignition Loss(%)8.8/8.0"	2019/09/13	2019/12/09
PRA000099	SAA006403	ST023				Hyogo_sed2-2_2017	Sediment	"Marine sediment"	2017	11	1	2017-11-01T11:05			Fair	Asia	Japan	"Center of Kobe Port, Hyogo"	34.66444444		135.1944444														18.3	18.8								2.5		21.3	10.3	Silt	"Grayish black"		"Hydrogen sulfide odor"	None	50.0/NA	8.9/NA									"Monitoring: This sample was used as the pooled sample:SAA006702 for chemical analysis; Sediment Moisture(%):50.0/56.8; Ignition Loss(%)8.9/7.4"	2019/09/13	2019/12/09
PRA000099	SAA006404	ST023				Hyogo_sed2-3_2017	Sediment	"Marine sediment"	2017	11	1	2017-11-01T11:25			Fair	Asia	Japan	"Center of Kobe Port, Hyogo"	34.66444444		135.1944444														19.2	18.8								2.5		21	13.1	Silt	"Grayish black"		"Hydrogen sulfide odor"	None	58.3/NA	10.0/NA									"Monitoring: This sample was used as the pooled sample:SAA006702 for chemical analysis; Sediment Moisture(%):58.3/69.3; Ignition Loss(%)10.0/9.0"	2019/09/13	2019/12/09
PRA000099	SAA006702	ST023				Hyogo_sed2-123_2017	Sediment	"Marine sediment"	2017	11	1				Fair	Asia	Japan	"Center of Kobe Port, Hyogo"	34.66444444		135.1944444																																"53.3; 50.0; 58.3 (Each) / 63.4 (Mixed)"	"8.8; 8.9; 10.0 (Each) / 8.1 (Mixed)"									"n=3 pooled: SAA006402, SAA006403, SAA006404"	2019/12/16	2019/12/16
PRA000099	SAA006518	ST024				Nara_sed1_1_2017	Sediment	"River sediment"	2017	10	12	2017-10-12T10:15			Rain	Asia	Japan	"Taisho-bashi Bridge, Riv. Yamato (Oji town), Nara"	34.58583333		135.6833333														21	22.5										22	0.3	Muddy	"Grayish brown_dark"		"Earthy odor_Faint"	None	27.0/NA	1.6/NA									"Monitoring: This sample was used as the pooled sample:SAA006703 for chemical analysis; Sediment Moisture(%):27.0/28.4; Ignition Loss(%)1.6/1.5"	2019/10/28	2019/12/09
PRA000099	SAA006519	ST024				Nara_sed1_2_2017	Sediment	"River sediment"	2017	10	12	2017-10-12T10:15			Rain	Asia	Japan	"Taisho-bashi Bridge, Riv. Yamato (Oji town), Nara"	34.58583333		135.6833333														21	22.5										22	0.3	Sandy	"Grayish yellow brown"		"Earthy odor_Faint"	None	9.8/NA	0.5/NA									"Monitoring: This sample was used as the pooled sample:SAA006703 for chemical analysis; Sediment Moisture(%):9.8/19.8; Ignition Loss(%)0.5/0.4"	2019/10/28	2019/12/09
PRA000099	SAA006520	ST024				Nara_sed1_3_2017	Sediment	"River sediment"	2017	10	12	2017-10-12T10:25			Rain	Asia	Japan	"Taisho-bashi Bridge, Riv. Yamato (Oji town), Nara"	34.58583333		135.6833333														21	22										22	0.3	Sandy	"Grayish yellow brown"		"Earthy odor_Faint"	None	10.0/NA	0.6/NA									"Monitoring: This sample was used as the pooled sample:SAA006703 for chemical analysis; Sediment Moisture(%):10.0/9.9; Ignition Loss(%)0.6/0.5"	2019/10/28	2019/12/09
PRA000099	SAA006703	ST024				Nara_sed1_123_2017	Sediment	"River sediment"	2017	10	12				Rain	Asia	Japan	"Taisho-bashi Bridge, Riv. Yamato (Oji town), Nara"	34.58583333		135.6833333																																"27.0; 9.8; 10.0 (Each) / 17.6 (Mixed)"	"1.6; 0.5; 0.6 (Each) / 0.8 (Mixed)"									"n=3 pooled: SAA006518, SAA006519, SAA006520"	2019/12/16	2019/12/16
PRA000099	SAA006405	ST024				Wakayama_sed1-1_2017	Sediment	"River sediment"	2017	11	7	2017-11-07T11:58			Fair	Asia	Japan	"Kinokawa-ohashi Bridge, Mouth of Riv. Kinokawa (Wakayama City), Wakayama"	34.23		135.1561111														23.3	17.5								1.5		23.7	3	Sandy	Gray		"Seaweed odor"	Pebble	20.0/NA	1.43/NA									"Monitoring: This sample was used as the pooled sample:SAA006704 for chemical analysis; Sediment Moisture(%):20.0/16.7; Ignition Loss(%)1.4/1.2"	2019/09/13	2019/12/09
PRA000099	SAA006407	ST024				Wakayama_sed1-3_2017	Sediment	"River sediment"	2017	11	7	2017-11-07T12:39			Cloudy	Asia	Japan	"Kinokawa-ohashi Bridge, Mouth of Riv. Kinokawa (Wakayama City), Wakayama"	34.23		135.1561111														22.2	18								1.2		21.1	4.2	Sandy	Gray		"Seaweed odor"	Pebble	20.3/NA	1.46/NA									"Monitoring: This sample was used as the pooled sample:SAA006704 for chemical analysis; Sediment Moisture(%):20.3/19.8; Ignition Loss(%)1.5/1.1"	2019/09/13	2019/12/09
PRA000099	SAA006406	ST024				Wakayama_sed1-2_2017	Sediment	"River sediment"	2017	11	7	2017-11-07T12:56			Cloudy	Asia	Japan	"Kinokawa-ohashi Bridge, Mouth of Riv. Kinokawa (Wakayama City), Wakayama"	34.23		135.1561111														21.7	18								1.2		21.2	3.2	Muddy	Gray		"Seaweed odor"	Pebble	18.4/NA	2.37/NA									"Monitoring: This sample was used as the pooled sample:SAA006704 for chemical analysis; Sediment Moisture(%):18.4/19.1; Ignition Loss(%)2.4/2.0"	2019/09/13	2019/12/09
PRA000099	SAA006704	ST024				Wakayama_sed1-123_2017	Sediment	"River sediment"	2017	11	7				"Fair & Cloudy"	Asia	Japan	"Kinokawa-ohashi Bridge, Mouth of Riv. Kinokawa (Wakayama City), Wakayama"	34.23		135.1561111																																"20.0; 20.3; 18.4 (Each) / 18.3 (Mixed)"	"1.4; 1.5; 2.4 (Each) / 1.6 (Mixed)"									"n=3 pooled: SAA006405, SAA006407, SAA006406"	2019/12/16	2019/12/16
PRA000099	SAA006524	ST023				Okayama_sed1-1_2017	Sediment	"Marine sediment"	2017	10	31	2017-10-31T10:45			Fair	Asia	Japan	"Offshore of Mizushima, Okayama"	34.48055556		133.665														18.8	19.5								2.3		15	10.5	"Soft mud"	"Grayish green"		"Earthy odor"	"Small pieces of shell"	45.0/NA	6.1/NA									"Monitoring: This sample was used as the pooled sample:SAA006705 for chemical analysis; Sediment Moisture(%):45.3/43.1; Ignition Loss(%)6.1/4.8"	2019/10/28	2019/12/09
PRA000099	SAA006525	ST023				Okayama_sed1-2_2017	Sediment	"Marine sediment"	2017	10	31	2017-10-31T11:19			Fair	Asia	Japan	"Offshore of Mizushima, Okayama"	34.48055556		133.665														19.1	19.4								2.3		20	8.5	"Soft mud"	"Grayish green"		"Earthy odor"	"Small pieces of shell"	51.0/NA	7.0/NA									"Monitoring: This sample was used as the pooled sample:SAA006705 for chemical analysis; Sediment Moisture(%):51.0/49.5; Ignition Loss(%)7.0/5.8"	2019/10/28	2019/12/09
PRA000099	SAA006526	ST023				Okayama_sed1-3_2017	Sediment	"Marine sediment"	2017	10	31	2017-10-31T11:30			Fair	Asia	Japan	"Offshore of Mizushima, Okayama"	34.48055556		133.665														19.1	19.8								2.3		20	10.5	"Soft mud"	"Grayish green"		"Earthy odor"	"Small pieces of shell"	44.0/NA	5.8/NA									"Monitoring: This sample was used as the pooled sample:SAA006705 for chemical analysis; Sediment Moisture(%):44.0/42.6; Ignition Loss(%)5.8/4.8"	2019/10/28	2019/12/09
PRA000099	SAA006705	ST023				Okayama_sed1-123_2017	Sediment	"Marine sediment"	2017	10	31				Fair	Asia	Japan	"Offshore of Mizushima, Okayama"	34.48055556		133.665																																"45.3; 51.0; 44.0 (Each) / 45.3 (Mixed)"	"6.1; 7.0; 5.8 (Each) / 5.4 (Mixed)"									"n=3 pooled: SAA006524, SAA006525, SAA006526"	2019/12/16	2019/12/16
PRA000099	SAA006706	ST023				Hiroshima_sed1-1_2017	Sediment	"Marine sediment"	2017	11	8	2017-11-08T09:45			Cloudy	Asia	Japan	"Kure Port, Hiroshima"	34.23361111		132.5391667														18.2	20.4								6		21	20	Silt	"Grayish green"		Odorless	None	62.0/71.8	10.5/10.7									"This sample was used as the pooled sample:SAA006709 for chemical analysis"	2019/12/16	2019/12/16
PRA000099	SAA006707	ST023				Hiroshima_sed1-2_2017	Sediment	"Marine sediment"	2017	11	8	2017-11-08T10:13			Cloudy	Asia	Japan	"Kure Port, Hiroshima"	34.23361111		132.5391667														18.2	20.4								5		21.2	18	Silt	"Grayish green"		"Hydrogen sulfide odor"	None	62.6/73.1	10.5/11.2									"This sample was used as the pooled sample:SAA006709 for chemical analysis"	2019/12/16	2019/12/16
PRA000099	SAA006708	ST023				Hiroshima_sed1-3_2017	Sediment	"Marine sediment"	2017	11	8	2017-11-08T10:26			Cloudy	Asia	Japan	"Kure Port, Hiroshima"	34.23361111		132.5391667														18.5	20.4								4.5		21.2	20	Silt	"Grayish green"		"Hydrogen sulfide odor"	None	52.5/63.3	7.2/8.1									"This sample was used as the pooled sample:SAA006709 for chemical analysis"	2019/12/16	2019/12/16
PRA000099	SAA006709	ST023				Hiroshima_sed1-123_2017	Sediment	"Marine sediment"	2017	11	8				Cloudy	Asia	Japan	"Kure Port, Hiroshima"	34.23361111		132.5391667																																"62.0; 62.6; 52.5 (Each) / 70.0 (Mixed)"	"10.5; 10.5; 7.2 (Each) / 9.8 (Mixed)"									"n=3 pooled: SAA006706, SAA006707, SAA006708"	2019/12/16	2019/12/16
PRA000099	SAA006710	ST023				Hiroshima_sed2-1_2017	Sediment	"Marine sediment"	2017	11	8	2017-11-08T12:15			Rain	Asia	Japan	"Hiroshima Bay (Hiroshima City), Hiroshima"	34.34833333		132.4225														20.2	18.7								3		21	16	Silt	"Grayish brown"		Odorless	None	59.5/69.4	10.6/11.0									"This sample was used as the pooled sample:SAA006713 for chemical analysis"	2019/12/16	2019/12/16
PRA000099	SAA006711	ST023				Hiroshima_sed2-2_2017	Sediment	"Marine sediment"	2017	11	8	2017-11-08T12:35			Rain	Asia	Japan	"Hiroshima Bay (Hiroshima City), Hiroshima"	34.34833333		132.4225														20.2	18.9								3		20.9	14	Silt	"Grayish brown"		Odorless	None	58.9/69.5	10.7/10.7									"This sample was used as the pooled sample:SAA006713 for chemical analysis"	2019/12/16	2019/12/16
PRA000099	SAA006712	ST023				Hiroshima_sed2-3_2017	Sediment	"Marine sediment"	2017	11	8	2017-11-08T12:43			Cloudy	Asia	Japan	"Hiroshima Bay (Hiroshima City), Hiroshima"	34.34833333		132.4225														18	18.9								3		20.9	13	Silt	"Dark gray"		Odorless	None	58.9/69.4	10.8/11.5									"This sample was used as the pooled sample:SAA006713 for chemical analysis"	2019/12/16	2019/12/16
PRA000099	SAA006713	ST023				Hiroshima_sed2-123_2017	Sediment	"Marine sediment"	2017	11	8				"Rain & Cloudy"	Asia	Japan	"Hiroshima Bay (Hiroshima City), Hiroshima"	34.34833333		132.4225																																"59.5; 58.9; 58.9 (Each) / 69.5 (Mixed)"	"10.6; 10.7; 10.8 (Each) / 11.3 (Mixed)"									"n=3 pooled: SAA006710, SAA006711, SAA006712"	2019/12/16	2019/12/16
PRA000099	SAA006714	ST023				Yamaguchi_sed1-1_2017	Sediment	"Marine sediment"	2017	10	5	2017-10-05T11:01			Fair	Asia	Japan	"Tokuyama Bay, Yamaguchi"	33.99361111		131.7505556														22	23								5.5		23.5	23.8	Silt	"Grayish yellow green"		"Hydrogen sulfide odor"	None	64.1/67.2	10.1/7.9									"This sample was used as the pooled sample:SAA006717 for chemical analysis"	2019/12/16	2019/12/16
PRA000099	SAA006715	ST023				Yamaguchi_sed1-2_2017	Sediment	"Marine sediment"	2017	10	5	2017-10-05T11:10			Fair	Asia	Japan	"Tokuyama Bay, Yamaguchi"	33.99361111		131.7505556														22	23								5.5		23.5	23.8	Silt	"Grayish yellow green"		"Hydrogen sulfide odor"	None	62.6/67.4	10.0/8.3									"This sample was used as the pooled sample:SAA006717 for chemical analysis"	2019/12/16	2019/12/16
PRA000099	SAA006716	ST023				Yamaguchi_sed1-3_2017	Sediment	"Marine sediment"	2017	10	5	2017-10-05T11:25			Fair	Asia	Japan	"Tokuyama Bay, Yamaguchi"	33.99361111		131.7505556														22	23								5.5		23.5	23.8	Silt	"Grayish yellow green"		"Hydrogen sulfide odor"	None	62.2/66.2	10.1/8.1									"This sample was used as the pooled sample:SAA006717 for chemical analysis"	2019/12/16	2019/12/16
PRA000099	SAA006717	ST023				Yamaguchi_sed1-123_2017	Sediment	"Marine sediment"	2017	10	5				Fair	Asia	Japan	"Tokuyama Bay, Yamaguchi"	33.99361111		131.7505556																																"64.1; 62.6; 62.2 (Each) / 66.9 (Mixed)"	"10.1; 10.0; 10.1 (Each) / 8.0 (Mixed)"									"n=3 pooled: SAA006714, SAA006715, SAA006716"	2019/12/16	2019/12/16
PRA000099	SAA006718	ST023				Yamaguchi_sed2-1_2017	Sediment	"Marine sediment"	2017	10	13	2017-10-13T11:55			Cloudy	Asia	Japan	"Offshore of Ube, Yamaguchi"	33.915		131.1975														21.9	21.5								4		22.5	9.8	Silt	"Grayish green"		Odorless	None	31.0/43.2	7.3/5.6									"This sample was used as the pooled sample:SAA006721 for chemical analysis"	2019/12/16	2019/12/16
PRA000099	SAA006719	ST023				Yamaguchi_sed2-2_2017	Sediment	"Marine sediment"	2017	10	13	2017-10-13T12:05			Cloudy	Asia	Japan	"Offshore of Ube, Yamaguchi"	33.915		131.1975														21.9	21.5								4		22.5	9.8	Silt	"Grayish green"		Odorless	None	30.1/43.9	7.3/5.4									"This sample was used as the pooled sample:SAA006721 for chemical analysis"	2019/12/16	2019/12/16
PRA000099	SAA006720	ST023				Yamaguchi_sed2-3_2017	Sediment	"Marine sediment"	2017	10	13	2017-10-13T12:15			Cloudy	Asia	Japan	"Offshore of Ube, Yamaguchi"	33.915		131.1975														21.9	21.5								4		22.5	9.8	Silt	"Grayish green"		Odorless	None	30.0/44.2	7.3/5.5									"This sample was used as the pooled sample:SAA006721 for chemical analysis"	2019/12/16	2019/12/16
PRA000099	SAA006721	ST023				Yamaguchi_sed2-123_2017	Sediment	"Marine sediment"	2017	10	13				Cloudy	Asia	Japan	"Offshore of Ube, Yamaguchi"	33.915		131.1975																																"31.0; 30.1; 30.0 (Each) / 43.6 (Mixed)"	"7.3; 7.3; 7.3 (Each) / 5.6 (Mixed)"									"n=3 pooled: SAA006718, SAA006719, SAA006720"	2019/12/16	2019/12/16
PRA000099	SAA006527	ST023				Yamaguchi_sed3-1_2017	Sediment	"Marine sediment"	2017	11	10	2017-11-10T10:17			Fair	Asia	Japan	"Offshore of Hagi, Yamaguchi"	34.43805556		131.3794444														15	20								9.5		18	26.4	"Fine sand"	"Light gray"		Odorless	None	36.0/NA	5.8/NA									"Monitoring: This sample was used as the pooled sample:SAA006722 for chemical analysis; Sediment Moisture(%):35.7/33.4; Ignition Loss(%)5.8/5.1"	2019/10/28	2019/12/09
PRA000099	SAA006528	ST023				Yamaguchi_sed3-2_2017	Sediment	"Marine sediment"	2017	11	10	2017-11-10T10:28			Fair	Asia	Japan	"Offshore of Hagi, Yamaguchi"	34.43805556		131.3794444														15	20								9.5		18	26.4	"Fine sand"	"Light gray"		Odorless	None	34.0/NA	5.8/NA									"Monitoring: This sample was used as the pooled sample:SAA006722 for chemical analysis; Sediment Moisture(%):34.2/33.5; Ignition Loss(%)5.8/5.0"	2019/10/28	2019/12/09
PRA000099	SAA006529	ST023				Yamaguchi_sed3-3_2017	Sediment	"Marine sediment"	2017	11	10	2017-11-10T10:38			Fair	Asia	Japan	"Offshore of Hagi, Yamaguchi"	34.43805556		131.3794444														15	20								9.5		18	26.4	"Fine sand"	"Light gray"		Odorless	None	34.0/NA	5.7/NA									"Monitoring: This sample was used as the pooled sample:SAA006722 for chemical analysis; Sediment Moisture(%):33.7/32.7; Ignition Loss(%)5.7/5.3"	2019/10/28	2019/12/09
PRA000099	SAA006722	ST023				Yamaguchi_sed3-123_2017	Sediment	"Marine sediment"	2017	11	10				Fair	Asia	Japan	"Offshore of Hagi, Yamaguchi"	34.43805556		131.3794444																																"35.7; 34.2; 33.7 (Each) / 33.2 (Mixed)"	"5.8; 5.8; 5.7 (Each) / 5.2 (Mixed)"									"n=3 pooled: SAA006527, SAA006528, SAA006529"	2019/12/16	2019/12/16
PRA000099	SAA006723	ST024				Tokushima_sed1-1_2017	Sediment	"River sediment"	2017	11	2	2017-11-02T09:12			Fair	Asia	Japan	"Mouth of Riv. Yoshino (Tokushima City), Tokushima"	34.085		134.5913889														14	14.8								2		17.8	5.6	Sandy	"Grayish black"		Odorless	None	12.0/20.1	1.0/0.9									"This sample was used as the pooled sample:SAA006726 for chemical analysis"	2019/12/16	2019/12/16
PRA000099	SAA006724	ST024				Tokushima_sed1-2_2017	Sediment	"River sediment"	2017	11	2	2017-11-02T08:50			Fair	Asia	Japan	"Mouth of Riv. Yoshino (Tokushima City), Tokushima"	34.085		134.5913889														13.7	15.1								2		18.4	4.9	Sandy	"Grayish black"		Odorless	None	16.0/21.6	1.0/0.9									"This sample was used as the pooled sample:SAA006726 for chemical analysis"	2019/12/16	2019/12/16
PRA000099	SAA006725	ST024				Tokushima_sed1-3_2017	Sediment	"River sediment"	2017	11	2	2017-11-02T09:43			Fair	Asia	Japan	"Mouth of Riv. Yoshino (Tokushima City), Tokushima"	34.085		134.5913889														14.9	15.2								2		19.2	6.4	Clay	"Grayish black"		Odorless	None	36.0/35.9	4.8/4.2									"This sample was used as the pooled sample:SAA006726 for chemical analysis"	2019/12/16	2019/12/16
PRA000099	SAA006726	ST024				Tokushima_sed1-123_2017	Sediment	"River sediment"	2017	11	2				Fair	Asia	Japan	"Mouth of Riv. Yoshino (Tokushima City), Tokushima"	34.085		134.5913889																																"12.0; 16.0; 36.0 (Each) / 23.9 (Mixed)"	"1.0; 1.0; 4.8 (Each) / 1.9 (Mixed)"									"n=3 pooled: SAA006723, SAA006724, SAA006725"	2019/12/16	2019/12/16
PRA000099	SAA006411	ST023				Kagawa_sed1-1_2017	Sediment	"Marine sediment"	2017	10	4	2017-10-04T09:10			Fair	Asia	Japan	"Takamatsu Port, Kagawa"	34.34972222		134.0788889														19.4	21.2								0.5		24.6	2.5	Muddy	Black		"Hydrogen sulfide odor"	"Shell (Oyster, etc); Vegetative pieces (Eel grass, Leaf, pieces of straw, etc); Plastic bags; Pieces of vinyl"	28.4/NA	4.9/NA									"Monitoring: This sample was used as the pooled sample:SAA006727 for chemical analysis; Sediment Moisture(%):28.4/51.9; Ignition Loss(%)4.9/7.6"	2019/09/13	2019/12/09
PRA000099	SAA006412	ST023				Kagawa_sed1-2_2017	Sediment	"Marine sediment"	2017	10	4	2017-10-04T09:30			Fair	Asia	Japan	"Takamatsu Port, Kagawa"	34.34972222		134.0788889														21	22.2								0.6		24.4	6	Muddy	Black		"Hydrogen sulfide odor"	"Shell; Vegetative pieces (Eel grass, Leaf, pieces of straw, etc); Pieces of vinyl"	43.9/NA	9.6/NA									"Monitoring: This sample was used as the pooled sample:SAA006727 for chemical analysis; Sediment Moisture(%):43.9/63.8; Ignition Loss(%)9.6/10.3"	2019/09/13	2019/12/09
PRA000099	SAA006413	ST023				Kagawa_sed1-3_2017	Sediment	"Marine sediment"	2017	10	4	2017-10-04T09:50			Fair	Asia	Japan	"Takamatsu Port, Kagawa"	34.34972222		134.0788889														19.7	22								1		24	5.5	Muddy	Black		"Hydrogen sulfide odor"	"Shell; Vegetative pieces (Leaf, pieces of straw, etc); Clam"	47.2/NA	10.2/NA									"Monitoring: This sample was used as the pooled sample:SAA006727 for chemical analysis; Sediment Moisture(%):47.2/64.8; Ignition Loss(%)10.2/11.0"	2019/09/13	2019/12/09
PRA000099	SAA006727	ST023				Kagawa_sed1-123_2017	Sediment	"Marine sediment"	2017	10	4				Fair	Asia	Japan	"Takamatsu Port, Kagawa"	34.34972222		134.0788889																																"28.4; 43.9; 47.2 (Each) / 59.9 (Mixed)"	"4.9; 9.6; 10.2 (Each) / 9.4 (Mixed)"									"n=3 pooled: SAA006411, SAA006412, SAA006413"	2019/12/16	2019/12/16
PRA000099	SAA006728	ST023				Ehime_sed1-1_2017	Sediment	"Marine sediment"	2017	11	6	2017-11-06T09:56			Fair	Asia	Japan	"Niihama Port, Ehime"	33.98777778		133.3144444														21	19.8								3		19	5	Sand	"Grayish blue_Dark"		Odorless	None	22.6/22.8	1.6/1.4									"This sample was used as the pooled sample:SAA006731 for chemical analysis"	2019/12/16	2019/12/16
PRA000099	SAA006729	ST023				Ehime_sed1-2_2017	Sediment	"Marine sediment"	2017	11	6	2017-11-06T10:06			Fair	Asia	Japan	"Niihama Port, Ehime"	33.98777778		133.3144444														21	19.8								3		19	5	Sand	"Grayish blue_Dark"		Odorless	None	22.6/22.8	1.5/1.3									"This sample was used as the pooled sample:SAA006731 for chemical analysis"	2019/12/16	2019/12/16
PRA000099	SAA006730	ST023				Ehime_sed1-3_2017	Sediment	"Marine sediment"	2017	11	6	2017-11-06T10:16			Fair	Asia	Japan	"Niihama Port, Ehime"	33.98777778		133.3144444														21	19.8								3		19	5	Sand	"Grayish blue_Dark"		Odorless	None	22.8/22.3	1.5/1.4									"This sample was used as the pooled sample:SAA006731 for chemical analysis"	2019/12/16	2019/12/16
PRA000099	SAA006731	ST023				Ehime_sed1-123_2017	Sediment	"Marine sediment"	2017	11	6				Fair	Asia	Japan	"Niihama Port, Ehime"	33.98777778		133.3144444																																"22.6; 22.6; 22.8 (Each) / 21.6 (Mixed)"	"1.6; 1.5; 1.5 (Each) / 1.5 (Mixed)"									"n=3 pooled: SAA006728, SAA006729, SAA006730"	2019/12/16	2019/12/16
PRA000099	SAA006732	ST024				Kochi_sed1-1_2017	Sediment	"River sediment"	2017	11	2	2017-11-02T09:20			Fair	Asia	Japan	"Mouth of Riv. Shimanto (Shimanto City), Kochi"	32.93777778		132.8441667														21.2	16.8										22.2		Mud	"Blackish brown"		"Hydrogen sulfide odor"	None	43.7/56.7	9.3/9.3									"This sample was used as the pooled sample:SAA006735 for chemical analysis"	2019/12/16	2019/12/16
PRA000099	SAA006733	ST024				Kochi_sed1-2_2017	Sediment	"River sediment"	2017	11	2	2017-11-02T08:10			Fair	Asia	Japan	"Mouth of Riv. Shimanto (Shimanto City), Kochi"	32.93777778		132.8441667														16	16										16.5		Sandy	"Blackish gray"		Odorless	None	25.9/23.7	2.9/2.3									"This sample was used as the pooled sample:SAA006735 for chemical analysis"	2019/12/16	2019/12/16
PRA000099	SAA006734	ST024				Kochi_sed1-3_2017	Sediment	"River sediment"	2017	11	2	2017-11-02T10:49			Fair	Asia	Japan	"Mouth of Riv. Shimanto (Shimanto City), Kochi"	32.93777778		132.8441667														25.2	20										20		Sandy	"Blackish brown"		Odorless	None	22.1/21.3	2.5/2.0									"This sample was used as the pooled sample:SAA006735 for chemical analysis"	2019/12/16	2019/12/16
PRA000099	SAA006735	ST024				Kochi_sed1-123_2017	Sediment	"River sediment"	2017	11	2				Fair	Asia	Japan	"Mouth of Riv. Shimanto (Shimanto City), Kochi"	32.93777778		132.8441667																																"43.7; 25.9; 22.1 (Each) / 33.6 (Mixed)"	"9.3; 2.9; 2.5 (Each) / 3.8 (Mixed)"									"n=3 pooled: SAA006732, SAA006733, SAA006734"	2019/12/16	2019/12/16
PRA000099	SAA006414	ST023				KitakyushuCity_sed1-1_2017	Sediment	"Marine sediment"	2017	10	17	2017-10-17T10:15			Cloudy	Asia	Japan	"Dokai Bay (Kitakyushu City), Fukuoka"	33.90388889		130.8158333														18.4	21.3								3		20.9	10	Muddy	"Blackish brown"		Odorless	None	78.6/NA	7.2/NA									"Monitoring: This sample was used as the pooled sample:SAA006736 for chemical analysis; Sediment Moisture(%):78.6/33.9; Ignition Loss(%)7.2/6.0"	2019/09/13	2019/12/09
PRA000099	SAA006415	ST023				KitakyushuCity_sed1-2_2017	Sediment	"Marine sediment"	2017	10	17	2017-10-17T10:00			Cloudy	Asia	Japan	"Dokai Bay (Kitakyushu City), Fukuoka"	33.90388889		130.8158333														18.4	21.3								3		20.7	12.6	Muddy	"Blackish brown"		Odorless	None	80.4/NA	7.4/NA									"Monitoring: This sample was used as the pooled sample:SAA006736 for chemical analysis; Sediment Moisture(%):80.4/36.1; Ignition Loss(%)7.4/5.4"	2019/09/13	2019/12/09
PRA000099	SAA006416	ST023				KitakyushuCity_sed1-3_2017	Sediment	"Marine sediment"	2017	10	17	2017-10-17T09:45			Cloudy	Asia	Japan	"Dokai Bay (Kitakyushu City), Fukuoka"	33.90388889		130.8158333														18.4	21.3								3		20.8	8.2	Muddy	"Blackish brown"		Odorless	None	53.6/NA	28.9/NA									"Monitoring: This sample was used as the pooled sample:SAA006736 for chemical analysis; Sediment Moisture(%):53.6/63.1; Ignition Loss(%)28.9/12.9"	2019/09/13	2019/12/09
PRA000099	SAA006736	ST023				KitakyushuCity_sed1-123_2017	Sediment	"Marine sediment"	2017	10	17				Cloudy	Asia	Japan	"Dokai Bay (Kitakyushu City), Fukuoka"	33.90388889		130.8158333																																"78.6; 80.4; 53.6 (Each) / 43.3 (Mixed)"	"7.2; 7.4; 28.9 (Each) / 7.4 (Mixed)"									"n=3 pooled: SAA006414, SAA006415, SAA006416"	2019/12/16	2019/12/16
PRA000099	SAA006530	ST023				FukuokaCity_sed1-1_2017	Sediment	"Marine sediment"	2017	10	31	2017-10-31T08:57			Fair	Asia	Japan	"Hakata Bay, Fukuoka"	33.60833333		130.3297222														17.6	19.1								2		21	7.7	Silt	Gray		Odorless	None	41.0/NA	9.3/NA									"Monitoring: This sample was used as the pooled sample:SAA006737 for chemical analysis; Sediment Moisture(%):40.5/51.3; Ignition Loss(%)9.3/8.8"	2019/10/28	2019/12/09
PRA000099	SAA006531	ST023				FukuokaCity_sed1-2_2017	Sediment	"Marine sediment"	2017	10	31	2017-10-31T09:25			Fair	Asia	Japan	"Hakata Bay, Fukuoka"	33.60833333		130.3297222														20.2	19.1								2.2		21	7.8	Silt	"Grayish olive color"		Odorless	None	41.0/NA	9.2/NA									"Monitoring: This sample was used as the pooled sample:SAA006737 for chemical analysis; Sediment Moisture(%):40.6/51.5; Ignition Loss(%)9.2/8.7"	2019/10/28	2019/12/09
PRA000099	SAA006532	ST023				FukuokaCity_sed1-3_2017	Sediment	"Marine sediment"	2017	10	31	2017-10-31T09:39			Fair	Asia	Japan	"Hakata Bay, Fukuoka"	33.60833333		130.3297222														21.2	18.6								2.2		21	8	Silt	"Grayish olive color"		Odorless	None	39.0/NA	8.9/NA									"Monitoring: This sample was used as the pooled sample:SAA006737 for chemical analysis; Sediment Moisture(%):39.3/50.4; Ignition Loss(%)8.9/8.5"	2019/10/28	2019/12/09
PRA000099	SAA006737	ST023				FukuokaCity_sed1-123_2017	Sediment	"Marine sediment"	2017	10	31				Fair	Asia	Japan	"Hakata Bay, Fukuoka"	33.60833333		130.3297222																																"40.5; 40.6; 39.3 (Each) / 51.0 (Mixed)"	"9.3; 9.2; 8.9 (Each) / 8.7 (Mixed)"									"n=3 pooled: SAA006530, SAA006531, SAA006532"	2019/12/16	2019/12/16
PRA000099	SAA006533	ST023				Saga_sed1-1_2017	Sediment	"Marine sediment"	2017	11	1	2017-11-01T11:10			Fair	Asia	Japan	"Imari Bay, Saga"	33.34		129.8208333														16.5	17.8								2.8		21	14.2	Muddy	"Grayish black"		Odorless	None	64.0/NA	12.0/NA									"Monitoring: This sample was used as the pooled sample:SAA006738 for chemical analysis; Sediment Moisture(%):63.9/63.2; Ignition Loss(%)11.7/9.8"	2019/10/28	2019/12/09
PRA000099	SAA006534	ST023				Saga_sed1-2_2017	Sediment	"Marine sediment"	2017	11	1	2017-11-01T11:26			Fair	Asia	Japan	"Imari Bay, Saga"	33.34		129.8208333														23	19								3		21	14.3	Muddy	"Grayish black"		Odorless	None	61.0/NA	16.0/NA									"Monitoring: This sample was used as the pooled sample:SAA006738 for chemical analysis; Sediment Moisture(%):61.4/63.7; Ignition Loss(%)15.8/9.8"	2019/10/28	2019/12/09
PRA000099	SAA006535	ST023				Saga_sed1-3_2017	Sediment	"Marine sediment"	2017	11	1	2017-11-01T11:48			Fair	Asia	Japan	"Imari Bay, Saga"	33.34		129.8208333														23.5	18.4								3.3		21	14.6	Muddy	"Grayish black"		Odorless	"Aquartic plants (stringlike)"	64.0/NA	13.0/NA									"Monitoring: This sample was used as the pooled sample:SAA006738 for chemical analysis; Sediment Moisture(%):63.8/63.6; Ignition Loss(%)12.7/9.1"	2019/10/28	2019/12/09
PRA000099	SAA006738	ST023				Saga_sed1-123_2017	Sediment	"Marine sediment"	2017	11	1				Fair	Asia	Japan	"Imari Bay, Saga"	33.34		129.8208333																																"63.9; 61.4; 63.8 (Each) / 63.4 (Mixed)"	"11.7; 15.8; 12.7 (Each) / 9.8 (Mixed)"									"n=3 pooled: SAA006533, SAA006534, SAA006535"	2019/12/16	2019/12/16
PRA000099	SAA006739	ST023				Nagasaki_sed1-1_2017	Sediment	"Marine sediment"	2017	11	10	2017-11-10T10:30			Cloudy	Asia	Japan	"Omura Bay, Nagasaki"	32.98833333		129.8522222														19	20.4								5.4		21	18.9	"Silt mixed with shell"	"Grayish brown"		"Hydrogen sulfide odor_Faint"	"Small pieces of shell"	53.4/67.0	11.9/12.7									"This sample was used as the pooled sample:SAA006742 for chemical analysis"	2019/12/16	2019/12/16
PRA000099	SAA006740	ST023				Nagasaki_sed1-2_2017	Sediment	"Marine sediment"	2017	11	10	2017-11-10T10:54			Cloudy	Asia	Japan	"Omura Bay, Nagasaki"	32.98833333		129.8522222														19	20.1								5.3		20.9	19.3	"Silt mixed with shell"	"Grayish brown"		Odorless	"Small pieces of shell"	54.6/65.6	12.2/12.8									"This sample was used as the pooled sample:SAA006742 for chemical analysis"	2019/12/16	2019/12/16
PRA000099	SAA006741	ST023				Nagasaki_sed1-3_2017	Sediment	"Marine sediment"	2017	11	10	2017-11-10T11:10			Cloudy	Asia	Japan	"Omura Bay, Nagasaki"	32.98833333		129.8522222														19	20.4								5.3		20.8	19	"Silt mixed with shell"	"Grayish brown"		"Hydrogen sulfide odor_Faint"	"Small pieces of shell"	58.2/67.1	12.5/12.9									"This sample was used as the pooled sample:SAA006742 for chemical analysis"	2019/12/16	2019/12/16
PRA000099	SAA006742	ST023				Nagasaki_sed1-123_2017	Sediment	"Marine sediment"	2017	11	10				Cloudy	Asia	Japan	"Omura Bay, Nagasaki"	32.98833333		129.8522222																																"53.4; 54.6; 58.2 (Each) / 66.5 (Mixed)"	"11.9; 12.2; 12.5 (Each) / 12.9 (Mixed)"									"n=3 pooled: SAA006739, SAA006740, SAA006741"	2019/12/16	2019/12/16
PRA000099	SAA006536	ST024				Oita_sed1-1_2017	Sediment	"River sediment"	2017	11	14	2017-11-14T10:05			"Light rain"	Asia	Japan	"Mouth of Riv. Oita, Oita"	33.25722222		131.6175														15.7	15.8										19	2.8	Muddy	Black		Odorless	"Small pieces of shell; Shell; Gravels"	22.0/NA	0.8/NA									"Monitoring: This sample was used as the pooled sample:SAA006743 for chemical analysis; Sediment Moisture(%):22.4/21.0; Ignition Loss(%)0.8/0.8"	2019/10/28	2019/12/09
PRA000099	SAA006537	ST024				Oita_sed1-2_2017	Sediment	"River sediment"	2017	11	14	2017-11-14T10:30			"Light rain"	Asia	Japan	"Mouth of Riv. Oita, Oita"	33.25722222		131.6175														15.3	16.1										19	2.6	Muddy	Black		Odorless	"Small pieces of shell; Shell; Gravels"	22.0/NA	0.9/NA									"Monitoring: This sample was used as the pooled sample:SAA006743 for chemical analysis; Sediment Moisture(%):22.3/21.8; Ignition Loss(%)0.9/0.8"	2019/10/28	2019/12/09
PRA000099	SAA006538	ST024				Oita_sed1-3_2017	Sediment	"River sediment"	2017	11	14	2017-11-14T10:50			"Light rain"	Asia	Japan	"Mouth of Riv. Oita, Oita"	33.25722222		131.6175														15	16.5										19	3.1	Muddy	Black		Odorless	"Small pieces of shell; Shell; Gravels"	22.0/NA	1.5/NA									"Monitoring: This sample was used as the pooled sample:SAA006743 for chemical analysis; Sediment Moisture(%):21.6/19.5; Ignition Loss(%)1.5/1.5"	2019/10/28	2019/12/09
PRA000099	SAA006743	ST024				Oita_sed1-123_2017	Sediment	"River sediment"	2017	11	14				"Light rain"	Asia	Japan	"Mouth of Riv. Oita, Oita"	33.25722222		131.6175																																"22.4; 22.3; 21.6 (Each) / 19.5 (Mixed)"	"0.8; 0.9; 1.5 (Each) / 1.0 (Mixed)"									"n=3 pooled: SAA006536, SAA006537, SAA006538"	2019/12/16	2019/12/16
PRA000099	SAA006539	ST024				Miyazaki_sed1-1_2017	Sediment	"River sediment"	2017	10	4	2017-10-04T11:25			Fair	Asia	Japan	"Mouth of Riv. Oyodo (Miyazaki City), Miyazaki"	31.89611111		131.4402778														24.3	23										22	0.4	"Pebbles and Sand"	"Grayish black_light"		Odorless	None	20.0/NA	1.3/NA									"Monitoring: This sample was used as the pooled sample:SAA006744 for chemical analysis; Sediment Moisture(%):20.0/22.8; Ignition Loss(%)1.3/1.1"	2019/10/28	2019/12/09
PRA000099	SAA006540	ST024				Miyazaki_sed1-2_2017	Sediment	"River sediment"	2017	10	4	2017-10-04T10:45			Fair	Asia	Japan	"Mouth of Riv. Oyodo (Miyazaki City), Miyazaki"	31.89611111		131.4402778														24	22.2										22	0.2	"Pebbles and Sand"	"Grayish black_light"		Odorless	None	18.0/NA	1.4/NA									"Monitoring: This sample was used as the pooled sample:SAA006744 for chemical analysis; Sediment Moisture(%):18.0/22.0; Ignition Loss(%)1.4/1.0"	2019/10/28	2019/12/09
PRA000099	SAA006541	ST024				Miyazaki_sed1-3_2017	Sediment	"River sediment"	2017	10	4	2017-10-04T11:05			Fair	Asia	Japan	"Mouth of Riv. Oyodo (Miyazaki City), Miyazaki"	31.89611111		131.4402778														24	22										21	0.3	"Pebbles and Sand"	"Grayish black_light"		Odorless	None	17.0/NA	1.4/NA									"Monitoring: This sample was used as the pooled sample:SAA006744 for chemical analysis; Sediment Moisture(%):17.0/19.9; Ignition Loss(%)1.4/1.2"	2019/10/28	2019/12/09
PRA000099	SAA006744	ST024				Miyazaki_sed1-123_2017	Sediment	"River sediment"	2017	10	4				Fair	Asia	Japan	"Mouth of Riv. Oyodo (Miyazaki City), Miyazaki"	31.89611111		131.4402778																																"20.0; 18.0; 17.0 (Each) / 19.7 (Mixed)"	"1.3; 1.4; 1.4 (Each) / 1.1 (Mixed)"									"n=3 pooled: SAA006539, SAA006540, SAA006541"	2019/12/16	2019/12/16
PRA000099	SAA006745	ST024				Kagoshima_sed1-1_2017	Sediment	"River sediment"	2017	9	26	2017-09-26T12:31			Cloudy	Asia	Japan	"Riv. Amori (Kirishima City), Kagoshima"	31.7225		130.7416667														27.7	22.3										22.2	0.3	Gravel	"Blackish brown"		"Sewage odor_Faint"	Pebble	18.0/17.9	1.0/1.1									"This sample was used as the pooled sample:SAA006748 for chemical analysis"	2019/12/16	2019/12/16
PRA000099	SAA006746	ST024				Kagoshima_sed1-2_2017	Sediment	"River sediment"	2017	9	26	2017-09-26T10:45			Cloudy	Asia	Japan	"Riv. Amori (Kirishima City), Kagoshima"	31.7225		130.7416667														28.8	21.8										21	0.3	Gravel	"Blackish brown"		Odorless	Pebble	22.0/25.8	1.0/1.2									"This sample was used as the pooled sample:SAA006748 for chemical analysis"	2019/12/16	2019/12/16
PRA000099	SAA006747	ST024				Kagoshima_sed1-3_2017	Sediment	"River sediment"	2017	9	26	2017-09-26T09:26			Cloudy	Asia	Japan	"Riv. Amori (Kirishima City), Kagoshima"	31.7225		130.7416667														26.3	21.7										21.4	0.5	Gravel	"Blackish brown"		"Mud smell_Faint"	Pebble	20.0/23.1	0.9/1.0									"This sample was used as the pooled sample:SAA006748 for chemical analysis"	2019/12/16	2019/12/16
PRA000099	SAA006748	ST024				Kagoshima_sed1-123_2017	Sediment	"River sediment"	2017	9	26				Cloudy	Asia	Japan	"Riv. Amori (Kirishima City), Kagoshima"	31.7225		130.7416667																																"18.0; 22.0; 20.0 (Each) / 18.5 (Mixed)"	"1.0; 1.0; 0.9 (Each) / 1.0 (Mixed)"									"n=3 pooled: SAA006745, SAA006746, SAA006747"	2019/12/16	2019/12/16
PRA000099	SAA006749	ST024				Kagoshima_sed2-1_2017	Sediment	"River sediment"	2017	9	28	2017-09-28T12:00			Fair	Asia	Japan	"Gotanda-bashi Bridge, Riv. Gotanda (Ichikikushikino City), Kagoshima"	31.72583333		130.2769444														24.8	23.8										23.5	0.3	Gravel	"Blackish brown"		"Mud smell_Faint"	Pebble	22.0/25.9	1.4/1.2									"This sample was used as the pooled sample:SAA006752 for chemical analysis"	2019/12/16	2019/12/16
PRA000099	SAA006750	ST024				Kagoshima_sed2-2_2017	Sediment	"River sediment"	2017	9	28	2017-09-28T11:22			Fair	Asia	Japan	"Gotanda-bashi Bridge, Riv. Gotanda (Ichikikushikino City), Kagoshima"	31.72583333		130.2769444														26.5	23										22.9	0.3	Gravel	"Blackish brown"		"Mud smell_Faint"	Pebble	23.0/28.5	1.4/1.3									"This sample was used as the pooled sample:SAA006752 for chemical analysis"	2019/12/16	2019/12/16
PRA000099	SAA006751	ST024				Kagoshima_sed2-3_2017	Sediment	"River sediment"	2017	9	28	2017-09-28T10:26			Cloudy	Asia	Japan	"Gotanda-bashi Bridge, Riv. Gotanda (Ichikikushikino City), Kagoshima"	31.72583333		130.2769444														28.9	23.1										23.1	0.7	Gravel	"Blackish brown"		"Mud smell_Faint"	Pebble	20.0/27.8	1.7/1.7									"This sample was used as the pooled sample:SAA006752 for chemical analysis"	2019/12/16	2019/12/16
PRA000099	SAA006752	ST024				Kagoshima_sed2-123_2017	Sediment	"River sediment"	2017	9	28				"Fair & Cloudy"	Asia	Japan	"Gotanda-bashi Bridge, Riv. Gotanda (Ichikikushikino City), Kagoshima"	31.72583333		130.2769444																																"22.0; 23.0; 20.0 (Each) / 26.1 (Mixed)"	"1.4; 1.4; 1.7 (Each) / 1.4 (Mixed)"									"n=3 pooled: SAA006749, SAA006750, SAA006751"	2019/12/16	2019/12/16
PRA000099	SAA006753	ST023				Okinawa_sed1-1_2017	Sediment	"Marine sediment"	2017	10	3	2017-10-03T11:00			Fair	Asia	Japan	"Naha Port, Okinawa"	26.21222222		127.665														29	30.2								1.5			6.8	Sludge	"Grayish black"		"Hydrogen sulfide odor; Sewage odor"	"Pieces of plastic; Pieces of wood; Pieces of Coral"	33.4/50.9	7.4/9.5									"This sample was used as the pooled sample:SAA006756 for chemical analysis"	2019/12/16	2019/12/16
PRA000099	SAA006754	ST023				Okinawa_sed1-2_2017	Sediment	"Marine sediment"	2017	10	3	2017-10-03T11:40			Fair	Asia	Japan	"Naha Port, Okinawa"	26.21222222		127.665														29	30.7								2			7.4	Sludge	"Grayish black"		"Hydrogen sulfide odor; Sewage odor"	"Pieces of plastic; Pieces of wood; Pieces of Coral"	33.2/48.4	8.1/10.9									"This sample was used as the pooled sample:SAA006756 for chemical analysis"	2019/12/16	2019/12/16
PRA000099	SAA006755	ST023				Okinawa_sed1-3_2017	Sediment	"Marine sediment"	2017	10	3	2017-10-03T10:20			Fair	Asia	Japan	"Naha Port, Okinawa"	26.21222222		127.665														30	29.7								4			8.2	Sludge	"Grayish black"		"Hydrogen sulfide odor; Sewage odor"	"Pieces of plastic; Pieces of wood; Shell"	32.8/45.4	8.9/9.7									"This sample was used as the pooled sample:SAA006756 for chemical analysis"	2019/12/16	2019/12/16
PRA000099	SAA006756	ST023				Okinawa_sed1-123_2017	Sediment	"Marine sediment"	2017	10	3				Fair	Asia	Japan	"Naha Port, Okinawa"	26.21222222		127.665																																"33.4; 33.2; 32.8 (Each) / 48.3 (Mixed)"	"7.4; 8.1; 8.9 (Each) / 10.1 (Mixed)"									"n=3 pooled: SAA006753, SAA006754, SAA006755"	2019/12/16	2019/12/16
PRA000101	SAA007171	ST023				SP-1-S_2019	Sediment	"Marine sediment"	2019	7	2					Asia	Japan	"Ginama, Kunigami Village, Okinawa"	26.84938889		128.2525				47																																						"TOC(%): 3; Surface sediment"	2020/6/8	2020/6/8
PRA000101	SAA007175	ST023				SP-20-S_2019	Sediment	"Marine sediment"	2019	7	3					Asia	Japan	"Naha City, Okinawa"	26.20869444		127.6753889				59																																						"TOC(%): 2.8; Surface sediment"	2020/6/8	2020/6/8
PRA000105	SAA007434	ST023				BG18-7_D28-29_Y1952	Sediment	"Sediment core"	2018	5	10					Asia	Japan	"The deepest part of Beppu Bay, Oita"	33.27794444		131.5431111																						70.7				0.28-0.29						"73.4 "										"Depositional age (year): 1952; Bulk dens(g/cm3): 0.254; Sedimentation rate (cm/y): 0.476; "	2020/9/25	2020/9/25
PRA000105	SAA007435	ST023				BG18-7_D27-28_Y1954	Sediment	"Sediment core"	2018	5	10					Asia	Japan	"The deepest part of Beppu Bay, Oita"	33.27794444		131.5431111																						70.7				0.27-0.28						"77.0 "										"Depositional age (year): 1954; Bulk dens(g/cm3): 0.259; Sedimentation rate (cm/y): 0.474; "	2020/9/25	2020/9/25
PRA000105	SAA007436	ST023				BG18-7_D26-27_Y1957	Sediment	"Sediment core"	2018	5	10					Asia	Japan	"The deepest part of Beppu Bay, Oita"	33.27794444		131.5431111																						70.7				0.26-0.27						"77.4 "										"Depositional age (year): 1957; Bulk dens(g/cm3): 0.256; Sedimentation rate (cm/y): 0.495; "	2020/9/25	2020/9/25
PRA000105	SAA007437	ST023				BG18-7_D24-25_Y1961	Sediment	"Sediment core"	2018	5	10					Asia	Japan	"The deepest part of Beppu Bay, Oita"	33.27794444		131.5431111																						70.7				0.24-0.25						"78.3 "										"Depositional age (year): 1961; Bulk dens(g/cm3): 0.254; Sedimentation rate (cm/y): 0.502; "	2020/9/25	2020/9/25
PRA000105	SAA007438	ST023				BG18-7_D22-23_Y1964	Sediment	"Sediment core"	2018	5	10					Asia	Japan	"The deepest part of Beppu Bay, Oita"	33.27794444		131.5431111																						70.7				0.22-0.23						"79.2 "										"Depositional age (year): 1964; Bulk dens(g/cm3): 0.212; Sedimentation rate (cm/y): 0.486; "	2020/9/25	2020/9/25
PRA000105	SAA007439	ST023				BG18-7_D21-22_Y1967	Sediment	"Sediment core"	2018	5	10					Asia	Japan	"The deepest part of Beppu Bay, Oita"	33.27794444		131.5431111																						70.7				0.21-0.22						"73.1 "										"Depositional age (year): 1967; Bulk dens(g/cm3): 0.290; Sedimentation rate (cm/y): 0.314; "	2020/9/25	2020/9/25
PRA000105	SAA007440	ST023				BG18-7_D20-21_Y1970	Sediment	"Sediment core"	2018	5	10					Asia	Japan	"The deepest part of Beppu Bay, Oita"	33.27794444		131.5431111																						70.7				0.20-0.21						"78.7 "										"Depositional age (year): 1970; Bulk dens(g/cm3): 0.367; Sedimentation rate (cm/y): 0.319; "	2020/9/25	2020/9/25
PRA000105	SAA007441	ST023				BG18-7_D19-20_Y1973	Sediment	"Sediment core"	2018	5	10					Asia	Japan	"The deepest part of Beppu Bay, Oita"	33.27794444		131.5431111																						70.7				0.19-0.20						"81.3 "										"Depositional age (year): 1973; Bulk dens(g/cm3): 0.211; Sedimentation rate (cm/y): 0.463; "	2020/9/25	2020/9/25
PRA000105	SAA007442	ST023				BG18-7_D18-19_Y1975	Sediment	"Sediment core"	2018	5	10					Asia	Japan	"The deepest part of Beppu Bay, Oita"	33.27794444		131.5431111																						70.7				0.18-0.19						"82.3 "										"Depositional age (year): 1975; Bulk dens(g/cm3): 0.187; Sedimentation rate (cm/y): 0.459; "	2020/9/25	2020/9/25
PRA000105	SAA007443	ST023				BG18-7_D16-17_Y1979	Sediment	"Sediment core"	2018	5	10					Asia	Japan	"The deepest part of Beppu Bay, Oita"	33.27794444		131.5431111																						70.7				0.16-0.17						"80.7 "										"Depositional age (year): 1979; Bulk dens(g/cm3): 0.211; Sedimentation rate (cm/y): 0.456; "	2020/9/25	2020/9/25
PRA000105	SAA007444	ST023				BG18-7_D14-15_Y1984	Sediment	"Sediment core"	2018	5	10					Asia	Japan	"The deepest part of Beppu Bay, Oita"	33.27794444		131.5431111																						70.7				0.14-0.15						"83.2 "										"Depositional age (year): 1984; Bulk dens(g/cm3): 0.171; Sedimentation rate (cm/y): 0.535; "	2020/9/25	2020/9/25
PRA000105	SAA007445	ST023				BG18-7_D12-13_Y1987	Sediment	"Sediment core"	2018	5	10					Asia	Japan	"The deepest part of Beppu Bay, Oita"	33.27794444		131.5431111																						70.7				0.12-0.13						"82.8 "										"Depositional age (year): 1987; Bulk dens(g/cm3): 0.177; Sedimentation rate (cm/y): 0.554; "	2020/9/25	2020/9/25
PRA000105	SAA007446	ST023				BG18-7_D10-11_Y1991	Sediment	"Sediment core"	2018	5	10					Asia	Japan	"The deepest part of Beppu Bay, Oita"	33.27794444		131.5431111																						70.7				0.10-0.11						"85.2 "										"Depositional age (year): 1991; Bulk dens(g/cm3): 0.172; Sedimentation rate (cm/y): 0.547; "	2020/9/25	2020/9/25
PRA000105	SAA007447	ST023				BG18-7_D08-09_Y1995	Sediment	"Sediment core"	2018	5	10					Asia	Japan	"The deepest part of Beppu Bay, Oita"	33.27794444		131.5431111																						70.7				0.08-0.09						"83.1 "										"Depositional age (year): 1995; Bulk dens(g/cm3): 0.186; Sedimentation rate (cm/y): 0.399; "	2020/9/25	2020/9/25
PRA000105	SAA007448	ST023				BG18-7_D06-07_Y2000	Sediment	"Sediment core"	2018	5	10					Asia	Japan	"The deepest part of Beppu Bay, Oita"	33.27794444		131.5431111																						70.7				0.06-0.07						"83.7 "										"Depositional age (year): 2000; Bulk dens(g/cm3): 0.163; Sedimentation rate (cm/y): 0.487; "	2020/9/25	2020/9/25
PRA000105	SAA007449	ST023				BG18-7_D04-05_Y2004	Sediment	"Sediment core"	2018	5	10					Asia	Japan	"The deepest part of Beppu Bay, Oita"	33.27794444		131.5431111																						70.7				0.04-0.05						"85.5 "										"Depositional age (year): 2004; Bulk dens(g/cm3): 0.157; Sedimentation rate (cm/y): 0.523; "	2020/9/25	2020/9/25
PRA000105	SAA007450	ST023				BG18-7_D02-03_Y2008	Sediment	"Sediment core"	2018	5	10					Asia	Japan	"The deepest part of Beppu Bay, Oita"	33.27794444		131.5431111																						70.7				0.02-0.03						"86.0 "										"Depositional age (year): 2008; Bulk dens(g/cm3): 0.152; Sedimentation rate (cm/y): 0.515; "	2020/9/25	2020/9/25
PRA000105	SAA007451	ST023				BG18-7_D00-01_Y2011	Sediment	"Sediment core"	2018	5	10					Asia	Japan	"The deepest part of Beppu Bay, Oita"	33.27794444		131.5431111																						70.7				0-0.01						"88.9 "										"Depositional age (year): 2011; Bulk dens(g/cm3): 0.116; Sedimentation rate (cm/y): 0.585; "	2020/9/25	2020/9/25
PRA000112	SAA007633	ST024				Hokkaido_sed2-1_2018	Sediment	"River sediment"	2018	11	5	2018-11-05T14:33			Cloudy	Asia	Japan	"Ishikarikakokyo Bridge, Mouth of Riv. Ishikari (Ishikari City), Hokkaido"	43.22861111		141.3519444														14.6	9.1										14.1			Brown	Brown			38.5/NA	9.8/NA										2021/01/06	2021/01/06
PRA000112	SAA007634	ST024				Hokkaido_sed2-2_2018	Sediment	"River sediment"	2018	11	5	2018-11-05T14:44			Cloudy	Asia	Japan	"Ishikarikakokyo Bridge, Mouth of Riv. Ishikari (Ishikari City), Hokkaido"	43.22861111		141.3519444														14.6	9.1										13.6			Brown	Brown			43.9/NA	14.2/NA										2021/01/06	2021/01/06
PRA000112	SAA007635	ST024				Hokkaido_sed2-3_2018	Sediment	"River sediment"	2018	11	5	2018-11-05T14:56			Cloudy	Asia	Japan	"Ishikarikakokyo Bridge, Mouth of Riv. Ishikari (Ishikari City), Hokkaido"	43.22861111		141.3519444														14.6	9.1										13.7			Brown	Brown			45.9/NA	8.9/NA										2021/01/06	2021/01/06
PRA000112	SAA007636	ST023				Hokkaido_sed3-1_2018	Sediment	"Marine sediment"	2018	9	12	2018-09-12T10:50			Fair	Asia	Japan	"Tomakomai Port, Hokkaido"	42.63138889		141.6288889														19.6	19.5								3.5		17	16		Black	"Greenish blue"	"Hydrogen sulfide odor"		49.0/NA	9.0/NA										2021/01/06	2021/01/06
PRA000112	SAA007637	ST023				Hokkaido_sed3-2_2018	Sediment	"Marine sediment"	2018	9	12	2018-09-12T11:05			Fair	Asia	Japan	"Tomakomai Port, Hokkaido"	42.63138889		141.6288889														20.1	19.5								3.5		17	16		Black	"Greenish blue"	"Hydrogen sulfide odor"		35.8/NA	4.6/NA										2021/01/06	2021/01/06
PRA000112	SAA007638	ST023				Hokkaido_sed3-3_2018	Sediment	"Marine sediment"	2018	9	12	2018-09-12T11:20			Fair	Asia	Japan	"Tomakomai Port, Hokkaido"	42.63138889		141.6288889														19.9	19.5								3.5		17	16		Black	"Greenish blue"	"Hydrogen sulfide odor"		34.3/NA	4.1/NA										2021/01/06	2021/01/06
PRA000112	SAA007639	ST023				Hokkaido_sed4-1_2018	Sediment	"Marine sediment"	2018	11	30	2018-11-30T13:00			Snowy	Asia	Japan	"Muroran port, Hokkaido"	42.34305556		140.9708333														"0.8 "	"9.6 "																	46.1/NA	11.2/NA										2021/1/6	2021/1/6
PRA000112	SAA007640	ST023				Hokkaido_sed4-2_2018	Sediment	"Marine sediment"	2018	11	30	2018-11-30T13:20			Cloudy	Asia	Japan	"Muroran port, Hokkaido"	42.34305556		140.9708333														"0.8 "	"9.0 "																	45.0/NA	13.3/NA										2021/1/6	2021/1/6
PRA000112	SAA007641	ST024				Akita_sed1-1_2018	Sediment	"River sediment"	2018	10	15	2018-10-15T14:22			Fair	Asia	Japan	"Akita Canal (Akita City), Akita"	39.75083333		140.0586111														21.1	20.4								2.8		22.3	11.4	"Sandy mud"	Black	Green	"Hydrogen sulfide odor_Faint"	Pebble	42.1/NA	5.3/NA										2021/01/06	2021/01/06
PRA000112	SAA007642	ST024				Akita_sed1-2_2018	Sediment	"River sediment"	2018	10	15	2018-10-15T13:41			Fair	Asia	Japan	"Akita Canal (Akita City), Akita"	39.75083333		140.0586111														20.4	18.4								2.8		22.1	11.4	Muddy	Black	Green	"Hydrogen sulfide odor_Faint"	None	61.8/NA	10.7/NA										2021/01/06	2021/01/06
PRA000112	SAA007643	ST024				Akita_sed1-3_2018	Sediment	"River sediment"	2018	10	15	2018-10-15T14:00			Fair	Asia	Japan	"Akita Canal (Akita City), Akita"	39.75083333		140.0586111														20.1	19.3								2.8		22.2	10.6	Muddy	Black	Green	"Hydrogen sulfide odor_Faint"	None	62.8/NA	11.3/NA										2021/01/06	2021/01/06
PRA000112	SAA007644	ST024				Tokyo_sed1-1_2018	Sediment	"River sediment"	2018	9	18	2018-09-18T10:35			Fair	Asia	Japan	"Mouth of Riv. Arakawa (Koto Ward), Tokyo"	35.64583333		139.8463889														25.7	25.8								1.3		26.5	3.8	Silt	"Olive black"	"Greenish brown"	Odorless	"Clam; Shell"	39.1/NA	7.3/NA										2021/01/06	2021/01/06
PRA000112	SAA007645	ST024				Tokyo_sed1-2_2018	Sediment	"River sediment"	2018	9	18	2018-09-18T11:20			Fair	Asia	Japan	"Mouth of Riv. Arakawa (Koto Ward), Tokyo"	35.64583333		139.8463889														26.1	26.8								1.1		26.7	3.1	Silt	"Olive black"	"Greenish brown"	Odorless	"Clam; Shell"	33.1/NA	6.2/NA										2021/01/06	2021/01/06
PRA000112	SAA007646	ST024				Tokyo_sed1-3_2018	Sediment	"River sediment"	2018	9	18	2018-09-18T11:40			Fair	Asia	Japan	"Mouth of Riv. Arakawa (Koto Ward), Tokyo"	35.64583333		139.8463889														25.8	26.6								1.4		26.6	2.8	Silt	"Olive black"	"Grayish yellow green_Dark"	"Hydrogen sulfide odor_Faint"	"Clam; Shell"	39.7/NA	7.7/NA										2021/01/06	2021/01/06
PRA000112	SAA007647	ST024				Tokyo_sed2-1_2018	Sediment	"River sediment"	2018	9	18	2018-09-18T12:35			Fair	Asia	Japan	"Mouth of Riv. Sumida (Minato Ward), Tokyo"	35.66		139.7705556														26.3	26.8								1.6		25.1	5.4	Silt	Black	"Grayish yellow green_Dark"	"Hydrogen sulfide odor"	"Vegetative pieces; Shell"	57.3/NA	10.6/NA										2021/01/06	2021/01/06
PRA000112	SAA007648	ST024				Tokyo_sed2-2_2018	Sediment	"River sediment"	2018	9	18	2018-09-18T13:15			Fair	Asia	Japan	"Mouth of Riv. Sumida (Minato Ward), Tokyo"	35.66		139.7705556														26.1	26.4								1.7		25.3	5.1	Silt	Black	"Grayish yellow green_Dark"	"Hydrogen sulfide odor"	"Vegetative pieces"	59.0/NA	12.2/NA										2021/01/06	2021/01/06
PRA000112	SAA007649	ST024				Tokyo_sed2-3_2018	Sediment	"River sediment"	2018	9	18	2018-09-18T13:30			Fair	Asia	Japan	"Mouth of Riv. Sumida (Minato Ward), Tokyo"	35.66		139.7705556														27.2	27.0								1.7		25.5	4.0	Silt	Black	"Grayish yellow green_Dark"	"Hydrogen sulfide odor"	"Vegetative pieces; Polychaete"	52.3/NA	11.1/NA										2021/01/06	2021/01/06
PRA000112	SAA007650	ST023				Yokohama_sed1-1_2018	Sediment	"Marine sediment"	2018	11	5	2018-11-05T10:40			Cloudy	Asia	Japan	"Yokohama Port, Kanagawa"	35.45555556		139.6636111														21.0	20.5								3.0		19	11.7	Muddy	"Black brown"	Clear	"Hydrogen sulfide odor_Faint"	None	64.2/NA	8.2/NA										2021/01/06	2021/01/06
PRA000112	SAA007651	ST023				Yokohama_sed1-2_2018	Sediment	"Marine sediment"	2018	11	5	2018-11-05T09:50			Cloudy	Asia	Japan	"Yokohama Port, Kanagawa"	35.45555556		139.6636111														20.2	20.0								5.0		19.2	12.5	Muddy	"Black brown"	Clear	"Hydrogen sulfide odor_Faint"	None	78.5/NA	11.0/NA										2021/01/06	2021/01/06
PRA000112	SAA007652	ST023				Yokohama_sed1-3_2018	Sediment	"Marine sediment"	2018	11	5	2018-11-05T11:20			Cloudy	Asia	Japan	"Yokohama Port, Kanagawa"	35.45555556		139.6636111														21.0	20.5								4.5		19.5	11.5	Muddy	"Black brown"	Clear	"Hydrogen sulfide odor_Faint"	None	75.8/NA	10.5/NA										2021/01/06	2021/01/06
PRA000112	SAA007653	ST023				KawasakiCity_sed2-1_2018	Sediment	"Marine sediment"	2018	11	5	2018-11-05T11:02			"Cloudy, occasionally fair"	Asia	Japan	"Keihin Canal, Kawasaki Port, Kanagawa (front of Ogimachi)"	35.49527778		139.7277778														22.9	20.1								2.7		20	15.1	Mud	"Gray green"	"Grayish blue"	"Seaweed odor_Faint"	Shell	35.1/NA	6.9/NA										2021/01/06	2021/01/06
PRA000112	SAA007654	ST023				KawasakiCity_sed2-2_2018	Sediment	"Marine sediment"	2018	11	5	2018-11-05T10:45			"Cloudy, occasionally fair"	Asia	Japan	"Keihin Canal, Kawasaki Port, Kanagawa (front of Ogimachi)"	35.49527778		139.7277778														21.2	20.3								2.9		20.2	13.8	Mud	"Gray green"	"Grayish blue"	"Hydrogen sulfide odor"	Shell	51.6/NA	10.8/NA										2021/01/06	2021/01/06
PRA000112	SAA007655	ST023				KawasakiCity_sed2-3_2018	Sediment	"Marine sediment"	2018	11	5	2018-11-05T10:25			"Cloudy, occasionally fair"	Asia	Japan	"Keihin Canal, Kawasaki Port, Kanagawa (front of Ogimachi)"	35.49527778		139.7277778														20.9	20.0								3.0		20	13.5	Mud	"Gray green"	"Grayish blue"	"Hydrogen sulfide odor_Faint"	Shell	37.1/NA	7.7/NA										2021/01/06	2021/01/06
PRA000112	SAA007656	ST024				Ishikawa_sed1-1_2018	Sediment	"River sediment"	2018	10	25	2018-10-25T10:23			Fair	Asia	Japan	"Mouth of Riv. Sai (Kanazawa City), Ishikawa"	36.60027778		136.5888889														20.9	17.5											3	"Sandy silt"	"Gray black"	"Yellow green"	"Fish rotten odor_Faint"	"Pebble; Shell"	24.0/NA	2.5/NA										2021/01/06	2021/01/06
PRA000112	SAA007657	ST024				Ishikawa_sed1-2_2018	Sediment	"River sediment"	2018	10	25	2018-10-25T12:14			Fair	Asia	Japan	"Mouth of Riv. Sai (Kanazawa City), Ishikawa"	36.60027778		136.5888889														19.7	18.0											1.2	"Sandy silt"	"Gray brown"	Green	"Fish rotten odor_Faint"	Pebble	29.0/NA	2.7/NA										2021/01/06	2021/01/06
PRA000112	SAA007658	ST024				Ishikawa_sed1-3_2018	Sediment	"River sediment"	2018	10	25	2018-10-25T12:46			Fair	Asia	Japan	"Mouth of Riv. Sai (Kanazawa City), Ishikawa"	36.60027778		136.5888889														21.1	17.6											0.6	Sand	"Blackish brown"	Green	"Fish rotten odor_Faint"	Pebble	22.0/NA	1.3/NA										2021/01/06	2021/01/06
PRA000112	SAA007659	ST023				Shizuoka_sed1-1_2018	Sediment	"Marine sediment"	2018	9	27	2018-09-27T10:05			"Light rain"	Asia	Japan	"Shimizu Port, Shizuoka"	35.02416667		138.5161111														20.5	23.4								2.5		23.4	25.5	"Sand, Mud"	"Gray green_dark"	Clear	"Seaweed odor"	Shellfish	35.9/NA	4.4/NA										2021/01/06	2021/01/06
PRA000112	SAA007660	ST023				Shizuoka_sed1-2_2018	Sediment	"Marine sediment"	2018	9	27	2018-09-27T10:25			"Light rain"	Asia	Japan	"Shimizu Port, Shizuoka"	35.02416667		138.5161111														20.0	23.9								3.0		25.3	20.1	"Sand, Mud"	"Gray green_dark"	Clear	"Seaweed odor"	Shellfish	29.8/NA	4.3/NA										2021/01/06	2021/01/06
PRA000112	SAA007661	ST023				Shizuoka_sed1-3_2018	Sediment	"Marine sediment"	2018	9	27	2018-09-27T10:50			"Light rain"	Asia	Japan	"Shimizu Port, Shizuoka"	35.02416667		138.5161111														20.0	23.9								2.5		24.9	16.6	"Sand, Mud"	"Gray green_dark"	Clear	"Seaweed odor"	Shellfish	31.4/NA	4.0/NA										2021/01/06	2021/01/06
PRA000112	SAA007662	ST024				NagoyaCity_sed1-1_2018	Sediment	"River sediment"	2018	11	20	2018-11-20T10:00			Fair	Asia	Japan	"Minatoshinbashi Bridge, Riv. Hori (Nagoya City), Aichi"	35.09805556		136.8925														14.5	19.0												Sludge	Black	"Greenish brown"	"Rotten odor"	"Pebble; Shell"												2021/01/06	2021/01/06
PRA000112	SAA007663	ST023				Mie_sed1-1_2018	Sediment	"Marine sediment"	2018	10	30	2018-10-30T10:00			Fair	Asia	Japan	"Yokkaichi Port, Mie"	34.94944444		136.6530556														21.9	19.2								1.5		22.2	13.0	Muddy	"Gray black"	"Gray black"	"Hydrogen sulfide odor_Faint"	"Almost none"	69.0/NA	9.4/NA										2021/01/06	2021/01/06
PRA000112	SAA007664	ST023				Mie_sed1-2_2018	Sediment	"Marine sediment"	2018	10	30	2018-10-30T10:20			Fair	Asia	Japan	"Yokkaichi Port, Mie"	34.94944444		136.6530556														21.0	19.2								1.8		22.0	12.5	Muddy	"Gray black"	"Gray green"	"Hydrogen sulfide odor_Faint"	"Almost none"	72.0/NA	9.9/NA										2021/01/06	2021/01/06
PRA000112	SAA007665	ST023				Mie_sed1-3_2018	Sediment	"Marine sediment"	2018	10	30	2018-10-30T10:35			Fair	Asia	Japan	"Yokkaichi Port, Mie"	34.94944444		136.6530556														21.5	19.0								1.5		22.0	8.0	Muddy	"Gray black"	"Gray green"	"Hydrogen sulfide odor_Faint"	Shell	57.0/NA	7.1/NA										2021/01/06	2021/01/06
PRA000112	SAA007666	ST023				Mie_sed2-1_2018	Sediment	"Marine sediment"	2018	10	22	2018-10-22T09:55			Fair	Asia	Japan	"Toba Port, Mie"	34.48083333		136.8486111														23.5	21.0								3.0		22.5	6.0	Muddy	"Gray brown"	"Gray green"	"Mud smell_Faint"	"Shell; pieces of wood and leaves"	53.0/NA	10.0/NA										2021/01/06	2021/01/06
PRA000112	SAA007667	ST023				Mie_sed2-2_2018	Sediment	"Marine sediment"	2018	10	22	2018-10-22T10:20			Fair	Asia	Japan	"Toba Port, Mie"	34.48083333		136.8486111														22.0	22.0								4.0		22.0	5.6	Muddy	"Gray brown"	"Gray green"	"Mud smell_Faint"	"Shell; pieces of wood and leaves"	52.0/NA	8.8/NA										2021/01/06	2021/01/06
PRA000112	SAA007668	ST023				Mie_sed2-3_2018	Sediment	"Marine sediment"	2018	10	22	2018-10-10T10:30			Fair	Asia	Japan	"Toba Port, Mie"	34.48083333		136.8486111														22.0	22.0								4.0		22.0	5.4	Muddy	"Gray brown"	"Gray green"	"Mud smell_Faint"	"Shell; pieces of wood and leaves"	43.0/NA	6.2/NA										2021/01/06	2021/01/06
PRA000112	SAA007669	ST023				OsakaCity_sed1-1_2018	Sediment	"Marine sediment"	2018	11	12	2018-11-12T11:45			Cloudy	Asia	Japan	"Osaka Port, Osaka"	34.65861111		135.4313889														19.6	19.0								3.0		20.4	12.8	Sludge	Black	"Grayish yellow_Light"	"Hydrogen sulfide odor"	None	59.6/NA	11.4/NA										2021/01/06	2021/01/06
PRA000112	SAA007670	ST023				OsakaCity_sed1-2_2018	Sediment	"Marine sediment"	2018	11	12	2018-11-12T11:07			Cloudy	Asia	Japan	"Osaka Port, Osaka"	34.65861111		135.4313889														18.3	19.6								3.0		20.3	12.9	Sludge	Black	"Grayish yellow_Light"	"Hydrogen sulfide odor"	None	65.1/NA	12.3/NA										2021/01/06	2021/01/06
PRA000112	SAA007671	ST023				OsakaCity_sed1-3_2018	Sediment	"Marine sediment"	2018	11	12	2018-11-12T12:00			Cloudy	Asia	Japan	"Osaka Port, Osaka"	34.65861111		135.4313889														18.9	19.6								3.1		19.8	12.9	Sludge	Black	"Grayish yellow_Light"	"Hydrogen sulfide odor"	None	57.5/NA	10.8/NA										2021/01/06	2021/01/06
PRA000112	SAA007672	ST023				Hyogo_sed1-1_2018	Sediment	"Marine sediment"	2018	10	18	2018-10-18T11:29			Fair	Asia	Japan	"Offshore of Himeji, Hyogo"	34.76194444		134.6697222														21.8	23.9								2.0		23	11.0	Silt	"Gray green"	"Greenish brown"	"Hydrogen sulfide odor_Faint"	None												2021/01/06	2021/01/06
PRA000112	SAA007673	ST023				Hyogo_sed1-2_2018	Sediment	"Marine sediment"	2018	10	18	2018-10-18T11:13			Fair	Asia	Japan	"Offshore of Himeji, Hyogo"	34.76194444		134.6697222														21.8	23.5								2.1		23.1	10.0	Silt	"Gray green"	"Greenish brown"	"Hydrogen sulfide odor_Faint"	None												2021/01/06	2021/01/06
PRA000112	SAA007674	ST023				Hyogo_sed1-3_2018	Sediment	"Marine sediment"	2018	10	18	2018-10-18T10:59			Fair	Asia	Japan	"Offshore of Himeji, Hyogo"	34.76194444		134.6697222														22.0	23.3								2.2		23.5	8.0	Silt	"Gray green"	"Greenish brown"	"Hydrogen sulfide odor_Faint"	None												2021/01/06	2021/01/06
PRA000112	SAA007675	ST023				Hyogo_sed4-1_2018	Sediment	"Marine sediment"	2018	10	18	2018-10-18T13:30			Fair	Asia	Japan	"Port entrance of Takasago-nishi Port, Hyogo"	34.73777778		134.7852778														23.1	24.2								2.0		22	12.0	Silt	"Gray green_dark"	"Greenish brown"	"Hydrogen sulfide odor"	None												2021/01/06	2021/01/06
PRA000112	SAA007676	ST023				Hyogo_sed4-2_2018	Sediment	"Marine sediment"	2018	10	18	2018-10-18T13:42			Fair	Asia	Japan	"Port entrance of Takasago-nishi Port, Hyogo"	34.73777778		134.7852778														23.2	24.4								2.2		21.8	11.0	Silt	"Gray green_dark"	"Greenish brown"	"Earthy odor"	None												2021/01/06	2021/01/06
PRA000112	SAA007677	ST023				Hyogo_sed4-3_2018	Sediment	"Marine sediment"	2018	10	18	2018-10-18T13:57			Fair	Asia	Japan	"Port entrance of Takasago-nishi Port, Hyogo"	34.73777778		134.7852778														22.9	24.5								2.2		23.1	10.0	"Sand (Mixed with silt)"	"Gray yellow green"	"Greenish brown"	Odorless	None												2021/01/06	2021/01/06
PRA000112	SAA007678	ST023				Okayama_sed1-1_2018	Sediment	"Marine sediment"	2018	11	13	2018-11-13T11:00			Cloudy	Asia	Japan	"Offshore of Mizushima, Okayama"	34.48055556		133.665														18.0	19.0								1.8		19.7	11.0	Ooze	"Gray green"	"Yellow green_Dark"	"Earthy odor"	"Small pieces of shell"	46.1/NA	5.8/NA										2021/01/06	2021/01/06
PRA000112	SAA007679	ST023				Okayama_sed1-2_2018	Sediment	"Marine sediment"	2018	11	13	2018-11-13T11:20			Cloudy	Asia	Japan	"Offshore of Mizushima, Okayama"	34.48055556		133.665														18.0	19.0								1.8		19.7	11.4	Ooze	"Gray green"	"Yellow green_Dark"	"Earthy odor"	"Small pieces of shell"	48.9/NA	6.4/NA										2021/01/06	2021/01/06
PRA000112	SAA007680	ST023				Okayama_sed1-3_2018	Sediment	"Marine sediment"	2018	11	13	2018-11-13T12:05			Cloudy	Asia	Japan	"Offshore of Mizushima, Okayama"	34.48055556		133.665														18.0	19.0								1.8		19.6	9.0	Ooze	"Gray green"	"Yellow green_Dark"	"Earthy odor"	"Small pieces of shell"	48.5/NA	6.3/NA										2021/01/06	2021/01/06
PRA000112	SAA007681	ST023				Yamaguchi_sed1-1_2018	Sediment	"Marine sediment"	2018	10	19	2018-10-19T13:45			Fair	Asia	Japan	"Tokuyama Bay, Yamaguchi"	33.99361111		131.7505556														21.5	21.3								6.5		19	23.0	Silt	"Gray yellow green"	"Blue green"	"Hydrogen sulfide odor_Faint"	None	61.0/NA	10.7/NA										2021/01/06	2021/01/06
PRA000112	SAA007682	ST023				Yamaguchi_sed1-2_2018	Sediment	"Marine sediment"	2018	10	19	2018-10-19T13:55			Fair	Asia	Japan	"Tokuyama Bay, Yamaguchi"	33.99361111		131.7505556														21.5	21.3								6.5		19	23.0	Silt	"Gray yellow green"	"Blue green"	"Hydrogen sulfide odor_Faint"	None	57.8/NA	10.3/NA										2021/01/06	2021/01/06
PRA000112	SAA007683	ST023				Yamaguchi_sed1-3_2018	Sediment	"Marine sediment"	2018	10	19	2018-10-19T14:04			Fair	Asia	Japan	"Tokuyama Bay, Yamaguchi"	33.99361111		131.7505556														21.5	21.3								6.5		19	23.0	Silt	"Gray yellow green"	"Blue green"	"Hydrogen sulfide odor_Faint"	None	56.7/NA	10.0/NA										2021/01/06	2021/01/06
PRA000112	SAA007684	ST023				Yamaguchi_sed3-1_2018	Sediment	"Marine sediment"	2018	11	1	2018-11-01T11:15			Fair	Asia	Japan	"Offshore of Hagi, Yamaguchi"	34.43805556		131.3794444														20.0	20.9								9.0		20	26.4	"Fine sand"	"Light gray"	"Blue green"	Odorless	None	35.7/NA	5.8/NA										2021/01/06	2021/01/06
PRA000112	SAA007685	ST023				Yamaguchi_sed3-2_2018	Sediment	"Marine sediment"	2018	11	1	2018-11-01T11:25			Fair	Asia	Japan	"Offshore of Hagi, Yamaguchi"	34.43805556		131.3794444														20.0	20.9								9.0		20	26.4	"Fine sand"	"Light gray"	"Blue green"	Odorless	None	34.2/NA	5.8/NA										2021/01/06	2021/01/06
PRA000112	SAA007686	ST023				Yamaguchi_sed3-3_2018	Sediment	"Marine sediment"	2018	11	1	2018-11-01T11:36			Fair	Asia	Japan	"Offshore of Hagi, Yamaguchi"	34.43805556		131.3794444														20.0	20.9								9.0		20	26.4	"Fine sand"	"Light gray"	"Blue green"	Odorless	None	33.7/NA	5.8/NA										2021/01/06	2021/01/06
PRA000112	SAA007687	ST023				KitakyushuCity_sed1-1_2018	Sediment	"Marine sediment"	2018	10	30	2018-10-30T10:30			Fair	Asia	Japan	"Dokai Bay (Kitakyushu City), Fukuoka"	33.90388889		130.8158333														19.1	19.9								3.5		18.6	9.9	Mud	Black	Clear	Odorless	None	50.8/NA	9.1/NA										2021/01/06	2021/01/06
PRA000112	SAA007688	ST023				KitakyushuCity_sed1-2_2018	Sediment	"Marine sediment"	2018	10	30	2018-10-30T10:10			Fair	Asia	Japan	"Dokai Bay (Kitakyushu City), Fukuoka"	33.90388889		130.8158333														19.1	19.9								3.5		19.1	10.3	Mud	Black	Clear	Odorless	None	55.7/NA	10.2/NA										2021/01/06	2021/01/06
PRA000112	SAA007689	ST023				KitakyushuCity_sed1-3_2018	Sediment	"Marine sediment"	2018	10	30	2018-10-30T09:45			Fair	Asia	Japan	"Dokai Bay (Kitakyushu City), Fukuoka"	33.90388889		130.8158333														19.1	19.9								3.5		19.5	7.2	Mud	Black	Clear	Odorless	None	62.6/NA	20.6/NA										2021/01/06	2021/01/06
PRA000115	SAA007633	ST024				Hokkaido_sed2-1_2018	Sediment	"River sediment"	2018	11	5	2018-11-05T14:33			Cloudy	Asia	Japan	"Ishikarikakokyo Bridge, Mouth of Riv. Ishikari (Ishikari City), Hokkaido"	43.22861111		141.3519444														"14.6 "	"9.1 "										"14.1 "			Brown	Brown			38.5/NA	9.8/NA										2021/3/19	2021/3/19
PRA000115	SAA007634	ST024				Hokkaido_sed2-2_2018	Sediment	"River sediment"	2018	11	5	2018-11-05T14:44			Cloudy	Asia	Japan	"Ishikarikakokyo Bridge, Mouth of Riv. Ishikari (Ishikari City), Hokkaido"	43.22861111		141.3519444														"14.6 "	"9.1 "										"13.6 "			Brown	Brown			43.9/NA	14.2/NA										2021/3/19	2021/3/19
PRA000115	SAA007635	ST024				Hokkaido_sed2-3_2018	Sediment	"River sediment"	2018	11	5	2018-11-05T14:56			Cloudy	Asia	Japan	"Ishikarikakokyo Bridge, Mouth of Riv. Ishikari (Ishikari City), Hokkaido"	43.22861111		141.3519444														"14.6 "	"9.1 "										"13.7 "			Brown	Brown			45.9/NA	8.9/NA										2021/3/19	2021/3/19
PRA000115	SAA007636	ST023				Hokkaido_sed3-1_2018	Sediment	"Marine sediment"	2018	9	12	2018-09-12T10:50			Fair	Asia	Japan	"Tomakomai Port, Hokkaido"	42.63138889		141.6288889														"19.6 "	"19.5 "								"3.5 "		"17 "	"16 "		Black	"Greenish blue"	"Hydrogen sulfide odor"		49.0/NA	9.0/NA										2021/3/19	2021/3/19
PRA000115	SAA007637	ST023				Hokkaido_sed3-2_2018	Sediment	"Marine sediment"	2018	9	12	2018-09-12T11:05			Fair	Asia	Japan	"Tomakomai Port, Hokkaido"	42.63138889		141.6288889														"20.1 "	"19.5 "								"3.5 "		"17 "	"16 "		Black	"Greenish blue"	"Hydrogen sulfide odor"		35.8/NA	4.6/NA										2021/3/19	2021/3/19
PRA000115	SAA007638	ST023				Hokkaido_sed3-3_2018	Sediment	"Marine sediment"	2018	9	12	2018-09-12T11:20			Fair	Asia	Japan	"Tomakomai Port, Hokkaido"	42.63138889		141.6288889														"19.9 "	"19.5 "								"3.5 "		"17 "	"16 "		Black	"Greenish blue"	"Hydrogen sulfide odor"		34.3/NA	4.1/NA										2021/3/19	2021/3/19
PRA000115	SAA007873	ST024				Iwate_sed1-1_2018	Sediment	"River sediment"	2018	10	10	2018-10-10T10:05			Cloudy	Asia	Japan	"Riv. Toyosawa (Hanamaki City), Iwate"	39.38166667		141.1191667														"17.9 "	"15.9 "										"15.5 "	"0.15 "	Sand	Brown	Green_Light	Odorless	None	25.3/NA	2.2/NA										2021/3/19	2021/3/19
PRA000115	SAA007876	ST024				Sendai_sed1_1_2018	Sediment	"River sediment"	2018	11	5	2018-11-05T10:30			Cloudy	Asia	Japan	"Hirose-ohashi Bridge, Riv. Hirose (Sendai City), Miyagi"	38.21333333		140.9088889														"13.7 "	"12.8 "										"14 "	"0.23 "	Sandy	Brown	Clear	"Swampy odor_Faint"	None	9.9/NA	1.0/NA										2021/3/19	2021/3/19
PRA000115	SAA007877	ST024				Sendai_sed1_2_2018	Sediment	"River sediment"	2018	11	5	2018-11-05T09:47			Cloudy	Asia	Japan	"Hirose-ohashi Bridge, Riv. Hirose (Sendai City), Miyagi"	38.21333333		140.9088889														"13.7 "	"12.7 "										"14 "	"0.31 "	Sandy	Brown	Clear	"Swampy odor_Faint"	None	10.4/NA	1.1/NA										2021/3/19	2021/3/19
PRA000115	SAA007878	ST024				Sendai_sed1_3_2018	Sediment	"River sediment"	2018	11	5	2018-11-05T10:15			Cloudy	Asia	Japan	"Hirose-ohashi Bridge, Riv. Hirose (Sendai City), Miyagi"	38.21333333		140.9088889														"13.7 "	"12.7 "										"14 "	"0.75 "	Sandy	Brown	Clear	"Swampy odor_Faint"	None	16.4/NA	1.3/NA										2021/3/19	2021/3/19
PRA000115	SAA007641	ST024				Akita_sed1-1_2018	Sediment	"River sediment"	2018	10	15	2018-10-15T14:22			Fair	Asia	Japan	"Akita Canal (Akita City), Akita"	39.75083333		140.0586111														"21.1 "	"20.4 "								"2.8 "		"22.3 "	"11.4 "	"Sandy mud"	Black	Green	"Hydrogen sulfide odor_Faint"	Pebble	42.1/NA	5.3/NA										2021/3/19	2021/3/19
PRA000115	SAA007642	ST024				Akita_sed1-2_2018	Sediment	"River sediment"	2018	10	15	2018-10-15T13:41			Fair	Asia	Japan	"Akita Canal (Akita City), Akita"	39.75083333		140.0586111														"20.4 "	"18.4 "								"2.8 "		"22.1 "	"11.4 "	Muddy	Black	Green	"Hydrogen sulfide odor_Faint"	None	61.8/NA	10.7/NA										2021/3/19	2021/3/19
PRA000115	SAA007643	ST024				Akita_sed1-3_2018	Sediment	"River sediment"	2018	10	15	2018-10-15T14:00			Fair	Asia	Japan	"Akita Canal (Akita City), Akita"	39.75083333		140.0586111														"20.1 "	"19.3 "								"2.8 "		"22.2 "	"10.6 "	Muddy	Black	Green	"Hydrogen sulfide odor_Faint"	None	62.8/NA	11.3/NA										2021/3/19	2021/3/19
PRA000115	SAA007879	ST024				Yamagata_sed1-1_2018	Sediment	"River sediment"	2018	10	17	2018-10-17T10:20			Cloudy	Asia	Japan	"Mouth of Riv. Mogami (Sakata City), Yamagata"	38.88722222		139.8433333														"15.8 "	"15.2 "										"14.6 "	"0.3 "	"Fine sand"	"Gray black"	Yellow_Light	"Earthy odor"	"Vegetative pieces"	33.7/NA	4.2/NA										2021/3/19	2021/3/19
PRA000115	SAA007880	ST024				Yamagata_sed1-2_2018	Sediment	"River sediment"	2018	10	17	2018-10-17T10:20			Cloudy	Asia	Japan	"Mouth of Riv. Mogami (Sakata City), Yamagata"	38.88722222		139.8433333														"15.8 "	"15.2 "										"14.0 "	"0.3 "	"Fine sand"	"Gray black"	Yellow_Light	"Earthy odor"	"Vegetative pieces"	33.1/NA	4.2/NA										2021/3/19	2021/3/19
PRA000115	SAA007881	ST024				Yamagata_sed1-3_2018	Sediment	"River sediment"	2018	10	17	2018-10-17T10:20			Cloudy	Asia	Japan	"Mouth of Riv. Mogami (Sakata City), Yamagata"	38.88722222		139.8433333														"15.8 "	"15.2 "										"14.5 "	"0.3 "	"Fine sand"	"Gray black"	Yellow_Light	"Earthy odor"	"Vegetative pieces"	34.6/NA	4.5/NA										2021/3/19	2021/3/19
PRA000115	SAA007882	ST024				Yamagata_sed2-1_2018	Sediment	"River sediment"	2019	1	15	2019-01-15T11:18			Cloudy	Asia	Japan	"Confluence of Riv. Murayamano and Riv. Mogami (Higashine City), Yamagata"	38.43861111		140.3366667														"0.0 "	"8.0 "										"8.5 "	"0.5 "	"Sandy gravel"	Brown	Clear	"Earthy odor"	None	23.0/NA	1.3/NA										2021/3/19	2021/3/19
PRA000115	SAA007883	ST024				Yamagata_sed2-2_2018	Sediment	"River sediment"	2019	1	15	2019-01-15T11:33			Cloudy	Asia	Japan	"Confluence of Riv. Murayamano and Riv. Mogami (Higashine City), Yamagata"	38.43861111		140.3366667														"0.0 "	"8.0 "										"8.5 "	"0.2 "	Muddy	Brown	Clear	"Earthy odor"	"Vegetative pieces"	29.6/NA	5.3/NA										2021/3/19	2021/3/19
PRA000115	SAA007884	ST024				Yamagata_sed2-3_2018	Sediment	"River sediment"	2019	1	15	2019-01-15T11:48			Cloudy	Asia	Japan	"Confluence of Riv. Murayamano and Riv. Mogami (Higashine City), Yamagata"	38.43861111		140.3366667														"0.0 "	"8.0 "										"8.5 "	"0.4 "	Sandy	Brown	Clear	"Earthy odor"	"Vegetative pieces"	21.6/NA	2.2/NA										2021/3/19	2021/3/19
PRA000115	SAA007885	ST024				Ibaraki_sed1-1_2018	Sediment	"River sediment"	2018	11	9	2018-11-09T09:48			Cloudy	Asia	Japan	"Kamome-ohasi Bridge, Mouth of Riv. Tone (Kamisu City), Ibaraki"	35.77638889		140.7569444														"20.1 "	"18.8 "											"0.95 "	"Sandy, mud"	Brown	Clear	Odorless	None	26.0/NA	1.8/NA										2021/3/19	2021/3/19
PRA000115	SAA007886	ST024				Ibaraki_sed1-2_2018	Sediment	"River sediment"	2018	11	9	2018-11-09T10:35			Rain	Asia	Japan	"Kamome-ohasi Bridge, Mouth of Riv. Tone (Kamisu City), Ibaraki"	35.77638889		140.7569444														"17.8 "	"18.0 "											"6.5 "	Clay	Brown	Clear	Odorless	None	39.0/NA	5.7/NA										2021/3/19	2021/3/19
PRA000115	SAA007887	ST024				Ibaraki_sed1-3_2018	Sediment	"River sediment"	2018	11	9	2018-11-09T10:50			Rain	Asia	Japan	"Kamome-ohasi Bridge, Mouth of Riv. Tone (Kamisu City), Ibaraki"	35.77638889		140.7569444														"18.1 "	"18.0 "											"1.8 "	Sandy	Brown	Clear	Odorless	Shellfish	24.0/NA	1.4/NA										2021/3/19	2021/3/19
PRA000115	SAA007888	ST024				Gunma_sed1-1_2018	Sediment	"River sediment"	2018	10	17	2018-10-17T11:00			Cloudy	Asia	Japan	"Wada-bashi Bridge, Riv. Karasu (Takasaki City), Gunma"	36.323523		138.998338														"18.0 "	"17.0 "										"18.5 "	"0.29 "	Sandy	Brown	Clear	Odorless	None	32.3/NA	1.3/NA										2021/3/19	2021/3/19
PRA000115	SAA007889	ST024				Gunma_sed1-2_2018	Sediment	"River sediment"	2018	10	17					Asia	Japan	"Wada-bashi Bridge, Riv. Karasu (Takasaki City), Gunma"	36.323523		138.998338																																											2021/3/19	2021/3/19
PRA000115	SAA007890	ST024				Gunma_sed1-3_2018	Sediment	"River sediment"	2018	10	17					Asia	Japan	"Wada-bashi Bridge, Riv. Karasu (Takasaki City), Gunma"	36.323523		138.998338																																											2021/3/19	2021/3/19
PRA000115	SAA007891	ST024				Gunma_sed2-1_2018	Sediment	"River sediment"	2018	10	17	2018-10-17T14:00			Fair	Asia	Japan	"Around Shimonita station, Riv. Kabura (Shimonita Town), Gunma"	36.20861111		138.7838889														"21.7 "	"16.8 "										"16.1 "	"0.65 "	Sandy	"Gray black"	Clear	Odorless	None	30.1/NA	2.5/NA										2021/3/19	2021/3/19
PRA000115	SAA007892	ST024				Gunma_sed2-2_2018	Sediment	"River sediment"	2018	10	17					Asia	Japan	"Around Shimonita station, Riv. Kabura (Shimonita Town), Gunma"	36.20861111		138.7838889																																											2021/3/19	2021/3/19
PRA000115	SAA007893	ST024				Gunma_sed2-3_2018	Sediment	"River sediment"	2018	10	17					Asia	Japan	"Around Shimonita station, Riv. Kabura (Shimonita Town), Gunma"	36.20861111		138.7838889																																											2021/3/19	2021/3/19
PRA000115	SAA007894	ST024				Saitama_sed1-1_2018	Sediment	"River sediment"	2018	10	24	2018-10-24T12:53			Fair	Asia	Japan	"Shiki-ohashi Bridge, Riv. Yanase (Shiki City), Saitama"	35.82777778		139.5552778														"23.5 "	"23.6 "										"22.4 - 23.5"	"0.13 - 0.37"	"Sand, Gravel"	Brown	Yellow_Light	"Sewage odor"	None	20.3/NA	1.4/NA										2021/3/19	2021/3/19
PRA000115	SAA007895	ST024				Saitama_sed1-2_2018	Sediment	"River sediment"	2018	10	24	2018-10-24T12:43			Fair	Asia	Japan	"Shiki-ohashi Bridge, Riv. Yanase (Shiki City), Saitama"	35.82777778		139.5552778														"22.0 "	"23.4 "										"23.1 - 23.3"	"0.13 - 0.43"	"Sand, Gravel"	Brown	Yellow_Light	"Sewage odor"	None	19.0/NA	1.1/NA										2021/3/19	2021/3/19
PRA000115	SAA007896	ST024				Saitama_sed1-3_2018	Sediment	"River sediment"	2018	10	24	2018-10-24T12:10			Fair	Asia	Japan	"Shiki-ohashi Bridge, Riv. Yanase (Shiki City), Saitama"	35.82777778		139.5552778														"21.5 "	"23.2 "										"22.1 - 23.2"	"0.15 - 0.43"	"Sand, Gravel"	Brown	Yellow_Light	"Sewage odor"	None	18.9/NA	1.1/NA										2021/3/19	2021/3/19
PRA000115	SAA007897	ST024				Saitama_sed2-1_2018	Sediment	"River sediment"	2018	10	24	2018-10-24T15:10			Fair	Asia	Japan	"Kachi-hashi Bridge, Riv. Ichino (Yoshimi Town), Saitama"	36.018246		139.47072														"23.5 "	"21.2 "										"19.1 - 19.7"	"0.10 - 0.24"	"Sand, Sandy mud"	"Yellowish brown"	"Yellowish brown_Light"	"Earthy odor; Sewage odor"	None	17.5/NA	1.4/NA										2021/3/19	2021/3/19
PRA000115	SAA007898	ST024				Saitama_sed2-2_2018	Sediment	"River sediment"	2018	10	24	2018-10-24T14:45			Fair	Asia	Japan	"Kachi-hashi Bridge, Riv. Ichino (Yoshimi Town), Saitama"	36.018246		139.47072														"20.5 "	"20.7 "										"18.6 - 18.9"	"0.15 - 0.54"	"Sand, Mud"	"Yellowish brown; Blackish gray"	"Yellowish brown_Light"	"Earthy odor"	None	23.8/NA	2.8/NA										2021/3/19	2021/3/19
PRA000115	SAA007899	ST024				Saitama_sed2-3_2018	Sediment	"River sediment"	2018	10	24	2018-10-24T14:15			Fair	Asia	Japan	"Kachi-hashi Bridge, Riv. Ichino (Yoshimi Town), Saitama"	36.018246		139.47072														"23.5 "	"20.7 "										"16.8 - 18.7"	"0.27 - 0.58"	"Sandy mud, Mud"	"Blackish gray, Blackish brown"	"Yellowish brown_Light"	"Sewage odor_Faint"	None	22.0/NA	2.3/NA										2021/3/19	2021/3/19
PRA000115	SAA007900	ST023				Chiba_sed1-1_2018	Sediment	"Marine sediment"	2018	10	16	2018-10-16T10:20			Cloudy	Asia	Japan	"Ichihara-Anesaki Coast, Chiba"	35.52166667		140.0283333														"20.8 "	"21.1 "								"5.5 "		"21 "	"18.5 "	Silt	Black	"Dark bluish green"	"Hydrogen sulfide odor"	"Pieces of shell"	72.9/NA	12.9/NA										2021/3/19	2021/3/19
PRA000115	SAA007901	ST023				Chiba_sed1-2_2018	Sediment	"Marine sediment"	2018	10	16	2018-10-16T10:45			Cloudy	Asia	Japan	"Ichihara-Anesaki Coast, Chiba"	35.52166667		140.0283333														"21.0 "	"21.2 "								"5.4 "		"21 "	"18.5 "	Silt	Black	"Dark bluish green"	"Hydrogen sulfide odor"	"Pieces of shell"	75.0/NA	13.3/NA										2021/3/19	2021/3/19
PRA000115	SAA007902	ST023				Chiba_sed1-3_2018	Sediment	"Marine sediment"	2018	10	16	2018-10-16T10:59			Cloudy	Asia	Japan	"Ichihara-Anesaki Coast, Chiba"	35.52166667		140.0283333														"21.6 "	"21.2 "								"5.4 "		"21 "	"18.4 "	Silt	Black	"Dark bluish green"	"Hydrogen sulfide odor"	"Pieces of shell"	73.6/NA	12.7/NA										2021/3/19	2021/3/19
PRA000115	SAA007644	ST024				Tokyo_sed1-1_2018	Sediment	"River sediment"	2018	9	18	2018-09-18T10:35			Fair	Asia	Japan	"Mouth of Riv. Arakawa (Koto Ward), Tokyo"	35.64583333		139.8463889														"25.7 "	"25.8 "								"1.3 "		"26.5 "	"3.8 "	Silt	"Olive black"	"Greenish brown"	Odorless	"Clam; Shell"	39.1/NA	7.3/NA										2021/3/19	2021/3/19
PRA000115	SAA007645	ST024				Tokyo_sed1-2_2018	Sediment	"River sediment"	2018	9	18	2018-09-18T11:20			Fair	Asia	Japan	"Mouth of Riv. Arakawa (Koto Ward), Tokyo"	35.64583333		139.8463889														"26.1 "	"26.8 "								"1.1 "		"26.7 "	"3.1 "	Silt	"Olive black"	"Greenish brown"	Odorless	"Clam; Shell"	33.1/NA	6.2/NA										2021/3/19	2021/3/19
PRA000115	SAA007646	ST024				Tokyo_sed1-3_2018	Sediment	"River sediment"	2018	9	18	2018-09-18T11:40			Fair	Asia	Japan	"Mouth of Riv. Arakawa (Koto Ward), Tokyo"	35.64583333		139.8463889														"25.8 "	"26.6 "								"1.4 "		"26.6 "	"2.8 "	Silt	"Olive black"	"Grayish yellow green_Dark"	"Hydrogen sulfide odor_Faint"	"Clam; Shell"	39.7/NA	7.7/NA										2021/3/19	2021/3/19
PRA000115	SAA007647	ST024				Tokyo_sed2-1_2018	Sediment	"River sediment"	2018	9	18	2018-09-18T12:35			Fair	Asia	Japan	"Mouth of Riv. Sumida (Minato Ward), Tokyo"	35.66		139.7705556														"26.3 "	"26.8 "								"1.6 "		"25.1 "	"5.4 "	Silt	Black	"Grayish yellow green_Dark"	"Hydrogen sulfide odor"	"Vegetative pieces; Shell"	57.3/NA	10.6/NA										2021/3/19	2021/3/19
PRA000115	SAA007648	ST024				Tokyo_sed2-2_2018	Sediment	"River sediment"	2018	9	18	2018-09-18T13:15			Fair	Asia	Japan	"Mouth of Riv. Sumida (Minato Ward), Tokyo"	35.66		139.7705556														"26.1 "	"26.4 "								"1.7 "		"25.3 "	"5.1 "	Silt	Black	"Grayish yellow green_Dark"	"Hydrogen sulfide odor"	"Vegetative pieces"	59.0/NA	12.2/NA										2021/3/19	2021/3/19
PRA000115	SAA007649	ST024				Tokyo_sed2-3_2018	Sediment	"River sediment"	2018	9	18	2018-09-18T13:30			Fair	Asia	Japan	"Mouth of Riv. Sumida (Minato Ward), Tokyo"	35.66		139.7705556														"27.2 "	"27.0 "								"1.7 "		"25.5 "	"4.0 "	Silt	Black	"Grayish yellow green_Dark"	"Hydrogen sulfide odor"	"Vegetative pieces;　Polychaete"	52.3/NA	11.1/NA										2021/3/19	2021/3/19
PRA000115	SAA007650	ST023				Yokohama_sed1-1_2018	Sediment	"Marine sediment"	2018	11	5	2018-11-05T10:40			Cloudy	Asia	Japan	"Yokohama Port, Kanagawa"	35.45555556		139.6636111														"21.0 "	"20.5 "								"3.0 "		"19 "	"11.7 "	Muddy	"Black brown"	Clear	"Hydrogen sulfide odor_Faint"	None	64.2/NA	8.2/NA										2021/3/19	2021/3/19
PRA000115	SAA007651	ST023				Yokohama_sed1-2_2018	Sediment	"Marine sediment"	2018	11	5	2018-11-05T09:50			Cloudy	Asia	Japan	"Yokohama Port, Kanagawa"	35.45555556		139.6636111														"20.2 "	"20.0 "								"5.0 "		"19.2 "	"12.5 "	Muddy	"Black brown"	Clear	"Hydrogen sulfide odor_Faint"	None	78.5/NA	11.0/NA										2021/3/19	2021/3/19
PRA000115	SAA007652	ST023				Yokohama_sed1-3_2018	Sediment	"Marine sediment"	2018	11	5	2018-11-05T11:20			Cloudy	Asia	Japan	"Yokohama Port, Kanagawa"	35.45555556		139.6636111														"21.0 "	"20.5 "								"4.5 "		"19.5 "	"11.5 "	Muddy	"Black brown"	Clear	"Hydrogen sulfide odor_Faint"	None	75.8/NA	10.5/NA										2021/3/19	2021/3/19
PRA000115	SAA007653	ST023				KawasakiCity_sed2-1_2018	Sediment	"Marine sediment"	2018	11	5	2018-11-05T11:02			"Cloudy, occasionally fair"	Asia	Japan	"Keihin Canal, Kawasaki Port, Kanagawa (front of Ogimachi)"	35.49527778		139.7277778														"22.9 "	"20.1 "								"2.7 "		"20 "	"15.1 "	Mud	"Gray green"	"Grayish blue"	"Seaweed odor_Faint"	Shell	35.1/NA	6.9/NA										2021/3/19	2021/3/19
PRA000115	SAA007654	ST023				KawasakiCity_sed2-2_2018	Sediment	"Marine sediment"	2018	11	5	2018-11-05T10:45			"Cloudy, occasionally fair"	Asia	Japan	"Keihin Canal, Kawasaki Port, Kanagawa (front of Ogimachi)"	35.49527778		139.7277778														"21.2 "	"20.3 "								"2.9 "		"20.2 "	"13.8 "	Mud	"Gray green"	"Grayish blue"	"Hydrogen sulfide odor"	Shell	51.6/NA	10.8/NA										2021/3/19	2021/3/19
PRA000115	SAA007655	ST023				KawasakiCity_sed2-3_2018	Sediment	"Marine sediment"	2018	11	5	2018-11-05T10:25			"Cloudy, occasionally fair"	Asia	Japan	"Keihin Canal, Kawasaki Port, Kanagawa (front of Ogimachi)"	35.49527778		139.7277778														"20.9 "	"20.0 "								"3.0 "		"20 "	"13.5 "	Mud	"Gray green"	"Grayish blue"	"Hydrogen sulfide odor_Faint"	Shell	37.1/NA	7.7/NA										2021/3/19	2021/3/19
PRA000115	SAA007903	ST024				KawasakiCity_sed1-1_2018	Sediment	"River sediment"	2018	11	5	2018-11-05T11:47			Cloudy	Asia	Japan	"Mouth of Riv. Tama (Kawasaki City), Kanagawa"	35.53		139.7836111														"19.7 "	"19.5 "								"2.0 "		"20 "	"4 "	"Mud, sand"	"Blackish brown"	"Greenish blue"	"Seaweed odor"	"Vegetative pieces; Shell"	30.5/NA	6.6/NA										2021/3/19	2021/3/19
PRA000115	SAA007904	ST024				KawasakiCity_sed1-2_2018	Sediment	"River sediment"	2018	11	5	2018-11-05T12:17			Cloudy	Asia	Japan	"Mouth of Riv. Tama (Kawasaki City), Kanagawa"	35.53		139.7836111														"18.7 "	"19.7 "								"1.5 "		"19.9 "	"2.1 "	Mud	"Blackish brown"	"Greenish blue"	"Tar odor"	"Vegetative pieces; Shell"	28.8/NA	6.1/NA										2021/3/19	2021/3/19
PRA000115	SAA007905	ST024				KawasakiCity_sed1-3_2018	Sediment	"River sediment"	2018	11	5	2018-11-05T12:05			Cloudy	Asia	Japan	"Mouth of Riv. Tama (Kawasaki City), Kanagawa"	35.53		139.7836111														"22.6 "	"19.6 "								"1.6 "		"20 "	"2.5 "	Mud	"Blackish brown"	"Greenish blue"	"Seaweed odor"	Shell	29.7/NA	5.9/NA										2021/3/19	2021/3/19
PRA000115	SAA007906	ST024				Niigata_sed1-1_2018	Sediment	"River sediment"	2018	10	3	2018-10-03T10:10			Fair	Asia	Japan	"Downstream of Riv. Shinano (Niigata City), Niigata"	37.88305556		139.0155556														"25.8 "	"19.9 "										"19.0 "	"0.89 "	Muddy	"Blackish brown"	Brown	"Earthy odor"	None	56.0/NA	6.4/NA										2021/3/19	2021/3/19
PRA000115	SAA007907	ST024				Niigata_sed1-2_2018	Sediment	"River sediment"	2018	10	3	2018-10-03T10:05			Fair	Asia	Japan	"Downstream of Riv. Shinano (Niigata City), Niigata"	37.88305556		139.0155556														"25.8 "	"19.9 "										"19.0 "	"4.3 "	"Sandy and Muddy"	"Light brown"	Brown	Odorless	Leaves	22.1/NA	1.9/NA										2021/3/19	2021/3/19
PRA000115	SAA007908	ST024				Niigata_sed1-3_2018	Sediment	"River sediment"	2018	10	3	2018-10-03T10:05			Fair	Asia	Japan	"Downstream of Riv. Shinano (Niigata City), Niigata"	37.88305556		139.0155556														"25.8 "	"19.9 "										"19.0 "	"5.1 "	"Sandy and Muddy"	Brown	Brown	Odorless	"Tree branch; Leaves"	17.7/NA	1.4/NA										2021/3/19	2021/3/19
PRA000115	SAA007909	ST024				Toyama_sed2-1_2018	Sediment	"River sediment"	2018	10	18	2018-10-18T13:22			Fair	Asia	Japan	"Ishida-bashi Bridge, Riv. Kurose (Kurobe City), Toyama"	36.8625		137.4213889														"22.8 "	"17.0 "										"18 "	"0.6 "	Mud	"Gray black"	Clear	"Fish rotten odor_Faint"	"Leaves; Stem;"	37.0/NA	4.7/NA										2021/3/19	2021/3/19
PRA000115	SAA007910	ST024				Toyama_sed2-2_2018	Sediment	"River sediment"	2018	10	18	2018-10-18T12:49			Fair	Asia	Japan	"Ishida-bashi Bridge, Riv. Kurose (Kurobe City), Toyama"	36.8625		137.4213889														"22.8 "	"16.0 "										"18 "	"0.65 "	"Sandy mud"	"Gray black"	Clear	"Fish rotten odor_Faint"	"Leaves; Stem; Root"	37.0/NA	4.8/NA										2021/3/19	2021/3/19
PRA000115	SAA007911	ST024				Toyama_sed2-3_2018	Sediment	"River sediment"	2018	10	18	2018-10-18T12:31			Fair	Asia	Japan	"Ishida-bashi Bridge, Riv. Kurose (Kurobe City), Toyama"	36.8625		137.4213889														"22.8 "	"19.0 "										"21.8 "	"1.7 "	"Sandy mud"	"Gray black"	Clear	"Fish rotten odor_Faint"	Leaves	38.0/NA	4.8/NA										2021/3/19	2021/3/19
PRA000115	SAA007656	ST024				Ishikawa_sed1-1_2018	Sediment	"River sediment"	2018	10	25	2018-10-25T10:23			Fair	Asia	Japan	"Mouth of Riv. Sai (Kanazawa City), Ishikawa"	36.60027778		136.5888889														"20.9 "	"17.5 "											"3 "	"Sandy silt"	"Gray black"	"Yellow green"	"Fish rotten odor_Faint"	"Pebble; Shell"	24.0/NA	2.5/NA										2021/3/19	2021/3/19
PRA000115	SAA007657	ST024				Ishikawa_sed1-2_2018	Sediment	"River sediment"	2018	10	25	2018-10-25T12:14			Fair	Asia	Japan	"Mouth of Riv. Sai (Kanazawa City), Ishikawa"	36.60027778		136.5888889														"19.7 "	"18.0 "											"1.2 "	"Sandy silt"	"Gray brown"	Green	"Fish rotten odor_Faint"	Pebble	29.0/NA	2.7/NA										2021/3/19	2021/3/19
PRA000115	SAA007658	ST024				Ishikawa_sed1-3_2018	Sediment	"River sediment"	2018	10	25	2018-10-25T12:46			Fair	Asia	Japan	"Mouth of Riv. Sai (Kanazawa City), Ishikawa"	36.60027778		136.5888889														"21.1 "	"17.6 "											"0.6 "	Sand	"Blackish brown"	Green	"Fish rotten odor_Faint"	Pebble	22.0/NA	1.3/NA										2021/3/19	2021/3/19
PRA000115	SAA007912	ST024				Nagano_sed1-1_2018	Sediment	"Lake sediment"	2018	10	29	2018-10-29T10:25			Fair	Asia	Japan	"Center of Lake Suwa, Nagano"	36.05		138.0861111														"19.5 "	"15.8 "								"0.8 "		"16.5 "	"5.8 "	Muddy	"Blackish brown_dark"	"Yellow green_Light"	"Swampy odor_Faint"	None	79.3/NA	15.6/NA										2021/3/19	2021/3/19
PRA000115	SAA007913	ST024				Nagano_sed1-2_2018	Sediment	"Lake sediment"	2018	10	29	2018-10-29T11:20			Fair	Asia	Japan	"Center of Lake Suwa, Nagano"	36.05		138.0861111														"18.0 "	"15.4 "								"1.0 "		"16.5 "	"5.8 "	Muddy	"Blackish brown_dark"	"Yellow green_Light"	"Swampy odor_Faint"	None	80.6/NA	15.3/NA										2021/3/19	2021/3/19
PRA000115	SAA007914	ST024				Nagano_sed1-3_2018	Sediment	"Lake sediment"	2018	10	29	2018-10-29T11:30			Fair	Asia	Japan	"Center of Lake Suwa, Nagano"	36.05		138.0861111														"17.2 "	"14.9 "								"0.9 "		"15.2 "	"5.8 "	Muddy	"Blackish brown_dark"	"Yellow green_Light"	"Swampy odor_Faint"	None	80.2/NA	15.2/NA										2021/3/19	2021/3/19
PRA000115	SAA007659	ST023				Shizuoka_sed1-1_2018	Sediment	"Marine sediment"	2018	9	27	2018-09-27T10:05			"Light rain"	Asia	Japan	"Shimizu Port, Shizuoka"	35.02416667		138.5161111														"20.5 "	"23.4 "								"2.5 "		"23.4 "	"25.5 "	"Sand, Mud"	"Gray green_dark"	Clear	"Seaweed odor"	Shellfish	35.9/NA	4.4/NA										2021/3/19	2021/3/19
PRA000115	SAA007660	ST023				Shizuoka_sed1-2_2018	Sediment	"Marine sediment"	2018	9	27	2018-09-27T10:25			"Light rain"	Asia	Japan	"Shimizu Port, Shizuoka"	35.02416667		138.5161111														"20.0 "	"23.9 "								"3.0 "		"25.3 "	"20.1 "	"Sand, Mud"	"Gray green_dark"	Clear	"Seaweed odor"	Shellfish	29.8/NA	4.3/NA										2021/3/19	2021/3/19
PRA000115	SAA007661	ST023				Shizuoka_sed1-3_2018	Sediment	"Marine sediment"	2018	9	27	2018-09-27T10:50			"Light rain"	Asia	Japan	"Shimizu Port, Shizuoka"	35.02416667		138.5161111														"20.0 "	"23.9 "								"2.5 "		"24.9 "	"16.6 "	"Sand, Mud"	"Gray green_dark"	Clear	"Seaweed odor"	Shellfish	31.4/NA	4.0/NA										2021/3/19	2021/3/19
PRA000115	SAA007915	ST024				Shizuoka_sed3-1_2018	Sediment	"River sediment"	2018	10	24	2018-10-24T13:30			Fair	Asia	Japan	"Riv. Tenryu (Iwata City), Shizuoka"	34.67916667		137.7961111														"24.9 "	"18.1 "										"17.5 "	"0.53 "	Sand	"Gray green_dark"	White	"Seaweed odor"	Pebble	19.4/NA	1.3/NA										2021/3/19	2021/3/19
PRA000115	SAA007916	ST024				Shizuoka_sed3-2_2018	Sediment	"River sediment"	2018	10	24	2018-10-24T14:00			Fair	Asia	Japan	"Riv. Tenryu (Iwata City), Shizuoka"	34.67916667		137.7961111														"26.9 "											"18.2 "	"0.29 "	Sand	"Gray green_dark"		"Seaweed odor"	Pebble	17.5/NA	1.1/NA										2021/3/19	2021/3/19
PRA000115	SAA007917	ST024				Shizuoka_sed3-3_2018	Sediment	"River sediment"	2018	10	24	2018-10-24T14:40			Fair	Asia	Japan	"Riv. Tenryu (Iwata City), Shizuoka"	34.67916667		137.7961111														"25.8 "											"18.5 "	"0.73 "	Sand	"Gray green_dark"		"Seaweed odor"	Pebble	24.5/NA	2.2/NA										2021/3/19	2021/3/19
PRA000115	SAA007918	ST024				Shizuoka_sed5-1_2018	Sediment	"River sediment"	2018	10	24	2018-10-24T10:10			Fair	Asia	Japan	"End of Riv. Niino (Omaezaki City), Shizuoka"	34.62361111		138.1366667														"25.4 "	"20.4 "										"19.3 "	"0.25 "	Sand	Gray	Brown	"Seaweed odor"	None	20.9/NA	0.8/NA										2021/3/19	2021/3/19
PRA000115	SAA007919	ST024				Shizuoka_sed5-2_2018	Sediment	"River sediment"	2018	10	24	2018-10-24T10:30			Fair	Asia	Japan	"End of Riv. Niino (Omaezaki City), Shizuoka"	34.62361111		138.1366667														"22.3 "											"19.4 "	"0.26 "	Sand	Gray		"Seaweed odor"	None	21.7/NA	0.7/NA										2021/3/19	2021/3/19
PRA000115	SAA007920	ST024				Shizuoka_sed5-3_2018	Sediment	"River sediment"	2018	10	24	2018-10-24T10:50			Fair	Asia	Japan	"End of Riv. Niino (Omaezaki City), Shizuoka"	34.62361111		138.1366667														"23.5 "											"23 "	"0.25 "	Sand	Black		"Seaweed odor"	Leaves	21.8/NA	1.2/NA										2021/3/19	2021/3/19
PRA000115	SAA007921	ST023				Aichi_sed1-1_2018	Sediment	"Marine sediment"	2018	10	23	2018-10-23T13:10			Cloudy	Asia	Japan	"Nagoya Port, West of Shiomi Wharf, Aichi"	35.07111111		136.8691667														"19.2 "	"21.8 "								"1.8 "		"23 "	"11.7 "	Muddy	"Gray black"	Green_Light	"Hydrogen sulfide odor"	None	55.8/NA	9.1/NA										2021/3/19	2021/3/19
PRA000115	SAA007922	ST023				Aichi_sed1-2_2018	Sediment	"Marine sediment"	2018	10	23	2018-10-23T13:19			Cloudy	Asia	Japan	"Nagoya Port, West of Shiomi Wharf, Aichi"	35.07111111		136.8691667														"19.2 "	"21.8 "								"1.8 "		"23.2 "	"11.7 "	Muddy	"Gray black"	Green_Light	"Hydrogen sulfide odor"	None	66.4/NA	10.0/NA										2021/3/19	2021/3/19
PRA000115	SAA007923	ST023				Aichi_sed1-3_2018	Sediment	"Marine sediment"	2018	10	23	2018-10-23T13:28			Cloudy	Asia	Japan	"Nagoya Port, West of Shiomi Wharf, Aichi"	35.07111111		136.8691667														"19.2 "	"21.8 "								"1.8 "		"23.3 "	"11.7 "	Muddy	"Gray black"	Green_Light	"Hydrogen sulfide odor"	None	67.9/NA	10.4/NA										2021/3/19	2021/3/19
PRA000115	SAA007662	ST024				NagoyaCity_sed1-1_2018	Sediment	"River sediment"	2018	11	20	2018-11-20T10:00			Fair	Asia	Japan	"Minatoshinbashi Bridge, Riv. Hori (Nagoya City), Aichi"	35.09805556		136.8925														"14.5 "	"19.0 "												Sludge	Black	"Greenish brown"	"Rotten odor"	"Pebble; Shell"												2021/3/19	2021/3/19
PRA000115	SAA007924	ST024				NagoyaCity_sed1-2_2018	Sediment	"River sediment"	2018	11	20	2018-11-20T10:00			Fair	Asia	Japan	"Minatoshinbashi Bridge, Riv. Hori (Nagoya City), Aichi"	35.09805556		136.8925														"14.5 "	"19.0 "												Sludge	Black	"Greenish brown"	"Rotten odor"	"Pebble; Shell"												2021/3/19	2021/3/19
PRA000115	SAA007925	ST024				NagoyaCity_sed1-3_2018	Sediment	"River sediment"	2018	11	20	2018-11-20T10:00			Fair	Asia	Japan	"Minatoshinbashi Bridge, Riv. Hori (Nagoya City), Aichi"	35.09805556		136.8925														"14.5 "	"19.0 "												Sludge	Black	"Greenish brown"	"Rotten odor"	"Pebble; Shell"												2021/3/19	2021/3/19
PRA000115	SAA007663	ST023				Mie_sed1-1_2018	Sediment	"Marine sediment"	2018	10	30	2018-10-30T10:00			Fair	Asia	Japan	"Yokkaichi Port, Mie"	34.94944444		136.6530556														"21.9 "	"19.2 "								"1.5 "		"22.2 "	"13.0 "	Muddy	"Gray black"	"Gray black"	"Hydrogen sulfide odor_Faint"	"Almost none"	69.0/NA	9.4/NA										2021/3/19	2021/3/19
PRA000115	SAA007664	ST023				Mie_sed1-2_2018	Sediment	"Marine sediment"	2018	10	30	2018-10-30T10:20			Fair	Asia	Japan	"Yokkaichi Port, Mie"	34.94944444		136.6530556														"21.0 "	"19.2 "								"1.8 "		"22.0 "	"12.5 "	Muddy	"Gray black"	"Gray green"	"Hydrogen sulfide odor_Faint"	"Almost none"	72.0/NA	9.9/NA										2021/3/19	2021/3/19
PRA000115	SAA007665	ST023				Mie_sed1-3_2018	Sediment	"Marine sediment"	2018	10	30	2018-10-30T10:35			Fair	Asia	Japan	"Yokkaichi Port, Mie"	34.94944444		136.6530556														"21.5 "	"19.0 "								"1.5 "		"22.0 "	"8.0 "	Muddy	"Gray black"	"Gray green"	"Hydrogen sulfide odor_Faint"	Shell	57.0/NA	7.1/NA										2021/3/19	2021/3/19
PRA000115	SAA007666	ST023				Mie_sed2-1_2018	Sediment	"Marine sediment"	2018	10	22	2018-10-22T09:55			Fair	Asia	Japan	"Toba Port, Mie"	34.48083333		136.8486111														"23.5 "	"21.0 "								"3.0 "		"22.5 "	"6.0 "	Muddy	"Gray brown"	"Gray green"	"Mud smell_Faint"	"Shell; pieces of wood, leaves"	53.0/NA	10.0/NA										2021/3/19	2021/3/19
PRA000115	SAA007667	ST023				Mie_sed2-2_2018	Sediment	"Marine sediment"	2018	10	22	2018-10-22T10:20			Fair	Asia	Japan	"Toba Port, Mie"	34.48083333		136.8486111														"22.0 "	"22.0 "								"4.0 "		"22.0 "	"5.6 "	Muddy	"Gray brown"	"Gray green"	"Mud smell_Faint"	"Shell; pieces of wood, leaves"	52.0/NA	8.8/NA										2021/3/19	2021/3/19
PRA000115	SAA007668	ST023				Mie_sed2-3_2018	Sediment	"Marine sediment"	2018	10	22	2018-10-10T10:30			Fair	Asia	Japan	"Toba Port, Mie"	34.48083333		136.8486111														"22.0 "	"22.0 "								"4.0 "		"22.0 "	"5.4 "	Muddy	"Gray brown"	"Gray green"	"Mud smell_Faint"	"Shell; pieces of wood, leaves"	43.0/NA	6.2/NA										2021/3/19	2021/3/19
PRA000115	SAA007926	ST024				Shiga_sed1-1_2018	Sediment	"Lake sediment"	2018	10	22	2018-10-22T09:25			Fair	Asia	Japan	"Lake Biwa (center, offshore of Minamihira), Shiga"	35.18527778		135.9733333														"19.0 "	"18.2 "								"5.4 "		"8.0 "	"59.1 "	Muddy	"Gray black"	Green_Dark	"Swampy odor"	None	70.0/NA	11.9/NA										2021/3/19	2021/3/19
PRA000115	SAA007927	ST024				Shiga_sed1-2_2018	Sediment	"Lake sediment"	2018	10	22	2018-10-22T10:05			Fair	Asia	Japan	"Lake Biwa (center, offshore of Minamihira), Shiga"	35.18527778		135.9733333														"19.0 "	"19.8 "								"4.1 "		"8.2 "	"53.0 "	Muddy	"Gray black"	Green_Dark	"Swampy odor"	None	67.8/NA	11.4/NA										2021/3/19	2021/3/19
PRA000115	SAA007928	ST024				Shiga_sed1-3_2018	Sediment	"Lake sediment"	2018	10	22	2018-10-22T10:35			Fair	Asia	Japan	"Lake Biwa (center, offshore of Minamihira), Shiga"	35.18527778		135.9733333														"20.0 "	"20.1 "								"5.0 "		"8.3 "	"49.0 "	Muddy	"Gray black"	Green_Dark	"Swampy odor"	None	67.4/NA	11.5/NA										2021/3/19	2021/3/19
PRA000115	SAA007929	ST024				Shiga_sed2-1_2018	Sediment	"Lake sediment"	2018	10	10	2018-10-10T10:10			Cloudy	Asia	Japan	"Lake Biwa (center, offshore of Karasaki), Shiga"	35.04611111		135.8955556														"23.1 "	"22.3 "								"2.3 "		"22.2 "	"4.0 "	Muddy	"Gray black"	"Yellow green_Dark"	"Swampy odor"	"Aquatic plants"	66.1/NA	12.2/NA										2021/3/19	2021/3/19
PRA000115	SAA007930	ST024				Shiga_sed2-2_2018	Sediment	"Lake sediment"	2018	10	10	2018-10-10T10:40			Cloudy	Asia	Japan	"Lake Biwa (center, offshore of Karasaki), Shiga"	35.04611111		135.8955556														"22.7 "	"22.4 "								"3.0 "		"22.3 "	"4.0 "	Muddy	"Gray black"	"Yellow green_Dark"	"Swampy odor"	"Aquatic plants"	67.5/NA	12.8/NA										2021/3/19	2021/3/19
PRA000115	SAA007931	ST024				Shiga_sed2-3_2018	Sediment	"Lake sediment"	2018	10	10	2018-10-10T11:00			Cloudy	Asia	Japan	"Lake Biwa (center, offshore of Karasaki), Shiga"	35.04611111		135.8955556														"23.3 "	"22.3 "								"2.9 "		"22.0 "	"3.4 "	Muddy	"Gray black"	"Yellow green_Dark"	"Swampy odor"	"Aquatic plants"	55.7/NA	8.9/NA										2021/3/19	2021/3/19
PRA000115	SAA007932	ST023				Kyoto_sed1-1_2018	Sediment	"Marine sediment"	2018	10	17	2018-10-17T10:25			"Fair, occasionally rain"	Asia	Japan	"Miyazu Port, Kyoto"	35.58305556		135.2138889														"19.3 "	"22.9 "								"7.0 "		"20.7 "	"10 "	Muddy	"Gray black"	Clear	"Seaweed odor"	None	28.3/NA	3.2/NA										2021/3/19	2021/3/19
PRA000115	SAA007933	ST023				Kyoto_sed1-2_2018	Sediment	"Marine sediment"	2018	10	17	2018-10-17T10:40			"Fair, occasionally rain"	Asia	Japan	"Miyazu Port, Kyoto"	35.58305556		135.2138889														"18.9 "	"22.9 "								"7.0 "		"21.7 "	"22 "	Muddy	"Gray black"	Clear	"Seaweed odor"	None	51.5/NA	9.3/NA										2021/3/19	2021/3/19
PRA000115	SAA007934	ST023				Kyoto_sed1-3_2018	Sediment	"Marine sediment"	2018	10	17	2018-10-17T11:07			"Fair, occasionally rain"	Asia	Japan	"Miyazu Port, Kyoto"	35.58305556		135.2138889														"20.0 "	"22.9 "								"8.0 "		"21.5 "	"22 "	Muddy	"Gray black"	Clear	"Seaweed odor"	None	53.9/NA	9.1/NA										2021/3/19	2021/3/19
PRA000115	SAA007938	ST024				Osaka_sed1-1_2018	Sediment	"River sediment"	2018	11	13	2018-11-13T11:45			Cloudy	Asia	Japan	"Mouth of Riv. Yamato (Sakai City), Osaka"	34.60833333		135.4325														"18.2 "	"19.8 "								"2.2 "		"20.5 "	"2.9 "	Silt	Black	Clear	"Tar odor"	None	40.8/NA	8.2/NA										2021/3/19	2021/3/19
PRA000115	SAA007939	ST024				Osaka_sed1-2_2018	Sediment	"River sediment"	2018	11	13	2018-11-13T10:25			Cloudy	Asia	Japan	"Mouth of Riv. Yamato (Sakai City), Osaka"	34.60833333		135.4325														"17.6 "	"19.6 "								"1.5 "		"20.7 "	"1.5 "	"Sandy silt"	Black	Clear	"Tar odor"	"Vegetative pieces"	48.4/NA	12.0/NA										2021/3/19	2021/3/19
PRA000115	SAA007940	ST024				Osaka_sed1-3_2018	Sediment	"River sediment"	2018	11	13	2018-11-13T11:05			Cloudy	Asia	Japan	"Mouth of Riv. Yamato (Sakai City), Osaka"	34.60833333		135.4325														"17.8 "	"19.7 "								"1.2 "		"20 "	"1.7 "	Silt	"Olive black"	Clear	"Tar odor"	"Vegetative pieces"	29.4/NA	4.3/NA										2021/3/19	2021/3/19
PRA000115	SAA007669	ST023				OsakaCity_sed1-1_2018	Sediment	"Marine sediment"	2018	11	12	2018-11-12T11:45			Cloudy	Asia	Japan	"Osaka Port, Osaka"	34.65861111		135.4313889														"19.6 "	"19.0 "								"3.0 "		"20.4 "	"12.8 "	Sludge	Black	"Grayish yellow_Light"	"Hydrogen sulfide odor"	None	59.6/NA	11.4/NA										2021/3/19	2021/3/19
PRA000115	SAA007670	ST023				OsakaCity_sed1-2_2018	Sediment	"Marine sediment"	2018	11	12	2018-11-12T11:07			Cloudy	Asia	Japan	"Osaka Port, Osaka"	34.65861111		135.4313889														"18.3 "	"19.6 "								"3.0 "		"20.3 "	"12.9 "	Sludge	Black	"Grayish yellow_Light"	"Hydrogen sulfide odor"	None	65.1/NA	12.3/NA										2021/3/19	2021/3/19
PRA000115	SAA007671	ST023				OsakaCity_sed1-3_2018	Sediment	"Marine sediment"	2018	11	12	2018-11-12T12:00			Cloudy	Asia	Japan	"Osaka Port, Osaka"	34.65861111		135.4313889														"18.9 "	"19.6 "								"3.1 "		"19.8 "	"12.9 "	Sludge	Black	"Grayish yellow_Light"	"Hydrogen sulfide odor"	None	57.5/NA	10.8/NA										2021/3/19	2021/3/19
PRA000115	SAA007941	ST024				OsakaCity_sed2-1_2018	Sediment	"River sediment"	2018	11	16	2018-11-16T09:38			Fair	Asia	Japan	"Kema-bashi Bridge, Riv. Oh (Osaka City), Osaka"	34.71776		135.51961														"16.0 "	"16.0 "										"15.2 "	"1.95 "	Sludge	Gray	"Grayish yellow_Light"	Odorless	Shellfish	47.2/NA	10.0/NA										2021/3/19	2021/3/19
PRA000115	SAA007942	ST024				OsakaCity_sed2-2_2018	Sediment	"River sediment"	2018	11	16	2018-11-16T11:05			Fair	Asia	Japan	"Kema-bashi Bridge, Riv. Oh (Osaka City), Osaka"	34.71776		135.51961														"16.4 "	"16.0 "										"16.1 "	"1.6 "	Sludge	Gray	"Grayish yellow_Light"	Odorless	Shellfish	46.6/NA	8.0/NA										2021/3/19	2021/3/19
PRA000115	SAA007943	ST024				OsakaCity_sed2-3_2018	Sediment	"River sediment"	2018	11	16	2018-11-16T10:25			Fair	Asia	Japan	"Kema-bashi Bridge, Riv. Oh (Osaka City), Osaka"	34.71776		135.51961														18.7	16.1										16.2	3	Sludge	Gray	"Grayish yellow_Dark"	Odorless	Shellfish	36.7/NA	6.4/NA										2021/03/19	2021/03/19
PRA000115	SAA007672	ST023				Hyogo_sed1-1_2018	Sediment	"Marine sediment"	2018	10	18	2018-10-18T11:29			Fair	Asia	Japan	"Offshore of Himeji, Hyogo"	34.76194444		134.6697222														"21.8 "	"23.9 "								"2.0 "		"23 "	"11.0 "	Silt	"Gray green"	"Greenish brown"	"Hydrogen sulfide odor_Faint"	None												2021/3/19	2021/3/19
PRA000115	SAA007673	ST023				Hyogo_sed1-2_2018	Sediment	"Marine sediment"	2018	10	18	2018-10-18T11:13			Fair	Asia	Japan	"Offshore of Himeji, Hyogo"	34.76194444		134.6697222														"21.8 "	"23.5 "								"2.1 "		"23.1 "	"10.0 "	Silt	"Gray green"	"Greenish brown"	"Hydrogen sulfide odor_Faint"	None												2021/3/19	2021/3/19
PRA000115	SAA007674	ST023				Hyogo_sed1-3_2018	Sediment	"Marine sediment"	2018	10	18	2018-10-18T10:59			Fair	Asia	Japan	"Offshore of Himeji, Hyogo"	34.76194444		134.6697222														"22.0 "	"23.3 "								"2.2 "		"23.5 "	"8.0 "	Silt	"Gray green"	"Greenish brown"	"Hydrogen sulfide odor_Faint"	None												2021/3/19	2021/3/19
PRA000115	SAA007675	ST023				Hyogo_sed4-1_2018	Sediment	"Marine sediment"	2018	10	18	2018-10-18T13:30			Fair	Asia	Japan	"Port entrance of Takasago-nishi Port, Hyogo"	34.73777778		134.7852778														"23.1 "	"24.2 "								"2.0 "		"22 "	"12.0 "	Silt	"Gray green_dark"	"Greenish brown"	"Hydrogen sulfide odor"	None												2021/3/19	2021/3/19
PRA000115	SAA007676	ST023				Hyogo_sed4-2_2018	Sediment	"Marine sediment"	2018	10	18	2018-10-18T13:42			Fair	Asia	Japan	"Port entrance of Takasago-nishi Port, Hyogo"	34.73777778		134.7852778														"23.2 "	"24.4 "								"2.2 "		"21.8 "	"11.0 "	Silt	"Gray green_dark"	"Greenish brown"	"Earthy odor"	None												2021/3/19	2021/3/19
PRA000115	SAA007677	ST023				Hyogo_sed4-3_2018	Sediment	"Marine sediment"	2018	10	18	2018-10-18T13:57			Fair	Asia	Japan	"Port entrance of Takasago-nishi Port, Hyogo"	34.73777778		134.7852778														"22.9 "	"24.5 "								"2.2 "		"23.1 "	"10.0 "	"Sand (Mixed with silt)"	"Gray yellow green"	"Greenish brown"	Odorless	None												2021/3/19	2021/3/19
PRA000115	SAA007944	ST023				Hyogo_sed5-1_2018	Sediment	"Marine sediment"	2018	10	18	2018-10-18T12:02			Fair	Asia	Japan	"Aboshi Port, Hyogo"	34.77472222		134.6066667														"22.0 "	"23.3 "								"1.9 "		"22.5 "	"8 "	Silt	"Gray green_dark"	"Greenish brown"	"Hydrogen sulfide odor"	None												2021/3/19	2021/3/19
PRA000115	SAA007945	ST023				Hyogo_sed5-2_2018	Sediment	"Marine sediment"	2018	10	18	2018-10-18T12:12			Fair	Asia	Japan	"Aboshi Port, Hyogo"	34.77472222		134.6066667														"21.8 "	"23.7 "								"1.8 "		"22.5 "	"6 "	Silt	"Gray green"	"Greenish brown"	"Hydrogen sulfide odor"	None												2021/3/19	2021/3/19
PRA000115	SAA007946	ST023				Hyogo_sed5-3_2018	Sediment	"Marine sediment"	2018	10	18	2018-10-18T12:27			Fair	Asia	Japan	"Aboshi Port, Hyogo"	34.77472222		134.6066667														"22.5 "	"24.1 "								"1.7 "		"22 "	"7 "	Silt	"Gray green_dark"	"Greenish brown"	"Hydrogen sulfide odor"	None												2021/3/19	2021/3/19
PRA000115	SAA007947	ST024				Nara_sed1-1_2018	Sediment	"River sediment"	2018	10	2	2018-10-02T10:40			Fair	Asia	Japan	"Riv. Yamato (Oji Town), Nara"	34.58583333		135.6833333														"24.0 "	"19.0 "										"19.5 "	"0.3 "	Muddy	"Blackish brown"	"Yellowish brown_Light"	"Earthy odor"	None	27.0/NA	1.8/NA										2021/3/19	2021/3/19
PRA000115	SAA007948	ST024				Nara_sed1-2_2018	Sediment	"River sediment"	2018	10	2	2018-10-02T10:40			Fair	Asia	Japan	"Riv. Yamato (Oji Town), Nara"	34.58583333		135.6833333														"24.0 "	"19.0 "										"19 "	"0.3 "	Sandy	Brown	"Yellowish brown_Light"	"Sewage odor"	None	10.0/NA	0.4/NA										2021/3/19	2021/3/19
PRA000115	SAA007949	ST024				Nara_sed1-3_2018	Sediment	"River sediment"	2018	10	2	2018-10-02T10:40			Fair	Asia	Japan	"Riv. Yamato (Oji Town), Nara"	34.58583333		135.6833333														"24.0 "	"19.0 "										"20 "	"0.3 "	Sandy	Brown	"Yellowish brown_Light"	"Swampy odor"	None	10.0/NA	0.4/NA										2021/3/19	2021/3/19
PRA000115	SAA007950	ST024				Wakayama_sed1-1_2018	Sediment	"River sediment"	2018	11	13	2018-11-13T14:40			Cloudy	Asia	Japan	"Kinokawa-ohashi Bridge, Mouth of Riv. Kinokawa (Wakayama City), Wakayama"	34.23		135.1561111														"18.7 "	"20.1 "								"2.0 "		"20.8 "	"3.5 "	Sandy	Gray	"Greenish blue"	"Seaweed odor"	None	20.7/NA	1.8/NA										2021/3/19	2021/3/19
PRA000115	SAA007951	ST024				Wakayama_sed1-2_2018	Sediment	"River sediment"	2018	11	13	2018-11-13T13:45			Cloudy	Asia	Japan	"Kinokawa-ohashi Bridge, Mouth of Riv. Kinokawa (Wakayama City), Wakayama"	34.23		135.1561111														"19.3 "	"20.8 "								"2.0 "		"20.2 "	"5.3 "	Sandy	Gray	"Greenish blue"	"Seaweed odor"	"Pebble; Shell"	18.8/NA	1.5/NA										2021/3/19	2021/3/19
PRA000115	SAA007952	ST024				Wakayama_sed1-3_2018	Sediment	"River sediment"	2018	11	13	2018-11-13T13:05			Cloudy	Asia	Japan	"Kinokawa-ohashi Bridge, Mouth of Riv. Kinokawa (Wakayama City), Wakayama"	34.23		135.1561111														"18.0 "	"20.4 "								"3.0 "		"20.6 "	"3.9 "	"Sandy (partly muddy)"	"Gray brown"	"Greenish blue"	"Seaweed odor"	"Pebble; Shell"	18.7/NA	2.2/NA										2021/3/19	2021/3/19
PRA000115	SAA007678	ST023				Okayama_sed1-1_2018	Sediment	"Marine sediment"	2018	11	13	2018-11-13T11:00			Cloudy	Asia	Japan	"Offshore of Mizushima, Okayama"	34.48055556		133.665														"18.0 "	"19.0 "								"1.8 "		"19.7 "	"11.0 "	Ooze	"Gray green"	"Yellow green_Dark"	"Earthy odor"	"Small pieces of shell"	46.1/NA	5.8/NA										2021/3/19	2021/3/19
PRA000115	SAA007679	ST023				Okayama_sed1-2_2018	Sediment	"Marine sediment"	2018	11	13	2018-11-13T11:20			Cloudy	Asia	Japan	"Offshore of Mizushima, Okayama"	34.48055556		133.665														"18.0 "	"19.0 "								"1.8 "		"19.7 "	"11.4 "	Ooze	"Gray green"	"Yellow green_Dark"	"Earthy odor"	"Small pieces of shell"	48.9/NA	6.4/NA										2021/3/19	2021/3/19
PRA000115	SAA007680	ST023				Okayama_sed1-3_2018	Sediment	"Marine sediment"	2018	11	13	2018-11-13T12:05			Cloudy	Asia	Japan	"Offshore of Mizushima, Okayama"	34.48055556		133.665														"18.0 "	"19.0 "								"1.8 "		"19.6 "	"9.0 "	Ooze	"Gray green"	"Yellow green_Dark"	"Earthy odor"	"Small pieces of shell"	48.5/NA	6.3/NA										2021/3/19	2021/3/19
PRA000115	SAA007681	ST023				Yamaguchi_sed1-1_2018	Sediment	"Marine sediment"	2018	10	19	2018-10-19T13:45			Fair	Asia	Japan	"Tokuyama Bay, Yamaguchi"	33.99361111		131.7505556														"21.5 "	"21.3 "								"6.5 "		"19 "	"23.0 "	Silt	"Gray yellow green"	"Blue green"	"Hydrogen sulfide odor_Faint"	None	61.0/NA	10.7/NA										2021/3/19	2021/3/19
PRA000115	SAA007682	ST023				Yamaguchi_sed1-2_2018	Sediment	"Marine sediment"	2018	10	19	2018-10-19T13:55			Fair	Asia	Japan	"Tokuyama Bay, Yamaguchi"	33.99361111		131.7505556														"21.5 "	"21.3 "								"6.5 "		"19 "	"23.0 "	Silt	"Gray yellow green"	"Blue green"	"Hydrogen sulfide odor_Faint"	None	57.8/NA	10.3/NA										2021/3/19	2021/3/19
PRA000115	SAA007683	ST023				Yamaguchi_sed1-3_2018	Sediment	"Marine sediment"	2018	10	19	2018-10-19T14:04			Fair	Asia	Japan	"Tokuyama Bay, Yamaguchi"	33.99361111		131.7505556														"21.5 "	"21.3 "								"6.5 "		"19 "	"23.0 "	Silt	"Gray yellow green"	"Blue green"	"Hydrogen sulfide odor_Faint"	None	56.7/NA	10.0/NA										2021/3/19	2021/3/19
PRA000115	SAA007684	ST023				Yamaguchi_sed3-1_2018	Sediment	"Marine sediment"	2018	11	1	2018-11-01T11:15			Fair	Asia	Japan	"Offshore of Hagi, Yamaguchi"	34.43805556		131.3794444														"20.0 "	"20.9 "								"9.0 "		"20 "	"26.4 "	"Fine sand"	"Light gray"	"Blue green"	Odorless	None	35.7/NA	5.8/NA										2021/3/19	2021/3/19
PRA000115	SAA007685	ST023				Yamaguchi_sed3-2_2018	Sediment	"Marine sediment"	2018	11	1	2018-11-01T11:25			Fair	Asia	Japan	"Offshore of Hagi, Yamaguchi"	34.43805556		131.3794444														"20.0 "	"20.9 "								"9.0 "		"20 "	"26.4 "	"Fine sand"	"Light gray"	"Blue green"	Odorless	None	34.2/NA	5.8/NA										2021/3/19	2021/3/19
PRA000115	SAA007686	ST023				Yamaguchi_sed3-3_2018	Sediment	"Marine sediment"	2018	11	1	2018-11-01T11:36			Fair	Asia	Japan	"Offshore of Hagi, Yamaguchi"	34.43805556		131.3794444														"20.0 "	"20.9 "								"9.0 "		"20 "	"26.4 "	"Fine sand"	"Light gray"	"Blue green"	Odorless	None	33.7/NA	5.8/NA										2021/3/19	2021/3/19
PRA000115	SAA007953	ST023				Kagawa_sed1-1_2018	Sediment	"Marine sediment"	2018	10	23	2018-10-23T09:05			Cloudy	Asia	Japan	"Takamatsu Port, Kagawa"	34.34972222		134.0788889														"20.8 "	"22.3 "								"2.0 "		"22.2 "	"2.4 "	Muddy	Black	Green	"Hydrogen sulfide odor"	"Mostly vegetative pieces; partly pieces of plastics and shell"	57.2/NA	14.8/NA										2021/3/19	2021/3/19
PRA000115	SAA007954	ST023				Kagawa_sed1-2_2018	Sediment	"Marine sediment"	2018	10	23	2018-10-23T09:20			Cloudy	Asia	Japan	"Takamatsu Port, Kagawa"	34.34972222		134.0788889														"21.0 "	"22.2 "								"1.5 "		"22.2 "	"6.1 "	Sandy	"Olive black"	Green	"Fish odor"	"Mostly vegetative pieces; partly pieces of shell"	25.1/NA	1.7/NA										2021/3/19	2021/3/19
PRA000115	SAA007955	ST023				Kagawa_sed1-3_2018	Sediment	"Marine sediment"	2018	10	23	2018-10-23T09:36			Cloudy	Asia	Japan	"Takamatsu Port, Kagawa"	34.34972222		134.0788889														"20.0 "	"22.2 "								"2.0 "		"22.5 "	"5.5 "	Muddy	Black	Green	"Hydrogen sulfide odor"	None	36.7/NA	5.9/NA										2021/3/19	2021/3/19
PRA000115	SAA007956	ST023				Kagawa_sed2_2018	Sediment	"Marine sediment"	2018	10	29	2018-10-29T10:00			Fair	Asia	Japan	"Sakaide Port, Kagawa"	34.36722222		133.8738889														"19.2 "	"21.4 "								"2.5 "			"9.7 "	Sandy	Gray	"Blue green"	Odorless	"Pebble; Shell"	26.0/NA	1.3/NA										2021/3/19	2021/3/19
PRA000115	SAA007957	ST023				Ehime_sed1-1_2018	Sediment	"Marine sediment"	2018	10	29	2018-10-29T10:30			Fair	Asia	Japan	"Niihama Port, Ehime"	33.98777778		133.3144444														"22.5 "	"21.0 "								"2.0 "		"19.6 "	"7.3 "	"Fine sand"	"Gray green_dark"	"Yellow green_Dark"	Odorless	None	31.7/NA	2.5/NA										2021/3/19	2021/3/19
PRA000115	SAA007958	ST023				Ehime_sed1-2_2018	Sediment	"Marine sediment"	2018	10	29	2018-10-29T10:40			Fair	Asia	Japan	"Niihama Port, Ehime"	33.98777778		133.3144444														"22.5 "	"21.0 "								"2.0 "		"19.6 "	"7.3 "	"Fine sand"	"Gray green_dark"	"Yellow green_Dark"	Odorless	None	32.6/NA	2.5/NA										2021/3/19	2021/3/19
PRA000115	SAA007959	ST023				Ehime_sed1-3_2018	Sediment	"Marine sediment"	2018	10	29	2018-10-29T10:50			Fair	Asia	Japan	"Niihama Port, Ehime"	33.98777778		133.3144444														"22.5 "	"21.0 "								"2.0 "		"19.6 "	"7.3 "	"Fine sand"	"Gray green_dark"	"Yellow green_Dark"	Odorless	None	31.0/NA	2.5/NA										2021/3/19	2021/3/19
PRA000115	SAA007687	ST023				KitakyushuCity_sed1-1_2018	Sediment	"Marine sediment"	2018	10	30	2018-10-30T10:30			Fair	Asia	Japan	"Dokai Bay (Kitakyushu City), Fukuoka"	33.90388889		130.8158333														"19.1 "	"19.9 "								"3.5 "		"18.6 "	"9.9 "	Mud	Black	Clear	Odorless	None	50.8/NA	9.1/NA										2021/3/19	2021/3/19
PRA000115	SAA007688	ST023				KitakyushuCity_sed1-1_2018	Sediment	"Marine sediment"	2018	10	30	2018-10-30T10:10			Fair	Asia	Japan	"Dokai Bay (Kitakyushu City), Fukuoka"	33.90388889		130.8158333														"19.1 "	"19.9 "								"3.5 "		"19.1 "	"10.3 "	Mud	Black	Clear	Odorless	None	55.7/NA	10.2/NA										2021/3/19	2021/3/19
PRA000115	SAA007689	ST023				KitakyushuCity_sed1-1_2018	Sediment	"Marine sediment"	2018	10	30	2018-10-30T09:45			Fair	Asia	Japan	"Dokai Bay (Kitakyushu City), Fukuoka"	33.90388889		130.8158333														"19.1 "	"19.9 "								"3.5 "		"19.5 "	"7.2 "	Mud	Black	Clear	Odorless	None	62.6/NA	20.6/NA										2021/3/19	2021/3/19
PRA000115	SAA007960	ST023				FukuokaCity_sed1-1_2018	Sediment	"Marine sediment"	2018	10	16	2018-10-16T09:05			Fair	Asia	Japan	"Hakata Bay, Fukuoka"	33.60833333		130.3297222														"18.9 "	"21.5 "								"3.2 "		"22 "	"7.4 "	Silt	Gray	Green_Dark	Odorless	None	41.0/NA	9.6/NA										2021/3/19	2021/3/19
PRA000115	SAA007961	ST023				FukuokaCity_sed1-2_2018	Sediment	"Marine sediment"	2018	10	16	2018-10-16T09:18			Fair	Asia	Japan	"Hakata Bay, Fukuoka"	33.60833333		130.3297222														"19.3 "	"21.5 "								"3.3 "		"23 "	"7.7 "	Silt	Gray	Green_Dark	Odorless	None	43.0/NA	9.1/NA										2021/3/19	2021/3/19
PRA000115	SAA007962	ST023				FukuokaCity_sed1-3_2018	Sediment	"Marine sediment"	2018	10	16	2018-10-16T09:28			Fair	Asia	Japan	"Hakata Bay, Fukuoka"	33.60833333		130.3297222														"20.2 "	"21.5 "								"3.5 "		"22.5 "	"7.8 "	Silt	Gray	Green_Dark	Odorless	None	42.0/NA	9.5/NA										2021/3/19	2021/3/19
PRA000115	SAA007963	ST023				Saga_sed1-1_2018	Sediment	"Marine sediment"	2018	10	31	2018-10-31T11:02			Cloudy	Asia	Japan	"Imari Bay, Saga"	33.34		129.8208333														"14.0 "	"18.5 "								"2.5 "		"20 "	"13.9 "	Muddy	"Gray black"	Clear	"Earthy odor"	None	63.3/NA	11.5/NA										2021/3/19	2021/3/19
PRA000115	SAA007964	ST023				Saga_sed1-2_2018	Sediment	"Marine sediment"	2018	10	31	2018-10-31T11:21			Cloudy	Asia	Japan	"Imari Bay, Saga"	33.34		129.8208333														"14.0 "	"18.5 "								"2.8 "		"20 "	"14.4 "	Muddy	"Gray black"	Clear	"Earthy odor"	None	64.0/NA	11.3/NA										2021/3/19	2021/3/19
PRA000115	SAA007965	ST023				Saga_sed1-3_2018	Sediment	"Marine sediment"	2018	10	31	2018-10-31T11:40			Cloudy	Asia	Japan	"Imari Bay, Saga"	33.34		129.8208333														"14.0 "	"18.5 "								"2.9 "		"20 "	"15.3 "	Muddy	"Gray black"	Clear	"Earthy odor"	None	61.1/NA	10.7/NA										2021/3/19	2021/3/19
PRA000115	SAA007966	ST024				Oita_sed1-1_2018	Sediment	"River sediment"	2018	11	19	2018-11-19T10:15			Cloudy	Asia	Japan	"Mouth of Riv. Oita, Oita"	33.25722222		131.6175														"18.1 "	"17.5 "										"19.7 "	"2.6 "	Sandy	Black	"Grayish green_Dark"	Odorless	"Pieces of shell; shell; Gravels; pieces of wood"	20.1/NA	1.2/NA										2021/3/19	2021/3/19
PRA000115	SAA007967	ST024				Oita_sed1-2_2018	Sediment	"River sediment"	2018	11	19	2018-11-19T09:47			Cloudy	Asia	Japan	"Mouth of Riv. Oita, Oita"	33.25722222		131.6175														"15.6 "	"17.4 "										"20 "	"3.5 "	Sandy	Black	"Grayish green_Dark"	Odorless	"Pieces of shell; shell; Gravels; pieces of wood"	21.2/NA	1.2/NA										2021/3/19	2021/3/19
PRA000115	SAA007968	ST024				Oita_sed1-3_2018	Sediment	"River sediment"	2018	11	19	2018-11-19T10:40			Cloudy	Asia	Japan	"Mouth of Riv. Oita, Oita"	33.25722222		131.6175														"16.3 "	"16.7 "										"20 "	"3 "	Sandy	Black	"Grayish green_Dark"	Odorless	"Pieces of shell; shell; Gravels; pieces of wood"	19.1/NA	1.0/NA										2021/3/19	2021/3/19
PRA000116	SAA007633	ST024				Hokkaido_sed2-1_2018	Sediment	"River sediment"	2018	11	5	2018-11-05T14:33			Cloudy	Asia	Japan	"Ishikarikakokyo Bridge, Mouth of Riv. Ishikari (Ishikari City), Hokkaido"	43.22861111		141.3519444														14.6	9.1										14.1			Brown	Brown			38.5/NA	9.8/NA										2021/5/24	2021/5/24
PRA000116	SAA007634	ST024				Hokkaido_sed2-2_2018	Sediment	"River sediment"	2018	11	5	2018-11-05T14:44			Cloudy	Asia	Japan	"Ishikarikakokyo Bridge, Mouth of Riv. Ishikari (Ishikari City), Hokkaido"	43.22861111		141.3519444														14.6	9.1										13.6			Brown	Brown			43.9/NA	14.2/NA										2021/5/24	2021/5/24
PRA000116	SAA007635	ST024				Hokkaido_sed2-3_2018	Sediment	"River sediment"	2018	11	5	2018-11-05T14:56			Cloudy	Asia	Japan	"Ishikarikakokyo Bridge, Mouth of Riv. Ishikari (Ishikari City), Hokkaido"	43.22861111		141.3519444														14.6	9.1										13.7			Brown	Brown			45.9/NA	8.9/NA										2021/5/24	2021/5/24
PRA000116	SAA008030	ST024				Hokkaido_sed2-123_2018	Sediment	"River sediment"	2018	11	5	"2018-11-05T14:33; T14:44; T14:56"			Cloudy	Asia	Japan	"Ishikarikakokyo Bridge, Mouth of Riv. Ishikari (Ishikari City), Hokkaido"	43.22861111		141.3519444														14.6	9.1										"14.1; 13.6;13.7"			Brown	Brown			"38.5; 43.9; 45.9 (Each)/ 52.8 (Mixed)"	"9.8; 14.2; 8.9 (Each)/ 7.1 (Mixed)"									"n=3 pooled: SAA007633, SAA007634, SAA007635"	2021/5/24	2021/5/24
PRA000116	SAA007636	ST023				Hokkaido_sed3-1_2018	Sediment	"Marine sediment"	2018	9	12	2018-09-12T10:50			Fair	Asia	Japan	"Tomakomai Port, Hokkaido"	42.63138889		141.6288889														19.6	19.5								3.5		17	16		Black	"Greenish blue"	"Hydrogen sulfide odor"		49.0/NA	9.0/NA										2021/5/24	2021/5/24
PRA000116	SAA007637	ST023				Hokkaido_sed3-2_2018	Sediment	"Marine sediment"	2018	9	12	2018-09-12T11:05			Fair	Asia	Japan	"Tomakomai Port, Hokkaido"	42.63138889		141.6288889														20.1	19.5								3.5		17	16		Black	"Greenish blue"	"Hydrogen sulfide odor"		35.8/NA	4.6/NA										2021/5/24	2021/5/24
PRA000116	SAA007638	ST023				Hokkaido_sed3-3_2018	Sediment	"Marine sediment"	2018	9	12	2018-09-12T11:20			Fair	Asia	Japan	"Tomakomai Port, Hokkaido"	42.63138889		141.6288889														19.9	19.5								3.5		17	16		Black	"Greenish blue"	"Hydrogen sulfide odor"		34.3/NA	4.1/NA										2021/5/24	2021/5/24
PRA000116	SAA008031	ST023				Hokkaido_sed3-123_2018	Sediment	"Marine sediment"	2018	9	12	"2018-09-12T10:50; T11:05; T11:20"			Fair	Asia	Japan	"Tomakomai Port, Hokkaido"	42.63138889		141.6288889														"19.6; 20.1; 19.9"	19.5								3.5		17	16		Black	"Greenish blue"	"Hydrogen sulfide odor"		"49.0; 35.8; 34.3 (Each)/ 46.9 (Mixed)"	"9.0; 4.6; 4.1 (Each)/ 4.3 (Mixed)"									"n=3 pooled: SAA007636, SAA007637, SAA007638"	2021/5/24	2021/5/24
PRA000116	SAA007873	ST024				Iwate_sed1-1_2018	Sediment	"River sediment"	2018	10	10	2018-10-10T10:05			Cloudy	Asia	Japan	"Riv. Toyosawa (Hanamaki City), Iwate"	39.38166667		141.1191667														17.9	15.9										15.5	0.15	Sand	Brown	Green_Light	Odorless	None	25.3/NA	2.2/NA										2021/5/24	2021/5/24
PRA000116	SAA007874	ST024				Iwate_sed1-2_2018	Sediment	"River sediment"	2018	10	10	2018-10-10T11:00			Cloudy	Asia	Japan	"Riv. Toyosawa (Hanamaki City), Iwate"	39.38166667		141.1191667														18	16										15.7	0.15	"Sand (Mixed with pebble)"	Brown	Green_Light	"River algae smell"	None	23.7/NA	1.8/NA									"This sample was used as the pooled sample:SAA008032 for chemical analysis"	2021/5/24	2021/5/24
PRA000116	SAA007875	ST024				Iwate_sed1-3_2018	Sediment	"River sediment"	2018	10	10	2018-10-10T11:00			Cloudy	Asia	Japan	"Riv. Toyosawa (Hanamaki City), Iwate"	39.38166667		141.1191667														18	16										15.5	0.15	"Sand (Mixed with pebble)"	Brown	Green_Light	"River algae smell"	None	21.1/NA	1.6/NA									"This sample was used as the pooled sample:SAA008032 for chemical analysis"	2021/5/24	2021/5/24
PRA000116	SAA008032	ST024				Iwate_sed1-123_2018	Sediment	"River sediment"	2018	10	10	"2018-10-10T10:05; T11:00; T11:00"			Cloudy	Asia	Japan	"Riv. Toyosawa (Hanamaki City), Iwate"	39.38166667		141.1191667														"17.9; 18.0; 18.0"	"15.9; 16.0; 16.0"										"15.5; 15.7; 15.5"	0.15	"Sand (Mixed with pebble)"	Brown	Green_Light	"Odorless; River algae smell; River algae smell"	None	"25.3; 23.7; 21.1 (Each)/24.9 (Mixed)"	"2.2; 1.8; 1.6 (Each)/1.5 (Mixed)"									"n=3 pooled: SAA007873; SAA007874; SAA007875"	2021/5/24	2021/5/24
PRA000116	SAA008033	ST023				Miyagi_sed1_1_2018	Sediment	"Marine sediment"	2018	10	16	2018-10-16T10:17			Fair	Asia	Japan	"Sendai Bay (Matsushima Bay), Miyagi"	38.35333333		141.0975														21.2	18.2								2.2		19.2	4.7	Muddy	"Graysih green"	Clear	"Seaweed odor_Faint"	Shell	57.8	10.7									"This sample was used as the pooled sample:SAA008036 for chemical analysis"	2021/5/24	2021/5/24
PRA000116	SAA008034	ST023				Miyagi_sed1_2_2018	Sediment	"Marine sediment"	2018	10	16	2018-10-16T10:52			Fair	Asia	Japan	"Sendai Bay (Matsushima Bay), Miyagi"	38.35333333		141.0975														21	18								2.2		19	4.5	Muddy	"Graysih green"	Clear	"Seaweed odor_Faint"	Shell	61.1	11.8									"This sample was used as the pooled sample:SAA008036 for chemical analysis"	2021/5/24	2021/5/24
PRA000116	SAA008035	ST023				Miyagi_sed1_3_2018	Sediment	"Marine sediment"	2018	10	16	2018-10-16T11:08			Fair	Asia	Japan	"Sendai Bay (Matsushima Bay), Miyagi"	38.35333333		141.0975														19.1	18								2.1		19.2	4.6	Muddy	"Graysih green"	Clear	"Seaweed odor_Faint"	Shell	57.2	11.2									"This sample was used as the pooled sample:SAA008036 for chemical analysis"	2021/5/24	2021/5/24
PRA000116	SAA008036	ST023				Miyagi_sed1_123_2018	Sediment	"Marine sediment"	2018	10	16	"2018-10-16T10:17; T10:52; T11:08"			Fair	Asia	Japan	"Sendai Bay (Matsushima Bay), Miyagi"	38.35333333		141.0975														"21.2; 21.0; 19.1"	"18.2; 18.0; 18.0"								"2.2; 2.2; 2.1"		"19.0; 19.0; 19.2"	"4.7; 4.5; 4.6"	Muddy	"Graysih green"	Clear	"Seaweed odor_Faint"	Shell	"57.8; 61.1; 57.2 (Each)/ 67.5 (Mixed)"	"10.7; 11.8; 11.2 (Each)/ 8.7 (Mixed)"									"n=3 pooled: SAA008033, SAA008034, SAA008035"	2021/5/24	2021/5/24
PRA000116	SAA007876	ST024				Sendai_sed1_1_2018	Sediment	"River sediment"	2018	11	5	2018-11-05T10:30			Cloudy	Asia	Japan	"Hirose-ohashi Bridge, Riv. Hirose (Sendai City), Miyagi"	38.21333333		140.9088889														13.7	12.8										14	0.23	Sandy	Brown	Clear	"Swampy odor_Faint"	None	9.9/NA	1.0/NA										2021/5/24	2021/5/24
PRA000116	SAA007877	ST024				Sendai_sed1_2_2018	Sediment	"River sediment"	2018	11	5	2018-11-05T09:47			Cloudy	Asia	Japan	"Hirose-ohashi Bridge, Riv. Hirose (Sendai City), Miyagi"	38.21333333		140.9088889														13.7	12.7										14	0.31	Sandy	Brown	Clear	"Swampy odor_Faint"	None	10.4/NA	1.1/NA										2021/5/24	2021/5/24
PRA000116	SAA007878	ST024				Sendai_sed1_3_2018	Sediment	"River sediment"	2018	11	5	2018-11-05T10:15			Cloudy	Asia	Japan	"Hirose-ohashi Bridge, Riv. Hirose (Sendai City), Miyagi"	38.21333333		140.9088889														13.7	12.7										14	0.75	Sandy	Brown	Clear	"Swampy odor_Faint"	None	16.4/NA	1.3/NA										2021/5/24	2021/5/24
PRA000116	SAA008037	ST024				Sendai_sed1_123_2018	Sediment	"River sediment"	2018	11	5	"2018-11-05T10:30; T09:47; T10:15"			Cloudy	Asia	Japan	"Hirose-ohashi Bridge, Riv. Hirose (Sendai City), Miyagi"	38.21333333		140.9088889														13.7	"12.8; 12.7; 12.7"										14	"0.23; 0.31; 0.75"	Sandy	Brown	Clear	"Swampy odor_Faint"	None	"9.9; 10.4; 16.4 (Each)/ 15.4 (Mixed)"	"1.0; 1.1; 1.3 (Each)/ 0.9 (Mixed)"									"n=3 pooled: SAA007876, SAA007877, SAA007878"	2021/5/24	2021/5/24
PRA000116	SAA008038	ST024				Akita_sed2-1_2018	Sediment	"Lake sediment"	2018	9	4	2018-09-04T10:32			Fair	Asia	Japan	"Lake Hachiro, Akita"	39.92277778		139.9988889														29	26.4								0.6		23.4	6.1	"Sandy, mud"	"Gray black"	"Greenish brown_Light"	Odorless	None	64	7.4									"This sample was used as the pooled sample:SAA008041 for chemical analysis"	2021/5/24	2021/5/24
PRA000116	SAA008039	ST024				Akita_sed2-2_2018	Sediment	"Lake sediment"	2018	9	4	2018-09-04T10:13			Fair	Asia	Japan	"Lake Hachiro, Akita"	39.92277778		139.9988889														29.1	25.9								0.9		23.3	6.8	Muddy	"Gray black"	"Yellow green_Dark"	Odorless	None	75.2	11.6									"This sample was used as the pooled sample:SAA008041 for chemical analysis"	2021/5/24	2021/5/24
PRA000116	SAA008040	ST024				Akita_sed2-3_2018	Sediment	"Lake sediment"	2018	9	4	2018-09-04T10:53			Fair	Asia	Japan	"Lake Hachiro, Akita"	39.92277778		139.9988889														30	26.4								0.6		22.7	8.3	Muddy	"Gray black"	"Yellow green_Dark"	Odorless	None	76	12.6									"This sample was used as the pooled sample:SAA008041 for chemical analysis"	2021/5/24	2021/5/24
PRA000116	SAA008041	ST024				Akita_sed2-123_2018	Sediment	"Lake sediment"	2018	9	4	"2018-09-04T10:32; T10:13; T10:53"			Fair	Asia	Japan	"Lake Hachiro, Akita"	39.92277778		139.9988889														"29.0; 29.1; 30.0"	"26.4; 25.9; 26.4"								"0.6; 0.9; 0.6"		"23.4; 23.3; 22.7"	"6.1; 6.8; 8.3"	"Sandy, mud; Muddy; Muddy"	"Gray black"	"Greenish brown_Light; Yellow green_Dark; Yellow green_Dark"	Odorless	None	"64.0; 75.2; 76.0 (Each)/ 73.6 (Mixed)"	"7.4; 11.6; 12.6 (Each)/ 7.7 (Mixed)"									"n=3 pooled: SAA008038, SAA008039, SAA008040"	2021/5/24	2021/5/24
PRA000116	SAA007879	ST024				Yamagata_sed1-1_2018	Sediment	"River sediment"	2018	10	17	2018-10-17T10:20			Cloudy	Asia	Japan	"Mouth of Riv. Mogami (Sakata City), Yamagata"	38.88722222		139.8433333														15.8	15.2										14.6	0.3	"Fine sand"	"Gray black"	Yellow_Light	"Earthy odor"	"Vegetative pieces"	33.7/NA	4.2/NA										2021/5/24	2021/5/24
PRA000116	SAA007880	ST024				Yamagata_sed1-2_2018	Sediment	"River sediment"	2018	10	17	2018-10-17T10:20			Cloudy	Asia	Japan	"Mouth of Riv. Mogami (Sakata City), Yamagata"	38.88722222		139.8433333														15.8	15.2										14	0.3	"Fine sand"	"Gray black"	Yellow_Light	"Earthy odor"	"Vegetative pieces"	33.1/NA	4.2/NA										2021/5/24	2021/5/24
PRA000116	SAA007881	ST024				Yamagata_sed1-3_2018	Sediment	"River sediment"	2018	10	17	2018-10-17T10:20			Cloudy	Asia	Japan	"Mouth of Riv. Mogami (Sakata City), Yamagata"	38.88722222		139.8433333														15.8	15.2										14.5	0.3	"Fine sand"	"Gray black"	Yellow_Light	"Earthy odor"	"Vegetative pieces"	34.6/NA	4.5/NA										2021/5/24	2021/5/24
PRA000116	SAA008042	ST024				Yamagata_sed1-123_2018	Sediment	"River sediment"	2018	10	17	"2018-10-17T10:20; T10:20; T10:20"			Cloudy	Asia	Japan	"Mouth of Riv. Mogami (Sakata City), Yamagata"	38.88722222		139.8433333														15.8	15.2										"14.6; 14.0; 14.5"	0.3	"Fine sand"	"Gray black"	Yellow_Light	"Earthy odor"	"Vegetative pieces"	"33.7; 33.1; 34.6 (Each)/ 33.2 (Mixed)"	"4.2; 4.2; 4.5 (Each)/ 3.1 (Mixed)"									"n=3 pooled: SAA007879, SAA007880, SAA007881"	2021/5/24	2021/5/24
PRA000116	SAA008043	ST023				Fukushima_sed1-1_2018	Sediment	"Marine sediment"	2018	10	24	2018-10-24T10:03			Cloudy	Asia	Japan	"Onahama Port, Fukushima"	36.92472222		140.8752778														19.5	19.6								4		19.8	14	Mud	"Grayish green"	"Blue green"	"Seaweed odor_Faint"	None	44.5	8.1									"This sample was used as the pooled sample:SAA008046 for chemical analysis"	2021/5/24	2021/5/24
PRA000116	SAA008044	ST023				Fukushima_sed1-2_2018	Sediment	"Marine sediment"	2018	10	24	2018-10-24T11:07			Fair	Asia	Japan	"Onahama Port, Fukushima"	36.92472222		140.8752778														20.1	20.3								3.8		19.8	13	Mud	"Grayish green"	"Blue green"	"Seaweed odor_Faint"	None	41.2	7.4									"This sample was used as the pooled sample:SAA008046 for chemical analysis"	2021/5/24	2021/5/24
PRA000116	SAA008045	ST023				Fukushima_sed1-3_2018	Sediment	"Marine sediment"	2018	10	24	2018-10-24T11:49			Fair	Asia	Japan	"Onahama Port, Fukushima"	36.92472222		140.8752778														20	20.5								3.8		19.8	14	Mud	"Grayish green"	"Blue green"	"Seaweed odor_Faint"	None	47.1	9.2									"This sample was used as the pooled sample:SAA008046 for chemical analysis"	2021/5/24	2021/5/24
PRA000116	SAA008046	ST023				Fukushima_sed1-123_2018	Sediment	"Marine sediment"	2018	10	24	"2018-10-24T10:03; T11:07; T11:49"			"Cloudy; Fair; Fair"	Asia	Japan	"Onahama Port, Fukushima"	36.92472222		140.8752778														"19.5; 20.1; 20.0"	"19.6; 20.3; 20.5"								"4.0; 3.8; 3.8"		"19.8; 19.8; 19.8"	"14.0; 13.0; 14.0"	Mud	"Grayish green"	"Blue green"	"Seaweed odor_Faint"	None	"44.5; 41.2; 47.1 (Each)/ 58.7 (Mixed)"	"8.1; 7.4; 9.2 (Each)/ 9.1 (Mixed)"									"n=3 pooled: SAA008043, SAA008044, SAA008045"	2021/5/24	2021/5/24
PRA000116	SAA007885	ST024				Ibaraki_sed1-1_2018	Sediment	"River sediment"	2018	11	9	2018-11-09T09:48			Cloudy	Asia	Japan	"Kamome-ohasi Bridge, Mouth of Riv. Tone (Kamisu City), Ibaraki"	35.77638889		140.7569444														20.1	18.8											0.95	"Sandy, mud"	Brown	Clear	Odorless	None	26.0/NA	1.8/NA										2021/5/24	2021/5/24
PRA000116	SAA007886	ST024				Ibaraki_sed1-2_2018	Sediment	"River sediment"	2018	11	9	2018-11-09T10:35			Rain	Asia	Japan	"Kamome-ohasi Bridge, Mouth of Riv. Tone (Kamisu City), Ibaraki"	35.77638889		140.7569444														17.8	18											6.5	Clay	Brown	Clear	Odorless	None	39.0/NA	5.7/NA										2021/5/24	2021/5/24
PRA000116	SAA007887	ST024				Ibaraki_sed1-3_2018	Sediment	"River sediment"	2018	11	9	2018-11-09T10:50			Rain	Asia	Japan	"Kamome-ohasi Bridge, Mouth of Riv. Tone (Kamisu City), Ibaraki"	35.77638889		140.7569444														18.1	18											1.8	Sandy	Brown	Clear	Odorless	Shellfish	24.0/NA	1.4/NA										2021/5/24	2021/5/24
PRA000116	SAA008047	ST024				Ibaraki_sed1-123_2018	Sediment	"River sediment"	2018	11	9	"2018-11-09T09:48; T10:35; T10:50"			"Cloudy; Rain; rain"	Asia	Japan	"Kamome-ohasi Bridge, Mouth of Riv. Tone (Kamisu City), Ibaraki"	35.77638889		140.7569444														"20.1; 17.8; 18.1"	"18.8; 18.0; 18.0"											"0.95; 6.5; 1.8"	"Sandy, mud; Clay; Sandy"	Brown	Clear	Odorless	"None; None; Shellfish"	"26.0; 39.0; 24.0 (Each)/ 33.2 (Mixed)"	"1.8; 5.7; 1.4 (Each)/ 2.3 (Mixed)"									"n=3 pooled: SAA007885, SAA007886, SAA007887"	2021/5/24	2021/5/24
PRA000116	SAA008048	ST024				Tochigi_sed1-1_2018	Sediment	"River sediment"	2018	10	18	2018-10-18T10:04			Fair	Asia	Japan	"Tagawa area-Toshuko Weir (Utsunomiya City), Tochigi"	36.52805556		139.8855556														20.5	17.2										18	0.62	Gravel	Brown	Clear	Odorless												"This sample was used as the pooled sample:SAA008051 for chemical analysis"	2021/5/24	2021/5/24
PRA000116	SAA008049	ST024				Tochigi_sed1-2_2018	Sediment	"River sediment"	2018	10	18	2018-10-18T12:00			Fair	Asia	Japan	"Tagawa area-Toshuko Weir (Utsunomiya City), Tochigi"	36.52805556		139.8855556														22.2	18										18	0.56	Gravel	Brown	Clear	Odorless												"This sample was used as the pooled sample:SAA008051 for chemical analysis"	2021/5/24	2021/5/24
PRA000116	SAA008050	ST024				Tochigi_sed1-3_2018	Sediment	"River sediment"	2018	10	18	2018-10-18T12:58			Fair	Asia	Japan	"Tagawa area-Toshuko Weir (Utsunomiya City), Tochigi"	36.52805556		139.8855556														23.8	18.5										19	0.26	Gravel	Brown	Clear	Odorless												"This sample was used as the pooled sample:SAA008051 for chemical analysis"	2021/5/24	2021/5/24
PRA000116	SAA008051	ST024				Tochigi_sed1-123_2018	Sediment	"River sediment"	2018	10	18	"2018-10-18T10:04; T12:00; T12:58"			Fair	Asia	Japan	"Tagawa area-Toshuko Weir (Utsunomiya City), Tochigi"	36.52805556		139.8855556														"20.5; 22.2; 23.8"	"17.2; 18.0; 18.5"										"18.0; 18.0; 19.0"	"0.62; 0.56; 0.26"	Gravel	Brown	Clear	Odorless		"NA (Each)/ 19.3 (Mixed)"	"NA (Each)/ 0.8 (Mixed)"									"n=3 pooled: SAA008048, SAA008049, SAA008050"	2021/5/24	2021/5/24
PRA000116	SAA007900	ST023				Chiba_sed1-1_2018	Sediment	"Marine sediment"	2018	10	16	2018-10-16T10:20			Cloudy	Asia	Japan	"Ichihara-Anesaki Coast, Chiba"	35.52166667		140.0283333														20.8	21.1								5.5		21	18.5	Silt	Black	"Dark bluish green"	"Hydrogen sulfide odor"	"Pieces of shell"	72.9/NA	12.9/NA										2021/5/24	2021/5/24
PRA000116	SAA007901	ST023				Chiba_sed1-2_2018	Sediment	"Marine sediment"	2018	10	16	2018-10-16T10:45			Cloudy	Asia	Japan	"Ichihara-Anesaki Coast, Chiba"	35.52166667		140.0283333														21	21.2								5.4		21	18.5	Silt	Black	"Dark bluish green"	"Hydrogen sulfide odor"	"Pieces of shell"	75.0/NA	13.3/NA										2021/5/24	2021/5/24
PRA000116	SAA007902	ST023				Chiba_sed1-3_2018	Sediment	"Marine sediment"	2018	10	16	2018-10-16T10:59			Cloudy	Asia	Japan	"Ichihara-Anesaki Coast, Chiba"	35.52166667		140.0283333														21.6	21.2								5.4		21	18.4	Silt	Black	"Dark bluish green"	"Hydrogen sulfide odor"	"Pieces of shell"	73.6/NA	12.7/NA										2021/5/24	2021/5/24
PRA000116	SAA008052	ST023				Chiba_sed1-123_2018	Sediment	"Marine sediment"	2018	10	16	"2018-10-16T10:20; T10:45; T10:59"			Cloudy	Asia	Japan	"Ichihara-Anesaki Coast, Chiba"	35.52166667		140.0283333														"20.8; 21.0; 21.6"	"21.1; 21.2; 21.2"								"5.5; 5.4; 5.4"		"21.0; 21.0; 21.0"	"18.5; 18.4; 18.4"	Silt	Black	"Dark bluish green"	"Hydrogen sulfide odor"	"Pieces of shell"	"72.9; 75.0; 73.6 (Each)/ 82.3 (Mixed)"	"12.9; 13.3; 12.7 (Each)/ 11.2 (Mixed)"									"n=3 pooled: SAA007900, SAA007901, SAA007902"	2021/5/24	2021/5/24
PRA000116	SAA008053	ST024				ChibaCity_sed1-1_2018	Sediment	"River sediment"	2018	11	2	2018-11-02T10:52			Fair	Asia	Japan	"Mouth of Riv. Hanami (Chiba City), Chiba"	35.63472222		140.04694440														22	19.9										18	2	Muddy	"Gray black"	Clear	"Seaweed odor"	Shellfish	27	3.4									"This sample was used as the pooled sample:SAA008056 for chemical analysis"	2021/05/24	2021/05/24
PRA000116	SAA008054	ST024				ChibaCity_sed1-2_2018	Sediment	"River sediment"	2018	11	2	2018-11-02T11:23			Fair	Asia	Japan	"Mouth of Riv. Hanami (Chiba City), Chiba"	35.63472222		140.04694440														23.5	21.5										21.2	1.7	Muddy	"Gray black"	Clear	"Seaweed odor"	Shellfish	29	4.2									"This sample was used as the pooled sample:SAA008056 for chemical analysis"	2021/05/24	2021/05/24
PRA000116	SAA008055	ST024				ChibaCity_sed1-3_2018	Sediment	"River sediment"	2018	11	2	2018-11-02T11:47			Fair	Asia	Japan	"Mouth of Riv. Hanami (Chiba City), Chiba"	35.63472222		140.04694440														22	20.3										18.8	1.8	Muddy	"Gray black"	Clear	"Seaweed odor"	Shellfish	26.7	3.7									"This sample was used as the pooled sample:SAA008056 for chemical analysis"	2021/05/24	2021/05/24
PRA000116	SAA008056	ST024				ChibaCity_sed1-123_2018	Sediment	"River sediment"	2018	11	2	"2018-11-02T10:52; T11:23; T11:47"			Fair	Asia	Japan	"Mouth of Riv. Hanami (Chiba City), Chiba"	35.63472222		140.04694440														"22.0; 23.5; 22.0"	"19.9; 21.5; 20.3"										"18.0; 21.2; 18.8"	"2.0; 1.7; 1.8"	Muddy	"Gray black"	Clear	"Seaweed odor"	Shellfish	"27.0; 29.0; 26.7 (Each)/ 27.8 (Mixed)"	"3.4; 4.2; 3.7 (Each)/ 2.5 (Mixed)"									"n=3 pooled: SAA008053, SAA008054, SAA008055"	2021/05/24	2021/05/24
PRA000116	SAA008057	ST024				Tokyo_sed1-4_2018	Sediment	"River sediment"	2018	8	23	2018-08-23T10:35			Fair	Asia	Japan	"Mouth of Riv. Arakawa (Koto Ward), Tokyo"	35.64583333		139.8463889														25.7	25.8								1.3		26.5	3.8	Silt	"Olive black"	"Greenish brown"	Odorless	"Clam; Shell"	"39.1/51.3 "	"7.3/6.9 "									"This sample was used as the pooled sample:SAA008060 for chemical analysis"	2021/5/24	2021/5/24
PRA000116	SAA008058	ST024				Tokyo_sed1-5_2018	Sediment	"River sediment"	2018	8	23	2018-08-23T11:20			Fair	Asia	Japan	"Mouth of Riv. Arakawa (Koto Ward), Tokyo"	35.64583333		139.8463889														26.1	26.8								1.1		26.7	3.1	Silt	"Olive black"	"Greenish brown"	Odorless	"Clam; Shell"	"33.1/45.3 "	"6.2/5.6 "									"This sample was used as the pooled sample:SAA008060 for chemical analysis"	2021/5/24	2021/5/24
PRA000116	SAA008059	ST024				Tokyo_sed1-6_2018	Sediment	"River sediment"	2018	8	23	2018-08-23T11:40			Fair	Asia	Japan	"Mouth of Riv. Arakawa (Koto Ward), Tokyo"	35.64583333		139.8463889														25.8	26.6								1.4		26.6	2.8	Silt	"Olive black"	"Grayish yellow green_Dark"	"Hydrogen sulfide odor_Faint"	"Clam; Shell"	"39.7/57.3 "	"7.7/8.0 "									"This sample was used as the pooled sample:SAA008060 for chemical analysis"	2021/5/24	2021/5/24
PRA000116	SAA008060	ST024				Tokyo_sed1-456_2018	Sediment	"River sediment"	2018	8	23	"2018-08-23T10:35; T11;20; T11:40"			Fair	Asia	Japan	"Mouth of Riv. Arakawa (Koto Ward), Tokyo"	35.64583333		139.8463889														"25.7; 26.1; 25.8"	"25.8; 26.8; 26.6"								"1.3; 1.1; 1.4"		"26.5; 26.7; 26.6"	"3.8; 3.1; 2.8"	Silt	"Olive black"	"Greenish brown; Greenish brown; Grayish yellow green_Dark"	"Odorless; Odorless; Hydrogen sulfide odor_Faint"	"Clam; Shell"	"39.1; 33.1; 39.1 (Each)/ 51.0 (Mixed)"	"7.3; 6.2; 7.7 (Each)/ 6.8 (Mixed)"									"n=3 pooled: SAA008057, SAA008058, SAA008059"	2021/5/24	2021/5/24
PRA000116	SAA008061	ST024				Tokyo_sed2-4_2018	Sediment	"River sediment"	2018	8	23	2018-08-23T12:35			Fair	Asia	Japan	"Mouth of Riv. Sumida (Minato Ward), Tokyo"	35.66		139.7705556														26.3	26.8								1.6		25.1	5.4	Silt	Black	"Grayish yellow green_Dark"	"Hydrogen sulfide odor"	"Vegetative pieces; Shell"	"57.3/65.2 "	"10.6/9.6 "									"This sample was used as the pooled sample:SAA008064 for chemical analysis"	2021/5/24	2021/5/24
PRA000116	SAA008062	ST024				Tokyo_sed2-5_2018	Sediment	"River sediment"	2018	8	23	2018-08-23T13:15			Fair	Asia	Japan	"Mouth of Riv. Sumida (Minato Ward), Tokyo"	35.66		139.7705556														26.1	26.4								1.7		25.3	5.1	Silt	Black	"Grayish yellow green_Dark"	"Hydrogen sulfide odor"	"Vegetative pieces"	"59.0/65.9 "	"12.2/10.3 "									"This sample was used as the pooled sample:SAA008064 for chemical analysis"	2021/5/24	2021/5/24
PRA000116	SAA008063	ST024				Tokyo_sed2-6_2018	Sediment	"River sediment"	2018	8	23	2018-08-23T13:30			Fair	Asia	Japan	"Mouth of Riv. Sumida (Minato Ward), Tokyo"	35.66		139.7705556														27.2	27								1.7		25.5	4	Silt	Black	"Grayish yellow green_Dark"	"Hydrogen sulfide odor"	"Vegetative pieces;　Polychaete"	"52.3/63.3 "	"11.1/9.6 "									"This sample was used as the pooled sample:SAA008064 for chemical analysis"	2021/5/24	2021/5/24
PRA000116	SAA008064	ST024				Tokyo_sed2-456_2018	Sediment	"River sediment"	2018	8	23	"2018-08-23T12:35; T13;15; T13:30"			Fair	Asia	Japan	"Mouth of Riv. Sumida (Minato Ward), Tokyo"	35.66		139.7705556														"26.3; 26.1; 27.2"	"26.8; 26.4; 27.0"								"1.6; 1.7; 1.7"		"25.1; 25.3; 25.5"	"5.4; 5.1; 4.0"	Silt	Black	"Grayish yellow green_Dark"	"Hydrogen sulfide odor"	"Vegetative pieces; Shell; Vegetative pieces; Vegetative pieces; Polychaete"	"57.3; 59.0; 52.3 (Each)/ 64.8 (Mixed)"	"10.6; 12.2; 11.1 (Each)/ 9.9 (Mixed)"									"n=3 pooled: SAA008061, SAA008062, SAA008063"	2021/5/24	2021/5/24
PRA000116	SAA007650	ST023				Yokohama_sed1-1_2018	Sediment	"Marine sediment"	2018	11	5	2018-11-05T10:40			Cloudy	Asia	Japan	"Yokohama Port, Kanagawa"	35.45555556		139.6636111														21	20.5								3		19	11.7	Muddy	"Black brown"	Clear	"Hydrogen sulfide odor_Faint"	None	64.2/NA	8.2/NA										2021/5/24	2021/5/24
PRA000116	SAA007651	ST023				Yokohama_sed1-2_2018	Sediment	"Marine sediment"	2018	11	5	2018-11-05T09:50			Cloudy	Asia	Japan	"Yokohama Port, Kanagawa"	35.45555556		139.6636111														20.2	20								5		19.2	12.5	Muddy	"Black brown"	Clear	"Hydrogen sulfide odor_Faint"	None	78.5/NA	11.0/NA										2021/5/24	2021/5/24
PRA000116	SAA007652	ST023				Yokohama_sed1-3_2018	Sediment	"Marine sediment"	2018	11	5	2018-11-05T11:20			Cloudy	Asia	Japan	"Yokohama Port, Kanagawa"	35.45555556		139.6636111														21	20.5								4.5		19.5	11.5	Muddy	"Black brown"	Clear	"Hydrogen sulfide odor_Faint"	None	75.8/NA	10.5/NA										2021/5/24	2021/5/24
PRA000116	SAA008065	ST023				Yokohama_sed1-123_2018	Sediment	"Marine sediment"	2018	11	5	"2018-11-05T10:40；T09:50; T11:20"			Cloudy	Asia	Japan	"Yokohama Port, Kanagawa"	35.45555556		139.6636111														"21.0; 20.2; 21.0"	"20.5; 20.0; 20.5"								"3.0; 5.0; 4.5"		"19.0; 19.2; 19.5"	"11.7; 12.5; 11.5"	Muddy	"Black brown"	Clear	"Hydrogen sulfide odor_Faint"	None	"64.2; 78.5; 75.8 (Each)/ 68.6 (Mixed)"	"8.2; 11.0; 10.5 (Each)/ 9.1 (Mixed)"									"n=3 pooled: SAA007650, SAA007651, SAA007652"	2021/5/24	2021/5/24
PRA000116	SAA007903	ST024				KawasakiCity_sed1-1_2018	Sediment	"River sediment"	2018	11	5	2018-11-05T11:47			Cloudy	Asia	Japan	"Mouth of Riv. Tama (Kawasaki City), Kanagawa"	35.53		139.7836111														19.7	19.5								2		20	4	"Mud, sand"	"Blackish brown"	"Greenish blue"	"Seaweed odor"	"Vegetative pieces; Shell"	30.5/NA	6.6/NA										2021/5/24	2021/5/24
PRA000116	SAA007904	ST024				KawasakiCity_sed1-2_2018	Sediment	"River sediment"	2018	11	5	2018-11-05T12:17			Cloudy	Asia	Japan	"Mouth of Riv. Tama (Kawasaki City), Kanagawa"	35.53		139.7836111														18.7	19.7								1.5		19.9	2.1	Mud	"Blackish brown"	"Greenish blue"	"Tar odor"	"Vegetative pieces; Shell"	28.8/NA	6.1/NA										2021/5/24	2021/5/24
PRA000116	SAA007905	ST024				KawasakiCity_sed1-3_2018	Sediment	"River sediment"	2018	11	5	2018-11-05T12:05			Cloudy	Asia	Japan	"Mouth of Riv. Tama (Kawasaki City), Kanagawa"	35.53		139.7836111														22.6	19.6								1.6		20	2.5	Mud	"Blackish brown"	"Greenish blue"	"Seaweed odor"	Shell	29.7/NA	5.9/NA										2021/5/24	2021/5/24
PRA000116	SAA008066	ST024				KawasakiCity_sed1-123_2018	Sediment	"River sediment"	2018	11	5	"2018-11-05T11:47; T12:17; T12:05"			Cloudy	Asia	Japan	"Mouth of Riv. Tama (Kawasaki City), Kanagawa"	35.53		139.7836111														"19.7; 18.7; 22.6"	"19.5; 19.7; 19.6"								"2.0; 1.5; 1.6"		"20.0; 19.9; 20.0"	"4.0; 2.1; 2.5"	"Mud, sand; Mud; Mud"	"Blackish brown"	"Greenish blue"	"Seaweed odor; Tar odor; Seaweed odor"	"Vegetative pieces; Shell; Vegetative pieces; Shell; Shell"	"30.5; 28.8; 29.7 (Each)/ 50.8 (Mixed)"	"6.6; 6.1; 5.9 (Each)/ 8.7 (Mixed)"									"n=3 pooled: SAA007903, SAA007904, SAA007905"	2021/5/24	2021/5/24
PRA000116	SAA007653	ST023				KawasakiCity_sed2-1_2018	Sediment	"Marine sediment"	2018	11	5	2018-11-05T11:02			"Cloudy, occasionally fair"	Asia	Japan	"Keihin Canal, Kawasaki Port, Kanagawa (front of Ogimachi)"	35.49527778		139.7277778														22.9	20.1								2.7		20	15.1	Mud	"Gray green"	"Grayish blue"	"Seaweed odor_Faint"	Shell	35.1/NA	6.9/NA										2021/5/24	2021/5/24
PRA000116	SAA007654	ST023				KawasakiCity_sed2-2_2018	Sediment	"Marine sediment"	2018	11	5	2018-11-05T10:45			"Cloudy, occasionally fair"	Asia	Japan	"Keihin Canal, Kawasaki Port, Kanagawa (front of Ogimachi)"	35.49527778		139.7277778														21.2	20.3								2.9		20.2	13.8	Mud	"Gray green"	"Grayish blue"	"Hydrogen sulfide odor"	Shell	51.6/NA	10.8/NA										2021/5/24	2021/5/24
PRA000116	SAA007655	ST023				KawasakiCity_sed2-3_2018	Sediment	"Marine sediment"	2018	11	5	2018-11-05T10:25			"Cloudy, occasionally fair"	Asia	Japan	"Keihin Canal, Kawasaki Port, Kanagawa (front of Ogimachi)"	35.49527778		139.7277778														20.9	20								3		20	13.5	Mud	"Gray green"	"Grayish blue"	"Hydrogen sulfide odor_Faint"	Shell	37.1/NA	7.7/NA										2021/5/24	2021/5/24
PRA000116	SAA008067	ST023				KawasakiCity_sed2-123_2018	Sediment	"Marine sediment"	2018	11	5	"2018-11-05T11:02; T10:45; T10:25"			"Cloudy, occasionally fair"	Asia	Japan	"Keihin Canal, Kawasaki Port, Kanagawa (front of Ogimachi)"	35.49527778		139.7277778														"22.9; 21.2; 20.9"	"20.1; 20.3; 20.0"								"2.7; 2.9; 3.0"		"20.0; 20.2; 20.0"	"15.1; 13.8; 13.5"	Mud	"Gray green"	"Grayish blue"	"Hydrogen sulfide odor_Faint"	Shell	"35.1;51.6; 37.1 (Each)/ 67.4 (Mixed)"	"6.9; 10.8; 7.7 (Each)/ 9.0 (Mixed)"									"n=3 pooled: SAA007653, SAA007654, SAA007655"	2021/5/24	2021/5/24
PRA000116	SAA007906	ST024				Niigata_sed1-1_2018	Sediment	"River sediment"	2018	10	3	2018-10-03T10:10			Fair	Asia	Japan	"Downstream of Riv. Shinano (Niigata City), Niigata"	37.88305556		139.0155556														25.8	19.9										19	0.89	Muddy	"Blackish brown"	Brown	"Earthy odor"	None	56.0/NA	6.4/NA										2021/5/24	2021/5/24
PRA000116	SAA007907	ST024				Niigata_sed1-2_2018	Sediment	"River sediment"	2018	10	3	2018-10-03T10:05			Fair	Asia	Japan	"Downstream of Riv. Shinano (Niigata City), Niigata"	37.88305556		139.0155556														25.8	19.9										19	4.3	"Sandy and Muddy"	"Light brown"	Brown	Odorless	Leaves	22.1/NA	1.9/NA										2021/5/24	2021/5/24
PRA000116	SAA007908	ST024				Niigata_sed1-3_2018	Sediment	"River sediment"	2018	10	3	2018-10-03T10:05			Fair	Asia	Japan	"Downstream of Riv. Shinano (Niigata City), Niigata"	37.88305556		139.0155556														25.8	19.9										19	5.1	"Sandy and Muddy"	Brown	Brown	Odorless	"Tree branch; Leaves"	17.7/NA	1.4/NA										2021/5/24	2021/5/24
PRA000116	SAA008068	ST024				Niigata_sed1-123_2018	Sediment	"River sediment"	2018	10	3	"2018-10-03T10:10; T10:05; T10:05"			Fair	Asia	Japan	"Downstream of Riv. Shinano (Niigata City), Niigata"	37.88305556		139.0155556														25.8	19.9										19	"0.89; 4.3; 5.1"	"Muddy; Sandy and Muddy; Sandy and Muddy"	"Blackish brown; Light brown; Brown"	Brown	"Earthy odor; Odorless; Odorless"	"None; Leaves; Tree branch; Leaves"	"56.0; 22.1; 17.7 (Each)/ 30.3 (Mixed)"	"6.4; 1.9; 1.4 (Each)/ 2.6 (Mixed)"									"n=3 pooled: SAA007906, SAA007907, SAA007908"	2021/5/24	2021/5/24
PRA000116	SAA008069	ST024				Toyama_sed1-1_2018	Sediment	"River sediment"	2018	10	18	2018-10-18T09:20			Fair	Asia	Japan	"Hagiura-bashi Bridge, Mouth of Riv. Jintsu (Toyama City), Toyama"	36.745		137.2180556														17.5	15.5										15.5	0.95	Muddy	"Gray black"	Clear	"Seaweed odor_Faint"	Leaves	37	3.8									"This sample was used as the pooled sample:SAA008072 for chemical analysis"	2021/5/24	2021/5/24
PRA000116	SAA008070	ST024				Toyama_sed1-2_2018	Sediment	"River sediment"	2018	10	18	2018-10-18T10:30			Fair	Asia	Japan	"Hagiura-bashi Bridge, Mouth of Riv. Jintsu (Toyama City), Toyama"	36.745		137.2180556														19	16.5										18	0.63	Muddy	"Gray black"	Clear	"Hydrogen sulfide odor_Faint"	Leaves	36	3.7									"This sample was used as the pooled sample:SAA008072 for chemical analysis"	2021/5/24	2021/5/24
PRA000116	SAA008071	ST024				Toyama_sed1-3_2018	Sediment	"River sediment"	2018	10	18	2018-10-18T11:00			Fair	Asia	Japan	"Hagiura-bashi Bridge, Mouth of Riv. Jintsu (Toyama City), Toyama"	36.745		137.2180556														21.5	16.5										17.5	0.85	Sandy	"Gray black"	Clear	Odorless	"Leaves; Roots"	22	1.2									"This sample was used as the pooled sample:SAA008072 for chemical analysis"	2021/5/24	2021/5/24
PRA000116	SAA008072	ST024				Toyama_sed1-123_2018	Sediment	"River sediment"	2018	10	18	"2018-10-18T09:20; T10:30; T11:00"			Fair	Asia	Japan	"Hagiura-bashi Bridge, Mouth of Riv. Jintsu (Toyama City), Toyama"	36.745		137.2180556														"17.5; 19.0; 21.5"	"15.5; 16.5; 16.5"										"15.5; 18.0; 17.5"	"0.95; 0.63; 0.85"	"Muddy; Muddy; Sandy"	"Gray black"	Clear	"Seaweed odor_Faint; Hydrogen sulfide odor_Faint; Odorless"	"Leaves; Leaves; Leaves; Roots"	"37.0; 36.0; 22.0 (Each)/ 27.9 (Mixed)"	"3.8; 3.7; 1.2 (Each)/ 2.0 (Mixed)"									"n=3 pooled: SAA008069, SAA008070, SAA008071"	2021/5/24	2021/5/24
PRA000116	SAA007656	ST024				Ishikawa_sed1-1_2018	Sediment	"River sediment"	2018	10	25	2018-10-25T10:23			Fair	Asia	Japan	"Mouth of Riv. Sai (Kanazawa City), Ishikawa"	36.60027778		136.5888889														20.9	17.5											3	"Sandy silt"	"Gray black"	"Yellow green"	"Fish rotten odor_Faint"	"Pebble; Shell"	24.0/NA	2.5/NA										2021/5/24	2021/5/24
PRA000116	SAA007657	ST024				Ishikawa_sed1-2_2018	Sediment	"River sediment"	2018	10	25	2018-10-25T12:14			Fair	Asia	Japan	"Mouth of Riv. Sai (Kanazawa City), Ishikawa"	36.60027778		136.5888889														19.7	18											1.2	"Sandy silt"	"Gray brown"	Green	"Fish rotten odor_Faint"	Pebble	29.0/NA	2.7/NA										2021/5/24	2021/5/24
PRA000116	SAA007658	ST024				Ishikawa_sed1-3_2018	Sediment	"River sediment"	2018	10	25	2018-10-25T12:46			Fair	Asia	Japan	"Mouth of Riv. Sai (Kanazawa City), Ishikawa"	36.60027778		136.5888889														21.1	17.6											0.6	Sand	"Blackish brown"	Green	"Fish rotten odor_Faint"	Pebble	22.0/NA	1.3/NA										2021/5/24	2021/5/24
PRA000116	SAA008073	ST024				Ishikawa_sed1-123_2018	Sediment	"River sediment"	2018	10	25	"2018-10-25T10:23; T12:14; T12:46"			Fair	Asia	Japan	"Mouth of Riv. Sai (Kanazawa City), Ishikawa"	36.60027778		136.5888889														"20.9; 19.7; 21.1"	"17.5; 18.0; 17.6"												"Sandy silt; Sandy silt; Sand"	"Gray black; Gray brown; Blackish brown"	"Yellow green; Green; Green"	"Fish rotten odor_Faint"	"Pebble, Shell; Pebble; Pebble"	"24.0; 29.0; 22.0 (Each)/ 24.6 (Mixed)"	"2.5; 2.7; 1.3 (Each)/ 2.1 (Mixed)"									"n=3 pooled: SAA007656, SAA007657, SAA007658"	2021/5/24	2021/5/24
PRA000116	SAA008074	ST024				Fukui_sed1-1_2018	Sediment	"River sediment"	2018	11	9	2018-11-09T10:43			Fair	Asia	Japan	"Mishima-bashi Bridge, Riv. Shono (Tsuruga City), Fukui"	35.6475		136.0627778														20.5	16.5										16.5	0.1	Sandy	Brown	Clear	Odorless	Stones	21.8	1.1									"This sample was used as the pooled sample:SAA008077 for chemical analysis"	2021/5/24	2021/5/24
PRA000116	SAA008075	ST024				Fukui_sed1-2_2018	Sediment	"River sediment"	2018	11	9	2018-11-09T10:43			Fair	Asia	Japan	"Mishima-bashi Bridge, Riv. Shono (Tsuruga City), Fukui"	35.6475		136.0627778														20.5	16.5										16.5	0.1	Sandy	Brown	Clear	Odorless	Stones	22.3	1.1									"This sample was used as the pooled sample:SAA008077 for chemical analysis"	2021/5/24	2021/5/24
PRA000116	SAA008076	ST024				Fukui_sed1-3_2018	Sediment	"River sediment"	2018	11	9	2018-11-09T10:43			Fair	Asia	Japan	"Mishima-bashi Bridge, Riv. Shono (Tsuruga City), Fukui"	35.6475		136.0627778														20.5	16.5										16.5	0.1	Sandy	Brown	Clear	Odorless	Stones	20.5	1.1									"This sample was used as the pooled sample:SAA008077 for chemical analysis"	2021/5/24	2021/5/24
PRA000116	SAA008077	ST024				Fukui_sed1-123_2018	Sediment	"River sediment"	2018	11	9	"2018-11-09T10:43; T10:43, T10:43"			Fair	Asia	Japan	"Mishima-bashi Bridge, Riv. Shono (Tsuruga City), Fukui"	35.6475		136.0627778														"20.5; 20.5; 20.5"	"16.5; 16.5; 16.5"										"16.5; 16.5; 16.5"	"0.1; 0.1; 0.1"	"Sandy; Sandy; Sandy"	Brown	Clear	Odorless	Stones	"21.8; 22.3; 20.5 (Each)/ 20.9 (Mixed)"	"1.1; 1.1; 1.1 (Each)/ 0.9 (Mixed)"									"n=3 pooled: SAA008074, SAA008075, SAA008076"	2021/5/24	2021/5/24
PRA000116	SAA008078	ST024				Yamanashi_sed1-1_2018	Sediment	"River sediment"	2018	10	22	2018-10-22T10:50			Fair	Asia	Japan	"Chiaki-bashi Bridge, Riv. Ara (Kofu City), Yamanashi"	35.6475		138.5655556														14.5	14.8										12.6	1	Sand	Gray	Clear	Odorless	Pebbles	20.5	0.9									"This sample was used as the pooled sample:SAA008081 for chemical analysis"	2021/5/24	2021/5/24
PRA000116	SAA008079	ST024				Yamanashi_sed1-2_2018	Sediment	"River sediment"	2018	10	22	2018-10-22T10:20			Fair	Asia	Japan	"Chiaki-bashi Bridge, Riv. Ara (Kofu City), Yamanashi"	35.6475		138.5655556														13.5	12.6										12.2	0.28	Pebble	Gray	Clear	Odorless	Sand	17.7	1.1									"This sample was used as the pooled sample:SAA008081 for chemical analysis"	2021/5/24	2021/5/24
PRA000116	SAA008080	ST024				Yamanashi_sed1-3_2018	Sediment	"River sediment"	2018	10	22	2018-10-22T09:50			Fair	Asia	Japan	"Chiaki-bashi Bridge, Riv. Ara (Kofu City), Yamanashi"	35.6475		138.5655556														13.1	14.9										14.3	0.9	Sand	Gray	Clear	Odorless	None	27	1									"This sample was used as the pooled sample:SAA008081 for chemical analysis"	2021/5/24	2021/5/24
PRA000116	SAA008081	ST024				Yamanashi_sed1-123_2018	Sediment	"River sediment"	2018	10	22	"2018-10-22T10:50; T10:20; T09:50"			Fair	Asia	Japan	"Chiaki-bashi Bridge, Riv. Ara (Kofu City), Yamanashi"	35.6475		138.5655556														"14.5; 13.5; 13.1"	"14.8; 12.6; 14.9"										"12.6; 12.2; 14.3"	"1.0; 0.28; 0.9"	"Sand; Pebble; Sand"	Gray	Clear	Odorless	"Pebbles; Sand; None"	"20.5; 17.7; 27.0 (Each)/ 21.3 (Mixed)"	"0.9; 1.1; 1.0 (Each)/ 0.8 (Mixed)"									"n=3 pooled: SAA008078, SAA008079, SAA008080"	2021/5/24	2021/5/24
PRA000116	SAA007912	ST024				Nagano_sed1-1_2018	Sediment	"Lake sediment"	2018	10	29	2018-10-29T10:25			Fair	Asia	Japan	"Center of Lake Suwa, Nagano"	36.05		138.0861111														19.5	15.8								0.8		16.5	5.8	Muddy	"Blackish brown_dark"	"Yellow green_Light"	"Swampy odor_Faint"	None	79.3/NA	15.6/NA										2021/5/24	2021/5/24
PRA000116	SAA007913	ST024				Nagano_sed1-2_2018	Sediment	"Lake sediment"	2018	10	29	2018-10-29T11:20			Fair	Asia	Japan	"Center of Lake Suwa, Nagano"	36.05		138.0861111														18	15.4								1		16.5	5.8	Muddy	"Blackish brown_dark"	"Yellow green_Light"	"Swampy odor_Faint"	None	80.6/NA	15.3/NA										2021/5/24	2021/5/24
PRA000116	SAA007914	ST024				Nagano_sed1-3_2018	Sediment	"Lake sediment"	2018	10	29	2018-10-29T11:30			Fair	Asia	Japan	"Center of Lake Suwa, Nagano"	36.05		138.0861111														17.2	14.9								0.9		15.2	5.8	Muddy	"Blackish brown_dark"	"Yellow green_Light"	"Swampy odor_Faint"	None	80.2/NA	15.2/NA										2021/5/24	2021/5/24
PRA000116	SAA008082	ST024				Nagano_sed1-123_2018	Sediment	"Lake sediment"	2018	10	29	"2018-10-29T10:25; T11:20; T11:30"			Fair	Asia	Japan	"Center of Lake Suwa, Nagano"	36.05		138.0861111														"19.5; 18.0; 17.2"	"15.8; 15.4; 14.9"								"0.8; 1.0; 0.9"		"16.5; 16.5; 15.2"	"5.8; 5.8; 5.8"	Muddy	"Blackish brown_dark"	"Yellow green_Light"	"Swampy odor_Faint"	None	"79.3; 80.6; 80.2 (Each)/ 85.2 (Mixed)"	"15.6; 15.3; 15.2 (Each)/ 13.6 (Mixed)"									"n=3 pooled: SAA007912, SAA007913, SAA007914"	2021/5/24	2021/5/24
PRA000116	SAA007659	ST023				Shizuoka_sed1-1_2018	Sediment	"Marine sediment"	2018	9	27	2018-09-27T10:05			"Light rain"	Asia	Japan	"Shimizu Port, Shizuoka"	35.02416667		138.5161111														20.5	23.4								2.5		23.4	25.5	"Sand, Mud"	"Gray green_dark"	Clear	"Seaweed odor"	Shellfish	35.9/NA	4.4/NA										2021/5/24	2021/5/24
PRA000116	SAA007660	ST023				Shizuoka_sed1-2_2018	Sediment	"Marine sediment"	2018	9	27	2018-09-27T10:25			"Light rain"	Asia	Japan	"Shimizu Port, Shizuoka"	35.02416667		138.5161111														20	23.9								3		25.3	20.1	"Sand, Mud"	"Gray green_dark"	Clear	"Seaweed odor"	Shellfish	29.8/NA	4.3/NA										2021/5/24	2021/5/24
PRA000116	SAA007661	ST023				Shizuoka_sed1-3_2018	Sediment	"Marine sediment"	2018	9	27	2018-09-27T10:50			"Light rain"	Asia	Japan	"Shimizu Port, Shizuoka"	35.02416667		138.5161111														20	23.9								2.5		24.9	16.6	"Sand, Mud"	"Gray green_dark"	Clear	"Seaweed odor"	Shellfish	31.4/NA	4.0/NA										2021/5/24	2021/5/24
PRA000116	SAA008083	ST023				Shizuoka_sed1-123_2018	Sediment	"Marine sediment"	2018	9	27	"2018-09-27T10:05; T10:25; T10:50"			"Light rain"	Asia	Japan	"Shimizu Port, Shizuoka"	35.02416667		138.5161111														"20.5; 20.0; 20.0"	"23.4; 23.9; 23.9"								"2.5; 3.0; 2.5"		"23.4; 25.3; 24.9"	"25.5; 20.1; 16.6"	"Sand. Mud"	"Gray green_dark"	Clear	"Seaweed odor"	Shellfish	"35.9; 29.8; 31.4 (Each)/ 28.8 (Mixed)"	"4.4; 4.3; 4.0 (Each)/ 3.3 (Mixed)"									"n=3 pooled: SAA007659, SAA007660, SAA007661"	2021/5/24	2021/5/24
PRA000116	SAA007915	ST024				Shizuoka_sed3-1_2018	Sediment	"River sediment"	2018	10	24	2018-10-24T13:30			Fair	Asia	Japan	"Riv. Tenryu (Iwata City), Shizuoka"	34.67916667		137.7961111														24.9	18.1										17.5	0.53	Sand	"Gray green_dark"	White	"Seaweed odor"	Pebble	19.4/NA	1.3/NA										2021/5/24	2021/5/24
PRA000116	SAA007916	ST024				Shizuoka_sed3-2_2018	Sediment	"River sediment"	2018	10	24	2018-10-24T14:00			Fair	Asia	Japan	"Riv. Tenryu (Iwata City), Shizuoka"	34.67916667		137.7961111														26.9											18.2	0.29	Sand	"Gray green_dark"		"Seaweed odor"	Pebble	17.5/NA	1.1/NA										2021/5/24	2021/5/24
PRA000116	SAA007917	ST024				Shizuoka_sed3-3_2018	Sediment	"River sediment"	2018	10	24	2018-10-24T14:40			Fair	Asia	Japan	"Riv. Tenryu (Iwata City), Shizuoka"	34.67916667		137.7961111														25.8											18.5	0.73	Sand	"Gray green_dark"		"Seaweed odor"	Pebble	24.5/NA	2.2/NA										2021/5/24	2021/5/24
PRA000116	SAA008084	ST024				Shizuoka_sed3-123_2018	Sediment	"River sediment"	2018	10	24	"2018-10-24T13:30; T14:00; T14:40"			Fair	Asia	Japan	"Riv. Tenryu (Iwata City), Shizuoka"	34.67916667		137.7961111														"24.9; 26.9; 25.8"	"18.1;NA; NA"										"17.5; 18.2; 18.5"	"0.53; 0.29; 0.73"	Sand	"Gray green_dark"	White	"Seaweed odor"	Pebble	"19.4; 17.5; 24.5 (Each)/ 20.3 (Mixed)"	"1.3; 1.1; 2.2 (Each)/ 1.2 (Mixed)"									"n=3 pooled: SAA007915, SAA007916, SAA007917"	2021/5/24	2021/5/24
PRA000116	SAA008085	ST023				Aichi_sed2-1_2018	Sediment	"Marine sediment"	2018	10	23	2018-10-23T10:56			Cloudy	Asia	Japan	"Kinuura Port, Aichi"	34.84166667		136.9486111														18.4	26								2		22.7	14.2	Muddy	"Gray green"	Green_Light	"Hydrogen sulfide odor"	Shell	63.5	10.8									"This sample was used as the pooled sample:SAA008088 for chemical analysis"	2021/5/24	2021/5/24
PRA000116	SAA008086	ST023				Aichi_sed2-2_2018	Sediment	"Marine sediment"	2018	10	23	2018-10-23T11:05			Cloudy	Asia	Japan	"Kinuura Port, Aichi"	34.84166667		136.9486111														18.4	26								2		22.2	14.2	Muddy	"Gray green"	Green_Light	"Hydrogen sulfide odor"	Shell	65.4	10.4									"This sample was used as the pooled sample:SAA008088 for chemical analysis"	2021/5/24	2021/5/24
PRA000116	SAA008087	ST023				Aichi_sed2-3_2018	Sediment	"Marine sediment"	2018	10	23	2018-10-23T11:14			Cloudy	Asia	Japan	"Kinuura Port, Aichi"	34.84166667		136.9486111														18.4	26								2		22.8	14.2	Muddy	"Gray green"	Green_Light	"Hydrogen sulfide odor"	Shell	65	10.4									"This sample was used as the pooled sample:SAA008088 for chemical analysis"	2021/5/24	2021/5/24
PRA000116	SAA008088	ST023				Aichi_sed2-123_2018	Sediment	"Marine sediment"	2018	10	23	"2018-10-23T10:56; T11:05; T11:14"			Cloudy	Asia	Japan	"Kinuura Port, Aichi"	34.84166667		136.9486111														"18.4; 18.4; 18.4"	"26.0; 26.0; 26.0"								"2.0; 2.0; 2.0"		"22.7; 22.2; 22.8"	"14.2; 14.2; 14.2"	Muddy	"Gray green"	Green_Light	"Hydrogen sulfide odor"	Shell	"63.5; 65.4; 65.0 (Each)/ 65.2 (Mixed)"	"10.8; 10.4; 10.4 (Each)/ 8.7 (Mixed)"									"n=3 pooled: SAA008085, SAA008086, SAA008087"	2021/5/24	2021/5/24
PRA000116	SAA008089	ST023				Aichi_sed1-4_2018	Sediment	"Marine sediment"	2018	10	23	2018-10-23T12:43			Cloudy	Asia	Japan	"Nagoya Port, Aichi"	35.07111111		136.8691667														18.3	22.5								2.2		23.6	16.7	Muddy	"Gray black"	Green_Light	"Hydrogen sulfide odor"	Shell	59.2	7.8									"This sample was used as the pooled sample:SAA008092 for chemical analysis"	2021/5/24	2021/5/24
PRA000116	SAA008090	ST023				Aichi_sed1-5_2018	Sediment	"Marine sediment"	2018	10	23	2018-10-23T12:51			Cloudy	Asia	Japan	"Nagoya Port, Aichi"	35.07111111		136.8691667														18.3	22.5								2.2		23.8	16.7	Muddy	"Gray black"	Green_Light	"Hydrogen sulfide odor"	Shell	56.9	7.6									"This sample was used as the pooled sample:SAA008092 for chemical analysis"	2021/5/24	2021/5/24
PRA000116	SAA008091	ST023				Aichi_sed1-6_2018	Sediment	"Marine sediment"	2018	10	23	2018-10-23T12:59			Cloudy	Asia	Japan	"Nagoya Port, Aichi"	35.07111111		136.8691667														18.3	22.5								2.2		24	16.7	Muddy	"Gray black"	Green_Light	"Hydrogen sulfide odor"	Shell	59.3	7.8									"This sample was used as the pooled sample:SAA008092 for chemical analysis"	2021/5/24	2021/5/24
PRA000116	SAA008092	ST023				Aichi_sed1-456_2018	Sediment	"Marine sediment"	2018	10	23	"2018-10-23T12:43; T12:51; T12:59"			Cloudy	Asia	Japan	"Nagoya Port, Aichi"	35.07111111		136.8691667														"18.3; 18.3; 18.3"	"22.5; 22.5; 22.5"								"2.2; 2.2; 2.2"		"23.6; 23.8; 24.0"	"16.7; 16.7; 16.7"	Muddy	"Gray black"	Green_Light	"Hydrogen sulfide odor"	Shell	"59.2; 56.9; 59.3 (Each)/ 58.3 (Mixed)"	"7.8; 7.6; 7.8 (Each)/ 6.8 (Mixed)"									"n=3 pooled: SAA008089, SAA008090, SAA008091"	2021/5/24	2021/5/24
PRA000116	SAA007663	ST023				Mie_sed1-1_2018	Sediment	"Marine sediment"	2018	10	30	2018-10-30T10:00			Fair	Asia	Japan	"Yokkaichi Port, Mie"	34.94944444		136.6530556														21.9	19.2								1.5		22.2	13	Muddy	"Gray black"	"Gray black"	"Hydrogen sulfide odor_Faint"	"Almost none"	69.0/NA	9.4/NA										2021/5/24	2021/5/24
PRA000116	SAA007664	ST023				Mie_sed1-2_2018	Sediment	"Marine sediment"	2018	10	30	2018-10-30T10:20			Fair	Asia	Japan	"Yokkaichi Port, Mie"	34.94944444		136.6530556														21	19.2								1.8		22	12.5	Muddy	"Gray black"	"Gray green"	"Hydrogen sulfide odor_Faint"	"Almost none"	72.0/NA	9.9/NA										2021/5/24	2021/5/24
PRA000116	SAA007665	ST023				Mie_sed1-3_2018	Sediment	"Marine sediment"	2018	10	30	2018-10-30T10:35			Fair	Asia	Japan	"Yokkaichi Port, Mie"	34.94944444		136.6530556														21.5	19								1.5		22	8	Muddy	"Gray black"	"Gray green"	"Hydrogen sulfide odor_Faint"	Shell	57.0/NA	7.1/NA										2021/5/24	2021/5/24
PRA000116	SAA008093	ST023				Mie_sed1-123_2018	Sediment	"Marine sediment"	2018	10	30	"2018-10-30T10:00; T10:20; T10:35"			Fair	Asia	Japan	"Yokkaichi Port, Mie"	34.94944444		136.6530556														"21.9; 21.0; 21.5"	"19.2; 19.2; 19.0"								"1.5; 1.8; 1.5"		"22.2; 22.0; 22.0"	"13.0; 12.5; 8.0"	Muddy	"Gray black"	"Gray green"	"Hydrogen sulfide odor_Faint"	"Almost none; Almost none; Shell"	"69.0; 72.0; 57.0 (Each)/ 63.5 (Mixed)"	"9.4; 9.9; 7.1 (Each)/ 7.3 (Mixed)"									"n=3 pooled: SAA007663, SAA007664, SAA007665"	2021/5/24	2021/5/24
PRA000116	SAA007666	ST023				Mie_sed2-1_2018	Sediment	"Marine sediment"	2018	10	22	2018-10-22T09:55			Fair	Asia	Japan	"Toba Port, Mie"	34.48083333		136.8486111														23.5	21								3		22.5	6	Muddy	"Gray brown"	"Gray green"	"Mud smell_Faint"	"Shell; pieces of wood, leaves"	53.0/NA	10.0/NA										2021/5/24	2021/5/24
PRA000116	SAA007667	ST023				Mie_sed2-2_2018	Sediment	"Marine sediment"	2018	10	22	2018-10-22T10:20			Fair	Asia	Japan	"Toba Port, Mie"	34.48083333		136.8486111														22	22								4		22	5.6	Muddy	"Gray brown"	"Gray green"	"Mud smell_Faint"	"Shell; pieces of wood, leaves"	52.0/NA	8.8/NA										2021/5/24	2021/5/24
PRA000116	SAA007668	ST023				Mie_sed2-3_2018	Sediment	"Marine sediment"	2018	10	22	2018-10-10T10:30			Fair	Asia	Japan	"Toba Port, Mie"	34.48083333		136.8486111														22	22								4		22	5.4	Muddy	"Gray brown"	"Gray green"	"Mud smell_Faint"	"Shell; pieces of wood, leaves"	43.0/NA	6.2/NA										2021/5/24	2021/5/24
PRA000116	SAA008094	ST023				Mie_sed2-123_2018	Sediment	"Marine sediment"	2018	10	22	"2018-10-22T09:55; T10:20; T10:30"			Fair	Asia	Japan	"Toba Port, Mie"	34.48083333		136.8486111														"23.5; 22.0; 22.0"	"21.0; 22.0; 22.0"								"3.0; 4.0; 4.0"		"22.5; 22.0; 22.0"	"6.0; 5.6; 5.4"	Muddy	"Gray brown"	"Gray green"	"Mud smell_Faint"	"Shell; pieces of wood, leaves"	"53.0; 52.0; 43.0 (Each)/ 44.2 (Mixed)"	"10.0; 8.8; 6.2 (Each)/ 7.1 (Mixed)"									"n=3 pooled: SAA007666, SAA007667, SAA007668"	2021/5/24	2021/5/24
PRA000116	SAA007926	ST024				Shiga_sed1-1_2018	Sediment	"Lake sediment"	2018	10	22	2018-10-22T09:25			Fair	Asia	Japan	"Lake Biwa (center, offshore of Minamihira), Shiga"	35.18527778		135.9733333														19	18.2								5.4		8	59.1	Muddy	"Gray black"	Green_Dark	"Swampy odor"	None	70.0/NA	11.9/NA										2021/5/24	2021/5/24
PRA000116	SAA007927	ST024				Shiga_sed1-2_2018	Sediment	"Lake sediment"	2018	10	22	2018-10-22T10:05			Fair	Asia	Japan	"Lake Biwa (center, offshore of Minamihira), Shiga"	35.18527778		135.9733333														19	19.8								4.1		8.2	53	Muddy	"Gray black"	Green_Dark	"Swampy odor"	None	67.8/NA	11.4/NA										2021/5/24	2021/5/24
PRA000116	SAA007928	ST024				Shiga_sed1-3_2018	Sediment	"Lake sediment"	2018	10	22	2018-10-22T10:35			Fair	Asia	Japan	"Lake Biwa (center, offshore of Minamihira), Shiga"	35.18527778		135.9733333														20	20.1								5		8.3	49	Muddy	"Gray black"	Green_Dark	"Swampy odor"	None	67.4/NA	11.5/NA										2021/5/24	2021/5/24
PRA000116	SAA008095	ST024				Shiga_sed1-123_2018	Sediment	"Lake sediment"	2018	10	22	"2018-10-22T09:25; T10:05; T10:35"			Fair	Asia	Japan	"Lake Biwa (center, offshore of Minamihira), Shiga"	35.18527778		135.9733333														"19.0; 19.0; 20.0"	"18.2; 19.8; 20.1"								"5.4; 4.1; 5.0"		"8.0; 8.2; 8.3"	"59.1; 53.0; 49.0"	Muddy	"Gray black"	Green_Dark	"Swampy odor"	None	"70.0; 67.8; 67.4 (Each)/ 79.5 (Mixed)"	"11.9; 11.4; 11.5 (Each)/ 10.2 (Mixed)"									"n=3 pooled: SAA007926, SAA007927, SAA007928"	2021/5/24	2021/5/24
PRA000116	SAA007929	ST024				Shiga_sed2-1_2018	Sediment	"Lake sediment"	2018	10	10	2018-10-10T10:10			Cloudy	Asia	Japan	"Lake Biwa (center, offshore of Karasaki), Shiga"	35.04611111		135.8955556														23.1	22.3								2.3		22.2	4	Muddy	"Gray black"	"Yellow green_Dark"	"Swampy odor"	"Aquatic plants"	66.1/NA	12.2/NA										2021/5/24	2021/5/24
PRA000116	SAA007930	ST024				Shiga_sed2-2_2018	Sediment	"Lake sediment"	2018	10	10	2018-10-10T10:40			Cloudy	Asia	Japan	"Lake Biwa (center, offshore of Karasaki), Shiga"	35.04611111		135.8955556														22.7	22.4								3		22.3	4	Muddy	"Gray black"	"Yellow green_Dark"	"Swampy odor"	"Aquatic plants"	67.5/NA	12.8/NA										2021/5/24	2021/5/24
PRA000116	SAA007931	ST024				Shiga_sed2-3_2018	Sediment	"Lake sediment"	2018	10	10	2018-10-10T11:00			Cloudy	Asia	Japan	"Lake Biwa (center, offshore of Karasaki), Shiga"	35.04611111		135.8955556														23.3	22.3								2.9		22	3.4	Muddy	"Gray black"	"Yellow green_Dark"	"Swampy odor"	"Aquatic plants"	55.7/NA	8.9/NA										2021/5/24	2021/5/24
PRA000116	SAA008096	ST024				Shiga_sed2-123_2018	Sediment	"Lake sediment"	2018	10	10	"2018-10-10T10:10; T10:40; T11:00"			Cloudy	Asia	Japan	"Lake Biwa (center, offshore of Karasaki), Shiga"	35.04611111		135.8955556														"23.1; 22.7; 23.3"	"22.3; 22.4; 22.3"								"2.3; 3.0; 2.9"		"22.2; 22.3; 22.0"	"4.0; 4.0; 3.4"	Muddy	"Gray black"	"Yellow green_Dark"	"Swampy odor"	"Aquatic plants"	"66.1; 67.5; 55.7 (Each)/ 74.4 (Mixed)"	"12.2; 12.8; 8.9 (Each)/ 9.1 (Mixed)"									"n=3 pooled: SAA007929, SAA007930, SAA007931"	2021/5/24	2021/5/24
PRA000116	SAA007932	ST023				Kyoto_sed1-1_2018	Sediment	"Marine sediment"	2018	10	17	2018-10-17T10:25			"Fair, occasionally rain"	Asia	Japan	"Miyazu Port, Kyoto"	35.58305556		135.2138889														19.3	22.9								7		20.7	10	Muddy	"Gray black"	Clear	"Seaweed odor"	None	28.3/NA	3.2/NA										2021/5/24	2021/5/24
PRA000116	SAA007933	ST023				Kyoto_sed1-2_2018	Sediment	"Marine sediment"	2018	10	17	2018-10-17T10:40			"Fair, occasionally rain"	Asia	Japan	"Miyazu Port, Kyoto"	35.58305556		135.2138889														18.9	22.9								7		21.7	22	Muddy	"Gray black"	Clear	"Seaweed odor"	None	51.5/NA	9.3/NA										2021/5/24	2021/5/24
PRA000116	SAA007934	ST023				Kyoto_sed1-3_2018	Sediment	"Marine sediment"	2018	10	17	2018-10-17T11:07			"Fair, occasionally rain"	Asia	Japan	"Miyazu Port, Kyoto"	35.58305556		135.2138889														20	22.9								8		21.5	22	Muddy	"Gray black"	Clear	"Seaweed odor"	None	53.9/NA	9.1/NA										2021/5/24	2021/5/24
PRA000116	SAA008097	ST023				Kyoto_sed1-123_2018	Sediment	"Marine sediment"	2018	10	17	"2018-10-17T10:25; T10:40; T11:07"			"Fair, occasionally rain"	Asia	Japan	"Miyazu Port, Kyoto"	35.58305556		135.2138889														"19.3; 18.9; 20.0"	22.9;22.9；22.9								"7.0; 7.0; 8.0"		"20.7; 21.7; 21.5"	"10.0; 22.0; 22.0"	Muddy	"Gray black"	Clear	"Seaweed odor"	None	"28.3; 51.5; 53.9 (Each)/ 45.3 (Mixed)"	"3.2; 9.3; 9.1 (Each)/ 5.2 (Mixed)"									"n=3 pooled: SAA007932, SAA007933, SAA007934"	2021/5/24	2021/5/24
PRA000116	SAA007935	ST024				Kyoto_sed2-1_2018	Sediment	"River sediment"	2018	11	8	2018-11-08T10:15			Fair	Asia	Japan	"Miyamae-bashi Bridge, Riv. Katsura (Kyoto City), Kyoto"	34.905		135.7125														19.5	20.5										20	0.8	Sand	"Gray brown"	Clear	Odorless	None	17.0/NA	1.1/NA									"This sample was used as the pooled sample:SAA008098 for chemical analysis"	2021/5/24	2021/5/24
PRA000116	SAA007936	ST024				Kyoto_sed2-2_2018	Sediment	"River sediment"	2018	11	8	2018-11-08T11:00			Fair	Asia	Japan	"Miyamae-bashi Bridge, Riv. Katsura (Kyoto City), Kyoto"	34.905		135.7125														19.5	20.5										20	0.8	Sand	"Gray brown"	Clear	Odorless	None	16.6/NA	1.0/NA									"This sample was used as the pooled sample:SAA008098 for chemical analysis"	2021/5/24	2021/5/24
PRA000116	SAA007937	ST024				Kyoto_sed2-3_2018	Sediment	"River sediment"	2018	11	8	2018-11-08T11:20			Fair	Asia	Japan	"Miyamae-bashi Bridge, Riv. Katsura (Kyoto City), Kyoto"	34.905		135.7125														19.5	20.5										19.8	0.5	Sand	"Gray brown"	Clear	Odorless	None	20.4/NA	1.2/NA									"This sample was used as the pooled sample:SAA008098 for chemical analysis"	2021/5/24	2021/5/24
PRA000116	SAA008098	ST024				Kyoto_sed2-123_2018	Sediment	"River sediment"	2018	11	8	"2018-11-08T10:15; T11:00; T11:20"			Fair	Asia	Japan	"Miyamae-bashi Bridge, Riv. Katsura (Kyoto City), Kyoto"	34.905		135.7125														"19.5; 19.5; 19.5"	"20.5; 20.5; 20.5"										"20.0; 20.0; 19.8"	"0.8; 0.8; 0.5"	Sand	"Gray brown"	Clear	Odorless	None	"17.0; 16.6; 20.4 (Each)/ 18.0 (Mixed)"	"1.1; 1.0; 1.2 (Each)/ 0.9 (Mixed)"									"n=3 pooled: SAA007935, SAA007936, SAA007937"	2021/5/24	2021/5/24
PRA000116	SAA007938	ST024				Osaka_sed1-1_2018	Sediment	"River sediment"	2018	11	13	2018-11-13T11:45			Cloudy	Asia	Japan	"Mouth of Riv. Yamato (Sakai City), Osaka"	34.60833333		135.4325														18.2	19.8								2.2		20.5	2.9	Silt	Black	Clear	"Tar odor"	None	40.8/NA	8.2/NA										2021/5/24	2021/5/24
PRA000116	SAA007939	ST024				Osaka_sed1-2_2018	Sediment	"River sediment"	2018	11	13	2018-11-13T10:25			Cloudy	Asia	Japan	"Mouth of Riv. Yamato (Sakai City), Osaka"	34.60833333		135.4325														17.6	19.6								1.5		20.7	1.5	"Sandy silt"	Black	Clear	"Tar odor"	"Vegetative pieces"	48.4/NA	12.0/NA										2021/5/24	2021/5/24
PRA000116	SAA007940	ST024				Osaka_sed1-3_2018	Sediment	"River sediment"	2018	11	13	2018-11-13T11:05			Cloudy	Asia	Japan	"Mouth of Riv. Yamato (Sakai City), Osaka"	34.60833333		135.4325														17.8	19.7								1.2		20	1.7	Silt	"Olive black"	Clear	"Tar odor"	"Vegetative pieces"	29.4/NA	4.3/NA										2021/5/24	2021/5/24
PRA000116	SAA008099	ST024				Osaka_sed1-123_2018	Sediment	"River sediment"	2018	11	13	"2018-11-13T11:45; T10:25; T11:05"			Cloudy	Asia	Japan	"Mouth of Riv. Yamato (Sakai City), Osaka"	34.60833333		135.4325														"18.2;17.6; 17.8"	"19.8; 19.6; 19.7"								"2.2; 1.5; 1.2"		"20.5; 20.7; 20.0"	"2.9; 1.5; 1.7"	"Silt; Sandy silt; Silt"	"Black; Blak; Olive black"	Clear	"Tar odor"	"None; Vegetative pieces; Vegetatige pieces"	"40.8; 48.4; 29.4 (Each)/ 45.5 (Mixed)"	"8.2; 12.0; 4.3 (Each)/ 6.9 (Mixed)"									"n=3 pooled: SAA007938, SAA007939, SAA007940"	2021/5/24	2021/5/24
PRA000116	SAA007669	ST023				OsakaCity_sed1-1_2018	Sediment	"Marine sediment"	2018	11	12	2018-11-12T11:45			Cloudy	Asia	Japan	"Osaka Port, Osaka"	34.65861111		135.4313889														19.6	19								3		20.4	12.8	Sludge	Black	"Grayish yellow_Light"	"Hydrogen sulfide odor"	None	59.6/NA	11.4/NA										2021/5/24	2021/5/24
PRA000116	SAA007670	ST023				OsakaCity_sed1-2_2018	Sediment	"Marine sediment"	2018	11	12	2018-11-12T11:07			Cloudy	Asia	Japan	"Osaka Port, Osaka"	34.65861111		135.4313889														18.3	19.6								3		20.3	12.9	Sludge	Black	"Grayish yellow_Light"	"Hydrogen sulfide odor"	None	65.1/NA	12.3/NA										2021/5/24	2021/5/24
PRA000116	SAA007671	ST023				OsakaCity_sed1-3_2018	Sediment	"Marine sediment"	2018	11	12	2018-11-12T12:00			Cloudy	Asia	Japan	"Osaka Port, Osaka"	34.65861111		135.4313889														18.9	19.6								3.1		19.8	12.9	Sludge	Black	"Grayish yellow_Light"	"Hydrogen sulfide odor"	None	57.5/NA	10.8/NA										2021/5/24	2021/5/24
PRA000116	SAA008100	ST023				OsakaCity_sed1-123_2018	Sediment	"Marine sediment"	2018	11	12	"2018-11-12T11:45; T11:07; T12:00"			Cloudy	Asia	Japan	"Osaka Port, Osaka"	34.65861111		135.4313889														"19.6; 18.3; 18.9"	"19.0; 19.6; 19.6"								"3.0; 3.0; 3.1"		"20.4; 20.3; 19.8"	"12.8; 12.9; 12.9"	Sludge	Black	"Grayish yellow_Light"	"Hydrogen sulfide odor"	None	"59.6; 65.1; 57.5 (Each)/ 70.2 (Mixed)"	"11.4; 12.3; 10.8 (Each)/ 9.7 (Mixed)"									"n=3 pooled: SAA007669 SAA007670, SAA007671"	2021/5/24	2021/5/24
PRA000116	SAA007941	ST024				OsakaCity_sed2-1_2018	Sediment	"River sediment"	2018	11	16	2018-11-16T09:38			Fair	Asia	Japan	"Kema-bashi Bridge, Riv. Oh (Osaka City), Osaka"	34.71776		135.51961														16	16										15.2	1.95	Sludge	Gray	"Grayish yellow_Light"	Odorless	Shellfish	47.2/NA	10.0/NA										2021/5/24	2021/5/24
PRA000116	SAA007942	ST024				OsakaCity_sed2-2_2018	Sediment	"River sediment"	2018	11	16	2018-11-16T11:05			Fair	Asia	Japan	"Kema-bashi Bridge, Riv. Oh (Osaka City), Osaka"	34.71776		135.51961														16.4	16										16.1	1.6	Sludge	Gray	"Grayish yellow_Light"	Odorless	Shellfish	46.6/NA	8.0/NA										2021/5/24	2021/5/24
PRA000116	SAA007943	ST024				OsakaCity_sed2-3_2018	Sediment	"River sediment"	2018	11	16	2018-11-16T10:25			Fair	Asia	Japan	"Kema-bashi Bridge, Riv. Oh (Osaka City), Osaka"	34.71776		135.51961														18.7	16.1										16.2	3	Sludge	Gray	"Grayish yellow_Dark"	Odorless	Shellfish	36.7/NA	6.4/NA										2021/5/24	2021/5/24
PRA000116	SAA008101	ST024				OsakaCity_sed2-123_2018	Sediment	"River sediment"	2018	11	16	"2018-11-16T09:38; T11:05; T10:25"			Fair	Asia	Japan	"Kema-bashi Bridge, Riv. Oh (Osaka City), Osaka"	34.71776		135.51961														"16.0; 16.4; 18.7"	"16.0; 16.0; 16.1"										"15.2; 16.1; 16.2"	"1.95; 1.6; 3.0"	Sludge	Gray	"Grayish yellow_Dark"	Odorless	Shellfish	"47.2; 46.6; 36.7 (Each)/ 56.2 (Mixed)"	"10.0; 8.0; 6.4 (Each)/ 8.7 (Mixed)"									"n=3 pooled: SAA007941, SAA007942, SAA007943"	2021/5/24	2021/5/24
PRA000116	SAA008102	ST023				OsakaCity_sed4-1_2018	Sediment	"Marine sediment"	2018	11	12	2018-11-12T12:28			Cloudy	Asia	Japan	"Outside of Osaka Port, Osaka"	34.64027778		135.3858333														17.9	19.8								3.3		19.5	17.5	Sludge	Gray	"Grayish yellow_Light"	Odorless	None	54.7	9.1									"This sample was used as the pooled sample:SAA008105 for chemical analysis"	2021/5/24	2021/5/24
PRA000116	SAA008103	ST023				OsakaCity_sed4-2_2018	Sediment	"Marine sediment"	2018	11	12	2018-11-12T12:45			Cloudy	Asia	Japan	"Outside of Osaka Port, Osaka"	34.64027778		135.3858333														16.5	19.4								3.3		19.8	12.5	Sludge	Gray	"Grayish yellow_Light"	Odorless	Shellfish	48.9	8.5									"This sample was used as the pooled sample:SAA008105 for chemical analysis"	2021/5/24	2021/5/24
PRA000116	SAA008104	ST023				OsakaCity_sed4-3_2018	Sediment	"Marine sediment"	2018	11	12	2018-11-12T12:59			Cloudy	Asia	Japan	"Outside of Osaka Port, Osaka"	34.64027778		135.3858333														17	19.8								3.2		19.3	12.8	Sludge	Gray	"Grayish yellow_Light"	Odorless	None	25.1	3.3									"This sample was used as the pooled sample:SAA008105 for chemical analysis"	2021/5/24	2021/5/24
PRA000116	SAA008105	ST023				OsakaCity_sed4-123_2018	Sediment	"Marine sediment"	2018	11	12	"2018-11-12T12:28; T12:45; T12:59"			Cloudy	Asia	Japan	"Outside of Osaka Port, Osaka"	34.64027778		135.3858333														"17.9; 16.5; 17.0"	"19.8; 19.4; 19.8"								"3.3; 3.3; 3.2"		"19.5; 19.8; 19.3"	"17.5; 12.5; 12.8"	Sludge	Gray	"Grayish yellow_Light"	Odorless	"None; Shellfish; None"	"54.7; 48.9; 25.1 (Each)/ 58.5 (Mixed)"	"9.1; 8.5; 3.3 (Each)/ 6.6 (Mixed)"									"n=3 pooled: SAA008102, SAA008103, SAA008104"	2021/5/24	2021/5/24
PRA000116	SAA008106	ST024				OsakaCity_sed3-1_2018	Sediment	"River sediment"	2018	11	12	2018-11-12T13:23			Rain	Asia	Japan	"Mouth of Riv. Yodo, Osaka"	34.67638889		135.3975														16.1	19.2								2.3		19	6.5	Sludge	Gray	"Grayish yellow_Light"	Odorless	"Vegetative pieces"	32.7	6.8									"This sample was used as the pooled sample:SAA008109 for chemical analysis"	2021/5/24	2021/5/24
PRA000116	SAA008107	ST024				OsakaCity_sed3-2_2018	Sediment	"River sediment"	2018	11	12	2018-11-12T13:38			Cloudy	Asia	Japan	"Mouth of Riv. Yodo, Osaka"	34.67638889		135.3975														15.8	19.8								3.1		20	5.2	Sludge	Gray	"Grayish yellow_Light"	Odorless	"Vegetative pieces"	32	6.8									"This sample was used as the pooled sample:SAA008109 for chemical analysis"	2021/5/24	2021/5/24
PRA000116	SAA008108	ST024				OsakaCity_sed3-3_2018	Sediment	"River sediment"	2018	11	12	2018-11-12T13:55			Cloudy	Asia	Japan	"Mouth of Riv. Yodo, Osaka"	34.67638889		135.3975														15.7	19.7								2.9		20	4.1	Sludge	Gray	"Grayish yellow_Light"	Odorless	"Vegetative pieces"	50.8	11.9									"This sample was used as the pooled sample:SAA008109 for chemical analysis"	2021/5/24	2021/5/24
PRA000116	SAA008109	ST024				OsakaCity_sed3-123_2018	Sediment	"River sediment"	2018	11	12	"2018-11-12T13:23; T13:38; T13:55"			"Rain; Cloudy; Cloudy"	Asia	Japan	"Mouth of Riv. Yodo, Osaka"	34.67638889		135.3975														"16.1; 15.8; 15.7 "	"19.2; 19.8; 19.7"								"2.3; 3.1; 2.9"		"19.0; 20.0; 20.0"	"6.5; 5.2; 4.1"	Sludge	Gray	"Grayish yellow_Light"	Odorless	"Vegetative pieces"	"32.7; 32.0; 50.8 (Each)/ 50.8 (Mixed)"	"6.8; 6.8; 11.9 (Each); 7.9 (Mixed)"									"n=3 pooled: SAA008106, SAA008107, SAA008108"	2021/5/24	2021/5/24
PRA000116	SAA007672	ST023				Hyogo_sed1-1_2018	Sediment	"Marine sediment"	2018	10	18	2018-10-18T11:29			Fair	Asia	Japan	"Offshore of Himeji, Hyogo"	34.76194444		134.6697222														21.8	23.9								2		23	11	Silt	"Gray green"	"Greenish brown"	"Hydrogen sulfide odor_Faint"	None												2021/5/24	2021/5/24
PRA000116	SAA007673	ST023				Hyogo_sed1-2_2018	Sediment	"Marine sediment"	2018	10	18	2018-10-18T11:13			Fair	Asia	Japan	"Offshore of Himeji, Hyogo"	34.76194444		134.6697222														21.8	23.5								2.1		23.1	10	Silt	"Gray green"	"Greenish brown"	"Hydrogen sulfide odor_Faint"	None												2021/5/24	2021/5/24
PRA000116	SAA007674	ST023				Hyogo_sed1-3_2018	Sediment	"Marine sediment"	2018	10	18	2018-10-18T10:59			Fair	Asia	Japan	"Offshore of Himeji, Hyogo"	34.76194444		134.6697222														22	23.3								2.2		23.5	8	Silt	"Gray green"	"Greenish brown"	"Hydrogen sulfide odor_Faint"	None												2021/5/24	2021/5/24
PRA000116	SAA008110	ST023				Hyogo_sed1-123_2018	Sediment	"Marine sediment"	2018	10	18	"2018-10-18T11:29; T11:13; T10:59"			Fair	Asia	Japan	"Offshore of Himeji, Hyogo"	34.76194444		134.6697222														"21.8; 21.8; 22.0"	"23.9; 23.5; 23.3"								"2.0; 2.1; 2.2"		"23.0; 23.1; 23.5"	"11.0; 10.0; 8.0"	Silt	"Gray green"	"Greenish brown"	"Hydrogen sulfide odor_Faint"	None											"n=3 pooled: SAA007672, SAA007673, SAA007674"	2021/5/24	2021/5/24
PRA000116	SAA008111	ST023				Hyogo_sed2-1_2018	Sediment	"Marine sediment"	2018	11	1	2018-11-01T10:30			Fair	Asia	Japan	"Center of Kobe Port, Hyogo"	34.66444444		135.1944444														16	21								2.3		20.5	10.7	Silt	"Gray black"	"Greenish brown"	"Hydrogen sulfide odor_Faint"	None	52.6	8.7									"This sample was used as the pooled sample:SAA008114 for chemical analysis"	2021/5/24	2021/5/24
PRA000116	SAA008112	ST023				Hyogo_sed2-2_2018	Sediment	"Marine sediment"	2018	11	1	2018-11-01T11:05			Fair	Asia	Japan	"Center of Kobe Port, Hyogo"	34.66444444		135.1944444														20	19								2.7		21	10.4	Silt	"Gray black"	"Greenish brown"	"Hydrogen sulfide odor_Faint"	None	46.4	8.4									"This sample was used as the pooled sample:SAA008114 for chemical analysis"	2021/5/24	2021/5/24
PRA000116	SAA008113	ST023				Hyogo_sed2-3_2018	Sediment	"Marine sediment"	2018	11	1	2018-11-01T11:18			Fair	Asia	Japan	"Center of Kobe Port, Hyogo"	34.66444444		135.1944444														17	19								2.5		20.5	13.2	Silt	"Gray black"	"Greenish brown"	"Hydrogen sulfide odor_Faint"	None	57.2	9.6									"This sample was used as the pooled sample:SAA008114 for chemical analysis"	2021/5/24	2021/5/24
PRA000116	SAA008114	ST023				Hyogo_sed2-123_2018	Sediment	"Marine sediment"	2018	11	1	"2018-11-01T10:30; T11:05; T11:18"			Fair	Asia	Japan	"Center of Kobe Port, Hyogo"	34.66444444		135.1944444														"16.0; 20.0; 17.0"	"21.0; 19.0; 19.0"								"2.3; 2.7; 2.5"		"20.5; 21.0; 20.5"	"10.7; 10.4; 13.2"	Silt	"Gray black"	"Greenish brown"	"Hydrogen sulfide odor_Faint"	None	"52.6; 46.4; 57.2 (Each)/ 63.5(Mixed)"	"8.7; 8.4; 9.6 (Each)/ 7.9(Mixed)"									"n=3 pooled: SAA008111, SAA008112, SAA008113"	2021/5/24	2021/5/24
PRA000116	SAA007947	ST024				Nara_sed1-1_2018	Sediment	"River sediment"	2018	10	2	2018-10-02T10:40			Fair	Asia	Japan	"Riv. Yamato (Oji Town), Nara"	34.58583333		135.6833333														24	19										19.5	0.3	Muddy	"Blackish brown"	"Yellowish brown_Light"	"Earthy odor"	None	27.0/NA	1.8/NA										2021/5/24	2021/5/24
PRA000116	SAA007948	ST024				Nara_sed1-2_2018	Sediment	"River sediment"	2018	10	2	2018-10-02T10:40			Fair	Asia	Japan	"Riv. Yamato (Oji Town), Nara"	34.58583333		135.6833333														24	19										19	0.3	Sandy	Brown	"Yellowish brown_Light"	"Sewage odor"	None	10.0/NA	0.4/NA										2021/5/24	2021/5/24
PRA000116	SAA007949	ST024				Nara_sed1-3_2018	Sediment	"River sediment"	2018	10	2	2018-10-02T10:40			Fair	Asia	Japan	"Riv. Yamato (Oji Town), Nara"	34.58583333		135.6833333														24	19										20	0.3	Sandy	Brown	"Yellowish brown_Light"	"Swampy odor"	None	10.0/NA	0.4/NA										2021/5/24	2021/5/24
PRA000116	SAA008115	ST024				Nara_sed1-123_2018	Sediment	"River sediment"	2018	10	2	"2018-10-02T10:40; T10:40;T10:40"			Fair	Asia	Japan	"Riv. Yamato (Oji Town), Nara"	34.58583333		135.6833333														"24.0; 24.0; 24.0 "	"19.0; 19.0; 19.0"										"19.5; 19.0; 20.0"	0.3	"Muddy; Sandy; Sandy"	"Blackish brown; Brown; Brown"	"Yellowish brown_Light"	"Earthy odor; Sewage odor; Swampy odor"	None	"27.0; 10.0; 10.0 (Each)/ 21.7 (Mixed)"	"1.8; 0.4; 0.4 (Each)/ 0.8 (Mixed)"									"n=3 pooled: SAA007947, SAA007948, SAA007949"	2021/5/24	2021/5/24
PRA000116	SAA007950	ST024				Wakayama_sed1-1_2018	Sediment	"River sediment"	2018	11	13	2018-11-13T14:40			Cloudy	Asia	Japan	"Kinokawa-ohashi Bridge, Mouth of Riv. Kinokawa (Wakayama City), Wakayama"	34.23		135.1561111														18.7	20.1								2		20.8	3.5	Sandy	Gray	"Greenish blue"	"Seaweed odor"	None	20.7/NA	1.8/NA										2021/5/24	2021/5/24
PRA000116	SAA007951	ST024				Wakayama_sed1-2_2018	Sediment	"River sediment"	2018	11	13	2018-11-13T13:45			Cloudy	Asia	Japan	"Kinokawa-ohashi Bridge, Mouth of Riv. Kinokawa (Wakayama City), Wakayama"	34.23		135.1561111														19.3	20.8								2		20.2	5.3	Sandy	Gray	"Greenish blue"	"Seaweed odor"	"Pebble; Shell"	18.8/NA	1.5/NA										2021/5/24	2021/5/24
PRA000116	SAA007952	ST024				Wakayama_sed1-3_2018	Sediment	"River sediment"	2018	11	13	2018-11-13T13:05			Cloudy	Asia	Japan	"Kinokawa-ohashi Bridge, Mouth of Riv. Kinokawa (Wakayama City), Wakayama"	34.23		135.1561111														18	20.4								3		20.6	3.9	"Sandy (partly muddy)"	"Gray brown"	"Greenish blue"	"Seaweed odor"	"Pebble; Shell"	18.7/NA	2.2/NA										2021/5/24	2021/5/24
PRA000116	SAA008116	ST024				Wakayama_sed1-123_2018	Sediment	"River sediment"	2018	11	13	"2018-11-13T14:40; T13:45; T13:05"			Cloudy	Asia	Japan	"Kinokawa-ohashi Bridge, Mouth of Riv. Kinokawa (Wakayama City), Wakayama"	34.23		135.1561111														"18.7; 19.3; 18.0"	"20.1; 20.8; 20.4"								"2.0; 2.0; 3.0"		"20.8; 20.2; 20.6"	"3.5; 5.3; 3.9"	"Sandy; Sandy; Sandy (partly muddy)"	"Gray; Gray; Gray brown"	"Greenish blue"	"Seaweed odor"	"None; Pebble; Shell"	"20.7; 18.8; 18.7 (Each)/ 20.5 (Mixed)"	"1.8; 1.5; 2.2 (Each)/ 1.5 (Mixed)"									"n=3 pooled: SAA007950, SAA007951, SAA007952"	2021/5/24	2021/5/24
PRA000116	SAA007678	ST023				Okayama_sed1-1_2018	Sediment	"Marine sediment"	2018	11	13	2018-11-13T11:00			Cloudy	Asia	Japan	"Offshore of Mizushima, Okayama"	34.48055556		133.665														18	19								1.8		19.7	11	Ooze	"Gray green"	"Yellow green_Dark"	"Earthy odor"	"Small pieces of shell"	46.1/NA	5.8/NA										2021/5/24	2021/5/24
PRA000116	SAA007679	ST023				Okayama_sed1-2_2018	Sediment	"Marine sediment"	2018	11	13	2018-11-13T11:20			Cloudy	Asia	Japan	"Offshore of Mizushima, Okayama"	34.48055556		133.665														18	19								1.8		19.7	11.4	Ooze	"Gray green"	"Yellow green_Dark"	"Earthy odor"	"Small pieces of shell"	48.9/NA	6.4/NA										2021/5/24	2021/5/24
PRA000116	SAA007680	ST023				Okayama_sed1-3_2018	Sediment	"Marine sediment"	2018	11	13	2018-11-13T12:05			Cloudy	Asia	Japan	"Offshore of Mizushima, Okayama"	34.48055556		133.665														18	19								1.8		19.6	9	Ooze	"Gray green"	"Yellow green_Dark"	"Earthy odor"	"Small pieces of shell"	48.5/NA	6.3/NA										2021/5/24	2021/5/24
PRA000116	SAA008117	ST023				Okayama_sed1-123_2018	Sediment	"Marine sediment"	2018	11	13	"2018-11-13T11:00; T11:20; T12:05"			Cloudy	Asia	Japan	"Offshore of Mizushima, Okayama"	34.48055556		133.665														"18.0; 18.0; 18.0"	"19.0; 19.0; 19.0"								"1.8; 1.8; 1.8"		"19.7; 19.7; 19.6"	"11.0; 11.4; 9.0"	Ooze	"Gray green"	"Yellow green_Dark"	"Earthy odor"	"Small pieces of shell"	"46.1; 48.9; 48.5 (Each)/ 44.5 (Mixed)"	"5.8; 6.4; 6.3 (Each)/ 5.2 (Mixed)"									"n=3 pooled: SAA007678, SAA007679, SAA007680"	2021/5/24	2021/5/24
PRA000116	SAA008118	ST023				Hiroshima_sed1-1_2018	Sediment	"Marine sediment"	2018	11	13	2018-11-13T09:53			Fair	Asia	Japan	"Kure Port, Hiroshima"	34.23361111		132.5391667														16.7	19.8								6		20	19	Silt	"Gray green_dark"	"Blue green_Dark"	None	None	60.2	12.7									"This sample was used as the pooled sample:SAA008121 for chemical analysis"	2021/5/24	2021/5/24
PRA000116	SAA008119	ST023				Hiroshima_sed1-2_2018	Sediment	"Marine sediment"	2018	11	13	2018-11-13T10:24			Fair	Asia	Japan	"Kure Port, Hiroshima"	34.23361111		132.5391667														17.6	19.9								6		19.8	18	Silt	"Gray green_dark"	"Blue green_Dark"	"Hydrogen sulfide odor"	None	61.3	12.3									"This sample was used as the pooled sample:SAA008121 for chemical analysis"	2021/5/24	2021/5/24
PRA000116	SAA008120	ST023				Hiroshima_sed1-3_2018	Sediment	"Marine sediment"	2018	11	13	2018-11-13T10:36			Fair	Asia	Japan	"Kure Port, Hiroshima"	34.23361111		132.5391667														17.2	19.9								7		20.1	20	Silt	"Gray green_dark"	"Blue green_Dark"	"Hydrogen sulfide odor"	None	66.7	12.8									"This sample was used as the pooled sample:SAA008121 for chemical analysis"	2021/5/24	2021/5/24
PRA000116	SAA008121	ST023				Hiroshima_sed1-123_2018	Sediment	"Marine sediment"	2018	11	13	"2018-11-13T09:53; T10:24; T10:36"			Fair	Asia	Japan	"Kure Port, Hiroshima"	34.23361111		132.5391667														"16.7; 17.6; 17.2"	"19.8; 19.9; 19.9"								"6.0; 6.0; 7.0"		"20.0; 19.8; 20.1"	"19.8; 18.0; 20.0"	Silt	"Gray green_dark"	"Blue green_Dark"	"None; Hydrogen sulfide odor; Hydrogen sulfide odor"	None	"60.2; 61.3; 66.7 (Each)/ 71.6 (Mixed)"	"12.7; 12.3; 12.8 (Each)/ 11.0 (Mixed)"									"n=3 pooled: SAA008118, SAA008119, SAA008120"	2021/5/24	2021/5/24
PRA000116	SAA008122	ST023				Hiroshima_sed2-1_2018	Sediment	"Marine sediment"	2018	11	13	2018-11-13T13:01			Cloudy	Asia	Japan	"Hiroshima Bay (Hiroshima City), Hiroshima"	34.34833333		132.4225														17.9	19.9								7		19.8	13	Silt	"Gray brown_dark"	"Blue green_Dark"	None	None	56.5	11.8									"This sample was used as the pooled sample:SAA008125 for chemical analysis"	2021/5/24	2021/5/24
PRA000116	SAA008123	ST023				Hiroshima_sed2-2_2018	Sediment	"Marine sediment"	2018	11	13	2018-11-13T13:42			Cloudy	Asia	Japan	"Hiroshima Bay (Hiroshima City), Hiroshima"	34.34833333		132.4225														17.8	20.4								3		20	13	Silt	"Gray brown_dark"	"Blue green_Dark"	None	None	56.8	11.8									"This sample was used as the pooled sample:SAA008125 for chemical analysis"	2021/5/24	2021/5/24
PRA000116	SAA008124	ST023				Hiroshima_sed2-3_2018	Sediment	"Marine sediment"	2018	11	13	2018-11-13T13:52			Cloudy	Asia	Japan	"Hiroshima Bay (Hiroshima City), Hiroshima"	34.34833333		132.4225														17.5	20.2								5		20.1	14	Silt	"Gray brown_dark"	"Blue green_Dark"	None	None	58.6	12.1									"This sample was used as the pooled sample:SAA008125 for chemical analysis"	2021/5/24	2021/5/24
PRA000116	SAA008125	ST023				Hiroshima_sed2-123_2018	Sediment	"Marine sediment"	2018	11	13	"2018-11-13T13:01; T13:42; T13:52"			Cloudy	Asia	Japan	"Hiroshima Bay (Hiroshima City), Hiroshima"	34.34833333		132.4225														"17.9; 17.8; 17.5"	"19.9; 20.4; 20.2"								"7.0; 3.0; 5.0"		"19.8; 20.0; 20.1"	"13.0; 13.0; 14.0"	Silt	"Gray brown_dark"	"Blue green_Dark"	None	None	"56.5; 56.8; 58.6 (Each)/ 66.8 (Mixed)"	"11.8; 11.8; 12.1 (Each)/ 10.1 (Mixed)"									"n=3 pooled: SAA008122, SAA008123, SAA008124"	2021/5/24	2021/5/24
PRA000116	SAA007681	ST023				Yamaguchi_sed1-1_2018	Sediment	"Marine sediment"	2018	10	19	2018-10-19T13:45			Fair	Asia	Japan	"Tokuyama Bay, Yamaguchi"	33.99361111		131.7505556														21.5	21.3								6.5		19	23	Silt	"Gray yellow green"	"Blue green"	"Hydrogen sulfide odor_Faint"	None	61.0/NA	10.7/NA										2021/5/24	2021/5/24
PRA000116	SAA007682	ST023				Yamaguchi_sed1-2_2018	Sediment	"Marine sediment"	2018	10	19	2018-10-19T13:55			Fair	Asia	Japan	"Tokuyama Bay, Yamaguchi"	33.99361111		131.7505556														21.5	21.3								6.5		19	23	Silt	"Gray yellow green"	"Blue green"	"Hydrogen sulfide odor_Faint"	None	57.8/NA	10.3/NA										2021/5/24	2021/5/24
PRA000116	SAA007683	ST023				Yamaguchi_sed1-3_2018	Sediment	"Marine sediment"	2018	10	19	2018-10-19T14:04			Fair	Asia	Japan	"Tokuyama Bay, Yamaguchi"	33.99361111		131.7505556														21.5	21.3								6.5		19	23	Silt	"Gray yellow green"	"Blue green"	"Hydrogen sulfide odor_Faint"	None	56.7/NA	10.0/NA										2021/5/24	2021/5/24
PRA000116	SAA008126	ST023				Yamaguchi_sed1-123_2018	Sediment	"Marine sediment"	2018	10	19	"2018-10-19T13:45; T13:55; T14:04"			Fair	Asia	Japan	"Tokuyama Bay, Yamaguchi"	33.99361111		131.7505556														"21.5; 21.5; 21.5"	"21.3; 21.3; 21.3"								"6.5; 6.5; 6.5"		"19.0; 19.0; 19.0"	"23.0; 23.0; 23.0"	Silt	"Gray yellow green"	"Blue green"	"Hydrogen sulfide odor_Faint"	None	"61.0; 57.8; 56.7 (Each)/ 66.2 (Mixed)"	"10.7; 10.3; 10.0 (Each)/ 8.1 (Mixed)"									"n=3 pooled: SAA007681, SAA007682, SAA007683"	2021/5/24	2021/5/24
PRA000116	SAA008127	ST023				Yamaguchi_sed2-1_2018	Sediment	"Marine sediment"	2018	10	12	2018-10-12T10:53			Fair	Asia	Japan	"Offshore of Ube, Yamaguchi"	33.915		131.1975														20	21.8								4		19	9.8	Silt	"Gray green"	"Gray green"	None	None	38.8	7.6									"This sample was used as the pooled sample:SAA008130 for chemical analysis"	2021/5/24	2021/5/24
PRA000116	SAA008128	ST023				Yamaguchi_sed2-1_2018	Sediment	"Marine sediment"	2018	10	12	2018-10-12T11:01			Fair	Asia	Japan	"Offshore of Ube, Yamaguchi"	33.915		131.1975														20	21.8								4		19	9.8	Silt	"Gray green"	"Gray green"	None	None	36.3	7.4									"This sample was used as the pooled sample:SAA008130 for chemical analysis"	2021/5/24	2021/5/24
PRA000116	SAA008129	ST023				Yamaguchi_sed2-1_2018	Sediment	"Marine sediment"	2018	10	12	2018-10-12T11:10			Fair	Asia	Japan	"Offshore of Ube, Yamaguchi"	33.915		131.1975														20	21.8								4		19	9.8	Silt	"Gray green"	"Gray green"	None	None	32	7.2									"This sample was used as the pooled sample:SAA008130 for chemical analysis"	2021/5/24	2021/5/24
PRA000116	SAA008130	ST023				Yamaguchi_sed2-123_2018	Sediment	"Marine sediment"	2018	10	12	"2018-10-12T10:53; T11:01; T11:10"			Fair	Asia	Japan	"Offshore of Ube, Yamaguchi"	33.915		131.1975														"20.0; 20.0; 20.0"	"21.8; 21.8; 21.8"								"4.0; 4.0; 4.0"		"19.0; 19.0; 19.0"	"9.8; 9.8; 9.8"	Silt	"Gray green"	"Gray green"	None	None	"38.8; 36.3; 32.0 (Each)/ 43.8 (Mixed)"	"7.6; 7.4; 7.2 (Each)/ 6.3 (Mixed)"									"n=3 pooled: SAA008127, SAA008128, SAA008129"	2021/5/24	2021/5/24
PRA000116	SAA007684	ST023				Yamaguchi_sed3-1_2018	Sediment	"Marine sediment"	2018	11	1	2018-11-01T11:15			Fair	Asia	Japan	"Offshore of Hagi, Yamaguchi"	34.43805556		131.3794444														20	20.9								9		20	26.4	"Fine sand"	"Light gray"	"Blue green"	Odorless	None	35.7/NA	5.8/NA										2021/5/24	2021/5/24
PRA000116	SAA007685	ST023				Yamaguchi_sed3-2_2018	Sediment	"Marine sediment"	2018	11	1	2018-11-01T11:25			Fair	Asia	Japan	"Offshore of Hagi, Yamaguchi"	34.43805556		131.3794444														20	20.9								9		20	26.4	"Fine sand"	"Light gray"	"Blue green"	Odorless	None	34.2/NA	5.8/NA										2021/5/24	2021/5/24
PRA000116	SAA007686	ST023				Yamaguchi_sed3-3_2018	Sediment	"Marine sediment"	2018	11	1	2018-11-01T11:36			Fair	Asia	Japan	"Offshore of Hagi, Yamaguchi"	34.43805556		131.3794444														20	20.9								9		20	26.4	"Fine sand"	"Light gray"	"Blue green"	Odorless	None	33.7/NA	5.8/NA										2021/5/24	2021/5/24
PRA000116	SAA008131	ST023				Yamaguchi_sed3-123_2018	Sediment	"Marine sediment"	2018	11	1	"2018-11-01T11:15; T11:25; T11:36"			Fair	Asia	Japan	"Offshore of Hagi, Yamaguchi"	34.43805556		131.3794444														"20.0; 20.0; 20.0"	"20.9; 20.9; 20.9"								"9.0; 9.0; 9.0"		"20.0; 20.0; 20.0"	"26.4; 26.4; 26.4"	"Fine sand"	"Light gray"	"Blue green"	Odorless	None	"35.7; 34.2; 33.7 (Each)/ 30.7 (Mixed)"	"5.8; 5.8; 5.8 (Each)/ 3.9 (Mixed)"									"n=3 pooled: SAA007684, SAA007685, SAA007686"	2021/5/24	2021/5/24
PRA000116	SAA008132	ST024				Tokushima_sed1-1_2018	Sediment	"River sediment"	2018	10	16	2018-10-16T09:30			Cloudy	Asia	Japan	"Mouth of Riv. Yoshino (Tokushima City), Tokushima"	34.085		134.5913889														19.8	19.5								2		19.7	6.3	Sandy	"Gray black"	Green_Dark	Odorless	None	16	1.2									"This sample was used as the pooled sample:SAA008135 for chemical analysis"	2021/5/24	2021/5/24
PRA000116	SAA008133	ST024				Tokushima_sed1-2_2018	Sediment	"River sediment"	2018	10	16	2018-10-16T09:00			Cloudy	Asia	Japan	"Mouth of Riv. Yoshino (Tokushima City), Tokushima"	34.085		134.5913889														18.5	19.4								2.5		22	4.6	Sandy	"Gray black"	Green_Dark	Odorless	None	17	1.3									"This sample was used as the pooled sample:SAA008135 for chemical analysis"	2021/5/24	2021/5/24
PRA000116	SAA008134	ST024				Tokushima_sed1-3_2018	Sediment	"River sediment"	2018	10	16	2018-10-16T09:55			Cloudy	Asia	Japan	"Mouth of Riv. Yoshino (Tokushima City), Tokushima"	34.085		134.5913889														19	20.1								2		21.2	6.2	Sandy	"Gray black"	Green_Dark	Odorless	None	20	1.3									"This sample was used as the pooled sample:SAA008135 for chemical analysis"	2021/5/24	2021/5/24
PRA000116	SAA008135	ST024				Tokushima_sed1-123_2018	Sediment	"River sediment"	2018	10	16	"2018-10-16T09:30; T09:00; T09:55"			Cloudy	Asia	Japan	"Mouth of Riv. Yoshino (Tokushima City), Tokushima"	34.085		134.5913889														"19.8; 18.5; 19.0"	"19.5; 19.4; 20.1"								"2.0; 2.5; 2.0"		"19.7; 22.0; 21.2"	"6.3; 4.6; 6.2"	Sandy	"Gray black"	Green_Dark	Odorless	None	"16.0; 17.0; 20.0 (Each)/ 21.4 (Mixed)"	"1.2; 1.3; 1.3 (Each)/ 1.1 (Mixed)"									"n=3 pooled: SAA008132, SAA008133, SAA008134"	2021/5/24	2021/5/24
PRA000116	SAA007953	ST023				Kagawa_sed1-1_2018	Sediment	"Marine sediment"	2018	10	23	2018-10-23T09:05			Cloudy	Asia	Japan	"Takamatsu Port, Kagawa"	34.34972222		134.0788889														20.8	22.3								2		22.2	2.4	Muddy	Black	Green	"Hydrogen sulfide odor"	"Mostly vegetative pieces; partly pieces of plastics and shell"	57.2/NA	14.8/NA										2021/5/24	2021/5/24
PRA000116	SAA007954	ST023				Kagawa_sed1-2_2018	Sediment	"Marine sediment"	2018	10	23	2018-10-23T09:20			Cloudy	Asia	Japan	"Takamatsu Port, Kagawa"	34.34972222		134.0788889														21	22.2								1.5		22.2	6.1	Sandy	"Olive black"	Green	"Fish odor"	"Mostly vegetative pieces; partly pieces of shell"	25.1/NA	1.7/NA										2021/5/24	2021/5/24
PRA000116	SAA007955	ST023				Kagawa_sed1-3_2018	Sediment	"Marine sediment"	2018	10	23	2018-10-23T09:36			Cloudy	Asia	Japan	"Takamatsu Port, Kagawa"	34.34972222		134.0788889														20	22.2								2		22.5	5.5	Muddy	Black	Green	"Hydrogen sulfide odor"	None	36.7/NA	5.9/NA										2021/5/24	2021/5/24
PRA000116	SAA008136	ST023				Kagawa_sed1-123_2018	Sediment	"Marine sediment"	2018	10	23	"2018-10-23T09:05; T09:20; T09:36"			Cloudy	Asia	Japan	"Takamatsu Port, Kagawa"	34.34972222		134.0788889														"20.8; 21.0; 20.0"	"22.3; 22.2; 22.2"								"2.0; 1.5; 2.0"		"22.2; 22.2; 22.5"	"2.4; 6.1; 5.5"	"Muddy; Sandy; Muddy"	"Black; Olive black; Black"	"Green; Green; Green"	"Hydrogen sulfide odor; Fish odor; Hydrogen sulfide odor"	"Mostly vegetative pieces; partly pieces of plastics and shell; Mostly vegetative pieces; partly pieces of shell; None"	"57.2; 25.1; 36.7 (Each)/ 46.2 (Mixed)"	"14.8; 1.7; 5.9 (Each)/ 5.3 (Mixed)"									"n=3 pooled: SAA007953, SAA007954, SAA007955"	2021/5/24	2021/5/24
PRA000116	SAA007957	ST023				Ehime_sed1-1_2018	Sediment	"Marine sediment"	2018	10	29	2018-10-29T10:30			Fair	Asia	Japan	"Niihama Port, Ehime"	33.98777778		133.3144444														22.5	21								2		19.6	7.3	"Fine sand"	"Gray green_dark"	"Yellow green_Dark"	Odorless	None	31.7/NA	2.5/NA										2021/5/24	2021/5/24
PRA000116	SAA007958	ST023				Ehime_sed1-2_2018	Sediment	"Marine sediment"	2018	10	29	2018-10-29T10:40			Fair	Asia	Japan	"Niihama Port, Ehime"	33.98777778		133.3144444														22.5	21								2		19.6	7.3	"Fine sand"	"Gray green_dark"	"Yellow green_Dark"	Odorless	None	32.6/NA	2.5/NA										2021/5/24	2021/5/24
PRA000116	SAA007959	ST023				Ehime_sed1-3_2018	Sediment	"Marine sediment"	2018	10	29	2018-10-29T10:50			Fair	Asia	Japan	"Niihama Port, Ehime"	33.98777778		133.3144444														22.5	21								2		19.6	7.3	"Fine sand"	"Gray green_dark"	"Yellow green_Dark"	Odorless	None	31.0/NA	2.5/NA										2021/5/24	2021/5/24
PRA000116	SAA008137	ST023				Ehime_sed1-123_2018	Sediment	"Marine sediment"	2018	10	29	"2018-10-29T10:30; T10:40; T10:50"			Fair	Asia	Japan	"Niihama Port, Ehime"	33.98777778		133.3144444														"22.5; 22.5; 22.5"	"21.0; 21.0; 21.0"								"2.0; 2.0; 2.0"		"19.6; 19.6; 19.6"	"7.3; 7.3; 7.3"	"Fine sand"	"Gray green_dark"	"Yellow green_Dark"	Odorless	None	"31.7; 32.6; 31.0 (Each)/ 36.8 (Mixed)"	"2.5; 2.5; 2.5 (Each)/ 3.3 (Mixed)"									"n=3 pooled: SAA007957, SAA007958, SAA007959"	2021/5/24	2021/5/24
PRA000116	SAA008138	ST024				Kochi_sed1-1_2018	Sediment	"River sediment"	2018	10	11	2018-10-11T08:45			Cloudy	Asia	Japan	"Mouth of Riv. Shimanto (Shimanto City), Kochi"	32.93777778		132.8441667														19.8	19.7										23.2	6.9	Muddy	"Blackish brown"	Clear	"Earthy odor_Faint"	branches	37.7	9.2									"This sample was used as the pooled sample:SAA008141 for chemical analysis"	2021/5/24	2021/5/24
PRA000116	SAA008139	ST024				Kochi_sed1-2_2018	Sediment	"River sediment"	2018	10	11	2018-10-11T09:38			Cloudy	Asia	Japan	"Mouth of Riv. Shimanto (Shimanto City), Kochi"	32.93777778		132.8441667														21.2	21										22.5	7	Muddy	"Blackish brown"	Clear	"Hydrogen sulfide odor_Faint"	"Shell; Branches; Pebbles"	32.3	5.5									"This sample was used as the pooled sample:SAA008141 for chemical analysis"	2021/5/24	2021/5/24
PRA000116	SAA008140	ST024				Kochi_sed1-3_2018	Sediment	"River sediment"	2018	10	11	2018-10-11T11:05			Cloudy	Asia	Japan	"Mouth of Riv. Shimanto (Shimanto City), Kochi"	32.93777778		132.8441667														18	20										19.8	0.5	Sandy	"Gray brown"	Clear	Odorless	Pebbles	21.2	2.8									"This sample was used as the pooled sample:SAA008141 for chemical analysis"	2021/5/24	2021/5/24
PRA000116	SAA008141	ST024				Kochi_sed1-123_2018	Sediment	"River sediment"	2018	10	11	"2018-10-11T08:45; T09:38; T11:05"			Cloudy	Asia	Japan	"Mouth of Riv. Shimanto (Shimanto City), Kochi"	32.93777778		132.8441667														"19.8; 21.2; 18.0"	"19.7; 21.0; 20.0"										"23.2; 22.5; 19.8"	"6.9; 7.0; 0.5"	"Muddy; Muddy; Sandy"	"Blackish brown; Blackish brown; Gray brown"	Clear	"Earthy odor_Faint; Hydrogen sulfide odor_Faint; Odorless"	"branches; Shell; Branches; Pebbles; Pebbles"	"37.7; 32.3; 21.2 (Each)/ 39.0 (Mixed)"	"9.2; 5.5; 2.8 (Each)/ 5.0 (Mixed)"									"n=3 pooled: SAA008138, SAA008139, SAA008140"	2021/5/24	2021/5/24
PRA000116	SAA007687	ST023				KitakyushuCity_sed1-1_2018	Sediment	"Marine sediment"	2018	10	30	2018-10-30T10:30			Fair	Asia	Japan	"Dokai Bay (Kitakyushu City), Fukuoka"	33.90388889		130.8158333														19.1	19.9								3.5		18.6	9.9	Mud	Black	Clear	Odorless	None	50.8/NA	9.1/NA										2021/5/24	2021/5/24
PRA000116	SAA007688	ST023				KitakyushuCity_sed1-2_2018	Sediment	"Marine sediment"	2018	10	30	2018-10-30T10:10			Fair	Asia	Japan	"Dokai Bay (Kitakyushu City), Fukuoka"	33.90388889		130.8158333														19.1	19.9								3.5		19.1	10.3	Mud	Black	Clear	Odorless	None	55.7/NA	10.2/NA										2021/5/24	2021/5/24
PRA000116	SAA007689	ST023				KitakyushuCity_sed1-3_2018	Sediment	"Marine sediment"	2018	10	30	2018-10-30T09:45			Fair	Asia	Japan	"Dokai Bay (Kitakyushu City), Fukuoka"	33.90388889		130.8158333														19.1	19.9								3.5		19.5	7.2	Mud	Black	Clear	Odorless	None	62.6/NA	20.6/NA										2021/5/24	2021/5/24
PRA000116	SAA008142	ST023				KitakyushuCity_sed1-123_2018	Sediment	"Marine sediment"	2018	10	30	"2018-10-30T10:30; T10:10; T09:45"			Fair	Asia	Japan	"Dokai Bay (Kitakyushu City), Fukuoka"	33.90388889		130.8158333														"19.1; 19.1; 19.1"	"19.9; 19.9; 19.9"								"3.5; 3.5; 3.5"		"18.6; 19.1; 19.5"	"9.9; 10.3; 7.2"	Mud	Black	Clear	Odorless	None	"50.8; 55.7; 62.6 (Each)/ 50.2 (Mixed)"	"9.1; 10.2; 20.6 (Each)/ 8.6 (Mixed)"									"n=3 pooled: SAA007687, SAA007688, SAA007689"	2021/5/24	2021/5/24
PRA000116	SAA007960	ST023				FukuokaCity_sed1-1_2018	Sediment	"Marine sediment"	2018	10	16	2018-10-16T09:05			Fair	Asia	Japan	"Hakata Bay, Fukuoka"	33.60833333		130.3297222														18.9	21.5								3.2		22	7.4	Silt	Gray	Green_Dark	Odorless	None	41.0/NA	9.6/NA										2021/5/24	2021/5/24
PRA000116	SAA007961	ST023				FukuokaCity_sed1-2_2018	Sediment	"Marine sediment"	2018	10	16	2018-10-16T09:18			Fair	Asia	Japan	"Hakata Bay, Fukuoka"	33.60833333		130.3297222														19.3	21.5								3.3		23	7.7	Silt	Gray	Green_Dark	Odorless	None	43.0/NA	9.1/NA										2021/5/24	2021/5/24
PRA000116	SAA007962	ST023				FukuokaCity_sed1-3_2018	Sediment	"Marine sediment"	2018	10	16	2018-10-16T09:28			Fair	Asia	Japan	"Hakata Bay, Fukuoka"	33.60833333		130.3297222														20.2	21.5								3.5		22.5	7.8	Silt	Gray	Green_Dark	Odorless	None	42.0/NA	9.5/NA										2021/5/24	2021/5/24
PRA000116	SAA008143	ST023				FukuokaCity_sed1-123_2018	Sediment	"Marine sediment"	2018	10	16	"2018-10-16T09:05; T09:18; T09:28"			Fair	Asia	Japan	"Hakata Bay, Fukuoka"	33.60833333		130.3297222														"18.9; 19.3; 20.2"	"21.5; 21.5; 21.5"								"3.2; 3.3; 3.5"		"22.0; 23.0; 22.5"	"7.4; 7.7; 7.8"	Silt	Gray	Green_Dark	Odorless	None	"41.0; 43.0; 42.0 (Each)/ 53.7 (Mixed)"	"9.6; 9.1; 9.5 (Each)/ 8.4 (Mixed)"									"n=3 pooled: SAA007960, SAA007961, SAA007962"	2021/5/24	2021/5/24
PRA000116	SAA007963	ST023				Saga_sed1-1_2018	Sediment	"Marine sediment"	2018	10	31	2018-10-31T11:02			Cloudy	Asia	Japan	"Imari Bay, Saga"	33.34		129.8208333														14	18.5								2.5		20	13.9	Muddy	"Gray black"	Clear	"Earthy odor"	None	63.3/NA	11.5/NA										2021/5/24	2021/5/24
PRA000116	SAA007964	ST023				Saga_sed1-2_2018	Sediment	"Marine sediment"	2018	10	31	2018-10-31T11:21			Cloudy	Asia	Japan	"Imari Bay, Saga"	33.34		129.8208333														14	18.5								2.8		20	14.4	Muddy	"Gray black"	Clear	"Earthy odor"	None	64.0/NA	11.3/NA										2021/5/24	2021/5/24
PRA000116	SAA007965	ST023				Saga_sed1-3_2018	Sediment	"Marine sediment"	2018	10	31	2018-10-31T11:40			Cloudy	Asia	Japan	"Imari Bay, Saga"	33.34		129.8208333														14	18.5								2.9		20	15.3	Muddy	"Gray black"	Clear	"Earthy odor"	None	61.1/NA	10.7/NA										2021/5/24	2021/5/24
PRA000116	SAA008144	ST023				Saga_sed1-123_2018	Sediment	"Marine sediment"	2018	10	31	"2018-10-31T11:02; T11:21; T11:40"			Cloudy	Asia	Japan	"Imari Bay, Saga"	33.34		129.8208333														"14.0; 14.0; 14.0"	"18.5; 18.5; 18.5"								"2.5; 2.8; 2.9"		"20.0; 20.0; 20.0"	"13.9; 14.4; 15.3"	Muddy	"Gray black"	Clear	"Earthy odor"	None	"63.3; 64.0; 61.1 (Each)/ 63.9 (Mixed)"	"11.5; 11.3; 10.7 (Each)/ 9.3 (Mixed)"									"n=3 pooled: SAA007963, SAA007964, SAA007965"	2021/5/24	2021/5/24
PRA000116	SAA008145	ST023				Nagasaki_sed1-1_2018	Sediment	"Marine sediment"	2018	10	22	2018-10-22T14:05			Fair	Asia	Japan	"Omura Bay, Nagasaki"	32.98833333		129.8522222														24.5	22.8								7		22.5	19.5	Mud	"Gray yellow"	"Greenish blue_Light"	Odorless	None	68	12									"This sample was used as the pooled sample:SAA008148 for chemical analysis"	2021/5/24	2021/5/24
PRA000116	SAA008146	ST023				Nagasaki_sed1-2_2018	Sediment	"Marine sediment"	2018	10	22	2018-10-22T14:28			Fair	Asia	Japan	"Omura Bay, Nagasaki"	32.98833333		129.8522222														24.5	22.9								7		22.5	19.6	Mud	"Gray black"	"Greenish blue_Light"	"Sulfide odor_weak"	None	68	12									"This sample was used as the pooled sample:SAA008148 for chemical analysis"	2021/5/24	2021/5/24
PRA000116	SAA008147	ST023				Nagasaki_sed1-3_2018	Sediment	"Marine sediment"	2018	10	22	2018-10-22T14:40			Fair	Asia	Japan	"Omura Bay, Nagasaki"	32.98833333		129.8522222														24.5	22.8								7		22.5	19.5	Mud	"Gray yellow"	"Greenish blue_Light"	Odorless	Shell	66	12									"This sample was used as the pooled sample:SAA008148 for chemical analysis"	2021/5/24	2021/5/24
PRA000116	SAA008148	ST023				Nagasaki_sed1-123_2018	Sediment	"Marine sediment"	2018	10	22	"2018-10-22T14:05; T14:28; T14:40"			Fair	Asia	Japan	"Omura Bay, Nagasaki"	32.98833333		129.8522222														"24.5; 24.5; 24.5"	"22.8; 22.9; 22.8"								"7.0; 7.0; 7.0"		"22.5; 22.5; 22.5"	"19.5; 19.6; 19.5"	Mud	"Gray yellow; Gray black; Gray yellow"	"Greenish blue_Light; Greenish blue_Light; Greenish blue_Light"	"Odorless; Sulfide odor_weak; Odorless"	"None; None; Shell"	"68.0; 68.0; 68.0 (Each)/ 68.4 (Mixed)"	"12.0; 12.0; 12.0 (Each)/ 12.6 (Mixed)"									"n=3 pooled: SAA008145, SAA008146, SAA008147"	2021/5/24	2021/5/24
PRA000116	SAA007966	ST024				Oita_sed1-1_2018	Sediment	"River sediment"	2018	11	19	2018-11-19T10:15			Cloudy	Asia	Japan	"Mouth of Riv. Oita, Oita"	33.25722222		131.6175														18.1	17.5										19.7	2.6	Sandy	Black	"Grayish green_Dark"	Odorless	"Pieces of shell; shell; Gravels; pieces of wood"	20.1/NA	1.2/NA										2021/5/24	2021/5/24
PRA000116	SAA007967	ST024				Oita_sed1-2_2018	Sediment	"River sediment"	2018	11	19	2018-11-19T09:47			Cloudy	Asia	Japan	"Mouth of Riv. Oita, Oita"	33.25722222		131.6175														15.6	17.4										20	3.5	Sandy	Black	"Grayish green_Dark"	Odorless	"Pieces of shell; shell; Gravels; pieces of wood"	21.2/NA	1.2/NA										2021/5/24	2021/5/24
PRA000116	SAA007968	ST024				Oita_sed1-3_2018	Sediment	"River sediment"	2018	11	19	2018-11-19T10:40			Cloudy	Asia	Japan	"Mouth of Riv. Oita, Oita"	33.25722222		131.6175														16.3	16.7										20	3	Sandy	Black	"Grayish green_Dark"	Odorless	"Pieces of shell; shell; Gravels; pieces of wood"	19.1/NA	1.0/NA										2021/5/24	2021/5/24
PRA000116	SAA008149	ST024				Oita_sed1-123_2018	Sediment	"River sediment"	2018	11	19	"2018-11-19T10:15; T09:47; T10:40"			Cloudy	Asia	Japan	"Mouth of Riv. Oita, Oita"	33.25722222		131.6175														"18.1; 15.6; 16.3"	"17.5; 17.4; 16.7"										"19.7; 20.0; 20.0"	"2.6; 3.5; 3.0"	Sandy	Black	"Grayish green_Dark"	Odorless	"Pieces of shell; shell; Gravels; pieces of wood"	"20.1; 21.2; 19.1 (Each)/ 20.5 (Mixed)"	"1.2; 1.2; 1.0 (Each)/ 1.0 (Mixed)"									"n=3 pooled: SAA007966, SAA007967, SAA007968"	2021/5/24	2021/5/24
PRA000116	SAA008150	ST024				Miyazaki_sed1-1_2018	Sediment	"River sediment"	2018	10	24	2018-10-24T11:40			Fair	Asia	Japan	"Mouth of Riv. Oyodo (Miyazaki City), Miyazaki"	31.89611111		131.4402778														24	20.7										20.8	0.3	Sand	"Gray black_Light"	Clear	Odorless	None	17.9	1.2									"This sample was used as the pooled sample:SAA008153 for chemical analysis"	2021/5/24	2021/5/24
PRA000116	SAA008151	ST024				Miyazaki_sed1-2_2018	Sediment	"River sediment"	2018	10	24	2018-10-24T11:48			Fair	Asia	Japan	"Mouth of Riv. Oyodo (Miyazaki City), Miyazaki"	31.89611111		131.4402778														24	20										20	0.6	"Stones; Pebbles; Sand"	"Gray black_Light"	Clear	Odorless	None	21	1.1									"This sample was used as the pooled sample:SAA008153 for chemical analysis"	2021/5/24	2021/5/24
PRA000116	SAA008152	ST024				Miyazaki_sed1-3_2018	Sediment	"River sediment"	2018	10	24	2018-10-24T12:00			Fair	Asia	Japan	"Mouth of Riv. Oyodo (Miyazaki City), Miyazaki"	31.89611111		131.4402778														24	21										21	0.6	"Pebbles; Sand"	"Gray black_Light"	Clear	Odorless	Bubble	19.8	1.3									"This sample was used as the pooled sample:SAA008153 for chemical analysis"	2021/5/24	2021/5/24
PRA000116	SAA008153	ST024				Miyazaki_sed1-123_2018	Sediment	"River sediment"	2018	10	24	"2018-10-24T11:40; T11:48; T12:00"			Fair	Asia	Japan	"Mouth of Riv. Oyodo (Miyazaki City), Miyazaki"	31.89611111		131.4402778														"24.0; 24.0; 24.0"	"20.7; 20.0; 21.0"										"20.8; 20.0; 21.0"	"0.3; 0.6; 0.6"	"Sand; Stones; Pebbles; Sand; Pebbles; Sand"	"Gray black_Light"	Clear	Odorless	"None; None; Bubble"	"17.9; 21.0; 19.8 (Each)/ 19.2 (Mixed)"	"1.2; 1.1; 1.3 (Each)/ 1.0 (Mixed)"									"n=3 pooled: SAA008150, SAA008151, SAA008152"	2021/5/24	2021/5/24
PRA000116	SAA008154	ST024				Kagoshima_sed1-1_2018	Sediment	"River sediment"	2018	9	25	2018-09-25T11:20			Fair	Asia	Japan	"Riv. Amori (Kirishima City), Kagoshima"	31.7225		130.7416667														23.7	23										23.4	0.3	Gravel	"Blackish brown"	Clear	"Sewage odor_Faint"	Pebble	21	1.3									"This sample was used as the pooled sample:SAA008157 for chemical analysis"	2021/5/24	2021/5/24
PRA000116	SAA008155	ST024				Kagoshima_sed1-2_2018	Sediment	"River sediment"	2018	9	25	2018-09-25T10:40			Fair	Asia	Japan	"Riv. Amori (Kirishima City), Kagoshima"	31.7225		130.7416667														25.8	23.3										24.3	0.5	Gravel	"Blackish brown"	Clear	"Earthy odor_Faint"	Pebble	15	0.7									"This sample was used as the pooled sample:SAA008157 for chemical analysis"	2021/5/24	2021/5/24
PRA000116	SAA008156	ST024				Kagoshima_sed1-3_2018	Sediment	"River sediment"	2018	9	25	2018-09-25T10:09			Fair	Asia	Japan	"Riv. Amori (Kirishima City), Kagoshima"	31.7225		130.7416667														26.8	22.8										22.6	0.6	Gravel	"Blackish brown"	Clear	Odorless	Pebble	17	1									"This sample was used as the pooled sample:SAA008157 for chemical analysis"	2021/5/24	2021/5/24
PRA000116	SAA008157	ST024				Kagoshima_sed1-123_2018	Sediment	"River sediment"	2018	9	25	"2018-09-25T11:20; T10:40; T10:09"			Fair	Asia	Japan	"Riv. Amori (Kirishima City), Kagoshima"	31.7225		130.7416667														"23.7; 25.8; 26.8"	"23.0; 23.3; 22.8"										"23.4; 24.3; 22.6"	"0.3; 0.5; 0.6"	Gravel	"Blackish brown"	Clear	"Sewage odor_Faint; Earthy odor_Faint; Odorless"	Pebble	"21.0; 15.0; 17.0 (Each)/ 22.5 (Mixed)"	"1.3; 0.7; 1.0 (Each)/ 0.9 (Mixed)"									"n=3 pooled: SAA008154, SAA008155, SAA008156"	2021/5/24	2021/5/24
PRA000116	SAA008158	ST024				Kagoshima_sed2-1_2018	Sediment	"River sediment"	2018	9	13	2018-09-13T12:00			Fair	Asia	Japan	"Gotanda-bashi Bridge, Riv. Gotanda (Ichikikushikino City), Kagoshima"	31.72583333		130.2769444														29.3	29.2										27.7	0.2	Gravel	"Blackish brown"	Clear	"Earthy odor_Faint"	Pebble	17	1.6									"This sample was used as the pooled sample:SAA008161 for chemical analysis"	2021/5/24	2021/5/24
PRA000116	SAA008159	ST024				Kagoshima_sed2-2_2018	Sediment	"River sediment"	2018	9	13	2018-09-13T11:11			Fair	Asia	Japan	"Gotanda-bashi Bridge, Riv. Gotanda (Ichikikushikino City), Kagoshima"	31.72583333		130.2769444														29.6	27										26.9	0.4	Gravel	"Blackish brown"	Clear	"Earthy odor_Faint"	Pebble	16	1.3									"This sample was used as the pooled sample:SAA008161 for chemical analysis"	2021/5/24	2021/5/24
PRA000116	SAA008160	ST024				Kagoshima_sed2-3_2018	Sediment	"River sediment"	2018	9	13	2018-09-13T10:21			Fair	Asia	Japan	"Gotanda-bashi Bridge, Riv. Gotanda (Ichikikushikino City), Kagoshima"	31.72583333		130.2769444														27.8	26										25.4	0.2	Gravel	"Blackish brown"	Clear	"Earthy odor_Faint"	Pebble	16	2.4									"This sample was used as the pooled sample:SAA008161 for chemical analysis"	2021/5/24	2021/5/24
PRA000116	SAA008161	ST024				Kagoshima_sed2-123_2018	Sediment	"River sediment"	2018	9	13	"2018-09-13T12:00; T11:11; T10:21"			Fair	Asia	Japan	"Gotanda-bashi Bridge, Riv. Gotanda (Ichikikushikino City), Kagoshima"	31.72583333		130.2769444														"29.3; 29.6; 27.8"	"29.2; 27.0; 26.0"										"27.7; 26.9; 25.4"	"0.2; 0.4; 0.2"	Gravel	"Blackish brown"	Clear	"Earthy odor_Faint"	Pebble	"17.0; 16.0; 16.0 (Each)/ 21.9 (Mixed)"	"1.6; 1.3; 2.4 (Each)/ 1.6 (Mixed)"									"n=3 pooled: SAA008158, SAA008159, SAA008160"	2021/5/24	2021/5/24
PRA000116	SAA008162	ST023				Okinawa_sed1-1_2018	Sediment	"Marine sediment"	2018	11	6	2018-11-06T11:30			Fair	Asia	Japan	"Naha Port, Okinawa"	26.21222222		127.665														30	25.6								1.5		26.1	7.3	Sludge	"Gray black"	Clear	"Hydrogen sulfide odor; Sewage odor"	"Pieces of wood; Shell"	44	10.5									"This sample was used as the pooled sample:SAA008165 for chemical analysis"	2021/5/24	2021/5/24
PRA000116	SAA008163	ST023				Okinawa_sed1-2_2018	Sediment	"Marine sediment"	2018	11	6	2018-11-06T10:40			Fair	Asia	Japan	"Naha Port, Okinawa"	26.21222222		127.665														29	26.2								1.5		27.1	7.8	Sludge	"Gray black"	Clear	"Hydrogen sulfide odor; Sewage odor"	"Vinyl pieces; Pieces of wood; Coral pieces"	47.6	12.4									"This sample was used as the pooled sample:SAA008165 for chemical analysis"	2021/5/24	2021/5/24
PRA000116	SAA008164	ST023				Okinawa_sed1-3_2018	Sediment	"Marine sediment"	2018	11	6	2018-11-06T12:00			Fair	Asia	Japan	"Naha Port, Okinawa"	26.21222222		127.665														28	24.9								4.4		25.5	7.7	Sludge	"Gray black"	Clear	"Hydrogen sulfide odor; Sewage odor"	"Vinyl pieces; Pieces of wood; Coral pieces"	33.5	8.9									"This sample was used as the pooled sample:SAA008165 for chemical analysis"	2021/5/24	2021/5/24
PRA000116	SAA008165	ST023				Okinawa_sed1-123_2018	Sediment	"Marine sediment"	2018	11	6	"2018-11-06T11:30; T10:40; T12:00"			Fair	Asia	Japan	"Naha Port, Okinawa"	26.21222222		127.665														"30.0; 29.0; 28.0"	"25.6; 26.2; 24.9"								"1.5; 1.5; 4.4"		"26.1; 27.1; 25.5"	"7.3; 7.8; 7.7"	Sludge	"Gray black"	Clear	"Hydrogen sulfide odor; Sewage odor"	"Pieces of wood; Shell; Vinyl pieces; Pieces of wood; Coral pieces; Vinyl pieces; Pieces of wood; Coral pieces"	"44.0; 47.6; 33.5 (Each)/ 48.2 (Mixed)"	"10.5; 12.4; 8.9 (Each)/ 8.7 (Mixed)"									"n=3 pooled: SAA008162, SAA008163, SAA008164"	2021/5/24	2021/5/24
PRA000119	SAA008622	ST024				Hokkaido_sed2-1_2019	Sediment	"River sediment"	2019	11	21	2019-11-21T14:00			Cloudy	Asia	Japan	"Ishikarikakokyo Bridge, Mouth of Riv. Ishikari (Ishikari City), Hokkaido"	43.22861111		141.3519444														"2.1 "	"2.9 "										"3.3 "			"Blackish brown"	"Gray brown"	Odorless		"47.0 "	"6.0 "										2022/5/13	2022/5/13
PRA000119	SAA008623	ST024				Hokkaido_sed2-2_2019	Sediment	"River sediment"	2019	11	21	2019-11-21T14:20			Cloudy	Asia	Japan	"Ishikarikakokyo Bridge, Mouth of Riv. Ishikari (Ishikari City), Hokkaido"	43.22861111		141.3519444														"2.0 "	"2.9 "										"3.0 "			"Blackish brown"	"Gray brown"	Odorless		"52.0 "	"7.4 "										2022/5/13	2022/5/13
PRA000119	SAA008624	ST024				Hokkaido_sed2-3_2019	Sediment	"River sediment"	2019	11	21	2019-11-21T14:40			Cloudy	Asia	Japan	"Ishikarikakokyo Bridge, Mouth of Riv. Ishikari (Ishikari City), Hokkaido"	43.22861111		141.3519444														"2.1 "	"2.9 "										"3.2 "			"Blackish brown"	"Gray brown"	Odorless		"48.0 "	"6.2 "										2022/5/13	2022/5/13
PRA000119	SAA008625	ST024				Iwate_sed1-1_2019	Sediment	"River sediment"	2019	12	4	2019-12-04T10:25			Fair	Asia	Japan	"Toyosawa-bashi Bridge, Riv. Toyosawa (Hanamaki City), Iwate"	39.38166667		141.1191667														"6.0 "	"6.0 "										"6.0 "	"0.1 "	Sand	Brown	Green_Light	Odorless	"Vegetative pieces"	"17.2 "	"1.7 "										2022/5/13	2022/5/13
PRA000119	SAA008626	ST024				Iwate_sed1-2_2019	Sediment	"River sediment"	2019	12	4	2019-12-04T11:51			Cloudy	Asia	Japan	"Toyosawa-bashi Bridge, Riv. Toyosawa (Hanamaki City), Iwate"	39.38166667		141.1191667														"6.0 "	"6.5 "										"5.5 "	"0.1 "	Sand	"Light brown"	Green_Light	Odorless	None	"20.0 "	"1.6 "										2022/5/13	2022/5/13
PRA000119	SAA008627	ST024				Iwate_sed1-3_2019	Sediment	"River sediment"	2019	12	4	2019-12-04T11:53			Cloudy	Asia	Japan	"Toyosawa-bashi Bridge, Riv. Toyosawa (Hanamaki City), Iwate"	39.38166667		141.1191667														"6.0 "	"6.5 "										"6.0 "	"0.1 "	Sand	"Light brown"	Green_Light	Odorless	"Vegetative pieces"	"17.5 "	"1.7 "										2022/5/13	2022/5/13
PRA000119	SAA008628	ST024				Sendai_sed1_1_2019	Sediment	"River sediment"	2019	11	19	2019-11-19T14:26			Fair	Asia	Japan	"Hirose-ohashi Bridge, Riv. Hirose (Sendai City), Miyagi"	38.21333333		140.9088889														"17.4 "	"11.9 "										"13.0 "	"25 "		"Grayish black"	Clear	"Swampy odor"	None	"9.2 "	"1.1 "										2022/5/13	2022/5/13
PRA000119	SAA008629	ST024				Sendai_sed1_2_2019	Sediment	"River sediment"	2019	11	19	2019-11-19T13:39			Fair	Asia	Japan	"Hirose-ohashi Bridge, Riv. Hirose (Sendai City), Miyagi"	38.21333333		140.9088889														"17.4 "	"11.7 "										"13.0 "	"35 "		"Grayish black"	Clear	"Swampy odor"	None	"17.0 "	"1.0 "										2022/5/13	2022/5/13
PRA000119	SAA008630	ST024				Sendai_sed1_3_2019	Sediment	"River sediment"	2019	11	19	2019-11-19T14:15			Fair	Asia	Japan	"Hirose-ohashi Bridge, Riv. Hirose (Sendai City), Miyagi"	38.21333333		140.9088889														"17.4 "	"11.7 "										"13.0 "	"46 "		"Grayish black"	Clear	"Swampy odor"	None	"16.7 "	"1.1 "										2022/5/13	2022/5/13
PRA000119	SAA008631	ST024				Akita_sed1-1_2019	Sediment	"River sediment"	2019	11	22	2019-11-22T12:00			Fair	Asia	Japan	"Akita Canal (Akita City), Akita"	39.75083333		140.0586111														"9.3 "	"9.4 "								"2.5 "		"14.2 "	"12.1 "		Black	"Yellow green_Dark"	"Hydrogen sulfide odor_Faint"	None	"72.0 "	"6.2 "										2022/5/13	2022/5/13
PRA000119	SAA008632	ST024				Yamagata_sed1-1_2019	Sediment	"River sediment"	2019	12	11	2019-12-11T10:30			Fair	Asia	Japan	"Mouth of Riv. Mogami (Sakata City), Yamagata"	38.88722222		139.8433333														"11.5 "	"5.0 "										"6.2 "	"0.3 "	"Fine sand"	"Grayish black"	"Yellow green_Light"	"Earthy odor"	"Vegetative pieces"	"38.0 "	"5.2 "										2022/5/13	2022/5/13
PRA000119	SAA008633	ST024				Yamagata_sed1-2_2019	Sediment	"River sediment"	2019	12	11	2019-12-11T10:30			Fair	Asia	Japan	"Mouth of Riv. Mogami (Sakata City), Yamagata"	38.88722222		139.8433333														"11.5 "	"5.0 "										"6.2 "	"0.3 "	"Fine sand"	"Grayish black"	"Yellow green_Light"	"Earthy odor"	"Vegetative pieces"	"35.9 "	"4.1 "										2022/5/13	2022/5/13
PRA000119	SAA008634	ST024				Yamagata_sed1-3_2019	Sediment	"River sediment"	2019	12	11	2019-12-11T10:30			Fair	Asia	Japan	"Mouth of Riv. Mogami (Sakata City), Yamagata"	38.88722222		139.8433333														"11.5 "	"5.0 "										"6.2 "	"0.3 "	"Fine sand"	"Grayish black"	"Yellow green_Light"	"Earthy odor"	"Vegetative pieces"	"37.4 "	"5.0 "										2022/5/13	2022/5/13
PRA000119	SAA008635	ST024				Ibaraki_sed1-1_2019	Sediment	"River sediment"	2019	12	10	2019-12-10T09:40			Cloudy	Asia	Japan	"Kamome-ohasi Bridge, Mouth of Riv. Tone (Kamisu City), Ibaraki"	35.77638889		140.7569444														"12.1 "	"11.2 "											"1.3 "	Mud	Black	Clear	"Swampy odor_Faint"	None	"34.0 "	"3.9 "										2022/5/13	2022/5/13
PRA000119	SAA008636	ST024				Ibaraki_sed1-2_2019	Sediment	"River sediment"	2019	12	10	2019-12-10T10:00			Cloudy	Asia	Japan	"Kamome-ohasi Bridge, Mouth of Riv. Tone (Kamisu City), Ibaraki"	35.77638889		140.7569444														"14.3 "	"12.4 "											"5.3 "	"Sandy mud"	Black	Clear	"Swampy odor_Faint"	None	"24.0 "	"1.3 "										2022/5/13	2022/5/13
PRA000119	SAA008637	ST024				Ibaraki_sed1-3_2019	Sediment	"River sediment"	2019	12	10	2019-12-10T10:45			Fair	Asia	Japan	"Kamome-ohasi Bridge, Mouth of Riv. Tone (Kamisu City), Ibaraki"	35.77638889		140.7569444														"17.7 "	"11.7 "											"2.5 "	Mud	Black	Clear	"Swampy odor_Faint"	None	"32.0 "	"3.9 "										2022/5/13	2022/5/13
PRA000119	SAA008638	ST023				Chiba_sed1-1_2019	Sediment	"Marine sediment"	2019	11	27	2019-11-27T10:16			Rain	Asia	Japan	"Ichihara-Anesaki Coast, Chiba"	35.52166667		140.0283333														"9.8 "	"17.6 "								"5.0 "		"18.0 "	"18.6 "	Silt	Olive_Dark	"Dark green"	"Hydrogen sulfide odor"	"Few shellfish pieces"	"74.1 "	"11.8 "										2022/5/13	2022/5/13
PRA000119	SAA008639	ST023				Chiba_sed1-2_2019	Sediment	"Marine sediment"	2019	11	27	2019-11-27T10:53			Rain	Asia	Japan	"Ichihara-Anesaki Coast, Chiba"	35.52166667		140.0283333														"10.0 "	"17.6 "								"5.0 "		"17.8 "	"18.8 "	Silt	Olive_Dark	"Dark green"	"Hydrogen sulfide odor"	"Few shellfish pieces"	"74.3 "	"11.9 "										2022/5/13	2022/5/13
PRA000119	SAA008640	ST023				Chiba_sed1-3_2019	Sediment	"Marine sediment"	2019	11	27	2019-11-27T11:10			Rain	Asia	Japan	"Ichihara-Anesaki Coast, Chiba"	35.52166667		140.0283333														"10.0 "	"17.5 "								"5.0 "		"18.4 "	"18.3 "	Silt	Olive_Dark	"Dark green"	"Hydrogen sulfide odor"	"Few shellfish pieces"	"71.0 "	"10.4 "										2022/5/13	2022/5/13
PRA000119	SAA008641	ST024				Tokyo_sed1-1_2019	Sediment	"River sediment"	2019	12	18	2019-12-18T10:25			Fair	Asia	Japan	"Mouth of Riv. Arakawa (Koto Ward), Tokyo"	35.64583333		139.8463889														"12.8 "	"14.6 "								1.9		"15.5 "	"4.6 "	"Silt mixed with fine sand"	"Olive black"	"Yellow green"	"Hydrogen sulfide odor"	"Polychaetes; Seashells"	"41.8 "	"8.1 "										2022/5/13	2022/5/13
PRA000119	SAA008642	ST024				Tokyo_sed1-2_2019	Sediment	"River sediment"	2019	12	18	2019-12-18T11:40			Cloudy	Asia	Japan	"Mouth of Riv. Arakawa (Koto Ward), Tokyo"	35.64583333		139.8463889														"14.4 "	"16.0 "								1.9		"15.6 "	"3.4 "	Silt	"Blackish brown"	"Dark green"	"Hydrogen sulfide odor_Faint"	"Gammaridea; Vegetative pieces; Vinyl pieces; Seashells"	"39.0 "	"8.0 "										2022/5/13	2022/5/13
PRA000119	SAA008643	ST024				Tokyo_sed1-3_2019	Sediment	"River sediment"	2019	12	18	2019-12-18T12:05			Cloudy	Asia	Japan	"Mouth of Riv. Arakawa (Koto Ward), Tokyo"	35.64583333		139.8463889														"14.6 "	"15.0 "								"1.7 "		"15.4 "	"2.8 "	"Silt mixed with fine sand"		"Yellow green"	"Hydrogen sulfide odor_Faint"	"Gammaridea; Polychaete; Vegetative pieces"	"34.2 "	"7.0 "										2022/5/13	2022/5/13
PRA000119	SAA008644	ST024				Tokyo_sed2-1_2019	Sediment	"River sediment"	2019	12	18	2019-12-18T13:00			Cloudy	Asia	Japan	"Mouth of Riv. Sumida (Minato Ward), Tokyo"	35.66		139.7705556														"16.3 "	"15.9 "								4.0		"17.2 "	"5.1 "	Silt	Black	"Dark green"	"Hydrogen sulfide odor_Strong"	Seashells	"54.6 "	"12.0 "										2022/5/13	2022/5/13
PRA000119	SAA008645	ST024				Tokyo_sed2-2_2019	Sediment	"River sediment"	2019	12	18	2019-12-18T14:00			Fair	Asia	Japan	"Mouth of Riv. Sumida (Minato Ward), Tokyo"	35.66		139.7705556														"16.3 "	"15.9 "								3.3		"17.0 "	"5.0 "	Silt	Black	"Dark green"	"Hydrogen sulfide odor_Strong"	Seashells	"52.4 "	"11.9 "										2022/5/13	2022/5/13
PRA000119	SAA008646	ST024				Tokyo_sed2-3_2019	Sediment	"River sediment"	2019	12	18	2019-12-18T14:15			Fair	Asia	Japan	"Mouth of Riv. Sumida (Minato Ward), Tokyo"	35.66		139.7705556														"15.5 "	"15.9 "								2.8		"17.2 "	"3.8 "	Silt	Black	"Dark green"	"Hydrogen sulfide odor_Strong"	"Seashells; Vegetative pieces"	"48.0 "	"10.4 "										2022/5/13	2022/5/13
PRA000119	SAA008647	ST023				Yokohama_sed1-1_2019	Sediment	"Marine sediment"	2019	11	27	2019-11-27T11:00			Rain	Asia	Japan	"Yokohama Port, Kanagawa"	35.45555556		139.6636111														"9.0 "	"15.8 "								"5.0 "		"17.0 "	"11.3 "	Muddy	Brown	Clear	"Hydrogen sulfide odor_Faint"	None	"67.3 "	"11.9 "										2022/5/13	2022/5/13
PRA000119	SAA008648	ST023				Yokohama_sed1-2_2019	Sediment	"Marine sediment"	2019	11	27	2019-11-27T10:00			Rain	Asia	Japan	"Yokohama Port, Kanagawa"	35.45555556		139.6636111														"9.0 "	"16.5 "								"5.5 "		"17.2 "	"12.3 "	Muddy	Brown	Clear	"Hydrogen sulfide odor_Faint"	None	"75.7 "	"11.9 "										2022/5/13	2022/5/13
PRA000119	SAA008649	ST023				Yokohama_sed1-3_2019	Sediment	"Marine sediment"	2019	11	27	2019-11-27T11:30			Rain	Asia	Japan	"Yokohama Port, Kanagawa"	35.45555556		139.6636111														"9.0 "	"16.0 "								"5.0 "		"18.0 "	"11.2 "	Muddy	Brown	Clear	"Hydrogen sulfide odor_Faint"	None	"67.8 "	"12.0 "										2022/5/13	2022/5/13
PRA000119	SAA008650	ST024				KawasakiCity_sed1-1_2019	Sediment	"River sediment"	2019	11	27	2019-11-27T14:20			Cloudy	Asia	Japan	"Mouth of Riv. Tama (Kawasaki City), Kanagawa"	35.53		139.7836111														"11.2 "	"14.8 "								"0.4 "		"17.0 "	"3.5 "	"Muddy sand"	"Grayish brown"	"Gray green"	"Sewage odor"	"Seashells; Vegetative pieces"	"33.7 "	"6.4 "										2022/5/13	2022/5/13
PRA000119	SAA008651	ST024				KawasakiCity_sed1-2_2019	Sediment	"River sediment"	2019	11	27	2019-11-27T15:02			Cloudy	Asia	Japan	"Mouth of Riv. Tama (Kawasaki City), Kanagawa"	35.53		139.7836111														"12.6 "	"14.6 "								"0.9 "		"17.3 "	"3.2 "	"Muddy sand"	"Grayish brown"	Green_Dark	"Sewage odor_Faint"	"Seashells; Vegetative pieces"	"29.3 "	"5.9 "										2022/5/13	2022/5/13
PRA000119	SAA008652	ST024				KawasakiCity_sed1-3_2019	Sediment	"River sediment"	2019	11	27	2019-11-27T14:44			Cloudy	Asia	Japan	"Mouth of Riv. Tama (Kawasaki City), Kanagawa"	35.53		139.7836111														"11.7 "	"14.6 "								"0.9 "		"17.0 "	"3.5 "	Sand	"Grayish brown"	Green_Dark	"Sewage odor_Faint"	"Seashells; Vegetative pieces"	"21.3 "	"2.7 "										2022/5/13	2022/5/13
PRA000119	SAA008653	ST023				KawasakiCity_sed2-1_2019	Sediment	"Marine sediment"	2019	11	27	2019-11-27T11:15			"Light rain"	Asia	Japan	"Keihin Canal, Kawasaki Port, Kanagawa (front of Ogimachi)"	35.49527778		139.7277778														"9.4 "	"17.2 "								"4.2 "		"18.0 "	"14.5 "	Mud	"Grayish green"	"Gray green"	"Hydrogen sulfide odor"	"Seashells; Vegetative pieces"	"53.2 "	"10.3 "										2022/5/13	2022/5/13
PRA000119	SAA008654	ST023				KawasakiCity_sed2-2_2019	Sediment	"Marine sediment"	2019	11	27	2019-11-27T10:49			"Light rain"	Asia	Japan	"Keihin Canal, Kawasaki Port, Kanagawa (front of Ogimachi)"	35.49527778		139.7277778														"9.1 "	"16.8 "								"3.5 "		"18.6 "	"14.5 "	Mud	"Grayish green"	"Gray green"	"Hydrogen sulfide odor"	"Seashells; Vegetative pieces"	"70.8 "	"15.6 "										2022/5/13	2022/5/13
PRA000119	SAA008655	ST023				KawasakiCity_sed2-3_2019	Sediment	"Marine sediment"	2019	11	27	2019-11-27T10:27			"Light rain"	Asia	Japan	"Keihin Canal, Kawasaki Port, Kanagawa (front of Ogimachi)"	35.49527778		139.7277778														"8.7 "	"16.6 "								"3.7 "		"18.0 "	"13.5 "	Mud	Green_Dark	"Gray green"	"Hydrogen sulfide odor"	"Seashells; Vegetative pieces"	"61.8 "	"12.6 "										2022/5/13	2022/5/13
PRA000119	SAA008656	ST024				Niigata_sed1-1_2019	Sediment	"River sediment"	2019	12	11	2019-12-11T14:00			Cloudy	Asia	Japan	"Downstream of Riv. Shinano (Niigata City), Niigata"	37.88305556		139.0155556														"14.5 "	"8.0 "										"8.5 "	"4.6 "	Sandy	Brown	Green	"Earthy odor"	"Twigs; Leaves"	"26.2 "	"1.2 "										2022/5/13	2022/5/13
PRA000119	SAA008657	ST024				Niigata_sed1-2_2019	Sediment	"River sediment"	2019	12	11	2019-12-11T13:40			Cloudy	Asia	Japan	"Downstream of Riv. Shinano (Niigata City), Niigata"	37.88305556		139.0155556														"14.5 "	"8.0 "										"8.5 "	"4.6 "	Sandy	Brown	Green	"Earthy odor"	Leaves	"23.0 "	"1.1 "										2022/5/13	2022/5/13
PRA000119	SAA008658	ST024				Ishikawa_sed1-1_2019	Sediment	"River sediment"	2019	12	11	2019-12-11T10:34			Fair	Asia	Japan	"Mouth of Riv. Sai (Kanazawa City), Ishikawa"	36.60027778		136.5888889														"16.4 "	"10.5 "											"3.0 "	Silt	"Grayish black"	Clear	"Fish rotten odor_Medium"	"Pebbles; Seashells"	"44.9 "	"7.1 "										2022/5/13	2022/5/13
PRA000119	SAA008659	ST024				Ishikawa_sed1-2_2019	Sediment	"River sediment"	2019	12	11	2019-12-11T12:28			Fair	Asia	Japan	"Mouth of Riv. Sai (Kanazawa City), Ishikawa"	36.60027778		136.5888889														"16.5 "	"10.5 "											"1.1 "	"Silt mixed with sand"	"Grayish brown"	Clear	"Fish rotten odor_Medium"	Pebbles	"26.9 "	"2.7 "										2022/5/13	2022/5/13
PRA000119	SAA008660	ST024				Ishikawa_sed1-3_2019	Sediment	"River sediment"	2019	12	11	2019-12-11T12:48			Fair	Asia	Japan	"Mouth of Riv. Sai (Kanazawa City), Ishikawa"	36.60027778		136.5888889														"16.0 "	"9.8 "											"0.8 "	"Silt mixed with sand"	"Grayish black"	Clear	"Fish rotten odor_Medium"	Pebbles	"42.8 "	"6.5 "										2022/5/13	2022/5/13
PRA000119	SAA008661	ST024				Nagano_sed1-1_2019	Sediment	"Lake sediment"	2019	12	3	2019-12-03T09:30			Fair	Asia	Japan	"Center of Lake Suwa, Nagano"	36.05		138.0861111														"5.4 "	"8.0 "								"1.8 "		"7.8 "	"5.5 "	Muddy	"Blackish brown_Dark"	"Yellow green_Light"	"Swampy odor_Faint"	None	"79.6 "	"14.2 "										2022/5/13	2022/5/13
PRA000119	SAA008662	ST024				Nagano_sed1-2_2019	Sediment	"Lake sediment"	2019	12	3	2019-12-03T10:18			Fair	Asia	Japan	"Center of Lake Suwa, Nagano"	36.05		138.0861111														"7.1 "	"8.2 "								"1.6 "		"7.9 "	"5.5 "	Muddy	"Blackish brown_Dark"	"Yellow green_Light"	"Swampy odor_Faint"	None	"78.9 "	"13.7 "										2022/5/13	2022/5/13
PRA000119	SAA008663	ST024				Nagano_sed1-3_2019	Sediment	"Lake sediment"	2019	12	3	2019-12-03T10:42			Fair	Asia	Japan	"Center of Lake Suwa, Nagano"	36.05		138.0861111														"8.1 "	"8.2 "								"1.4 "		"7.8 "	"5.5 "	Muddy	"Blackish brown_Dark"	"Yellow green_Light"	"Swampy odor_Faint"	None	"79.6 "	"15.0 "										2022/5/13	2022/5/13
PRA000119	SAA008664	ST023				Shizuoka_sed1-1_2019	Sediment	"Marine sediment"	2019	12	4	2019-12-04T09:35			Fair	Asia	Japan	"Shimizu Port, Shizuoka"	35.02416667		138.5161111														"12.1 "	"17.2 "								"5.5 "		"20.1 "	"24.9 "	"Sand; Clay"	"Grayish green_Dark"	Clear	Odorless	"Shellfish; pieces of wood"	"34.8 "	"5.0 "										2022/5/13	2022/5/13
PRA000119	SAA008665	ST023				Shizuoka_sed1-2_2019	Sediment	"Marine sediment"	2019	12	4	2019-12-04T10:15			Fair	Asia	Japan	"Shimizu Port, Shizuoka"	35.02416667		138.5161111														"12.9 "	"17.9 "								"5.5 "		"20.5 "	"20.1 "	"Sand; Clay"	"Grayish green_Dark"	Clear	Odorless	"Shellfish; pieces of wood"	"30.7 "	"4.5 "										2022/5/13	2022/5/13
PRA000119	SAA008666	ST023				Shizuoka_sed1-3_2019	Sediment	"Marine sediment"	2019	12	4	2019-12-04T10:30			Fair	Asia	Japan	"Shimizu Port, Shizuoka"	35.02416667		138.5161111														"12.9 "	"18.2 "								"5.0 "		"20.0 "	"17.4 "	"Sand; Clay"	"Grayish green_Dark"	Clear	Odorless	Shellfish	"35.6 "	"5.1 "										2022/5/13	2022/5/13
PRA000119	SAA008667	ST024				Shizuoka_sed6-1_2019	Sediment	"River sediment"	2019	11	27	2019-11-27T10:30			Cloudy	Asia	Japan	"Kaketsuka-bashi Bridge, Riv. Tenryu (Iwata City), Shizuoka"	34.67888889		137.7958333														"17.5 "	"12.5 "										"13.5 "	"0.3 "	Sand	"Grayish brown_Dark"	White_Light	Odorless	Pebbles	"19.5 "	"1.9 "										2022/5/13	2022/5/13
PRA000119	SAA008668	ST024				Shizuoka_sed6-2_2019	Sediment	"River sediment"	2019	11	27	2019-11-27T11:30			Cloudy	Asia	Japan	"Kaketsuka-bashi Bridge, Riv. Tenryu (Iwata City), Shizuoka"	34.67888889		137.7958333														"16.7 "	"12.2 "										"13.3 "	"0.35 "	Sand	"Grayish brown_Dark"	White_Light	Odorless	Pebbles	"17.4 "	"1.4 "										2022/5/13	2022/5/13
PRA000119	SAA008669	ST024				Shizuoka_sed6-3_2019	Sediment	"River sediment"	2019	11	27	2019-11-27T12:10			Cloudy	Asia	Japan	"Kaketsuka-bashi Bridge, Riv. Tenryu (Iwata City), Shizuoka"	34.67888889		137.7958333														"17.4 "	"12.2 "										"13.0 "	"0.3 "	Sand	"Grayish brown_Dark"	White_Light	Odorless	Pebbles	"14.5 "	"1.5 "										2022/5/13	2022/5/13
PRA000119	SAA008670	ST023				Aichi_sed1-1_2019	Sediment	"Marine sediment"	2019	12	11	2019-12-11T12:33			Fair	Asia	Japan	"Nagoya Port, West of Shiomi Wharf, Aichi"	35.07111111		136.8691667														"15.1 "	"17.9 "								"3.1 "		"18.5 "	"12.0 "	Muddy	"Grayish green"	Clear	Odorless	None	"67.1 "	"11.8 "										2022/5/13	2022/5/13
PRA000119	SAA008671	ST023				Aichi_sed1-2_2019	Sediment	"Marine sediment"	2019	12	11	2019-12-11T12:33			Fair	Asia	Japan	"Nagoya Port, West of Shiomi Wharf, Aichi"	35.07111111		136.8691667														"15.1 "	"17.9 "								"3.1 "		"18.5 "	"12.0 "	Muddy	"Grayish green"	Clear	Odorless	None	"67.4 "	"10.8 "										2022/5/13	2022/5/13
PRA000119	SAA008672	ST023				Aichi_sed1-3_2019	Sediment	"Marine sediment"	2019	12	11	2019-12-11T12:33			Fair	Asia	Japan	"Nagoya Port, West of Shiomi Wharf, Aichi"	35.07111111		136.8691667														"15.1 "	"17.9 "								"3.1 "		"18.5 "	"12.0 "	Muddy	"Grayish green"	Clear	Odorless	None	"66.6 "	"10.7 "										2022/5/13	2022/5/13
PRA000119	SAA008673	ST024				NagoyaCity_sed2-1_2019	Sediment	"River sediment"	2019	11	28	2019-11-28T14:30			Fair	Asia	Japan	"Hinode-bashi Bridge, Riv. Shinhori (Nagoya City), Aichi"	35.12611111		136.9172222														"13.0 "	"18.0 "											"5.5 "	"Sand; Sludge"		"Green brown"														2022/5/13	2022/5/13
PRA000119	SAA008674	ST024				NagoyaCity_sed2-2_2019	Sediment	"River sediment"	2019	11	28	2019-11-28T14:30			Fair	Asia	Japan	"Hinode-bashi Bridge, Riv. Shinhori (Nagoya City), Aichi"	35.12611111		136.9172222														"13.0 "	"18.0 "											"5.5 "	"Sand; Sludge"		"Green brown"														2022/5/13	2022/5/13
PRA000119	SAA008675	ST024				NagoyaCity_sed2-3_2019	Sediment	"River sediment"	2019	11	28	2019-11-28T14:30			Fair	Asia	Japan	"Hinode-bashi Bridge, Riv. Shinhori (Nagoya City), Aichi"	35.12611111		136.9172222														"13.0 "	"18.0 "											"5.5 "	"Sand; Sludge"		"Green brown"														2022/5/13	2022/5/13
PRA000119	SAA008676	ST024				NagoyaCity_sed3-1_2019	Sediment	"River sediment"	2019	11	28	2019-11-28T12:45			Fair	Asia	Japan	"Arako-gawa discharge pump station (Nagoya City), Aichi"	35.09722222		136.8641667														"13.0 "	"13.0 "										"13.4 "	"1.7 "	Sludge		"Green brown"	"Hydrogen sulfide odor"													2022/5/13	2022/5/13
PRA000119	SAA008677	ST024				NagoyaCity_sed3-2_2019	Sediment	"River sediment"	2019	11	28	2019-11-28T12:45			Fair	Asia	Japan	"Arako-gawa discharge pump station (Nagoya City), Aichi"	35.09722222		136.8641667														"13.0 "	"13.0 "										"13.4 "	"1.7 "	Sludge		"Green brown"	"Hydrogen sulfide odor"													2022/5/13	2022/5/13
PRA000119	SAA008678	ST024				NagoyaCity_sed3-3_2019	Sediment	"River sediment"	2019	11	28	2019-11-28T12:45			Fair	Asia	Japan	"Arako-gawa discharge pump station (Nagoya City), Aichi"	35.09722222		136.8641667														"13.0 "	"13.0 "										"13.4 "	"1.7 "	Sludge		"Green brown"	"Hydrogen sulfide odor"													2022/5/13	2022/5/13
PRA000119	SAA008679	ST023				Mie_sed1-1_2019	Sediment	"Marine sediment"	2019	11	28	2019-11-28T10:10			Cloudy	Asia	Japan	"Yokkaichi Port, Mie"	34.94944444		136.6530556														"12.0 "	"17.0 "								"3.1 "		"19.0 "	"12.0 "	Muddy	"Grayish black"	"Green brown"	"Hydrogen sulfide odor_Faint"	"Almost none"	"64.8 "	"8.2 "										2022/5/13	2022/5/13
PRA000119	SAA008680	ST023				Mie_sed1-2_2019	Sediment	"Marine sediment"	2019	11	28	2019-11-28T10:47			Cloudy	Asia	Japan	"Yokkaichi Port, Mie"	34.94944444		136.6530556														"11.0 "	"16.5 "								"3.5 "		"19.0 "	"7.2 "	Muddy	"Grayish black"	"Green brown"	"Hydrogen sulfide odor_Faint"	"Almost none"	"53.9 "	"6.6 "										2022/5/13	2022/5/13
PRA000119	SAA008681	ST023				Mie_sed1-3_2019	Sediment	"Marine sediment"	2019	11	28	2019-11-28T10:53			Cloudy	Asia	Japan	"Yokkaichi Port, Mie"	34.94944444		136.6530556														"11.0 "	"17.0 "								"3.3 "		"19.0 "	"7.3 "	Muddy	"Grayish black"	"Green brown"	"Hydrogen sulfide odor_Faint"	Seashells	"57.4 "	"7.1 "										2022/5/13	2022/5/13
PRA000119	SAA008682	ST023				Mie_sed2-1_2019	Sediment	"Marine sediment"	2019	11	25	2019-11-25T09:55			Fair	Asia	Japan	"Toba Port, Mie"	34.48083333		136.8486111														"22.0 "	"18.0 "								"2.5 "		"19.0 "	"5.7 "	Muddy	"Grayish brown"	"Gray green"	"Mud smell_Faint"	"Seashells; Vegetative pieces"	"56.9 "	"10.5 "										2022/5/13	2022/5/13
PRA000119	SAA008683	ST023				Mie_sed2-2_2019	Sediment	"Marine sediment"	2019	11	25	2019-11-25T10:20			Fair	Asia	Japan	"Toba Port, Mie"	34.48083333		136.8486111														"21.2 "	"18.0 "								"3.1 "		"18.0 "	"6.1 "	Muddy	"Grayish brown"	"Gray green"	"Mud smell_Faint"	"Seashells; Vegetative pieces"	"44.9 "	"8.2 "										2022/5/13	2022/5/13
PRA000119	SAA008684	ST023				Mie_sed2-3_2019	Sediment	"Marine sediment"	2019	11	25	2019-11-25T10:30			Fair	Asia	Japan	"Toba Port, Mie"	34.48083333		136.8486111														"21.2 "	"18.0 "								"3.3 "		"18.0 "	"6.0 "	Muddy	"Grayish brown"	"Gray green"	"Mud smell_Faint"	"Seashells; Vegetative pieces"	"42.2 "	"6.0 "										2022/5/13	2022/5/13
PRA000119	SAA008685	ST024				Shiga_sed1-1_2019	Sediment	"Lake sediment"	2019	11	27	2019-11-27T09:30			Cloudy	Asia	Japan	"Lake Biwa (center, offshore of Minamihira), Shiga"	35.18527778		135.9733333														"13.5 "	"15.8 "								"5.2 "		"8.9 "	"60.9 "	Muddy	"Grayish black"	"Greenish blue_Dark"	"Swampy odor"		"70.5 "	"11.0 "										2022/5/13	2022/5/13
PRA000119	SAA008686	ST024				Shiga_sed1-2_2019	Sediment	"Lake sediment"	2019	11	27	2019-11-27T09:55			Cloudy	Asia	Japan	"Lake Biwa (center, offshore of Minamihira), Shiga"	35.18527778		135.9733333														"14.5 "	"15.6 "								"5.4 "		"8.4 "	"53.8 "	Muddy	"Grayish black"	"Greenish blue_Dark"	"Swampy odor"		"68.9 "	"10.7 "										2022/5/13	2022/5/13
PRA000119	SAA008687	ST024				Shiga_sed1-3_2019	Sediment	"Lake sediment"	2019	11	27	2019-11-27T10:25			Cloudy	Asia	Japan	"Lake Biwa (center, offshore of Minamihira), Shiga"	35.18527778		135.9733333														"14.2 "	"15.3 "								"5.8 "		"8.5 "	"49.3 "	Muddy	"Grayish black"	"Greenish blue_Dark"	"Swampy odor"		"69.3 "	"10.8 "										2022/5/13	2022/5/13
PRA000119	SAA008688	ST024				Shiga_sed2-1_2019	Sediment	"Lake sediment"	2019	11	19	2019-11-19T09:50			Fair	Asia	Japan	"Lake Biwa (center, offshore of Karasaki), Shiga"	35.04611111		135.8955556														"18.7 "	"15.2 "								"3.0 "		"16.0 "	"3.8 "	Muddy	"Grayish black"	"Yellow green"	"Swampy odor"	"Aquatic plants"	"65.6 "	"10.2 "										2022/5/13	2022/5/13
PRA000119	SAA008689	ST024				Shiga_sed2-2_2019	Sediment	"Lake sediment"	2019	11	19	2019-11-19T10:30			Fair	Asia	Japan	"Lake Biwa (center, offshore of Karasaki), Shiga"	35.04611111		135.8955556														"18.9 "	"16.6 "								"2.8 "		"15.5 "	"4.3 "	Muddy	"Grayish black"	"Yellow green"	"Swampy odor"	"Aquatic plants"	"66.2 "	"10.8 "										2022/5/13	2022/5/13
PRA000119	SAA008690	ST024				Shiga_sed2-3_2019	Sediment	"Lake sediment"	2019	11	19	2019-11-19T11:10			Fair	Asia	Japan	"Lake Biwa (center, offshore of Karasaki), Shiga"	35.04611111		135.8955556														"18.6 "	"15.2 "								"2.7 "		"15.0 "	"4.0 "	Muddy	"Grayish black"	"Yellow green"	"Swampy odor"	"Aquatic plants"	"63.6 "	"10.3 "										2022/5/13	2022/5/13
PRA000119	SAA008691	ST023				Kyoto_sed1-1_2019	Sediment	"Marine sediment"	2020	1	8	2020-01-08T10:15			Cloudy	Asia	Japan	"Miyazu Port, Kyoto"	35.58305556		135.2138889														"16.9 "	"13.9 "								"6.0 "		"12.6 "	"11.5 "	Muddy	"Grayish black"	Clear	"Seaweed odor"	None	"26.9 "	"2.9 "										2022/5/13	2022/5/13
PRA000119	SAA008692	ST023				Kyoto_sed1-2_2019	Sediment	"Marine sediment"	2020	1	8	2020-01-08T10:35			Cloudy	Asia	Japan	"Miyazu Port, Kyoto"	35.58305556		135.2138889														"17.0 "	"13.9 "								"6.0 "		"13.0 "	"23.1 "	Muddy	"Grayish black"	Clear	"Seaweed odor"	None	"37.7 "	"11.9 "										2022/5/13	2022/5/13
PRA000119	SAA008693	ST023				Kyoto_sed1-3_2019	Sediment	"Marine sediment"	2020	1	8	2020-01-08T11:05			Cloudy	Asia	Japan	"Miyazu Port, Kyoto"	35.58305556		135.2138889														"17.4 "	"13.9 "								"6.0 "		"12.9 "	"22.5 "	Muddy	"Grayish black"	Clear	"Seaweed odor"	None	"42.2 "	"9.1 "										2022/5/13	2022/5/13
PRA000119	SAA008694	ST024				KyotoCity_sed1-1_2019	Sediment	"River sediment"	2020	1	22	2020-01-22T10:05			Fair	Asia	Japan	"Miyamae-bashi Bridge, Riv. Katsura (Kyoto City), Kyoto"	34.905		135.7125														"7.5 "	"11.2 "										"10.2 "	"0.5 "	Sandy	"Grayish brown"	Clear	Odorless	None	"14.1 "	"1.2 "										2022/5/13	2022/5/13
PRA000119	SAA008695	ST024				KyotoCity_sed1-2_2019	Sediment	"River sediment"	2020	1	22	2020-01-22T10:20			Fair	Asia	Japan	"Miyamae-bashi Bridge, Riv. Katsura (Kyoto City), Kyoto"	34.905		135.7125														"7.5 "	"11.2 "										"10.5 "	"0.8 "	Sandy	"Grayish brown"	Clear	Odorless	None	"18.1 "	"1.4 "										2022/5/13	2022/5/13
PRA000119	SAA008696	ST024				KyotoCity_sed1-3_2019	Sediment	"River sediment"	2020	1	22	2020-01-22T10:30			Fair	Asia	Japan	"Miyamae-bashi Bridge, Riv. Katsura (Kyoto City), Kyoto"	34.905		135.7125														"7.5 "	"11.2 "										"10.5 "	"0.8 "	Sandy	"Grayish brown"	Clear	Odorless	None	"19.4 "	"1.2 "										2022/5/13	2022/5/13
PRA000119	SAA008697	ST024				Osaka_sed1-1_2019	Sediment	"River sediment"	2019	12	5	2019-12-05T13:00			Fair	Asia	Japan	"Mouth of Riv. Yamato (Sakai City), Osaka"	34.60833333		135.4325														"12.4 "	"13.0 "								"1.8 "		"15.3 "	"2.3 "	Silt	Black	Yellow_Light	"Fishy smell"	"Vegetative pieces"	"50.9 "	"13.6 "										2022/5/13	2022/5/13
PRA000119	SAA008698	ST024				Osaka_sed1-2_2019	Sediment	"River sediment"	2019	12	5	2019-12-05T11:55			Fair	Asia	Japan	"Mouth of Riv. Yamato (Sakai City), Osaka"	34.60833333		135.4325														"12.0 "	"12.8 "								"1.5 "		"12.5 "	"1.6 "	"Silt mixed with sand"	"Grayish olive"	Yellow_Light	"Fishy smell"	"Vegetative pieces"	"31.8 "	"3.9 "										2022/5/13	2022/5/13
PRA000119	SAA008699	ST024				Osaka_sed1-3_2019	Sediment	"River sediment"	2019	12	5	2019-12-05T12:30			Fair	Asia	Japan	"Mouth of Riv. Yamato (Sakai City), Osaka"	34.60833333		135.4325														"12.2 "	"12.8 "								"1.3 "		"13.9 "	"1.6 "	"Silt mixed with sand"	"Olive black"	Yellow_Light	"Fishy smell"	"Vegetative pieces"	"38.3 "	"7.4 "										2022/5/13	2022/5/13
PRA000119	SAA008700	ST024				OsakaCity_sed2-1_2019	Sediment	"River sediment"	2019	11	28	2019-11-28T09:35			Cloudy	Asia	Japan	"Kema-bashi Bridge, Riv. Oh (Osaka City), Osaka"	34.71776		135.51961														"10.8 "	"14.4 "										"13.0 "	"3.0 "	Silt	Gray	"Grayish yellow_Light"	"Sewage odor_Faint"	Shellfish	"45.2 "	"7.6 "										2022/5/13	2022/5/13
PRA000119	SAA008701	ST024				OsakaCity_sed2-2_2019	Sediment	"River sediment"	2019	11	28	2019-11-28T11:20			Cloudy	Asia	Japan	"Kema-bashi Bridge, Riv. Oh (Osaka City), Osaka"	34.71776		135.51961														"11.5 "	"14.3 "										"13.4 "	"2.0 "	Silt	Gray	"Grayish yellow_Light"	"Sewage odor_Faint"	Shellfish	"53.1 "	"10.2 "										2022/5/13	2022/5/13
PRA000119	SAA008702	ST024				OsakaCity_sed2-3_2019	Sediment	"River sediment"	2019	11	28	2019-11-28T10:45			Cloudy	Asia	Japan	"Kema-bashi Bridge, Riv. Oh (Osaka City), Osaka"	34.71776		135.51961														"11.6 "	"14.0 "										"13.5 "	"3.5 "	Silt	Gray	"Grayish yellow_Light"	"Sewage odor_Faint"	Shellfish	"44.6 "	"8.9 "										2022/5/13	2022/5/13
PRA000119	SAA008703	ST023				OsakaCity_sed1-1_2019	Sediment	"Marine sediment"	2019	12	3	2019-12-03T08:54			Fair	Asia	Japan	"Osaka Port, Osaka"	34.65861111		135.4313889														"10.9 "	"15.6 "								"2.9 "		"16.4 "	"12.2 "	Silt	Black	"Grayish yellow_Light"	"Hydrogen sulfide odor"	None	"54.3 "	"10.1 "										2022/5/13	2022/5/13
PRA000119	SAA008704	ST023				OsakaCity_sed1-2_2019	Sediment	"Marine sediment"	2019	12	3	2019-12-03T08:11			Fair	Asia	Japan	"Osaka Port, Osaka"	34.65861111		135.4313889														"10.2 "	"13.8 "								"3.5 "		"16.5 "	"11.7 "	Silt	Black	"Grayish yellow_Light"	"Hydrogen sulfide odor"	None	"52.7 "	"9.4 "										2022/5/13	2022/5/13
PRA000119	SAA008705	ST023				OsakaCity_sed1-3_2019	Sediment	"Marine sediment"	2019	12	3	2019-12-03T09:16			Fair	Asia	Japan	"Osaka Port, Osaka"	34.65861111		135.4313889														"12.1 "	"16.0 "								"3.4 "		"17.2 "	"12.6 "	Silt	Black	"Grayish yellow_Light"	"Hydrogen sulfide odor"	None	"60.6 "	"10.7 "										2022/5/13	2022/5/13
PRA000119	SAA008706	ST023				Hyogo_sed1-1_2019	Sediment	"Marine sediment"	2019	11	13	2019-11-13T11:00			Fair	Asia	Japan	"Offshore of Himeji, Hyogo"	34.76194444		134.6697222														"17.4 "	"19.9 "								"8.0 "		"20.0 "	"9.0 "	Silt	"Grayish brown"	"Dark green"	"Hydrogen sulfide odor_Faint"	None												2022/5/13	2022/5/13
PRA000119	SAA008707	ST023				Hyogo_sed2-1_2019	Sediment	"Marine sediment"	2019	12	10	2019-12-10T09:53			Fair	Asia	Japan	"Center of Kobe Port, Hyogo"	34.66444444		135.1944444														"15.2 "	"14.3 "								"6.6 "		"15.0 "	"10.9 "	Silt	"Greenish brown"	"Green brown"	"Hydrogen sulfide odor"	Pebbles	"55.5 "	"9.5 "										2022/5/13	2022/5/13
PRA000119	SAA008708	ST023				Hyogo_sed2-2_2019	Sediment	"Marine sediment"	2019	12	10	2019-12-10T10:32			Fair	Asia	Japan	"Center of Kobe Port, Hyogo"	34.66444444		135.1944444														"15.0 "	"14.7 "								"10.0 "		"15.0 "	"10.6 "	Silt	"Greenish brown"	"Green brown"	"Hydrogen sulfide odor"	"Seashells; Pebbles"	"51.8 "	"11.5 "										2022/5/13	2022/5/13
PRA000119	SAA008709	ST023				Hyogo_sed2-3_2019	Sediment	"Marine sediment"	2019	12	10	2019-12-10T10:48			Fair	Asia	Japan	"Center of Kobe Port, Hyogo"	34.66444444		135.1944444														"15.1 "	"14.5 "								"9.1 "		"15.0 "	"12.8 "	Silt	"Greenish brown"	"Green brown"	"Hydrogen sulfide odor"		"56.4 "	"9.0 "										2022/5/13	2022/5/13
PRA000119	SAA008710	ST024				Nara_sed1_1_2019	Sediment	"River sediment"	2019	12	5	2019-12-05T10:30			Fair	Asia	Japan	"Taisho-bashi Bridge, Riv. Yamato (Oji town), Nara"	34.58583333		135.6833333														"13.0 "	"11.0 "										"11.0 "	"0.3 "	Sandy	Brown	"Grayish yellow green_Light"	"Sewage odor_Faint"	None	"24.0 "	"0.9 "										2022/5/13	2022/5/13
PRA000119	SAA008711	ST024				Nara_sed1_2_2019	Sediment	"River sediment"	2019	12	5	2019-12-05T10:45			Fair	Asia	Japan	"Taisho-bashi Bridge, Riv. Yamato (Oji town), Nara"	34.58583333		135.6833333														"13.0 "	"11.0 "										"11.0 "	"0.3 "	Sandy	Brown	"Grayish yellow green_Light"	"Sewage odor_Faint"	None	"22.0 "	"0.5 "										2022/5/13	2022/5/13
PRA000119	SAA008712	ST024				Nara_sed1_3_2019	Sediment	"River sediment"	2019	12	5	2019-12-05T11:00			Fair	Asia	Japan	"Taisho-bashi Bridge, Riv. Yamato (Oji town), Nara"	34.58583333		135.6833333														"13.0 "	"11.0 "										"11.0 "	"0.3 "	Sandy	Brown	"Grayish yellow green_Light"	"Sewage odor_Faint"	None	"22.0 "	"0.5 "										2022/5/13	2022/5/13
PRA000119	SAA008713	ST024				Wakayama_sed1-1_2019	Sediment	"River sediment"	2019	11	27	2019-11-27T14:00			Cloudy	Asia	Japan	"Kinokawa-ohashi Bridge, Mouth of Riv. Kinokawa (Wakayama City), Wakayama"	34.23		135.1561111														"15.7 "	"18.0 "										"19.7 "	"4.4 "	Sandy	Gray	Green	"Seaweed odor"	Pebbles	"30.2 "	"5.3 "										2022/5/13	2022/5/13
PRA000119	SAA008714	ST024				Wakayama_sed1-2_2019	Sediment	"River sediment"	2019	11	27	2019-11-27T14:14			Cloudy	Asia	Japan	"Kinokawa-ohashi Bridge, Mouth of Riv. Kinokawa (Wakayama City), Wakayama"	34.23		135.1561111														"15.7 "	"17.7 "										"19.7 "	"4.0 "	Sandy	Gray	Green	"Seaweed odor"	None	"28.7 "	"4.9 "										2022/5/13	2022/5/13
PRA000119	SAA008715	ST024				Wakayama_sed1-3_2019	Sediment	"River sediment"	2019	11	27	2019-11-27T14:30			Cloudy	Asia	Japan	"Kinokawa-ohashi Bridge, Mouth of Riv. Kinokawa (Wakayama City), Wakayama"	34.23		135.1561111														"14.6 "	"17.5 "										"20.2 "	"3.1 "	Sandy	Gray	Green	"Seaweed odor"	None	"21.9 "	"2.7 "										2022/5/13	2022/5/13
PRA000119	SAA008716	ST023				Okayama_sed1-1_2019	Sediment	"Marine sediment"	2019	10	23	2019-10-23T10:50			Fair	Asia	Japan	"Offshore of Mizushima, Okayama"	34.48055556		133.665														"23.6 "	"22.0 "								"1.5 "		"24.0 "	"7.6 "	Ooze	"Grayish green"	"Yellow green_Dark"	"Earthy odor"	"Small pieces of seashell"	"49.3 "	"5.9 "										2022/5/13	2022/5/13
PRA000119	SAA008717	ST023				Okayama_sed1-2_2019	Sediment	"Marine sediment"	2019	10	23	2019-10-23T11:25			Fair	Asia	Japan	"Offshore of Mizushima, Okayama"	34.48055556		133.665														"24.0 "	"22.5 "								"2.0 "		"24.5 "	"9.1 "	Ooze	"Grayish green"	"Yellow green_Dark"	"Earthy odor"	"Small pieces of seashell"	"45.2 "	"5.5 "										2022/5/13	2022/5/13
PRA000119	SAA008718	ST023				Okayama_sed1-3_2019	Sediment	"Marine sediment"	2019	10	23	2019-10-23T11:55			Fair	Asia	Japan	"Offshore of Mizushima, Okayama"	34.48055556		133.665														"23.5 "	"22.0 "								"2.0 "		"23.8 "	"7.8 "	Ooze	"Grayish green"	"Yellow green_Dark"	"Earthy odor"	"Small pieces of seashell"	"47.8 "	"5.9 "										2022/5/13	2022/5/13
PRA000119	SAA008719	ST023				Yamaguchi_sed1-1_2019	Sediment	"Marine sediment"	2019	11	12	2019-11-12T12:25			Fair	Asia	Japan	"Tokuyama Bay, Yamaguchi"	33.99361111		131.7505556														"20.0 "	"22.4 "								"7.0 "		"20.0 "	"23.0 "	Silt	"Grayish yellow green"	"Blue green"	"Hydrogen sulfide odor_Faint"	None	"62.5 "	"10.4 "										2022/5/13	2022/5/13
PRA000119	SAA008720	ST023				Yamaguchi_sed3-1_2019	Sediment	"Marine sediment"	2019	11	22	2019-11-22T11:10			Cloudy	Asia	Japan	"Offshore of Hagi, Yamaguchi"	34.43805556		131.3794444														"14.5 "	"19.5 "								"15.0 "		"17.0 "	"26.4 "	"Fine sand"	"Light gray"	"Blue green"	Odorless	None	"31.3 "	"6.3 "										2022/5/13	2022/5/13
PRA000119	SAA008721	ST023				Kagawa_sed1-1_2019	Sediment	"Marine sediment"	2019	11	26	2019-11-26T09:07			Cloudy	Asia	Japan	"Takamatsu Port, Kagawa"	34.34972222		134.0788889														"13.5 "	"15.9 "								"1.1 "		"17.0 "	"2.6 "	Muddy	Black	"Blue green"	"Hydrogen sulfide odor; Pine essential oil odor"	"Seashells (Unknown type); Vegetative pieces (Lawn; Fallen leaves, etc); Vinyl pieces"	"63.8 "	"15.5 "										2022/5/13	2022/5/13
PRA000119	SAA008722	ST023				Kagawa_sed1-2_2019	Sediment	"Marine sediment"	2019	11	26	2019-11-26T09:14			Cloudy	Asia	Japan	"Takamatsu Port, Kagawa"	34.34972222		134.0788889														"13.4 "	"16.4 "								"1.0 "		"16.8 "	"5.2 "	Sandy	Black	"Blue green"	"Hydrogen sulfide odor_Faint"	"Seashells (Unknown type); Vegetative pieces (Fallen leaves, Eelgrass, etc)"	"28.5 "	"2.6 "										2022/5/13	2022/5/13
PRA000119	SAA008723	ST023				Kagawa_sed1-3_2019	Sediment	"Marine sediment"	2019	11	26	2019-11-26T09:25			Cloudy	Asia	Japan	"Takamatsu Port, Kagawa"	34.34972222		134.0788889														"12.8 "	"16.0 "								"2.2 "		"17.2 "	"5.3 "	Muddy	Black	"Blue green"	"Hydrogen sulfide odor_Faint"	None	"69.7 "	"16.1 "										2022/5/13	2022/5/13
PRA000119	SAA008724	ST023				KitakyushuCity_sed1-1_2019	Sediment	"Marine sediment"	2019	11	25	2019-11-25T09:50			Cloudy	Asia	Japan	"Dokai Bay (Kitakyushu City), Fukuoka"	33.90388889		130.8158333														"19.3 "	"17.8 "								"4.5 "		"18.3 "	"11.5 "	Mud	Black	Clear	Odorless	None	"42.2 "	"8.0 "										2022/5/13	2022/5/13
PRA000119	SAA008725	ST023				KitakyushuCity_sed1-2_2019	Sediment	"Marine sediment"	2019	11	25	2019-11-25T10:35			Cloudy	Asia	Japan	"Dokai Bay (Kitakyushu City), Fukuoka"	33.90388889		130.8158333														"19.3 "	"17.9 "								"4.5 "		"18.2 "	"11.3 "	Mud	Black	Clear	Odorless	None	"46.0 "	"6.7 "										2022/5/13	2022/5/13
PRA000119	SAA008726	ST023				KitakyushuCity_sed1-3_2019	Sediment	"Marine sediment"	2019	11	25	2019-11-25T10:20			Cloudy	Asia	Japan	"Dokai Bay (Kitakyushu City), Fukuoka"	33.90388889		130.8158333														"19.3 "	"18.0 "								"4.5 "		"18.1 "	"9.8 "	Mud	Black	Clear	Odorless	None	"57.1 "	"11.2 "										2022/5/13	2022/5/13
PRA000119	SAA008727	ST023				FukuokaCity_sed1-1_2019	Sediment	"Marine sediment"	2019	12	5	2019-12-05T08:55			Cloudy	Asia	Japan	"Hakata Bay, Fukuoka"	33.60833333		130.3297222														"13.5 "	"14.0 "								"2.5 "		"14.5 "	"7.7 "	Silt	Gray	Green_Dark	Odorless	None	"42.0 "	"9.0 "										2022/5/13	2022/5/13
PRA000119	SAA008728	ST023				FukuokaCity_sed1-2_2019	Sediment	"Marine sediment"	2019	12	5	2019-12-05T09:25			Cloudy	Asia	Japan	"Hakata Bay, Fukuoka"	33.60833333		130.3297222														"14.1 "	"14.0 "								"3.0 "		"14.0 "	"7.4 "	Silt	Gray	Green_Dark	Odorless	None	"42.0 "	"8.8 "										2022/5/13	2022/5/13
PRA000119	SAA008729	ST023				FukuokaCity_sed1-3_2019	Sediment	"Marine sediment"	2019	12	5	2019-12-05T09:40			Cloudy	Asia	Japan	"Hakata Bay, Fukuoka"	33.60833333		130.3297222														"14.4 "	"14.0 "								"3.0 "		"14.5 "	"8.4 "	Silt	Gray	Green_Dark	Odorless	None	"42.0 "	"8.9 "										2022/5/13	2022/5/13
PRA000119	SAA008730	ST023				Saga_sed1-1_2019	Sediment	"Marine sediment"	2019	11	29	2019-11-29T11:00			Fair	Asia	Japan	"Imari Bay, Saga"	33.34		129.8208333														"13.0 "	"16.5 "								"2.5 "		"17.0 "	"15.2 "	Muddy	"Grayish black"	Clear	"Earthy odor"	None	"66.5 "	"11.8 "										2022/5/13	2022/5/13
PRA000119	SAA008731	ST023				Saga_sed1-2_2019	Sediment	"Marine sediment"	2019	11	29	2019-11-29T11:56			Fair	Asia	Japan	"Imari Bay, Saga"	33.34		129.8208333														"13.0 "	"16.5 "								"2.5 "		"17.0 "	"15.5 "	Muddy	"Grayish black"	Clear	"Earthy odor"	None	"66.4 "	"11.6 "										2022/5/13	2022/5/13
PRA000119	SAA008732	ST023				Saga_sed1-3_2019	Sediment	"Marine sediment"	2019	11	29	2019-11-29T12:10			Fair	Asia	Japan	"Imari Bay, Saga"	33.34		129.8208333														"13.0 "	"16.5 "								"2.5 "		"17.0 "	"16.2 "	Muddy	"Grayish black"	Clear	"Earthy odor"	None	"68.7 "	"12.6 "										2022/5/13	2022/5/13
PRA000119	SAA008733	ST024				Oita_sed1-1_2019	Sediment	"River sediment"	2019	11	21	2019-11-21T11:45			Fair	Asia	Japan	"Mouth of Riv. Oita, Oita"	33.25722222		131.6175														"14.5 "	"16.5 "										"19.5 "	"1.5 "	"Muddy; Sandy"	Black	"Gray green_Dark"	"Hydrogen sulfide odor; Sewage odor"	"Seashell pieces; pieces of wood"	"17.9 "	"1.4 "										2022/5/13	2022/5/13
PRA000119	SAA008734	ST024				Oita_sed1-2_2019	Sediment	"River sediment"	2019	11	21	2019-11-21T11:05			Fair	Asia	Japan	"Mouth of Riv. Oita, Oita"	33.25722222		131.6175														"13.4 "	"14.7 "										"19.8 "	"2.9 "	"Muddy; Sandy"	Black	"Gray green_Dark"	"Hydrogen sulfide odor; Sewage odor"	"Seashell pieces; Seashells; Gravels; pieces of wood"	"17.3 "	"1.6 "										2022/5/13	2022/5/13
PRA000119	SAA008735	ST024				Oita_sed1-3_2019	Sediment	"River sediment"	2019	11	21	2019-11-21T09:57			Fair	Asia	Japan	"Mouth of Riv. Oita, Oita"	33.25722222		131.6175														"12.9 "	"13.8 "										"18.2 "	"2.7 "	Sandy	Black	"Gray green_Dark"	"Sewage odor"	"Gravels; pieces of wood"	"20.6 "	"1.8 "										2022/5/13	2022/5/13
PRA000120	SAA008756	ST024				Hokkaido_sed2-123_2019	Sediment	"River sediment"	2019	11	21	"2019-11-21T14:00; T14:20; T14:40"			"Cloudy; Cloudy; Cloudy"	Asia	Japan	"Ishikarikakokyo Bridge, Mouth of Riv. Ishikari (Ishikari City), Hokkaido"	43.22861111		141.3519444														"2.1; 2.0; 2.1"	"2.9; 2.9; 2.9"										"3.3; 3.0; 3.2"			"Blackish brown; Blackish brown; Blackish brown"	"Gray brown; Gray brown; Gray brown"	"Odorless; Odorless; Odorless"		"47.0; 52.0; 48.0 (Each) / 48.6 (Mixed)"	"6.0; 7.4; 6.2 (Each) / 7.0 (Mixed)"									"n=3 pooled: SAA008622; SAA008623; SAA008624"	2022/7/12	2022/7/12
PRA000120	SAA008757	ST023				Hokkaido_sed3-123_2019	Sediment	"Marine sediment"	2019	9	12	"2019-09-12T10:45; T11:00; T11:10"			"Fair; Fair; Fair"	Asia	Japan	"Tomakomai Port, Hokkaido"	42.63138889		141.6288889														"21.0; 20.6; 21.7"	"21.9; 21.9; 22.0"								"3.5; 3.5; 3.5"		"18.9; 19.2; 19.0"	"16.0; 16.0; 16.0"		"Black; Black; Black"	"Greenish blue; Greenish blue; Greenish blue"	"Hydrogen sulfide odor; Hydrogen sulfide odor; Hydrogen sulfide odor"		"56.0; 41.0; 44.0 (Each) / 47.8 (Mixed)"	"6.4; 3.9; 4.4 (Each) / 5.3 (Mixed)"									n=3	2022/7/12	2022/7/12
PRA000120	SAA008758	ST024				Iwate_sed1-123_2019	Sediment	"River sediment"	2019	12	4	"2019-12-04T10:25; T11:51; T11:53"			"Fair; Cloudy; Cloudy"	Asia	Japan	"Toyosawa-bashi Bridge, Riv. Toyosawa (Hanamaki City), Iwate"	39.38166667		141.1191667														"6.0; 6.0; 6.0"	"6.0; 6.5; 6.5"										"6.0; 5.5; 6.0"	"0.1; 0.1; 0.1"	"Sand mixed with pebbles; Sand mixed with pebbles; Sand mixed with pebbles"	"Brown; Light brown; Light brown"	"Green_Light; Green_Light; Green_Light"	"Odorless; Odorless; Odorless"	"Vegetative pieces; None; Vegetative pieces"	"17.2; 20.0; 17.5 (Each) / 18.6 (Mixed)"	"1.7; 1.6; 1.7 (Each) / 1.5 (Mixed)"									"n=3 pooled: SAA008625; SAA008626; SAA008627"	2022/7/12	2022/7/12
PRA000120	SAA008759	ST023				Miyagi_sed1_123_2019	Sediment	"Marine sediment"	2019	10	15	"2019-10-15T10:18; T11:34; T11:52"			"Fair; Fair; Fair"	Asia	Japan	"Sendai Bay (Matsushima Bay), Miyagi"	38.3533333		141.0975														"16.7; 18.7; 16.6"	"18.0; 18.2; 18.3"								"0.6; 0.7; 0.5"		"18.4; 18.2; 17.5"	"3.4; 3.8; 3.6"	"Muddy; Muddy; Muddy"	"Grayish green; Grayish green; Grayish green"	"Clear; Clear; Clear"	"Seaweed odor_Faint; Seaweed odor_Faint; Seaweed odor_Faint"	"Shell; None; Shell"	"60.1; 49.2; 46.4 (Each) / 63.9 (Mixed)"	"10.8; 8.8; 8.7 (Each) / 8.7 (Mixed)"									n=3	2022/7/12	2022/7/12
PRA000120	SAA008760	ST024				Sendai_sed1_123_2019	Sediment	"River sediment"	2019	11	19	"2019-11-19T14:26; T13:39; T14:15"			"Fair; Fair; Fair"	Asia	Japan	"Hirose-ohashi Bridge, Riv. Hirose (Sendai City), Miyagi"	38.21333333		140.9088889														"17.4; 17.4; 17.4"	"11.9; 11.7; 11.7"										"13.0; 13.0; 13.0"	"25.0; 35.0; 46.0"	"Sandy; Sandy; Sandy"	"Grayish black; Grayish black; Grayish black"	"Clear; Clear; Clear"	"Swampy odor; Swampy odor; Swampy odor"	"None; None; None"	"9.2; 17.0; 16.7 (Each) / 19.1 (Mixed)"	"1.1; 1.0; 1.1 (Each) / 0.9 (Mixed)"									"n=3 pooled: SAA008628; SAA008629; SAA008630"	2022/7/12	2022/7/12
PRA000120	SAA008761	ST024				Akita_sed2-123_2019	Sediment	"Lake sediment"	2019	10	21	"2019-10-21T10:43; T10:21; T11:03"			"Fair; Fair; Fair"	Asia	Japan	"Lake Hachiro, Akita"	39.92277778		139.9988889														"20.5; 20.0; 22.5"	"15.5; 16.4; 16.7"								"0.5; 0.5; 0.5"		"15.4; 15.5; 15.4"	"6.8; 7.1; 7.2"	"Muddy; Muddy; Muddy"	"Grayish black; Grayish black; Grayish black"	"Greenish brown_Light; Greenish brown_Light; Greenish brown_Light"	"Odorless; Odorless; Odorless"	"None; None; None"	"78.8; 76.8; 78.2 (Each) / 76.9 (Mixed)"	"12.2; 12.5; 12.5 (Each) / 8.6 (Mixed)"									n=3	2022/7/12	2022/7/12
PRA000120	SAA008762	ST024				Yamagata_sed1-123_2019	Sediment	"River sediment"	2019	12	11	"2019-12-11T10:30; T10:30; T10:30"			"Fair; Fair; Fair"	Asia	Japan	"Mouth of Riv. Mogami (Sakata City), Yamagata"	38.88722222		139.8433333														"11.5; 11.5; 11.5"	"5.0; 5.0; 5.0"										"6.2; 6.2; 6.2"	"0.3; 0.3; 0.3"	"Fine sand; Fine sand; Fine sand"	"Grayish black; Grayish black; Grayish black"	"Yellow green_Light; Yellow green_Light; Yellow green_Light"	"Earthy odor; Earthy odor; Earthy odor"	"Vegetative pieces; Vegetative pieces; Vegetative pieces"	"38.0; 35.9; 37.4 (Each) / 40.2 (Mixed)"	"5.2; 4.1; 5.0 (Each) / 4.1 (Mixed)"									"n=3 pooled: SAA008632; SAA008633; SAA008634"	2022/7/12	2022/7/12
PRA000120	SAA008763	ST023				Fukushima_sed1-123_2019	Sediment	"Marine sediment"	2019	11	12	"2019-11-12T11:20; T12:20; T12:45"			"Fair; Fair; Fair"	Asia	Japan	"Onahama Port, Fukushima"	36.92472222		140.8752778														"20.2; 20.2; 21.1"	"18.0; 17.7; 17.8"								"4.0; 3.0; 3.5"		"16.8; 15.7; 16.5"	"17.3; 14.3; 14.4"	"Mud; Mud; Mud"	"Grayish green; Grayish green; Grayish green"	"Blue green; Blue green; Blue green"	"Seaweed odor_Faint; Seaweed odor_Faint; Seaweed odor_Faint"	"None; None; None"	"52.4; 52.1; 59.9 (Each) / 56.1 (Mixed)"	"10.0; 11.0; 14.0 (Each) / 8.7 (Mixed)"									n=3	2022/7/12	2022/7/12
PRA000120	SAA008764	ST024				Ibaraki_sed1-123_2019	Sediment	"River sediment"	2019	12	10	"2019-12-10T09:40; T10:00; T10:45"			"Cloudy; Cloudy; Fair"	Asia	Japan	"Kamome-ohasi Bridge, Mouth of Riv. Tone (Kamisu City), Ibaraki"	35.77638889		140.7569444														"12.1; 14.3; 17.7"	"11.2; 12.4; 11.7"											"1.3; 5.3; 2.5"	"Mud; Sandy mud; Mud"	"Black; Black; Black"	"Clear; Clear; Clear"	"Swampy odor_Faint; Swampy odor_Faint; Swampy odor_Faint"	"None; None; None"	"34.0; 24.0; 32.0 (Each) / 35.2 (Mixed)"	"3.9; 1.3; 3.9 (Each) / 3.3 (Mixed)"									"n=3 pooled: SAA008635; SAA008636; SAA008637"	2022/7/12	2022/7/12
PRA000120	SAA008765	ST024				Tochigi_sed1-123_2019	Sediment	"River sediment"	2019	10	30	"2019-10-30T10:00; T11:28; T12:05"			"Cloudy; Cloudy; Fair"	Asia	Japan	"Tagawa area-Toshuko Weir (Utsunomiya City), Tochigi"	36.52805556		139.8855556														"16.0; 19.0; 22.0"	"15.6; 16.0; 17.0"										"17.0; 17.0; 18.2"	"0.30; 0.53; 0.45"	"Gravel; Gravel; Gravel"	"Brown; Brown; Brown"	"Clear; Clear; Clear"	"Odorless; Odorless; Odorless"		"(Each) / 17.8 (Mixed)"	"(Each) / 0.8 (Mixed)"									n=3	2022/7/12	2022/7/12
PRA000120	SAA008766	ST023				Chiba_sed1-123_2019	Sediment	"Marine sediment"	2019	11	27	"2019-11-27T10:16; T10:53; T11:10"			"Rain; Rain; Rain"	Asia	Japan	"Ichihara-Anesaki Coast, Chiba"	35.52166667		140.0283333														"9.8; 10.0; 10.0"	"17.6; 17.6; 17.5"								"5.0; 5.0; 5.0"		"18.0; 17.8; 18.4"	"18.6; 18.8; 18.3"	"Silt; Silt; Silt"	"Olive_Dark; Olive_Dark; Olive_Dark"	"Dark green; Dark green; Dark green"	"Hydrogen sulfide odor; Hydrogen sulfide odor; Hydrogen sulfide odor"	"Few shellfish pieces; Few shellfish pieces; Few shellfish pieces"	"74.1; 74.3; 71.0 (Each) / 81.1 (Mixed)"	"11.8; 11.9; 10.4 (Each) / 10.7 (Mixed)"									"n=3 pooled: SAA008638; SAA008639; SAA008640"	2022/7/12	2022/7/12
PRA000120	SAA008767	ST024				ChibaCity_sed1-123_2019	Sediment	"River sediment"	2019	11	7	"2019-11-07T10:50; T11:15; T11:40"			"Fair; Fair; Fair"	Asia	Japan	"Mouth of Riv. Hanami (Chiba City), Chiba"	35.63472222		140.0469444														"16.0; 18.0; 18.5"	"19.2; 21.0; 20.5"										"19.8; 19.8; 19.6"	"2.0; 1.7; 1.8"	"Muddy; Muddy; Muddy"	"Grayish black; Grayish black; Grayish black"	"Clear; Clear; Clear"	"Seaweed odor; Seaweed odor; Seaweed odor"	"Shellfish; Shellfish; Shellfish"	"23.1; 23.5; 27.3 (Each) / 23.9 (Mixed)"	"1.9; 1.8; 3.3 (Each) / 1.7 (Mixed)"									n=3	2022/7/12	2022/7/12
PRA000120	SAA008768	ST024				Tokyo_sed1-123_2019	Sediment	"River sediment"	2019	12	18	"2019-12-18T10:25; T11:40; T12:05"			"Fair; Cloudy; Cloudy"	Asia	Japan	"Mouth of Riv. Arakawa (Koto Ward), Tokyo"	35.64583333		139.8463889														"12.8: 14.4: 14.6"	"14.6; 16.0; 15.0"								"1.9; 1.9; 1.7"		"15.5; 15.6; 15.4"	"4.6; 3.4; 2.8"	"Silt mixed with fine sand; Silt; Silt mixed with fine sand"	"Olive black; Blackish brown; Blackish brown"	"Yellow green; Dark green; Yellow green"	"Hydrogen sulfide odor; Hydrogen sulfide odor_Faint; Hydrogen sulfide odor_Faint"	"Polychaetes, Seashells; Gammaridea,  Vegetative pieces, Vinyl pieces, Seashells; Gammaridea, Polychaete, Vegetative pieces"	"41.8; 39.0; 34.2 (Each) / 50.4 (Mixed)"	"8.1; 8.0; 7.0 (Each) / 6.7 (Mixed)"									"n=3 pooled: SAA008641; SAA008642; SAA008643"	2022/7/12	2022/7/12
PRA000120	SAA008769	ST024				Tokyo_sed2-123_2019	Sediment	"River sediment"	2019	12	18	"2019-12-18T13:00; T14:00; T14:15"			"Cloudy; Fair; Fair"	Asia	Japan	"Mouth of Riv. Sumida (Minato Ward), Tokyo"	35.66		139.7705556														"16.3; 16.3; 15.5"	"15.9; 15.9; 15.9"								"4.0; 3.3; 2.8"		"17.2; 17.0; 17.2"	"5.1; 5.0; 3.8"	"Silt; Silt; Silt"	"Black; Black; Black"	"Dark green; Dark green; Dark green"	"Hydrogen sulfide odor_Strong; Hydrogen sulfide odor_Strong; Hydrogen sulfide odor_Strong"	"Seashells; Seashells; Seashells; Vegetative pieces"	"54.6; 52.4; 48.0 (Each) / 66.8 (Mixed)"	"12.0; 11.9; 10.4 (Each) / 11.2 (Mixed)"									"n=3 pooled: SAA008644; SAA008645; SAA008646"	2022/7/12	2022/7/12
PRA000120	SAA008770	ST023				Yokohama_sed1-123_2019	Sediment	"Marine sediment"	2019	11	27	"2019-11-27T11:00; T10:00; T11:30"			"Rain; Rain; Rain"	Asia	Japan	"Yokohama Port, Kanagawa"	35.45555556		139.6636111														"9.0; 9.0; 9.0"	"15.8; 16.5; 16.0"								"5.0; 5.5; 5.0"		"17.0; 17.2; 18.0"	"11.3; 12.3; 11.2"	"Muddy; Muddy, Muddy"	"Brown; Brown; Brown"	"Clear; Clear; Clear"	"Hydrogen sulfide odor_Faint; Hydrogen sulfide odor_Faint; Hydrogen sulfide odor_Faint"	"None; None; None"	"67.3; 75.7; 67.8 (Each) / 70.9 (Mixed)"	"11.9; 11.9; 12.0 (Each) / 9.9 (Mixed)"									"n=3 pooled: SAA008647; SAA008648; SAA008649"	2022/7/12	2022/7/12
PRA000120	SAA008771	ST024				KawasakiCity_sed1-123_2019	Sediment	"River sediment"	2019	11	27	"2019-11-27T14:20; T15:02;T14:44"			"Cloudy; Cloudy; Cloudy"	Asia	Japan	"Mouth of Riv. Tama (Kawasaki City), Kanagawa"	35.53		139.7836111														"11.2; 12.6; 11.7"	"14.8; 14.6; 14.6"								"0.4; 0.9; 0.9"		"17.0; 17.3; 17.0"	"3.5; 3.2; 3.5"	"Muddy sand; Muddy sand; Sand"	"Grayish brown; Grayish brown; Grayish brown"	"Gray green; Green_Dark; Green_Dark"	"Sewage odor; Sewage odor_Faint; Sewage odor_Faint"	"Seashells, Vegetative pieces; Seashells, Vegetative pieces; Seashells, Vegetative pieces"	"33.7; 29.3; 21.3 (Each) / 33.9 (Mixed)"	"6.4; 5.9; 2.7 (Each) / 4.8 (Mixed)"									"n=3 pooled: SAA008650; SAA008651; SAA008652"	2022/7/12	2022/7/12
PRA000120	SAA008772	ST023				KawasakiCity_sed2-123_2019	Sediment	"Marine sediment"	2019	11	27	"2019-11-27T11:15; T10:49; T10:27"			"Light rain; Light rain; Light rain"	Asia	Japan	"Keihin Canal, Kawasaki Port, Kanagawa (front of Ogimachi)"	35.49527778		139.7277778														"9.4; 9.1; 8.7"	"17.2; 16.8; 16.6"								"4.2; 3.5; 3.7"		"18.0; 18.6; 18.0"	"14.5; 14.5; 13.5"	"Mud; Mud; Mud"	"Grayish green; Grayish green; Green_Dark"	"Gray green; Gray green; Gray green"	"Hydrogen sulfide odor; Hydrogen sulfide odor; Hydrogen sulfide odor"	"Seashells, Vegetative pieces; Seashells, Vegetative pieces; Seashells, Vegetative pieces"	"53.2; 70.8; 61.8 (Each) / 68.2 (Mixed)"	"10.3; 15.6; 12.6 (Each) / 10.2 (Mixed)"									"n=3 pooled: SAA008653; SAA008654; SAA008655"	2022/7/12	2022/7/12
PRA000120	SAA008773	ST024				Niigata_sed1-12_2019	Sediment	"River sediment"	2019	12	11	"2019-12-11T14:00; T13:40"			"Cloudy; Cloudy"	Asia	Japan	"Downstream of Riv. Shinano (Niigata City), Niigata"	37.88305556		139.0155556														"14.5; 14.5"	"8.0; 8.0"										"8.5; 8.5"	"4.6; 4.6"	"Sandy; Sandy"	"Brown; Brown"	"Green; Green"	"Earthy odor; Earthy odor"	"Twigs, Leaves; Leaves"	"26.2; 23.0 (Each) / 22.3 (Mixed)"	"1.2; 1.1 (Each) / 1.1 (Mixed)"									"n=2 pooled: SAA008656; SAA008657"	2022/7/12	2022/7/12
PRA000120	SAA008774	ST024				Toyama_sed1-123_2019	Sediment	"River sediment"	2019	11	13	"2019-11-13T10:10; T10:50; T12:02"			"Fair; Fair; Fair"	Asia	Japan	"Hagiura-bashi Bridge, Mouth of Riv. Jintsu (Toyama City), Toyama"	36.745		137.2180556														"18.4; 18.4; 18.9"	"13.3; 13.3; 14.9"										"13.8; 13.6; 14.1"	"0.7; 0.4; 0.4"	"Muddy; Muddy sand; Sandy"	"Gray; Gray; Gray"	"Clear; Clear; Clear"	"Hydrogen sulfide odor_Faint; Hydrogen sulfide odor_Faint; Odorless"	"Leaves, Stems; Leaves, Stems; None"	"46.0; 31.0; 16.0 (Each) / 39.1 (Mixed)"	"9.6; 4.2; 1.2 (Each) / 4.3 (Mixed)"									n=3	2022/7/12	2022/7/12
PRA000120	SAA008775	ST024				Ishikawa_sed1-456_2019	Sediment	"River sediment"	2019	10	23	"2019-10-23T09:48; T11:11; T11:40"			"Fair; Fair; Fair"	Asia	Japan	"Mouth of Riv. Sai (Kanazawa City), Ishikawa"	36.60027778		136.5888889														"21.9; 19.9; 23.4"	"17.5; 17.4; 17.2"											"3.2; 1.3; 1.0"	"Silt; Sany silt; Silty sand"	"Grayish black; Grayish brown; Blackish brown"	"Green; Green; Green"	"Fish rotten odor; Fish rotten odor_Faint; Fish rotten odor_Faint"	"Pebbles, twigs, shell; Pebbles, twigs; Pebbles"	"32.1; 23.4; 22.6 (Each) / 30.7 (Mixed)"	"4.8; 2.2; 1.8 (Each) / 3.1 (Mixed)"									n=3	2022/7/12	2022/7/12
PRA000120	SAA008776	ST024				Fukui_sed1-123_2019	Sediment	"River sediment"	2019	10	23	"2019-10-23T10:50; T10:50; T10:50"			"Fair; Fair; Fair"	Asia	Japan	"Mishima-bashi Bridge, Riv. Shono (Tsuruga City), Fukui"	35.6475		136.0627778														"25.4; 25.4; 25.4"	"22.5; 22.5; 22.5"										"22.5; 22.5; 22.5"	"0.1; 0.1; 0.1"	"Sandy; Sandy; Sandy"	"Brown; Brown; Brown"	"Clear; Clear; Clear"	"Odorless; Odorless; Odorless"	"Stones; Stones; Stones"	"20.4; 20.6; 20.2 (Each) / 18.4 (Mixed)"	"0.9; 0.9; 0.9 (Each) / 0.7 (Mixed)"									n=3	2022/7/12	2022/7/12
PRA000120	SAA008777	ST024				Yamanashi_sed1-123_2019	Sediment	"River sediment"	2019	11	1	"2019-11-01T10:30; T09:58; T09:25"			"Fair; Fair; Fair"	Asia	Japan	"Chiaki-bashi Bridge, Riv. Ara (Kofu City), Yamanashi"	35.6475		138.5655556														"15.3; 17.5; 17.5"	"14.3; 14.0; 15.2"										"14.8; 15.0; 15.5"	"0.1; 0.2; 0.3"	"Sand; Pebble; Sand"	"Gray; Gray; Gray"	"Greenish brown; Greenish brown; Greenish brown"	"Odorless; Odorless; Odorless"	"None; Sand; Pebbles"	"18.5; 16.1; 15.2 (Each) / 16.7 (Mixed)"	"1.1; 1.3; 0.7 (Each) / 0.7 (Mixed)"									n=3	2022/7/12	2022/7/12
PRA000120	SAA008778	ST024				Nagano_sed1-123_2019	Sediment	"Lake sediment"	2019	12	3	"2019-12-03T09:30; T10:18; T10:42"			"Fair; Fair; Fair"	Asia	Japan	"Center of Lake Suwa, Nagano"	36.05		138.0861111														"5.4; 7.1; 8.1"	"8.0; 8.2; 8.2"								"1.8; 1.6; 1.4"		"7.8; 7.9; 7.8"	"5.5; 5.5; 5.5"	"Muddy; Muddy, Muddy"	"Blackish brown_Dark; Blackish brown_Dark; Blackish brown_Dark"	"Yellow green_Light; Yellow green_Light; Yellow green_Light"	"Swampy odor_Faint; Swampy odor_Faint; Swampy odor_Faint"	"None; None; None"	"79.6; 78.9; 79.6 (Each) / 84.6 (Mixed)"	"14.2; 13.7; 15.0 (Each) / 13.3 (Mixed)"									"n=3 pooled: SAA008661; SAA008662; SAA008663"	2022/7/12	2022/7/12
PRA000120	SAA008779	ST023				Shizuoka_sed1-123_2019	Sediment	"Marine sediment"	2019	12	4	"2019-12-04T09:35; T10:15; T10:30"			"Fair; Fair; Fair"	Asia	Japan	"Shimizu Port, Shizuoka"	35.02416667		138.5161111														"12.1; 12.9; 12.9"	"17.2; 17.9; 18.2"								"5.5; 5.5; 5.0"		"20.1; 20.5; 20.0"	"24.9; 20.1; 17.4"	"Sand, Clay; Sand, Clay; Sand, Clay"	"Grayish green_Dark; Grayish green_Dark; Grayish green_Dark"	"Clear; Clear; Clear"	"Odorless; Odorless; Odorless"	"Shellfish, pieces of wood; Shellfish, pieces of wood; Shellfish, pieces of wood"	"34.8; 30.7; 35.6 (Each) / 31.4 (Mixed)"	"5.0; 4.5; 5.1 (Each) / 4.0 (Mixed)"									"n=3 pooled: SAA008664; SAA008665; SAA008666"	2022/7/12	2022/7/12
PRA000120	SAA008780	ST024				Shizuoka_sed6-123_2019	Sediment	"River sediment"	2019	11	27	"2019-11-27T10:30; T11:30; T12:10"			"Cloudy; Cloudy; Cloudy"	Asia	Japan	"Kaketsuka-bashi Bridge, Riv. Tenryu (Iwata City), Shizuoka"	34.67888889		137.7958333														"17.5; 16.7; 17.4"	"12.5; 12.2; 12.2"										"13.5; 13.3; 13.0"	"0.3; 0.4; 0.3"	"Sand; Sand; Sand"	"Grayish brown_Dark; Grayish brown_Dark; Grayish brown_Dark"	"White_Light; White_Light; White_Light"	"Odorless; Odorless; Odorless"	"Pebbles; Pebbles; Pebbles"	"19.5; 17.4; 14.5 (Each) / 17.7 (Mixed)"	"1.9; 1.4; 1.5 (Each) / 1.4 (Mixed)"									"n=3 pooled: SAA008667; SAA008668; SAA008669"	2022/7/12	2022/7/12
PRA000120	SAA008781	ST023				Aichi_sed2-123_2019	Sediment	"Marine sediment"	2019	12	11	"2019-12-11T10:20; T10:25; T10:30"			"Fair; Fair; Fair"	Asia	Japan	"Kinuura Port, Aichi"	34.84166667		136.9486111														"12.7; 12.7; 12.7"	"16.9; 16.9; 16.9"								"3.2; 3.2; 3.2"		"15.0; 15.0; 15.5"	"15.1; 15.1; 15.1"	"Muddy; Muddy; Muddy"	"Grayish green; Grayish green; Grayish green"	"Clear; Clear; Clear"	"Hydrogen sulfide odor_Faint; Hydrogen sulfide odor_Faint; Odorless"	"Shell; Shell; Shell"	"65.0; 64.8; 65.4 (Each) / 64.8 (Mixed)"	"10.9; 10.6; 10.4 (Each) / 9.9 (Mixed)"									n=3	2022/7/12	2022/7/12
PRA000120	SAA008782	ST023				Aichi_sed1-456_2019	Sediment	"Marine sediment"	2019	12	11	"2019-12-11T12:10; T12:15; T12:20"			"Fair; Fair; Fair"	Asia	Japan	"Nagoya Port, West of Shiomi Wharf, Aichi"	35.07111111		136.8691667														"14.2; 14.2; 14.2"	"16.6; 16.6; 16.6"								"2.5; 2.5; 2.5"		"17.0; 17.0; 17.0"	"15.2; 15.2; 15.2"	"Muddy; Muddy; Muddy"	"Grayish green; Grayish green; Grayish green"	"Clear; Clear; Clear"	"Hydrogen sulfide odor_strong; Hydrogen sulfide odor_strong; Hydrogen sulfide odor_strong"	"None; None; None"	"63.0; 61.2; 60.1 (Each) / 60.9 (Mixed)"	"8.8; 10.0; 8.1 (Each) / 7.4 (Mixed)"									n=3	2022/7/12	2022/7/12
PRA000120	SAA008783	ST023				Mie_sed1-123_2019	Sediment	"Marine sediment"	2019	11	28	"2019-11-28T10:10; T10:47; T10:53"			"Cloudy; Cloudy; Cloudy"	Asia	Japan	"Yokkaichi Port, Mie"	34.94944444		136.6530556														"12.0; 11.0; 11.0"	"17.0; 16.5; 17.0"								"3.1; 3.5; 3.3"		"19.0; 19.0; 19.0"	"12.0; 7.2; 7.3"	"Muddy; Muddy, Muddy"	"Grayish black; Grayish black; Grayish black"	"Green brown; Green brown; Green brown"	"Hydrogen sulfide odor_Faint; Hydrogen sulfide odor_Faint; Hydrogen sulfide odor_Faint"	"Almost none; Almost none; Seashells"	"64.8; 53.9; 57.4 (Each) / 56.3 (Mixed)"	"8.2; 6.6; 7.1 (Each) / 6.9 (Mixed)"									"n=3 pooled: SAA008679; SAA008680; SAA008681"	2022/7/12	2022/7/12
PRA000120	SAA008784	ST023				Mie_sed2-456_2019	Sediment	"Marine sediment"	2019	11	25	"2019-11-25T11:00; T11:13; T11:19"			"Fair; Fair; Fair"	Asia	Japan	"Toba Port, Mie"	34.48083333		136.8486111														"22.0; 21.2; 21.2"	"18.0; 18.0; 18.0"								"2.5; 3.1; 3.3"		"19.0; 18.0; 18.0"	"5.7; 6.1; 6.0"	"Muddy; Muddy; Muddy"	"Grayish brown; Grayish brown; Grayish brown"	"Grayish green; Grayish green; Grayish green"	"Swampy odor_Faint; Swampy odor_Faint; Swampy odor_Faint"	"Shell, vegetative pieces; Shell, vegetative pieces; Shell, vegetative pieces"	"56.9; 44.9; 42.2 (Each) / 43.9 (Mixed)"	"10.5; 8.2; 6.0 (Each) / 7.9 (Mixed)"									n=3	2022/7/12	2022/7/12
PRA000120	SAA008785	ST024				Shiga_sed1-123_2019	Sediment	"Lake sediment"	2019	11	27	"2019-11-27T09:30; T09:55; T10:25"			"Cloudy; Cloudy; Cloudy"	Asia	Japan	"Lake Biwa (center, offshore of Minamihira), Shiga"	35.18527778		135.9733333														"13.5; 14.5l 14.2"	"15.8; 15.6; 15.3"								"5.2; 5.4; 5.8"		"8.9; 8.4; 8.5"	"60.9; 53.8; 49.3"	"Muddy; Muddy, Muddy"	"Grayish black; Grayish black; Grayish black"	"Greenish blue_Dark; Greenish blue_Dark; Greenish blue_Dark"	"Swampy odor; Swampy odor; Swampy odor"		"70.5; 68.9; 69.3 (Each) / 79.6 (Mixed)"	"11.0; 10.7; 10.8 (Each) / 10.9 (Mixed)"									"n=3 pooled: SAA008685; SAA008686; SAA008687"	2022/7/12	2022/7/12
PRA000120	SAA008786	ST024				Shiga_sed2-123_2019	Sediment	"Lake sediment"	2019	11	19	"2019-11-19T09:50; T10:30; T11:10"			"Fair; Fair; Fair"	Asia	Japan	"Lake Biwa (center, offshore of Karasaki), Shiga"	35.04611111		135.8955556														"18.7; 18.9; 18.6"	"15.2; 16.6; 15.2"								"3.0; 2.8; 2.7"		"16.0; 15.5; 15.0"	"3.8; 4.3; 4.0"	"Muddy; Muddy, Muddy"	"Grayish black; Grayish black; Grayish black"	"Yellow green; Yellow green; Yellow green"	"Swampy odor; Swampy odor; Swampy odor"	"Aquatic plants; Aquatic plants; Aquatic plants"	"65.6; 66.2; 63.6 (Each) / 74.1 (Mixed)"	"10.2; 10.8; 10.3 (Each) / 10.2 (Mixed)"									"n=3 pooled: SAA008688; SAA008689; SAA008690"	2022/7/12	2022/7/12
PRA000120	SAA008787	ST023				Kyoto_sed1-123_2019	Sediment	"Marine sediment"	2020	1	8	"2020-01-08T10:15; T10:35; T11:05"			"Cloudy; Cloudy; Cloudy"	Asia	Japan	"Miyazu Port, Kyoto"	35.58305556		135.2138889														"16.9; 17.0; 17.4"	"13.9; 13.9; 13.9"								"6.0; 6.0; 6.0"		"12.6; 13.0; 12.9"	"11.5; 23.1; 22.5"	"Muddy; Muddy, Muddy"	"Grayish black; Grayish black; Grayish black"	"Clear; Clear; Clear"	"Seaweed odor; Seaweed odor; Seaweed odor"	"None; None; None"	"26.9; 37.7; 42.2 (Each) / 45.9 (Mixed)"	"2.9; 11.9; 9.1 (Each) / 5.9 (Mixed)"									"n=3 pooled: SAA008691; SAA008692; SAA008693"	2022/7/12	2022/7/12
PRA000120	SAA008788	ST024				KyotoCity_sed1-456_2019	Sediment	"River sediment"	2019	11	28	"2019-11-28T10:20; T10:35; T10:45"			"Cloudy; Cloudy; Cloudy"	Asia	Japan	"Miyamae-bashi Bridge, Riv. Katsura (Kyoto City), Kyoto"	34.905		135.7125														"10.0; 10.0; 10.0"	"15.2; 15.2; 15.2"										"14.0; 14.0; 14.2"	"0.8; 0.8; 0.8"	"Sandy; Sandy; Sandy"	"Grayish brown; Grayish brown; Grayish brown"	"Clear; Clear; Clear"	"Odorless; Odorless; Odorless"	"None; None; None"	"19.7; 21.4; 17.4 (Each) / 20.7 (Mixed)"	"1.1; 1.2; 1.1 (Each) / 1.0 (Mixed)"									n=3	2022/7/12	2022/7/12
PRA000120	SAA008789	ST024				Osaka_sed1-123_2019	Sediment	"River sediment"	2019	12	5	"2019-12-05T13:00; T11:55; T12:30"			"Fair; Fair; Fair"	Asia	Japan	"Mouth of Riv. Yamato (Sakai City), Osaka"	34.60833333		135.4325														"12.4; 12.0; 12.2"	"13.0; 12.8; 12.8"								"1.8; 1.5; 1.3"		"15.3; 12.5; 13.9"	"2.3; 1.6; 1.6"	"Silt; Silt mixed with sand; Silt mixed with sand"	"Black; Grayish olive; Olive black"	"Yellow_Light; Yellow_Light; Yellow_Light"	"Fishy smell; Fishy smell; Fishy smell"	"Vegetative pieces; Vegetative pieces; Vegetative pieces"	"50.9; 31.8; 38.3 (Each) / 54.2 (Mixed)"	"13.6; 3.9; 7.4 (Each) / 7.9 (Mixed)"									"n=3 pooled: SAA008697; SAA008698; SAA008699"	2022/7/12	2022/7/12
PRA000120	SAA008790	ST023				OsakaCity_sed1-123_2019	Sediment	"Marine sediment"	2019	12	3	"2019-12-03T08:54; T08:11; T09:16"			"Fair; Fair; Fair"	Asia	Japan	"Osaka Port, Osaka"	34.65861111		135.4313889														"10.9; 10.2; 12.1"	"15.6; 13.8; 16.0"								"2.9; 3.5; 3.4"		"16.4; 16.5; 17.2"	"12.2; 11.7; 12.6"	"Silt; Silt; Silt"	"Black; Black; Black"	"Grayish yellow_Light; Grayish yellow_Light; Grayish yellow_Light"	"Hydrogen sulfide odor; Hydrogen sulfide odor; Hydrogen sulfide odor"	"None; None; None"	"54.3; 52.7; 60.6 (Each) / 66.9 (Mixed)"	"10.1; 9.4; 10.7 (Each) / 9.5 (Mixed)"									"n=3 pooled: SAA008703; SAA008704; SAA008705"	2022/7/12	2022/7/12
PRA000120	SAA008791	ST023				OsakaCity_sed4-123_2019	Sediment	"Marine sediment"	2019	12	3	"2019-12-03T09:48; T10:10; T10:32"			"Fair; Fair; Fair"	Asia	Japan	"Outside of Osaka Port, Osaka"	34.64027778		135.3858333														"13.4; 15.0; 12.4"	"17.7; 17.4; 16.9"								"3.5; 3.4; 3.4"		"16.1; 16.5; 17.5"	"15.2; 11.9; 12.6"	"Silt; Silt; Silt"	"Grayish black; Grayish black; Grayish black"	"Grayish yellow_Light; Grayish yellow_Light; Grayish yellow_Light"	"Hydrogen sulfide odor_Faint; Putrid odor; Putrid odor"	"None; None; None"	"53.8; 43.9; 39.1 (Each) / 60.0 (Mixed)"	"9.2; 6.0; 5.3 (Each) / 7.0 (Mixed)"									n=3	2022/7/12	2022/7/12
PRA000120	SAA008792	ST024				OsakaCity_sed3-123_2019	Sediment	"River sediment"	2019	12	3	"2019-12-03T11:02; T11:27; T11:44"			"Fair; Fair; Cloudy"	Asia	Japan	"Mouth of Riv. Yodo, Osaka"	34.67638889		135.3975														"13.8; 14.0; 13.4"	"17.9; 17.2; 17.2"								"2.3; 3.4; 2.5"		"16.6; 17.2; 17.1"	"6.4; 5.2; 4.0"	"Silt; Silt; Silt"	"Grayish black; Grayish black; Grayish black"	"Grayish yellow_Light; Grayish yellow_Light; Grayish yellow_Light"	"Putrid odor; Oily odor; Oily odor"	"Vegetative pieces; Vegetative pieces; Vegetative pieces"	"38.5; 37.4; 44.3 (Each) / 56.9 (Mixed)"	"7.9; 7.4; 9.9 (Each) / 9.6 (Mixed)"									n=3	2022/7/12	2022/7/12
PRA000120	SAA008793	ST024				OsakaCity_sed2-123_2019	Sediment	"River sediment"	2019	11	28	"2019-11-28T09:35; T11:20; T10:45"			"Cloudy; Cloudy; Cloudy"	Asia	Japan	"Kema-bashi Bridge, Riv. Oh (Osaka City), Osaka"	34.71776		135.51961														"10.8; 11.5; 11.6"	"14.4; 14.3; 14.0"										"13.0; 13.4; 13.5"	"3.0; 2.0; 3.5"	"Silt; Silt; Silt"	"Gray; Gray; Gray"	"Grayish yellow_Light; Grayish yellow_Light; Grayish yellow_Light"	"Sewage odor_Faint; Sewage odor_Faint; Sewage odor_Faint"	"Shellfish; Shellfish; Shellfish"	"45.2; 53.1; 44.6 (Each) / 59.4 (Mixed)"	"7.6; 10.2; 8.9 (Each) / 9.2 (Mixed)"									"n=3 pooled: SAA008700; SAA008701; SAA008702"	2022/7/12	2022/7/12
PRA000120	SAA008794	ST023				Hyogo_sed1-123_2019	Sediment	"Marine sediment"	2019	11	13	"2019-11-13T11:00; T11:15; T11:35"			"Fair; Fair; Fair"	Asia	Japan	"Offshore of Himeji, Hyogo"	34.76194444		134.6697222														"17.4; 17.4; 17.4"	"19.9; 19.9; 20.0"								"8.0; 8.0; 8.0"		"20.0; 20.0; 20.0"	"9.0; 10.0; 11.0"	"Silt; Silt; Silt"	"Grayish brown; Grayish brown; Grayish brown"	"Dark green; Dark green; Dark green"	"Hydrogen sulfide odor; Hydrogen sulfide odor;  Hydrogen sulfide odor"	"None; None; None"	"(each) / 70.7 (Mixed)"	"(Each) / 9.8 (Mixed)"									"n=3 pooled: including SAA008706"	2022/7/12	2022/7/12
PRA000120	SAA008795	ST023				Hyogo_sed2-123_2019	Sediment	"Marine sediment"	2019	12	10	"2019-12-10T09:53; T10:32; T10:48"			"Fair; Fair; Fair"	Asia	Japan	"Center of Kobe Port, Hyogo"	34.66444444		135.1944444														"45.2; 15.0; 15.1"	"14.3; 14.7; 14.5"								"6.6; 10.0; 9.1"		"15.0; 15.0; 15.0"	"10.9; 10.6; 12.8"	"Silt; Silt; Silt"	"Greenish brown; Greenish brown; Greenish brown"	"Green brown; Green brown; Green brown"	"Hydrogen sulfide odor; Hydrogen sulfide odor; Hydrogen sulfide odor"	"Pebbles; Seashells, Pebbles; - "	"55.5; 51.8; 56.4 (Each) / 62.1 (Mixed)"	"9.5; 11.5; 9.0 (Each) / 8.8 (Mixed)"									"n=3 pooled: SAA008707; SAA008708; SAA008709"	2022/7/12	2022/7/12
PRA000120	SAA008796	ST024				Nara_sed1_123_2019	Sediment	"River sediment"	2019	12	5	"2019-12-05T10:30; T10:45; T11:00"			"Fair; Fair; Fair"	Asia	Japan	"Taisho-bashi Bridge, Riv. Yamato (Oji town), Nara"	34.58583333		135.6833333														"13.0; 13.0; 13.0"	"11.0; 11.0; 11.0"										"11.0; 11.0; 11.0"	"0.3; 0.3; 0.3"	"Sandy; Sandy; Sandy"	"Brown; Brown; Brown"	"Grayish yellow green_Light; Grayish yellow green_Light; Grayish yellow green_Light"	"Sewage odor_Faint; Sewage odor_Faint; Sewage odor_Faint"	"None; None; None"	"24.0; 22.0; 22.0 (Each) / 19.8 (Mixed)"	"0.9; 0.5; 0.5 (Each) / 0.6 (Mixed)"									"n=3 pooled: SAA008710; SAA008711; SAA008712"	2022/7/12	2022/7/12
PRA000120	SAA008797	ST024				Wakayama_w1-456_2019	Sediment	"River sediment"	2019	10	31	"2019-10-31T12:45; T13:30; T13:10"			"Fair; Fair; Fair"	Asia	Japan	"Kinokawa-ohashi Bridge, Mouth of Riv. Kinokawa (Wakayama City), Wakayama"	34.23		135.1561111														"25.1; 20.9; 21.8"	"19.8; 19.2; 19.2"								"1.5; 1.5; 1.5"		"23.1; 23.1; 23.2"	"3.5; 3.5; 5.5"	"Sandy; Sandy; Sandy"	"Gray; Brown; Brown"	"Green; Green; Green"	"Seaweed odor; Seaweed odor; Seaweed odor"	"Shellfish; None; None"	"24.8; 18.6; 22.7 (Each) / 29.0 (Mixed)"	"5.1; 3.2; 4.5 (Each) / 3.5 (Mixed)"									n=3	2022/7/12	2022/7/12
PRA000120	SAA008798	ST023				Okayama_sed1-123_2019	Sediment	"Marine sediment"	2019	10	23	"2019-10-23T10:50; T11:25; T11:55"			"Fair; Fair; Fair"	Asia	Japan	"Offshore of Mizushima, Okayama"	34.48055556		133.665														"23.6; 24.0; 23.5"	"22.0; 22.5; 22.0"								"1.5; 2.0; 2.0"		"24.0; 24.5; 23.8"	"7.6; 9.1; 7.8"	"Ooze; Ooze; Ooze"	"Grayish green; Grayish green; Grayish green"	"Yellow green_Dark; Yellow green_Dark; Yellow green_Dark"	"Earthy odor; Earthy odor; Earthy odor"	"Small pieces of seashell; Small pieces of seashell; Small pieces of seashell"	"49.3; 45.2; 47.8 (Each) / 44.8 (Mixed)"	"5.9; 5.5; 5.9 (Each) / 5.3 (Mixed)"									"n=3 pooled: SAA008716; SAA008717; SAA008718"	2022/7/12	2022/7/12
PRA000120	SAA008799	ST023				Hiroshima_sed1-123_2019	Sediment	"Marine sediment"	2019	11	13	"2019-11-13T09:58; T10:18; T10:27"			"Fair; Fair; Fair"	Asia	Japan	"Kure Port, Hiroshima"	34.23361111		132.5391667														"17.2; 17.7; 17.4"	"20.7; 21.0; 20.7"								"7.0; 6.5; 7.0"		"20.6; 20.9; 20.9"	"21.0; 20.0; 20.0"	"Silt; Silt; Silt"	"Gray_Dark; Gray_Dark; Gray_Dark"	"Blue green_Dark; Blue green_Dark; Blue green_Dark"	"Hydrogen sulfide odor_Faint; Hydrogen sulfide odor_Faint; Odorless"	"None; None; None"	"59.9; 62.5; 60.4 (Each) / 70.2 (Mixed)"	"10.0; 10.1; 8.4 (Each) / 10.4 (Mixed)"									n=3	2022/7/12	2022/7/12
PRA000120	SAA008800	ST023				Hiroshima_sed2-123_2019	Sediment	"Marine sediment"	2019	11	13	"2019-11-13T12:23; T12:48; T12:56"			"Fair; Fair; Fair"	Asia	Japan	"Hiroshima Bay (Hiroshima City), Hiroshima"	34.34833333		132.4225														"18.2; 18.8; 19.2"	"21.0; 21.1; 20.9"								"5.0; 4.0; 4.5"		"21.8; 21.5; 21.4"	"15.0; 12.0; 14.0"	"Silt; Silt; Silt"	"Grayish green_Dark; Grayish green_Dark; Grayish green_Dark"	"Blue green_Dark; Blue green_Dark; Blue green_Dark"	"Odorless; Odorless; Odorless"	"None; None; None"	"58.6; 57.4; 60.0 (Each) / 68.4 (Mixed)"	"9.5; 10.0; 10.0 (Each) / 10.5 (Mixed)"									n=3	2022/7/12	2022/7/12
PRA000120	SAA008801	ST023				Yamaguchi_sed1-123_2019	Sediment	"Marine sediment"	2019	11	12	"2019-11-12T12:25; T12:33; T12:43"			"Fair; Fair; Fair"	Asia	Japan	"Tokuyama Bay, Yamaguchi"	33.99361111		131.7505556														"20.0; 20.0; 20.0"	"22.4; 22.4; 22.4"								"7.0; 7.0; 7.0"		"20.0; 20.0; 20.0"	"23.0; 23.0; 23.0"	"Silt; Silt; Silt"	"Grayish yellow green; Grayish yellow green; Grayish yellow green"	"Blue green; Blue green; Blue green"	"Hydrogen sulfide odor; Hydrogen sulfide odor;  Hydrogen sulfide odor"	"None; None; None"	"62.5; 58.6; 57.1 (Each) / 67.7 (Mixed)"	"10.4; 10.6; 9.7 (Each) / 8.5 (Mixed)"									n=3	2022/7/12	2022/7/12
PRA000120	SAA008802	ST023				Yamaguchi_sed2-123_2019	Sediment	"Marine sediment"	2019	11	13	"2019-11-13T11:30; T11:40; T11:51"			"Fair; Fair; Fair"	Asia	Japan	"Offshore of Ube, Yamaguchi"	33.915		131.1975														"20.9; 20.9; 20.9"	"20.1; 20.1; 20.1"								"4.0; 4.0; 4.0"		"19.5; 19.5; 19.5"	"9.8; 9.8; 9.8"	"Silt; Silt; Silt"	"Grayish green; Grayish green; Grayish green"	"Grayish green; Grayish green; Grayish green"	"Odorless; Odorless; Odorless"	"None; None; None"	"39.3; 31.2; 31.3 (Each) / 42.8 (Mixed)"	"6.3; 5.6; 5.8 (Each) / 5.4 (Mixed)"									n=3	2022/7/12	2022/7/12
PRA000120	SAA008803	ST023				Yamaguchi_sed3-123_2019	Sediment	"Marine sediment"	2019	11	22	"2019-11-22T11:10; T11:17; T11:25"			"Cloudy; Cloudy; Cloudy"	Asia	Japan	"Offshore of Hagi, Yamaguchi"	34.43805556		131.3794444														"14.5; 14.5; 14.5"	"19.5; 19.5; 19.5"								"15.0; 15.0; 15.0"		"17.0; 17.0; 17.0"	"26.4; 26.4; 26.4"	"Fine sand; Fine sand; Fine sand"	"Light gray; Light gray; Light gray"	"Blue green; Blue green; Blue green"	"Odorless; Odorless; Odorless"	"None; None; None"	"31.3; 28.7; 28.1 (Each) / 30.9 (Mixed)"	"6.3; 6.0; 6.0 (Each) / 4.1 (Mixed)"									n=3	2022/7/12	2022/7/12
PRA000120	SAA008804	ST024				Tokushima_sed1-123_2018	Sediment	"River sediment"	2019	11	12	"2019-11-12T10:55; T10:25; T11:30"			"Fair; Fair; Fair"	Asia	Japan	"Mouth of Riv. Yoshino (Tokushima City), Tokushima"	34.085		134.5913889														"21.0; 21.5; 22.0"	"18.8; 18.8; 19.0"								"3.2; 3.4; 3.8"		"18.3; 18.8; 18.6"	"3.7; 4.5; 5.6"	"Sandy; Sandy; Sandy"	"Blackish gray; Blackish gray; Blackish gray"	"Green; Greenish blue; Greenish blue"	"Odorless; Odorless; Odorless"	"None; None; None"	"21.0; 21.0; 18.0 (Each) / 20.7 (Mixed)"	"1.3; 1.2; 0.9 (Each) / 1.0 (Mixed)"									n=3	2022/7/12	2022/7/12
PRA000120	SAA008805	ST023				Kagawa_sed1-123_2019	Sediment	"Marine sediment"	2019	11	26	"2019-11-26T09:07; T09:14; T09:25"			"Cloudy; Cloudy; Cloudy"	Asia	Japan	"Takamatsu Port, Kagawa"	34.34972222		134.0788889														"13.5; 13.4; 12.8"	"15.9; 16.4; 16.0"								"1.1; 1.0; 2.2"		"17.0; 16.8; 17.2"	"2.6; 5.2; 5.3"	"Muddy; Sandy; Muddy"	"Black; Black; Black"	"Blue green; Blue green; Blue green"	"Hydrogen sulfide odor, Pine essential oil odor; Hydrogen sulfide odor_Faint; Hydrogen sulfide odor_Faint"	"Seashells (Unknown type), Vegetative pieces (Lawn; Fallen leaves, etc),  Vinyl pieces; Seashells (Unknown type), Vegetative pieces (Lawn; Fallen leaves, etc), Vinyl pieces; None"	"63.8; 28.5; 69.7 (Each) / 51.9 (Mixed)"	"15.5; 2.6; 16.1 (Each) / 6.5 (Mixed)"									"n=3 pooled: SAA008721; SAA008722; SAA008723"	2022/7/12	2022/7/12
PRA000120	SAA008806	ST023				Ehime_sed1-123_2019	Sediment	"Marine sediment"	2019	10	28	"2019-10-28T10:14; T10:24; T10:34"			"Fair; Fair; Fair"	Asia	Japan	"Niihama Port, Ehime"	33.98777778		133.3144444														"22.5; 22.5; 22.5"	"21.5; 21.5; 21.5"								"3.5; 3.5; 3.5"		"23.0; 23.0; 23.0"	"6.7; 6.7; 6.7"	"Fine sand; Fine sand; Fine sand"	"Grayish green_Dark; Grayish green_Dark; Grayish green_Dark"	"Dark yellow green; Dark yellow green; Dark yellow green"	"Odorless; Odorless; Odorless"	"None; None; None"	"29.9; 29.4; 30.0 (Each) / 21.7 (Mixed)"	"1.5; 1.5; 1.5 (Each) / 1.4 (Mixed)"									n=3	2022/7/12	2022/7/12
PRA000120	SAA008807	ST024				Kochi_sed1-123_2019	Sediment	"River sediment"	2019	10	15	"2019-10-15T09:45; T11:00; T12:20"			"Fair; Fair; Fair"	Asia	Japan	"Mouth of Riv. Shimanto (Shimanto City), Kochi"	32.93777778		132.8441667														"26.8; 27.2; 26.4"	"22.2; 23.5; 25.0"										"25.0; 27.0; 25.5"	"5.2; 2.6; 0.5"	"Sandy; Muddy; Sandy"	"Gray; Blackish gray; Grayish brown"	"Clear; Clear; Clear"	"Odorless; Hydrogen sulfide odor; Odorless"	"None; None; None"	"23.5; 35.3; 19.0 (Each) / 28.2 (Mixed)"	"2.3; 6.3; 2.3 (Each) / 2.8 (Mixed)"									n=3	2022/7/12	2022/7/12
PRA000120	SAA008808	ST023				KitakyushuCity_sed1-123_2019	Sediment	"Marine sediment"	2019	11	25	"2019-11-25T09:50; T10:35; T10:20"			"Cloudy; Cloudy; Cloudy"	Asia	Japan	"Dokai Bay (Kitakyushu City), Fukuoka"	33.90388889		130.8158333														"19.3; 19.3; 19.3"	"17.8; 17.9; 18.0"								"4.5; 4.5; 4.5"		"18.3; 18.2; 18.1"	"11.5; 11.3; 9.8"	"Mud; Mud; Mud"	"Black; Black; Black"	"Clear; Clear; Clear"	"Odorless; Odorless; Odorless"	"None; None; None"	"42.2; 46.0; 57.1 (Each) / 45.3 (Mixed)"	"8.0; 6.7; 11.2 (Each) / 7.8 (Mixed)"									"n=3 pooled: SAA008724; SAA008725; SAA008726"	2022/7/12	2022/7/12
PRA000120	SAA008809	ST023				FukuokaCity_sed1-123_2019	Sediment	"Marine sediment"	2019	12	5	"2019-12-05T08:55; T09:25; T09:40"			"Cloudy; Cloudy; Cloudy"	Asia	Japan	"Hakata Bay, Fukuoka"	33.60833333		130.3297222														"13.5; 14.1; 14.4"	"14.0; 14.0; 14.0"								"2.5; 3.0; 3.0"		"14.5; 14.0; 14.5"	"7.7; 7.4; 8.4"	"Silt; Silt; Silt"	"Gray; Gray; Gray"	"Green_Dark; Green_Dark; Green_Dark"	"Odorless; Odorless; Odorless"	"None; None; None"	"42.0; 42.0; 42.0 (Each) / 53.3 (Mixed)"	"9.0; 8.8; 8.9 (Each) / 9.2 (Mixed)"									"n=3 pooled: SAA008727; SAA008728; SAA008729"	2022/7/12	2022/7/12
PRA000120	SAA008810	ST023				Saga_sed1-123_2019	Sediment	"Marine sediment"	2019	11	29	"2019-11-29T11:00; T11:56; T12:10"			"Fair; Fair; Fair"	Asia	Japan	"Imari Bay, Saga"	33.34		129.8208333														"13.0; 13.0; 13.0"	"16.5; 16.5; 16.5"								"2.5; 2.5; 2.5"		"17.0; 17.0; 17.0"	"15.2; 15.5; 16.2"	"Muddy; Muddy; Muddy"	"Grayish black; Grayish black; Grayish black"	"Clear; Clear; Clear"	"Earthy odor; Earthy odor; Earthy odor"	"None; None; None"	"66.5; 66.4; 68.7 (Each) / 65.2 (Mixed)"	"11.8; 11.6; 12.6 (Each) / 9.6 (Mixed)"									"n=3 pooled: SAA008730; SAA008731; SAA008732"	2022/7/12	2022/7/12
PRA000120	SAA008811	ST023				Nagasaki_sed1-123_2019	Sediment	"Marine sediment"	2019	10	29	"2019-10-29T10:55; T11:17; T11:45"			"Fair; Fair; Fair"	Asia	Japan	"Omura Bay, Nagasaki"	32.98833333		129.8522222														"23.0; 22.9; 21.8"	"22.6; 22.7; 22.5"								"7.6; 7.7; 7.7"		"23.9; 23.5; 22.0"	"19.8; 19.7; 20.1"	"Silt; Silt; Silt"	"Grayish brown; Grayish brown; Grayish brown"	"Blue green_Light; Blue green_Light; Blue green_Light"	"Odorless; Hydrogen sulfide odor_Faint; Hydrogen sulfide odor_Faint"	"Small pieces of shell; Small pieces of shell; Small pieces of shell"	"55.8; 55.4; 54.2 (Each) / 66.3 (Mixed)"	"12.6; 12.5; 12.2 (Each) / 12.1 (Mixed)"									n=3	2022/7/12	2022/7/12
PRA000120	SAA008812	ST024				Oita_sed1-123_2019	Sediment	"River sediment"	2019	11	21	"2019-11-21T11:45; T11:05; T09:57"			"Fair; Fair; Fair"	Asia	Japan	"Mouth of Riv. Oita, Oita"	33.25722222		131.6175														"14.5; 13.4; 12.9"	"16.5; 14.7; 13.8"										"19.5; 19.8; 18.2"	"1.5; 2.9; 2.7"	"Muddy, sandy; Muddy, sandy; Sandy"	"Black; Black; Black"	"Gray green_Dark; Gray green_Dark; Gray green_Dark"	"Hydrogen sulfide odor, sewage odor; Hydrogen sulfide odor, sewage odor; Sewage odor"	"Seashell pieces, pieces of wood; Seashell pieces, seashells, gravels, pieces of wood;  Gravels, pieces of wood"	"17.9; 17.3; 20.6 (Each) / 22.4 (Mixed)"	"1.4; 1.6; 1.8 (Each) / 1.4 (Mixed)"									"n=3 pooled: SAA008733; SAA008734; SAA008735"	2022/7/12	2022/7/12
PRA000120	SAA008813	ST024				Miyazaki_sed1-123_2019	Sediment	"River sediment"	2019	10	15	"2019-10-15T12:03; T12:14; T12:27"			"Fair; Fair; Fair"	Asia	Japan	"Mouth of Riv. Oyodo (Miyazaki City), Miyazaki"	31.89611111		131.4402778														"25.5; 24.5; 21.0"	"23.0; 23.0; 22.0"										"23.0; 22.5; 22.5"	"0.3; 0.4; 0.8"	"Pebble, Sand; Pebble, Sand; Pebble, Sand "	"Grayish black_Light; Grayish black_Light; Grayish black_Light"	"Clear; Clear; Clear"	"Odorless; Odorless; Odorless"	"None; Shellfish; None"	"17.1; 22.2; 21.2 (Each) / 20.6 (Mixed)"	"1.2; 1.1; 1.2 (Each) / 1.1 (Mixed)"									n=3	2022/7/12	2022/7/12
PRA000120	SAA008814	ST024				Kagoshima_sed1-123_2019	Sediment	"River sediment"	2019	11	13	"2019-11-13T11:44; T10:52; T10:22"			"Cloudy; Cloudy; Cloudy"	Asia	Japan	"Riv. Amori (Kirishima City), Kagoshima"	31.7225		130.7416667														"18.5; 21.3; 20.2"	"18.5; 17.8; 18.2"										"18.1; 20.2; 21.2"	"0.3; 0.5; 0.5"	"Sandy gravel; Sandy gravel; Sandy gravel"	"Blackish brown; Blackish brown; Blackish brown"	"Clear; Clear; Clear"	"Sewage odor_Faint; Earthy odor_Faint; Odorless"	"Pebbles; Pebbles; Pebbles"	"31.0; 21.0; 20.0 (Each) / 29.5 (Mixed)"	"2.3; 0.8; 1.0 (Each) / 1.4 (Mixed)"									n=3	2022/7/12	2022/7/12
PRA000120	SAA008815	ST024				Kagoshima_sed2-123_2019	Sediment	"River sediment"	2019	11	11	"2019-11-11T11:47; T11:15; T10:45"			"Fair; Fair; Fair"	Asia	Japan	"Gotanda-bashi Bridge, Riv. Gotanda (Ichikikushikino City), Kagoshima"	31.72583333		130.2769444														"21.5; 20.5; 21.3"	"18.2; 17.0; 16.4"										"18.1; 17.0; 16.0"	"0.2; 0.3; 0.3"	"Sandy gravel; Sandy gravel; Sandy gravel"	"Dark brown; Dark brown; Dark brown"	"Clear; Clear; Clear"	"Earthy odor_Faint; Earthy odor_Faint; Earthy odor_Faint"	"Pebbles; Pebbles; Pebbles"	"18.0; 19.0; 25.0 (Each) / 25.5 (Mixed)"	"1.4; 1.5; 2.6 (Each) / 1.8 (Mixed)"									n=3	2022/7/12	2022/7/12
PRA000120	SAA008816	ST023				Okinawa_sed1-123_2019	Sediment	"Marine sediment"	2020	1	10	"2020-01-10T11:40; T11:00; T12:20"			"Cloudy; Cloudy; Cloudy"	Asia	Japan	"Naha Port, Okinawa"	26.21222222		127.665														"22.4; 22.1; 21.3"	"22.5; 21.9; 20.9"								"1.5; 2.0; 5.4"		"22.6; 22.2; 21.4"	"7.1; 7.1; 5.4"	"Sludge; Sludge; Sludge"	"Grayish black; Grayish black; Grayish black"	"Clear; Clear; Clear"	"Hydrogen sulfide odor, Sewage odor; Hydrogen sulfide odor, Sewage odor; Hydrogen sulfide odor, Sewage odor"	"Pebbles, twigs; Pieces of plastic; Leaves"	"43.8; 36.0; 38.8 (Each) / 50.5 (Mixed)"	"9.6; 9.6; 9.9 (Each) / 9.1 (Mixed)"									n=3	2022/7/12	2022/7/12
PRA000123	SAA009257	ST024				Sendai_sed1_1_2020	Sediment	"River sediment"	2020	11	10	2020-11-10T10:20			Fair	Asia	Japan	"Hirose-ohashi Bridge, Riv. Hirose (Sendai City), Miyagi"	38.21333333		140.9088889														7.0	10.2										11	0.15	Sand	"Grayish black"	Clear	"Swampy odor"	None	20.5	1.1										2022/12/8	2022/12/8
PRA000123	SAA009258	ST024				Sendai_sed1_2_2020	Sediment	"River sediment"	2020	11	10	2020-11-10T10:00			Fair	Asia	Japan	"Hirose-ohashi Bridge, Riv. Hirose (Sendai City), Miyagi"	38.21333333		140.9088889														7.0	10.2										11	0.26	Sand	"Grayish black"	Clear	"Swampy odor"	None	23.8	1.1										2022/12/8	2022/12/8
PRA000123	SAA009259	ST024				Sendai_sed1_3_2020	Sediment	"River sediment"	2020	11	10	2020-11-10T09:50			Fair	Asia	Japan	"Hirose-ohashi Bridge, Riv. Hirose (Sendai City), Miyagi"	38.21333333		140.9088889														7.0	10.2										12	0.47	Sand	"Grayish black"	Clear	"Strong_Swampy odor"	None	20.9	1.3										2022/12/8	2022/12/8
PRA000123	SAA009260	ST024				Akita_sed1-1_2020	Sediment	"River sediment"	2020	10	20	2020-10-20T11:43			Fair	Asia	Japan	"Akita Canal (Akita City), Akita"	39.75083333		140.0586111														20.2	18.7								3.4		21.5	11.4	Mud	"Grayish black"	"Yellow green_Dark"	Odorless	None	65.5	12.0										2022/12/8	2022/12/8
PRA000123	SAA009261	ST024				Akita_sed1-2_2020	Sediment	"River sediment"	2020	10	20	2020-10-20T11:17			Fair	Asia	Japan	"Akita Canal (Akita City), Akita"	39.75083333		140.0586111														19.0	16.6								2.9		21.3	11.7	Mud	"Grayish black"	"Yellow green_Dark"	Odorless	None	47.0	6.4										2022/12/8	2022/12/8
PRA000123	SAA009262	ST024				Akita_sed1-3_2020	Sediment	"River sediment"	2020	10	20	2020-10-20T12:04			Fair	Asia	Japan	"Akita Canal (Akita City), Akita"	39.75083333		140.0586111														19.7	16.8								1.6		21.1	10.0	Mud	"Grayish black"	"Yellow green_Dark"	Odorless	None	64.8	12.6										2022/12/8	2022/12/8
PRA000123	SAA009263	ST024				Ibaraki_sed1-1_2020	Sediment	"River sediment"	2020	11	12	2020-11-12T09:45			Cloudy	Asia	Japan	"Kamome-ohasi Bridge, Mouth of Riv. Tone (Kamisu City), Ibaraki"	35.77638889		140.7569444														13.0	15.0								0.7			1.4	Mud	Black	Yellow_Light	Odorless		37.0	7.1										2022/12/8	2022/12/8
PRA000123	SAA009264	ST024				Ibaraki_sed1-2_2020	Sediment	"River sediment"	2020	11	12	2020-11-12T10:10			Cloudy	Asia	Japan	"Kamome-ohasi Bridge, Mouth of Riv. Tone (Kamisu City), Ibaraki"	35.77638889		140.7569444														14.0	15.0								1.5			7.5	Mud	Black	Yellow_Light	Odorless		49.0	9.5										2022/12/8	2022/12/8
PRA000123	SAA009265	ST024				Ibaraki_sed1-3_2020	Sediment	"River sediment"	2020	11	12	2020-11-12T11:20			Cloudy	Asia	Japan	"Kamome-ohasi Bridge, Mouth of Riv. Tone (Kamisu City), Ibaraki"	35.77638889		140.7569444														14.0	14.5								1.2			1.3	Sandy	Black	Yellow_Light	Odorless	None	24.0	1.1										2022/12/8	2022/12/8
PRA000123	SAA009266	ST024				Tokyo_sed1-1_2020	Sediment	"River sediment"	2020	11	20	2020-11-20T09:50			Cloudy	Asia	Japan	"Mouth of Riv. Arakawa (Koto Ward), Tokyo"	35.64583333		139.8463889														22.8	18.4								1.0		18.7	4.4	"Silt mixed with fine sand"	"Olive black"	"Greenish brown"	"Hydrogen sulfide odor_Faint"	Shell	44.1	8.8										2022/12/8	2022/12/8
PRA000123	SAA009267	ST024				Tokyo_sed1-2_2020	Sediment	"River sediment"	2020	11	20	2020-11-20T10:33			Cloudy	Asia	Japan	"Mouth of Riv. Arakawa (Koto Ward), Tokyo"	35.64583333		139.8463889														23.1	18.4								1.2		18.7	3.6	"Silt mixed with fine sand"	"Olive black"	"Greenish brown"	"Hydrogen sulfide odor_Faint"	Shell	37.9	7.4										2022/12/8	2022/12/8
PRA000123	SAA009268	ST024				Tokyo_sed1-3_2020	Sediment	"River sediment"	2020	11	20	2020-11-20T10:54			Cloudy	Asia	Japan	"Mouth of Riv. Arakawa (Koto Ward), Tokyo"	35.64583333		139.8463889														22.8	18.9								1.3		18.7	2.7	"Silt mixed with fine sand"	"Olive black"	"Greenish brown"	"Hydrogen sulfide odor_Faint"	Shell	42.0	7.2										2022/12/8	2022/12/8
PRA000123	SAA009269	ST024				Tokyo_sed2-1_2020	Sediment	"River sediment"	2020	11	20	2020-11-20T11:50			Cloudy	Asia	Japan	"Mouth of Riv. Sumida (Minato Ward), Tokyo"	35.66		139.7705556														22.5	19.2								4.1		19.6	5.2	Silt	Black	"Dark green"	"Hydrogen sulfide odor_Strong"	"Shell, Fallen leaves"	52.0	12.0										2022/12/8	2022/12/8
PRA000123	SAA009270	ST024				Tokyo_sed2-2_2020	Sediment	"River sediment"	2020	11	20	2020-11-20T12:32			Cloudy	Asia	Japan	"Mouth of Riv. Sumida (Minato Ward), Tokyo"	35.66		139.7705556														23.6	19.2								4.0		19.7	5.1	Silt	Black	"Dark green"	"Hydrogen sulfide odor_Strong"	"Shell, Vinyl pieces"	56.2	11.9										2022/12/8	2022/12/8
PRA000123	SAA009271	ST024				Tokyo_sed2-3_2020	Sediment	"River sediment"	2020	11	20	2020-11-20T12:53			Cloudy	Asia	Japan	"Mouth of Riv. Sumida (Minato Ward), Tokyo"	35.66		139.7705556														23.7	19.1								4.0		19.7	4.5	Silt	Black	"Dark green"	"Hydrogen sulfide odor_Strong"	None	53.5	10.4										2022/12/8	2022/12/8
PRA000123	SAA009272	ST023				Yokohama_sed1-1_2020	Sediment	"Marine sediment"	2020	11	18	2020-11-18T10:04			Fair	Asia	Japan	"Yokohama Port, Kanagawa"	35.45555556		139.6636111														17.5	19.2								4.0		19.1	12.5	Mud	"Blackish brown"	Clear	"Hydrogen sulfide odor"	None	66.0	9.6										2022/12/8	2022/12/8
PRA000123	SAA009273	ST023				Yokohama_sed1-2_2020	Sediment	"Marine sediment"	2020	11	18	2020-11-18T11:03			Fair	Asia	Japan	"Yokohama Port, Kanagawa"	35.45555556		139.6636111														17.8	18.2								5.0		17.0	13.0	Mud	"Blackish brown"	Clear	"Hydrogen sulfide odor"	None	79.1	13.1										2022/12/8	2022/12/8
PRA000123	SAA009274	ST023				Yokohama_sed1-3_2020	Sediment	"Marine sediment"	2020	11	18	2020-11-18T09:52			Fair	Asia	Japan	"Yokohama Port, Kanagawa"	35.45555556		139.6636111														17.0	17.4								4.0		20.0	12.0	Mud	"Blackish brown"	Clear	"Hydrogen sulfide odor"	None	70.3	11.1										2022/12/8	2022/12/8
PRA000123	SAA009275	ST024				Niigata_sed1-1_2020	Sediment	"River sediment"	2020	12	3	2020-12-03T09:20			Rain	Asia	Japan	"Downstream of Riv. Shinano (Niigata City), Niigata"	37.88305556		139.0155556														7.2	9.0										9.0	3.2	Mud	Brown	Green	"Earthy odor"	Leaves	29.0	2.4										2022/12/8	2022/12/8
PRA000123	SAA009276	ST024				Niigata_sed1-2_2020	Sediment	"River sediment"	2020	12	3	2020-12-03T09:45			Rain	Asia	Japan	"Downstream of Riv. Shinano (Niigata City), Niigata"	37.88305556		139.0155556														7.2	9.0										9.0	4.8	Sand	Brown	Green	Odorless	Twigs	23.9	1.3										2022/12/8	2022/12/8
PRA000123	SAA009277	ST024				Niigata_sed1-3_2020	Sediment	"River sediment"	2020	12	3	2020-12-03T10:00			Rain	Asia	Japan	"Downstream of Riv. Shinano (Niigata City), Niigata"	37.88305556		139.0155556														7.2	9.0										9.0	4.8	Sand	Brown	Green	Odorless	Pebbles	21.0	1.0										2022/12/8	2022/12/8
PRA000123	SAA009278	ST024				Ishikawa_sed1-1_2020	Sediment	"River sediment"	2020	11	6	2020-11-06T10:44			Cloudy	Asia	Japan	"Mouth of Riv. Sai (Kanazawa City), Ishikawa"	36.60027778		136.5888889														17.1	12.8											3.2	Silt	"Blackish brown"	"Yellow green"	"Fish rotten odor_Strong"	"Pebbles, Shell"	31.0	4.3										2022/12/8	2022/12/8
PRA000123	SAA009279	ST024				Ishikawa_sed1-2_2020	Sediment	"River sediment"	2020	11	6	2020-11-06T12:33			Cloudy	Asia	Japan	"Mouth of Riv. Sai (Kanazawa City), Ishikawa"	36.60027778		136.5888889														18.7	13.2											1.6	"Silt mixed with sand"	"Grayish brown"	Green	"Fish rotten odor_Faint"	Pebbles	25.0	1.7										2022/12/8	2022/12/8
PRA000123	SAA009280	ST024				Ishikawa_sed1-3_2020	Sediment	"River sediment"	2020	11	6	2020-11-06T13:38			Cloudy	Asia	Japan	"Mouth of Riv. Sai (Kanazawa City), Ishikawa"	36.60027778		136.5888889														19.0	12.7											0.6	Sand	"Grayish brown"	Green	"Fish rotten odor_Faint"	Pebbles	24.6	1.8										2022/12/8	2022/12/8
PRA000123	SAA009281	ST024				Fukui_sed1-1_2020	Sediment	"River sediment"	2020	10	22	2020-10-22T10:00			Cloudy	Asia	Japan	"Mishima-bashi Bridge, Riv. Shono (Tsuruga City), Fukui"	35.6475		136.0627778														19.5	17.0										17.0	0.2	Sandy	Brown	Clear	Odorless	Stones	19.6	1.8										2022/12/8	2022/12/8
PRA000123	SAA009282	ST024				Fukui_sed1-2_2020	Sediment	"River sediment"	2020	10	22	2020-10-22T10:00			Cloudy	Asia	Japan	"Mishima-bashi Bridge, Riv. Shono (Tsuruga City), Fukui"	35.6475		136.0627778														19.5	17.0										17.0	0.2	Sandy	Brown	Clear	Odorless	Stones	20.8	1.8										2022/12/8	2022/12/8
PRA000123	SAA009283	ST024				Fukui_sed1-3_2020	Sediment	"River sediment"	2020	10	22	2020-10-22T10:00			Cloudy	Asia	Japan	"Mishima-bashi Bridge, Riv. Shono (Tsuruga City), Fukui"	35.6475		136.0627778														19.5	17.0										17.0	0.2	Sandy	Brown	Clear	Odorless	Stones	20.2	1.4										2022/12/8	2022/12/8
PRA000123	SAA009284	ST024				Nagano_sed1-1_2020	Sediment	"Lake sediment"	2020	10	19	2020-10-19T10:16			Cloudy	Asia	Japan	"Center of Lake Suwa, Nagano"	36.05		138.0861111														11.4	14.1								0.9		13.6	6.0	Mud	"Blackish brown"	"Yellow green_Light"	"Swampy odor"	None	78.2	14.0										2022/12/8	2022/12/8
PRA000123	SAA009285	ST024				Nagano_sed1-2_2020	Sediment	"Lake sediment"	2020	10	19	2020-10-19T11:13			Cloudy	Asia	Japan	"Center of Lake Suwa, Nagano"	36.05		138.0861111														11.7	14.0								1.3		14.0	6.0	Mud	"Blackish brown"	"Yellow green_Light"	"Swampy odor"	None	78.5	14.2										2022/12/8	2022/12/8
PRA000123	SAA009286	ST024				Nagano_sed1-3_2020	Sediment	"Lake sediment"	2020	10	19	2020-10-19T10:16			Cloudy	Asia	Japan	"Center of Lake Suwa, Nagano"	36.05		138.0861111														11.3	14.2								1.3		13.6	6.0	Mud	"Blackish brown"	"Yellow green_Light"	"Swampy odor"	None	78.8	14.4										2022/12/8	2022/12/8
PRA000123	SAA009287	ST023				Shizuoka_sed1-1_2020	Sediment	"Marine sediment"	2020	10	22	2020-10-22T10:25			Cloudy	Asia	Japan	"Shimizu Port, Shizuoka"	35.02416667		138.5161111														21.3	20.1								3.0		21.0	23.9	"Sand mixed with clay"	"Grayish green_Dark"	Clear	Odorless	"Shellfish, pieces of wood"	23.9	19.6										2022/12/8	2022/12/8
PRA000123	SAA009288	ST023				Shizuoka_sed1-2_2020	Sediment	"Marine sediment"	2020	10	22	2020-10-22T11:15			Fair	Asia	Japan	"Shimizu Port, Shizuoka"	35.02416667		138.5161111														25.9	20.7								3.2		22.0	20.3	"Sand mixed with clay"	"Grayish green_Dark"	Clear	Odorless	"Shellfish, pieces of wood"	23.7	12.3										2022/12/8	2022/12/8
PRA000123	SAA009289	ST023				Shizuoka_sed1-3_2020	Sediment	"Marine sediment"	2020	10	22	2020-10-22T11:32			Fair	Asia	Japan	"Shimizu Port, Shizuoka"	35.02416667		138.5161111														25.0	20.0								3.5		22.0	17.6	"Sand mixed with clay"	"Grayish green_Dark"	Clear	Odorless	"Shellfish, pieces of wood"	28.0	10.6										2022/12/8	2022/12/8
PRA000123	SAA009290	ST024				Shizuoka_sed6-1_2020	Sediment	"River sediment"	2020	11	12	2020-11-12T11:00			Fair	Asia	Japan	"Kaketsuka-bashi Bridge, Riv. Tenryu (Iwata City), Shizuoka"	34.67888889		137.7958333														21.7	13.5										17.0	0.45	Sand	"Grayish brown_Dark"	White_Light	Odorless	Pebbles	21.1	1.4										2022/12/8	2022/12/8
PRA000123	SAA009291	ST024				Shizuoka_sed6-2_2020	Sediment	"River sediment"	2020	11	12	2020-11-12T12:05			Fair	Asia	Japan	"Kaketsuka-bashi Bridge, Riv. Tenryu (Iwata City), Shizuoka"	34.67888889		137.7958333														23.0	15.0										13.8	0.45	Sand	"Grayish brown_Dark"	White_Light	Odorless	Pebbles	21.2	1.4										2022/12/8	2022/12/8
PRA000123	SAA009292	ST024				Shizuoka_sed6-3_2020	Sediment	"River sediment"	2020	11	12	2020-11-12T12:37			Fair	Asia	Japan	"Kaketsuka-bashi Bridge, Riv. Tenryu (Iwata City), Shizuoka"	34.67888889		137.7958333														20.0	14.8										14.8	0.45	Sand	"Grayish brown_Dark"	White_Light	Odorless	Pebbles	17.8	1.7										2022/12/8	2022/12/8
PRA000123	SAA009293	ST023				Aichi_sed1-1_2020	Sediment	"Marine sediment"	2020	11	10	2020-11-10T13:38			Fair	Asia	Japan	"Nagoya Port, West of Shiomi Wharf, Aichi"	35.07111111		136.8691667														14.4	20.0								2.5		21.0	12.7	Mud	"Grayish green"	Clear	"Hydrogen sulfide odor"	None	52.9	30.0										2022/12/8	2022/12/8
PRA000123	SAA009294	ST023				Aichi_sed1-2_2020	Sediment	"Marine sediment"	2020	11	10	2020-11-10T13:43			Fair	Asia	Japan	"Nagoya Port, West of Shiomi Wharf, Aichi"	35.07111111		136.8691667														14.4	20.0								2.5		21.0	12.7	Mud	"Grayish green"	Clear	"Hydrogen sulfide odor"	None	43.9	42.6										2022/12/8	2022/12/8
PRA000123	SAA009295	ST023				Aichi_sed1-3_2020	Sediment	"Marine sediment"	2020	11	10	2020-11-10T13:48			Fair	Asia	Japan	"Nagoya Port, West of Shiomi Wharf, Aichi"	35.07111111		136.8691667														14.4	20.0								2.5		21.0	12.7	Mud	"Grayish green"	Clear	"Hydrogen sulfide odor"	None	50.5	33.8										2022/12/8	2022/12/8
PRA000123	SAA009296	ST024				NagoyaCity_sed1-1_2020	Sediment	"River sediment"	2020	10	29	2020-10-29T11:15			Fair	Asia	Japan	"Minatoshinbashi Bridge, Riv. Hori (Nagoya City), Aichi"	35.09805556		136.8925														19.0	21.8								2.1			5.5	Sludge	Black	Brown	"Sewage odor"	Shell												2022/12/8	2022/12/8
PRA000123	SAA009297	ST024				NagoyaCity_sed1-2_2020	Sediment	"River sediment"	2020	10	29	2020-10-29T11:15			Fair	Asia	Japan	"Minatoshinbashi Bridge, Riv. Hori (Nagoya City), Aichi"	35.09805556		136.8925														19.0	21.8								2.1			5.5	Sludge	Black	Brown	"Sewage odor"	Shell												2022/12/8	2022/12/8
PRA000123	SAA009298	ST024				NagoyaCity_sed1-3_2020	Sediment	"River sediment"	2020	10	29	2020-10-29T11:15			Fair	Asia	Japan	"Minatoshinbashi Bridge, Riv. Hori (Nagoya City), Aichi"	35.09805556		136.8925														19.0	21.8								2.1			5.5	Sludge	Black	Brown	"Sewage odor"	Shell												2022/12/8	2022/12/8
PRA000123	SAA009299	ST023				Mie_sed1-1_2020	Sediment	"Marine sediment"	2020	10	28	2020-10-28T10:15			Cloudy	Asia	Japan	"Yokkaichi Port, Mie"	34.94944444		136.6530556														18.1	18.5								1.5		21.2	7.3	Mud	"Grayish black"	"Greenish brown"	"Hydrogen sulfide odor_Faint"	Shell	57.9	6.7										2022/12/8	2022/12/8
PRA000123	SAA009300	ST023				Mie_sed1-2_2020	Sediment	"Marine sediment"	2020	10	28	2020-10-28T10:15			Cloudy	Asia	Japan	"Yokkaichi Port, Mie"	34.94944444		136.6530556														19.1	19.0								1.5		21.3	10.1	Mud	"Grayish black"	"Greenish brown"	"Hydrogen sulfide odor_Faint"	Shell	69.4	8.4										2022/12/8	2022/12/8
PRA000123	SAA009301	ST023				Mie_sed1-3_2020	Sediment	"Marine sediment"	2020	10	28	2020-10-28T10:15			Cloudy	Asia	Japan	"Yokkaichi Port, Mie"	34.94944444		136.6530556														20.2	19.0								1.2		21.5	5.7	Mud	"Grayish black"	"Greenish brown"	"Hydrogen sulfide odor_Faint"	Shell	43.1	4.0										2022/12/8	2022/12/8
PRA000123	SAA009302	ST023				Mie_sed2-1_2020	Sediment	"Marine sediment"	2020	10	20	2020-10-20T10:55			Fair	Asia	Japan	"Toba Port, Mie"	34.48083333		136.8486111														20.1	21.7								2.0		21.1	7.0	Mud	"Grayish brown"	"Yellow green"	"Swampy odor_Faint"	"Shell, pieces of wood"	57.0	9.9										2022/12/8	2022/12/8
PRA000123	SAA009303	ST023				Mie_sed2-2_2020	Sediment	"Marine sediment"	2020	10	20	2020-10-20T11:30			Fair	Asia	Japan	"Toba Port, Mie"	34.48083333		136.8486111														20.6	21.8								2.5		22.0	6.0	Mud	"Grayish brown"	"Yellow green"	"Swampy odor_Faint"	"Shell, pieces of wood"	52.0	7.9										2022/12/8	2022/12/8
PRA000123	SAA009304	ST023				Mie_sed2-3_2020	Sediment	"Marine sediment"	2020	10	20	2020-10-20T11:40			Fair	Asia	Japan	"Toba Port, Mie"	34.48083333		136.8486111														22.9	21.7								2.5		22.0	6.4	Mud	"Grayish brown"	"Yellow green"	"Swampy odor_Faint"	"Shell, pieces of wood"	49.2	6.7										2022/12/8	2022/12/8
PRA000123	SAA009305	ST024				KyotoCity_sed1-1_2020	Sediment	"River sediment"	2020	10	28	2020-10-28T10:20			Cloudy	Asia	Japan	"Miyamae-bashi Bridge, Riv. Katsura (Kyoto City), Kyoto"	34.905		135.7125														17.5	18.5										18.0	0.8	Sand	"Grayish brown"	Clear	Odorless	None	14.6	1.2										2022/12/8	2022/12/8
PRA000123	SAA009306	ST024				KyotoCity_sed1-2_2020	Sediment	"River sediment"	2020	10	28	2020-10-28T10:35			Cloudy	Asia	Japan	"Miyamae-bashi Bridge, Riv. Katsura (Kyoto City), Kyoto"	34.905		135.7125														17.5	18.5										18.0	0.8	Sand	"Grayish brown"	Clear	Odorless	None	16.5	1.0										2022/12/8	2022/12/8
PRA000123	SAA009307	ST024				KyotoCity_sed1-3_2020	Sediment	"River sediment"	2020	10	28	2020-10-28T10:45			Cloudy	Asia	Japan	"Miyamae-bashi Bridge, Riv. Katsura (Kyoto City), Kyoto"	34.905		135.7125														17.5	18.5										18.0	0.8	Sand	"Grayish brown"	Clear	Odorless	None	15.9	1.3										2022/12/8	2022/12/8
PRA000123	SAA009308	ST024				Osaka_sed1-1_2020	Sediment	"River sediment"	2020	11	25	2020-11-25T10:15			Cloudy	Asia	Japan	"Mouth of Riv. Yamato (Sakai City), Osaka"	34.60833333		135.4325														13.8	16.5								1.3		17.6	1.3	"Silt mixed with sand"	"Dark olive gray"	Yellow_Light	"Sewage odor"	"Vegetative pieces"	29.8	3.0										2022/12/8	2022/12/8
PRA000123	SAA009309	ST024				Osaka_sed1-2_2020	Sediment	"River sediment"	2020	11	25	2020-11-25T11:03			Cloudy	Asia	Japan	"Mouth of Riv. Yamato (Sakai City), Osaka"	34.60833333		135.4325														13.9	16.7								1.5		19.7	1.5	"Silt mixed with sand"	"Olive black"	Yellow_Light	"Fishy smell"	"Vegetative pieces"	33.4	4.7										2022/12/8	2022/12/8
PRA000123	SAA009310	ST024				Osaka_sed1-3_2020	Sediment	"River sediment"	2020	11	25	2020-11-25T11:32			Cloudy	Asia	Japan	"Mouth of Riv. Yamato (Sakai City), Osaka"	34.60833333		135.4325														14.0	16.7								1.6		19.2	1.6	Silt	"Olive black"	Yellow_Light	"Fishy smell"	"Vegetative pieces"	50.8	10.1										2022/12/8	2022/12/8
PRA000123	SAA009311	ST024				OsakaCity_sed2-1_2020	Sediment	"River sediment"	2020	10	28	2020-10-28T09:32			Fair	Asia	Japan	"Kema-bashi Bridge, Riv. Oh (Osaka City), Osaka"	34.71776		135.51961														17.0	17.6										17.1	2.2	Silt	"Grayish yellow"	"Grayish yellow_Light"	Odorless	Shellfish	49.1	8.7										2022/12/8	2022/12/8
PRA000123	SAA009312	ST024				OsakaCity_sed2-2_2020	Sediment	"River sediment"	2020	10	28	2020-10-28T11:08			Fair	Asia	Japan	"Kema-bashi Bridge, Riv. Oh (Osaka City), Osaka"	34.71776		135.51961														19.0	17.7										17.7	1.6	Silt	"Grayish yellow"	"Grayish yellow_Light"	"Sewage odor_Faint"	Shellfish	45.0	7.9										2022/12/8	2022/12/8
PRA000123	SAA009313	ST024				OsakaCity_sed2-3_2020	Sediment	"River sediment"	2020	10	28	2020-10-28T10:28			Fair	Asia	Japan	"Kema-bashi Bridge, Riv. Oh (Osaka City), Osaka"	34.71776		135.51961														18.6	17.7										18.0	2.9	Silt	"Grayish yellow"	"Grayish yellow_Light"	"Sewage odor_Faint"	Shellfish	48.7	8.1										2022/12/8	2022/12/8
PRA000123	SAA009314	ST023				OsakaCity_sed1-1_2020	Sediment	"Marine sediment"	2020	10	27	2020-10-27T08:34			Fair	Asia	Japan	"Osaka Port, Osaka"	34.65861111		135.4313889														15.4	19.0								2.8		22.6	12.0	Silt	Black	"Grayish yellow_Light"	"Hydrogen sulfide odor_Faint"	None	58.3	10.3										2022/12/8	2022/12/8
PRA000123	SAA009315	ST023				OsakaCity_sed1-2_2020	Sediment	"Marine sediment"	2020	10	27	2020-10-27T08:06			Fair	Asia	Japan	"Osaka Port, Osaka"	34.65861111		135.4313889														17.0	19.0								2.7		21.0	12.6	Silt	Black	"Grayish yellow_Light"	"Hydrogen sulfide odor_Faint"	Shellfish	57.5	9.5										2022/12/8	2022/12/8
PRA000123	SAA009316	ST023				OsakaCity_sed1-3_2020	Sediment	"Marine sediment"	2020	10	27	2020-10-27T08:45			Fair	Asia	Japan	"Osaka Port, Osaka"	34.65861111		135.4313889														17.0	20.0								2.9		22.3	12.9	Silt	Black	"Grayish yellow_Light"	"Hydrogen sulfide odor_Faint"	None	56.2	9.1										2022/12/8	2022/12/8
PRA000123	SAA009317	ST023				Hyogo_sed2-1_2020	Sediment	"Marine sediment"	2020	11	17	2020-11-17T09:50			Fair	Asia	Japan	"Center of Kobe Port, Hyogo"	34.66444444		135.1944444														19.0	18.5								5.7		14.7	9.6	Silt	"Greenish brown"	"Greenish brown"	"Hydrogen sulfide odor"	Pebbles	51.4	9.2										2022/12/8	2022/12/8
PRA000123	SAA009318	ST023				Hyogo_sed2-2_2020	Sediment	"Marine sediment"	2020	11	17	2020-11-17T10:35			Fair	Asia	Japan	"Center of Kobe Port, Hyogo"	34.66444444		135.1944444														20.5	18.4								5.1		18.3	9.4	Silt	"Greenish brown"	"Greenish brown"	"Hydrogen sulfide odor"	"Shell, pebbles"	43.1	7.8										2022/12/8	2022/12/8
PRA000123	SAA009319	ST023				Hyogo_sed2-3_2020	Sediment	"Marine sediment"	2020	11	17	2020-11-17T10:50			Fair	Asia	Japan	"Center of Kobe Port, Hyogo"	34.66444444		135.1944444														21.8	18.5								5.6		18.7	12.5	Silt	"Greenish brown"	"Greenish brown"	"Hydrogen sulfide odor"	None	54.0	9.5										2022/12/8	2022/12/8
PRA000123	SAA009320	ST024				Nara_sed1_1_2020	Sediment	"River sediment"	2020	10	21	2020-10-21T10:30			Fair	Asia	Japan	"Taisho-bashi Bridge, Riv. Yamato (Oji town), Nara"	34.58583333		135.6833333														18.5	18.5										18.5	0.3	Sand	Gray	"Grayish yellow green_Light"	"Fishy smell"	None	22.0	0.9										2022/12/8	2022/12/8
PRA000123	SAA009321	ST024				Nara_sed1_2_2020	Sediment	"River sediment"	2020	10	21	2020-10-21T11:10			Fair	Asia	Japan	"Taisho-bashi Bridge, Riv. Yamato (Oji town), Nara"	34.58583333		135.6833333														18.5	19.5										19.5	0.3	Sand	Gray	"Grayish yellow green_Light"	"Fishy smell"	None	25.0	0.9										2022/12/8	2022/12/8
PRA000123	SAA009322	ST024				Nara_sed1_3_2020	Sediment	"River sediment"	2020	10	21	2020-10-21T10:50			Fair	Asia	Japan	"Taisho-bashi Bridge, Riv. Yamato (Oji town), Nara"	34.58583333		135.6833333														18.5	19.7										19.7	0.3	Sand	"Dark brown"	"Grayish yellow green_Light"	"Fishy smell"	None	26.0	0.5										2022/12/8	2022/12/8
PRA000123	SAA009323	ST023				Okayama_sed1-1_2020	Sediment	"Marine sediment"	2020	10	26	2020-10-26T11:20			Fair	Asia	Japan	"Offshore of Mizushima, Okayama"	34.48055556		133.665														22.5	21.5								3.0		21.4	9.8	Ooze	"Grayish green"	"Yellow green_Dark"	"Earthy odor"	"Seashell pieces"	44.9	5.7										2022/12/8	2022/12/8
PRA000123	SAA009324	ST023				Okayama_sed1-2_2020	Sediment	"Marine sediment"	2020	10	26	2020-10-26T11:30			Fair	Asia	Japan	"Offshore of Mizushima, Okayama"	34.48055556		133.665														24.5	22.0								3.5		21.0	9.7	Ooze	"Grayish green"	"Yellow green_Dark"	"Earthy odor"	"Seashell pieces"	45.9	5.4										2022/12/8	2022/12/8
PRA000123	SAA009325	ST023				Okayama_sed1-3_2020	Sediment	"Marine sediment"	2020	10	26	2020-10-26T11:50			Fair	Asia	Japan	"Offshore of Mizushima, Okayama"	34.48055556		133.665														24.8	21.5								2.8		21.3	8.5	Ooze	"Grayish green"	"Yellow green_Dark"	"Earthy odor"	"Seashell pieces"	49.0	6.5										2022/12/8	2022/12/8
PRA000123	SAA009326	ST023				Yamaguchi_sed1-1_2020	Sediment	"Marine sediment"	2020	10	26	2020-10-26T10:40			Fair	Asia	Japan	"Tokuyama Bay, Yamaguchi"	33.99361111		131.7505556														23.0	23.0								4.5		21.0	19.2	Silt	"Grayish yellow green"	"Bluish green"	"Hydrogen sulfide odor_Faint"	None	51.7	10.8										2022/12/8	2022/12/8
PRA000123	SAA009327	ST023				Yamaguchi_sed1-2_2020	Sediment	"Marine sediment"	2020	10	26	2020-10-26T10:45			Fair	Asia	Japan	"Tokuyama Bay, Yamaguchi"	33.99361111		131.7505556														23.0	23.0								4.5		21.0	19.2	Silt	"Grayish yellow green"	"Bluish green"	"Hydrogen sulfide odor_Faint"	None	52.3	11.8										2022/12/8	2022/12/8
PRA000123	SAA009328	ST023				Yamaguchi_sed1-3_2020	Sediment	"Marine sediment"	2020	10	26	2020-10-26T10:50			Fair	Asia	Japan	"Tokuyama Bay, Yamaguchi"	33.99361111		131.7505556														23.0	23.0								4.5		21.0	19.2	Silt	"Grayish yellow green"	"Bluish green"	"Hydrogen sulfide odor_Faint"	None	51.2	11.8										2022/12/8	2022/12/8
PRA000123	SAA009329	ST023				Yamaguchi_sed3-1_2020	Sediment	"Marine sediment"	2020	11	13	2020-11-13T11:20			Fair	Asia	Japan	"Offshore of Hagi, Yamaguchi"	34.43805556		131.3794444														19.0	20.0								15.0		19.0	28.0	"Fine sand"	"Light gray"	"Bluish green"	Odorless	None	30.0	6.2										2022/12/8	2022/12/8
PRA000123	SAA009330	ST023				Yamaguchi_sed3-2_2020	Sediment	"Marine sediment"	2020	11	13	2020-11-13T11:25			Fair	Asia	Japan	"Offshore of Hagi, Yamaguchi"	34.43805556		131.3794444														19.0	20.0								15.0		19.0	28.0	"Fine sand"	"Light gray"	"Bluish green"	Odorless	None	29.8	6.2										2022/12/8	2022/12/8
PRA000123	SAA009331	ST023				Yamaguchi_sed3-3_2020	Sediment	"Marine sediment"	2020	11	13	2020-11-13T11:30			Fair	Asia	Japan	"Offshore of Hagi, Yamaguchi"	34.43805556		131.3794444														19.0	20.0								15.0		19.0	28.0	"Fine sand"	"Light gray"	"Bluish green"	Odorless	None	29.8	6.1										2022/12/8	2022/12/8
PRA000123	SAA009332	ST023				Kagawa_sed1-1_2020	Sediment	"Marine sediment"	2020	10	27	2020-10-27T09:10			Fair	Asia	Japan	"Takamatsu Port, Kagawa"	34.34972222		134.0788889														17.3	20.6								1.0		21.3	2.6	Mud	Black	"Greenish blue"	"Hydrogen sulfide odor"	"Vegetative pieces, Shell"	72.4	21.7										2022/12/8	2022/12/8
PRA000123	SAA009333	ST023				Kagawa_sed1-2_2020	Sediment	"Marine sediment"	2020	10	27	2020-10-27T09:20			Fair	Asia	Japan	"Takamatsu Port, Kagawa"	34.34972222		134.0788889														15.4	21.3								1.0		21.3	6.0	Sand	Black	"Greenish white"	"Hydrogen sulfide odor_Faint"	"Vegetative pieces, Vinyl pieces"	30.4	2.5										2022/12/08	2022/12/08
PRA000123	SAA009334	ST023				Kagawa_sed1-3_2020	Sediment	"Marine sediment"	2020	10	27	2020-10-27T09:30			Fair	Asia	Japan	"Takamatsu Port, Kagawa"	34.34972222		134.0788889														17.3	20.5								2.0		21.0	5.8	"Sand and mud"	Black	"Greenish blue"	"Hydrogen sulfide odor"	None	67.1	15.5										2022/12/08	2022/12/08
PRA000123	SAA009335	ST024				Ehime_sed2-1_2020	Sediment	"River sediment"	2020	10	29	2020-10-29T11:15			Fair	Asia	Japan	"Mishima, Riv. Iwamatsu, Uwajima Ciy, Ehime"	33.12777778		132.5355556														23.8	21.0										21.5	0.01	"Fine sand"	"Grayish brown_Mid"	Clear	Odorless	"Stones; pieces of wood"	21.7	3.7										2022/12/8	2022/12/8
PRA000123	SAA009336	ST024				Ehime_sed2-2_2020	Sediment	"River sediment"	2020	10	29	2020-10-29T11:25			Fair	Asia	Japan	"Mishima, Riv. Iwamatsu, Uwajima Ciy, Ehime"	33.12777778		132.5355556														23.8	21.0										21.5	0.01	"Fine sand"	"Grayish brown_Mid"	Clear	Odorless		24.9	4.4										2022/12/8	2022/12/8
PRA000123	SAA009337	ST024				Ehime_sed2-3_2020	Sediment	"River sediment"	2020	10	29	2020-10-29T11:35			Fair	Asia	Japan	"Mishima, Riv. Iwamatsu, Uwajima Ciy, Ehime"	33.12777778		132.5355556														23.8	21.0										21.5	0.01	"Fine sand"	"Grayish brown_Mid"	Clear	Odorless		23.8	4.0										2022/12/8	2022/12/8
PRA000123	SAA009338	ST023				KitakyushuCity_sed1-1_2020	Sediment	"Marine sediment"	2020	11	18	2020-11-18T09:35			Fair	Asia	Japan	"Dokai Bay (Kitakyushu City), Fukuoka"	33.90388889		130.8158333														19.0	18.0								3.5		19.0	10.3	Mud	"Grayish black"	Clear	"Earthy odor_Faint"		46.6	7.8										2022/12/8	2022/12/8
PRA000123	SAA009339	ST023				KitakyushuCity_sed1-2_2020	Sediment	"Marine sediment"	2020	11	18	2020-11-18T10:00			Fair	Asia	Japan	"Dokai Bay (Kitakyushu City), Fukuoka"	33.90388889		130.8158333														19.0	18.0								3.5		19.5	11.4	Mud	"Grayish black"	Clear	"Earthy odor_Faint"		46.3	8.2										2022/12/8	2022/12/8
PRA000123	SAA009340	ST023				KitakyushuCity_sed1-3_2020	Sediment	"Marine sediment"	2020	11	18	2020-11-18T10:20			Fair	Asia	Japan	"Dokai Bay (Kitakyushu City), Fukuoka"	33.90388889		130.8158333														19.0	18.5								3.5		19.0	7.0	Mud	"Grayish black"	Clear	"Earthy odor_Faint"		57.3	11.6										2022/12/8	2022/12/8
PRA000123	SAA009341	ST023				FukuokaCity_sed1-1_2020	Sediment	"Marine sediment"	2020	10	20	2020-10-20T08:47			Fair	Asia	Japan	"Hakata Bay, Fukuoka"	33.60833333		130.3297222														19.5	21.5								1.9		21.0	7.4	Silt	"Grayish yellow green_Dark"	Green_Dark	Odorless	None	44.0	9.5										2022/12/8	2022/12/8
PRA000123	SAA009342	ST023				FukuokaCity_sed1-2_2020	Sediment	"Marine sediment"	2020	10	20	2020-10-20T09:44			Fair	Asia	Japan	"Hakata Bay, Fukuoka"	33.60833333		130.3297222														19.8	21.2								2.0		20.0	8.0	Silt	"Grayish yellow green_Dark"	Green_Dark	Odorless	None	42.0	9.5										2022/12/8	2022/12/8
PRA000123	SAA009343	ST023				FukuokaCity_sed1-3_2020	Sediment	"Marine sediment"	2020	10	20	2020-10-20T10:05			Fair	Asia	Japan	"Hakata Bay, Fukuoka"	33.60833333		130.3297222														20.0	21.5								2.0		20.0	8.4	Silt	"Grayish yellow green_Dark"	"Yellow green_Dark"	Odorless	None	49.0	10.0										2022/12/8	2022/12/8
PRA000123	SAA009344	ST023				Saga_sed1-1_2020	Sediment	"Marine sediment"	2020	10	28	2020-10-28T11:26			Cloudy	Asia	Japan	"Imari Bay, Saga"	33.34		129.8208333														25.0	22.0								3.3		21.5	15.5	Mud	"Grayish black"	Clear	"Earthy odor"	None	68.3	11.2										2022/12/8	2022/12/8
PRA000123	SAA009345	ST023				Saga_sed1-2_2020	Sediment	"Marine sediment"	2020	10	28	2020-10-28T11:53			Cloudy	Asia	Japan	"Imari Bay, Saga"	33.34		129.8208333														22.0	21.5								3.5		21.5	14.5	Mud	"Grayish black"	Clear	"Earthy odor"	None	67.3	11.5										2022/12/8	2022/12/8
PRA000123	SAA009346	ST023				Saga_sed1-3_2020	Sediment	"Marine sediment"	2020	10	28	2020-10-28T12:03			Cloudy	Asia	Japan	"Imari Bay, Saga"	33.34		129.8208333														21.5	22.0								3.5		21.0	14.4	Mud	"Grayish black"	Clear	"Earthy odor"	None	66.3	11.0										2022/12/8	2022/12/8
PRA000123	SAA009347	ST024				Oita_sed1-1_2020	Sediment	"River sediment"	2020	10	26	2020-10-26T09:44			Fair	Asia	Japan	"Mouth of Riv. Oita, Oita"	33.25722222		131.6175														19.6	19.6										21.2	1.5	"Muddy sand"	Black	"Grayish green"	"Hydrogen sulfide odor"	"Shell, Gravels"	19.9	2.3										2022/12/8	2022/12/8
PRA000123	SAA009348	ST024				Oita_sed1-2_2020	Sediment	"River sediment"	2020	10	26	2020-10-26T10:30			Fair	Asia	Japan	"Mouth of Riv. Oita, Oita"	33.25722222		131.6175														20.1	19.8										22.7	3.2	Sand	Black	"Grayish green"	Odorless	"Shell, Gravels, pieces of wood"	18.9	1.6										2022/12/8	2022/12/8
PRA000123	SAA009349	ST024				Oita_sed1-3_2020	Sediment	"River sediment"	2020	10	26	2020-10-26T11:18			Fair	Asia	Japan	"Mouth of Riv. Oita, Oita"	33.25722222		131.6175														18.9	20.7										22.9	3.4	Sand	Black	"Grayish green"	"Smell of dry grass"	"Shell, Gravels, pieces of wood"	18.1	1.9										2022/12/08	2022/12/08
PRA000125	SAA009538	ST024				Hokkaido_sed2-123_2020	Sediment	"River sediment"	2020	11	24	"2020-11-24T11:00; T11:15; T11:30"			"Cloudy; Cloudy; Cloudy"	Asia	Japan	"Ishikarikakokyo Bridge, Mouth of Riv. Ishikari (Ishikari City), Hokkaido"	43.22861111		141.3519444														"2.7; 2.8; 2.9"	"4.8; 4.8; 4.8"										"5.0; 5.5; 5.0"			"Blackish brown; Brown; Blackish brown"	"Grayish brown; Grayish brown; Grayish brown"	"Odorless; Odorless; Odorless"		"53.8; 22.1; 42.9 (Each) / 49.0 (Mixed)"	"8.3; 1.5 5.7 (Each) / 5.7 (Mixed)"									"n=3 pooled"	2023/2/15	2023/2/15
PRA000125	SAA009539	ST023				Hokkaido_sed3-123_2020	Sediment	"Marine sediment"	2020	9	9	"2020-09-09T10:40; T10:50; T11:10"			"Fair; Fair; Fair"	Asia	Japan	"Tomakomai Port, Hokkaido"	42.63138889		141.6288889														"26.0; 26.1; 25.6"	"22.0; 22.0; 22.0"										"23.3; 22.2; 22.5"	"16; 16; 16"		"Black; Black; Black"	"Greenish blue; Greenish blue; Greenish blue"	"Hydrogen sulfide odor; Hydrogen sulfide odor; Hydrogen sulfide odor"		"50.8; 35.8; 34.1 (Each) / 47.2 (Mixed)"	"7.4; 3.8; 3.2 (Each) / 4.8 (Mixed)"									"n=3 pooled"	2023/2/15	2023/2/15
PRA000125	SAA009540	ST024				Iwate_sed1-123_2020	Sediment	"River sediment"	2020	11	4	"2020-11-04T11:25; T11:30; T11:40"			"Fair; Fair; Fair"	Asia	Japan	"Toyosawa-bashi Bridge, Riv. Toyosawa (Hanamaki City), Iwate"	39.38166667		141.1191667														"8.0; 8.8; 10.8"	"10.0; 10.8; 10.8"										"10.2; 10.0; 10.8"	"0.1; 0.1; 0.1"	"Sand mixed with pebbles; Sand mixed with pebbles; Sand mixed with pebbles"	"Brown_Light; Brown_Light; Brown_Light"	"Green_Light; Green_Light; Green_Light"	"Odorless; Odorless; Odorless"	"Vegetative pieces; Vegetative pieces; Vegetative pieces"	"20.5; 19.2; 24.0 (Each) / 22.8 (Mixed)"	"1.8; 1.6; 1.9 (Each) / 1.6 (Mixed)"									"n=3 pooled"	2023/2/15	2023/2/15
PRA000125	SAA009541	ST023				Miyagi_sed1_123_2020	Sediment	"Marine sediment"	2020	10	19	"2020-10-19T10:12; T10:58; T11:20"			"Cloudy; Cloudy; Cloudy"	Asia	Japan	"Sendai Bay (Matsushima Bay), Miyagi"	38.3533333		141.0975														"20.2; 19.7; 19.7"	"16.9; 16.6; 16.6"								"1.5; 1.5; 1.6"		"19.5; 17.7; 17.6"	"4.6; 4.8; 4.1"	"Mud; Mud; Mud"	"Grayish green; Grayish green; Grayish green"	"Clear; Clear; Clear"	"Seaweed odor_Faint; Seaweed odor_Faint; Seaweed odor_Faint"	"None; Stone; Shell"	"64.1; 62.5; 61.4 (Each) / 69.0 (Mixed)"	"13.8; 13.2; 12.7 (Each) / 9.7 (Mixed)"									"n=3 pooled"	2023/2/15	2023/2/15
PRA000125	SAA009542	ST024				Sendai_sed1_123_2020	Sediment	"River sediment"	2020	11	10	"2020-11-10T10:20; T10:00; T09:50"			Fair	Asia	Japan	"Hirose-ohashi Bridge, Riv. Hirose (Sendai City), Miyagi"	38.21333333		140.9088889														"7.0; 7.0; 7.0"	"10.2; 10.2; 10.2"										"11; 11; 12"	"0.15; 0.26; 0.47"	"Sand; Sand; Sand"	"Grayish black; Grayish black; Grayish black"	"Clear; Clear; Clear"	"Swampy odor; Swampy odor; Strong_Swampy odor"	"None; None; None"	"20.5; 23.8; 20.9 (Each) / 19.8 (Mixed)"	"1.1; 1.1; 1.3 (Each) / 1.0 (Mixed)"									"n=3 pooled:SAA009257, SAA009258, SAA009259"	2023/2/15	2023/2/15
PRA000125	SAA009543	ST024				Akita_sed2-123_2020	Sediment	"Lake sediment"	2020	9	29	"2020-09-29T11:27; T10:34; T11:55"			"Fair; Fair; Fair"	Asia	Japan	"Lake Hachiro, Akita"	39.92277778		139.9988889														"23.0; 21.9; 23.0"	"20.5; 20.3; 20.6"								"0.5; 0.5; 0.5"		"19.6; 19.9; 20.0"	"6; 7.4; 7.6"	"Mud; Mud; Mud"	"Grayish black; Grayish black; Grayish black"	"Greenish brown_Light; Greenish brown_Light; Greenish brown_Light"	"Earthy odor_Faint; Earthy odor_Faint; Earthy odor_Faint"	"None; None; None"	"78.2; 79.2; 78.4 (Each) / 75.7 (Mixed)"	"11.5; 12.4; 12.4 (Each) / 8.4 (Mixed)"									"n=3 pooled"	2023/2/15	2023/2/15
PRA000125	SAA009544	ST024				Yamagata_sed1-123_2020	Sediment	"River sediment"	2020	10	9	"2020-10-09T10:18; T10:13; T10:07"			"Fair; Fair; Fair"	Asia	Japan	"Mouth of Riv. Mogami (Sakata City), Yamagata"	38.88722222		139.8433333														"17.0; 17.0; 17.0"	"15.0; 15.0; 15.0"										"16.9; 16.9; 16.9"	"0.3; 0.3; 0.3"	"Fine sand; Fine sand; Fine sand"	"Grayish black; Grayish black; Grayish black"	"Yellow green_Light; Yellow green_Light; Yellow green_Light"	"Earthy odor; Earthy odor; Earthy odor"	"Vegetative pieces; Vegetative pieces; Vegetative pieces"	"33.5; 34.2; 31.5 (Each) / 33.9 (Mixed)"	"3.7; 4.5; 3.1 (Each) / 3.1 (Mixed)"									"n=3 pooled"	2023/2/15	2023/2/15
PRA000125	SAA009545	ST023				Fukushima_sed1-123_2020	Sediment	"Marine sediment"	2020	10	16	"2020-10-16T11:17; T11:48; T12:19"			"Cloudy; Cloudy; Cloudy"	Asia	Japan	"Onahama Port, Fukushima"	36.92472222		140.8752778														"16.0; 20.2; 21.5"	"19.0; 19.4; 19.6"								"2.6; 3.4; 4.2"		"17.3; 19.8; 19.8"	"14.4; 15.3; 15.5"	"Mud; Mud; Mud"	"Grayish green; Grayish green; Grayish green"	"Bluish green; Bluish green; Bluish green"	"Odorless; Seaweed odor_Faint; Seaweed odor_Faint"	"Pebbles; None; None"	"47.0; 49.0; 53.0 (Each) / 54.2 (Mixed)"	"8.7; 9.4; 9.5 (Each) / 8.2 (Mixed)"									"n=3 pooled"	2023/2/15	2023/2/15
PRA000125	SAA009546	ST024				Ibaraki_sed1-123_2020	Sediment	"River sediment"	2020	11	12	"2020-11-12T09:45; T10:10; T11:20"			"Cloudy; Cloudy; Cloudy"	Asia	Japan	"Kamome-ohasi Bridge, Mouth of Riv. Tone (Kamisu City), Ibaraki"	35.77638889		140.7569444														"13.0; 14.0; 14.0"	"15.0; 15.0; 14.5"								"0.7; 1.5; 1.2"			"1.4; 7.5; 1.3"	"Mud; Mud; Sandy"	"Black; Black; Black"	"Yellow_Light; Yellow_Light; Yellow_Light"	"Odorless; Odorless; Odorless"	"Little; Little; None"	"37.0; 49.0; 24.0 (Each) / 48.4 (Mixed)"	"7.1; 9.5; 1.1 (Each) / 5.7 (Mixed)"									"n=3 pooled: SAA009263, SAA009264, SAA009265"	2023/2/15	2023/2/15
PRA000125	SAA009547	ST024				Tochigi_sed1-123_2020	Sediment	"River sediment"	2020	10	27	"2020-10-27T09:25; T11:37; T12:05"			"Fair; Fair; Fair"	Asia	Japan	"Tagawa area-Toshuko Weir (Utsunomiya City), Tochigi"	36.52805556		139.8855556														"17.0; 17.5; 17.7"	"15.0; 16.0; 16.3"										"13.5; 13.0; 13.2"	"0.6; 0.65; 0.65"	"Gravel;Gravel; Sand"	"Brown; Brown; Brown"	"Clear; Clear; Clear"	"Odorless; Odorless; Odorless"		"/ 21.9 (Mixed)"	" / 1.0 (Mixed)"									"n=3 pooled"	2023/2/15	2023/2/15
PRA000125	SAA009548	ST023				Chiba_sed1-123_2020	Sediment	"Marine sediment"	2020	10	27	"2020-10-27T10:10; T11:00; T11:13"			"Cloudy; Cloudy; Cloudy"	Asia	Japan	"Ichihara-Anesaki Coast, Chiba"	35.52166667		140.0283333														"17.4; 20.4; 20.2"	"19.1; 19.1; 19.1"								"4.7; 4.9; 4.3"		"20.2; 19.8; 19.9"	"18.5; 18.9; 18.8"	"Silt; Silt; Silt"	"Black; Black; Black"	"Dark green; Dark green; Dark green"	"Hydrogen sulfide odor_Strong; Hydrogen sulfide odor_Strong; Hydrogen sulfide odor_Strong"	"Seashell pieces; Seashell pieces; Seashell pieces"	"72.8; 72.6; 69.8 (Each) / 80.4 (Mixed)"	"14.6; 14.3; 13.3 (Each) / 11.4 (Mixed)"									"n=3 pooled"	2023/2/15	2023/2/15
PRA000125	SAA009549	ST024				ChibaCity_sed1-123_2020	Sediment	"River sediment"	2020	11	10	"2020-11-10T11:10; T11:44; T12:15"			"Fair; Fair; Fair"	Asia	Japan	"Mouth of Riv. Hanami (Chiba City), Chiba"	35.63472222		140.0469444														"12.0; 14.0; 13.0"	"17.5; 19.5; 20.5"										"15.0; 18.5; 18.5"	"2; 1.7; 1.8"	"Mud; Mud; Mud"	"Grayish black; Grayish black; Grayish black"	"Clear; Clear; Clear"	"Seaweed odor; Seaweed odor; Seaweed odor"	"Shellfish; Shellfish; Shellfish"	"24.0; 25.8; 26.9 (Each) / 23.0 (Mixed)"	"2.4; 2.5; 2.5 (Each) / 1.8 (Mixed)"									"n=3 pooled"	2023/2/15	2023/2/15
PRA000125	SAA009550	ST024				Tokyo_sed1-123_2020	Sediment	"River sediment"	2020	11	20	"2020-11-20T09:50; T10:33; T10:54"			"Cloudy; Cloudy; Cloudy"	Asia	Japan	"Mouth of Riv. Arakawa (Koto Ward), Tokyo"	35.64583333		139.8463889														"22.8; 23.1; 22.8"	"18.4; 18.4; 18.9"								"1.0; 1.2; 1.3"		"18.7; 18.7; 18.7"	"4.4; 3.6; 2.7"	"Silt mixed with fine sand; Silt mixed with fine sand; Silt mixed with fine sand"	"Olive black; Olive black; Olive black"	"Greenish brown; Greenish brown; Greenish brown"	"Hydrogen sulfide odor_Faint; Hydrogen sulfide odor_Faint; Hydrogen sulfide odor_Faint"	"Shell; Shell; Shell"	"44.1; 37.9; 42.0 (Each) / 52.9 (Mixed)"	"8.8; 7.4; 7.2 (Each) / 7.4 (Mixed)"									"n=3 pooled: SAA009266, SAA009267, SAA009268"	2023/2/15	2023/2/15
PRA000125	SAA009551	ST024				Tokyo_sed2-123_2020	Sediment	"River sediment"	2020	11	20	"2020-11-20T11:50; T12:32; T12:53"			"Cloudy; Cloudy;Cloudy"	Asia	Japan	"Mouth of Riv. Sumida (Minato Ward), Tokyo"	35.66		139.7705556														"22.5; 23.6; 23.7"	"19.2; 19.2; 19.1"								"4.1; 4.0; 4.0"		"19.6; 19.7; 19.7"	"5.2; 5.1; 4.5"	"Silt; Silt; Silt"	"Black; Black; Black"	"Dark green; Dark green; Dark green"	"Hydrogen sulfide odor_Strong; Hydrogen sulfide odor_Strong; Hydrogen sulfide odor_Strong"	"Shell, Fallen leaves; Shell, Vinyl pieces; None"	"52.0; 56.2; 53.5 (Each) / 64.8 (Mixed)"	"12.0; 11.9; 10.4 (Each) / 10.7 (Mixed)"									"n=3 pooled: SAA009269; SAA009270; SAA009271"	2023/2/15	2023/2/15
PRA000125	SAA009552	ST023				Yokohama_sed1-123_2020	Sediment	"Marine sediment"	2020	11	18	"2020-11-18T10:04; T11:03; T09:52"			"Fair; Fair; Fair"	Asia	Japan	"Yokohama Port, Kanagawa"	35.45555556		139.6636111														"17.5; 17.8; 17.0"	"19.2; 18.2; 17.4"								"4.0; 5.0; 4.0"		"19.1; 17.0; 20.0"	"12.5; 13.0; 12.0"	"Mud; Mud; Mud"	"Blackish brown; Blackish brown; Blackish brown"	"Clear; Clear; Clear"	"Hydrogen sulfide odor; Hydrogen sulfide odor; Hydrogen sulfide odor"	"None; None; None"	"66.0; 79.1; 70.3 (Each) / 70.6 (Mixed)"	"9.6; 13.1; 11.1 (Each) / 9.6 (Mixed)"									"n=3 pooled: SAA009272; SAA009273; SAA009274"	2023/2/15	2023/2/15
PRA000125	SAA009553	ST024				Niigata_sed1-123_2020	Sediment	"River sediment"	2020	12	3	"2020-12-03T09:20; T09:45; T10:00"			"Rain; Rain; Rain"	Asia	Japan	"Downstream of Riv. Shinano (Niigata City), Niigata"	37.88305556		139.0155556														"7.2; 7.2; 7.2"	"9.0; 9.0; 9.0"										"9.0; 9.0; 9.0"	"3.2; 4.8; 4.8"	"Mud; Sand; Sand"	"Brown; Brown; Brown"	"Green; Green; Green"	"Earthy odor; Odorless; Odorless"	"Leaves; Twigs; Pebbles"	"29.0; 23.9; 21.0 (Each) / 25.1 (Mixed)"	"2.4; 1.3; 1.0 (Each) / 1.2 (Mixed)"									"n=3 pooled; SAA009275, SAA009276, SAA009277"	2023/2/15	2023/2/15
PRA000125	SAA009554	ST024				Toyama_sed1-123_2020	Sediment	"River sediment"	2020	10	13	"2020-10-13T13:00; T13:15; T13:40"			"Cloudy; Cloudy; Cloudy"	Asia	Japan	"Hagiura-bashi Bridge, Mouth of Riv. Jintsu (Toyama City), Toyama"	36.745		137.2180556														"23.0; 22.6; 23.8"	"19.0; 18.9; 18.2"										"18.9; 19.0; 20.2"	"0.7; 0.5; 0.85"	"Mud; Muddy sand; Muddy sand"	"Gray; Gray; Gray"	"Clear; Clear; Clear"	"Hydrogen sulfide odor_Faint; Hydrogen sulfide odor_Faint; Odorless"	"Leaves, Stems; Leaves, Stems; Stems, Shell"	"34.0; 30.0; 19.0 (Each) / 30.6 (Mixed)"	"5.4; 3.5; 1.5 (Each) / 3.2 (Mixed)"									"n=3 pooled"	2023/2/15	2023/2/15
PRA000125	SAA009555	ST024				Ishikawa_sed1-123_2020	Sediment	"River sediment"	2020	11	6	"2020-11-06T10:44; T12:33; T13:38"			"Cloudy; Cloudy; Cloudy"	Asia	Japan	"Mouth of Riv. Sai (Kanazawa City), Ishikawa"	36.60027778		136.5888889														"17.1; 18.7; 19.0"	"12.8; 13.2; 12.7"											"3.2; 1.6; 0.6"	"Silt; Silt mixed with sand; Sand"	"Blackish brown; Grayish brown; Grayish brown"	"Yellow green; Green; Green"	"Fish rotten odor_Strong; Fish rotten odor_Faint; Fish rotten odor_Faint"	"Pebbles, Shell; Pebbles; Pebbles"	"31.0; 25.0; 24.6 (Each) / 30.5 (Mixed)"	"4.3; 1.7; 1.8 (Each) / 2.1 (Mixed)"									"n=3 pooled: SAA009278, SAA009279, SAA009280"	2023/2/15	2023/2/15
PRA000125	SAA009556	ST024				Fukui_sed1-123_2020	Sediment	"River sediment"	2020	10	22	"2020-10-22T10:00; T10:00; T10:00"			"Cloudy; Cloudy; Cloudy"	Asia	Japan	"Mishima-bashi Bridge, Riv. Shono (Tsuruga City), Fukui"	35.6475		136.0627778														"19.5; 19.5; 19.5"	"17.0; 17.0; 17.0"										"17.0; 17.0; 17.0"	"0.2; 0.2; 0.2"	"Sandy; Sandy; Sandy"	"Brown; Brown; Brown"	"Clear; Clear; Clear"	"Odorless; Odorless; Odorless"	"Stones; Stones; Stones"	"19.6; 20.8; 20.2 (Each) / 20.5 (Mixed)"	"1.8; 1.8; 1.4 (Each) / 0.7 (Mixed)"									"n=3 pooled: SAA009281, SAA009282, SAA009283"	2023/2/15	2023/2/15
PRA000125	SAA009557	ST024				Yamanashi_sed1-123_2020	Sediment	"River sediment"	2020	10	27	"2020-10-27T10:21; T09:52; T09:23"			"Fair; Fair; Fair"	Asia	Japan	"Chiaki-bashi Bridge, Riv. Ara (Kofu City), Yamanashi"	35.6475		138.5655556														"16.5; 17.0; 16.5"	"13.5; 13.0; 14.5"										"13.8; 13.0; 14.5"	"0.45; 0.4; 0.5"	"-; -; Sand"	"Gray; Brown; Gray"	"Gray; Brown; Gray"	"River algae odor_Faint; River algae odor_Faint; River algae odor_Faint"	"Sand; Sand; None"	"13.0; 17.0; 29.5 (Each) / 17.2 (Mixed)"	"1.3; 1.1; 1.4 (Each) / 0.9 (Mixed)"									"n=3 pooled"	2023/2/15	2023/2/15
PRA000125	SAA009558	ST024				Nagano_sed1-123_2020	Sediment	"Lake sediment"	2020	10	19	"2020-10-19T10:16; T11:13; T10:16"			"Cloudy; Cloudy; Cloudy"	Asia	Japan	"Center of Lake Suwa, Nagano"	36.05		138.0861111														"11.4; 11.7; 11.3"	"14.1; 14.0; 14.2"								"0.9; 1.3; 1.3"		"13.6; 14.0; 13.6"	"6.0; 6.0; 6.0"	"Mud; Mud; Mud"	"Blackish brown; Blackish brown; Blackish brown"	"Yellow green_Light; Yellow green_Light; Yellow green_Light"	"Swampy odor; Swampy odor; Swampy odor"	"None; None; None"	"78.2; 78.5; 78.8 (Each) / 85.1 (Mixed)"	"14.0; 14.2; 14.4 (Each) / 13.4 (Mixed)"									"n=3 pooled: SAA009284, SAA009285, SAA009286"	2023/2/15	2023/2/15
PRA000125	SAA009559	ST023				Shizuoka_sed1-123_2020	Sediment	"Marine sediment"	2020	10	22	"2020-10-22T10:25; T11:15; T11:32"			"Cloudy; Fair; Fair"	Asia	Japan	"Shimizu Port, Shizuoka"	35.02416667		138.5161111														"21.3; 25.9; 25.0"	"20.1; 20.7; 20.0"								"3.0; 3.2; 3.5"		"21.0; 22.0; 22.0"	"23.9; 20.3; 17.6"	"Sand mixed with clay; Sand mixed with clay; Sand mixed with clay"	"Grayish green_Dark; Grayish green_Dark; Grayish green_Dark"	"Clear; Clear; Clear"	"Odorless; Odorless; Odorless"	"Shellfish, pieces of wood; Shellfish, pieces of wood; Shellfish, pieces of wood"	"23.9; 23.7; 28.0 (Each) / 30.0 (Mixed)"	"19.6; 12.3; 10.6 (Each) / 3.4 (Mixed)"									"n=3 pooled: SAA009287, SAA009288, SAA009289"	2023/2/15	2023/2/15
PRA000125	SAA009560	ST024				Shizuoka_sed6-123_2020	Sediment	"River sediment"	2020	11	12	"2020-11-12T11:00; T12:05; T12:37"			"Fair; Fair; Fair"	Asia	Japan	"Kaketsuka-bashi Bridge, Riv. Tenryu (Iwata City), Shizuoka"	34.67888889		137.7958333														"21.7; 23.0; 20.0"	"13.5; 15.0; 14.8"										"17.0; 13.8; 14.8"	"0.45; 0.45; 0.45"	"Sand; Sand; Sand"	"Grayish brown_Dark; Grayish brown_Dark; Grayish brown_Dark"	"White_Light; White_Light; White_Light"	"Odorless; Odorless; Odorless"	"Pebbles; Pebbles; Pebbles"	"21.1; 21.2; 17.8 (Each) / 19.5 (Mixed)"	"1.4; 1.4; 1.7 (Each) / 1.3 (Mixed)"									"n=3 pooled: SAA009290, SAA009291, SAA009292"	2023/2/15	2023/2/15
PRA000125	SAA009561	ST023				Aichi_sed2-123_2020	Sediment	"Marine sediment"	2020	11	10	"2020-11-10T10:25; T10:30; T10:35"			"Fair; Fair; Fair"	Asia	Japan	"Kinuura Port, Aichi"	34.84166667		136.9486111														"13.7; 13.7; 13.7"	"18.0; 18.0; 18.0"								"4.0; 4.0; 4.0"		"19.5; 19.5; 19.5"	"13.6; 13.6; 13.6"	"Mud; Mud; Mud"	"Grayish black; Grayish black; Grayish black"	"Clear; Clear; Clear"	"Sewage odor; Sewage odor; Sewage odor"	"None; None; None"	"63.1; 65.4; 65.7 (Each) / 66.8 (Mixed)"	"17.8; 11.5; 11.5 (Each) / 9.5 (Mixed)"									"n=3 pooled"	2023/2/15	2023/2/15
PRA000125	SAA009562	ST023				Aichi_sed1-234_2020	Sediment	"Marine sediment"	2020	11	10	"2020-11-10T13:13; T13:18; T13:23"			"Fair; Fair; Fair"	Asia	Japan	"Nagoya Port, West of Shiomi Wharf, Aichi"	35.07111111		136.8691667														"14.7; 14.7; 14.7"	"19.0; 19.0; 19.0"								"2.5; 2.5; 2.5"		"21.0; 21.0; 21.0"	"18.0; 18.0; 18.0"	"Mud; Mud; Mud"	"Grayish green; Grayish green; Grayish green"	"Clear; Clear; Clear"	"Odorless; Odorless; Odorless"	"None; None; None"	"51.6; 46.9; 53.8 (Each) / 57.6 (Mixed)"	"27.6; 33.8; 23.8 (Each) / 6.7 (Mixed)"									"n=3 pooled"	2023/2/15	2023/2/15
PRA000125	SAA009563	ST023				Mie_sed1-123_2020	Sediment	"Marine sediment"	2020	10	28	"2020-10-28T10:15; T10:15; T10:15"			"Cloudy; Cloudy; Cloudy"	Asia	Japan	"Yokkaichi Port, Mie"	34.94944444		136.6530556														"18.1; 19.1; 20.2"	"18.5; 19.0; 19.0"								"1.5; 1.5; 1.2"		"21.2; 21.3; 21.5"	"7.3; 10.1; 5.7"	"Mud; Mud; Mud"	"Grayish black; Grayish black; Grayish black"	"Greenish brown; Greenish brown; Greenish brown"	"Hydrogen sulfide odor_Faint; Hydrogen sulfide odor_Faint; Hydrogen sulfide odor_Faint"	"Shell; Shell; Shell"	"57.9; 69.4; 43.1 (Each) / 55.4 (Mixed)"	"6.7; 8.4; 4.0 (Each) / 5.9 (Mixed)"									"n=3 pooled: SAA009299, SAA009300, SAA009301"	2023/2/15	2023/2/15
PRA000125	SAA009564	ST023				Mie_sed2-123_2020	Sediment	"Marine sediment"	2020	10	20	"2020-10-20T10:55; T11:30; T11:40"			"Fair; Fair; Fair"	Asia	Japan	"Toba Port, Mie"	34.48083333		136.8486111														"20.1; 20.6; 22.9"	"21.7; 21.8; 21.7"								"2.0; 2.5; 2.5"		"21.1; 22.0; 22.0"	"7.0; 6.0; 6.4"	"Mud; Mud; Mud"	"Grayish brown; Grayish brown; Grayish brown"	"Yellow green; Yellow green; Yellow green"	"Swampy odor_Faint; Swampy odor_Faint; Swampy odor_Faint"	"Shell, pieces of wood; Shell, pieces of wood; Shell, pieces of wood"	"57.0; 52.0; 49.2 (Each) / 44.8 (Mixed)"	"9.9; 7.9; 6.7 (Each) / 7.3 (Mixed)"									"n=3 pooled: SAA009302; SAA009303; SAA009304"	2023/2/15	2023/2/15
PRA000125	SAA009565	ST024				Shiga_sed1-123_2020	Sediment	"Lake sediment"	2020	10	28	"2020-10-28T09:20; T10:25; T10:50"			"Cloudy; Cloudy; Cloudy"	Asia	Japan	"Lake Biwa (center, offshore of Minamihira), Shiga"	35.18527778		135.9733333														"17.0; 19.0; 20.8"	"18.2; 18.1; 19.0"								"3.4; 3.6; 3.8"		"8.5; 8.7; 8.7"	"58.6; 54.3; 49.3"	"Mud; Mud; Mud"	"Blackish brown; Blackish brown; Blackish brown"	"Green; Green; Green"	"Swampy odor; Swampy odor; Swampy odor"		"70.0; 68.7; 68.4 (Each) / 79.9 (Mixed)"	"11.7; 11.5; 11.4 (Each) / 10.5 (Mixed)"									"n=3 pooled"	2023/2/15	2023/2/15
PRA000125	SAA009566	ST024				Shiga_sed2-123_2020	Sediment	"Lake sediment"	2020	10	28	"2020-10-28T11:40; T12:15; T12:40"			"Cloudy; Cloudy; Cloudy"	Asia	Japan	"Lake Biwa (center, offshore of Karasaki), Shiga"	35.04611111		135.8955556														"17.9; 18.0; 19.0"	"18.0; 18.0; 17.5"								"3.0; 3.3; 3.6"		"17.1; 17.8; 17.0"	"3.8; 4.0; 3.4"	"Mud; Mud; Mud"	"Gray; Gray; Gray"	"Green; Green; Green"	"Swampy odor; Swampy odor; Swampy odor"	"Aquatic plants; Aquatic plants; Aquatic plants"	"67.6; 68.6; 64.3 (Each) / 77.4 (Mixed)"	"10.8; 12.1; 10.7 (Each) / 10.6 (Mixed)"									"n=3 pooled"	2023/2/15	2023/2/15
PRA000125	SAA009567	ST024				KyotoCity_sed1-123_2020	Sediment	"River sediment"	2020	10	28	"2020-10-28T10:20; T10:35; T10:45"			"Cloudy; Cloudy; Cloudy"	Asia	Japan	"Miyamae-bashi Bridge, Riv. Katsura (Kyoto City), Kyoto"	34.905		135.7125														"17.5; 17.5; 17.5"	"18.5; 18.5; 18.5"										"18.0; 18.0; 18.0"	"0.8; 0.8; 0.8"	"Sand; Sand; Sand"	"Grayish brown; Grayish brown; Grayish brown"	"Clear; Clear; Clear"	"Odorless; Odorless; Odorless"	"None; None; None"	"14.6; 16.5; 15.9 (Each) / 15.6 (Mixed)"	"1.21; 1.04; 1.33 (Each) / 1.1 (Mixed)"									"n=3 pooled: SAA009305, SAA009306, SAA009307"	2023/2/15	2023/2/15
PRA000125	SAA009568	ST024				Osaka_sed1-123_2020	Sediment	"River sediment"	2020	11	25	"2020-11-25T10:15; T11:03; T11:32"			"Cloudy; Cloudy; Cloudy"	Asia	Japan	"Mouth of Riv. Yamato (Sakai City), Osaka"	34.60833333		135.4325														"13.8; 13.9; 14.0"	"16.5; 16.7; 16.7"								"1.3; 1.5; 1.6"		"17.6; 19.7; 19.2"	"1.3; 1.5; 1.6"	"Silt mixed with sand; Silt mixed with sand; Silt"	"Dark olive gray; Olive black; Olive black"	"Yellow_Light; Yellow_Light; Yellow_Light"	"Sewage odor; Fishy smell; Fish odor"	"Vegetative pieces; Vegetative pieces; Vegetative pieces"	"29.8; 33.4; 50.8 (Each) / 40.1 (Mixed)"	"3.0; 4.7; 10.1 (Each) / 5.3 (Mixed)"									"n=3 pooled: SAA009308 and 2 other samples"	2023/2/15	2023/2/15
PRA000125	SAA009569	ST024				OsakaCity_sed2-123_2020	Sediment	"River sediment"	2020	10	28	"2020-10-28T09:32; T11:08; T10:28"			"Fair; Fair; Fair"	Asia	Japan	"Kema-bashi Bridge, Riv. Oh (Osaka City), Osaka"	34.71776		135.51961														"17.0; 19.0; 18.6"	"17.6; 17.7; 17.7"										"17.1; 17.7; 18.0"	"2.2; 1.6; 2.9"	"Silt; Silt; Silt"	"Grayish yellow; Grayish yellow; Grayish yellow"	"Grayish yellow_Light; Grayish yellow_Light; Grayish yellow_Light"	"Odorless; Sewage odor_Faint; Sewage odor_Faint"	"Shellfish; Shellfish; Shellfish"	"49.1; 45.0; 48.7 (Each) / 58.3 (Mixed)"	"8.7; 7.9; 8.1 (Each) / 9.6 (Mixed)"									"n=3 pooled; SAA009311; SAA009312; SAA009313"	2023/2/15	2023/2/15
PRA000125	SAA009570	ST023				OsakaCity_sed3-123_2020	Sediment	"Marine sediment"	2020	10	27	"2020-10-27T09:54; T10:06; T10:22"			"Fair; Fair; Fair"	Asia	Japan	"Mouth of Riv. Yodo, Osaka"	34.67638889		135.3975														"18.0; 19.3; 19.0"	"19.3; 19.0; 20.6"								"2.3 2.2; 2.5"		"22.0; 21.0; 21.2"	"6.3; 5.0; 3.7"	"Silt; Silt; Silt"	"Grayish black; Grayish black; Grayish black"	"Grayish yellow_Light; Grayish yellow_Light; Grayish yellow_Light"	"Oily odor; Oily odor; Oily odor_Faint"	"None; Vegetative pieces; Vegetative pieces"	"33.2; 48.0; 51.1 (Each) / 59.8 (Mixed)"	"6.0; 10.4; 11.7 (Each) / 10.3 (Mixed)"									"n=3 pooled"	2023/2/15	2023/2/15
PRA000125	SAA009571	ST023				OsakaCity_sed1-123_2020	Sediment	"Marine sediment"	2020	10	27	"2020-10-27T08:34; T08:06; T08:45"			"Fair; Fair; Fair"	Asia	Japan	"Osaka Port, Osaka"	34.65861111		135.4313889														"15.4; 17.0; 17.0"	"19.0; 19.0; 20.0"								"2.8; 2.7; 2.9"		"22.6; 21.0; 22.3"	"12.0; 12.6; 12.9"	"Silt; Silt; Silt"	"Black; Black; Black"	"Grayish yellow_Light; Grayish yellow_Light; Grayish yellow_Light"	"Hydrogen sulfide odor_Faint; Hydrogen sulfide odor_Faint; Hydrogen sulfide odor_Faint"	"None; Shellfish; None"	"58.3; 57.5; 56.2 (Each) / 68.0 (Mixed)"	"10.3; 9.5; 9.1 (Each) / 9.9 (Mixed)"									"n=3 pooled; SAA009314, SAA009315, SAA009316"	2023/2/15	2023/2/15
PRA000125	SAA009572	ST023				OsakaCity_sed4-123_2020	Sediment	"Marine sediment"	2020	10	27	"2020-10-27T09:03; T09:15; T09:28"			"Fair; Fair; Fair"	Asia	Japan	"Outside of Osaka Port, Osaka"	34.64027778		135.3858333														"17.2; 18.3; 18.0"	"19.4; 21.4; 21.4"								"2.5; 2.8; 2.9"		"21.3; 21.6; 21.0"	"16.3; 12.0; 12.5"	"Silt; Silt; Silt"	"Grayish black; Grayish black; Grayish black"	"Grayish yellow_Light; Grayish yellow_Light; Grayish yellow_Light"	"Hydrogen sulfide odor_Faint; Hydrogen sulfide odor_Faint; Hydrogen sulfide odor_Faint"	"Shellfish; None; None"	"57.7; 50.3; 35.3 (Each) / 61.1 (Mixed)"	"9.2; 7.3; 4.4 (Each) / 7.6 (Mixed)"									"n=3 pooled"	2023/2/15	2023/2/15
PRA000125	SAA009573	ST023				Hyogo_sed1-123_2020	Sediment	"Marine sediment"	2020	10	28	"2020-10-28T10:50; T11:10; T11:30"			"Fair; Fair; Fair"	Asia	Japan	"Offshore of Himeji, Hyogo"	34.76194444		134.6697222														"19.7; 21.1; 21.3"	"21.6; 21.8; 22.4"								"4.0; 4.0; 3.4"		"21.1; 21.0; 21.0"	"10.0; 10.0; 11.0"	"Silt; Silt; Silt"	"Grayish black; Gray; Gray"	"Greenish blue; Greenish blue; Greenish blue"	"Hydrogen sulfide odor; Hydrogen sulfide odor; Hydrogen sulfide odor"	"None; None; None"	"58.3; 59.8; 61.0 (Each) / 71.1 (Mixed)"	"13.4; 17.6; 12.1 (Each) / 9.8 (Mixed)"									"n=3 pooled"	2023/2/15	2023/2/15
PRA000125	SAA009574	ST023				Hyogo_sed2-123_2020	Sediment	"Marine sediment"	2020	11	17	"2020-11-17T09:50; T10:35; T10:50"			"Fair; Fair; Fair"	Asia	Japan	"Center of Kobe Port, Hyogo"	34.66444444		135.1944444														"19.0; 20.5; 21.8"	"18.5; 18.4; 18.5"								"5.7; 5.1; 5.6"		"14.7; 18.3; 18.7"	"9.6; 9.4; 12.5"	"Silt; Silt; Silt"	"Greenish brown; Greenish brown; Greenish brown"	"Greenish brown; Greenish brown; Greenish brown"	"Hydrogen sulfide odor; Hydrogen sulfide odor; Hydrogen sulfide odor"	"Pebbles; Shell, pebbles; None"	"51.4; 43.1; 54.0 (Each) / 64.0 (Mixed)"	"9.2; 7.8; 9.5 (Each) / 8.2 (Mixed)"									"n=3 pooled: SAA009317, SAA009318, SAA009319"	2023/2/15	2023/2/15
PRA000125	SAA009575	ST024				Nara_sed1_123_2020	Sediment	"River sediment"	2020	10	21	"2020-10-21T10:30; T11:10; T10:50"			"Fair; Fair; Fair"	Asia	Japan	"Taisho-bashi Bridge, Riv. Yamato (Oji town), Nara"	34.58583333		135.6833333														"18.5; 18.5; 18.5"	"18.5; 19.5; 19.7"										"18.5; 19.5; 19.7"	"0.3; 0.3; 0.3"	"Sand; Sand; Sand"	"Gray; Gray; Dark brown"	"Grayish yellow green_Light; Grayish yellow green_Light; Grayish yellow green_Light"	"Fishy smell; Fishy smell; Fishy smell"	"None; None; None"	"22.0; 25.0; 26.0 (Each) / 21.6 (Mixed)"	"0.9; 0.9; 0.5 (Each) / 0.8 (Mixed)"									"n=3 pooled: SAA009320, SAA009321, SAA009322"	2023/2/15	2023/2/15
PRA000125	SAA009576	ST024				Wakayama_sed1-3_2020	Sediment	"River sediment"	2020	11	6	"2020-11-06T13:30; T13:50; T13:15"			"Fair; Fair; Fair"	Asia	Japan	"Kinokawa-ohashi Bridge, Mouth of Riv. Kinokawa (Wakayama City), Wakayama"	34.23		135.1561111														"20.3; 22.1; 22.1"	"18.8; 20.7; 16.3"								"1.5; 2.0; 2.5"		"22.4; 23.4; 22.9"	"5.0; 3.0; 3.5"	"Sand; Sand; Sand"	"Grayish yellow; Grayish yellow; Grayish yellow"	"Greenish yellow_Medium; Greenish yellow_Medium; Greenish yellow_Medium"	"Seaweed odor; Seaweed odor; Seaweed odor"	"Dead leaves; None; Dead leaves"	"27.7; 31.4; 36.9 (Each) / 40.7 (Mixed)"	"4.9; 5.8; 6.8 (Each) / 5.1 (Mixed)"									"n=3 pooled"	2023/2/15	2023/2/15
PRA000125	SAA009577	ST023				Okayama_sed1-123_2020	Sediment	"Marine sediment"	2020	10	26	"2020-10-26T11:20; T11:30; T11:50"			"Fair; Fair; Fair"	Asia	Japan	"Offshore of Mizushima, Okayama"	34.48055556		133.665														"22.5; 24.5; 24.8"	"21.5; 22.0; 21.5"								"3.0; 3.5; 2.8"		"21.4; 21.0; 21.3"	"9.8; 9.7; 8.5"	"Ooze; Ooze; Ooze"	"Grayish green; Grayish green; Grayish green"	"Yellow green_Dark; Yellow green_Dark; Yellow green_Dark"	"Earthy odor; Earthy odor; Earthy odor"	"Seashell pieces; Seashell pieces; Seashell pieces"	"44.9; 45.9; 49.0 (Each) / 44.4 (Mixed)"	"5.7; 5.4; 6.5 (Each) / 5.2 (Mixed)"									"n=3 pooled:SAA009323, SAA009324, SAA009325"	2023/2/15	2023/2/15
PRA000125	SAA009578	ST023				Hiroshima_sed1-123_2020	Sediment	"Marine sediment"	2020	11	11	"2020-11-11T09:53; T10:10; T10:18"			"Fair; Fair; Fair"	Asia	Japan	"Kure Port, Hiroshima"	34.23361111		132.5391667														"14.5; 16.0; 16.6"	"19.9; 20.1; 20.2"								"8.0; 6.0; 6.0"		"19.7; 20.3; 20.6"	"18.0; 17.0; 18.0"	"Silt; Silt; Silt"	"Gray_Dark; Grayish green_Dark; Grayish green_Dark"	"Bluish green_Dark; Bluish green_Dark; Bluish green_Dark"	"Odorless; Hydrogen sulfide odor_Faint; Hydrogen sulfide odor_Faint"	"None; None; None"	"61.3; 61.1; 60.9 (Each) / 70.7 (Mixed)"	"11.2; 10.4; 10.2 (Each) / 10.7 (Mixed)"									"n=3 pooled"	2023/2/15	2023/2/15
PRA000125	SAA009579	ST023				Hiroshima_sed2-123_2020	Sediment	"Marine sediment"	2020	11	11	"2020-11-11T12:12; T12:32; T12:41"			"Fair; Fair; Fair"	Asia	Japan	"Hiroshima Bay (Hiroshima City), Hiroshima"	34.34833333		132.4225														"16.0; 15.8; 16.5"	"19.6; 19.7; 19.9"								"5.0; 3.5; 8.0"		"19.7; 19.9; 20.0"	"10.0; 11.0; 13.0"	"Silt; Silt; Silt"	"Grayish green_Dark; Grayish green_Dark; Grayish green_Dark"	"Bluish green_Dark; Bluish green_Dark; Bluish green_Dark"	"Odorless; Odorless; Odorless"	"None; None; None"	"54.9; 52.9; 54.3 (Each) / 65.1 (Mixed)"	"10.9; 10.4; 10.2 (Each) / 10.8 (Mixed)"									"n=3 pooled"	2023/2/15	2023/2/15
PRA000125	SAA009580	ST023				Yamaguchi_sed1-123_2020	Sediment	"Marine sediment"	2020	10	26	"2020-10-26T10:40; T10:45; T10:50"			"Fair; Fair; Fair"	Asia	Japan	"Tokuyama Bay, Yamaguchi"	33.99361111		131.7505556														"23.0; 23.0; 23.0"	"23.0; 23.0; 23.0"								"4.5; 4.5; 4.5"		"21.0; 21.0; 21.0"	"19.2; 19.2; 19.2"	"Silt; Silt; Silt"	"Grayish yellow green; Grayish yellow green; Grayish yellow green"	"Bluish green; Bluish green; Bluish green"	"Hydrogen sulfide odor_Faint; Hydrogen sulfide odor_Faint; Hydrogen sulfide odor_Faint"	"None; None; None"	"51.7; 52.3; 51.2 (Each) / 63.9 (Mixed)"	"10.8; 11.8; 11.8 (Each) / 8.2 (Mixed)"									"n=3 pooled: SAA009326, SAA009327, SAA009328"	2023/2/15	2023/2/15
PRA000125	SAA009581	ST023				Yamaguchi_sed2-123_2020	Sediment	"Marine sediment"	2020	10	12	"2020-10-12T10:15; T10:20; T10:25"			"Fair; Fair; Fair"	Asia	Japan	"Offshore of Ube, Yamaguchi"	33.915		131.1975														"26.2; 26.2; 26.2"	"22.5; 22.5; 22.5"								"5.0; 5.0; 5.0"		"22.0; 22.0; 22.0"	"9.8; 9.8; 9.8"	"Silt; Silt; Silt"	"Grayish green; Grayish green; Grayish green"	"Grayish green; Grayish green; Grayish green"	"Odorless; Odorless; Odorless"	"None; None; None"	"35.5; 33.9; 33.3 (Each) / 42.7 (Mixed)"	"6.1; 5.8; 5.8 (Each) / 4.8 (Mixed)"									"n=3 pooled"	2023/2/15	2023/2/15
PRA000125	SAA009582	ST023				Yamaguchi_sed3-123_2020	Sediment	"Marine sediment"	2020	11	13	"2020-11-13T11:20; T11:25; T11:30"			"Fair; Fair; Fair"	Asia	Japan	"Offshore of Hagi, Yamaguchi"	34.43805556		131.3794444														"19.0; 19.0; 19.0"	"20.0; 20.0; 20.0"								"15.0; 15.0; 15.0"		"19.0; 19.0; 19.0"	"28.0; 28.0; 28.0"	"Fine sand; Fine sand; Fine sand"	"Light gray; Light gray; Light gray"	"Bluish green; Bluish green; Bluish green"	"Odorless; Odorless; Odorless"	"None; None; None"	"30.0; 29.8; 29.8 (Each) / 32.0 (Mixed)"	"6.2; 6.2; 6.1 (Each) / 4.0 (Mixed)"									"n=3 pooled: SAA009329, SAA009330, SAA009331"	2023/2/15	2023/2/15
PRA000125	SAA009583	ST024				Tokushima_sed1-123_2020	Sediment	"River sediment"	2020	10	15	"2020-10-15T10:00; T09:20; T10:10"			"Fair; Fair; Fair"	Asia	Japan	"Mouth of Riv. Yoshino (Tokushima City), Tokushima"	34.085		134.5913889														"21.2; 21.0; 21.8"	"20.6; 20.8; 20.4"								"3.5; 3.0; 4.0"		"22.9; 23.4; 23.3"	"5.3; 5.0; 5.6"	"Clay mixed with sand; Sand; Clay"	"Grayish black; Grayish black; Grayish black_Dark"	"Green; Green; Green"	"Sewage odor_Faint; Odorless; Sewage odor_Faint"	"Vegetative pieces; None; Vegetative pieces"	"22.0; 23.0; 43.0 (Each) / 32.0 (Mixed)"	"1.6; 1.1; 8.4 (Each) / 2.9 (Mixed)"									"n=3 pooled"	2023/2/15	2023/2/15
PRA000125	SAA009584	ST023				Kagawa_sed1-123_2020	Sediment	"Marine sediment"	2020	10	27	"2020-10-27T09:10; T09:20; T09:30"			"Fair; Fair; Fair"	Asia	Japan	"Takamatsu Port, Kagawa"	34.34972222		134.0788889														"17.3; 15.4; 17.3"	"20.6; 21.3. 20.5"								"1.0; 1.0; 2.0"		"21.3; 21.3; 21.0"	"2.6; 6.0; 5.8"	"Mud; Sand; Sand and mud"	"Black; Black; Black"	"Greenish blue; Greenish white; Greenish blue"	"Hydrogen sulfide odor; Hydrogen sulfide odor_Faint; Hydrogen sulfide odor"	"Vegetative pieces, Shell; Vegetative pieces, Vinyl pieces; None"	"72.4; 30.4; 67.1 (Each) / 54.3 (Mixed)"	"21.7; 2.5; 15.5 (Each) / 7.2 (Mixed)"									"n=3 pooled: SAA009332, SAA009333, SAA009334"	2023/2/15	2023/2/15
PRA000125	SAA009585	ST023				Ehime_sed1-123_2020	Sediment	"Marine sediment"	2020	10	27	"2020-10-27T10:00; T10:10; T10:20"			"Fair; Fair; Fair"	Asia	Japan	"Niihama Port, Ehime"	33.98777778		133.3144444														"21.2; 21.2; 21.2"	"22.0; 22.0; 22.0"								"5.5; 5.5; 5.5"		"22.0; 22.0; 22.0"	"6.51; 6.51; 6.51"	"Fine sand; Fine sand; Fine sand"	"Grayish green_Dark; Grayish green_Dark; Grayish green_Dark"	"Yellow green_Dark; Yellow green_Dark; Yellow green_Dark"	"Odorless; Odorless; Odorless"	"None; None; None"	"25.0; 24.8; 22.5 (Each) / 23.5 (Mixed)"	"2.8; 2.5; 2.2 (Each) / 1.8 (Mixed)"									"n=3 pooled"	2023/2/15	2023/2/15
PRA000125	SAA009586	ST024				Kochi_sed1-123_2020	Sediment	"River sediment"	2020	10	2	"2020-10-02T08:48; T09:22; T10:12"			"Fair; Fair; Fair"	Asia	Japan	"Mouth of Riv. Shimanto (Shimanto City), Kochi"	32.93777778		132.8441667														"23.0; 24.2; 26.4"	"21.0; 21.8; 24.8"										"24.5; 25.0; 25.0"	"2.0; 2.0; 0.1"	"Muddy; Muddy; Muddy"	"Grayish black; Grayish black; Brown"	"Clear; Clear; Clear"	"Hydrogen sulfide odor_Faint; Hydrogen sulfide odor_Faint; Odorless"	"Grass, Wood; Grass, Wood; None"	"24.5; 25.0; 17.3 (Each) / 22.9 (Mixed)"	"3.4; 3.4; 2.2 (Each) / 2.8 (Mixed)"									"n=3 pooled"	2023/2/15	2023/2/15
PRA000125	SAA009587	ST023				KitakyushuCity_sed1-123_2020	Sediment	"Marine sediment"	2020	11	18	"2020-11-18T09:35; T10:00; T10:20"			"Fair; Fair; Fair"	Asia	Japan	"Dokai Bay (Kitakyushu City), Fukuoka"	33.90388889		130.8158333														"19.0; 19.0; 19.0"	"18.0; 18.0; 18.5"								"3.5; 3.5; 3.5"		"19.0; 19.5; 19.0"	"10.3; 11.4; 7.0"	"Mud; Mud; Mud"	"Grayish black; Grayish black; Grayish black"	"Clear; Clear; Clear"	"Earthy odor_Faint; Earthy odor_Faint; Earthy odor_Faint"	"Little; Little; Little"	"46.6; 46.3; 57.3 (Each) / 46.7 (Mixed)"	"7.8; 8.2; 11.6 (Each) / 8.1 (Mixed)"									"n=3 pooled: SAA009338, SAA009339, SAA009340"	2023/2/15	2023/2/15
PRA000125	SAA009588	ST023				FukuokaCity_sed1-123_2020	Sediment	"Marine sediment"	2020	10	20	"2020-10-20T08:47; T09:44; T10:05"			"Fair; Fair; Fair"	Asia	Japan	"Hakata Bay, Fukuoka"	33.60833333		130.3297222														"19.5; 19.8; 20.0"	"21.5; 21.2; 21.5"								"1.9; 2.0; 2.0"		"21.0; 20.0; 20.0"	"7.4; 8.0; 8.4"	"Silt; Silt; Silt"	"Grayish yellow green_Dark; Grayish yellow green_Dark; Grayish yellow green_Dark"	"Green_Dark; Green_Dark; Yellow green_Dark"	"Odorless; Odorless; Odorless"	"None; None; None"	"44.0; 42.0; 49.0 (Each) / 52.9 (Mixed)"	"9.5; 9.5; 10.0 (Each) / 8.3 (Mixed)"									"n=3 pooled: SAA009341, SAA009342, SAA009343"	2023/2/15	2023/2/15
PRA000125	SAA009589	ST023				Saga_sed1-123_2020	Sediment	"Marine sediment"	2020	10	28	"2020-10-28T11:26; T11:53; T12:03"			"Cloudy; Cloudy; Cloudy"	Asia	Japan	"Imari Bay, Saga"	33.34		129.8208333														"25.0; 22.0; 21.5"	"22.0; 21.5; 22.0"								"3.3; 3.5; 3.5"		"21.5; 21.5; 21.0"	"15.5; 14.5; 14.4"	"Mud; Mud; Mud"	"Grayish black; Grayish black; Grayish black"	"Clear; Clear; Clear"	"Earthy odor; Earthy odor; Earthy odor"	"None; None; None"	"68.3; 67.3; 66.3 (Each) / 64.9 (Mixed)"	"11.2; 11.5; 11.0 (Each) / 9.7 (Mixed)"									"n=3 pooled: SAA009344, SAA009345, SAA009346"	2023/2/15	2023/2/15
PRA000125	SAA009590	ST023				Nagasaki_sed1-123_2020	Sediment	"Marine sediment"	2020	11	5	"2020-11-05T10:35; T11:10; T11:50"			"Fair; Fair; Fair"	Asia	Japan	"Omura Bay, Nagasaki"	32.98833333		129.8522222														"18.5; 18.2; 19.6"	"20.5; 20.5; 20.5"								"6.0; 6.5; 5.0"		"20.8; 21.0; 21.6"	"19.2; 20.3; 19.8"	"Sand and mud; Sand and mud; Sand and mud"	"Grayish brown; Grayish brown; Grayish brown"	"Greenish blue_Light; Greenish blue_Light; Greenish blue_Light"	"Hydrogen sulfide odor_Faint; Hydrogen sulfide odor_Faint; Hydrogen sulfide odor_Faint"	"Seashell pieces; Seashell pieces; Seashell pieces"	"72.0; 70.0; 70.0 (Each) / 68.2 (Mixed)"	"13.0; 13.0; 13.0 (Each) / 12.4 (Mixed)"									"n=3 pooled"	2023/2/15	2023/2/15
PRA000125	SAA009591	ST024				Oita_sed1-123_2020	Sediment	"River sediment"	2020	10	26	"2020-10-26T09:44; T10:30; T11:18"			"Fair; Fair; Fair"	Asia	Japan	"Mouth of Riv. Oita, Oita"	33.25722222		131.6175														"19.6; 20.1; 18.9"	"19.6; 19.8; 20.7"										"21.2; 22.7; 22.9"	"1.5; 3.2; 3.4"	"Muddy sand; Sand; Sand"	"Black; Black; Black"	"Grayish green; Grayish green; Grayish green"	"Hydrogen sulfide odor; Odorless; Smell of dry grass"	"Shell, Gravels; Shell, Gravels, pieces of wood; Shell, Gravels, pieces of wood"	"19.9; 18.9; 18.1 (Each) / 20.6 (Mixed)"	"2.3; 1.6; 1.9 (Each) / 1.8 (Mixed)"									"n=3 pooled: SAA009347, SAA009348, SAA009349"	2023/2/15	2023/2/15
PRA000125	SAA009592	ST024				Miyazaki_sed1-123_2020	Sediment	"River sediment"	2020	10	28	"2020-10-26T10:33; T10:51; T11:22"			"Fair; Fair; Fair"	Asia	Japan	"Mouth of Riv. Oyodo (Miyazaki City), Miyazaki"	31.89611111		131.4402778														"23.0; 24.0; 24.0"	"18.8; 18.8; 19.0"										"19.5; 20.0; 21.0"	"0.44; 0.73; 0.79"	"Pebble, Sand; Pebble, Sand; Pebble, Sand"	"Grayish black_Light; Grayish black_Light; Grayish black_Light"	"Clear; Clear; Clear"	"Odorless; Odorless; Odorless"	"None; None; None"	"20.5; 16.4; 20.6 (Each) / 17.6 (Mixed)"	"1.4; 1.7; 1.6 (Each) / 1.3 (Mixed)"									"n=3 pooled"	2023/2/15	2023/2/15
PRA000125	SAA009593	ST024				Kagoshima_sed1-123_2020	Sediment	"River sediment"	2020	9	29	"2020-09-29T12:15; T11:20; T10:50"			"Fair; Fair; Fair"	Asia	Japan	"Riv. Amori (Kirishima City), Kagoshima"	31.7225		130.7416667														"25.2; 25.0; 25.6"	"20.2; 19.5; 20.4"										"20.7; 21.5; 21.8"	"1.0; 0.5; 1.0"	"Gravel; Gravel; Gravel"	"Blackish brown; Blackish brown; Blackish brown"	"Clear; Clear; Clear"	"Sewage odor_Faint; Earthy odor_Faint; Odorless"	"Pebbles; Pebbles; Pebbles"	"24.0; 22.0; 15.0 (Each) / 24.1 (Mixed)"	"1.6; 1.2; 1.1 (Each) / 1.1 (Mixed)"									"n=3 pooled"	2023/2/15	2023/2/15
PRA000125	SAA009594	ST024				Kagoshima_sed2-123_2020	Sediment	"River sediment"	2020	10	12	"2020-10-12T11:42; T11:13; T10:37"			"Fair; Fair; Fair"	Asia	Japan	"Gotanda-bashi Bridge, Riv. Gotanda (Ichikikushikino City), Kagoshima"	31.72583333		130.2769444														"25.6; 26.0; 24.9"	"24.6; 23.4; 22.2"										"23.7; 23.3; 23.0"	"0.3; 0.3; 0.3"	"Gravel; Gravel; Gravel"	"Brown; Brown; Brown"	"Clear; Clear; Clear"	"Earthy odor_Faint; Earthy odor_Faint; Earthy odor_Faint"	"Pebbles; Pebbles; Pebbles"	"19.0; 25.0; 24.0 (Each) / 24.7 (Mixed)"	"2.0; 1.6; 2.6 (Each) / 2.0 (Mixed)"									"n=3 pooled"	2023/2/15	2023/2/15
PRA000125	SAA009595	ST023				Okinawa_sed1-123_2020	Sediment	"Marine sediment"	2020	10	14	"2020-10-14T11:40; T12:42; T12:20"			"Fair; Fair; Fair"	Asia	Japan	"Naha Port, Okinawa"	26.21222222		127.665														"27.3; 30.8; 27.2"	"27.3; 27.8; 27.5"								"1.2; 1.5; 3.3"		"27.3; 27.3; 27.2"	"7.0; 9.0; 4.1"	"Sludge; Sludge; Sludge"	"Grayish black; Grayish black; Grayish black"	"Green; Green; Green"	"Hydrogen sulfide odor, Sewage odor; Hydrogen sulfide odor, Sewage odor; Hydrogen sulfide odor, Sewage odor"	"Vegetative pieces, Shellfish, Pebbles; Pebbles, Vegetative pieces, Vinyl pieces, Pieces of sponge; Pebbles, Shellfish, Vinyl pieces, Plastic pieces"	"39.2; 41.1; 33.6 (Each) / 49.2 (Mixed)"	"8.8; 10.1; 9.2 (Each) / 8.7  (Mixed)"									"n=3 pooled"	2023/2/15	2023/2/15
